<?xml version="1.0" encoding="UTF-8" standalone="no" ?>
<gpx xmlns="http://www.topografix.com/GPX/1/1" xmlns:xsi="http://www.w3.org/2001/XMLSchema-instance" xsi:schemaLocation="http://www.topografix.com/GPX/1/1 http://www.topografix.com/GPX/1/1/gpx.xsd" version="1.1" creator="VisuGPX - https://www.visugpx.com">
  <metadata>
    <name>2017-07-04 Bike ride-Amberieux en Dombes O via Toussieux</name>
    <desc><![CDATA[2017-07-04 Bike ride-Amberieux en Dombes O via Toussieux]]></desc>
  </metadata>
  <wpt lat="45.92461" lon="4.73718">
    <ele>174</ele>
    <name><![CDATA[2017-07-04 15:57 (Start)]]></name>
  </wpt>
  <wpt lat="45.92461" lon="4.73701">
    <ele>174</ele>
    <name><![CDATA[2017-07-04 15:57 (End)]]></name>
    <desc><![CDATA[Created by Google My Tracks on Android  Name: 2017-07-04 15:57 Activity type: biking Description: - Total distance: 40.74 km (25.3 mi) Total time: 2:08:26 Moving time: 2:05:50 Average speed: 19.03 km/h (11.8 mi/h) Average moving speed: 19.42 km/h (12.1 mi/h) Max speed: 50.34 km/h (31.3 mi/h) Average pace: 3:09 min/km (5:04 min/mi) Average moving pace: 3:05 min/km (4:58 min/mi) Fastest pace: 1:12 min/km (1:55 min/mi) Max elevation: 310 m (1016 ft) Min elevation: 164 m (537 ft) Elevation gain: 616 m (2021 ft) Max grade: 13 % Min grade: -11 % Recorded: 04/07/2017 15:57]]></desc>
  </wpt>
  <trk>
    <name><![CDATA[2017-07-04 15:57]]></name>
    <trkseg>
      <trkpt lat="45.92461" lon="4.73718">
        <ele>174</ele>
        <time>2017-07-04T13:57:24.138Z</time>
      </trkpt>
      <trkpt lat="45.92459" lon="4.73722">
        <ele>174</ele>
        <time>2017-07-04T13:57:45Z</time>
      </trkpt>
      <trkpt lat="45.92456" lon="4.73727">
        <ele>174</ele>
        <time>2017-07-04T13:58:06Z</time>
      </trkpt>
      <trkpt lat="45.92462" lon="4.73724">
        <ele>174</ele>
        <time>2017-07-04T13:58:07Z</time>
      </trkpt>
      <trkpt lat="45.92468" lon="4.73715">
        <ele>174</ele>
        <time>2017-07-04T13:58:24Z</time>
      </trkpt>
      <trkpt lat="45.92468" lon="4.73713">
        <ele>174</ele>
        <time>2017-07-04T13:58:25Z</time>
      </trkpt>
      <trkpt lat="45.92471" lon="4.73701">
        <ele>174</ele>
        <time>2017-07-04T13:58:29Z</time>
      </trkpt>
      <trkpt lat="45.92471" lon="4.73697">
        <ele>174</ele>
        <time>2017-07-04T13:58:30Z</time>
      </trkpt>
      <trkpt lat="45.92472" lon="4.73684">
        <ele>174</ele>
        <time>2017-07-04T13:58:33Z</time>
      </trkpt>
      <trkpt lat="45.92472" lon="4.73679">
        <ele>174</ele>
        <time>2017-07-04T13:58:34Z</time>
      </trkpt>
      <trkpt lat="45.92473" lon="4.73669">
        <ele>174</ele>
        <time>2017-07-04T13:58:36Z</time>
      </trkpt>
      <trkpt lat="45.92474" lon="4.73663">
        <ele>174</ele>
        <time>2017-07-04T13:58:37Z</time>
      </trkpt>
      <trkpt lat="45.92476" lon="4.73652">
        <ele>174</ele>
        <time>2017-07-04T13:58:39Z</time>
      </trkpt>
      <trkpt lat="45.92478" lon="4.73646">
        <ele>174</ele>
        <time>2017-07-04T13:58:40Z</time>
      </trkpt>
      <trkpt lat="45.9248" lon="4.73642">
        <ele>174</ele>
        <time>2017-07-04T13:58:41Z</time>
      </trkpt>
      <trkpt lat="45.92486" lon="4.73643">
        <ele>174</ele>
        <time>2017-07-04T13:58:42Z</time>
      </trkpt>
      <trkpt lat="45.92491" lon="4.73643">
        <ele>174</ele>
        <time>2017-07-04T13:58:43Z</time>
      </trkpt>
      <trkpt lat="45.92496" lon="4.73644">
        <ele>174</ele>
        <time>2017-07-04T13:58:44Z</time>
      </trkpt>
      <trkpt lat="45.92501" lon="4.73645">
        <ele>174</ele>
        <time>2017-07-04T13:58:45Z</time>
      </trkpt>
      <trkpt lat="45.92506" lon="4.73645">
        <ele>174</ele>
        <time>2017-07-04T13:58:46Z</time>
      </trkpt>
      <trkpt lat="45.92511" lon="4.73645">
        <ele>174</ele>
        <time>2017-07-04T13:58:47Z</time>
      </trkpt>
      <trkpt lat="45.92517" lon="4.73645">
        <ele>174</ele>
        <time>2017-07-04T13:58:48Z</time>
      </trkpt>
      <trkpt lat="45.92522" lon="4.73644">
        <ele>173</ele>
        <time>2017-07-04T13:58:49Z</time>
      </trkpt>
      <trkpt lat="45.92528" lon="4.73643">
        <ele>173</ele>
        <time>2017-07-04T13:58:50Z</time>
      </trkpt>
      <trkpt lat="45.92534" lon="4.73642">
        <ele>173</ele>
        <time>2017-07-04T13:58:51Z</time>
      </trkpt>
      <trkpt lat="45.92539" lon="4.73641">
        <ele>173</ele>
        <time>2017-07-04T13:58:52Z</time>
      </trkpt>
      <trkpt lat="45.92545" lon="4.73639">
        <ele>173</ele>
        <time>2017-07-04T13:58:53Z</time>
      </trkpt>
      <trkpt lat="45.92551" lon="4.73638">
        <ele>173</ele>
        <time>2017-07-04T13:58:54Z</time>
      </trkpt>
      <trkpt lat="45.92557" lon="4.73637">
        <ele>173</ele>
        <time>2017-07-04T13:58:55Z</time>
      </trkpt>
      <trkpt lat="45.92564" lon="4.73636">
        <ele>173</ele>
        <time>2017-07-04T13:58:56Z</time>
      </trkpt>
      <trkpt lat="45.9257" lon="4.73634">
        <ele>173</ele>
        <time>2017-07-04T13:58:57Z</time>
      </trkpt>
      <trkpt lat="45.92576" lon="4.73633">
        <ele>173</ele>
        <time>2017-07-04T13:58:58Z</time>
      </trkpt>
      <trkpt lat="45.92582" lon="4.73633">
        <ele>172</ele>
        <time>2017-07-04T13:58:59Z</time>
      </trkpt>
      <trkpt lat="45.92588" lon="4.73632">
        <ele>172</ele>
        <time>2017-07-04T13:59:00Z</time>
      </trkpt>
      <trkpt lat="45.92594" lon="4.73631">
        <ele>172</ele>
        <time>2017-07-04T13:59:01Z</time>
      </trkpt>
      <trkpt lat="45.92599" lon="4.7363">
        <ele>172</ele>
        <time>2017-07-04T13:59:02Z</time>
      </trkpt>
      <trkpt lat="45.92604" lon="4.73629">
        <ele>173</ele>
        <time>2017-07-04T13:59:03Z</time>
      </trkpt>
      <trkpt lat="45.9261" lon="4.73631">
        <ele>173</ele>
        <time>2017-07-04T13:59:04Z</time>
      </trkpt>
      <trkpt lat="45.92618" lon="4.73637">
        <ele>173</ele>
        <time>2017-07-04T13:59:05Z</time>
      </trkpt>
      <trkpt lat="45.92623" lon="4.73643">
        <ele>173</ele>
        <time>2017-07-04T13:59:06Z</time>
      </trkpt>
      <trkpt lat="45.92624" lon="4.73653">
        <ele>173</ele>
        <time>2017-07-04T13:59:07Z</time>
      </trkpt>
      <trkpt lat="45.92629" lon="4.73661">
        <ele>173</ele>
        <time>2017-07-04T13:59:08Z</time>
      </trkpt>
      <trkpt lat="45.92632" lon="4.73668">
        <ele>173</ele>
        <time>2017-07-04T13:59:09Z</time>
      </trkpt>
      <trkpt lat="45.92636" lon="4.73674">
        <ele>173</ele>
        <time>2017-07-04T13:59:10Z</time>
      </trkpt>
      <trkpt lat="45.9264" lon="4.73681">
        <ele>173</ele>
        <time>2017-07-04T13:59:11Z</time>
      </trkpt>
      <trkpt lat="45.92644" lon="4.73687">
        <ele>173</ele>
        <time>2017-07-04T13:59:12Z</time>
      </trkpt>
      <trkpt lat="45.92649" lon="4.73693">
        <ele>173</ele>
        <time>2017-07-04T13:59:13Z</time>
      </trkpt>
      <trkpt lat="45.92654" lon="4.73698">
        <ele>173</ele>
        <time>2017-07-04T13:59:14Z</time>
      </trkpt>
      <trkpt lat="45.92661" lon="4.73704">
        <ele>173</ele>
        <time>2017-07-04T13:59:15Z</time>
      </trkpt>
      <trkpt lat="45.92668" lon="4.73709">
        <ele>174</ele>
        <time>2017-07-04T13:59:16Z</time>
      </trkpt>
      <trkpt lat="45.92674" lon="4.73713">
        <ele>174</ele>
        <time>2017-07-04T13:59:17Z</time>
      </trkpt>
      <trkpt lat="45.92681" lon="4.73716">
        <ele>173</ele>
        <time>2017-07-04T13:59:18Z</time>
      </trkpt>
      <trkpt lat="45.92688" lon="4.73718">
        <ele>173</ele>
        <time>2017-07-04T13:59:19Z</time>
      </trkpt>
      <trkpt lat="45.92695" lon="4.73719">
        <ele>173</ele>
        <time>2017-07-04T13:59:20Z</time>
      </trkpt>
      <trkpt lat="45.92702" lon="4.73721">
        <ele>173</ele>
        <time>2017-07-04T13:59:21Z</time>
      </trkpt>
      <trkpt lat="45.92708" lon="4.73722">
        <ele>173</ele>
        <time>2017-07-04T13:59:22Z</time>
      </trkpt>
      <trkpt lat="45.92714" lon="4.73723">
        <ele>173</ele>
        <time>2017-07-04T13:59:23Z</time>
      </trkpt>
      <trkpt lat="45.92721" lon="4.73725">
        <ele>173</ele>
        <time>2017-07-04T13:59:24Z</time>
      </trkpt>
      <trkpt lat="45.92727" lon="4.73726">
        <ele>173</ele>
        <time>2017-07-04T13:59:25Z</time>
      </trkpt>
      <trkpt lat="45.92733" lon="4.73727">
        <ele>173</ele>
        <time>2017-07-04T13:59:26Z</time>
      </trkpt>
      <trkpt lat="45.92739" lon="4.73728">
        <ele>173</ele>
        <time>2017-07-04T13:59:27Z</time>
      </trkpt>
      <trkpt lat="45.92745" lon="4.7373">
        <ele>173</ele>
        <time>2017-07-04T13:59:28Z</time>
      </trkpt>
      <trkpt lat="45.92751" lon="4.73731">
        <ele>172</ele>
        <time>2017-07-04T13:59:29Z</time>
      </trkpt>
      <trkpt lat="45.92756" lon="4.73733">
        <ele>172</ele>
        <time>2017-07-04T13:59:30Z</time>
      </trkpt>
      <trkpt lat="45.92761" lon="4.73734">
        <ele>172</ele>
        <time>2017-07-04T13:59:31Z</time>
      </trkpt>
      <trkpt lat="45.92769" lon="4.73737">
        <ele>172</ele>
        <time>2017-07-04T13:59:33Z</time>
      </trkpt>
      <trkpt lat="45.92774" lon="4.73739">
        <ele>172</ele>
        <time>2017-07-04T13:59:34Z</time>
      </trkpt>
      <trkpt lat="45.92782" lon="4.73741">
        <ele>172</ele>
        <time>2017-07-04T13:59:36Z</time>
      </trkpt>
      <trkpt lat="45.92786" lon="4.73737">
        <ele>172</ele>
        <time>2017-07-04T13:59:37Z</time>
      </trkpt>
      <trkpt lat="45.92789" lon="4.73731">
        <ele>172</ele>
        <time>2017-07-04T13:59:38Z</time>
      </trkpt>
      <trkpt lat="45.92791" lon="4.73724">
        <ele>172</ele>
        <time>2017-07-04T13:59:39Z</time>
      </trkpt>
      <trkpt lat="45.92793" lon="4.73717">
        <ele>172</ele>
        <time>2017-07-04T13:59:40Z</time>
      </trkpt>
      <trkpt lat="45.92794" lon="4.73708">
        <ele>172</ele>
        <time>2017-07-04T13:59:41Z</time>
      </trkpt>
      <trkpt lat="45.92797" lon="4.737">
        <ele>172</ele>
        <time>2017-07-04T13:59:42Z</time>
      </trkpt>
      <trkpt lat="45.92799" lon="4.73691">
        <ele>172</ele>
        <time>2017-07-04T13:59:43Z</time>
      </trkpt>
      <trkpt lat="45.92801" lon="4.73683">
        <ele>172</ele>
        <time>2017-07-04T13:59:44Z</time>
      </trkpt>
      <trkpt lat="45.92803" lon="4.73675">
        <ele>172</ele>
        <time>2017-07-04T13:59:45Z</time>
      </trkpt>
      <trkpt lat="45.92803" lon="4.73666">
        <ele>172</ele>
        <time>2017-07-04T13:59:46Z</time>
      </trkpt>
      <trkpt lat="45.92804" lon="4.73658">
        <ele>172</ele>
        <time>2017-07-04T13:59:47Z</time>
      </trkpt>
      <trkpt lat="45.92806" lon="4.73651">
        <ele>172</ele>
        <time>2017-07-04T13:59:48Z</time>
      </trkpt>
      <trkpt lat="45.92808" lon="4.73644">
        <ele>172</ele>
        <time>2017-07-04T13:59:49Z</time>
      </trkpt>
      <trkpt lat="45.9281" lon="4.73637">
        <ele>172</ele>
        <time>2017-07-04T13:59:50Z</time>
      </trkpt>
      <trkpt lat="45.92813" lon="4.73633">
        <ele>172</ele>
        <time>2017-07-04T13:59:51Z</time>
      </trkpt>
      <trkpt lat="45.92818" lon="4.73622">
        <ele>172</ele>
        <time>2017-07-04T13:59:53Z</time>
      </trkpt>
      <trkpt lat="45.9282" lon="4.73615">
        <ele>172</ele>
        <time>2017-07-04T13:59:54Z</time>
      </trkpt>
      <trkpt lat="45.9282" lon="4.73606">
        <ele>171</ele>
        <time>2017-07-04T13:59:55Z</time>
      </trkpt>
      <trkpt lat="45.9282" lon="4.73597">
        <ele>171</ele>
        <time>2017-07-04T13:59:56Z</time>
      </trkpt>
      <trkpt lat="45.9282" lon="4.73588">
        <ele>171</ele>
        <time>2017-07-04T13:59:57Z</time>
      </trkpt>
      <trkpt lat="45.9282" lon="4.73579">
        <ele>171</ele>
        <time>2017-07-04T13:59:58Z</time>
      </trkpt>
      <trkpt lat="45.9282" lon="4.73571">
        <ele>171</ele>
        <time>2017-07-04T13:59:59Z</time>
      </trkpt>
      <trkpt lat="45.9282" lon="4.73562">
        <ele>171</ele>
        <time>2017-07-04T14:00:00Z</time>
      </trkpt>
      <trkpt lat="45.92821" lon="4.73553">
        <ele>171</ele>
        <time>2017-07-04T14:00:01Z</time>
      </trkpt>
      <trkpt lat="45.92821" lon="4.73544">
        <ele>171</ele>
        <time>2017-07-04T14:00:02Z</time>
      </trkpt>
      <trkpt lat="45.92822" lon="4.73535">
        <ele>172</ele>
        <time>2017-07-04T14:00:03Z</time>
      </trkpt>
      <trkpt lat="45.92823" lon="4.73526">
        <ele>172</ele>
        <time>2017-07-04T14:00:04Z</time>
      </trkpt>
      <trkpt lat="45.92824" lon="4.73517">
        <ele>172</ele>
        <time>2017-07-04T14:00:05Z</time>
      </trkpt>
      <trkpt lat="45.92825" lon="4.73507">
        <ele>172</ele>
        <time>2017-07-04T14:00:06Z</time>
      </trkpt>
      <trkpt lat="45.92826" lon="4.73497">
        <ele>172</ele>
        <time>2017-07-04T14:00:07Z</time>
      </trkpt>
      <trkpt lat="45.92828" lon="4.73487">
        <ele>172</ele>
        <time>2017-07-04T14:00:08Z</time>
      </trkpt>
      <trkpt lat="45.92829" lon="4.73477">
        <ele>172</ele>
        <time>2017-07-04T14:00:09Z</time>
      </trkpt>
      <trkpt lat="45.92831" lon="4.73467">
        <ele>172</ele>
        <time>2017-07-04T14:00:10Z</time>
      </trkpt>
      <trkpt lat="45.92832" lon="4.73458">
        <ele>172</ele>
        <time>2017-07-04T14:00:11Z</time>
      </trkpt>
      <trkpt lat="45.92833" lon="4.73448">
        <ele>172</ele>
        <time>2017-07-04T14:00:12Z</time>
      </trkpt>
      <trkpt lat="45.92834" lon="4.73439">
        <ele>172</ele>
        <time>2017-07-04T14:00:13Z</time>
      </trkpt>
      <trkpt lat="45.92836" lon="4.73431">
        <ele>172</ele>
        <time>2017-07-04T14:00:14Z</time>
      </trkpt>
      <trkpt lat="45.92836" lon="4.73422">
        <ele>172</ele>
        <time>2017-07-04T14:00:15Z</time>
      </trkpt>
      <trkpt lat="45.92837" lon="4.73413">
        <ele>172</ele>
        <time>2017-07-04T14:00:16Z</time>
      </trkpt>
      <trkpt lat="45.92838" lon="4.73403">
        <ele>172</ele>
        <time>2017-07-04T14:00:17Z</time>
      </trkpt>
      <trkpt lat="45.92839" lon="4.73394">
        <ele>172</ele>
        <time>2017-07-04T14:00:18Z</time>
      </trkpt>
      <trkpt lat="45.9284" lon="4.73385">
        <ele>172</ele>
        <time>2017-07-04T14:00:19Z</time>
      </trkpt>
      <trkpt lat="45.92842" lon="4.73375">
        <ele>172</ele>
        <time>2017-07-04T14:00:20Z</time>
      </trkpt>
      <trkpt lat="45.92842" lon="4.73366">
        <ele>171</ele>
        <time>2017-07-04T14:00:21Z</time>
      </trkpt>
      <trkpt lat="45.92843" lon="4.73356">
        <ele>171</ele>
        <time>2017-07-04T14:00:22Z</time>
      </trkpt>
      <trkpt lat="45.92844" lon="4.73346">
        <ele>171</ele>
        <time>2017-07-04T14:00:23Z</time>
      </trkpt>
      <trkpt lat="45.92845" lon="4.73336">
        <ele>171</ele>
        <time>2017-07-04T14:00:24Z</time>
      </trkpt>
      <trkpt lat="45.92846" lon="4.73326">
        <ele>171</ele>
        <time>2017-07-04T14:00:25Z</time>
      </trkpt>
      <trkpt lat="45.92847" lon="4.73316">
        <ele>171</ele>
        <time>2017-07-04T14:00:26Z</time>
      </trkpt>
      <trkpt lat="45.92848" lon="4.73306">
        <ele>171</ele>
        <time>2017-07-04T14:00:27Z</time>
      </trkpt>
      <trkpt lat="45.9285" lon="4.73296">
        <ele>171</ele>
        <time>2017-07-04T14:00:28Z</time>
      </trkpt>
      <trkpt lat="45.9285" lon="4.73286">
        <ele>171</ele>
        <time>2017-07-04T14:00:29Z</time>
      </trkpt>
      <trkpt lat="45.92852" lon="4.73276">
        <ele>171</ele>
        <time>2017-07-04T14:00:30Z</time>
      </trkpt>
      <trkpt lat="45.92853" lon="4.73267">
        <ele>171</ele>
        <time>2017-07-04T14:00:31Z</time>
      </trkpt>
      <trkpt lat="45.92854" lon="4.73258">
        <ele>171</ele>
        <time>2017-07-04T14:00:32Z</time>
      </trkpt>
      <trkpt lat="45.92855" lon="4.73248">
        <ele>171</ele>
        <time>2017-07-04T14:00:33Z</time>
      </trkpt>
      <trkpt lat="45.92856" lon="4.7324">
        <ele>171</ele>
        <time>2017-07-04T14:00:34Z</time>
      </trkpt>
      <trkpt lat="45.92857" lon="4.73231">
        <ele>171</ele>
        <time>2017-07-04T14:00:35Z</time>
      </trkpt>
      <trkpt lat="45.92858" lon="4.73223">
        <ele>171</ele>
        <time>2017-07-04T14:00:36Z</time>
      </trkpt>
      <trkpt lat="45.92859" lon="4.73216">
        <ele>171</ele>
        <time>2017-07-04T14:00:37Z</time>
      </trkpt>
      <trkpt lat="45.9286" lon="4.73208">
        <ele>171</ele>
        <time>2017-07-04T14:00:38Z</time>
      </trkpt>
      <trkpt lat="45.92861" lon="4.732">
        <ele>171</ele>
        <time>2017-07-04T14:00:39Z</time>
      </trkpt>
      <trkpt lat="45.92862" lon="4.73192">
        <ele>171</ele>
        <time>2017-07-04T14:00:40Z</time>
      </trkpt>
      <trkpt lat="45.92862" lon="4.73183">
        <ele>171</ele>
        <time>2017-07-04T14:00:41Z</time>
      </trkpt>
      <trkpt lat="45.92863" lon="4.73174">
        <ele>171</ele>
        <time>2017-07-04T14:00:42Z</time>
      </trkpt>
      <trkpt lat="45.92864" lon="4.73166">
        <ele>171</ele>
        <time>2017-07-04T14:00:43Z</time>
      </trkpt>
      <trkpt lat="45.92866" lon="4.73157">
        <ele>171</ele>
        <time>2017-07-04T14:00:44Z</time>
      </trkpt>
      <trkpt lat="45.92867" lon="4.73148">
        <ele>171</ele>
        <time>2017-07-04T14:00:45Z</time>
      </trkpt>
      <trkpt lat="45.92869" lon="4.73139">
        <ele>171</ele>
        <time>2017-07-04T14:00:46Z</time>
      </trkpt>
      <trkpt lat="45.92871" lon="4.7313">
        <ele>171</ele>
        <time>2017-07-04T14:00:47Z</time>
      </trkpt>
      <trkpt lat="45.92872" lon="4.73121">
        <ele>171</ele>
        <time>2017-07-04T14:00:48Z</time>
      </trkpt>
      <trkpt lat="45.92875" lon="4.73112">
        <ele>172</ele>
        <time>2017-07-04T14:00:49Z</time>
      </trkpt>
      <trkpt lat="45.92877" lon="4.73104">
        <ele>172</ele>
        <time>2017-07-04T14:00:50Z</time>
      </trkpt>
      <trkpt lat="45.92879" lon="4.73095">
        <ele>172</ele>
        <time>2017-07-04T14:00:51Z</time>
      </trkpt>
      <trkpt lat="45.92882" lon="4.73088">
        <ele>172</ele>
        <time>2017-07-04T14:00:52Z</time>
      </trkpt>
      <trkpt lat="45.92886" lon="4.7308">
        <ele>172</ele>
        <time>2017-07-04T14:00:53Z</time>
      </trkpt>
      <trkpt lat="45.92889" lon="4.73073">
        <ele>172</ele>
        <time>2017-07-04T14:00:54Z</time>
      </trkpt>
      <trkpt lat="45.92893" lon="4.73065">
        <ele>172</ele>
        <time>2017-07-04T14:00:55Z</time>
      </trkpt>
      <trkpt lat="45.92896" lon="4.73059">
        <ele>172</ele>
        <time>2017-07-04T14:00:56Z</time>
      </trkpt>
      <trkpt lat="45.929" lon="4.73052">
        <ele>172</ele>
        <time>2017-07-04T14:00:57Z</time>
      </trkpt>
      <trkpt lat="45.92905" lon="4.73045">
        <ele>172</ele>
        <time>2017-07-04T14:00:58Z</time>
      </trkpt>
      <trkpt lat="45.9291" lon="4.73038">
        <ele>172</ele>
        <time>2017-07-04T14:00:59Z</time>
      </trkpt>
      <trkpt lat="45.92915" lon="4.73032">
        <ele>172</ele>
        <time>2017-07-04T14:01:00Z</time>
      </trkpt>
      <trkpt lat="45.9292" lon="4.73025">
        <ele>172</ele>
        <time>2017-07-04T14:01:01Z</time>
      </trkpt>
      <trkpt lat="45.92925" lon="4.7302">
        <ele>171</ele>
        <time>2017-07-04T14:01:02Z</time>
      </trkpt>
      <trkpt lat="45.9293" lon="4.73014">
        <ele>171</ele>
        <time>2017-07-04T14:01:03Z</time>
      </trkpt>
      <trkpt lat="45.92935" lon="4.73008">
        <ele>171</ele>
        <time>2017-07-04T14:01:04Z</time>
      </trkpt>
      <trkpt lat="45.9294" lon="4.73002">
        <ele>171</ele>
        <time>2017-07-04T14:01:05Z</time>
      </trkpt>
      <trkpt lat="45.92945" lon="4.72996">
        <ele>171</ele>
        <time>2017-07-04T14:01:06Z</time>
      </trkpt>
      <trkpt lat="45.9295" lon="4.7299">
        <ele>171</ele>
        <time>2017-07-04T14:01:07Z</time>
      </trkpt>
      <trkpt lat="45.92954" lon="4.72984">
        <ele>171</ele>
        <time>2017-07-04T14:01:08Z</time>
      </trkpt>
      <trkpt lat="45.92959" lon="4.72978">
        <ele>171</ele>
        <time>2017-07-04T14:01:09Z</time>
      </trkpt>
      <trkpt lat="45.92964" lon="4.72972">
        <ele>171</ele>
        <time>2017-07-04T14:01:10Z</time>
      </trkpt>
      <trkpt lat="45.92969" lon="4.72967">
        <ele>171</ele>
        <time>2017-07-04T14:01:11Z</time>
      </trkpt>
      <trkpt lat="45.92974" lon="4.72961">
        <ele>171</ele>
        <time>2017-07-04T14:01:12Z</time>
      </trkpt>
      <trkpt lat="45.92979" lon="4.72954">
        <ele>171</ele>
        <time>2017-07-04T14:01:13Z</time>
      </trkpt>
      <trkpt lat="45.92985" lon="4.72949">
        <ele>171</ele>
        <time>2017-07-04T14:01:14Z</time>
      </trkpt>
      <trkpt lat="45.9299" lon="4.72943">
        <ele>171</ele>
        <time>2017-07-04T14:01:15Z</time>
      </trkpt>
      <trkpt lat="45.92995" lon="4.72937">
        <ele>171</ele>
        <time>2017-07-04T14:01:16Z</time>
      </trkpt>
      <trkpt lat="45.93001" lon="4.72931">
        <ele>170</ele>
        <time>2017-07-04T14:01:17Z</time>
      </trkpt>
      <trkpt lat="45.93006" lon="4.72925">
        <ele>170</ele>
        <time>2017-07-04T14:01:18Z</time>
      </trkpt>
      <trkpt lat="45.93012" lon="4.7292">
        <ele>170</ele>
        <time>2017-07-04T14:01:19Z</time>
      </trkpt>
      <trkpt lat="45.93018" lon="4.72914">
        <ele>171</ele>
        <time>2017-07-04T14:01:20Z</time>
      </trkpt>
      <trkpt lat="45.93024" lon="4.72907">
        <ele>172</ele>
        <time>2017-07-04T14:01:21Z</time>
      </trkpt>
      <trkpt lat="45.93029" lon="4.72901">
        <ele>172</ele>
        <time>2017-07-04T14:01:22Z</time>
      </trkpt>
      <trkpt lat="45.93035" lon="4.72894">
        <ele>172</ele>
        <time>2017-07-04T14:01:23Z</time>
      </trkpt>
      <trkpt lat="45.93041" lon="4.72887">
        <ele>172</ele>
        <time>2017-07-04T14:01:24Z</time>
      </trkpt>
      <trkpt lat="45.93045" lon="4.72879">
        <ele>172</ele>
        <time>2017-07-04T14:01:25Z</time>
      </trkpt>
      <trkpt lat="45.9305" lon="4.72872">
        <ele>172</ele>
        <time>2017-07-04T14:01:26Z</time>
      </trkpt>
      <trkpt lat="45.93056" lon="4.72865">
        <ele>172</ele>
        <time>2017-07-04T14:01:27Z</time>
      </trkpt>
      <trkpt lat="45.93062" lon="4.7286">
        <ele>172</ele>
        <time>2017-07-04T14:01:28Z</time>
      </trkpt>
      <trkpt lat="45.93066" lon="4.72855">
        <ele>172</ele>
        <time>2017-07-04T14:01:29Z</time>
      </trkpt>
      <trkpt lat="45.93071" lon="4.7285">
        <ele>172</ele>
        <time>2017-07-04T14:01:30Z</time>
      </trkpt>
      <trkpt lat="45.93076" lon="4.72845">
        <ele>173</ele>
        <time>2017-07-04T14:01:31Z</time>
      </trkpt>
      <trkpt lat="45.93081" lon="4.72839">
        <ele>173</ele>
        <time>2017-07-04T14:01:32Z</time>
      </trkpt>
      <trkpt lat="45.93087" lon="4.72833">
        <ele>173</ele>
        <time>2017-07-04T14:01:33Z</time>
      </trkpt>
      <trkpt lat="45.93093" lon="4.72827">
        <ele>172</ele>
        <time>2017-07-04T14:01:34Z</time>
      </trkpt>
      <trkpt lat="45.93097" lon="4.72823">
        <ele>172</ele>
        <time>2017-07-04T14:01:35Z</time>
      </trkpt>
      <trkpt lat="45.93102" lon="4.72816">
        <ele>172</ele>
        <time>2017-07-04T14:01:36Z</time>
      </trkpt>
      <trkpt lat="45.93108" lon="4.72812">
        <ele>171</ele>
        <time>2017-07-04T14:01:37Z</time>
      </trkpt>
      <trkpt lat="45.93113" lon="4.72806">
        <ele>171</ele>
        <time>2017-07-04T14:01:38Z</time>
      </trkpt>
      <trkpt lat="45.93118" lon="4.728">
        <ele>171</ele>
        <time>2017-07-04T14:01:39Z</time>
      </trkpt>
      <trkpt lat="45.93123" lon="4.72794">
        <ele>171</ele>
        <time>2017-07-04T14:01:40Z</time>
      </trkpt>
      <trkpt lat="45.93128" lon="4.72787">
        <ele>171</ele>
        <time>2017-07-04T14:01:41Z</time>
      </trkpt>
      <trkpt lat="45.93134" lon="4.72781">
        <ele>171</ele>
        <time>2017-07-04T14:01:42Z</time>
      </trkpt>
      <trkpt lat="45.93139" lon="4.72774">
        <ele>171</ele>
        <time>2017-07-04T14:01:43Z</time>
      </trkpt>
      <trkpt lat="45.93145" lon="4.72768">
        <ele>171</ele>
        <time>2017-07-04T14:01:44Z</time>
      </trkpt>
      <trkpt lat="45.93149" lon="4.72762">
        <ele>171</ele>
        <time>2017-07-04T14:01:45Z</time>
      </trkpt>
      <trkpt lat="45.93154" lon="4.72755">
        <ele>170</ele>
        <time>2017-07-04T14:01:46Z</time>
      </trkpt>
      <trkpt lat="45.93159" lon="4.72749">
        <ele>170</ele>
        <time>2017-07-04T14:01:47Z</time>
      </trkpt>
      <trkpt lat="45.93163" lon="4.72744">
        <ele>170</ele>
        <time>2017-07-04T14:01:48Z</time>
      </trkpt>
      <trkpt lat="45.93168" lon="4.72738">
        <ele>170</ele>
        <time>2017-07-04T14:01:49Z</time>
      </trkpt>
      <trkpt lat="45.93174" lon="4.72733">
        <ele>170</ele>
        <time>2017-07-04T14:01:50Z</time>
      </trkpt>
      <trkpt lat="45.93178" lon="4.72727">
        <ele>170</ele>
        <time>2017-07-04T14:01:51Z</time>
      </trkpt>
      <trkpt lat="45.93183" lon="4.72721">
        <ele>169</ele>
        <time>2017-07-04T14:01:52Z</time>
      </trkpt>
      <trkpt lat="45.93188" lon="4.72716">
        <ele>169</ele>
        <time>2017-07-04T14:01:53Z</time>
      </trkpt>
      <trkpt lat="45.93193" lon="4.72709">
        <ele>169</ele>
        <time>2017-07-04T14:01:54Z</time>
      </trkpt>
      <trkpt lat="45.93197" lon="4.72703">
        <ele>169</ele>
        <time>2017-07-04T14:01:55Z</time>
      </trkpt>
      <trkpt lat="45.93202" lon="4.72696">
        <ele>169</ele>
        <time>2017-07-04T14:01:56Z</time>
      </trkpt>
      <trkpt lat="45.93207" lon="4.72689">
        <ele>169</ele>
        <time>2017-07-04T14:01:57Z</time>
      </trkpt>
      <trkpt lat="45.93211" lon="4.72683">
        <ele>169</ele>
        <time>2017-07-04T14:01:58Z</time>
      </trkpt>
      <trkpt lat="45.93216" lon="4.72676">
        <ele>169</ele>
        <time>2017-07-04T14:01:59Z</time>
      </trkpt>
      <trkpt lat="45.93221" lon="4.72671">
        <ele>169</ele>
        <time>2017-07-04T14:02:00Z</time>
      </trkpt>
      <trkpt lat="45.93225" lon="4.72666">
        <ele>170</ele>
        <time>2017-07-04T14:02:01Z</time>
      </trkpt>
      <trkpt lat="45.9323" lon="4.72661">
        <ele>169</ele>
        <time>2017-07-04T14:02:02Z</time>
      </trkpt>
      <trkpt lat="45.93235" lon="4.72655">
        <ele>169</ele>
        <time>2017-07-04T14:02:03Z</time>
      </trkpt>
      <trkpt lat="45.9324" lon="4.7265">
        <ele>169</ele>
        <time>2017-07-04T14:02:04Z</time>
      </trkpt>
      <trkpt lat="45.93245" lon="4.72645">
        <ele>170</ele>
        <time>2017-07-04T14:02:05Z</time>
      </trkpt>
      <trkpt lat="45.9325" lon="4.72639">
        <ele>170</ele>
        <time>2017-07-04T14:02:06Z</time>
      </trkpt>
      <trkpt lat="45.93255" lon="4.72633">
        <ele>170</ele>
        <time>2017-07-04T14:02:07Z</time>
      </trkpt>
      <trkpt lat="45.9326" lon="4.72627">
        <ele>170</ele>
        <time>2017-07-04T14:02:08Z</time>
      </trkpt>
      <trkpt lat="45.93265" lon="4.72621">
        <ele>170</ele>
        <time>2017-07-04T14:02:09Z</time>
      </trkpt>
      <trkpt lat="45.9327" lon="4.72615">
        <ele>170</ele>
        <time>2017-07-04T14:02:10Z</time>
      </trkpt>
      <trkpt lat="45.93275" lon="4.72609">
        <ele>170</ele>
        <time>2017-07-04T14:02:11Z</time>
      </trkpt>
      <trkpt lat="45.9328" lon="4.72603">
        <ele>170</ele>
        <time>2017-07-04T14:02:12Z</time>
      </trkpt>
      <trkpt lat="45.93286" lon="4.72596">
        <ele>170</ele>
        <time>2017-07-04T14:02:13Z</time>
      </trkpt>
      <trkpt lat="45.93291" lon="4.7259">
        <ele>170</ele>
        <time>2017-07-04T14:02:14Z</time>
      </trkpt>
      <trkpt lat="45.93297" lon="4.72584">
        <ele>170</ele>
        <time>2017-07-04T14:02:15Z</time>
      </trkpt>
      <trkpt lat="45.93303" lon="4.72578">
        <ele>171</ele>
        <time>2017-07-04T14:02:16Z</time>
      </trkpt>
      <trkpt lat="45.9331" lon="4.72572">
        <ele>171</ele>
        <time>2017-07-04T14:02:17Z</time>
      </trkpt>
      <trkpt lat="45.93315" lon="4.72567">
        <ele>171</ele>
        <time>2017-07-04T14:02:18Z</time>
      </trkpt>
      <trkpt lat="45.9332" lon="4.72561">
        <ele>171</ele>
        <time>2017-07-04T14:02:19Z</time>
      </trkpt>
      <trkpt lat="45.93325" lon="4.72555">
        <ele>171</ele>
        <time>2017-07-04T14:02:20Z</time>
      </trkpt>
      <trkpt lat="45.9333" lon="4.72549">
        <ele>172</ele>
        <time>2017-07-04T14:02:21Z</time>
      </trkpt>
      <trkpt lat="45.93335" lon="4.72544">
        <ele>171</ele>
        <time>2017-07-04T14:02:22Z</time>
      </trkpt>
      <trkpt lat="45.93339" lon="4.72538">
        <ele>171</ele>
        <time>2017-07-04T14:02:23Z</time>
      </trkpt>
      <trkpt lat="45.93345" lon="4.72532">
        <ele>172</ele>
        <time>2017-07-04T14:02:24Z</time>
      </trkpt>
      <trkpt lat="45.93349" lon="4.72526">
        <ele>172</ele>
        <time>2017-07-04T14:02:25Z</time>
      </trkpt>
      <trkpt lat="45.93353" lon="4.72521">
        <ele>172</ele>
        <time>2017-07-04T14:02:26Z</time>
      </trkpt>
      <trkpt lat="45.93358" lon="4.72516">
        <ele>172</ele>
        <time>2017-07-04T14:02:27Z</time>
      </trkpt>
      <trkpt lat="45.93362" lon="4.72511">
        <ele>172</ele>
        <time>2017-07-04T14:02:28Z</time>
      </trkpt>
      <trkpt lat="45.93366" lon="4.72507">
        <ele>172</ele>
        <time>2017-07-04T14:02:29Z</time>
      </trkpt>
      <trkpt lat="45.93371" lon="4.72502">
        <ele>172</ele>
        <time>2017-07-04T14:02:30Z</time>
      </trkpt>
      <trkpt lat="45.93374" lon="4.72497">
        <ele>173</ele>
        <time>2017-07-04T14:02:31Z</time>
      </trkpt>
      <trkpt lat="45.93378" lon="4.72492">
        <ele>173</ele>
        <time>2017-07-04T14:02:32Z</time>
      </trkpt>
      <trkpt lat="45.93382" lon="4.72487">
        <ele>173</ele>
        <time>2017-07-04T14:02:33Z</time>
      </trkpt>
      <trkpt lat="45.93387" lon="4.72481">
        <ele>173</ele>
        <time>2017-07-04T14:02:34Z</time>
      </trkpt>
      <trkpt lat="45.93391" lon="4.72476">
        <ele>173</ele>
        <time>2017-07-04T14:02:35Z</time>
      </trkpt>
      <trkpt lat="45.93395" lon="4.72469">
        <ele>173</ele>
        <time>2017-07-04T14:02:36Z</time>
      </trkpt>
      <trkpt lat="45.93398" lon="4.72461">
        <ele>173</ele>
        <time>2017-07-04T14:02:37Z</time>
      </trkpt>
      <trkpt lat="45.93401" lon="4.72453">
        <ele>173</ele>
        <time>2017-07-04T14:02:38Z</time>
      </trkpt>
      <trkpt lat="45.93403" lon="4.72445">
        <ele>173</ele>
        <time>2017-07-04T14:02:39Z</time>
      </trkpt>
      <trkpt lat="45.93407" lon="4.72438">
        <ele>173</ele>
        <time>2017-07-04T14:02:40Z</time>
      </trkpt>
      <trkpt lat="45.93411" lon="4.72431">
        <ele>174</ele>
        <time>2017-07-04T14:02:41Z</time>
      </trkpt>
      <trkpt lat="45.93416" lon="4.72425">
        <ele>174</ele>
        <time>2017-07-04T14:02:42Z</time>
      </trkpt>
      <trkpt lat="45.93421" lon="4.72421">
        <ele>174</ele>
        <time>2017-07-04T14:02:43Z</time>
      </trkpt>
      <trkpt lat="45.93427" lon="4.72418">
        <ele>174</ele>
        <time>2017-07-04T14:02:44Z</time>
      </trkpt>
      <trkpt lat="45.93433" lon="4.72415">
        <ele>174</ele>
        <time>2017-07-04T14:02:45Z</time>
      </trkpt>
      <trkpt lat="45.9344" lon="4.72411">
        <ele>174</ele>
        <time>2017-07-04T14:02:46Z</time>
      </trkpt>
      <trkpt lat="45.93446" lon="4.72407">
        <ele>173</ele>
        <time>2017-07-04T14:02:47Z</time>
      </trkpt>
      <trkpt lat="45.93451" lon="4.72402">
        <ele>173</ele>
        <time>2017-07-04T14:02:48Z</time>
      </trkpt>
      <trkpt lat="45.93456" lon="4.72396">
        <ele>173</ele>
        <time>2017-07-04T14:02:49Z</time>
      </trkpt>
      <trkpt lat="45.93462" lon="4.72391">
        <ele>173</ele>
        <time>2017-07-04T14:02:50Z</time>
      </trkpt>
      <trkpt lat="45.93467" lon="4.72385">
        <ele>173</ele>
        <time>2017-07-04T14:02:51Z</time>
      </trkpt>
      <trkpt lat="45.93471" lon="4.72379">
        <ele>173</ele>
        <time>2017-07-04T14:02:52Z</time>
      </trkpt>
      <trkpt lat="45.93476" lon="4.72373">
        <ele>173</ele>
        <time>2017-07-04T14:02:53Z</time>
      </trkpt>
      <trkpt lat="45.9348" lon="4.72367">
        <ele>173</ele>
        <time>2017-07-04T14:02:54Z</time>
      </trkpt>
      <trkpt lat="45.93485" lon="4.72361">
        <ele>173</ele>
        <time>2017-07-04T14:02:55Z</time>
      </trkpt>
      <trkpt lat="45.93489" lon="4.72354">
        <ele>173</ele>
        <time>2017-07-04T14:02:56Z</time>
      </trkpt>
      <trkpt lat="45.93493" lon="4.72347">
        <ele>173</ele>
        <time>2017-07-04T14:02:57Z</time>
      </trkpt>
      <trkpt lat="45.93497" lon="4.7234">
        <ele>173</ele>
        <time>2017-07-04T14:02:58Z</time>
      </trkpt>
      <trkpt lat="45.93501" lon="4.72334">
        <ele>173</ele>
        <time>2017-07-04T14:02:59Z</time>
      </trkpt>
      <trkpt lat="45.93506" lon="4.72327">
        <ele>173</ele>
        <time>2017-07-04T14:03:00Z</time>
      </trkpt>
      <trkpt lat="45.9351" lon="4.7232">
        <ele>173</ele>
        <time>2017-07-04T14:03:01Z</time>
      </trkpt>
      <trkpt lat="45.93514" lon="4.72314">
        <ele>173</ele>
        <time>2017-07-04T14:03:02Z</time>
      </trkpt>
      <trkpt lat="45.93518" lon="4.72307">
        <ele>173</ele>
        <time>2017-07-04T14:03:03Z</time>
      </trkpt>
      <trkpt lat="45.93522" lon="4.723">
        <ele>172</ele>
        <time>2017-07-04T14:03:04Z</time>
      </trkpt>
      <trkpt lat="45.93525" lon="4.72293">
        <ele>172</ele>
        <time>2017-07-04T14:03:05Z</time>
      </trkpt>
      <trkpt lat="45.93529" lon="4.72286">
        <ele>172</ele>
        <time>2017-07-04T14:03:06Z</time>
      </trkpt>
      <trkpt lat="45.93532" lon="4.72278">
        <ele>172</ele>
        <time>2017-07-04T14:03:07Z</time>
      </trkpt>
      <trkpt lat="45.93535" lon="4.72271">
        <ele>172</ele>
        <time>2017-07-04T14:03:08Z</time>
      </trkpt>
      <trkpt lat="45.93538" lon="4.72264">
        <ele>172</ele>
        <time>2017-07-04T14:03:09Z</time>
      </trkpt>
      <trkpt lat="45.9354" lon="4.72257">
        <ele>172</ele>
        <time>2017-07-04T14:03:10Z</time>
      </trkpt>
      <trkpt lat="45.93544" lon="4.72251">
        <ele>172</ele>
        <time>2017-07-04T14:03:11Z</time>
      </trkpt>
      <trkpt lat="45.93546" lon="4.72244">
        <ele>172</ele>
        <time>2017-07-04T14:03:12Z</time>
      </trkpt>
      <trkpt lat="45.93549" lon="4.72237">
        <ele>172</ele>
        <time>2017-07-04T14:03:13Z</time>
      </trkpt>
      <trkpt lat="45.93553" lon="4.72231">
        <ele>173</ele>
        <time>2017-07-04T14:03:14Z</time>
      </trkpt>
      <trkpt lat="45.93557" lon="4.72226">
        <ele>173</ele>
        <time>2017-07-04T14:03:15Z</time>
      </trkpt>
      <trkpt lat="45.93562" lon="4.72227">
        <ele>173</ele>
        <time>2017-07-04T14:03:16Z</time>
      </trkpt>
      <trkpt lat="45.93567" lon="4.72229">
        <ele>173</ele>
        <time>2017-07-04T14:03:17Z</time>
      </trkpt>
      <trkpt lat="45.93571" lon="4.72234">
        <ele>173</ele>
        <time>2017-07-04T14:03:18Z</time>
      </trkpt>
      <trkpt lat="45.93576" lon="4.72238">
        <ele>173</ele>
        <time>2017-07-04T14:03:19Z</time>
      </trkpt>
      <trkpt lat="45.93579" lon="4.72243">
        <ele>173</ele>
        <time>2017-07-04T14:03:20Z</time>
      </trkpt>
      <trkpt lat="45.93583" lon="4.72248">
        <ele>173</ele>
        <time>2017-07-04T14:03:21Z</time>
      </trkpt>
      <trkpt lat="45.93587" lon="4.72252">
        <ele>173</ele>
        <time>2017-07-04T14:03:22Z</time>
      </trkpt>
      <trkpt lat="45.93592" lon="4.72258">
        <ele>173</ele>
        <time>2017-07-04T14:03:23Z</time>
      </trkpt>
      <trkpt lat="45.93597" lon="4.72263">
        <ele>173</ele>
        <time>2017-07-04T14:03:24Z</time>
      </trkpt>
      <trkpt lat="45.93603" lon="4.72269">
        <ele>173</ele>
        <time>2017-07-04T14:03:25Z</time>
      </trkpt>
      <trkpt lat="45.93608" lon="4.72274">
        <ele>172</ele>
        <time>2017-07-04T14:03:26Z</time>
      </trkpt>
      <trkpt lat="45.93612" lon="4.72279">
        <ele>172</ele>
        <time>2017-07-04T14:03:27Z</time>
      </trkpt>
      <trkpt lat="45.93617" lon="4.72284">
        <ele>172</ele>
        <time>2017-07-04T14:03:28Z</time>
      </trkpt>
      <trkpt lat="45.93622" lon="4.72289">
        <ele>172</ele>
        <time>2017-07-04T14:03:29Z</time>
      </trkpt>
      <trkpt lat="45.93626" lon="4.72294">
        <ele>172</ele>
        <time>2017-07-04T14:03:30Z</time>
      </trkpt>
      <trkpt lat="45.93631" lon="4.72299">
        <ele>172</ele>
        <time>2017-07-04T14:03:31Z</time>
      </trkpt>
      <trkpt lat="45.93635" lon="4.72303">
        <ele>172</ele>
        <time>2017-07-04T14:03:32Z</time>
      </trkpt>
      <trkpt lat="45.93641" lon="4.72307">
        <ele>172</ele>
        <time>2017-07-04T14:03:33Z</time>
      </trkpt>
      <trkpt lat="45.93645" lon="4.72312">
        <ele>172</ele>
        <time>2017-07-04T14:03:34Z</time>
      </trkpt>
      <trkpt lat="45.93651" lon="4.72317">
        <ele>172</ele>
        <time>2017-07-04T14:03:35Z</time>
      </trkpt>
      <trkpt lat="45.93657" lon="4.72322">
        <ele>172</ele>
        <time>2017-07-04T14:03:36Z</time>
      </trkpt>
      <trkpt lat="45.93662" lon="4.72327">
        <ele>171</ele>
        <time>2017-07-04T14:03:37Z</time>
      </trkpt>
      <trkpt lat="45.93669" lon="4.72333">
        <ele>171</ele>
        <time>2017-07-04T14:03:38Z</time>
      </trkpt>
      <trkpt lat="45.93674" lon="4.72338">
        <ele>171</ele>
        <time>2017-07-04T14:03:39Z</time>
      </trkpt>
      <trkpt lat="45.9368" lon="4.72344">
        <ele>171</ele>
        <time>2017-07-04T14:03:40Z</time>
      </trkpt>
      <trkpt lat="45.93685" lon="4.7235">
        <ele>171</ele>
        <time>2017-07-04T14:03:41Z</time>
      </trkpt>
      <trkpt lat="45.9369" lon="4.72355">
        <ele>171</ele>
        <time>2017-07-04T14:03:42Z</time>
      </trkpt>
      <trkpt lat="45.93696" lon="4.7236">
        <ele>171</ele>
        <time>2017-07-04T14:03:43Z</time>
      </trkpt>
      <trkpt lat="45.93701" lon="4.72364">
        <ele>171</ele>
        <time>2017-07-04T14:03:44Z</time>
      </trkpt>
      <trkpt lat="45.93705" lon="4.72373">
        <ele>171</ele>
        <time>2017-07-04T14:03:45Z</time>
      </trkpt>
      <trkpt lat="45.9371" lon="4.7238">
        <ele>171</ele>
        <time>2017-07-04T14:03:46Z</time>
      </trkpt>
      <trkpt lat="45.93714" lon="4.72387">
        <ele>171</ele>
        <time>2017-07-04T14:03:47Z</time>
      </trkpt>
      <trkpt lat="45.9372" lon="4.72393">
        <ele>171</ele>
        <time>2017-07-04T14:03:48Z</time>
      </trkpt>
      <trkpt lat="45.93725" lon="4.72399">
        <ele>171</ele>
        <time>2017-07-04T14:03:49Z</time>
      </trkpt>
      <trkpt lat="45.9373" lon="4.72403">
        <ele>171</ele>
        <time>2017-07-04T14:03:50Z</time>
      </trkpt>
      <trkpt lat="45.93734" lon="4.72407">
        <ele>171</ele>
        <time>2017-07-04T14:03:51Z</time>
      </trkpt>
      <trkpt lat="45.93739" lon="4.72412">
        <ele>171</ele>
        <time>2017-07-04T14:03:52Z</time>
      </trkpt>
      <trkpt lat="45.93744" lon="4.72416">
        <ele>171</ele>
        <time>2017-07-04T14:03:53Z</time>
      </trkpt>
      <trkpt lat="45.93748" lon="4.72421">
        <ele>171</ele>
        <time>2017-07-04T14:03:54Z</time>
      </trkpt>
      <trkpt lat="45.93754" lon="4.72426">
        <ele>171</ele>
        <time>2017-07-04T14:03:55Z</time>
      </trkpt>
      <trkpt lat="45.93759" lon="4.7243">
        <ele>171</ele>
        <time>2017-07-04T14:03:56Z</time>
      </trkpt>
      <trkpt lat="45.93765" lon="4.72435">
        <ele>171</ele>
        <time>2017-07-04T14:03:57Z</time>
      </trkpt>
      <trkpt lat="45.93771" lon="4.7244">
        <ele>171</ele>
        <time>2017-07-04T14:03:58Z</time>
      </trkpt>
      <trkpt lat="45.93777" lon="4.72444">
        <ele>172</ele>
        <time>2017-07-04T14:03:59Z</time>
      </trkpt>
      <trkpt lat="45.93782" lon="4.72449">
        <ele>172</ele>
        <time>2017-07-04T14:04:00Z</time>
      </trkpt>
      <trkpt lat="45.93787" lon="4.72453">
        <ele>172</ele>
        <time>2017-07-04T14:04:01Z</time>
      </trkpt>
      <trkpt lat="45.93792" lon="4.72458">
        <ele>172</ele>
        <time>2017-07-04T14:04:02Z</time>
      </trkpt>
      <trkpt lat="45.93796" lon="4.72461">
        <ele>172</ele>
        <time>2017-07-04T14:04:03Z</time>
      </trkpt>
      <trkpt lat="45.938" lon="4.72466">
        <ele>172</ele>
        <time>2017-07-04T14:04:04Z</time>
      </trkpt>
      <trkpt lat="45.93805" lon="4.72471">
        <ele>172</ele>
        <time>2017-07-04T14:04:05Z</time>
      </trkpt>
      <trkpt lat="45.93812" lon="4.72475">
        <ele>172</ele>
        <time>2017-07-04T14:04:06Z</time>
      </trkpt>
      <trkpt lat="45.93817" lon="4.7248">
        <ele>172</ele>
        <time>2017-07-04T14:04:07Z</time>
      </trkpt>
      <trkpt lat="45.93822" lon="4.72484">
        <ele>173</ele>
        <time>2017-07-04T14:04:08Z</time>
      </trkpt>
      <trkpt lat="45.93827" lon="4.72491">
        <ele>173</ele>
        <time>2017-07-04T14:04:09Z</time>
      </trkpt>
      <trkpt lat="45.93832" lon="4.72497">
        <ele>174</ele>
        <time>2017-07-04T14:04:10Z</time>
      </trkpt>
      <trkpt lat="45.93837" lon="4.72503">
        <ele>174</ele>
        <time>2017-07-04T14:04:11Z</time>
      </trkpt>
      <trkpt lat="45.93842" lon="4.72509">
        <ele>174</ele>
        <time>2017-07-04T14:04:12Z</time>
      </trkpt>
      <trkpt lat="45.93848" lon="4.72522">
        <ele>173</ele>
        <time>2017-07-04T14:04:13Z</time>
      </trkpt>
      <trkpt lat="45.93853" lon="4.72529">
        <ele>173</ele>
        <time>2017-07-04T14:04:14Z</time>
      </trkpt>
      <trkpt lat="45.93859" lon="4.72536">
        <ele>173</ele>
        <time>2017-07-04T14:04:15Z</time>
      </trkpt>
      <trkpt lat="45.93864" lon="4.72537">
        <ele>173</ele>
        <time>2017-07-04T14:04:16Z</time>
      </trkpt>
      <trkpt lat="45.93872" lon="4.72535">
        <ele>173</ele>
        <time>2017-07-04T14:04:17Z</time>
      </trkpt>
      <trkpt lat="45.93877" lon="4.72534">
        <ele>173</ele>
        <time>2017-07-04T14:04:18Z</time>
      </trkpt>
      <trkpt lat="45.93883" lon="4.72529">
        <ele>173</ele>
        <time>2017-07-04T14:04:19Z</time>
      </trkpt>
      <trkpt lat="45.93888" lon="4.72524">
        <ele>173</ele>
        <time>2017-07-04T14:04:20Z</time>
      </trkpt>
      <trkpt lat="45.93893" lon="4.72518">
        <ele>173</ele>
        <time>2017-07-04T14:04:21Z</time>
      </trkpt>
      <trkpt lat="45.93897" lon="4.72511">
        <ele>172</ele>
        <time>2017-07-04T14:04:22Z</time>
      </trkpt>
      <trkpt lat="45.93902" lon="4.72505">
        <ele>172</ele>
        <time>2017-07-04T14:04:23Z</time>
      </trkpt>
      <trkpt lat="45.93908" lon="4.72498">
        <ele>171</ele>
        <time>2017-07-04T14:04:24Z</time>
      </trkpt>
      <trkpt lat="45.93913" lon="4.72491">
        <ele>171</ele>
        <time>2017-07-04T14:04:25Z</time>
      </trkpt>
      <trkpt lat="45.93918" lon="4.72484">
        <ele>171</ele>
        <time>2017-07-04T14:04:26Z</time>
      </trkpt>
      <trkpt lat="45.93923" lon="4.72478">
        <ele>171</ele>
        <time>2017-07-04T14:04:27Z</time>
      </trkpt>
      <trkpt lat="45.93929" lon="4.72472">
        <ele>171</ele>
        <time>2017-07-04T14:04:28Z</time>
      </trkpt>
      <trkpt lat="45.93934" lon="4.72464">
        <ele>171</ele>
        <time>2017-07-04T14:04:29Z</time>
      </trkpt>
      <trkpt lat="45.9394" lon="4.72456">
        <ele>171</ele>
        <time>2017-07-04T14:04:30Z</time>
      </trkpt>
      <trkpt lat="45.93944" lon="4.72449">
        <ele>171</ele>
        <time>2017-07-04T14:04:31Z</time>
      </trkpt>
      <trkpt lat="45.93949" lon="4.72443">
        <ele>171</ele>
        <time>2017-07-04T14:04:32Z</time>
      </trkpt>
      <trkpt lat="45.93953" lon="4.72437">
        <ele>171</ele>
        <time>2017-07-04T14:04:33Z</time>
      </trkpt>
      <trkpt lat="45.93957" lon="4.72431">
        <ele>171</ele>
        <time>2017-07-04T14:04:34Z</time>
      </trkpt>
      <trkpt lat="45.93962" lon="4.72424">
        <ele>171</ele>
        <time>2017-07-04T14:04:35Z</time>
      </trkpt>
      <trkpt lat="45.93967" lon="4.72418">
        <ele>171</ele>
        <time>2017-07-04T14:04:36Z</time>
      </trkpt>
      <trkpt lat="45.93972" lon="4.72411">
        <ele>171</ele>
        <time>2017-07-04T14:04:37Z</time>
      </trkpt>
      <trkpt lat="45.93977" lon="4.72405">
        <ele>171</ele>
        <time>2017-07-04T14:04:38Z</time>
      </trkpt>
      <trkpt lat="45.93982" lon="4.724">
        <ele>171</ele>
        <time>2017-07-04T14:04:39Z</time>
      </trkpt>
      <trkpt lat="45.93986" lon="4.72393">
        <ele>171</ele>
        <time>2017-07-04T14:04:40Z</time>
      </trkpt>
      <trkpt lat="45.93991" lon="4.72386">
        <ele>171</ele>
        <time>2017-07-04T14:04:41Z</time>
      </trkpt>
      <trkpt lat="45.93996" lon="4.7238">
        <ele>171</ele>
        <time>2017-07-04T14:04:42Z</time>
      </trkpt>
      <trkpt lat="45.94001" lon="4.72374">
        <ele>171</ele>
        <time>2017-07-04T14:04:43Z</time>
      </trkpt>
      <trkpt lat="45.94006" lon="4.72367">
        <ele>171</ele>
        <time>2017-07-04T14:04:44Z</time>
      </trkpt>
      <trkpt lat="45.94012" lon="4.7236">
        <ele>171</ele>
        <time>2017-07-04T14:04:45Z</time>
      </trkpt>
      <trkpt lat="45.94017" lon="4.72353">
        <ele>171</ele>
        <time>2017-07-04T14:04:46Z</time>
      </trkpt>
      <trkpt lat="45.94023" lon="4.72347">
        <ele>171</ele>
        <time>2017-07-04T14:04:47Z</time>
      </trkpt>
      <trkpt lat="45.94028" lon="4.72341">
        <ele>171</ele>
        <time>2017-07-04T14:04:48Z</time>
      </trkpt>
      <trkpt lat="45.94033" lon="4.72335">
        <ele>171</ele>
        <time>2017-07-04T14:04:49Z</time>
      </trkpt>
      <trkpt lat="45.94038" lon="4.72329">
        <ele>171</ele>
        <time>2017-07-04T14:04:50Z</time>
      </trkpt>
      <trkpt lat="45.94042" lon="4.72323">
        <ele>171</ele>
        <time>2017-07-04T14:04:51Z</time>
      </trkpt>
      <trkpt lat="45.94046" lon="4.72317">
        <ele>171</ele>
        <time>2017-07-04T14:04:52Z</time>
      </trkpt>
      <trkpt lat="45.94051" lon="4.72312">
        <ele>171</ele>
        <time>2017-07-04T14:04:53Z</time>
      </trkpt>
      <trkpt lat="45.94055" lon="4.72307">
        <ele>171</ele>
        <time>2017-07-04T14:04:54Z</time>
      </trkpt>
      <trkpt lat="45.94059" lon="4.72301">
        <ele>171</ele>
        <time>2017-07-04T14:04:55Z</time>
      </trkpt>
      <trkpt lat="45.94063" lon="4.72296">
        <ele>171</ele>
        <time>2017-07-04T14:04:56Z</time>
      </trkpt>
      <trkpt lat="45.94068" lon="4.7229">
        <ele>171</ele>
        <time>2017-07-04T14:04:57Z</time>
      </trkpt>
      <trkpt lat="45.94073" lon="4.72285">
        <ele>171</ele>
        <time>2017-07-04T14:04:58Z</time>
      </trkpt>
      <trkpt lat="45.94077" lon="4.72281">
        <ele>171</ele>
        <time>2017-07-04T14:04:59Z</time>
      </trkpt>
      <trkpt lat="45.94082" lon="4.72277">
        <ele>171</ele>
        <time>2017-07-04T14:05:00Z</time>
      </trkpt>
      <trkpt lat="45.94088" lon="4.72275">
        <ele>171</ele>
        <time>2017-07-04T14:05:01Z</time>
      </trkpt>
      <trkpt lat="45.94094" lon="4.72274">
        <ele>171</ele>
        <time>2017-07-04T14:05:02Z</time>
      </trkpt>
      <trkpt lat="45.941" lon="4.72273">
        <ele>171</ele>
        <time>2017-07-04T14:05:03Z</time>
      </trkpt>
      <trkpt lat="45.94107" lon="4.72274">
        <ele>171</ele>
        <time>2017-07-04T14:05:04Z</time>
      </trkpt>
      <trkpt lat="45.94114" lon="4.72276">
        <ele>171</ele>
        <time>2017-07-04T14:05:05Z</time>
      </trkpt>
      <trkpt lat="45.9412" lon="4.72277">
        <ele>171</ele>
        <time>2017-07-04T14:05:06Z</time>
      </trkpt>
      <trkpt lat="45.94125" lon="4.72279">
        <ele>171</ele>
        <time>2017-07-04T14:05:07Z</time>
      </trkpt>
      <trkpt lat="45.9413" lon="4.72281">
        <ele>171</ele>
        <time>2017-07-04T14:05:08Z</time>
      </trkpt>
      <trkpt lat="45.94136" lon="4.72284">
        <ele>171</ele>
        <time>2017-07-04T14:05:09Z</time>
      </trkpt>
      <trkpt lat="45.94141" lon="4.72287">
        <ele>171</ele>
        <time>2017-07-04T14:05:10Z</time>
      </trkpt>
      <trkpt lat="45.94146" lon="4.7229">
        <ele>171</ele>
        <time>2017-07-04T14:05:11Z</time>
      </trkpt>
      <trkpt lat="45.94152" lon="4.72292">
        <ele>171</ele>
        <time>2017-07-04T14:05:12Z</time>
      </trkpt>
      <trkpt lat="45.94158" lon="4.72293">
        <ele>171</ele>
        <time>2017-07-04T14:05:13Z</time>
      </trkpt>
      <trkpt lat="45.94163" lon="4.72294">
        <ele>171</ele>
        <time>2017-07-04T14:05:14Z</time>
      </trkpt>
      <trkpt lat="45.94169" lon="4.72295">
        <ele>171</ele>
        <time>2017-07-04T14:05:15Z</time>
      </trkpt>
      <trkpt lat="45.94175" lon="4.72295">
        <ele>171</ele>
        <time>2017-07-04T14:05:16Z</time>
      </trkpt>
      <trkpt lat="45.94181" lon="4.72296">
        <ele>171</ele>
        <time>2017-07-04T14:05:17Z</time>
      </trkpt>
      <trkpt lat="45.94187" lon="4.72297">
        <ele>171</ele>
        <time>2017-07-04T14:05:18Z</time>
      </trkpt>
      <trkpt lat="45.94193" lon="4.72297">
        <ele>171</ele>
        <time>2017-07-04T14:05:19Z</time>
      </trkpt>
      <trkpt lat="45.94199" lon="4.72298">
        <ele>171</ele>
        <time>2017-07-04T14:05:20Z</time>
      </trkpt>
      <trkpt lat="45.94205" lon="4.72298">
        <ele>171</ele>
        <time>2017-07-04T14:05:21Z</time>
      </trkpt>
      <trkpt lat="45.9421" lon="4.72298">
        <ele>171</ele>
        <time>2017-07-04T14:05:22Z</time>
      </trkpt>
      <trkpt lat="45.94216" lon="4.72297">
        <ele>171</ele>
        <time>2017-07-04T14:05:23Z</time>
      </trkpt>
      <trkpt lat="45.94221" lon="4.72296">
        <ele>171</ele>
        <time>2017-07-04T14:05:24Z</time>
      </trkpt>
      <trkpt lat="45.94226" lon="4.72296">
        <ele>171</ele>
        <time>2017-07-04T14:05:25Z</time>
      </trkpt>
      <trkpt lat="45.94231" lon="4.72295">
        <ele>171</ele>
        <time>2017-07-04T14:05:26Z</time>
      </trkpt>
      <trkpt lat="45.94236" lon="4.72293">
        <ele>171</ele>
        <time>2017-07-04T14:05:27Z</time>
      </trkpt>
      <trkpt lat="45.94241" lon="4.72292">
        <ele>171</ele>
        <time>2017-07-04T14:05:28Z</time>
      </trkpt>
      <trkpt lat="45.94245" lon="4.7229">
        <ele>171</ele>
        <time>2017-07-04T14:05:29Z</time>
      </trkpt>
      <trkpt lat="45.9425" lon="4.72288">
        <ele>171</ele>
        <time>2017-07-04T14:05:30Z</time>
      </trkpt>
      <trkpt lat="45.94254" lon="4.72287">
        <ele>171</ele>
        <time>2017-07-04T14:05:31Z</time>
      </trkpt>
      <trkpt lat="45.94262" lon="4.72284">
        <ele>171</ele>
        <time>2017-07-04T14:05:33Z</time>
      </trkpt>
      <trkpt lat="45.94266" lon="4.72283">
        <ele>171</ele>
        <time>2017-07-04T14:05:34Z</time>
      </trkpt>
      <trkpt lat="45.94273" lon="4.72284">
        <ele>171</ele>
        <time>2017-07-04T14:05:36Z</time>
      </trkpt>
      <trkpt lat="45.94275" lon="4.72286">
        <ele>171</ele>
        <time>2017-07-04T14:05:37Z</time>
      </trkpt>
      <trkpt lat="45.94279" lon="4.72295">
        <ele>171</ele>
        <time>2017-07-04T14:05:39Z</time>
      </trkpt>
      <trkpt lat="45.94281" lon="4.72301">
        <ele>171</ele>
        <time>2017-07-04T14:05:40Z</time>
      </trkpt>
      <trkpt lat="45.94284" lon="4.72307">
        <ele>171</ele>
        <time>2017-07-04T14:05:41Z</time>
      </trkpt>
      <trkpt lat="45.94287" lon="4.72313">
        <ele>171</ele>
        <time>2017-07-04T14:05:42Z</time>
      </trkpt>
      <trkpt lat="45.9429" lon="4.7232">
        <ele>171</ele>
        <time>2017-07-04T14:05:43Z</time>
      </trkpt>
      <trkpt lat="45.94294" lon="4.72327">
        <ele>171</ele>
        <time>2017-07-04T14:05:44Z</time>
      </trkpt>
      <trkpt lat="45.94297" lon="4.72334">
        <ele>172</ele>
        <time>2017-07-04T14:05:45Z</time>
      </trkpt>
      <trkpt lat="45.943" lon="4.72341">
        <ele>172</ele>
        <time>2017-07-04T14:05:46Z</time>
      </trkpt>
      <trkpt lat="45.94304" lon="4.72348">
        <ele>172</ele>
        <time>2017-07-04T14:05:47Z</time>
      </trkpt>
      <trkpt lat="45.94307" lon="4.72355">
        <ele>172</ele>
        <time>2017-07-04T14:05:48Z</time>
      </trkpt>
      <trkpt lat="45.9431" lon="4.72362">
        <ele>172</ele>
        <time>2017-07-04T14:05:49Z</time>
      </trkpt>
      <trkpt lat="45.94314" lon="4.72369">
        <ele>172</ele>
        <time>2017-07-04T14:05:50Z</time>
      </trkpt>
      <trkpt lat="45.94317" lon="4.72377">
        <ele>172</ele>
        <time>2017-07-04T14:05:51Z</time>
      </trkpt>
      <trkpt lat="45.94321" lon="4.72385">
        <ele>172</ele>
        <time>2017-07-04T14:05:52Z</time>
      </trkpt>
      <trkpt lat="45.94324" lon="4.72392">
        <ele>172</ele>
        <time>2017-07-04T14:05:53Z</time>
      </trkpt>
      <trkpt lat="45.94327" lon="4.72399">
        <ele>172</ele>
        <time>2017-07-04T14:05:54Z</time>
      </trkpt>
      <trkpt lat="45.9433" lon="4.72407">
        <ele>173</ele>
        <time>2017-07-04T14:05:55Z</time>
      </trkpt>
      <trkpt lat="45.94334" lon="4.72414">
        <ele>173</ele>
        <time>2017-07-04T14:05:56Z</time>
      </trkpt>
      <trkpt lat="45.94337" lon="4.72423">
        <ele>173</ele>
        <time>2017-07-04T14:05:57Z</time>
      </trkpt>
      <trkpt lat="45.94341" lon="4.72431">
        <ele>173</ele>
        <time>2017-07-04T14:05:58Z</time>
      </trkpt>
      <trkpt lat="45.94344" lon="4.72438">
        <ele>173</ele>
        <time>2017-07-04T14:05:59Z</time>
      </trkpt>
      <trkpt lat="45.94348" lon="4.72446">
        <ele>173</ele>
        <time>2017-07-04T14:06:00Z</time>
      </trkpt>
      <trkpt lat="45.94351" lon="4.72453">
        <ele>173</ele>
        <time>2017-07-04T14:06:01Z</time>
      </trkpt>
      <trkpt lat="45.94354" lon="4.72461">
        <ele>173</ele>
        <time>2017-07-04T14:06:02Z</time>
      </trkpt>
      <trkpt lat="45.94358" lon="4.72468">
        <ele>173</ele>
        <time>2017-07-04T14:06:03Z</time>
      </trkpt>
      <trkpt lat="45.94361" lon="4.72475">
        <ele>173</ele>
        <time>2017-07-04T14:06:04Z</time>
      </trkpt>
      <trkpt lat="45.94364" lon="4.72482">
        <ele>173</ele>
        <time>2017-07-04T14:06:05Z</time>
      </trkpt>
      <trkpt lat="45.94367" lon="4.72488">
        <ele>173</ele>
        <time>2017-07-04T14:06:06Z</time>
      </trkpt>
      <trkpt lat="45.9437" lon="4.72495">
        <ele>173</ele>
        <time>2017-07-04T14:06:07Z</time>
      </trkpt>
      <trkpt lat="45.94373" lon="4.72503">
        <ele>173</ele>
        <time>2017-07-04T14:06:08Z</time>
      </trkpt>
      <trkpt lat="45.94375" lon="4.7251">
        <ele>174</ele>
        <time>2017-07-04T14:06:09Z</time>
      </trkpt>
      <trkpt lat="45.94378" lon="4.72518">
        <ele>174</ele>
        <time>2017-07-04T14:06:10Z</time>
      </trkpt>
      <trkpt lat="45.9438" lon="4.72527">
        <ele>174</ele>
        <time>2017-07-04T14:06:11Z</time>
      </trkpt>
      <trkpt lat="45.94382" lon="4.72535">
        <ele>174</ele>
        <time>2017-07-04T14:06:12Z</time>
      </trkpt>
      <trkpt lat="45.94384" lon="4.72543">
        <ele>173</ele>
        <time>2017-07-04T14:06:13Z</time>
      </trkpt>
      <trkpt lat="45.94386" lon="4.72552">
        <ele>173</ele>
        <time>2017-07-04T14:06:14Z</time>
      </trkpt>
      <trkpt lat="45.94387" lon="4.7256">
        <ele>173</ele>
        <time>2017-07-04T14:06:15Z</time>
      </trkpt>
      <trkpt lat="45.94389" lon="4.72568">
        <ele>173</ele>
        <time>2017-07-04T14:06:16Z</time>
      </trkpt>
      <trkpt lat="45.9439" lon="4.72576">
        <ele>173</ele>
        <time>2017-07-04T14:06:17Z</time>
      </trkpt>
      <trkpt lat="45.94392" lon="4.72585">
        <ele>173</ele>
        <time>2017-07-04T14:06:18Z</time>
      </trkpt>
      <trkpt lat="45.94394" lon="4.72594">
        <ele>173</ele>
        <time>2017-07-04T14:06:19Z</time>
      </trkpt>
      <trkpt lat="45.94394" lon="4.72603">
        <ele>173</ele>
        <time>2017-07-04T14:06:20Z</time>
      </trkpt>
      <trkpt lat="45.94396" lon="4.72611">
        <ele>173</ele>
        <time>2017-07-04T14:06:21Z</time>
      </trkpt>
      <trkpt lat="45.94397" lon="4.7262">
        <ele>173</ele>
        <time>2017-07-04T14:06:22Z</time>
      </trkpt>
      <trkpt lat="45.94398" lon="4.72629">
        <ele>174</ele>
        <time>2017-07-04T14:06:23Z</time>
      </trkpt>
      <trkpt lat="45.94399" lon="4.72637">
        <ele>174</ele>
        <time>2017-07-04T14:06:24Z</time>
      </trkpt>
      <trkpt lat="45.94401" lon="4.72647">
        <ele>174</ele>
        <time>2017-07-04T14:06:25Z</time>
      </trkpt>
      <trkpt lat="45.94403" lon="4.72656">
        <ele>174</ele>
        <time>2017-07-04T14:06:26Z</time>
      </trkpt>
      <trkpt lat="45.94403" lon="4.72665">
        <ele>174</ele>
        <time>2017-07-04T14:06:27Z</time>
      </trkpt>
      <trkpt lat="45.94404" lon="4.72674">
        <ele>173</ele>
        <time>2017-07-04T14:06:28Z</time>
      </trkpt>
      <trkpt lat="45.94405" lon="4.72683">
        <ele>173</ele>
        <time>2017-07-04T14:06:29Z</time>
      </trkpt>
      <trkpt lat="45.94406" lon="4.72692">
        <ele>173</ele>
        <time>2017-07-04T14:06:30Z</time>
      </trkpt>
      <trkpt lat="45.94407" lon="4.727">
        <ele>172</ele>
        <time>2017-07-04T14:06:31Z</time>
      </trkpt>
      <trkpt lat="45.94408" lon="4.72709">
        <ele>172</ele>
        <time>2017-07-04T14:06:32Z</time>
      </trkpt>
      <trkpt lat="45.94409" lon="4.72716">
        <ele>172</ele>
        <time>2017-07-04T14:06:33Z</time>
      </trkpt>
      <trkpt lat="45.94409" lon="4.72724">
        <ele>172</ele>
        <time>2017-07-04T14:06:34Z</time>
      </trkpt>
      <trkpt lat="45.9441" lon="4.72731">
        <ele>172</ele>
        <time>2017-07-04T14:06:35Z</time>
      </trkpt>
      <trkpt lat="45.94412" lon="4.72739">
        <ele>171</ele>
        <time>2017-07-04T14:06:36Z</time>
      </trkpt>
      <trkpt lat="45.94413" lon="4.72747">
        <ele>171</ele>
        <time>2017-07-04T14:06:37Z</time>
      </trkpt>
      <trkpt lat="45.94414" lon="4.72754">
        <ele>170</ele>
        <time>2017-07-04T14:06:38Z</time>
      </trkpt>
      <trkpt lat="45.94415" lon="4.72762">
        <ele>170</ele>
        <time>2017-07-04T14:06:39Z</time>
      </trkpt>
      <trkpt lat="45.94417" lon="4.7277">
        <ele>169</ele>
        <time>2017-07-04T14:06:40Z</time>
      </trkpt>
      <trkpt lat="45.94418" lon="4.72778">
        <ele>168</ele>
        <time>2017-07-04T14:06:41Z</time>
      </trkpt>
      <trkpt lat="45.94419" lon="4.72785">
        <ele>168</ele>
        <time>2017-07-04T14:06:42Z</time>
      </trkpt>
      <trkpt lat="45.9442" lon="4.72793">
        <ele>168</ele>
        <time>2017-07-04T14:06:43Z</time>
      </trkpt>
      <trkpt lat="45.94421" lon="4.728">
        <ele>167</ele>
        <time>2017-07-04T14:06:44Z</time>
      </trkpt>
      <trkpt lat="45.94422" lon="4.72808">
        <ele>167</ele>
        <time>2017-07-04T14:06:45Z</time>
      </trkpt>
      <trkpt lat="45.94424" lon="4.72816">
        <ele>167</ele>
        <time>2017-07-04T14:06:46Z</time>
      </trkpt>
      <trkpt lat="45.94425" lon="4.72824">
        <ele>167</ele>
        <time>2017-07-04T14:06:47Z</time>
      </trkpt>
      <trkpt lat="45.94426" lon="4.72831">
        <ele>166</ele>
        <time>2017-07-04T14:06:48Z</time>
      </trkpt>
      <trkpt lat="45.94427" lon="4.72839">
        <ele>166</ele>
        <time>2017-07-04T14:06:49Z</time>
      </trkpt>
      <trkpt lat="45.94428" lon="4.72846">
        <ele>166</ele>
        <time>2017-07-04T14:06:50Z</time>
      </trkpt>
      <trkpt lat="45.94429" lon="4.72853">
        <ele>166</ele>
        <time>2017-07-04T14:06:51Z</time>
      </trkpt>
      <trkpt lat="45.9443" lon="4.7286">
        <ele>166</ele>
        <time>2017-07-04T14:06:52Z</time>
      </trkpt>
      <trkpt lat="45.9443" lon="4.72867">
        <ele>166</ele>
        <time>2017-07-04T14:06:53Z</time>
      </trkpt>
      <trkpt lat="45.94431" lon="4.72874">
        <ele>166</ele>
        <time>2017-07-04T14:06:54Z</time>
      </trkpt>
      <trkpt lat="45.94433" lon="4.7288">
        <ele>166</ele>
        <time>2017-07-04T14:06:55Z</time>
      </trkpt>
      <trkpt lat="45.94434" lon="4.72887">
        <ele>166</ele>
        <time>2017-07-04T14:06:56Z</time>
      </trkpt>
      <trkpt lat="45.94435" lon="4.72894">
        <ele>166</ele>
        <time>2017-07-04T14:06:57Z</time>
      </trkpt>
      <trkpt lat="45.94435" lon="4.729">
        <ele>166</ele>
        <time>2017-07-04T14:06:58Z</time>
      </trkpt>
      <trkpt lat="45.94436" lon="4.72907">
        <ele>166</ele>
        <time>2017-07-04T14:06:59Z</time>
      </trkpt>
      <trkpt lat="45.94437" lon="4.72914">
        <ele>166</ele>
        <time>2017-07-04T14:07:00Z</time>
      </trkpt>
      <trkpt lat="45.94438" lon="4.72921">
        <ele>167</ele>
        <time>2017-07-04T14:07:01Z</time>
      </trkpt>
      <trkpt lat="45.94439" lon="4.72928">
        <ele>167</ele>
        <time>2017-07-04T14:07:02Z</time>
      </trkpt>
      <trkpt lat="45.9444" lon="4.72934">
        <ele>167</ele>
        <time>2017-07-04T14:07:03Z</time>
      </trkpt>
      <trkpt lat="45.94441" lon="4.7294">
        <ele>167</ele>
        <time>2017-07-04T14:07:04Z</time>
      </trkpt>
      <trkpt lat="45.94442" lon="4.72948">
        <ele>167</ele>
        <time>2017-07-04T14:07:05Z</time>
      </trkpt>
      <trkpt lat="45.94443" lon="4.72955">
        <ele>167</ele>
        <time>2017-07-04T14:07:06Z</time>
      </trkpt>
      <trkpt lat="45.94445" lon="4.72963">
        <ele>167</ele>
        <time>2017-07-04T14:07:07Z</time>
      </trkpt>
      <trkpt lat="45.94446" lon="4.72972">
        <ele>167</ele>
        <time>2017-07-04T14:07:08Z</time>
      </trkpt>
      <trkpt lat="45.94447" lon="4.72981">
        <ele>167</ele>
        <time>2017-07-04T14:07:09Z</time>
      </trkpt>
      <trkpt lat="45.94449" lon="4.7299">
        <ele>167</ele>
        <time>2017-07-04T14:07:10Z</time>
      </trkpt>
      <trkpt lat="45.9445" lon="4.72999">
        <ele>167</ele>
        <time>2017-07-04T14:07:11Z</time>
      </trkpt>
      <trkpt lat="45.94451" lon="4.73008">
        <ele>169</ele>
        <time>2017-07-04T14:07:12Z</time>
      </trkpt>
      <trkpt lat="45.94452" lon="4.73018">
        <ele>169</ele>
        <time>2017-07-04T14:07:13Z</time>
      </trkpt>
      <trkpt lat="45.94454" lon="4.73028">
        <ele>169</ele>
        <time>2017-07-04T14:07:14Z</time>
      </trkpt>
      <trkpt lat="45.94455" lon="4.73038">
        <ele>169</ele>
        <time>2017-07-04T14:07:15Z</time>
      </trkpt>
      <trkpt lat="45.94456" lon="4.73048">
        <ele>170</ele>
        <time>2017-07-04T14:07:16Z</time>
      </trkpt>
      <trkpt lat="45.94458" lon="4.73058">
        <ele>170</ele>
        <time>2017-07-04T14:07:17Z</time>
      </trkpt>
      <trkpt lat="45.94459" lon="4.73068">
        <ele>170</ele>
        <time>2017-07-04T14:07:18Z</time>
      </trkpt>
      <trkpt lat="45.9446" lon="4.73079">
        <ele>170</ele>
        <time>2017-07-04T14:07:19Z</time>
      </trkpt>
      <trkpt lat="45.94462" lon="4.7309">
        <ele>171</ele>
        <time>2017-07-04T14:07:20Z</time>
      </trkpt>
      <trkpt lat="45.94463" lon="4.73101">
        <ele>172</ele>
        <time>2017-07-04T14:07:21Z</time>
      </trkpt>
      <trkpt lat="45.94464" lon="4.73112">
        <ele>172</ele>
        <time>2017-07-04T14:07:22Z</time>
      </trkpt>
      <trkpt lat="45.94466" lon="4.73122">
        <ele>172</ele>
        <time>2017-07-04T14:07:23Z</time>
      </trkpt>
      <trkpt lat="45.94467" lon="4.73132">
        <ele>172</ele>
        <time>2017-07-04T14:07:24Z</time>
      </trkpt>
      <trkpt lat="45.94468" lon="4.73141">
        <ele>172</ele>
        <time>2017-07-04T14:07:25Z</time>
      </trkpt>
      <trkpt lat="45.94469" lon="4.73151">
        <ele>172</ele>
        <time>2017-07-04T14:07:26Z</time>
      </trkpt>
      <trkpt lat="45.94471" lon="4.73161">
        <ele>172</ele>
        <time>2017-07-04T14:07:27Z</time>
      </trkpt>
      <trkpt lat="45.94473" lon="4.73171">
        <ele>174</ele>
        <time>2017-07-04T14:07:28Z</time>
      </trkpt>
      <trkpt lat="45.94474" lon="4.7318">
        <ele>174</ele>
        <time>2017-07-04T14:07:29Z</time>
      </trkpt>
      <trkpt lat="45.94475" lon="4.73189">
        <ele>174</ele>
        <time>2017-07-04T14:07:30Z</time>
      </trkpt>
      <trkpt lat="45.94476" lon="4.73198">
        <ele>174</ele>
        <time>2017-07-04T14:07:31Z</time>
      </trkpt>
      <trkpt lat="45.94478" lon="4.73207">
        <ele>175</ele>
        <time>2017-07-04T14:07:32Z</time>
      </trkpt>
      <trkpt lat="45.94479" lon="4.73216">
        <ele>175</ele>
        <time>2017-07-04T14:07:33Z</time>
      </trkpt>
      <trkpt lat="45.9448" lon="4.73225">
        <ele>175</ele>
        <time>2017-07-04T14:07:34Z</time>
      </trkpt>
      <trkpt lat="45.94481" lon="4.73234">
        <ele>175</ele>
        <time>2017-07-04T14:07:35Z</time>
      </trkpt>
      <trkpt lat="45.94482" lon="4.73242">
        <ele>175</ele>
        <time>2017-07-04T14:07:36Z</time>
      </trkpt>
      <trkpt lat="45.94483" lon="4.73249">
        <ele>175</ele>
        <time>2017-07-04T14:07:37Z</time>
      </trkpt>
      <trkpt lat="45.94484" lon="4.73255">
        <ele>176</ele>
        <time>2017-07-04T14:07:38Z</time>
      </trkpt>
      <trkpt lat="45.94485" lon="4.73267">
        <ele>177</ele>
        <time>2017-07-04T14:07:40Z</time>
      </trkpt>
      <trkpt lat="45.94485" lon="4.73273">
        <ele>177</ele>
        <time>2017-07-04T14:07:41Z</time>
      </trkpt>
      <trkpt lat="45.94486" lon="4.73279">
        <ele>177</ele>
        <time>2017-07-04T14:07:42Z</time>
      </trkpt>
      <trkpt lat="45.94486" lon="4.73285">
        <ele>177</ele>
        <time>2017-07-04T14:07:43Z</time>
      </trkpt>
      <trkpt lat="45.94487" lon="4.73292">
        <ele>177</ele>
        <time>2017-07-04T14:07:44Z</time>
      </trkpt>
      <trkpt lat="45.94488" lon="4.73298">
        <ele>177</ele>
        <time>2017-07-04T14:07:45Z</time>
      </trkpt>
      <trkpt lat="45.94488" lon="4.73305">
        <ele>177</ele>
        <time>2017-07-04T14:07:46Z</time>
      </trkpt>
      <trkpt lat="45.94489" lon="4.73313">
        <ele>177</ele>
        <time>2017-07-04T14:07:47Z</time>
      </trkpt>
      <trkpt lat="45.94491" lon="4.73321">
        <ele>177</ele>
        <time>2017-07-04T14:07:48Z</time>
      </trkpt>
      <trkpt lat="45.94491" lon="4.73329">
        <ele>177</ele>
        <time>2017-07-04T14:07:49Z</time>
      </trkpt>
      <trkpt lat="45.94492" lon="4.73337">
        <ele>178</ele>
        <time>2017-07-04T14:07:50Z</time>
      </trkpt>
      <trkpt lat="45.94493" lon="4.73345">
        <ele>178</ele>
        <time>2017-07-04T14:07:51Z</time>
      </trkpt>
      <trkpt lat="45.94494" lon="4.73353">
        <ele>178</ele>
        <time>2017-07-04T14:07:52Z</time>
      </trkpt>
      <trkpt lat="45.94495" lon="4.7336">
        <ele>179</ele>
        <time>2017-07-04T14:07:53Z</time>
      </trkpt>
      <trkpt lat="45.94496" lon="4.73367">
        <ele>179</ele>
        <time>2017-07-04T14:07:54Z</time>
      </trkpt>
      <trkpt lat="45.94497" lon="4.73375">
        <ele>179</ele>
        <time>2017-07-04T14:07:55Z</time>
      </trkpt>
      <trkpt lat="45.94497" lon="4.73383">
        <ele>179</ele>
        <time>2017-07-04T14:07:56Z</time>
      </trkpt>
      <trkpt lat="45.94498" lon="4.7339">
        <ele>179</ele>
        <time>2017-07-04T14:07:57Z</time>
      </trkpt>
      <trkpt lat="45.94498" lon="4.73397">
        <ele>179</ele>
        <time>2017-07-04T14:07:58Z</time>
      </trkpt>
      <trkpt lat="45.94499" lon="4.73405">
        <ele>180</ele>
        <time>2017-07-04T14:07:59Z</time>
      </trkpt>
      <trkpt lat="45.94499" lon="4.73412">
        <ele>180</ele>
        <time>2017-07-04T14:08:00Z</time>
      </trkpt>
      <trkpt lat="45.94499" lon="4.73418">
        <ele>180</ele>
        <time>2017-07-04T14:08:01Z</time>
      </trkpt>
      <trkpt lat="45.94499" lon="4.73425">
        <ele>181</ele>
        <time>2017-07-04T14:08:02Z</time>
      </trkpt>
      <trkpt lat="45.94499" lon="4.73432">
        <ele>181</ele>
        <time>2017-07-04T14:08:03Z</time>
      </trkpt>
      <trkpt lat="45.94499" lon="4.7344">
        <ele>181</ele>
        <time>2017-07-04T14:08:04Z</time>
      </trkpt>
      <trkpt lat="45.94499" lon="4.73447">
        <ele>181</ele>
        <time>2017-07-04T14:08:05Z</time>
      </trkpt>
      <trkpt lat="45.94499" lon="4.73454">
        <ele>182</ele>
        <time>2017-07-04T14:08:06Z</time>
      </trkpt>
      <trkpt lat="45.94499" lon="4.7346">
        <ele>182</ele>
        <time>2017-07-04T14:08:07Z</time>
      </trkpt>
      <trkpt lat="45.94499" lon="4.73467">
        <ele>182</ele>
        <time>2017-07-04T14:08:08Z</time>
      </trkpt>
      <trkpt lat="45.945" lon="4.73475">
        <ele>182</ele>
        <time>2017-07-04T14:08:09Z</time>
      </trkpt>
      <trkpt lat="45.94501" lon="4.73482">
        <ele>182</ele>
        <time>2017-07-04T14:08:10Z</time>
      </trkpt>
      <trkpt lat="45.94501" lon="4.73489">
        <ele>182</ele>
        <time>2017-07-04T14:08:11Z</time>
      </trkpt>
      <trkpt lat="45.94501" lon="4.73496">
        <ele>183</ele>
        <time>2017-07-04T14:08:12Z</time>
      </trkpt>
      <trkpt lat="45.945" lon="4.73504">
        <ele>183</ele>
        <time>2017-07-04T14:08:13Z</time>
      </trkpt>
      <trkpt lat="45.945" lon="4.73512">
        <ele>184</ele>
        <time>2017-07-04T14:08:14Z</time>
      </trkpt>
      <trkpt lat="45.945" lon="4.7352">
        <ele>184</ele>
        <time>2017-07-04T14:08:15Z</time>
      </trkpt>
      <trkpt lat="45.94499" lon="4.73527">
        <ele>184</ele>
        <time>2017-07-04T14:08:16Z</time>
      </trkpt>
      <trkpt lat="45.94499" lon="4.73534">
        <ele>184</ele>
        <time>2017-07-04T14:08:17Z</time>
      </trkpt>
      <trkpt lat="45.94499" lon="4.7354">
        <ele>184</ele>
        <time>2017-07-04T14:08:18Z</time>
      </trkpt>
      <trkpt lat="45.94498" lon="4.73547">
        <ele>185</ele>
        <time>2017-07-04T14:08:19Z</time>
      </trkpt>
      <trkpt lat="45.94498" lon="4.73555">
        <ele>185</ele>
        <time>2017-07-04T14:08:20Z</time>
      </trkpt>
      <trkpt lat="45.94497" lon="4.73563">
        <ele>185</ele>
        <time>2017-07-04T14:08:21Z</time>
      </trkpt>
      <trkpt lat="45.94497" lon="4.73571">
        <ele>185</ele>
        <time>2017-07-04T14:08:22Z</time>
      </trkpt>
      <trkpt lat="45.94497" lon="4.73579">
        <ele>185</ele>
        <time>2017-07-04T14:08:23Z</time>
      </trkpt>
      <trkpt lat="45.94497" lon="4.73587">
        <ele>185</ele>
        <time>2017-07-04T14:08:24Z</time>
      </trkpt>
      <trkpt lat="45.94496" lon="4.73595">
        <ele>185</ele>
        <time>2017-07-04T14:08:25Z</time>
      </trkpt>
      <trkpt lat="45.94495" lon="4.73602">
        <ele>185</ele>
        <time>2017-07-04T14:08:26Z</time>
      </trkpt>
      <trkpt lat="45.94495" lon="4.73611">
        <ele>186</ele>
        <time>2017-07-04T14:08:27Z</time>
      </trkpt>
      <trkpt lat="45.94494" lon="4.73619">
        <ele>186</ele>
        <time>2017-07-04T14:08:28Z</time>
      </trkpt>
      <trkpt lat="45.94493" lon="4.73627">
        <ele>186</ele>
        <time>2017-07-04T14:08:29Z</time>
      </trkpt>
      <trkpt lat="45.94493" lon="4.73635">
        <ele>186</ele>
        <time>2017-07-04T14:08:30Z</time>
      </trkpt>
      <trkpt lat="45.94492" lon="4.73643">
        <ele>186</ele>
        <time>2017-07-04T14:08:31Z</time>
      </trkpt>
      <trkpt lat="45.94491" lon="4.73651">
        <ele>186</ele>
        <time>2017-07-04T14:08:32Z</time>
      </trkpt>
      <trkpt lat="45.9449" lon="4.73659">
        <ele>185</ele>
        <time>2017-07-04T14:08:33Z</time>
      </trkpt>
      <trkpt lat="45.94489" lon="4.73667">
        <ele>185</ele>
        <time>2017-07-04T14:08:34Z</time>
      </trkpt>
      <trkpt lat="45.94488" lon="4.73676">
        <ele>185</ele>
        <time>2017-07-04T14:08:35Z</time>
      </trkpt>
      <trkpt lat="45.94487" lon="4.73684">
        <ele>186</ele>
        <time>2017-07-04T14:08:36Z</time>
      </trkpt>
      <trkpt lat="45.94486" lon="4.73693">
        <ele>186</ele>
        <time>2017-07-04T14:08:37Z</time>
      </trkpt>
      <trkpt lat="45.94485" lon="4.73701">
        <ele>186</ele>
        <time>2017-07-04T14:08:38Z</time>
      </trkpt>
      <trkpt lat="45.94484" lon="4.7371">
        <ele>186</ele>
        <time>2017-07-04T14:08:39Z</time>
      </trkpt>
      <trkpt lat="45.94483" lon="4.73718">
        <ele>186</ele>
        <time>2017-07-04T14:08:40Z</time>
      </trkpt>
      <trkpt lat="45.94482" lon="4.73726">
        <ele>186</ele>
        <time>2017-07-04T14:08:41Z</time>
      </trkpt>
      <trkpt lat="45.9448" lon="4.73733">
        <ele>186</ele>
        <time>2017-07-04T14:08:42Z</time>
      </trkpt>
      <trkpt lat="45.94479" lon="4.7374">
        <ele>186</ele>
        <time>2017-07-04T14:08:43Z</time>
      </trkpt>
      <trkpt lat="45.94478" lon="4.73746">
        <ele>186</ele>
        <time>2017-07-04T14:08:44Z</time>
      </trkpt>
      <trkpt lat="45.94476" lon="4.73753">
        <ele>186</ele>
        <time>2017-07-04T14:08:45Z</time>
      </trkpt>
      <trkpt lat="45.94474" lon="4.7376">
        <ele>186</ele>
        <time>2017-07-04T14:08:46Z</time>
      </trkpt>
      <trkpt lat="45.94475" lon="4.73767">
        <ele>186</ele>
        <time>2017-07-04T14:08:47Z</time>
      </trkpt>
      <trkpt lat="45.94476" lon="4.73774">
        <ele>186</ele>
        <time>2017-07-04T14:08:48Z</time>
      </trkpt>
      <trkpt lat="45.94482" lon="4.73779">
        <ele>186</ele>
        <time>2017-07-04T14:08:49Z</time>
      </trkpt>
      <trkpt lat="45.94487" lon="4.73783">
        <ele>186</ele>
        <time>2017-07-04T14:08:50Z</time>
      </trkpt>
      <trkpt lat="45.94492" lon="4.73786">
        <ele>186</ele>
        <time>2017-07-04T14:08:51Z</time>
      </trkpt>
      <trkpt lat="45.94496" lon="4.73789">
        <ele>186</ele>
        <time>2017-07-04T14:08:52Z</time>
      </trkpt>
      <trkpt lat="45.94501" lon="4.73793">
        <ele>186</ele>
        <time>2017-07-04T14:08:53Z</time>
      </trkpt>
      <trkpt lat="45.94505" lon="4.73796">
        <ele>186</ele>
        <time>2017-07-04T14:08:54Z</time>
      </trkpt>
      <trkpt lat="45.94509" lon="4.738">
        <ele>186</ele>
        <time>2017-07-04T14:08:55Z</time>
      </trkpt>
      <trkpt lat="45.94513" lon="4.73804">
        <ele>186</ele>
        <time>2017-07-04T14:08:56Z</time>
      </trkpt>
      <trkpt lat="45.94517" lon="4.73808">
        <ele>186</ele>
        <time>2017-07-04T14:08:57Z</time>
      </trkpt>
      <trkpt lat="45.9452" lon="4.73813">
        <ele>186</ele>
        <time>2017-07-04T14:08:58Z</time>
      </trkpt>
      <trkpt lat="45.94524" lon="4.73818">
        <ele>186</ele>
        <time>2017-07-04T14:08:59Z</time>
      </trkpt>
      <trkpt lat="45.94528" lon="4.73822">
        <ele>186</ele>
        <time>2017-07-04T14:09:00Z</time>
      </trkpt>
      <trkpt lat="45.94532" lon="4.73825">
        <ele>186</ele>
        <time>2017-07-04T14:09:01Z</time>
      </trkpt>
      <trkpt lat="45.94537" lon="4.7383">
        <ele>186</ele>
        <time>2017-07-04T14:09:02Z</time>
      </trkpt>
      <trkpt lat="45.94541" lon="4.73834">
        <ele>186</ele>
        <time>2017-07-04T14:09:03Z</time>
      </trkpt>
      <trkpt lat="45.94545" lon="4.73838">
        <ele>186</ele>
        <time>2017-07-04T14:09:04Z</time>
      </trkpt>
      <trkpt lat="45.9455" lon="4.73842">
        <ele>186</ele>
        <time>2017-07-04T14:09:05Z</time>
      </trkpt>
      <trkpt lat="45.94554" lon="4.73846">
        <ele>186</ele>
        <time>2017-07-04T14:09:06Z</time>
      </trkpt>
      <trkpt lat="45.94558" lon="4.7385">
        <ele>186</ele>
        <time>2017-07-04T14:09:07Z</time>
      </trkpt>
      <trkpt lat="45.94562" lon="4.73853">
        <ele>186</ele>
        <time>2017-07-04T14:09:08Z</time>
      </trkpt>
      <trkpt lat="45.94566" lon="4.73857">
        <ele>186</ele>
        <time>2017-07-04T14:09:09Z</time>
      </trkpt>
      <trkpt lat="45.94573" lon="4.73865">
        <ele>186</ele>
        <time>2017-07-04T14:09:11Z</time>
      </trkpt>
      <trkpt lat="45.94576" lon="4.73869">
        <ele>186</ele>
        <time>2017-07-04T14:09:12Z</time>
      </trkpt>
      <trkpt lat="45.9458" lon="4.73872">
        <ele>186</ele>
        <time>2017-07-04T14:09:13Z</time>
      </trkpt>
      <trkpt lat="45.94583" lon="4.73877">
        <ele>186</ele>
        <time>2017-07-04T14:09:14Z</time>
      </trkpt>
      <trkpt lat="45.94587" lon="4.73881">
        <ele>187</ele>
        <time>2017-07-04T14:09:15Z</time>
      </trkpt>
      <trkpt lat="45.9459" lon="4.73886">
        <ele>187</ele>
        <time>2017-07-04T14:09:16Z</time>
      </trkpt>
      <trkpt lat="45.94597" lon="4.73893">
        <ele>187</ele>
        <time>2017-07-04T14:09:18Z</time>
      </trkpt>
      <trkpt lat="45.94599" lon="4.73897">
        <ele>187</ele>
        <time>2017-07-04T14:09:19Z</time>
      </trkpt>
      <trkpt lat="45.94605" lon="4.73904">
        <ele>187</ele>
        <time>2017-07-04T14:09:21Z</time>
      </trkpt>
      <trkpt lat="45.94608" lon="4.73908">
        <ele>187</ele>
        <time>2017-07-04T14:09:22Z</time>
      </trkpt>
      <trkpt lat="45.94614" lon="4.73915">
        <ele>187</ele>
        <time>2017-07-04T14:09:24Z</time>
      </trkpt>
      <trkpt lat="45.94617" lon="4.73919">
        <ele>187</ele>
        <time>2017-07-04T14:09:25Z</time>
      </trkpt>
      <trkpt lat="45.94623" lon="4.73928">
        <ele>187</ele>
        <time>2017-07-04T14:09:27Z</time>
      </trkpt>
      <trkpt lat="45.94627" lon="4.73931">
        <ele>187</ele>
        <time>2017-07-04T14:09:28Z</time>
      </trkpt>
      <trkpt lat="45.9463" lon="4.73936">
        <ele>187</ele>
        <time>2017-07-04T14:09:29Z</time>
      </trkpt>
      <trkpt lat="45.94634" lon="4.7394">
        <ele>187</ele>
        <time>2017-07-04T14:09:30Z</time>
      </trkpt>
      <trkpt lat="45.94637" lon="4.73944">
        <ele>187</ele>
        <time>2017-07-04T14:09:31Z</time>
      </trkpt>
      <trkpt lat="45.94641" lon="4.73948">
        <ele>187</ele>
        <time>2017-07-04T14:09:32Z</time>
      </trkpt>
      <trkpt lat="45.94644" lon="4.73952">
        <ele>187</ele>
        <time>2017-07-04T14:09:33Z</time>
      </trkpt>
      <trkpt lat="45.94648" lon="4.73957">
        <ele>187</ele>
        <time>2017-07-04T14:09:34Z</time>
      </trkpt>
      <trkpt lat="45.94654" lon="4.73965">
        <ele>187</ele>
        <time>2017-07-04T14:09:36Z</time>
      </trkpt>
      <trkpt lat="45.94657" lon="4.7397">
        <ele>187</ele>
        <time>2017-07-04T14:09:37Z</time>
      </trkpt>
      <trkpt lat="45.94661" lon="4.73976">
        <ele>187</ele>
        <time>2017-07-04T14:09:38Z</time>
      </trkpt>
      <trkpt lat="45.94665" lon="4.73982">
        <ele>187</ele>
        <time>2017-07-04T14:09:39Z</time>
      </trkpt>
      <trkpt lat="45.94669" lon="4.73987">
        <ele>187</ele>
        <time>2017-07-04T14:09:40Z</time>
      </trkpt>
      <trkpt lat="45.94673" lon="4.73992">
        <ele>187</ele>
        <time>2017-07-04T14:09:41Z</time>
      </trkpt>
      <trkpt lat="45.94677" lon="4.73998">
        <ele>187</ele>
        <time>2017-07-04T14:09:42Z</time>
      </trkpt>
      <trkpt lat="45.94681" lon="4.74004">
        <ele>187</ele>
        <time>2017-07-04T14:09:43Z</time>
      </trkpt>
      <trkpt lat="45.94685" lon="4.74009">
        <ele>187</ele>
        <time>2017-07-04T14:09:44Z</time>
      </trkpt>
      <trkpt lat="45.94689" lon="4.74014">
        <ele>187</ele>
        <time>2017-07-04T14:09:45Z</time>
      </trkpt>
      <trkpt lat="45.94693" lon="4.74019">
        <ele>187</ele>
        <time>2017-07-04T14:09:46Z</time>
      </trkpt>
      <trkpt lat="45.94697" lon="4.74024">
        <ele>187</ele>
        <time>2017-07-04T14:09:47Z</time>
      </trkpt>
      <trkpt lat="45.947" lon="4.74028">
        <ele>187</ele>
        <time>2017-07-04T14:09:48Z</time>
      </trkpt>
      <trkpt lat="45.94704" lon="4.74032">
        <ele>187</ele>
        <time>2017-07-04T14:09:49Z</time>
      </trkpt>
      <trkpt lat="45.94708" lon="4.74037">
        <ele>187</ele>
        <time>2017-07-04T14:09:50Z</time>
      </trkpt>
      <trkpt lat="45.94711" lon="4.74041">
        <ele>187</ele>
        <time>2017-07-04T14:09:51Z</time>
      </trkpt>
      <trkpt lat="45.94715" lon="4.74046">
        <ele>187</ele>
        <time>2017-07-04T14:09:52Z</time>
      </trkpt>
      <trkpt lat="45.94718" lon="4.74051">
        <ele>187</ele>
        <time>2017-07-04T14:09:53Z</time>
      </trkpt>
      <trkpt lat="45.94722" lon="4.74055">
        <ele>187</ele>
        <time>2017-07-04T14:09:54Z</time>
      </trkpt>
      <trkpt lat="45.94725" lon="4.7406">
        <ele>188</ele>
        <time>2017-07-04T14:09:55Z</time>
      </trkpt>
      <trkpt lat="45.94729" lon="4.74065">
        <ele>188</ele>
        <time>2017-07-04T14:09:56Z</time>
      </trkpt>
      <trkpt lat="45.94733" lon="4.7407">
        <ele>188</ele>
        <time>2017-07-04T14:09:57Z</time>
      </trkpt>
      <trkpt lat="45.94737" lon="4.74075">
        <ele>188</ele>
        <time>2017-07-04T14:09:58Z</time>
      </trkpt>
      <trkpt lat="45.94741" lon="4.74081">
        <ele>188</ele>
        <time>2017-07-04T14:09:59Z</time>
      </trkpt>
      <trkpt lat="45.94745" lon="4.74086">
        <ele>188</ele>
        <time>2017-07-04T14:10:00Z</time>
      </trkpt>
      <trkpt lat="45.94749" lon="4.74091">
        <ele>188</ele>
        <time>2017-07-04T14:10:01Z</time>
      </trkpt>
      <trkpt lat="45.94752" lon="4.74096">
        <ele>189</ele>
        <time>2017-07-04T14:10:02Z</time>
      </trkpt>
      <trkpt lat="45.94756" lon="4.74101">
        <ele>189</ele>
        <time>2017-07-04T14:10:03Z</time>
      </trkpt>
      <trkpt lat="45.94759" lon="4.74105">
        <ele>189</ele>
        <time>2017-07-04T14:10:04Z</time>
      </trkpt>
      <trkpt lat="45.94763" lon="4.74109">
        <ele>189</ele>
        <time>2017-07-04T14:10:05Z</time>
      </trkpt>
      <trkpt lat="45.94766" lon="4.74114">
        <ele>189</ele>
        <time>2017-07-04T14:10:06Z</time>
      </trkpt>
      <trkpt lat="45.94769" lon="4.74119">
        <ele>189</ele>
        <time>2017-07-04T14:10:07Z</time>
      </trkpt>
      <trkpt lat="45.94773" lon="4.74124">
        <ele>189</ele>
        <time>2017-07-04T14:10:08Z</time>
      </trkpt>
      <trkpt lat="45.94777" lon="4.74129">
        <ele>189</ele>
        <time>2017-07-04T14:10:09Z</time>
      </trkpt>
      <trkpt lat="45.9478" lon="4.74134">
        <ele>189</ele>
        <time>2017-07-04T14:10:10Z</time>
      </trkpt>
      <trkpt lat="45.94784" lon="4.74139">
        <ele>189</ele>
        <time>2017-07-04T14:10:11Z</time>
      </trkpt>
      <trkpt lat="45.94787" lon="4.74144">
        <ele>189</ele>
        <time>2017-07-04T14:10:12Z</time>
      </trkpt>
      <trkpt lat="45.94791" lon="4.7415">
        <ele>189</ele>
        <time>2017-07-04T14:10:13Z</time>
      </trkpt>
      <trkpt lat="45.94795" lon="4.74155">
        <ele>189</ele>
        <time>2017-07-04T14:10:14Z</time>
      </trkpt>
      <trkpt lat="45.94799" lon="4.74161">
        <ele>189</ele>
        <time>2017-07-04T14:10:15Z</time>
      </trkpt>
      <trkpt lat="45.94803" lon="4.74168">
        <ele>189</ele>
        <time>2017-07-04T14:10:16Z</time>
      </trkpt>
      <trkpt lat="45.94807" lon="4.74175">
        <ele>189</ele>
        <time>2017-07-04T14:10:17Z</time>
      </trkpt>
      <trkpt lat="45.94811" lon="4.74181">
        <ele>189</ele>
        <time>2017-07-04T14:10:18Z</time>
      </trkpt>
      <trkpt lat="45.94814" lon="4.74188">
        <ele>189</ele>
        <time>2017-07-04T14:10:19Z</time>
      </trkpt>
      <trkpt lat="45.94818" lon="4.74195">
        <ele>189</ele>
        <time>2017-07-04T14:10:20Z</time>
      </trkpt>
      <trkpt lat="45.94821" lon="4.74202">
        <ele>189</ele>
        <time>2017-07-04T14:10:21Z</time>
      </trkpt>
      <trkpt lat="45.94825" lon="4.74208">
        <ele>189</ele>
        <time>2017-07-04T14:10:22Z</time>
      </trkpt>
      <trkpt lat="45.94828" lon="4.74215">
        <ele>188</ele>
        <time>2017-07-04T14:10:23Z</time>
      </trkpt>
      <trkpt lat="45.94831" lon="4.74222">
        <ele>188</ele>
        <time>2017-07-04T14:10:24Z</time>
      </trkpt>
      <trkpt lat="45.94834" lon="4.74228">
        <ele>190</ele>
        <time>2017-07-04T14:10:25Z</time>
      </trkpt>
      <trkpt lat="45.94837" lon="4.74235">
        <ele>190</ele>
        <time>2017-07-04T14:10:26Z</time>
      </trkpt>
      <trkpt lat="45.94841" lon="4.74242">
        <ele>189</ele>
        <time>2017-07-04T14:10:27Z</time>
      </trkpt>
      <trkpt lat="45.94844" lon="4.74248">
        <ele>189</ele>
        <time>2017-07-04T14:10:28Z</time>
      </trkpt>
      <trkpt lat="45.94847" lon="4.74253">
        <ele>190</ele>
        <time>2017-07-04T14:10:29Z</time>
      </trkpt>
      <trkpt lat="45.9485" lon="4.74259">
        <ele>190</ele>
        <time>2017-07-04T14:10:30Z</time>
      </trkpt>
      <trkpt lat="45.94853" lon="4.74264">
        <ele>190</ele>
        <time>2017-07-04T14:10:31Z</time>
      </trkpt>
      <trkpt lat="45.94856" lon="4.7427">
        <ele>190</ele>
        <time>2017-07-04T14:10:32Z</time>
      </trkpt>
      <trkpt lat="45.94859" lon="4.74277">
        <ele>190</ele>
        <time>2017-07-04T14:10:33Z</time>
      </trkpt>
      <trkpt lat="45.94862" lon="4.74283">
        <ele>191</ele>
        <time>2017-07-04T14:10:34Z</time>
      </trkpt>
      <trkpt lat="45.94866" lon="4.74289">
        <ele>191</ele>
        <time>2017-07-04T14:10:35Z</time>
      </trkpt>
      <trkpt lat="45.94869" lon="4.74296">
        <ele>191</ele>
        <time>2017-07-04T14:10:36Z</time>
      </trkpt>
      <trkpt lat="45.94872" lon="4.74302">
        <ele>191</ele>
        <time>2017-07-04T14:10:37Z</time>
      </trkpt>
      <trkpt lat="45.94875" lon="4.74308">
        <ele>191</ele>
        <time>2017-07-04T14:10:38Z</time>
      </trkpt>
      <trkpt lat="45.94879" lon="4.74314">
        <ele>191</ele>
        <time>2017-07-04T14:10:39Z</time>
      </trkpt>
      <trkpt lat="45.94884" lon="4.74323">
        <ele>191</ele>
        <time>2017-07-04T14:10:41Z</time>
      </trkpt>
      <trkpt lat="45.94887" lon="4.74329">
        <ele>191</ele>
        <time>2017-07-04T14:10:42Z</time>
      </trkpt>
      <trkpt lat="45.9489" lon="4.74336">
        <ele>191</ele>
        <time>2017-07-04T14:10:43Z</time>
      </trkpt>
      <trkpt lat="45.94894" lon="4.74342">
        <ele>191</ele>
        <time>2017-07-04T14:10:44Z</time>
      </trkpt>
      <trkpt lat="45.94897" lon="4.74349">
        <ele>191</ele>
        <time>2017-07-04T14:10:45Z</time>
      </trkpt>
      <trkpt lat="45.949" lon="4.74356">
        <ele>191</ele>
        <time>2017-07-04T14:10:46Z</time>
      </trkpt>
      <trkpt lat="45.94904" lon="4.74362">
        <ele>191</ele>
        <time>2017-07-04T14:10:47Z</time>
      </trkpt>
      <trkpt lat="45.94906" lon="4.74368">
        <ele>191</ele>
        <time>2017-07-04T14:10:48Z</time>
      </trkpt>
      <trkpt lat="45.94909" lon="4.74374">
        <ele>191</ele>
        <time>2017-07-04T14:10:49Z</time>
      </trkpt>
      <trkpt lat="45.94912" lon="4.7438">
        <ele>191</ele>
        <time>2017-07-04T14:10:50Z</time>
      </trkpt>
      <trkpt lat="45.94915" lon="4.74386">
        <ele>191</ele>
        <time>2017-07-04T14:10:51Z</time>
      </trkpt>
      <trkpt lat="45.94918" lon="4.74391">
        <ele>192</ele>
        <time>2017-07-04T14:10:52Z</time>
      </trkpt>
      <trkpt lat="45.94921" lon="4.74396">
        <ele>192</ele>
        <time>2017-07-04T14:10:53Z</time>
      </trkpt>
      <trkpt lat="45.94924" lon="4.74402">
        <ele>192</ele>
        <time>2017-07-04T14:10:54Z</time>
      </trkpt>
      <trkpt lat="45.94927" lon="4.74407">
        <ele>192</ele>
        <time>2017-07-04T14:10:55Z</time>
      </trkpt>
      <trkpt lat="45.9493" lon="4.74414">
        <ele>192</ele>
        <time>2017-07-04T14:10:56Z</time>
      </trkpt>
      <trkpt lat="45.94933" lon="4.7442">
        <ele>192</ele>
        <time>2017-07-04T14:10:57Z</time>
      </trkpt>
      <trkpt lat="45.94936" lon="4.74425">
        <ele>192</ele>
        <time>2017-07-04T14:10:58Z</time>
      </trkpt>
      <trkpt lat="45.94939" lon="4.74431">
        <ele>192</ele>
        <time>2017-07-04T14:10:59Z</time>
      </trkpt>
      <trkpt lat="45.94942" lon="4.74437">
        <ele>192</ele>
        <time>2017-07-04T14:11:00Z</time>
      </trkpt>
      <trkpt lat="45.94946" lon="4.74444">
        <ele>192</ele>
        <time>2017-07-04T14:11:01Z</time>
      </trkpt>
      <trkpt lat="45.94949" lon="4.7445">
        <ele>192</ele>
        <time>2017-07-04T14:11:02Z</time>
      </trkpt>
      <trkpt lat="45.94952" lon="4.74456">
        <ele>192</ele>
        <time>2017-07-04T14:11:03Z</time>
      </trkpt>
      <trkpt lat="45.94955" lon="4.74461">
        <ele>193</ele>
        <time>2017-07-04T14:11:04Z</time>
      </trkpt>
      <trkpt lat="45.94958" lon="4.74468">
        <ele>193</ele>
        <time>2017-07-04T14:11:05Z</time>
      </trkpt>
      <trkpt lat="45.94961" lon="4.74474">
        <ele>193</ele>
        <time>2017-07-04T14:11:06Z</time>
      </trkpt>
      <trkpt lat="45.94964" lon="4.7448">
        <ele>193</ele>
        <time>2017-07-04T14:11:07Z</time>
      </trkpt>
      <trkpt lat="45.94968" lon="4.74486">
        <ele>193</ele>
        <time>2017-07-04T14:11:08Z</time>
      </trkpt>
      <trkpt lat="45.94971" lon="4.74491">
        <ele>193</ele>
        <time>2017-07-04T14:11:09Z</time>
      </trkpt>
      <trkpt lat="45.94973" lon="4.74497">
        <ele>193</ele>
        <time>2017-07-04T14:11:10Z</time>
      </trkpt>
      <trkpt lat="45.94978" lon="4.74508">
        <ele>193</ele>
        <time>2017-07-04T14:11:12Z</time>
      </trkpt>
      <trkpt lat="45.94981" lon="4.74513">
        <ele>193</ele>
        <time>2017-07-04T14:11:13Z</time>
      </trkpt>
      <trkpt lat="45.94984" lon="4.74518">
        <ele>193</ele>
        <time>2017-07-04T14:11:14Z</time>
      </trkpt>
      <trkpt lat="45.94987" lon="4.74524">
        <ele>193</ele>
        <time>2017-07-04T14:11:15Z</time>
      </trkpt>
      <trkpt lat="45.9499" lon="4.7453">
        <ele>193</ele>
        <time>2017-07-04T14:11:16Z</time>
      </trkpt>
      <trkpt lat="45.94993" lon="4.74536">
        <ele>193</ele>
        <time>2017-07-04T14:11:17Z</time>
      </trkpt>
      <trkpt lat="45.94996" lon="4.74542">
        <ele>193</ele>
        <time>2017-07-04T14:11:18Z</time>
      </trkpt>
      <trkpt lat="45.94999" lon="4.74548">
        <ele>193</ele>
        <time>2017-07-04T14:11:19Z</time>
      </trkpt>
      <trkpt lat="45.95002" lon="4.74553">
        <ele>194</ele>
        <time>2017-07-04T14:11:20Z</time>
      </trkpt>
      <trkpt lat="45.95005" lon="4.74558">
        <ele>194</ele>
        <time>2017-07-04T14:11:21Z</time>
      </trkpt>
      <trkpt lat="45.95008" lon="4.74564">
        <ele>194</ele>
        <time>2017-07-04T14:11:22Z</time>
      </trkpt>
      <trkpt lat="45.95011" lon="4.74569">
        <ele>194</ele>
        <time>2017-07-04T14:11:23Z</time>
      </trkpt>
      <trkpt lat="45.95014" lon="4.74575">
        <ele>194</ele>
        <time>2017-07-04T14:11:24Z</time>
      </trkpt>
      <trkpt lat="45.95018" lon="4.7458">
        <ele>194</ele>
        <time>2017-07-04T14:11:25Z</time>
      </trkpt>
      <trkpt lat="45.95021" lon="4.74586">
        <ele>194</ele>
        <time>2017-07-04T14:11:26Z</time>
      </trkpt>
      <trkpt lat="45.95024" lon="4.74591">
        <ele>194</ele>
        <time>2017-07-04T14:11:27Z</time>
      </trkpt>
      <trkpt lat="45.95027" lon="4.74596">
        <ele>194</ele>
        <time>2017-07-04T14:11:28Z</time>
      </trkpt>
      <trkpt lat="45.9503" lon="4.74602">
        <ele>194</ele>
        <time>2017-07-04T14:11:29Z</time>
      </trkpt>
      <trkpt lat="45.95033" lon="4.74608">
        <ele>194</ele>
        <time>2017-07-04T14:11:30Z</time>
      </trkpt>
      <trkpt lat="45.95035" lon="4.74613">
        <ele>194</ele>
        <time>2017-07-04T14:11:31Z</time>
      </trkpt>
      <trkpt lat="45.95038" lon="4.74619">
        <ele>194</ele>
        <time>2017-07-04T14:11:32Z</time>
      </trkpt>
      <trkpt lat="45.95041" lon="4.74624">
        <ele>194</ele>
        <time>2017-07-04T14:11:33Z</time>
      </trkpt>
      <trkpt lat="45.95044" lon="4.7463">
        <ele>194</ele>
        <time>2017-07-04T14:11:34Z</time>
      </trkpt>
      <trkpt lat="45.95047" lon="4.74636">
        <ele>194</ele>
        <time>2017-07-04T14:11:35Z</time>
      </trkpt>
      <trkpt lat="45.9505" lon="4.74641">
        <ele>194</ele>
        <time>2017-07-04T14:11:36Z</time>
      </trkpt>
      <trkpt lat="45.95053" lon="4.74647">
        <ele>194</ele>
        <time>2017-07-04T14:11:37Z</time>
      </trkpt>
      <trkpt lat="45.95057" lon="4.74653">
        <ele>194</ele>
        <time>2017-07-04T14:11:38Z</time>
      </trkpt>
      <trkpt lat="45.9506" lon="4.74659">
        <ele>194</ele>
        <time>2017-07-04T14:11:39Z</time>
      </trkpt>
      <trkpt lat="45.95064" lon="4.74666">
        <ele>195</ele>
        <time>2017-07-04T14:11:40Z</time>
      </trkpt>
      <trkpt lat="45.95067" lon="4.74673">
        <ele>194</ele>
        <time>2017-07-04T14:11:41Z</time>
      </trkpt>
      <trkpt lat="45.95071" lon="4.7468">
        <ele>194</ele>
        <time>2017-07-04T14:11:42Z</time>
      </trkpt>
      <trkpt lat="45.95074" lon="4.74686">
        <ele>194</ele>
        <time>2017-07-04T14:11:43Z</time>
      </trkpt>
      <trkpt lat="45.95078" lon="4.74692">
        <ele>194</ele>
        <time>2017-07-04T14:11:44Z</time>
      </trkpt>
      <trkpt lat="45.95081" lon="4.74699">
        <ele>194</ele>
        <time>2017-07-04T14:11:45Z</time>
      </trkpt>
      <trkpt lat="45.95085" lon="4.74705">
        <ele>194</ele>
        <time>2017-07-04T14:11:46Z</time>
      </trkpt>
      <trkpt lat="45.95088" lon="4.74711">
        <ele>194</ele>
        <time>2017-07-04T14:11:47Z</time>
      </trkpt>
      <trkpt lat="45.95092" lon="4.74717">
        <ele>194</ele>
        <time>2017-07-04T14:11:48Z</time>
      </trkpt>
      <trkpt lat="45.95096" lon="4.74723">
        <ele>194</ele>
        <time>2017-07-04T14:11:49Z</time>
      </trkpt>
      <trkpt lat="45.95099" lon="4.74729">
        <ele>194</ele>
        <time>2017-07-04T14:11:50Z</time>
      </trkpt>
      <trkpt lat="45.95104" lon="4.74736">
        <ele>194</ele>
        <time>2017-07-04T14:11:51Z</time>
      </trkpt>
      <trkpt lat="45.95108" lon="4.74742">
        <ele>194</ele>
        <time>2017-07-04T14:11:52Z</time>
      </trkpt>
      <trkpt lat="45.95111" lon="4.74749">
        <ele>194</ele>
        <time>2017-07-04T14:11:53Z</time>
      </trkpt>
      <trkpt lat="45.95115" lon="4.74756">
        <ele>194</ele>
        <time>2017-07-04T14:11:54Z</time>
      </trkpt>
      <trkpt lat="45.95119" lon="4.74761">
        <ele>194</ele>
        <time>2017-07-04T14:11:55Z</time>
      </trkpt>
      <trkpt lat="45.95123" lon="4.74767">
        <ele>194</ele>
        <time>2017-07-04T14:11:56Z</time>
      </trkpt>
      <trkpt lat="45.95126" lon="4.74773">
        <ele>194</ele>
        <time>2017-07-04T14:11:57Z</time>
      </trkpt>
      <trkpt lat="45.9513" lon="4.7478">
        <ele>194</ele>
        <time>2017-07-04T14:11:58Z</time>
      </trkpt>
      <trkpt lat="45.95133" lon="4.74785">
        <ele>194</ele>
        <time>2017-07-04T14:11:59Z</time>
      </trkpt>
      <trkpt lat="45.95137" lon="4.74791">
        <ele>194</ele>
        <time>2017-07-04T14:12:00Z</time>
      </trkpt>
      <trkpt lat="45.95141" lon="4.74797">
        <ele>194</ele>
        <time>2017-07-04T14:12:01Z</time>
      </trkpt>
      <trkpt lat="45.95145" lon="4.74803">
        <ele>194</ele>
        <time>2017-07-04T14:12:02Z</time>
      </trkpt>
      <trkpt lat="45.95149" lon="4.74809">
        <ele>194</ele>
        <time>2017-07-04T14:12:03Z</time>
      </trkpt>
      <trkpt lat="45.95152" lon="4.74816">
        <ele>194</ele>
        <time>2017-07-04T14:12:04Z</time>
      </trkpt>
      <trkpt lat="45.95156" lon="4.74821">
        <ele>194</ele>
        <time>2017-07-04T14:12:05Z</time>
      </trkpt>
      <trkpt lat="45.9516" lon="4.74827">
        <ele>194</ele>
        <time>2017-07-04T14:12:06Z</time>
      </trkpt>
      <trkpt lat="45.95164" lon="4.74833">
        <ele>194</ele>
        <time>2017-07-04T14:12:07Z</time>
      </trkpt>
      <trkpt lat="45.95167" lon="4.74839">
        <ele>194</ele>
        <time>2017-07-04T14:12:08Z</time>
      </trkpt>
      <trkpt lat="45.95171" lon="4.74845">
        <ele>194</ele>
        <time>2017-07-04T14:12:09Z</time>
      </trkpt>
      <trkpt lat="45.95175" lon="4.74851">
        <ele>194</ele>
        <time>2017-07-04T14:12:10Z</time>
      </trkpt>
      <trkpt lat="45.95179" lon="4.74857">
        <ele>194</ele>
        <time>2017-07-04T14:12:11Z</time>
      </trkpt>
      <trkpt lat="45.95183" lon="4.74863">
        <ele>194</ele>
        <time>2017-07-04T14:12:12Z</time>
      </trkpt>
      <trkpt lat="45.95187" lon="4.74869">
        <ele>194</ele>
        <time>2017-07-04T14:12:13Z</time>
      </trkpt>
      <trkpt lat="45.9519" lon="4.74875">
        <ele>194</ele>
        <time>2017-07-04T14:12:14Z</time>
      </trkpt>
      <trkpt lat="45.95194" lon="4.74881">
        <ele>194</ele>
        <time>2017-07-04T14:12:15Z</time>
      </trkpt>
      <trkpt lat="45.95197" lon="4.74886">
        <ele>194</ele>
        <time>2017-07-04T14:12:16Z</time>
      </trkpt>
      <trkpt lat="45.95201" lon="4.74892">
        <ele>194</ele>
        <time>2017-07-04T14:12:17Z</time>
      </trkpt>
      <trkpt lat="45.95204" lon="4.74899">
        <ele>194</ele>
        <time>2017-07-04T14:12:18Z</time>
      </trkpt>
      <trkpt lat="45.95207" lon="4.74905">
        <ele>194</ele>
        <time>2017-07-04T14:12:19Z</time>
      </trkpt>
      <trkpt lat="45.9521" lon="4.7491">
        <ele>193</ele>
        <time>2017-07-04T14:12:20Z</time>
      </trkpt>
      <trkpt lat="45.95214" lon="4.74916">
        <ele>193</ele>
        <time>2017-07-04T14:12:21Z</time>
      </trkpt>
      <trkpt lat="45.95218" lon="4.74922">
        <ele>192</ele>
        <time>2017-07-04T14:12:22Z</time>
      </trkpt>
      <trkpt lat="45.95222" lon="4.74927">
        <ele>192</ele>
        <time>2017-07-04T14:12:23Z</time>
      </trkpt>
      <trkpt lat="45.95226" lon="4.74934">
        <ele>192</ele>
        <time>2017-07-04T14:12:24Z</time>
      </trkpt>
      <trkpt lat="45.95229" lon="4.7494">
        <ele>192</ele>
        <time>2017-07-04T14:12:25Z</time>
      </trkpt>
      <trkpt lat="45.95233" lon="4.74946">
        <ele>192</ele>
        <time>2017-07-04T14:12:26Z</time>
      </trkpt>
      <trkpt lat="45.95237" lon="4.74951">
        <ele>192</ele>
        <time>2017-07-04T14:12:27Z</time>
      </trkpt>
      <trkpt lat="45.95241" lon="4.74957">
        <ele>192</ele>
        <time>2017-07-04T14:12:28Z</time>
      </trkpt>
      <trkpt lat="45.95244" lon="4.74963">
        <ele>191</ele>
        <time>2017-07-04T14:12:29Z</time>
      </trkpt>
      <trkpt lat="45.95248" lon="4.74969">
        <ele>191</ele>
        <time>2017-07-04T14:12:30Z</time>
      </trkpt>
      <trkpt lat="45.95252" lon="4.74975">
        <ele>192</ele>
        <time>2017-07-04T14:12:31Z</time>
      </trkpt>
      <trkpt lat="45.95256" lon="4.74981">
        <ele>192</ele>
        <time>2017-07-04T14:12:32Z</time>
      </trkpt>
      <trkpt lat="45.9526" lon="4.74988">
        <ele>192</ele>
        <time>2017-07-04T14:12:33Z</time>
      </trkpt>
      <trkpt lat="45.95263" lon="4.74993">
        <ele>192</ele>
        <time>2017-07-04T14:12:34Z</time>
      </trkpt>
      <trkpt lat="45.95267" lon="4.74998">
        <ele>192</ele>
        <time>2017-07-04T14:12:35Z</time>
      </trkpt>
      <trkpt lat="45.95271" lon="4.75004">
        <ele>191</ele>
        <time>2017-07-04T14:12:36Z</time>
      </trkpt>
      <trkpt lat="45.95274" lon="4.7501">
        <ele>191</ele>
        <time>2017-07-04T14:12:37Z</time>
      </trkpt>
      <trkpt lat="45.95278" lon="4.75016">
        <ele>191</ele>
        <time>2017-07-04T14:12:38Z</time>
      </trkpt>
      <trkpt lat="45.95282" lon="4.75022">
        <ele>191</ele>
        <time>2017-07-04T14:12:39Z</time>
      </trkpt>
      <trkpt lat="45.95286" lon="4.75028">
        <ele>191</ele>
        <time>2017-07-04T14:12:40Z</time>
      </trkpt>
      <trkpt lat="45.9529" lon="4.75034">
        <ele>191</ele>
        <time>2017-07-04T14:12:41Z</time>
      </trkpt>
      <trkpt lat="45.95295" lon="4.75041">
        <ele>191</ele>
        <time>2017-07-04T14:12:42Z</time>
      </trkpt>
      <trkpt lat="45.95299" lon="4.75047">
        <ele>191</ele>
        <time>2017-07-04T14:12:43Z</time>
      </trkpt>
      <trkpt lat="45.95303" lon="4.75053">
        <ele>191</ele>
        <time>2017-07-04T14:12:44Z</time>
      </trkpt>
      <trkpt lat="45.95307" lon="4.75061">
        <ele>192</ele>
        <time>2017-07-04T14:12:45Z</time>
      </trkpt>
      <trkpt lat="45.95311" lon="4.75067">
        <ele>192</ele>
        <time>2017-07-04T14:12:46Z</time>
      </trkpt>
      <trkpt lat="45.95315" lon="4.75074">
        <ele>192</ele>
        <time>2017-07-04T14:12:47Z</time>
      </trkpt>
      <trkpt lat="45.95319" lon="4.7508">
        <ele>192</ele>
        <time>2017-07-04T14:12:48Z</time>
      </trkpt>
      <trkpt lat="45.95323" lon="4.75087">
        <ele>191</ele>
        <time>2017-07-04T14:12:49Z</time>
      </trkpt>
      <trkpt lat="45.95327" lon="4.75094">
        <ele>191</ele>
        <time>2017-07-04T14:12:50Z</time>
      </trkpt>
      <trkpt lat="45.95331" lon="4.751">
        <ele>190</ele>
        <time>2017-07-04T14:12:51Z</time>
      </trkpt>
      <trkpt lat="45.95335" lon="4.75106">
        <ele>192</ele>
        <time>2017-07-04T14:12:52Z</time>
      </trkpt>
      <trkpt lat="45.95339" lon="4.75112">
        <ele>192</ele>
        <time>2017-07-04T14:12:53Z</time>
      </trkpt>
      <trkpt lat="45.95342" lon="4.75117">
        <ele>191</ele>
        <time>2017-07-04T14:12:54Z</time>
      </trkpt>
      <trkpt lat="45.95346" lon="4.75124">
        <ele>191</ele>
        <time>2017-07-04T14:12:55Z</time>
      </trkpt>
      <trkpt lat="45.9535" lon="4.75131">
        <ele>191</ele>
        <time>2017-07-04T14:12:56Z</time>
      </trkpt>
      <trkpt lat="45.95355" lon="4.75138">
        <ele>191</ele>
        <time>2017-07-04T14:12:57Z</time>
      </trkpt>
      <trkpt lat="45.95359" lon="4.75144">
        <ele>191</ele>
        <time>2017-07-04T14:12:58Z</time>
      </trkpt>
      <trkpt lat="45.95363" lon="4.7515">
        <ele>191</ele>
        <time>2017-07-04T14:12:59Z</time>
      </trkpt>
      <trkpt lat="45.95367" lon="4.75157">
        <ele>191</ele>
        <time>2017-07-04T14:13:00Z</time>
      </trkpt>
      <trkpt lat="45.95371" lon="4.75163">
        <ele>191</ele>
        <time>2017-07-04T14:13:01Z</time>
      </trkpt>
      <trkpt lat="45.95374" lon="4.75169">
        <ele>189</ele>
        <time>2017-07-04T14:13:02Z</time>
      </trkpt>
      <trkpt lat="45.95378" lon="4.75175">
        <ele>189</ele>
        <time>2017-07-04T14:13:03Z</time>
      </trkpt>
      <trkpt lat="45.95382" lon="4.75182">
        <ele>189</ele>
        <time>2017-07-04T14:13:04Z</time>
      </trkpt>
      <trkpt lat="45.95386" lon="4.75188">
        <ele>189</ele>
        <time>2017-07-04T14:13:05Z</time>
      </trkpt>
      <trkpt lat="45.9539" lon="4.75195">
        <ele>189</ele>
        <time>2017-07-04T14:13:06Z</time>
      </trkpt>
      <trkpt lat="45.95394" lon="4.75201">
        <ele>189</ele>
        <time>2017-07-04T14:13:07Z</time>
      </trkpt>
      <trkpt lat="45.95398" lon="4.75208">
        <ele>189</ele>
        <time>2017-07-04T14:13:08Z</time>
      </trkpt>
      <trkpt lat="45.95402" lon="4.75215">
        <ele>188</ele>
        <time>2017-07-04T14:13:09Z</time>
      </trkpt>
      <trkpt lat="45.95406" lon="4.75222">
        <ele>188</ele>
        <time>2017-07-04T14:13:10Z</time>
      </trkpt>
      <trkpt lat="45.9541" lon="4.75229">
        <ele>189</ele>
        <time>2017-07-04T14:13:11Z</time>
      </trkpt>
      <trkpt lat="45.95415" lon="4.75236">
        <ele>189</ele>
        <time>2017-07-04T14:13:12Z</time>
      </trkpt>
      <trkpt lat="45.95419" lon="4.75243">
        <ele>190</ele>
        <time>2017-07-04T14:13:13Z</time>
      </trkpt>
      <trkpt lat="45.95423" lon="4.75251">
        <ele>189</ele>
        <time>2017-07-04T14:13:14Z</time>
      </trkpt>
      <trkpt lat="45.95427" lon="4.75259">
        <ele>189</ele>
        <time>2017-07-04T14:13:15Z</time>
      </trkpt>
      <trkpt lat="45.95431" lon="4.75268">
        <ele>189</ele>
        <time>2017-07-04T14:13:16Z</time>
      </trkpt>
      <trkpt lat="45.95435" lon="4.75276">
        <ele>188</ele>
        <time>2017-07-04T14:13:17Z</time>
      </trkpt>
      <trkpt lat="45.95439" lon="4.75284">
        <ele>188</ele>
        <time>2017-07-04T14:13:18Z</time>
      </trkpt>
      <trkpt lat="45.95443" lon="4.75292">
        <ele>188</ele>
        <time>2017-07-04T14:13:19Z</time>
      </trkpt>
      <trkpt lat="45.95447" lon="4.75299">
        <ele>188</ele>
        <time>2017-07-04T14:13:20Z</time>
      </trkpt>
      <trkpt lat="45.95451" lon="4.75307">
        <ele>188</ele>
        <time>2017-07-04T14:13:21Z</time>
      </trkpt>
      <trkpt lat="45.95455" lon="4.75314">
        <ele>188</ele>
        <time>2017-07-04T14:13:22Z</time>
      </trkpt>
      <trkpt lat="45.9546" lon="4.75322">
        <ele>188</ele>
        <time>2017-07-04T14:13:23Z</time>
      </trkpt>
      <trkpt lat="45.95463" lon="4.7533">
        <ele>188</ele>
        <time>2017-07-04T14:13:24Z</time>
      </trkpt>
      <trkpt lat="45.95467" lon="4.75337">
        <ele>186</ele>
        <time>2017-07-04T14:13:25Z</time>
      </trkpt>
      <trkpt lat="45.95471" lon="4.75345">
        <ele>186</ele>
        <time>2017-07-04T14:13:26Z</time>
      </trkpt>
      <trkpt lat="45.95476" lon="4.75352">
        <ele>186</ele>
        <time>2017-07-04T14:13:27Z</time>
      </trkpt>
      <trkpt lat="45.95479" lon="4.75358">
        <ele>186</ele>
        <time>2017-07-04T14:13:28Z</time>
      </trkpt>
      <trkpt lat="45.95483" lon="4.75365">
        <ele>186</ele>
        <time>2017-07-04T14:13:29Z</time>
      </trkpt>
      <trkpt lat="45.95486" lon="4.75372">
        <ele>185</ele>
        <time>2017-07-04T14:13:30Z</time>
      </trkpt>
      <trkpt lat="45.95489" lon="4.75379">
        <ele>185</ele>
        <time>2017-07-04T14:13:31Z</time>
      </trkpt>
      <trkpt lat="45.95493" lon="4.75386">
        <ele>185</ele>
        <time>2017-07-04T14:13:32Z</time>
      </trkpt>
      <trkpt lat="45.95496" lon="4.75394">
        <ele>185</ele>
        <time>2017-07-04T14:13:33Z</time>
      </trkpt>
      <trkpt lat="45.95499" lon="4.75401">
        <ele>185</ele>
        <time>2017-07-04T14:13:34Z</time>
      </trkpt>
      <trkpt lat="45.95502" lon="4.75409">
        <ele>186</ele>
        <time>2017-07-04T14:13:35Z</time>
      </trkpt>
      <trkpt lat="45.95504" lon="4.75417">
        <ele>186</ele>
        <time>2017-07-04T14:13:36Z</time>
      </trkpt>
      <trkpt lat="45.95506" lon="4.75425">
        <ele>186</ele>
        <time>2017-07-04T14:13:37Z</time>
      </trkpt>
      <trkpt lat="45.95508" lon="4.75434">
        <ele>186</ele>
        <time>2017-07-04T14:13:38Z</time>
      </trkpt>
      <trkpt lat="45.95509" lon="4.75443">
        <ele>186</ele>
        <time>2017-07-04T14:13:39Z</time>
      </trkpt>
      <trkpt lat="45.9551" lon="4.75452">
        <ele>187</ele>
        <time>2017-07-04T14:13:40Z</time>
      </trkpt>
      <trkpt lat="45.9551" lon="4.7546">
        <ele>187</ele>
        <time>2017-07-04T14:13:41Z</time>
      </trkpt>
      <trkpt lat="45.9551" lon="4.75469">
        <ele>186</ele>
        <time>2017-07-04T14:13:42Z</time>
      </trkpt>
      <trkpt lat="45.95509" lon="4.75478">
        <ele>186</ele>
        <time>2017-07-04T14:13:43Z</time>
      </trkpt>
      <trkpt lat="45.9551" lon="4.75486">
        <ele>186</ele>
        <time>2017-07-04T14:13:44Z</time>
      </trkpt>
      <trkpt lat="45.95513" lon="4.75494">
        <ele>185</ele>
        <time>2017-07-04T14:13:45Z</time>
      </trkpt>
      <trkpt lat="45.95517" lon="4.75501">
        <ele>185</ele>
        <time>2017-07-04T14:13:46Z</time>
      </trkpt>
      <trkpt lat="45.95522" lon="4.75505">
        <ele>185</ele>
        <time>2017-07-04T14:13:47Z</time>
      </trkpt>
      <trkpt lat="45.95526" lon="4.75509">
        <ele>185</ele>
        <time>2017-07-04T14:13:48Z</time>
      </trkpt>
      <trkpt lat="45.95531" lon="4.75512">
        <ele>185</ele>
        <time>2017-07-04T14:13:49Z</time>
      </trkpt>
      <trkpt lat="45.95536" lon="4.75517">
        <ele>186</ele>
        <time>2017-07-04T14:13:50Z</time>
      </trkpt>
      <trkpt lat="45.9554" lon="4.75521">
        <ele>186</ele>
        <time>2017-07-04T14:13:51Z</time>
      </trkpt>
      <trkpt lat="45.95546" lon="4.75526">
        <ele>186</ele>
        <time>2017-07-04T14:13:52Z</time>
      </trkpt>
      <trkpt lat="45.95551" lon="4.75531">
        <ele>186</ele>
        <time>2017-07-04T14:13:53Z</time>
      </trkpt>
      <trkpt lat="45.95556" lon="4.75536">
        <ele>186</ele>
        <time>2017-07-04T14:13:54Z</time>
      </trkpt>
      <trkpt lat="45.95561" lon="4.7554">
        <ele>186</ele>
        <time>2017-07-04T14:13:55Z</time>
      </trkpt>
      <trkpt lat="45.95566" lon="4.75545">
        <ele>186</ele>
        <time>2017-07-04T14:13:56Z</time>
      </trkpt>
      <trkpt lat="45.95571" lon="4.7555">
        <ele>186</ele>
        <time>2017-07-04T14:13:57Z</time>
      </trkpt>
      <trkpt lat="45.95575" lon="4.75555">
        <ele>186</ele>
        <time>2017-07-04T14:13:58Z</time>
      </trkpt>
      <trkpt lat="45.95579" lon="4.75561">
        <ele>186</ele>
        <time>2017-07-04T14:13:59Z</time>
      </trkpt>
      <trkpt lat="45.95584" lon="4.75567">
        <ele>188</ele>
        <time>2017-07-04T14:14:00Z</time>
      </trkpt>
      <trkpt lat="45.95588" lon="4.75573">
        <ele>187</ele>
        <time>2017-07-04T14:14:01Z</time>
      </trkpt>
      <trkpt lat="45.95591" lon="4.75579">
        <ele>187</ele>
        <time>2017-07-04T14:14:02Z</time>
      </trkpt>
      <trkpt lat="45.95594" lon="4.75586">
        <ele>187</ele>
        <time>2017-07-04T14:14:03Z</time>
      </trkpt>
      <trkpt lat="45.95597" lon="4.75593">
        <ele>187</ele>
        <time>2017-07-04T14:14:04Z</time>
      </trkpt>
      <trkpt lat="45.956" lon="4.756">
        <ele>187</ele>
        <time>2017-07-04T14:14:05Z</time>
      </trkpt>
      <trkpt lat="45.95603" lon="4.75606">
        <ele>187</ele>
        <time>2017-07-04T14:14:06Z</time>
      </trkpt>
      <trkpt lat="45.95605" lon="4.75613">
        <ele>187</ele>
        <time>2017-07-04T14:14:07Z</time>
      </trkpt>
      <trkpt lat="45.95607" lon="4.7562">
        <ele>188</ele>
        <time>2017-07-04T14:14:08Z</time>
      </trkpt>
      <trkpt lat="45.95609" lon="4.75627">
        <ele>188</ele>
        <time>2017-07-04T14:14:09Z</time>
      </trkpt>
      <trkpt lat="45.95611" lon="4.75634">
        <ele>188</ele>
        <time>2017-07-04T14:14:10Z</time>
      </trkpt>
      <trkpt lat="45.95613" lon="4.75641">
        <ele>188</ele>
        <time>2017-07-04T14:14:11Z</time>
      </trkpt>
      <trkpt lat="45.95615" lon="4.75649">
        <ele>188</ele>
        <time>2017-07-04T14:14:12Z</time>
      </trkpt>
      <trkpt lat="45.95617" lon="4.75657">
        <ele>188</ele>
        <time>2017-07-04T14:14:13Z</time>
      </trkpt>
      <trkpt lat="45.95619" lon="4.75665">
        <ele>188</ele>
        <time>2017-07-04T14:14:14Z</time>
      </trkpt>
      <trkpt lat="45.9562" lon="4.75672">
        <ele>187</ele>
        <time>2017-07-04T14:14:15Z</time>
      </trkpt>
      <trkpt lat="45.95622" lon="4.7568">
        <ele>187</ele>
        <time>2017-07-04T14:14:16Z</time>
      </trkpt>
      <trkpt lat="45.95623" lon="4.75688">
        <ele>187</ele>
        <time>2017-07-04T14:14:17Z</time>
      </trkpt>
      <trkpt lat="45.95624" lon="4.75696">
        <ele>187</ele>
        <time>2017-07-04T14:14:18Z</time>
      </trkpt>
      <trkpt lat="45.95626" lon="4.75703">
        <ele>187</ele>
        <time>2017-07-04T14:14:19Z</time>
      </trkpt>
      <trkpt lat="45.95627" lon="4.75711">
        <ele>187</ele>
        <time>2017-07-04T14:14:20Z</time>
      </trkpt>
      <trkpt lat="45.95628" lon="4.75719">
        <ele>187</ele>
        <time>2017-07-04T14:14:21Z</time>
      </trkpt>
      <trkpt lat="45.95629" lon="4.75727">
        <ele>187</ele>
        <time>2017-07-04T14:14:22Z</time>
      </trkpt>
      <trkpt lat="45.95631" lon="4.75735">
        <ele>187</ele>
        <time>2017-07-04T14:14:23Z</time>
      </trkpt>
      <trkpt lat="45.95632" lon="4.75743">
        <ele>187</ele>
        <time>2017-07-04T14:14:24Z</time>
      </trkpt>
      <trkpt lat="45.95633" lon="4.7575">
        <ele>187</ele>
        <time>2017-07-04T14:14:25Z</time>
      </trkpt>
      <trkpt lat="45.95634" lon="4.75758">
        <ele>186</ele>
        <time>2017-07-04T14:14:26Z</time>
      </trkpt>
      <trkpt lat="45.95634" lon="4.75765">
        <ele>186</ele>
        <time>2017-07-04T14:14:27Z</time>
      </trkpt>
      <trkpt lat="45.95635" lon="4.75773">
        <ele>186</ele>
        <time>2017-07-04T14:14:28Z</time>
      </trkpt>
      <trkpt lat="45.95636" lon="4.75781">
        <ele>185</ele>
        <time>2017-07-04T14:14:29Z</time>
      </trkpt>
      <trkpt lat="45.95637" lon="4.7579">
        <ele>185</ele>
        <time>2017-07-04T14:14:30Z</time>
      </trkpt>
      <trkpt lat="45.95638" lon="4.75799">
        <ele>185</ele>
        <time>2017-07-04T14:14:31Z</time>
      </trkpt>
      <trkpt lat="45.9564" lon="4.75807">
        <ele>185</ele>
        <time>2017-07-04T14:14:32Z</time>
      </trkpt>
      <trkpt lat="45.95642" lon="4.75816">
        <ele>185</ele>
        <time>2017-07-04T14:14:33Z</time>
      </trkpt>
      <trkpt lat="45.95644" lon="4.75824">
        <ele>185</ele>
        <time>2017-07-04T14:14:34Z</time>
      </trkpt>
      <trkpt lat="45.95645" lon="4.75832">
        <ele>185</ele>
        <time>2017-07-04T14:14:35Z</time>
      </trkpt>
      <trkpt lat="45.95647" lon="4.7584">
        <ele>185</ele>
        <time>2017-07-04T14:14:36Z</time>
      </trkpt>
      <trkpt lat="45.95649" lon="4.75847">
        <ele>184</ele>
        <time>2017-07-04T14:14:37Z</time>
      </trkpt>
      <trkpt lat="45.95652" lon="4.75855">
        <ele>184</ele>
        <time>2017-07-04T14:14:38Z</time>
      </trkpt>
      <trkpt lat="45.95654" lon="4.75862">
        <ele>184</ele>
        <time>2017-07-04T14:14:39Z</time>
      </trkpt>
      <trkpt lat="45.95656" lon="4.7587">
        <ele>184</ele>
        <time>2017-07-04T14:14:40Z</time>
      </trkpt>
      <trkpt lat="45.95658" lon="4.75878">
        <ele>184</ele>
        <time>2017-07-04T14:14:41Z</time>
      </trkpt>
      <trkpt lat="45.95661" lon="4.75886">
        <ele>184</ele>
        <time>2017-07-04T14:14:42Z</time>
      </trkpt>
      <trkpt lat="45.95664" lon="4.75894">
        <ele>184</ele>
        <time>2017-07-04T14:14:43Z</time>
      </trkpt>
      <trkpt lat="45.95667" lon="4.75902">
        <ele>185</ele>
        <time>2017-07-04T14:14:44Z</time>
      </trkpt>
      <trkpt lat="45.9567" lon="4.75911">
        <ele>185</ele>
        <time>2017-07-04T14:14:45Z</time>
      </trkpt>
      <trkpt lat="45.95674" lon="4.75919">
        <ele>184</ele>
        <time>2017-07-04T14:14:46Z</time>
      </trkpt>
      <trkpt lat="45.95677" lon="4.75927">
        <ele>185</ele>
        <time>2017-07-04T14:14:47Z</time>
      </trkpt>
      <trkpt lat="45.9568" lon="4.75935">
        <ele>185</ele>
        <time>2017-07-04T14:14:48Z</time>
      </trkpt>
      <trkpt lat="45.95684" lon="4.75943">
        <ele>185</ele>
        <time>2017-07-04T14:14:49Z</time>
      </trkpt>
      <trkpt lat="45.95687" lon="4.75951">
        <ele>185</ele>
        <time>2017-07-04T14:14:50Z</time>
      </trkpt>
      <trkpt lat="45.9569" lon="4.75958">
        <ele>185</ele>
        <time>2017-07-04T14:14:51Z</time>
      </trkpt>
      <trkpt lat="45.95693" lon="4.75965">
        <ele>185</ele>
        <time>2017-07-04T14:14:52Z</time>
      </trkpt>
      <trkpt lat="45.95696" lon="4.75972">
        <ele>185</ele>
        <time>2017-07-04T14:14:53Z</time>
      </trkpt>
      <trkpt lat="45.957" lon="4.75979">
        <ele>185</ele>
        <time>2017-07-04T14:14:54Z</time>
      </trkpt>
      <trkpt lat="45.95703" lon="4.75985">
        <ele>185</ele>
        <time>2017-07-04T14:14:55Z</time>
      </trkpt>
      <trkpt lat="45.95706" lon="4.75992">
        <ele>185</ele>
        <time>2017-07-04T14:14:56Z</time>
      </trkpt>
      <trkpt lat="45.95709" lon="4.75998">
        <ele>185</ele>
        <time>2017-07-04T14:14:57Z</time>
      </trkpt>
      <trkpt lat="45.95712" lon="4.76005">
        <ele>184</ele>
        <time>2017-07-04T14:14:58Z</time>
      </trkpt>
      <trkpt lat="45.95714" lon="4.76012">
        <ele>184</ele>
        <time>2017-07-04T14:14:59Z</time>
      </trkpt>
      <trkpt lat="45.95717" lon="4.76018">
        <ele>184</ele>
        <time>2017-07-04T14:15:00Z</time>
      </trkpt>
      <trkpt lat="45.95721" lon="4.76025">
        <ele>184</ele>
        <time>2017-07-04T14:15:01Z</time>
      </trkpt>
      <trkpt lat="45.95724" lon="4.76032">
        <ele>184</ele>
        <time>2017-07-04T14:15:02Z</time>
      </trkpt>
      <trkpt lat="45.95727" lon="4.76039">
        <ele>184</ele>
        <time>2017-07-04T14:15:03Z</time>
      </trkpt>
      <trkpt lat="45.9573" lon="4.76046">
        <ele>184</ele>
        <time>2017-07-04T14:15:04Z</time>
      </trkpt>
      <trkpt lat="45.95733" lon="4.76053">
        <ele>184</ele>
        <time>2017-07-04T14:15:05Z</time>
      </trkpt>
      <trkpt lat="45.95736" lon="4.7606">
        <ele>184</ele>
        <time>2017-07-04T14:15:06Z</time>
      </trkpt>
      <trkpt lat="45.95739" lon="4.76066">
        <ele>184</ele>
        <time>2017-07-04T14:15:07Z</time>
      </trkpt>
      <trkpt lat="45.95742" lon="4.76072">
        <ele>185</ele>
        <time>2017-07-04T14:15:08Z</time>
      </trkpt>
      <trkpt lat="45.95745" lon="4.76078">
        <ele>185</ele>
        <time>2017-07-04T14:15:09Z</time>
      </trkpt>
      <trkpt lat="45.95747" lon="4.76085">
        <ele>185</ele>
        <time>2017-07-04T14:15:10Z</time>
      </trkpt>
      <trkpt lat="45.9575" lon="4.76091">
        <ele>185</ele>
        <time>2017-07-04T14:15:11Z</time>
      </trkpt>
      <trkpt lat="45.95752" lon="4.76098">
        <ele>186</ele>
        <time>2017-07-04T14:15:12Z</time>
      </trkpt>
      <trkpt lat="45.95754" lon="4.76106">
        <ele>186</ele>
        <time>2017-07-04T14:15:13Z</time>
      </trkpt>
      <trkpt lat="45.95756" lon="4.76113">
        <ele>186</ele>
        <time>2017-07-04T14:15:14Z</time>
      </trkpt>
      <trkpt lat="45.95758" lon="4.7612">
        <ele>186</ele>
        <time>2017-07-04T14:15:15Z</time>
      </trkpt>
      <trkpt lat="45.95759" lon="4.76128">
        <ele>186</ele>
        <time>2017-07-04T14:15:16Z</time>
      </trkpt>
      <trkpt lat="45.9576" lon="4.76136">
        <ele>186</ele>
        <time>2017-07-04T14:15:17Z</time>
      </trkpt>
      <trkpt lat="45.9576" lon="4.76144">
        <ele>186</ele>
        <time>2017-07-04T14:15:18Z</time>
      </trkpt>
      <trkpt lat="45.95761" lon="4.76151">
        <ele>186</ele>
        <time>2017-07-04T14:15:19Z</time>
      </trkpt>
      <trkpt lat="45.95762" lon="4.7616">
        <ele>186</ele>
        <time>2017-07-04T14:15:20Z</time>
      </trkpt>
      <trkpt lat="45.95763" lon="4.76168">
        <ele>185</ele>
        <time>2017-07-04T14:15:21Z</time>
      </trkpt>
      <trkpt lat="45.95763" lon="4.76177">
        <ele>185</ele>
        <time>2017-07-04T14:15:22Z</time>
      </trkpt>
      <trkpt lat="45.95764" lon="4.76186">
        <ele>186</ele>
        <time>2017-07-04T14:15:23Z</time>
      </trkpt>
      <trkpt lat="45.95765" lon="4.76194">
        <ele>186</ele>
        <time>2017-07-04T14:15:24Z</time>
      </trkpt>
      <trkpt lat="45.95766" lon="4.76202">
        <ele>186</ele>
        <time>2017-07-04T14:15:25Z</time>
      </trkpt>
      <trkpt lat="45.95766" lon="4.76211">
        <ele>186</ele>
        <time>2017-07-04T14:15:26Z</time>
      </trkpt>
      <trkpt lat="45.95767" lon="4.76218">
        <ele>186</ele>
        <time>2017-07-04T14:15:27Z</time>
      </trkpt>
      <trkpt lat="45.95767" lon="4.76226">
        <ele>186</ele>
        <time>2017-07-04T14:15:28Z</time>
      </trkpt>
      <trkpt lat="45.95768" lon="4.76234">
        <ele>186</ele>
        <time>2017-07-04T14:15:29Z</time>
      </trkpt>
      <trkpt lat="45.95768" lon="4.76242">
        <ele>186</ele>
        <time>2017-07-04T14:15:30Z</time>
      </trkpt>
      <trkpt lat="45.95769" lon="4.7625">
        <ele>186</ele>
        <time>2017-07-04T14:15:31Z</time>
      </trkpt>
      <trkpt lat="45.95769" lon="4.76258">
        <ele>185</ele>
        <time>2017-07-04T14:15:32Z</time>
      </trkpt>
      <trkpt lat="45.95769" lon="4.76265">
        <ele>186</ele>
        <time>2017-07-04T14:15:33Z</time>
      </trkpt>
      <trkpt lat="45.9577" lon="4.76273">
        <ele>186</ele>
        <time>2017-07-04T14:15:34Z</time>
      </trkpt>
      <trkpt lat="45.9577" lon="4.7628">
        <ele>186</ele>
        <time>2017-07-04T14:15:35Z</time>
      </trkpt>
      <trkpt lat="45.9577" lon="4.76287">
        <ele>186</ele>
        <time>2017-07-04T14:15:36Z</time>
      </trkpt>
      <trkpt lat="45.95771" lon="4.76294">
        <ele>186</ele>
        <time>2017-07-04T14:15:37Z</time>
      </trkpt>
      <trkpt lat="45.95771" lon="4.763">
        <ele>186</ele>
        <time>2017-07-04T14:15:38Z</time>
      </trkpt>
      <trkpt lat="45.95772" lon="4.76307">
        <ele>186</ele>
        <time>2017-07-04T14:15:39Z</time>
      </trkpt>
      <trkpt lat="45.95772" lon="4.76314">
        <ele>186</ele>
        <time>2017-07-04T14:15:40Z</time>
      </trkpt>
      <trkpt lat="45.95772" lon="4.76322">
        <ele>185</ele>
        <time>2017-07-04T14:15:41Z</time>
      </trkpt>
      <trkpt lat="45.95773" lon="4.7633">
        <ele>185</ele>
        <time>2017-07-04T14:15:42Z</time>
      </trkpt>
      <trkpt lat="45.95773" lon="4.76338">
        <ele>186</ele>
        <time>2017-07-04T14:15:43Z</time>
      </trkpt>
      <trkpt lat="45.95774" lon="4.76345">
        <ele>186</ele>
        <time>2017-07-04T14:15:44Z</time>
      </trkpt>
      <trkpt lat="45.95774" lon="4.76354">
        <ele>186</ele>
        <time>2017-07-04T14:15:45Z</time>
      </trkpt>
      <trkpt lat="45.95774" lon="4.76362">
        <ele>186</ele>
        <time>2017-07-04T14:15:46Z</time>
      </trkpt>
      <trkpt lat="45.95774" lon="4.76371">
        <ele>186</ele>
        <time>2017-07-04T14:15:47Z</time>
      </trkpt>
      <trkpt lat="45.95775" lon="4.76379">
        <ele>186</ele>
        <time>2017-07-04T14:15:48Z</time>
      </trkpt>
      <trkpt lat="45.95776" lon="4.76387">
        <ele>186</ele>
        <time>2017-07-04T14:15:49Z</time>
      </trkpt>
      <trkpt lat="45.95776" lon="4.76396">
        <ele>186</ele>
        <time>2017-07-04T14:15:50Z</time>
      </trkpt>
      <trkpt lat="45.95776" lon="4.76403">
        <ele>186</ele>
        <time>2017-07-04T14:15:51Z</time>
      </trkpt>
      <trkpt lat="45.95777" lon="4.7641">
        <ele>186</ele>
        <time>2017-07-04T14:15:52Z</time>
      </trkpt>
      <trkpt lat="45.95777" lon="4.76418">
        <ele>186</ele>
        <time>2017-07-04T14:15:53Z</time>
      </trkpt>
      <trkpt lat="45.95778" lon="4.76424">
        <ele>186</ele>
        <time>2017-07-04T14:15:54Z</time>
      </trkpt>
      <trkpt lat="45.95779" lon="4.76432">
        <ele>186</ele>
        <time>2017-07-04T14:15:55Z</time>
      </trkpt>
      <trkpt lat="45.9578" lon="4.76439">
        <ele>186</ele>
        <time>2017-07-04T14:15:56Z</time>
      </trkpt>
      <trkpt lat="45.95782" lon="4.76446">
        <ele>186</ele>
        <time>2017-07-04T14:15:57Z</time>
      </trkpt>
      <trkpt lat="45.95783" lon="4.76454">
        <ele>186</ele>
        <time>2017-07-04T14:15:58Z</time>
      </trkpt>
      <trkpt lat="45.95784" lon="4.76462">
        <ele>186</ele>
        <time>2017-07-04T14:15:59Z</time>
      </trkpt>
      <trkpt lat="45.95785" lon="4.76469">
        <ele>186</ele>
        <time>2017-07-04T14:16:00Z</time>
      </trkpt>
      <trkpt lat="45.95785" lon="4.76476">
        <ele>186</ele>
        <time>2017-07-04T14:16:01Z</time>
      </trkpt>
      <trkpt lat="45.95786" lon="4.76484">
        <ele>186</ele>
        <time>2017-07-04T14:16:02Z</time>
      </trkpt>
      <trkpt lat="45.95787" lon="4.76491">
        <ele>186</ele>
        <time>2017-07-04T14:16:03Z</time>
      </trkpt>
      <trkpt lat="45.95788" lon="4.76499">
        <ele>186</ele>
        <time>2017-07-04T14:16:04Z</time>
      </trkpt>
      <trkpt lat="45.95789" lon="4.76507">
        <ele>187</ele>
        <time>2017-07-04T14:16:05Z</time>
      </trkpt>
      <trkpt lat="45.95791" lon="4.76514">
        <ele>187</ele>
        <time>2017-07-04T14:16:06Z</time>
      </trkpt>
      <trkpt lat="45.95792" lon="4.76522">
        <ele>187</ele>
        <time>2017-07-04T14:16:07Z</time>
      </trkpt>
      <trkpt lat="45.95794" lon="4.7653">
        <ele>187</ele>
        <time>2017-07-04T14:16:08Z</time>
      </trkpt>
      <trkpt lat="45.95795" lon="4.76538">
        <ele>187</ele>
        <time>2017-07-04T14:16:09Z</time>
      </trkpt>
      <trkpt lat="45.95796" lon="4.76545">
        <ele>187</ele>
        <time>2017-07-04T14:16:10Z</time>
      </trkpt>
      <trkpt lat="45.95797" lon="4.76552">
        <ele>187</ele>
        <time>2017-07-04T14:16:11Z</time>
      </trkpt>
      <trkpt lat="45.95798" lon="4.76559">
        <ele>187</ele>
        <time>2017-07-04T14:16:12Z</time>
      </trkpt>
      <trkpt lat="45.95799" lon="4.76565">
        <ele>187</ele>
        <time>2017-07-04T14:16:13Z</time>
      </trkpt>
      <trkpt lat="45.958" lon="4.76572">
        <ele>187</ele>
        <time>2017-07-04T14:16:14Z</time>
      </trkpt>
      <trkpt lat="45.95801" lon="4.76578">
        <ele>187</ele>
        <time>2017-07-04T14:16:15Z</time>
      </trkpt>
      <trkpt lat="45.95803" lon="4.7659">
        <ele>187</ele>
        <time>2017-07-04T14:16:17Z</time>
      </trkpt>
      <trkpt lat="45.95804" lon="4.76595">
        <ele>188</ele>
        <time>2017-07-04T14:16:18Z</time>
      </trkpt>
      <trkpt lat="45.95806" lon="4.76606">
        <ele>188</ele>
        <time>2017-07-04T14:16:20Z</time>
      </trkpt>
      <trkpt lat="45.95807" lon="4.76611">
        <ele>188</ele>
        <time>2017-07-04T14:16:21Z</time>
      </trkpt>
      <trkpt lat="45.95809" lon="4.76624">
        <ele>188</ele>
        <time>2017-07-04T14:16:23Z</time>
      </trkpt>
      <trkpt lat="45.95809" lon="4.7663">
        <ele>188</ele>
        <time>2017-07-04T14:16:24Z</time>
      </trkpt>
      <trkpt lat="45.9581" lon="4.76637">
        <ele>188</ele>
        <time>2017-07-04T14:16:25Z</time>
      </trkpt>
      <trkpt lat="45.95811" lon="4.76644">
        <ele>188</ele>
        <time>2017-07-04T14:16:26Z</time>
      </trkpt>
      <trkpt lat="45.95812" lon="4.76651">
        <ele>188</ele>
        <time>2017-07-04T14:16:27Z</time>
      </trkpt>
      <trkpt lat="45.95813" lon="4.76658">
        <ele>188</ele>
        <time>2017-07-04T14:16:28Z</time>
      </trkpt>
      <trkpt lat="45.95814" lon="4.76665">
        <ele>188</ele>
        <time>2017-07-04T14:16:29Z</time>
      </trkpt>
      <trkpt lat="45.95815" lon="4.76673">
        <ele>189</ele>
        <time>2017-07-04T14:16:30Z</time>
      </trkpt>
      <trkpt lat="45.95816" lon="4.76682">
        <ele>189</ele>
        <time>2017-07-04T14:16:31Z</time>
      </trkpt>
      <trkpt lat="45.95817" lon="4.7669">
        <ele>189</ele>
        <time>2017-07-04T14:16:32Z</time>
      </trkpt>
      <trkpt lat="45.95818" lon="4.76697">
        <ele>189</ele>
        <time>2017-07-04T14:16:33Z</time>
      </trkpt>
      <trkpt lat="45.9582" lon="4.76705">
        <ele>189</ele>
        <time>2017-07-04T14:16:34Z</time>
      </trkpt>
      <trkpt lat="45.95821" lon="4.76712">
        <ele>189</ele>
        <time>2017-07-04T14:16:35Z</time>
      </trkpt>
      <trkpt lat="45.95822" lon="4.76719">
        <ele>189</ele>
        <time>2017-07-04T14:16:36Z</time>
      </trkpt>
      <trkpt lat="45.95823" lon="4.76726">
        <ele>190</ele>
        <time>2017-07-04T14:16:37Z</time>
      </trkpt>
      <trkpt lat="45.95823" lon="4.76733">
        <ele>190</ele>
        <time>2017-07-04T14:16:38Z</time>
      </trkpt>
      <trkpt lat="45.95824" lon="4.76739">
        <ele>190</ele>
        <time>2017-07-04T14:16:39Z</time>
      </trkpt>
      <trkpt lat="45.95825" lon="4.76746">
        <ele>190</ele>
        <time>2017-07-04T14:16:40Z</time>
      </trkpt>
      <trkpt lat="45.95826" lon="4.76758">
        <ele>191</ele>
        <time>2017-07-04T14:16:42Z</time>
      </trkpt>
      <trkpt lat="45.95827" lon="4.76765">
        <ele>190</ele>
        <time>2017-07-04T14:16:43Z</time>
      </trkpt>
      <trkpt lat="45.95829" lon="4.76771">
        <ele>190</ele>
        <time>2017-07-04T14:16:44Z</time>
      </trkpt>
      <trkpt lat="45.95829" lon="4.76778">
        <ele>190</ele>
        <time>2017-07-04T14:16:45Z</time>
      </trkpt>
      <trkpt lat="45.9583" lon="4.76784">
        <ele>190</ele>
        <time>2017-07-04T14:16:46Z</time>
      </trkpt>
      <trkpt lat="45.9583" lon="4.76791">
        <ele>190</ele>
        <time>2017-07-04T14:16:47Z</time>
      </trkpt>
      <trkpt lat="45.9583" lon="4.76799">
        <ele>190</ele>
        <time>2017-07-04T14:16:48Z</time>
      </trkpt>
      <trkpt lat="45.95831" lon="4.76807">
        <ele>190</ele>
        <time>2017-07-04T14:16:49Z</time>
      </trkpt>
      <trkpt lat="45.9583" lon="4.76814">
        <ele>190</ele>
        <time>2017-07-04T14:16:50Z</time>
      </trkpt>
      <trkpt lat="45.9583" lon="4.76821">
        <ele>190</ele>
        <time>2017-07-04T14:16:51Z</time>
      </trkpt>
      <trkpt lat="45.95829" lon="4.76828">
        <ele>190</ele>
        <time>2017-07-04T14:16:52Z</time>
      </trkpt>
      <trkpt lat="45.95828" lon="4.76835">
        <ele>190</ele>
        <time>2017-07-04T14:16:53Z</time>
      </trkpt>
      <trkpt lat="45.95827" lon="4.76841">
        <ele>190</ele>
        <time>2017-07-04T14:16:54Z</time>
      </trkpt>
      <trkpt lat="45.95825" lon="4.76848">
        <ele>190</ele>
        <time>2017-07-04T14:16:55Z</time>
      </trkpt>
      <trkpt lat="45.95824" lon="4.76854">
        <ele>189</ele>
        <time>2017-07-04T14:16:56Z</time>
      </trkpt>
      <trkpt lat="45.95822" lon="4.76861">
        <ele>189</ele>
        <time>2017-07-04T14:16:57Z</time>
      </trkpt>
      <trkpt lat="45.95821" lon="4.76868">
        <ele>189</ele>
        <time>2017-07-04T14:16:58Z</time>
      </trkpt>
      <trkpt lat="45.95819" lon="4.76875">
        <ele>189</ele>
        <time>2017-07-04T14:16:59Z</time>
      </trkpt>
      <trkpt lat="45.95818" lon="4.76883">
        <ele>189</ele>
        <time>2017-07-04T14:17:00Z</time>
      </trkpt>
      <trkpt lat="45.95816" lon="4.76891">
        <ele>189</ele>
        <time>2017-07-04T14:17:01Z</time>
      </trkpt>
      <trkpt lat="45.95815" lon="4.76899">
        <ele>189</ele>
        <time>2017-07-04T14:17:02Z</time>
      </trkpt>
      <trkpt lat="45.95814" lon="4.76906">
        <ele>189</ele>
        <time>2017-07-04T14:17:03Z</time>
      </trkpt>
      <trkpt lat="45.95812" lon="4.76913">
        <ele>189</ele>
        <time>2017-07-04T14:17:04Z</time>
      </trkpt>
      <trkpt lat="45.9581" lon="4.7692">
        <ele>189</ele>
        <time>2017-07-04T14:17:05Z</time>
      </trkpt>
      <trkpt lat="45.95809" lon="4.76928">
        <ele>189</ele>
        <time>2017-07-04T14:17:06Z</time>
      </trkpt>
      <trkpt lat="45.95808" lon="4.76935">
        <ele>189</ele>
        <time>2017-07-04T14:17:07Z</time>
      </trkpt>
      <trkpt lat="45.95807" lon="4.76942">
        <ele>189</ele>
        <time>2017-07-04T14:17:08Z</time>
      </trkpt>
      <trkpt lat="45.95806" lon="4.76949">
        <ele>189</ele>
        <time>2017-07-04T14:17:09Z</time>
      </trkpt>
      <trkpt lat="45.95805" lon="4.76956">
        <ele>189</ele>
        <time>2017-07-04T14:17:10Z</time>
      </trkpt>
      <trkpt lat="45.95804" lon="4.76963">
        <ele>189</ele>
        <time>2017-07-04T14:17:11Z</time>
      </trkpt>
      <trkpt lat="45.95803" lon="4.7697">
        <ele>189</ele>
        <time>2017-07-04T14:17:12Z</time>
      </trkpt>
      <trkpt lat="45.95802" lon="4.76977">
        <ele>189</ele>
        <time>2017-07-04T14:17:13Z</time>
      </trkpt>
      <trkpt lat="45.95801" lon="4.76984">
        <ele>189</ele>
        <time>2017-07-04T14:17:14Z</time>
      </trkpt>
      <trkpt lat="45.958" lon="4.76992">
        <ele>189</ele>
        <time>2017-07-04T14:17:15Z</time>
      </trkpt>
      <trkpt lat="45.95801" lon="4.76998">
        <ele>189</ele>
        <time>2017-07-04T14:17:16Z</time>
      </trkpt>
      <trkpt lat="45.95802" lon="4.77005">
        <ele>190</ele>
        <time>2017-07-04T14:17:17Z</time>
      </trkpt>
      <trkpt lat="45.95803" lon="4.77012">
        <ele>190</ele>
        <time>2017-07-04T14:17:18Z</time>
      </trkpt>
      <trkpt lat="45.95804" lon="4.77018">
        <ele>190</ele>
        <time>2017-07-04T14:17:19Z</time>
      </trkpt>
      <trkpt lat="45.95806" lon="4.77025">
        <ele>190</ele>
        <time>2017-07-04T14:17:20Z</time>
      </trkpt>
      <trkpt lat="45.95808" lon="4.77031">
        <ele>190</ele>
        <time>2017-07-04T14:17:21Z</time>
      </trkpt>
      <trkpt lat="45.95811" lon="4.77037">
        <ele>190</ele>
        <time>2017-07-04T14:17:22Z</time>
      </trkpt>
      <trkpt lat="45.95813" lon="4.77044">
        <ele>190</ele>
        <time>2017-07-04T14:17:23Z</time>
      </trkpt>
      <trkpt lat="45.95816" lon="4.7705">
        <ele>190</ele>
        <time>2017-07-04T14:17:24Z</time>
      </trkpt>
      <trkpt lat="45.95819" lon="4.77056">
        <ele>190</ele>
        <time>2017-07-04T14:17:25Z</time>
      </trkpt>
      <trkpt lat="45.95822" lon="4.77063">
        <ele>190</ele>
        <time>2017-07-04T14:17:26Z</time>
      </trkpt>
      <trkpt lat="45.95824" lon="4.77069">
        <ele>191</ele>
        <time>2017-07-04T14:17:27Z</time>
      </trkpt>
      <trkpt lat="45.95827" lon="4.77076">
        <ele>191</ele>
        <time>2017-07-04T14:17:28Z</time>
      </trkpt>
      <trkpt lat="45.95829" lon="4.77082">
        <ele>192</ele>
        <time>2017-07-04T14:17:29Z</time>
      </trkpt>
      <trkpt lat="45.95831" lon="4.77089">
        <ele>191</ele>
        <time>2017-07-04T14:17:30Z</time>
      </trkpt>
      <trkpt lat="45.95834" lon="4.77096">
        <ele>193</ele>
        <time>2017-07-04T14:17:31Z</time>
      </trkpt>
      <trkpt lat="45.95836" lon="4.77103">
        <ele>193</ele>
        <time>2017-07-04T14:17:32Z</time>
      </trkpt>
      <trkpt lat="45.95837" lon="4.77111">
        <ele>193</ele>
        <time>2017-07-04T14:17:33Z</time>
      </trkpt>
      <trkpt lat="45.95839" lon="4.77118">
        <ele>193</ele>
        <time>2017-07-04T14:17:34Z</time>
      </trkpt>
      <trkpt lat="45.95841" lon="4.77124">
        <ele>193</ele>
        <time>2017-07-04T14:17:35Z</time>
      </trkpt>
      <trkpt lat="45.95843" lon="4.7713">
        <ele>193</ele>
        <time>2017-07-04T14:17:36Z</time>
      </trkpt>
      <trkpt lat="45.95845" lon="4.77137">
        <ele>193</ele>
        <time>2017-07-04T14:17:37Z</time>
      </trkpt>
      <trkpt lat="45.95847" lon="4.77143">
        <ele>192</ele>
        <time>2017-07-04T14:17:38Z</time>
      </trkpt>
      <trkpt lat="45.95849" lon="4.7715">
        <ele>192</ele>
        <time>2017-07-04T14:17:39Z</time>
      </trkpt>
      <trkpt lat="45.95851" lon="4.77157">
        <ele>192</ele>
        <time>2017-07-04T14:17:40Z</time>
      </trkpt>
      <trkpt lat="45.95853" lon="4.77164">
        <ele>192</ele>
        <time>2017-07-04T14:17:41Z</time>
      </trkpt>
      <trkpt lat="45.95855" lon="4.7717">
        <ele>192</ele>
        <time>2017-07-04T14:17:42Z</time>
      </trkpt>
      <trkpt lat="45.95858" lon="4.77176">
        <ele>192</ele>
        <time>2017-07-04T14:17:43Z</time>
      </trkpt>
      <trkpt lat="45.95859" lon="4.77183">
        <ele>192</ele>
        <time>2017-07-04T14:17:44Z</time>
      </trkpt>
      <trkpt lat="45.95861" lon="4.77189">
        <ele>192</ele>
        <time>2017-07-04T14:17:45Z</time>
      </trkpt>
      <trkpt lat="45.95863" lon="4.77196">
        <ele>192</ele>
        <time>2017-07-04T14:17:46Z</time>
      </trkpt>
      <trkpt lat="45.95865" lon="4.77203">
        <ele>193</ele>
        <time>2017-07-04T14:17:47Z</time>
      </trkpt>
      <trkpt lat="45.95866" lon="4.7721">
        <ele>193</ele>
        <time>2017-07-04T14:17:48Z</time>
      </trkpt>
      <trkpt lat="45.95868" lon="4.77216">
        <ele>193</ele>
        <time>2017-07-04T14:17:49Z</time>
      </trkpt>
      <trkpt lat="45.9587" lon="4.77223">
        <ele>193</ele>
        <time>2017-07-04T14:17:50Z</time>
      </trkpt>
      <trkpt lat="45.95871" lon="4.77229">
        <ele>193</ele>
        <time>2017-07-04T14:17:51Z</time>
      </trkpt>
      <trkpt lat="45.95873" lon="4.77235">
        <ele>193</ele>
        <time>2017-07-04T14:17:52Z</time>
      </trkpt>
      <trkpt lat="45.95874" lon="4.77242">
        <ele>193</ele>
        <time>2017-07-04T14:17:53Z</time>
      </trkpt>
      <trkpt lat="45.95877" lon="4.77253">
        <ele>193</ele>
        <time>2017-07-04T14:17:55Z</time>
      </trkpt>
      <trkpt lat="45.95879" lon="4.7726">
        <ele>193</ele>
        <time>2017-07-04T14:17:56Z</time>
      </trkpt>
      <trkpt lat="45.95881" lon="4.77267">
        <ele>193</ele>
        <time>2017-07-04T14:17:57Z</time>
      </trkpt>
      <trkpt lat="45.95883" lon="4.77274">
        <ele>193</ele>
        <time>2017-07-04T14:17:58Z</time>
      </trkpt>
      <trkpt lat="45.95885" lon="4.77281">
        <ele>193</ele>
        <time>2017-07-04T14:17:59Z</time>
      </trkpt>
      <trkpt lat="45.95887" lon="4.77288">
        <ele>193</ele>
        <time>2017-07-04T14:18:00Z</time>
      </trkpt>
      <trkpt lat="45.95888" lon="4.77295">
        <ele>193</ele>
        <time>2017-07-04T14:18:01Z</time>
      </trkpt>
      <trkpt lat="45.9589" lon="4.77302">
        <ele>193</ele>
        <time>2017-07-04T14:18:02Z</time>
      </trkpt>
      <trkpt lat="45.95891" lon="4.77309">
        <ele>193</ele>
        <time>2017-07-04T14:18:03Z</time>
      </trkpt>
      <trkpt lat="45.95892" lon="4.77315">
        <ele>193</ele>
        <time>2017-07-04T14:18:04Z</time>
      </trkpt>
      <trkpt lat="45.95895" lon="4.77325">
        <ele>193</ele>
        <time>2017-07-04T14:18:06Z</time>
      </trkpt>
      <trkpt lat="45.95896" lon="4.77331">
        <ele>193</ele>
        <time>2017-07-04T14:18:07Z</time>
      </trkpt>
      <trkpt lat="45.95898" lon="4.77339">
        <ele>193</ele>
        <time>2017-07-04T14:18:08Z</time>
      </trkpt>
      <trkpt lat="45.959" lon="4.77345">
        <ele>193</ele>
        <time>2017-07-04T14:18:09Z</time>
      </trkpt>
      <trkpt lat="45.95903" lon="4.77351">
        <ele>193</ele>
        <time>2017-07-04T14:18:10Z</time>
      </trkpt>
      <trkpt lat="45.95905" lon="4.77358">
        <ele>193</ele>
        <time>2017-07-04T14:18:11Z</time>
      </trkpt>
      <trkpt lat="45.95907" lon="4.77364">
        <ele>193</ele>
        <time>2017-07-04T14:18:12Z</time>
      </trkpt>
      <trkpt lat="45.95909" lon="4.77371">
        <ele>193</ele>
        <time>2017-07-04T14:18:13Z</time>
      </trkpt>
      <trkpt lat="45.95911" lon="4.77377">
        <ele>193</ele>
        <time>2017-07-04T14:18:14Z</time>
      </trkpt>
      <trkpt lat="45.95913" lon="4.77383">
        <ele>193</ele>
        <time>2017-07-04T14:18:15Z</time>
      </trkpt>
      <trkpt lat="45.95917" lon="4.77393">
        <ele>196</ele>
        <time>2017-07-04T14:18:17Z</time>
      </trkpt>
      <trkpt lat="45.95919" lon="4.77398">
        <ele>196</ele>
        <time>2017-07-04T14:18:18Z</time>
      </trkpt>
      <trkpt lat="45.95922" lon="4.77407">
        <ele>195</ele>
        <time>2017-07-04T14:18:20Z</time>
      </trkpt>
      <trkpt lat="45.95924" lon="4.77413">
        <ele>195</ele>
        <time>2017-07-04T14:18:21Z</time>
      </trkpt>
      <trkpt lat="45.95926" lon="4.77419">
        <ele>195</ele>
        <time>2017-07-04T14:18:22Z</time>
      </trkpt>
      <trkpt lat="45.95928" lon="4.77424">
        <ele>195</ele>
        <time>2017-07-04T14:18:23Z</time>
      </trkpt>
      <trkpt lat="45.9593" lon="4.7743">
        <ele>195</ele>
        <time>2017-07-04T14:18:24Z</time>
      </trkpt>
      <trkpt lat="45.95932" lon="4.77436">
        <ele>195</ele>
        <time>2017-07-04T14:18:25Z</time>
      </trkpt>
      <trkpt lat="45.95936" lon="4.77447">
        <ele>195</ele>
        <time>2017-07-04T14:18:27Z</time>
      </trkpt>
      <trkpt lat="45.95938" lon="4.77452">
        <ele>195</ele>
        <time>2017-07-04T14:18:28Z</time>
      </trkpt>
      <trkpt lat="45.95941" lon="4.77463">
        <ele>195</ele>
        <time>2017-07-04T14:18:30Z</time>
      </trkpt>
      <trkpt lat="45.95943" lon="4.77468">
        <ele>195</ele>
        <time>2017-07-04T14:18:31Z</time>
      </trkpt>
      <trkpt lat="45.95945" lon="4.77474">
        <ele>195</ele>
        <time>2017-07-04T14:18:32Z</time>
      </trkpt>
      <trkpt lat="45.95948" lon="4.7748">
        <ele>195</ele>
        <time>2017-07-04T14:18:33Z</time>
      </trkpt>
      <trkpt lat="45.9595" lon="4.77488">
        <ele>195</ele>
        <time>2017-07-04T14:18:34Z</time>
      </trkpt>
      <trkpt lat="45.95953" lon="4.77495">
        <ele>196</ele>
        <time>2017-07-04T14:18:35Z</time>
      </trkpt>
      <trkpt lat="45.95955" lon="4.77502">
        <ele>195</ele>
        <time>2017-07-04T14:18:36Z</time>
      </trkpt>
      <trkpt lat="45.95958" lon="4.77508">
        <ele>195</ele>
        <time>2017-07-04T14:18:37Z</time>
      </trkpt>
      <trkpt lat="45.9596" lon="4.77514">
        <ele>195</ele>
        <time>2017-07-04T14:18:38Z</time>
      </trkpt>
      <trkpt lat="45.95962" lon="4.77519">
        <ele>195</ele>
        <time>2017-07-04T14:18:39Z</time>
      </trkpt>
      <trkpt lat="45.95967" lon="4.7753">
        <ele>195</ele>
        <time>2017-07-04T14:18:41Z</time>
      </trkpt>
      <trkpt lat="45.95969" lon="4.77535">
        <ele>195</ele>
        <time>2017-07-04T14:18:42Z</time>
      </trkpt>
      <trkpt lat="45.95974" lon="4.77545">
        <ele>195</ele>
        <time>2017-07-04T14:18:44Z</time>
      </trkpt>
      <trkpt lat="45.95976" lon="4.77549">
        <ele>195</ele>
        <time>2017-07-04T14:18:45Z</time>
      </trkpt>
      <trkpt lat="45.95981" lon="4.77559">
        <ele>196</ele>
        <time>2017-07-04T14:18:47Z</time>
      </trkpt>
      <trkpt lat="45.95983" lon="4.77565">
        <ele>196</ele>
        <time>2017-07-04T14:18:48Z</time>
      </trkpt>
      <trkpt lat="45.95985" lon="4.77572">
        <ele>196</ele>
        <time>2017-07-04T14:18:49Z</time>
      </trkpt>
      <trkpt lat="45.95988" lon="4.77579">
        <ele>196</ele>
        <time>2017-07-04T14:18:50Z</time>
      </trkpt>
      <trkpt lat="45.95991" lon="4.77585">
        <ele>196</ele>
        <time>2017-07-04T14:18:51Z</time>
      </trkpt>
      <trkpt lat="45.95995" lon="4.77591">
        <ele>196</ele>
        <time>2017-07-04T14:18:52Z</time>
      </trkpt>
      <trkpt lat="45.95999" lon="4.77597">
        <ele>196</ele>
        <time>2017-07-04T14:18:53Z</time>
      </trkpt>
      <trkpt lat="45.96002" lon="4.77603">
        <ele>198</ele>
        <time>2017-07-04T14:18:54Z</time>
      </trkpt>
      <trkpt lat="45.96006" lon="4.77608">
        <ele>198</ele>
        <time>2017-07-04T14:18:55Z</time>
      </trkpt>
      <trkpt lat="45.9601" lon="4.77613">
        <ele>199</ele>
        <time>2017-07-04T14:18:56Z</time>
      </trkpt>
      <trkpt lat="45.96013" lon="4.77617">
        <ele>199</ele>
        <time>2017-07-04T14:18:57Z</time>
      </trkpt>
      <trkpt lat="45.96017" lon="4.77622">
        <ele>199</ele>
        <time>2017-07-04T14:18:58Z</time>
      </trkpt>
      <trkpt lat="45.96021" lon="4.77626">
        <ele>199</ele>
        <time>2017-07-04T14:18:59Z</time>
      </trkpt>
      <trkpt lat="45.96024" lon="4.77629">
        <ele>199</ele>
        <time>2017-07-04T14:19:00Z</time>
      </trkpt>
      <trkpt lat="45.96032" lon="4.77636">
        <ele>199</ele>
        <time>2017-07-04T14:19:02Z</time>
      </trkpt>
      <trkpt lat="45.96035" lon="4.7764">
        <ele>199</ele>
        <time>2017-07-04T14:19:03Z</time>
      </trkpt>
      <trkpt lat="45.96039" lon="4.77645">
        <ele>199</ele>
        <time>2017-07-04T14:19:04Z</time>
      </trkpt>
      <trkpt lat="45.96042" lon="4.7765">
        <ele>199</ele>
        <time>2017-07-04T14:19:05Z</time>
      </trkpt>
      <trkpt lat="45.96045" lon="4.77655">
        <ele>199</ele>
        <time>2017-07-04T14:19:06Z</time>
      </trkpt>
      <trkpt lat="45.96049" lon="4.7766">
        <ele>200</ele>
        <time>2017-07-04T14:19:07Z</time>
      </trkpt>
      <trkpt lat="45.96055" lon="4.77668">
        <ele>197</ele>
        <time>2017-07-04T14:19:09Z</time>
      </trkpt>
      <trkpt lat="45.96058" lon="4.77672">
        <ele>198</ele>
        <time>2017-07-04T14:19:10Z</time>
      </trkpt>
      <trkpt lat="45.96062" lon="4.77677">
        <ele>198</ele>
        <time>2017-07-04T14:19:11Z</time>
      </trkpt>
      <trkpt lat="45.96065" lon="4.77681">
        <ele>198</ele>
        <time>2017-07-04T14:19:12Z</time>
      </trkpt>
      <trkpt lat="45.96069" lon="4.77686">
        <ele>198</ele>
        <time>2017-07-04T14:19:13Z</time>
      </trkpt>
      <trkpt lat="45.96072" lon="4.77691">
        <ele>197</ele>
        <time>2017-07-04T14:19:14Z</time>
      </trkpt>
      <trkpt lat="45.96075" lon="4.77696">
        <ele>197</ele>
        <time>2017-07-04T14:19:15Z</time>
      </trkpt>
      <trkpt lat="45.96078" lon="4.77702">
        <ele>197</ele>
        <time>2017-07-04T14:19:16Z</time>
      </trkpt>
      <trkpt lat="45.96081" lon="4.77707">
        <ele>197</ele>
        <time>2017-07-04T14:19:17Z</time>
      </trkpt>
      <trkpt lat="45.96084" lon="4.77712">
        <ele>200</ele>
        <time>2017-07-04T14:19:18Z</time>
      </trkpt>
      <trkpt lat="45.96087" lon="4.77717">
        <ele>199</ele>
        <time>2017-07-04T14:19:19Z</time>
      </trkpt>
      <trkpt lat="45.9609" lon="4.77722">
        <ele>199</ele>
        <time>2017-07-04T14:19:20Z</time>
      </trkpt>
      <trkpt lat="45.96093" lon="4.77728">
        <ele>199</ele>
        <time>2017-07-04T14:19:21Z</time>
      </trkpt>
      <trkpt lat="45.96097" lon="4.77734">
        <ele>198</ele>
        <time>2017-07-04T14:19:22Z</time>
      </trkpt>
      <trkpt lat="45.961" lon="4.77739">
        <ele>198</ele>
        <time>2017-07-04T14:19:23Z</time>
      </trkpt>
      <trkpt lat="45.96104" lon="4.77744">
        <ele>198</ele>
        <time>2017-07-04T14:19:24Z</time>
      </trkpt>
      <trkpt lat="45.96107" lon="4.7775">
        <ele>199</ele>
        <time>2017-07-04T14:19:25Z</time>
      </trkpt>
      <trkpt lat="45.9611" lon="4.77756">
        <ele>197</ele>
        <time>2017-07-04T14:19:26Z</time>
      </trkpt>
      <trkpt lat="45.96113" lon="4.77762">
        <ele>197</ele>
        <time>2017-07-04T14:19:27Z</time>
      </trkpt>
      <trkpt lat="45.96117" lon="4.77767">
        <ele>197</ele>
        <time>2017-07-04T14:19:28Z</time>
      </trkpt>
      <trkpt lat="45.96122" lon="4.77776">
        <ele>197</ele>
        <time>2017-07-04T14:19:30Z</time>
      </trkpt>
      <trkpt lat="45.96124" lon="4.7778">
        <ele>197</ele>
        <time>2017-07-04T14:19:31Z</time>
      </trkpt>
      <trkpt lat="45.9613" lon="4.77789">
        <ele>197</ele>
        <time>2017-07-04T14:19:33Z</time>
      </trkpt>
      <trkpt lat="45.96133" lon="4.77793">
        <ele>198</ele>
        <time>2017-07-04T14:19:34Z</time>
      </trkpt>
      <trkpt lat="45.96138" lon="4.77803">
        <ele>198</ele>
        <time>2017-07-04T14:19:36Z</time>
      </trkpt>
      <trkpt lat="45.96141" lon="4.77809">
        <ele>198</ele>
        <time>2017-07-04T14:19:37Z</time>
      </trkpt>
      <trkpt lat="45.96146" lon="4.77818">
        <ele>198</ele>
        <time>2017-07-04T14:19:39Z</time>
      </trkpt>
      <trkpt lat="45.96149" lon="4.77822">
        <ele>198</ele>
        <time>2017-07-04T14:19:40Z</time>
      </trkpt>
      <trkpt lat="45.96154" lon="4.77831">
        <ele>198</ele>
        <time>2017-07-04T14:19:42Z</time>
      </trkpt>
      <trkpt lat="45.96157" lon="4.77835">
        <ele>197</ele>
        <time>2017-07-04T14:19:43Z</time>
      </trkpt>
      <trkpt lat="45.9616" lon="4.7784">
        <ele>197</ele>
        <time>2017-07-04T14:19:44Z</time>
      </trkpt>
      <trkpt lat="45.96163" lon="4.77845">
        <ele>197</ele>
        <time>2017-07-04T14:19:45Z</time>
      </trkpt>
      <trkpt lat="45.96166" lon="4.77851">
        <ele>197</ele>
        <time>2017-07-04T14:19:46Z</time>
      </trkpt>
      <trkpt lat="45.96169" lon="4.77856">
        <ele>201</ele>
        <time>2017-07-04T14:19:47Z</time>
      </trkpt>
      <trkpt lat="45.96172" lon="4.77861">
        <ele>201</ele>
        <time>2017-07-04T14:19:48Z</time>
      </trkpt>
      <trkpt lat="45.96175" lon="4.77866">
        <ele>201</ele>
        <time>2017-07-04T14:19:49Z</time>
      </trkpt>
      <trkpt lat="45.96181" lon="4.77875">
        <ele>201</ele>
        <time>2017-07-04T14:19:51Z</time>
      </trkpt>
      <trkpt lat="45.96184" lon="4.7788">
        <ele>201</ele>
        <time>2017-07-04T14:19:52Z</time>
      </trkpt>
      <trkpt lat="45.96187" lon="4.77885">
        <ele>201</ele>
        <time>2017-07-04T14:19:53Z</time>
      </trkpt>
      <trkpt lat="45.96189" lon="4.7789">
        <ele>201</ele>
        <time>2017-07-04T14:19:54Z</time>
      </trkpt>
      <trkpt lat="45.96193" lon="4.77895">
        <ele>201</ele>
        <time>2017-07-04T14:19:55Z</time>
      </trkpt>
      <trkpt lat="45.96196" lon="4.77901">
        <ele>201</ele>
        <time>2017-07-04T14:19:56Z</time>
      </trkpt>
      <trkpt lat="45.96199" lon="4.77906">
        <ele>201</ele>
        <time>2017-07-04T14:19:57Z</time>
      </trkpt>
      <trkpt lat="45.96203" lon="4.77911">
        <ele>202</ele>
        <time>2017-07-04T14:19:58Z</time>
      </trkpt>
      <trkpt lat="45.96207" lon="4.77916">
        <ele>202</ele>
        <time>2017-07-04T14:19:59Z</time>
      </trkpt>
      <trkpt lat="45.9621" lon="4.77921">
        <ele>199</ele>
        <time>2017-07-04T14:20:00Z</time>
      </trkpt>
      <trkpt lat="45.96214" lon="4.77928">
        <ele>199</ele>
        <time>2017-07-04T14:20:01Z</time>
      </trkpt>
      <trkpt lat="45.96218" lon="4.77933">
        <ele>200</ele>
        <time>2017-07-04T14:20:02Z</time>
      </trkpt>
      <trkpt lat="45.96221" lon="4.77938">
        <ele>200</ele>
        <time>2017-07-04T14:20:03Z</time>
      </trkpt>
      <trkpt lat="45.96226" lon="4.77943">
        <ele>200</ele>
        <time>2017-07-04T14:20:04Z</time>
      </trkpt>
      <trkpt lat="45.96229" lon="4.77948">
        <ele>200</ele>
        <time>2017-07-04T14:20:05Z</time>
      </trkpt>
      <trkpt lat="45.96233" lon="4.77952">
        <ele>199</ele>
        <time>2017-07-04T14:20:06Z</time>
      </trkpt>
      <trkpt lat="45.96239" lon="4.77962">
        <ele>199</ele>
        <time>2017-07-04T14:20:08Z</time>
      </trkpt>
      <trkpt lat="45.96242" lon="4.77966">
        <ele>199</ele>
        <time>2017-07-04T14:20:09Z</time>
      </trkpt>
      <trkpt lat="45.96249" lon="4.77973">
        <ele>198</ele>
        <time>2017-07-04T14:20:11Z</time>
      </trkpt>
      <trkpt lat="45.96253" lon="4.77977">
        <ele>202</ele>
        <time>2017-07-04T14:20:12Z</time>
      </trkpt>
      <trkpt lat="45.96257" lon="4.7798">
        <ele>202</ele>
        <time>2017-07-04T14:20:13Z</time>
      </trkpt>
      <trkpt lat="45.96261" lon="4.77984">
        <ele>202</ele>
        <time>2017-07-04T14:20:14Z</time>
      </trkpt>
      <trkpt lat="45.96269" lon="4.7799">
        <ele>202</ele>
        <time>2017-07-04T14:20:16Z</time>
      </trkpt>
      <trkpt lat="45.96273" lon="4.77994">
        <ele>202</ele>
        <time>2017-07-04T14:20:17Z</time>
      </trkpt>
      <trkpt lat="45.96277" lon="4.77997">
        <ele>203</ele>
        <time>2017-07-04T14:20:18Z</time>
      </trkpt>
      <trkpt lat="45.96281" lon="4.78002">
        <ele>198</ele>
        <time>2017-07-04T14:20:19Z</time>
      </trkpt>
      <trkpt lat="45.96286" lon="4.78006">
        <ele>199</ele>
        <time>2017-07-04T14:20:20Z</time>
      </trkpt>
      <trkpt lat="45.9629" lon="4.78011">
        <ele>199</ele>
        <time>2017-07-04T14:20:21Z</time>
      </trkpt>
      <trkpt lat="45.96295" lon="4.78016">
        <ele>199</ele>
        <time>2017-07-04T14:20:22Z</time>
      </trkpt>
      <trkpt lat="45.963" lon="4.7802">
        <ele>199</ele>
        <time>2017-07-04T14:20:23Z</time>
      </trkpt>
      <trkpt lat="45.96305" lon="4.78024">
        <ele>199</ele>
        <time>2017-07-04T14:20:24Z</time>
      </trkpt>
      <trkpt lat="45.96311" lon="4.7803">
        <ele>200</ele>
        <time>2017-07-04T14:20:25Z</time>
      </trkpt>
      <trkpt lat="45.96315" lon="4.78035">
        <ele>199</ele>
        <time>2017-07-04T14:20:26Z</time>
      </trkpt>
      <trkpt lat="45.9632" lon="4.7804">
        <ele>199</ele>
        <time>2017-07-04T14:20:27Z</time>
      </trkpt>
      <trkpt lat="45.96324" lon="4.78046">
        <ele>199</ele>
        <time>2017-07-04T14:20:28Z</time>
      </trkpt>
      <trkpt lat="45.96328" lon="4.78052">
        <ele>199</ele>
        <time>2017-07-04T14:20:29Z</time>
      </trkpt>
      <trkpt lat="45.96332" lon="4.78058">
        <ele>199</ele>
        <time>2017-07-04T14:20:30Z</time>
      </trkpt>
      <trkpt lat="45.96335" lon="4.78064">
        <ele>201</ele>
        <time>2017-07-04T14:20:31Z</time>
      </trkpt>
      <trkpt lat="45.96339" lon="4.7807">
        <ele>201</ele>
        <time>2017-07-04T14:20:32Z</time>
      </trkpt>
      <trkpt lat="45.96343" lon="4.78075">
        <ele>200</ele>
        <time>2017-07-04T14:20:33Z</time>
      </trkpt>
      <trkpt lat="45.96348" lon="4.78081">
        <ele>201</ele>
        <time>2017-07-04T14:20:34Z</time>
      </trkpt>
      <trkpt lat="45.96352" lon="4.78087">
        <ele>199</ele>
        <time>2017-07-04T14:20:35Z</time>
      </trkpt>
      <trkpt lat="45.96357" lon="4.78092">
        <ele>199</ele>
        <time>2017-07-04T14:20:36Z</time>
      </trkpt>
      <trkpt lat="45.96362" lon="4.78097">
        <ele>199</ele>
        <time>2017-07-04T14:20:37Z</time>
      </trkpt>
      <trkpt lat="45.96367" lon="4.78101">
        <ele>199</ele>
        <time>2017-07-04T14:20:38Z</time>
      </trkpt>
      <trkpt lat="45.96372" lon="4.78106">
        <ele>199</ele>
        <time>2017-07-04T14:20:39Z</time>
      </trkpt>
      <trkpt lat="45.96377" lon="4.78111">
        <ele>199</ele>
        <time>2017-07-04T14:20:40Z</time>
      </trkpt>
      <trkpt lat="45.96381" lon="4.78115">
        <ele>199</ele>
        <time>2017-07-04T14:20:41Z</time>
      </trkpt>
      <trkpt lat="45.96385" lon="4.7812">
        <ele>199</ele>
        <time>2017-07-04T14:20:42Z</time>
      </trkpt>
      <trkpt lat="45.96389" lon="4.78123">
        <ele>199</ele>
        <time>2017-07-04T14:20:43Z</time>
      </trkpt>
      <trkpt lat="45.96394" lon="4.78126">
        <ele>199</ele>
        <time>2017-07-04T14:20:44Z</time>
      </trkpt>
      <trkpt lat="45.96398" lon="4.78129">
        <ele>199</ele>
        <time>2017-07-04T14:20:45Z</time>
      </trkpt>
      <trkpt lat="45.96402" lon="4.78133">
        <ele>199</ele>
        <time>2017-07-04T14:20:46Z</time>
      </trkpt>
      <trkpt lat="45.96407" lon="4.78135">
        <ele>199</ele>
        <time>2017-07-04T14:20:47Z</time>
      </trkpt>
      <trkpt lat="45.96411" lon="4.78138">
        <ele>199</ele>
        <time>2017-07-04T14:20:48Z</time>
      </trkpt>
      <trkpt lat="45.96416" lon="4.78142">
        <ele>199</ele>
        <time>2017-07-04T14:20:49Z</time>
      </trkpt>
      <trkpt lat="45.96421" lon="4.78146">
        <ele>202</ele>
        <time>2017-07-04T14:20:50Z</time>
      </trkpt>
      <trkpt lat="45.96426" lon="4.7815">
        <ele>202</ele>
        <time>2017-07-04T14:20:51Z</time>
      </trkpt>
      <trkpt lat="45.9643" lon="4.78155">
        <ele>202</ele>
        <time>2017-07-04T14:20:52Z</time>
      </trkpt>
      <trkpt lat="45.96435" lon="4.7816">
        <ele>202</ele>
        <time>2017-07-04T14:20:53Z</time>
      </trkpt>
      <trkpt lat="45.9644" lon="4.78164">
        <ele>202</ele>
        <time>2017-07-04T14:20:54Z</time>
      </trkpt>
      <trkpt lat="45.96445" lon="4.78168">
        <ele>199</ele>
        <time>2017-07-04T14:20:55Z</time>
      </trkpt>
      <trkpt lat="45.96449" lon="4.78173">
        <ele>199</ele>
        <time>2017-07-04T14:20:56Z</time>
      </trkpt>
      <trkpt lat="45.96454" lon="4.78176">
        <ele>200</ele>
        <time>2017-07-04T14:20:57Z</time>
      </trkpt>
      <trkpt lat="45.96458" lon="4.78181">
        <ele>200</ele>
        <time>2017-07-04T14:20:58Z</time>
      </trkpt>
      <trkpt lat="45.96463" lon="4.78185">
        <ele>200</ele>
        <time>2017-07-04T14:20:59Z</time>
      </trkpt>
      <trkpt lat="45.96467" lon="4.78188">
        <ele>200</ele>
        <time>2017-07-04T14:21:00Z</time>
      </trkpt>
      <trkpt lat="45.96471" lon="4.78193">
        <ele>200</ele>
        <time>2017-07-04T14:21:01Z</time>
      </trkpt>
      <trkpt lat="45.96475" lon="4.78196">
        <ele>200</ele>
        <time>2017-07-04T14:21:02Z</time>
      </trkpt>
      <trkpt lat="45.9648" lon="4.78199">
        <ele>200</ele>
        <time>2017-07-04T14:21:03Z</time>
      </trkpt>
      <trkpt lat="45.96485" lon="4.78201">
        <ele>200</ele>
        <time>2017-07-04T14:21:04Z</time>
      </trkpt>
      <trkpt lat="45.9649" lon="4.78204">
        <ele>200</ele>
        <time>2017-07-04T14:21:05Z</time>
      </trkpt>
      <trkpt lat="45.96496" lon="4.78208">
        <ele>200</ele>
        <time>2017-07-04T14:21:06Z</time>
      </trkpt>
      <trkpt lat="45.965" lon="4.78214">
        <ele>205</ele>
        <time>2017-07-04T14:21:07Z</time>
      </trkpt>
      <trkpt lat="45.96504" lon="4.78219">
        <ele>204</ele>
        <time>2017-07-04T14:21:08Z</time>
      </trkpt>
      <trkpt lat="45.96507" lon="4.78224">
        <ele>204</ele>
        <time>2017-07-04T14:21:09Z</time>
      </trkpt>
      <trkpt lat="45.96511" lon="4.7823">
        <ele>203</ele>
        <time>2017-07-04T14:21:10Z</time>
      </trkpt>
      <trkpt lat="45.96514" lon="4.78236">
        <ele>203</ele>
        <time>2017-07-04T14:21:11Z</time>
      </trkpt>
      <trkpt lat="45.96517" lon="4.78243">
        <ele>203</ele>
        <time>2017-07-04T14:21:12Z</time>
      </trkpt>
      <trkpt lat="45.9652" lon="4.78248">
        <ele>203</ele>
        <time>2017-07-04T14:21:13Z</time>
      </trkpt>
      <trkpt lat="45.96523" lon="4.78254">
        <ele>199</ele>
        <time>2017-07-04T14:21:14Z</time>
      </trkpt>
      <trkpt lat="45.96526" lon="4.7826">
        <ele>200</ele>
        <time>2017-07-04T14:21:15Z</time>
      </trkpt>
      <trkpt lat="45.9653" lon="4.78266">
        <ele>200</ele>
        <time>2017-07-04T14:21:16Z</time>
      </trkpt>
      <trkpt lat="45.96534" lon="4.78272">
        <ele>200</ele>
        <time>2017-07-04T14:21:17Z</time>
      </trkpt>
      <trkpt lat="45.96538" lon="4.78278">
        <ele>200</ele>
        <time>2017-07-04T14:21:18Z</time>
      </trkpt>
      <trkpt lat="45.96542" lon="4.78284">
        <ele>200</ele>
        <time>2017-07-04T14:21:19Z</time>
      </trkpt>
      <trkpt lat="45.96546" lon="4.7829">
        <ele>200</ele>
        <time>2017-07-04T14:21:20Z</time>
      </trkpt>
      <trkpt lat="45.9655" lon="4.78297">
        <ele>200</ele>
        <time>2017-07-04T14:21:21Z</time>
      </trkpt>
      <trkpt lat="45.96553" lon="4.78303">
        <ele>200</ele>
        <time>2017-07-04T14:21:22Z</time>
      </trkpt>
      <trkpt lat="45.96557" lon="4.78308">
        <ele>200</ele>
        <time>2017-07-04T14:21:23Z</time>
      </trkpt>
      <trkpt lat="45.96561" lon="4.78313">
        <ele>199</ele>
        <time>2017-07-04T14:21:24Z</time>
      </trkpt>
      <trkpt lat="45.96565" lon="4.78317">
        <ele>199</ele>
        <time>2017-07-04T14:21:25Z</time>
      </trkpt>
      <trkpt lat="45.96568" lon="4.78321">
        <ele>199</ele>
        <time>2017-07-04T14:21:26Z</time>
      </trkpt>
      <trkpt lat="45.96572" lon="4.78325">
        <ele>199</ele>
        <time>2017-07-04T14:21:27Z</time>
      </trkpt>
      <trkpt lat="45.96576" lon="4.78329">
        <ele>199</ele>
        <time>2017-07-04T14:21:28Z</time>
      </trkpt>
      <trkpt lat="45.9658" lon="4.78333">
        <ele>198</ele>
        <time>2017-07-04T14:21:29Z</time>
      </trkpt>
      <trkpt lat="45.96584" lon="4.78338">
        <ele>198</ele>
        <time>2017-07-04T14:21:30Z</time>
      </trkpt>
      <trkpt lat="45.96589" lon="4.78341">
        <ele>199</ele>
        <time>2017-07-04T14:21:31Z</time>
      </trkpt>
      <trkpt lat="45.96593" lon="4.78345">
        <ele>199</ele>
        <time>2017-07-04T14:21:32Z</time>
      </trkpt>
      <trkpt lat="45.96598" lon="4.78349">
        <ele>200</ele>
        <time>2017-07-04T14:21:33Z</time>
      </trkpt>
      <trkpt lat="45.96603" lon="4.78354">
        <ele>200</ele>
        <time>2017-07-04T14:21:34Z</time>
      </trkpt>
      <trkpt lat="45.96607" lon="4.78358">
        <ele>200</ele>
        <time>2017-07-04T14:21:35Z</time>
      </trkpt>
      <trkpt lat="45.96611" lon="4.78361">
        <ele>200</ele>
        <time>2017-07-04T14:21:36Z</time>
      </trkpt>
      <trkpt lat="45.96615" lon="4.78364">
        <ele>201</ele>
        <time>2017-07-04T14:21:37Z</time>
      </trkpt>
      <trkpt lat="45.96622" lon="4.7837">
        <ele>201</ele>
        <time>2017-07-04T14:21:39Z</time>
      </trkpt>
      <trkpt lat="45.96625" lon="4.78374">
        <ele>201</ele>
        <time>2017-07-04T14:21:40Z</time>
      </trkpt>
      <trkpt lat="45.96632" lon="4.78381">
        <ele>201</ele>
        <time>2017-07-04T14:21:42Z</time>
      </trkpt>
      <trkpt lat="45.96636" lon="4.78384">
        <ele>201</ele>
        <time>2017-07-04T14:21:43Z</time>
      </trkpt>
      <trkpt lat="45.9664" lon="4.78388">
        <ele>201</ele>
        <time>2017-07-04T14:21:44Z</time>
      </trkpt>
      <trkpt lat="45.96644" lon="4.78392">
        <ele>201</ele>
        <time>2017-07-04T14:21:45Z</time>
      </trkpt>
      <trkpt lat="45.96648" lon="4.78395">
        <ele>201</ele>
        <time>2017-07-04T14:21:46Z</time>
      </trkpt>
      <trkpt lat="45.96652" lon="4.78398">
        <ele>201</ele>
        <time>2017-07-04T14:21:47Z</time>
      </trkpt>
      <trkpt lat="45.9666" lon="4.78404">
        <ele>201</ele>
        <time>2017-07-04T14:21:49Z</time>
      </trkpt>
      <trkpt lat="45.96663" lon="4.78408">
        <ele>201</ele>
        <time>2017-07-04T14:21:50Z</time>
      </trkpt>
      <trkpt lat="45.9667" lon="4.78415">
        <ele>202</ele>
        <time>2017-07-04T14:21:52Z</time>
      </trkpt>
      <trkpt lat="45.96674" lon="4.78418">
        <ele>201</ele>
        <time>2017-07-04T14:21:53Z</time>
      </trkpt>
      <trkpt lat="45.96679" lon="4.7842">
        <ele>202</ele>
        <time>2017-07-04T14:21:54Z</time>
      </trkpt>
      <trkpt lat="45.96682" lon="4.78423">
        <ele>202</ele>
        <time>2017-07-04T14:21:55Z</time>
      </trkpt>
      <trkpt lat="45.9669" lon="4.78428">
        <ele>202</ele>
        <time>2017-07-04T14:21:57Z</time>
      </trkpt>
      <trkpt lat="45.96693" lon="4.7843">
        <ele>202</ele>
        <time>2017-07-04T14:21:58Z</time>
      </trkpt>
      <trkpt lat="45.96699" lon="4.78437">
        <ele>203</ele>
        <time>2017-07-04T14:22:00Z</time>
      </trkpt>
      <trkpt lat="45.96702" lon="4.78441">
        <ele>203</ele>
        <time>2017-07-04T14:22:01Z</time>
      </trkpt>
      <trkpt lat="45.96705" lon="4.78445">
        <ele>203</ele>
        <time>2017-07-04T14:22:02Z</time>
      </trkpt>
      <trkpt lat="45.96709" lon="4.78449">
        <ele>203</ele>
        <time>2017-07-04T14:22:03Z</time>
      </trkpt>
      <trkpt lat="45.96713" lon="4.78452">
        <ele>203</ele>
        <time>2017-07-04T14:22:04Z</time>
      </trkpt>
      <trkpt lat="45.96718" lon="4.78455">
        <ele>203</ele>
        <time>2017-07-04T14:22:05Z</time>
      </trkpt>
      <trkpt lat="45.96721" lon="4.78459">
        <ele>203</ele>
        <time>2017-07-04T14:22:06Z</time>
      </trkpt>
      <trkpt lat="45.96725" lon="4.78464">
        <ele>203</ele>
        <time>2017-07-04T14:22:07Z</time>
      </trkpt>
      <trkpt lat="45.9673" lon="4.78467">
        <ele>203</ele>
        <time>2017-07-04T14:22:08Z</time>
      </trkpt>
      <trkpt lat="45.96735" lon="4.78471">
        <ele>203</ele>
        <time>2017-07-04T14:22:09Z</time>
      </trkpt>
      <trkpt lat="45.9674" lon="4.78476">
        <ele>203</ele>
        <time>2017-07-04T14:22:10Z</time>
      </trkpt>
      <trkpt lat="45.96745" lon="4.78481">
        <ele>203</ele>
        <time>2017-07-04T14:22:11Z</time>
      </trkpt>
      <trkpt lat="45.96749" lon="4.78485">
        <ele>203</ele>
        <time>2017-07-04T14:22:12Z</time>
      </trkpt>
      <trkpt lat="45.96753" lon="4.78489">
        <ele>204</ele>
        <time>2017-07-04T14:22:13Z</time>
      </trkpt>
      <trkpt lat="45.96757" lon="4.78494">
        <ele>204</ele>
        <time>2017-07-04T14:22:14Z</time>
      </trkpt>
      <trkpt lat="45.96761" lon="4.78499">
        <ele>204</ele>
        <time>2017-07-04T14:22:15Z</time>
      </trkpt>
      <trkpt lat="45.96765" lon="4.78504">
        <ele>203</ele>
        <time>2017-07-04T14:22:16Z</time>
      </trkpt>
      <trkpt lat="45.96769" lon="4.78509">
        <ele>203</ele>
        <time>2017-07-04T14:22:17Z</time>
      </trkpt>
      <trkpt lat="45.96772" lon="4.78514">
        <ele>203</ele>
        <time>2017-07-04T14:22:18Z</time>
      </trkpt>
      <trkpt lat="45.96776" lon="4.7852">
        <ele>203</ele>
        <time>2017-07-04T14:22:19Z</time>
      </trkpt>
      <trkpt lat="45.9678" lon="4.78526">
        <ele>203</ele>
        <time>2017-07-04T14:22:20Z</time>
      </trkpt>
      <trkpt lat="45.96784" lon="4.78531">
        <ele>203</ele>
        <time>2017-07-04T14:22:21Z</time>
      </trkpt>
      <trkpt lat="45.96788" lon="4.78537">
        <ele>203</ele>
        <time>2017-07-04T14:22:22Z</time>
      </trkpt>
      <trkpt lat="45.96791" lon="4.78543">
        <ele>203</ele>
        <time>2017-07-04T14:22:23Z</time>
      </trkpt>
      <trkpt lat="45.96795" lon="4.78549">
        <ele>203</ele>
        <time>2017-07-04T14:22:24Z</time>
      </trkpt>
      <trkpt lat="45.96799" lon="4.78555">
        <ele>203</ele>
        <time>2017-07-04T14:22:25Z</time>
      </trkpt>
      <trkpt lat="45.96802" lon="4.78562">
        <ele>203</ele>
        <time>2017-07-04T14:22:26Z</time>
      </trkpt>
      <trkpt lat="45.96806" lon="4.78569">
        <ele>203</ele>
        <time>2017-07-04T14:22:27Z</time>
      </trkpt>
      <trkpt lat="45.9681" lon="4.78575">
        <ele>203</ele>
        <time>2017-07-04T14:22:28Z</time>
      </trkpt>
      <trkpt lat="45.96814" lon="4.7858">
        <ele>203</ele>
        <time>2017-07-04T14:22:29Z</time>
      </trkpt>
      <trkpt lat="45.96818" lon="4.78586">
        <ele>202</ele>
        <time>2017-07-04T14:22:30Z</time>
      </trkpt>
      <trkpt lat="45.96821" lon="4.78591">
        <ele>202</ele>
        <time>2017-07-04T14:22:31Z</time>
      </trkpt>
      <trkpt lat="45.96824" lon="4.78597">
        <ele>202</ele>
        <time>2017-07-04T14:22:32Z</time>
      </trkpt>
      <trkpt lat="45.96826" lon="4.78603">
        <ele>202</ele>
        <time>2017-07-04T14:22:33Z</time>
      </trkpt>
      <trkpt lat="45.9683" lon="4.78612">
        <ele>202</ele>
        <time>2017-07-04T14:22:35Z</time>
      </trkpt>
      <trkpt lat="45.96832" lon="4.78616">
        <ele>202</ele>
        <time>2017-07-04T14:22:36Z</time>
      </trkpt>
      <trkpt lat="45.96834" lon="4.78624">
        <ele>203</ele>
        <time>2017-07-04T14:22:38Z</time>
      </trkpt>
      <trkpt lat="45.96836" lon="4.78629">
        <ele>203</ele>
        <time>2017-07-04T14:22:39Z</time>
      </trkpt>
      <trkpt lat="45.96838" lon="4.78636">
        <ele>203</ele>
        <time>2017-07-04T14:22:40Z</time>
      </trkpt>
      <trkpt lat="45.9684" lon="4.78642">
        <ele>203</ele>
        <time>2017-07-04T14:22:41Z</time>
      </trkpt>
      <trkpt lat="45.96842" lon="4.78648">
        <ele>203</ele>
        <time>2017-07-04T14:22:42Z</time>
      </trkpt>
      <trkpt lat="45.96844" lon="4.78653">
        <ele>202</ele>
        <time>2017-07-04T14:22:43Z</time>
      </trkpt>
      <trkpt lat="45.96847" lon="4.7866">
        <ele>202</ele>
        <time>2017-07-04T14:22:44Z</time>
      </trkpt>
      <trkpt lat="45.9685" lon="4.78665">
        <ele>202</ele>
        <time>2017-07-04T14:22:45Z</time>
      </trkpt>
      <trkpt lat="45.96853" lon="4.78671">
        <ele>202</ele>
        <time>2017-07-04T14:22:46Z</time>
      </trkpt>
      <trkpt lat="45.96855" lon="4.78677">
        <ele>202</ele>
        <time>2017-07-04T14:22:47Z</time>
      </trkpt>
      <trkpt lat="45.96859" lon="4.78683">
        <ele>202</ele>
        <time>2017-07-04T14:22:48Z</time>
      </trkpt>
      <trkpt lat="45.96862" lon="4.78689">
        <ele>202</ele>
        <time>2017-07-04T14:22:49Z</time>
      </trkpt>
      <trkpt lat="45.96865" lon="4.78695">
        <ele>202</ele>
        <time>2017-07-04T14:22:50Z</time>
      </trkpt>
      <trkpt lat="45.96868" lon="4.787">
        <ele>202</ele>
        <time>2017-07-04T14:22:51Z</time>
      </trkpt>
      <trkpt lat="45.96871" lon="4.78706">
        <ele>202</ele>
        <time>2017-07-04T14:22:52Z</time>
      </trkpt>
      <trkpt lat="45.96873" lon="4.78711">
        <ele>202</ele>
        <time>2017-07-04T14:22:53Z</time>
      </trkpt>
      <trkpt lat="45.96876" lon="4.78716">
        <ele>202</ele>
        <time>2017-07-04T14:22:54Z</time>
      </trkpt>
      <trkpt lat="45.96878" lon="4.78721">
        <ele>202</ele>
        <time>2017-07-04T14:22:55Z</time>
      </trkpt>
      <trkpt lat="45.96883" lon="4.78731">
        <ele>202</ele>
        <time>2017-07-04T14:22:57Z</time>
      </trkpt>
      <trkpt lat="45.96885" lon="4.78735">
        <ele>202</ele>
        <time>2017-07-04T14:22:58Z</time>
      </trkpt>
      <trkpt lat="45.9689" lon="4.78745">
        <ele>202</ele>
        <time>2017-07-04T14:23:00Z</time>
      </trkpt>
      <trkpt lat="45.96892" lon="4.7875">
        <ele>201</ele>
        <time>2017-07-04T14:23:01Z</time>
      </trkpt>
      <trkpt lat="45.96897" lon="4.78761">
        <ele>201</ele>
        <time>2017-07-04T14:23:03Z</time>
      </trkpt>
      <trkpt lat="45.96899" lon="4.78768">
        <ele>201</ele>
        <time>2017-07-04T14:23:04Z</time>
      </trkpt>
      <trkpt lat="45.96903" lon="4.78777">
        <ele>201</ele>
        <time>2017-07-04T14:23:06Z</time>
      </trkpt>
      <trkpt lat="45.96905" lon="4.78782">
        <ele>201</ele>
        <time>2017-07-04T14:23:07Z</time>
      </trkpt>
      <trkpt lat="45.9691" lon="4.7879">
        <ele>201</ele>
        <time>2017-07-04T14:23:09Z</time>
      </trkpt>
      <trkpt lat="45.96912" lon="4.78794">
        <ele>201</ele>
        <time>2017-07-04T14:23:10Z</time>
      </trkpt>
      <trkpt lat="45.96914" lon="4.788">
        <ele>201</ele>
        <time>2017-07-04T14:23:11Z</time>
      </trkpt>
      <trkpt lat="45.96917" lon="4.78805">
        <ele>203</ele>
        <time>2017-07-04T14:23:12Z</time>
      </trkpt>
      <trkpt lat="45.9692" lon="4.78811">
        <ele>202</ele>
        <time>2017-07-04T14:23:13Z</time>
      </trkpt>
      <trkpt lat="45.96923" lon="4.78817">
        <ele>202</ele>
        <time>2017-07-04T14:23:14Z</time>
      </trkpt>
      <trkpt lat="45.96926" lon="4.78823">
        <ele>202</ele>
        <time>2017-07-04T14:23:15Z</time>
      </trkpt>
      <trkpt lat="45.9693" lon="4.78828">
        <ele>202</ele>
        <time>2017-07-04T14:23:16Z</time>
      </trkpt>
      <trkpt lat="45.96934" lon="4.78833">
        <ele>202</ele>
        <time>2017-07-04T14:23:17Z</time>
      </trkpt>
      <trkpt lat="45.96938" lon="4.78838">
        <ele>202</ele>
        <time>2017-07-04T14:23:18Z</time>
      </trkpt>
      <trkpt lat="45.96943" lon="4.78843">
        <ele>202</ele>
        <time>2017-07-04T14:23:19Z</time>
      </trkpt>
      <trkpt lat="45.96946" lon="4.78848">
        <ele>202</ele>
        <time>2017-07-04T14:23:20Z</time>
      </trkpt>
      <trkpt lat="45.96951" lon="4.78852">
        <ele>202</ele>
        <time>2017-07-04T14:23:21Z</time>
      </trkpt>
      <trkpt lat="45.96954" lon="4.78857">
        <ele>203</ele>
        <time>2017-07-04T14:23:22Z</time>
      </trkpt>
      <trkpt lat="45.96958" lon="4.78861">
        <ele>203</ele>
        <time>2017-07-04T14:23:23Z</time>
      </trkpt>
      <trkpt lat="45.96961" lon="4.78865">
        <ele>203</ele>
        <time>2017-07-04T14:23:24Z</time>
      </trkpt>
      <trkpt lat="45.96968" lon="4.78873">
        <ele>203</ele>
        <time>2017-07-04T14:23:26Z</time>
      </trkpt>
      <trkpt lat="45.96971" lon="4.78877">
        <ele>203</ele>
        <time>2017-07-04T14:23:27Z</time>
      </trkpt>
      <trkpt lat="45.96978" lon="4.78885">
        <ele>203</ele>
        <time>2017-07-04T14:23:29Z</time>
      </trkpt>
      <trkpt lat="45.96981" lon="4.78889">
        <ele>203</ele>
        <time>2017-07-04T14:23:30Z</time>
      </trkpt>
      <trkpt lat="45.96988" lon="4.78897">
        <ele>203</ele>
        <time>2017-07-04T14:23:32Z</time>
      </trkpt>
      <trkpt lat="45.96991" lon="4.789">
        <ele>203</ele>
        <time>2017-07-04T14:23:33Z</time>
      </trkpt>
      <trkpt lat="45.96998" lon="4.78907">
        <ele>204</ele>
        <time>2017-07-04T14:23:35Z</time>
      </trkpt>
      <trkpt lat="45.97" lon="4.78911">
        <ele>205</ele>
        <time>2017-07-04T14:23:36Z</time>
      </trkpt>
      <trkpt lat="45.97004" lon="4.78915">
        <ele>205</ele>
        <time>2017-07-04T14:23:37Z</time>
      </trkpt>
      <trkpt lat="45.97007" lon="4.7892">
        <ele>204</ele>
        <time>2017-07-04T14:23:38Z</time>
      </trkpt>
      <trkpt lat="45.97013" lon="4.78928">
        <ele>205</ele>
        <time>2017-07-04T14:23:40Z</time>
      </trkpt>
      <trkpt lat="45.97017" lon="4.78932">
        <ele>205</ele>
        <time>2017-07-04T14:23:41Z</time>
      </trkpt>
      <trkpt lat="45.9702" lon="4.78937">
        <ele>205</ele>
        <time>2017-07-04T14:23:42Z</time>
      </trkpt>
      <trkpt lat="45.97023" lon="4.78941">
        <ele>205</ele>
        <time>2017-07-04T14:23:43Z</time>
      </trkpt>
      <trkpt lat="45.97026" lon="4.78947">
        <ele>205</ele>
        <time>2017-07-04T14:23:44Z</time>
      </trkpt>
      <trkpt lat="45.97029" lon="4.78952">
        <ele>205</ele>
        <time>2017-07-04T14:23:45Z</time>
      </trkpt>
      <trkpt lat="45.97033" lon="4.78957">
        <ele>205</ele>
        <time>2017-07-04T14:23:46Z</time>
      </trkpt>
      <trkpt lat="45.97036" lon="4.78961">
        <ele>205</ele>
        <time>2017-07-04T14:23:47Z</time>
      </trkpt>
      <trkpt lat="45.9704" lon="4.7897">
        <ele>205</ele>
        <time>2017-07-04T14:23:49Z</time>
      </trkpt>
      <trkpt lat="45.97043" lon="4.78976">
        <ele>205</ele>
        <time>2017-07-04T14:23:50Z</time>
      </trkpt>
      <trkpt lat="45.97047" lon="4.78986">
        <ele>205</ele>
        <time>2017-07-04T14:23:52Z</time>
      </trkpt>
      <trkpt lat="45.97049" lon="4.7899">
        <ele>205</ele>
        <time>2017-07-04T14:23:53Z</time>
      </trkpt>
      <trkpt lat="45.97051" lon="4.78999">
        <ele>205</ele>
        <time>2017-07-04T14:23:55Z</time>
      </trkpt>
      <trkpt lat="45.97052" lon="4.79003">
        <ele>203</ele>
        <time>2017-07-04T14:23:56Z</time>
      </trkpt>
      <trkpt lat="45.97055" lon="4.79014">
        <ele>203</ele>
        <time>2017-07-04T14:23:58Z</time>
      </trkpt>
      <trkpt lat="45.97057" lon="4.79019">
        <ele>203</ele>
        <time>2017-07-04T14:23:59Z</time>
      </trkpt>
      <trkpt lat="45.97061" lon="4.7903">
        <ele>203</ele>
        <time>2017-07-04T14:24:01Z</time>
      </trkpt>
      <trkpt lat="45.97063" lon="4.79035">
        <ele>203</ele>
        <time>2017-07-04T14:24:02Z</time>
      </trkpt>
      <trkpt lat="45.97064" lon="4.79042">
        <ele>203</ele>
        <time>2017-07-04T14:24:03Z</time>
      </trkpt>
      <trkpt lat="45.97067" lon="4.79048">
        <ele>203</ele>
        <time>2017-07-04T14:24:04Z</time>
      </trkpt>
      <trkpt lat="45.97069" lon="4.79054">
        <ele>203</ele>
        <time>2017-07-04T14:24:05Z</time>
      </trkpt>
      <trkpt lat="45.9707" lon="4.79061">
        <ele>203</ele>
        <time>2017-07-04T14:24:06Z</time>
      </trkpt>
      <trkpt lat="45.97072" lon="4.79068">
        <ele>204</ele>
        <time>2017-07-04T14:24:07Z</time>
      </trkpt>
      <trkpt lat="45.97074" lon="4.79074">
        <ele>204</ele>
        <time>2017-07-04T14:24:08Z</time>
      </trkpt>
      <trkpt lat="45.97076" lon="4.79082">
        <ele>204</ele>
        <time>2017-07-04T14:24:09Z</time>
      </trkpt>
      <trkpt lat="45.97077" lon="4.79089">
        <ele>204</ele>
        <time>2017-07-04T14:24:10Z</time>
      </trkpt>
      <trkpt lat="45.97078" lon="4.79096">
        <ele>204</ele>
        <time>2017-07-04T14:24:11Z</time>
      </trkpt>
      <trkpt lat="45.97079" lon="4.79102">
        <ele>204</ele>
        <time>2017-07-04T14:24:12Z</time>
      </trkpt>
      <trkpt lat="45.97083" lon="4.79114">
        <ele>204</ele>
        <time>2017-07-04T14:24:14Z</time>
      </trkpt>
      <trkpt lat="45.97085" lon="4.7912">
        <ele>206</ele>
        <time>2017-07-04T14:24:15Z</time>
      </trkpt>
      <trkpt lat="45.97087" lon="4.79125">
        <ele>206</ele>
        <time>2017-07-04T14:24:16Z</time>
      </trkpt>
      <trkpt lat="45.9709" lon="4.7913">
        <ele>206</ele>
        <time>2017-07-04T14:24:17Z</time>
      </trkpt>
      <trkpt lat="45.97092" lon="4.79137">
        <ele>206</ele>
        <time>2017-07-04T14:24:18Z</time>
      </trkpt>
      <trkpt lat="45.97096" lon="4.79143">
        <ele>206</ele>
        <time>2017-07-04T14:24:19Z</time>
      </trkpt>
      <trkpt lat="45.97099" lon="4.79149">
        <ele>206</ele>
        <time>2017-07-04T14:24:20Z</time>
      </trkpt>
      <trkpt lat="45.97103" lon="4.79155">
        <ele>206</ele>
        <time>2017-07-04T14:24:21Z</time>
      </trkpt>
      <trkpt lat="45.97106" lon="4.7916">
        <ele>206</ele>
        <time>2017-07-04T14:24:22Z</time>
      </trkpt>
      <trkpt lat="45.97109" lon="4.79166">
        <ele>206</ele>
        <time>2017-07-04T14:24:23Z</time>
      </trkpt>
      <trkpt lat="45.97112" lon="4.79171">
        <ele>205</ele>
        <time>2017-07-04T14:24:24Z</time>
      </trkpt>
      <trkpt lat="45.97115" lon="4.79177">
        <ele>206</ele>
        <time>2017-07-04T14:24:25Z</time>
      </trkpt>
      <trkpt lat="45.97121" lon="4.79187">
        <ele>206</ele>
        <time>2017-07-04T14:24:27Z</time>
      </trkpt>
      <trkpt lat="45.97123" lon="4.79193">
        <ele>206</ele>
        <time>2017-07-04T14:24:28Z</time>
      </trkpt>
      <trkpt lat="45.97126" lon="4.79198">
        <ele>206</ele>
        <time>2017-07-04T14:24:29Z</time>
      </trkpt>
      <trkpt lat="45.97128" lon="4.79205">
        <ele>206</ele>
        <time>2017-07-04T14:24:30Z</time>
      </trkpt>
      <trkpt lat="45.97131" lon="4.79212">
        <ele>206</ele>
        <time>2017-07-04T14:24:31Z</time>
      </trkpt>
      <trkpt lat="45.97133" lon="4.79218">
        <ele>205</ele>
        <time>2017-07-04T14:24:32Z</time>
      </trkpt>
      <trkpt lat="45.97136" lon="4.79224">
        <ele>205</ele>
        <time>2017-07-04T14:24:33Z</time>
      </trkpt>
      <trkpt lat="45.97139" lon="4.79231">
        <ele>205</ele>
        <time>2017-07-04T14:24:34Z</time>
      </trkpt>
      <trkpt lat="45.97141" lon="4.79237">
        <ele>205</ele>
        <time>2017-07-04T14:24:35Z</time>
      </trkpt>
      <trkpt lat="45.97143" lon="4.79243">
        <ele>205</ele>
        <time>2017-07-04T14:24:36Z</time>
      </trkpt>
      <trkpt lat="45.97147" lon="4.79254">
        <ele>204</ele>
        <time>2017-07-04T14:24:38Z</time>
      </trkpt>
      <trkpt lat="45.97149" lon="4.79258">
        <ele>204</ele>
        <time>2017-07-04T14:24:39Z</time>
      </trkpt>
      <trkpt lat="45.97154" lon="4.79269">
        <ele>204</ele>
        <time>2017-07-04T14:24:41Z</time>
      </trkpt>
      <trkpt lat="45.97156" lon="4.79275">
        <ele>204</ele>
        <time>2017-07-04T14:24:42Z</time>
      </trkpt>
      <trkpt lat="45.97158" lon="4.79282">
        <ele>204</ele>
        <time>2017-07-04T14:24:43Z</time>
      </trkpt>
      <trkpt lat="45.9716" lon="4.79288">
        <ele>204</ele>
        <time>2017-07-04T14:24:44Z</time>
      </trkpt>
      <trkpt lat="45.97162" lon="4.79295">
        <ele>204</ele>
        <time>2017-07-04T14:24:45Z</time>
      </trkpt>
      <trkpt lat="45.97165" lon="4.79301">
        <ele>204</ele>
        <time>2017-07-04T14:24:46Z</time>
      </trkpt>
      <trkpt lat="45.97167" lon="4.79307">
        <ele>207</ele>
        <time>2017-07-04T14:24:47Z</time>
      </trkpt>
      <trkpt lat="45.97169" lon="4.79313">
        <ele>207</ele>
        <time>2017-07-04T14:24:48Z</time>
      </trkpt>
      <trkpt lat="45.97172" lon="4.79319">
        <ele>207</ele>
        <time>2017-07-04T14:24:49Z</time>
      </trkpt>
      <trkpt lat="45.97174" lon="4.79325">
        <ele>206</ele>
        <time>2017-07-04T14:24:50Z</time>
      </trkpt>
      <trkpt lat="45.97177" lon="4.79331">
        <ele>206</ele>
        <time>2017-07-04T14:24:51Z</time>
      </trkpt>
      <trkpt lat="45.97179" lon="4.79337">
        <ele>206</ele>
        <time>2017-07-04T14:24:52Z</time>
      </trkpt>
      <trkpt lat="45.97183" lon="4.79341">
        <ele>206</ele>
        <time>2017-07-04T14:24:53Z</time>
      </trkpt>
      <trkpt lat="45.97186" lon="4.79347">
        <ele>207</ele>
        <time>2017-07-04T14:24:54Z</time>
      </trkpt>
      <trkpt lat="45.97188" lon="4.79353">
        <ele>207</ele>
        <time>2017-07-04T14:24:55Z</time>
      </trkpt>
      <trkpt lat="45.9719" lon="4.79358">
        <ele>207</ele>
        <time>2017-07-04T14:24:56Z</time>
      </trkpt>
      <trkpt lat="45.97193" lon="4.79364">
        <ele>207</ele>
        <time>2017-07-04T14:24:57Z</time>
      </trkpt>
      <trkpt lat="45.97196" lon="4.79371">
        <ele>207</ele>
        <time>2017-07-04T14:24:58Z</time>
      </trkpt>
      <trkpt lat="45.97198" lon="4.79377">
        <ele>207</ele>
        <time>2017-07-04T14:24:59Z</time>
      </trkpt>
      <trkpt lat="45.972" lon="4.79383">
        <ele>207</ele>
        <time>2017-07-04T14:25:00Z</time>
      </trkpt>
      <trkpt lat="45.97204" lon="4.79394">
        <ele>208</ele>
        <time>2017-07-04T14:25:02Z</time>
      </trkpt>
      <trkpt lat="45.97206" lon="4.794">
        <ele>208</ele>
        <time>2017-07-04T14:25:03Z</time>
      </trkpt>
      <trkpt lat="45.9721" lon="4.79411">
        <ele>208</ele>
        <time>2017-07-04T14:25:05Z</time>
      </trkpt>
      <trkpt lat="45.97212" lon="4.79415">
        <ele>208</ele>
        <time>2017-07-04T14:25:06Z</time>
      </trkpt>
      <trkpt lat="45.97216" lon="4.79424">
        <ele>208</ele>
        <time>2017-07-04T14:25:08Z</time>
      </trkpt>
      <trkpt lat="45.97218" lon="4.79429">
        <ele>208</ele>
        <time>2017-07-04T14:25:09Z</time>
      </trkpt>
      <trkpt lat="45.97223" lon="4.79439">
        <ele>209</ele>
        <time>2017-07-04T14:25:11Z</time>
      </trkpt>
      <trkpt lat="45.97226" lon="4.79444">
        <ele>209</ele>
        <time>2017-07-04T14:25:12Z</time>
      </trkpt>
      <trkpt lat="45.97229" lon="4.79449">
        <ele>209</ele>
        <time>2017-07-04T14:25:13Z</time>
      </trkpt>
      <trkpt lat="45.97232" lon="4.79455">
        <ele>209</ele>
        <time>2017-07-04T14:25:14Z</time>
      </trkpt>
      <trkpt lat="45.97234" lon="4.79461">
        <ele>209</ele>
        <time>2017-07-04T14:25:15Z</time>
      </trkpt>
      <trkpt lat="45.97236" lon="4.79467">
        <ele>209</ele>
        <time>2017-07-04T14:25:16Z</time>
      </trkpt>
      <trkpt lat="45.97239" lon="4.79478">
        <ele>209</ele>
        <time>2017-07-04T14:25:18Z</time>
      </trkpt>
      <trkpt lat="45.9724" lon="4.79484">
        <ele>210</ele>
        <time>2017-07-04T14:25:19Z</time>
      </trkpt>
      <trkpt lat="45.97242" lon="4.79494">
        <ele>210</ele>
        <time>2017-07-04T14:25:21Z</time>
      </trkpt>
      <trkpt lat="45.97243" lon="4.795">
        <ele>210</ele>
        <time>2017-07-04T14:25:22Z</time>
      </trkpt>
      <trkpt lat="45.97245" lon="4.7951">
        <ele>210</ele>
        <time>2017-07-04T14:25:24Z</time>
      </trkpt>
      <trkpt lat="45.97247" lon="4.79515">
        <ele>210</ele>
        <time>2017-07-04T14:25:25Z</time>
      </trkpt>
      <trkpt lat="45.97249" lon="4.7952">
        <ele>210</ele>
        <time>2017-07-04T14:25:26Z</time>
      </trkpt>
      <trkpt lat="45.97251" lon="4.79526">
        <ele>214</ele>
        <time>2017-07-04T14:25:27Z</time>
      </trkpt>
      <trkpt lat="45.97252" lon="4.79532">
        <ele>214</ele>
        <time>2017-07-04T14:25:28Z</time>
      </trkpt>
      <trkpt lat="45.97254" lon="4.79538">
        <ele>214</ele>
        <time>2017-07-04T14:25:29Z</time>
      </trkpt>
      <trkpt lat="45.97255" lon="4.79549">
        <ele>214</ele>
        <time>2017-07-04T14:25:31Z</time>
      </trkpt>
      <trkpt lat="45.97256" lon="4.79555">
        <ele>214</ele>
        <time>2017-07-04T14:25:32Z</time>
      </trkpt>
      <trkpt lat="45.97257" lon="4.79565">
        <ele>213</ele>
        <time>2017-07-04T14:25:34Z</time>
      </trkpt>
      <trkpt lat="45.97257" lon="4.7957">
        <ele>213</ele>
        <time>2017-07-04T14:25:35Z</time>
      </trkpt>
      <trkpt lat="45.97258" lon="4.79582">
        <ele>212</ele>
        <time>2017-07-04T14:25:37Z</time>
      </trkpt>
      <trkpt lat="45.97258" lon="4.79589">
        <ele>212</ele>
        <time>2017-07-04T14:25:38Z</time>
      </trkpt>
      <trkpt lat="45.97252" lon="4.79595">
        <ele>212</ele>
        <time>2017-07-04T14:25:39Z</time>
      </trkpt>
      <trkpt lat="45.97252" lon="4.79601">
        <ele>212</ele>
        <time>2017-07-04T14:25:40Z</time>
      </trkpt>
      <trkpt lat="45.97252" lon="4.79608">
        <ele>213</ele>
        <time>2017-07-04T14:25:41Z</time>
      </trkpt>
      <trkpt lat="45.97253" lon="4.79615">
        <ele>213</ele>
        <time>2017-07-04T14:25:42Z</time>
      </trkpt>
      <trkpt lat="45.97253" lon="4.79621">
        <ele>213</ele>
        <time>2017-07-04T14:25:43Z</time>
      </trkpt>
      <trkpt lat="45.97254" lon="4.79628">
        <ele>213</ele>
        <time>2017-07-04T14:25:44Z</time>
      </trkpt>
      <trkpt lat="45.97254" lon="4.79639">
        <ele>212</ele>
        <time>2017-07-04T14:25:46Z</time>
      </trkpt>
      <trkpt lat="45.97254" lon="4.79644">
        <ele>212</ele>
        <time>2017-07-04T14:25:47Z</time>
      </trkpt>
      <trkpt lat="45.97253" lon="4.7965">
        <ele>211</ele>
        <time>2017-07-04T14:25:48Z</time>
      </trkpt>
      <trkpt lat="45.97251" lon="4.79657">
        <ele>210</ele>
        <time>2017-07-04T14:25:49Z</time>
      </trkpt>
      <trkpt lat="45.9725" lon="4.79665">
        <ele>208</ele>
        <time>2017-07-04T14:25:50Z</time>
      </trkpt>
      <trkpt lat="45.9725" lon="4.79673">
        <ele>208</ele>
        <time>2017-07-04T14:25:51Z</time>
      </trkpt>
      <trkpt lat="45.97249" lon="4.7968">
        <ele>208</ele>
        <time>2017-07-04T14:25:52Z</time>
      </trkpt>
      <trkpt lat="45.97248" lon="4.79687">
        <ele>208</ele>
        <time>2017-07-04T14:25:53Z</time>
      </trkpt>
      <trkpt lat="45.97248" lon="4.79695">
        <ele>208</ele>
        <time>2017-07-04T14:25:54Z</time>
      </trkpt>
      <trkpt lat="45.97247" lon="4.79702">
        <ele>208</ele>
        <time>2017-07-04T14:25:55Z</time>
      </trkpt>
      <trkpt lat="45.97246" lon="4.79709">
        <ele>209</ele>
        <time>2017-07-04T14:25:56Z</time>
      </trkpt>
      <trkpt lat="45.97246" lon="4.79716">
        <ele>209</ele>
        <time>2017-07-04T14:25:57Z</time>
      </trkpt>
      <trkpt lat="45.97245" lon="4.79723">
        <ele>209</ele>
        <time>2017-07-04T14:25:58Z</time>
      </trkpt>
      <trkpt lat="45.97244" lon="4.79729">
        <ele>209</ele>
        <time>2017-07-04T14:25:59Z</time>
      </trkpt>
      <trkpt lat="45.97243" lon="4.79736">
        <ele>209</ele>
        <time>2017-07-04T14:26:00Z</time>
      </trkpt>
      <trkpt lat="45.97242" lon="4.79742">
        <ele>209</ele>
        <time>2017-07-04T14:26:01Z</time>
      </trkpt>
      <trkpt lat="45.97242" lon="4.79749">
        <ele>209</ele>
        <time>2017-07-04T14:26:02Z</time>
      </trkpt>
      <trkpt lat="45.97241" lon="4.79756">
        <ele>209</ele>
        <time>2017-07-04T14:26:03Z</time>
      </trkpt>
      <trkpt lat="45.97241" lon="4.79763">
        <ele>209</ele>
        <time>2017-07-04T14:26:04Z</time>
      </trkpt>
      <trkpt lat="45.9724" lon="4.79769">
        <ele>210</ele>
        <time>2017-07-04T14:26:05Z</time>
      </trkpt>
      <trkpt lat="45.9724" lon="4.79776">
        <ele>210</ele>
        <time>2017-07-04T14:26:06Z</time>
      </trkpt>
      <trkpt lat="45.97239" lon="4.79782">
        <ele>210</ele>
        <time>2017-07-04T14:26:07Z</time>
      </trkpt>
      <trkpt lat="45.97239" lon="4.79795">
        <ele>210</ele>
        <time>2017-07-04T14:26:09Z</time>
      </trkpt>
      <trkpt lat="45.97238" lon="4.79802">
        <ele>210</ele>
        <time>2017-07-04T14:26:10Z</time>
      </trkpt>
      <trkpt lat="45.97239" lon="4.79814">
        <ele>211</ele>
        <time>2017-07-04T14:26:12Z</time>
      </trkpt>
      <trkpt lat="45.97238" lon="4.79821">
        <ele>211</ele>
        <time>2017-07-04T14:26:13Z</time>
      </trkpt>
      <trkpt lat="45.97238" lon="4.79834">
        <ele>211</ele>
        <time>2017-07-04T14:26:15Z</time>
      </trkpt>
      <trkpt lat="45.97238" lon="4.7984">
        <ele>211</ele>
        <time>2017-07-04T14:26:16Z</time>
      </trkpt>
      <trkpt lat="45.97239" lon="4.79852">
        <ele>211</ele>
        <time>2017-07-04T14:26:18Z</time>
      </trkpt>
      <trkpt lat="45.97239" lon="4.79858">
        <ele>211</ele>
        <time>2017-07-04T14:26:19Z</time>
      </trkpt>
      <trkpt lat="45.97241" lon="4.79864">
        <ele>211</ele>
        <time>2017-07-04T14:26:20Z</time>
      </trkpt>
      <trkpt lat="45.97243" lon="4.7987">
        <ele>211</ele>
        <time>2017-07-04T14:26:21Z</time>
      </trkpt>
      <trkpt lat="45.97244" lon="4.79876">
        <ele>211</ele>
        <time>2017-07-04T14:26:22Z</time>
      </trkpt>
      <trkpt lat="45.97246" lon="4.79882">
        <ele>211</ele>
        <time>2017-07-04T14:26:23Z</time>
      </trkpt>
      <trkpt lat="45.9725" lon="4.79892">
        <ele>213</ele>
        <time>2017-07-04T14:26:25Z</time>
      </trkpt>
      <trkpt lat="45.97252" lon="4.79896">
        <ele>213</ele>
        <time>2017-07-04T14:26:26Z</time>
      </trkpt>
      <trkpt lat="45.97254" lon="4.79906">
        <ele>213</ele>
        <time>2017-07-04T14:26:28Z</time>
      </trkpt>
      <trkpt lat="45.97255" lon="4.79909">
        <ele>212</ele>
        <time>2017-07-04T14:26:29Z</time>
      </trkpt>
      <trkpt lat="45.97255" lon="4.79915">
        <ele>212</ele>
        <time>2017-07-04T14:26:35Z</time>
      </trkpt>
      <trkpt lat="45.97256" lon="4.79918">
        <ele>212</ele>
        <time>2017-07-04T14:26:36Z</time>
      </trkpt>
      <trkpt lat="45.9726" lon="4.7992">
        <ele>212</ele>
        <time>2017-07-04T14:26:38Z</time>
      </trkpt>
      <trkpt lat="45.97262" lon="4.79921">
        <ele>212</ele>
        <time>2017-07-04T14:26:39Z</time>
      </trkpt>
      <trkpt lat="45.97268" lon="4.79922">
        <ele>212</ele>
        <time>2017-07-04T14:26:41Z</time>
      </trkpt>
      <trkpt lat="45.97272" lon="4.79921">
        <ele>212</ele>
        <time>2017-07-04T14:26:42Z</time>
      </trkpt>
      <trkpt lat="45.97279" lon="4.79922">
        <ele>212</ele>
        <time>2017-07-04T14:26:44Z</time>
      </trkpt>
      <trkpt lat="45.97282" lon="4.79923">
        <ele>212</ele>
        <time>2017-07-04T14:26:45Z</time>
      </trkpt>
      <trkpt lat="45.97289" lon="4.79923">
        <ele>212</ele>
        <time>2017-07-04T14:26:47Z</time>
      </trkpt>
      <trkpt lat="45.97293" lon="4.79922">
        <ele>212</ele>
        <time>2017-07-04T14:26:48Z</time>
      </trkpt>
      <trkpt lat="45.97301" lon="4.79922">
        <ele>212</ele>
        <time>2017-07-04T14:26:50Z</time>
      </trkpt>
      <trkpt lat="45.97304" lon="4.79922">
        <ele>212</ele>
        <time>2017-07-04T14:26:51Z</time>
      </trkpt>
      <trkpt lat="45.9731" lon="4.7992">
        <ele>212</ele>
        <time>2017-07-04T14:26:53Z</time>
      </trkpt>
      <trkpt lat="45.97313" lon="4.79919">
        <ele>212</ele>
        <time>2017-07-04T14:26:54Z</time>
      </trkpt>
      <trkpt lat="45.97321" lon="4.79918">
        <ele>212</ele>
        <time>2017-07-04T14:26:56Z</time>
      </trkpt>
      <trkpt lat="45.97325" lon="4.79917">
        <ele>213</ele>
        <time>2017-07-04T14:26:57Z</time>
      </trkpt>
      <trkpt lat="45.97333" lon="4.79916">
        <ele>213</ele>
        <time>2017-07-04T14:26:59Z</time>
      </trkpt>
      <trkpt lat="45.97337" lon="4.79915">
        <ele>214</ele>
        <time>2017-07-04T14:27:00Z</time>
      </trkpt>
      <trkpt lat="45.97345" lon="4.79914">
        <ele>215</ele>
        <time>2017-07-04T14:27:02Z</time>
      </trkpt>
      <trkpt lat="45.97349" lon="4.79912">
        <ele>215</ele>
        <time>2017-07-04T14:27:03Z</time>
      </trkpt>
      <trkpt lat="45.97356" lon="4.7991">
        <ele>216</ele>
        <time>2017-07-04T14:27:05Z</time>
      </trkpt>
      <trkpt lat="45.9736" lon="4.7991">
        <ele>216</ele>
        <time>2017-07-04T14:27:06Z</time>
      </trkpt>
      <trkpt lat="45.97367" lon="4.79908">
        <ele>216</ele>
        <time>2017-07-04T14:27:08Z</time>
      </trkpt>
      <trkpt lat="45.9737" lon="4.79908">
        <ele>217</ele>
        <time>2017-07-04T14:27:09Z</time>
      </trkpt>
      <trkpt lat="45.97377" lon="4.79906">
        <ele>217</ele>
        <time>2017-07-04T14:27:11Z</time>
      </trkpt>
      <trkpt lat="45.97379" lon="4.79904">
        <ele>217</ele>
        <time>2017-07-04T14:27:12Z</time>
      </trkpt>
      <trkpt lat="45.97386" lon="4.79901">
        <ele>217</ele>
        <time>2017-07-04T14:27:14Z</time>
      </trkpt>
      <trkpt lat="45.97392" lon="4.79905">
        <ele>217</ele>
        <time>2017-07-04T14:27:15Z</time>
      </trkpt>
      <trkpt lat="45.97396" lon="4.79906">
        <ele>217</ele>
        <time>2017-07-04T14:27:16Z</time>
      </trkpt>
      <trkpt lat="45.97401" lon="4.79907">
        <ele>217</ele>
        <time>2017-07-04T14:27:17Z</time>
      </trkpt>
      <trkpt lat="45.9741" lon="4.79906">
        <ele>217</ele>
        <time>2017-07-04T14:27:19Z</time>
      </trkpt>
      <trkpt lat="45.97414" lon="4.79906">
        <ele>217</ele>
        <time>2017-07-04T14:27:20Z</time>
      </trkpt>
      <trkpt lat="45.97423" lon="4.79905">
        <ele>218</ele>
        <time>2017-07-04T14:27:22Z</time>
      </trkpt>
      <trkpt lat="45.97426" lon="4.79904">
        <ele>219</ele>
        <time>2017-07-04T14:27:23Z</time>
      </trkpt>
      <trkpt lat="45.97434" lon="4.79904">
        <ele>219</ele>
        <time>2017-07-04T14:27:25Z</time>
      </trkpt>
      <trkpt lat="45.97437" lon="4.79902">
        <ele>219</ele>
        <time>2017-07-04T14:27:26Z</time>
      </trkpt>
      <trkpt lat="45.97445" lon="4.79902">
        <ele>220</ele>
        <time>2017-07-04T14:27:28Z</time>
      </trkpt>
      <trkpt lat="45.9745" lon="4.79902">
        <ele>220</ele>
        <time>2017-07-04T14:27:29Z</time>
      </trkpt>
      <trkpt lat="45.97458" lon="4.79901">
        <ele>220</ele>
        <time>2017-07-04T14:27:31Z</time>
      </trkpt>
      <trkpt lat="45.97463" lon="4.79901">
        <ele>220</ele>
        <time>2017-07-04T14:27:32Z</time>
      </trkpt>
      <trkpt lat="45.97471" lon="4.799">
        <ele>220</ele>
        <time>2017-07-04T14:27:34Z</time>
      </trkpt>
      <trkpt lat="45.97475" lon="4.799">
        <ele>220</ele>
        <time>2017-07-04T14:27:35Z</time>
      </trkpt>
      <trkpt lat="45.97483" lon="4.799">
        <ele>220</ele>
        <time>2017-07-04T14:27:37Z</time>
      </trkpt>
      <trkpt lat="45.97487" lon="4.799">
        <ele>220</ele>
        <time>2017-07-04T14:27:38Z</time>
      </trkpt>
      <trkpt lat="45.97495" lon="4.79899">
        <ele>220</ele>
        <time>2017-07-04T14:27:40Z</time>
      </trkpt>
      <trkpt lat="45.97499" lon="4.79899">
        <ele>220</ele>
        <time>2017-07-04T14:27:41Z</time>
      </trkpt>
      <trkpt lat="45.97507" lon="4.79897">
        <ele>221</ele>
        <time>2017-07-04T14:27:43Z</time>
      </trkpt>
      <trkpt lat="45.9751" lon="4.79897">
        <ele>221</ele>
        <time>2017-07-04T14:27:44Z</time>
      </trkpt>
      <trkpt lat="45.97517" lon="4.79897">
        <ele>221</ele>
        <time>2017-07-04T14:27:46Z</time>
      </trkpt>
      <trkpt lat="45.9752" lon="4.79896">
        <ele>221</ele>
        <time>2017-07-04T14:27:47Z</time>
      </trkpt>
      <trkpt lat="45.97527" lon="4.79894">
        <ele>221</ele>
        <time>2017-07-04T14:27:49Z</time>
      </trkpt>
      <trkpt lat="45.97531" lon="4.79894">
        <ele>221</ele>
        <time>2017-07-04T14:27:50Z</time>
      </trkpt>
      <trkpt lat="45.97538" lon="4.79893">
        <ele>221</ele>
        <time>2017-07-04T14:27:52Z</time>
      </trkpt>
      <trkpt lat="45.97541" lon="4.79892">
        <ele>221</ele>
        <time>2017-07-04T14:27:53Z</time>
      </trkpt>
      <trkpt lat="45.97548" lon="4.7989">
        <ele>221</ele>
        <time>2017-07-04T14:27:55Z</time>
      </trkpt>
      <trkpt lat="45.97552" lon="4.7989">
        <ele>221</ele>
        <time>2017-07-04T14:27:56Z</time>
      </trkpt>
      <trkpt lat="45.97558" lon="4.79888">
        <ele>221</ele>
        <time>2017-07-04T14:27:58Z</time>
      </trkpt>
      <trkpt lat="45.97562" lon="4.79888">
        <ele>221</ele>
        <time>2017-07-04T14:27:59Z</time>
      </trkpt>
      <trkpt lat="45.97569" lon="4.79885">
        <ele>221</ele>
        <time>2017-07-04T14:28:01Z</time>
      </trkpt>
      <trkpt lat="45.97572" lon="4.79884">
        <ele>221</ele>
        <time>2017-07-04T14:28:02Z</time>
      </trkpt>
      <trkpt lat="45.97579" lon="4.79882">
        <ele>221</ele>
        <time>2017-07-04T14:28:04Z</time>
      </trkpt>
      <trkpt lat="45.97582" lon="4.79881">
        <ele>221</ele>
        <time>2017-07-04T14:28:05Z</time>
      </trkpt>
      <trkpt lat="45.97589" lon="4.7988">
        <ele>220</ele>
        <time>2017-07-04T14:28:07Z</time>
      </trkpt>
      <trkpt lat="45.97592" lon="4.79879">
        <ele>220</ele>
        <time>2017-07-04T14:28:08Z</time>
      </trkpt>
      <trkpt lat="45.97599" lon="4.79876">
        <ele>220</ele>
        <time>2017-07-04T14:28:10Z</time>
      </trkpt>
      <trkpt lat="45.97602" lon="4.79875">
        <ele>220</ele>
        <time>2017-07-04T14:28:11Z</time>
      </trkpt>
      <trkpt lat="45.9761" lon="4.79871">
        <ele>220</ele>
        <time>2017-07-04T14:28:14Z</time>
      </trkpt>
      <trkpt lat="45.97613" lon="4.7987">
        <ele>221</ele>
        <time>2017-07-04T14:28:15Z</time>
      </trkpt>
      <trkpt lat="45.97619" lon="4.79867">
        <ele>221</ele>
        <time>2017-07-04T14:28:17Z</time>
      </trkpt>
      <trkpt lat="45.97622" lon="4.79865">
        <ele>221</ele>
        <time>2017-07-04T14:28:18Z</time>
      </trkpt>
      <trkpt lat="45.97631" lon="4.79862">
        <ele>221</ele>
        <time>2017-07-04T14:28:21Z</time>
      </trkpt>
      <trkpt lat="45.97634" lon="4.79861">
        <ele>221</ele>
        <time>2017-07-04T14:28:22Z</time>
      </trkpt>
      <trkpt lat="45.97641" lon="4.79858">
        <ele>221</ele>
        <time>2017-07-04T14:28:24Z</time>
      </trkpt>
      <trkpt lat="45.97645" lon="4.79857">
        <ele>221</ele>
        <time>2017-07-04T14:28:25Z</time>
      </trkpt>
      <trkpt lat="45.97652" lon="4.79855">
        <ele>221</ele>
        <time>2017-07-04T14:28:27Z</time>
      </trkpt>
      <trkpt lat="45.97655" lon="4.79854">
        <ele>221</ele>
        <time>2017-07-04T14:28:28Z</time>
      </trkpt>
      <trkpt lat="45.97662" lon="4.79851">
        <ele>221</ele>
        <time>2017-07-04T14:28:30Z</time>
      </trkpt>
      <trkpt lat="45.97666" lon="4.79849">
        <ele>221</ele>
        <time>2017-07-04T14:28:31Z</time>
      </trkpt>
      <trkpt lat="45.97674" lon="4.79847">
        <ele>221</ele>
        <time>2017-07-04T14:28:33Z</time>
      </trkpt>
      <trkpt lat="45.97678" lon="4.79846">
        <ele>221</ele>
        <time>2017-07-04T14:28:34Z</time>
      </trkpt>
      <trkpt lat="45.97685" lon="4.79844">
        <ele>221</ele>
        <time>2017-07-04T14:28:36Z</time>
      </trkpt>
      <trkpt lat="45.97689" lon="4.79842">
        <ele>220</ele>
        <time>2017-07-04T14:28:37Z</time>
      </trkpt>
      <trkpt lat="45.97696" lon="4.7984">
        <ele>220</ele>
        <time>2017-07-04T14:28:39Z</time>
      </trkpt>
      <trkpt lat="45.97699" lon="4.79839">
        <ele>220</ele>
        <time>2017-07-04T14:28:40Z</time>
      </trkpt>
      <trkpt lat="45.97707" lon="4.79837">
        <ele>220</ele>
        <time>2017-07-04T14:28:42Z</time>
      </trkpt>
      <trkpt lat="45.97711" lon="4.79836">
        <ele>220</ele>
        <time>2017-07-04T14:28:43Z</time>
      </trkpt>
      <trkpt lat="45.97719" lon="4.79833">
        <ele>223</ele>
        <time>2017-07-04T14:28:45Z</time>
      </trkpt>
      <trkpt lat="45.97723" lon="4.79832">
        <ele>223</ele>
        <time>2017-07-04T14:28:46Z</time>
      </trkpt>
      <trkpt lat="45.97732" lon="4.79832">
        <ele>223</ele>
        <time>2017-07-04T14:28:48Z</time>
      </trkpt>
      <trkpt lat="45.97736" lon="4.79832">
        <ele>223</ele>
        <time>2017-07-04T14:28:49Z</time>
      </trkpt>
      <trkpt lat="45.97744" lon="4.7983">
        <ele>222</ele>
        <time>2017-07-04T14:28:51Z</time>
      </trkpt>
      <trkpt lat="45.97749" lon="4.7983">
        <ele>222</ele>
        <time>2017-07-04T14:28:52Z</time>
      </trkpt>
      <trkpt lat="45.97757" lon="4.79829">
        <ele>222</ele>
        <time>2017-07-04T14:28:54Z</time>
      </trkpt>
      <trkpt lat="45.97761" lon="4.79829">
        <ele>222</ele>
        <time>2017-07-04T14:28:55Z</time>
      </trkpt>
      <trkpt lat="45.97769" lon="4.79828">
        <ele>223</ele>
        <time>2017-07-04T14:28:57Z</time>
      </trkpt>
      <trkpt lat="45.97774" lon="4.79827">
        <ele>223</ele>
        <time>2017-07-04T14:28:58Z</time>
      </trkpt>
      <trkpt lat="45.97779" lon="4.79826">
        <ele>223</ele>
        <time>2017-07-04T14:28:59Z</time>
      </trkpt>
      <trkpt lat="45.97784" lon="4.79825">
        <ele>223</ele>
        <time>2017-07-04T14:29:00Z</time>
      </trkpt>
      <trkpt lat="45.97789" lon="4.79824">
        <ele>223</ele>
        <time>2017-07-04T14:29:01Z</time>
      </trkpt>
      <trkpt lat="45.97794" lon="4.79822">
        <ele>223</ele>
        <time>2017-07-04T14:29:02Z</time>
      </trkpt>
      <trkpt lat="45.97799" lon="4.79821">
        <ele>223</ele>
        <time>2017-07-04T14:29:03Z</time>
      </trkpt>
      <trkpt lat="45.97804" lon="4.7982">
        <ele>223</ele>
        <time>2017-07-04T14:29:04Z</time>
      </trkpt>
      <trkpt lat="45.97808" lon="4.79819">
        <ele>223</ele>
        <time>2017-07-04T14:29:05Z</time>
      </trkpt>
      <trkpt lat="45.97813" lon="4.79818">
        <ele>223</ele>
        <time>2017-07-04T14:29:06Z</time>
      </trkpt>
      <trkpt lat="45.97821" lon="4.79816">
        <ele>223</ele>
        <time>2017-07-04T14:29:08Z</time>
      </trkpt>
      <trkpt lat="45.97825" lon="4.79816">
        <ele>223</ele>
        <time>2017-07-04T14:29:09Z</time>
      </trkpt>
      <trkpt lat="45.97833" lon="4.79815">
        <ele>223</ele>
        <time>2017-07-04T14:29:11Z</time>
      </trkpt>
      <trkpt lat="45.97838" lon="4.79815">
        <ele>224</ele>
        <time>2017-07-04T14:29:12Z</time>
      </trkpt>
      <trkpt lat="45.97846" lon="4.79813">
        <ele>224</ele>
        <time>2017-07-04T14:29:14Z</time>
      </trkpt>
      <trkpt lat="45.97851" lon="4.79813">
        <ele>224</ele>
        <time>2017-07-04T14:29:15Z</time>
      </trkpt>
      <trkpt lat="45.97856" lon="4.79812">
        <ele>224</ele>
        <time>2017-07-04T14:29:16Z</time>
      </trkpt>
      <trkpt lat="45.9786" lon="4.7981">
        <ele>224</ele>
        <time>2017-07-04T14:29:17Z</time>
      </trkpt>
      <trkpt lat="45.97868" lon="4.79808">
        <ele>224</ele>
        <time>2017-07-04T14:29:19Z</time>
      </trkpt>
      <trkpt lat="45.97872" lon="4.79808">
        <ele>224</ele>
        <time>2017-07-04T14:29:20Z</time>
      </trkpt>
      <trkpt lat="45.97881" lon="4.79806">
        <ele>224</ele>
        <time>2017-07-04T14:29:22Z</time>
      </trkpt>
      <trkpt lat="45.97886" lon="4.79806">
        <ele>224</ele>
        <time>2017-07-04T14:29:23Z</time>
      </trkpt>
      <trkpt lat="45.97891" lon="4.79806">
        <ele>224</ele>
        <time>2017-07-04T14:29:24Z</time>
      </trkpt>
      <trkpt lat="45.97896" lon="4.79805">
        <ele>224</ele>
        <time>2017-07-04T14:29:25Z</time>
      </trkpt>
      <trkpt lat="45.97902" lon="4.79805">
        <ele>224</ele>
        <time>2017-07-04T14:29:26Z</time>
      </trkpt>
      <trkpt lat="45.97907" lon="4.79804">
        <ele>224</ele>
        <time>2017-07-04T14:29:27Z</time>
      </trkpt>
      <trkpt lat="45.97912" lon="4.79804">
        <ele>224</ele>
        <time>2017-07-04T14:29:28Z</time>
      </trkpt>
      <trkpt lat="45.97917" lon="4.79804">
        <ele>224</ele>
        <time>2017-07-04T14:29:29Z</time>
      </trkpt>
      <trkpt lat="45.97922" lon="4.79804">
        <ele>224</ele>
        <time>2017-07-04T14:29:30Z</time>
      </trkpt>
      <trkpt lat="45.97927" lon="4.79803">
        <ele>224</ele>
        <time>2017-07-04T14:29:31Z</time>
      </trkpt>
      <trkpt lat="45.97932" lon="4.79803">
        <ele>224</ele>
        <time>2017-07-04T14:29:32Z</time>
      </trkpt>
      <trkpt lat="45.97937" lon="4.79802">
        <ele>224</ele>
        <time>2017-07-04T14:29:33Z</time>
      </trkpt>
      <trkpt lat="45.97942" lon="4.79801">
        <ele>224</ele>
        <time>2017-07-04T14:29:34Z</time>
      </trkpt>
      <trkpt lat="45.97947" lon="4.798">
        <ele>224</ele>
        <time>2017-07-04T14:29:35Z</time>
      </trkpt>
      <trkpt lat="45.97952" lon="4.798">
        <ele>224</ele>
        <time>2017-07-04T14:29:36Z</time>
      </trkpt>
      <trkpt lat="45.97958" lon="4.79799">
        <ele>224</ele>
        <time>2017-07-04T14:29:37Z</time>
      </trkpt>
      <trkpt lat="45.97963" lon="4.79798">
        <ele>224</ele>
        <time>2017-07-04T14:29:38Z</time>
      </trkpt>
      <trkpt lat="45.97968" lon="4.79797">
        <ele>224</ele>
        <time>2017-07-04T14:29:39Z</time>
      </trkpt>
      <trkpt lat="45.97973" lon="4.79796">
        <ele>224</ele>
        <time>2017-07-04T14:29:40Z</time>
      </trkpt>
      <trkpt lat="45.97977" lon="4.79795">
        <ele>224</ele>
        <time>2017-07-04T14:29:41Z</time>
      </trkpt>
      <trkpt lat="45.97982" lon="4.79793">
        <ele>224</ele>
        <time>2017-07-04T14:29:42Z</time>
      </trkpt>
      <trkpt lat="45.97986" lon="4.79792">
        <ele>224</ele>
        <time>2017-07-04T14:29:43Z</time>
      </trkpt>
      <trkpt lat="45.97995" lon="4.79792">
        <ele>224</ele>
        <time>2017-07-04T14:29:45Z</time>
      </trkpt>
      <trkpt lat="45.98" lon="4.79791">
        <ele>224</ele>
        <time>2017-07-04T14:29:46Z</time>
      </trkpt>
      <trkpt lat="45.98004" lon="4.79791">
        <ele>223</ele>
        <time>2017-07-04T14:29:47Z</time>
      </trkpt>
      <trkpt lat="45.98009" lon="4.79791">
        <ele>223</ele>
        <time>2017-07-04T14:29:48Z</time>
      </trkpt>
      <trkpt lat="45.98014" lon="4.79789">
        <ele>223</ele>
        <time>2017-07-04T14:29:49Z</time>
      </trkpt>
      <trkpt lat="45.98019" lon="4.79788">
        <ele>223</ele>
        <time>2017-07-04T14:29:50Z</time>
      </trkpt>
      <trkpt lat="45.98024" lon="4.79788">
        <ele>223</ele>
        <time>2017-07-04T14:29:51Z</time>
      </trkpt>
      <trkpt lat="45.98029" lon="4.79787">
        <ele>223</ele>
        <time>2017-07-04T14:29:52Z</time>
      </trkpt>
      <trkpt lat="45.98034" lon="4.79785">
        <ele>223</ele>
        <time>2017-07-04T14:29:53Z</time>
      </trkpt>
      <trkpt lat="45.98038" lon="4.79784">
        <ele>223</ele>
        <time>2017-07-04T14:29:54Z</time>
      </trkpt>
      <trkpt lat="45.98047" lon="4.79782">
        <ele>223</ele>
        <time>2017-07-04T14:29:56Z</time>
      </trkpt>
      <trkpt lat="45.98052" lon="4.79781">
        <ele>223</ele>
        <time>2017-07-04T14:29:57Z</time>
      </trkpt>
      <trkpt lat="45.98056" lon="4.79781">
        <ele>223</ele>
        <time>2017-07-04T14:29:58Z</time>
      </trkpt>
      <trkpt lat="45.98061" lon="4.7978">
        <ele>223</ele>
        <time>2017-07-04T14:29:59Z</time>
      </trkpt>
      <trkpt lat="45.98069" lon="4.79779">
        <ele>223</ele>
        <time>2017-07-04T14:30:01Z</time>
      </trkpt>
      <trkpt lat="45.98073" lon="4.79779">
        <ele>223</ele>
        <time>2017-07-04T14:30:02Z</time>
      </trkpt>
      <trkpt lat="45.98082" lon="4.79778">
        <ele>223</ele>
        <time>2017-07-04T14:30:04Z</time>
      </trkpt>
      <trkpt lat="45.98086" lon="4.79777">
        <ele>223</ele>
        <time>2017-07-04T14:30:05Z</time>
      </trkpt>
      <trkpt lat="45.98091" lon="4.79776">
        <ele>223</ele>
        <time>2017-07-04T14:30:06Z</time>
      </trkpt>
      <trkpt lat="45.98095" lon="4.79775">
        <ele>223</ele>
        <time>2017-07-04T14:30:07Z</time>
      </trkpt>
      <trkpt lat="45.98104" lon="4.79773">
        <ele>224</ele>
        <time>2017-07-04T14:30:09Z</time>
      </trkpt>
      <trkpt lat="45.98108" lon="4.79772">
        <ele>224</ele>
        <time>2017-07-04T14:30:10Z</time>
      </trkpt>
      <trkpt lat="45.98116" lon="4.79771">
        <ele>224</ele>
        <time>2017-07-04T14:30:12Z</time>
      </trkpt>
      <trkpt lat="45.98121" lon="4.79771">
        <ele>224</ele>
        <time>2017-07-04T14:30:13Z</time>
      </trkpt>
      <trkpt lat="45.98125" lon="4.7977">
        <ele>224</ele>
        <time>2017-07-04T14:30:14Z</time>
      </trkpt>
      <trkpt lat="45.98131" lon="4.79769">
        <ele>224</ele>
        <time>2017-07-04T14:30:15Z</time>
      </trkpt>
      <trkpt lat="45.98136" lon="4.79768">
        <ele>224</ele>
        <time>2017-07-04T14:30:16Z</time>
      </trkpt>
      <trkpt lat="45.98141" lon="4.79767">
        <ele>224</ele>
        <time>2017-07-04T14:30:17Z</time>
      </trkpt>
      <trkpt lat="45.98146" lon="4.79767">
        <ele>224</ele>
        <time>2017-07-04T14:30:18Z</time>
      </trkpt>
      <trkpt lat="45.98151" lon="4.79768">
        <ele>225</ele>
        <time>2017-07-04T14:30:19Z</time>
      </trkpt>
      <trkpt lat="45.9816" lon="4.7977">
        <ele>225</ele>
        <time>2017-07-04T14:30:21Z</time>
      </trkpt>
      <trkpt lat="45.98163" lon="4.79772">
        <ele>225</ele>
        <time>2017-07-04T14:30:22Z</time>
      </trkpt>
      <trkpt lat="45.9817" lon="4.79779">
        <ele>226</ele>
        <time>2017-07-04T14:30:24Z</time>
      </trkpt>
      <trkpt lat="45.98173" lon="4.79783">
        <ele>226</ele>
        <time>2017-07-04T14:30:25Z</time>
      </trkpt>
      <trkpt lat="45.98177" lon="4.79792">
        <ele>226</ele>
        <time>2017-07-04T14:30:27Z</time>
      </trkpt>
      <trkpt lat="45.98179" lon="4.79798">
        <ele>226</ele>
        <time>2017-07-04T14:30:28Z</time>
      </trkpt>
      <trkpt lat="45.98183" lon="4.79809">
        <ele>225</ele>
        <time>2017-07-04T14:30:30Z</time>
      </trkpt>
      <trkpt lat="45.98185" lon="4.79815">
        <ele>225</ele>
        <time>2017-07-04T14:30:31Z</time>
      </trkpt>
      <trkpt lat="45.98187" lon="4.79821">
        <ele>225</ele>
        <time>2017-07-04T14:30:32Z</time>
      </trkpt>
      <trkpt lat="45.98189" lon="4.79828">
        <ele>225</ele>
        <time>2017-07-04T14:30:33Z</time>
      </trkpt>
      <trkpt lat="45.98192" lon="4.79835">
        <ele>225</ele>
        <time>2017-07-04T14:30:34Z</time>
      </trkpt>
      <trkpt lat="45.98195" lon="4.79843">
        <ele>225</ele>
        <time>2017-07-04T14:30:35Z</time>
      </trkpt>
      <trkpt lat="45.98197" lon="4.79851">
        <ele>225</ele>
        <time>2017-07-04T14:30:36Z</time>
      </trkpt>
      <trkpt lat="45.98201" lon="4.79859">
        <ele>225</ele>
        <time>2017-07-04T14:30:37Z</time>
      </trkpt>
      <trkpt lat="45.98204" lon="4.79867">
        <ele>225</ele>
        <time>2017-07-04T14:30:38Z</time>
      </trkpt>
      <trkpt lat="45.98207" lon="4.79874">
        <ele>225</ele>
        <time>2017-07-04T14:30:39Z</time>
      </trkpt>
      <trkpt lat="45.9821" lon="4.79882">
        <ele>225</ele>
        <time>2017-07-04T14:30:40Z</time>
      </trkpt>
      <trkpt lat="45.98213" lon="4.79889">
        <ele>225</ele>
        <time>2017-07-04T14:30:41Z</time>
      </trkpt>
      <trkpt lat="45.98216" lon="4.79896">
        <ele>225</ele>
        <time>2017-07-04T14:30:42Z</time>
      </trkpt>
      <trkpt lat="45.98219" lon="4.79904">
        <ele>225</ele>
        <time>2017-07-04T14:30:43Z</time>
      </trkpt>
      <trkpt lat="45.98221" lon="4.79911">
        <ele>225</ele>
        <time>2017-07-04T14:30:44Z</time>
      </trkpt>
      <trkpt lat="45.98223" lon="4.79918">
        <ele>225</ele>
        <time>2017-07-04T14:30:45Z</time>
      </trkpt>
      <trkpt lat="45.98226" lon="4.79925">
        <ele>225</ele>
        <time>2017-07-04T14:30:46Z</time>
      </trkpt>
      <trkpt lat="45.98228" lon="4.79933">
        <ele>225</ele>
        <time>2017-07-04T14:30:47Z</time>
      </trkpt>
      <trkpt lat="45.98231" lon="4.7994">
        <ele>225</ele>
        <time>2017-07-04T14:30:48Z</time>
      </trkpt>
      <trkpt lat="45.98234" lon="4.79947">
        <ele>225</ele>
        <time>2017-07-04T14:30:49Z</time>
      </trkpt>
      <trkpt lat="45.98237" lon="4.79953">
        <ele>225</ele>
        <time>2017-07-04T14:30:50Z</time>
      </trkpt>
      <trkpt lat="45.98239" lon="4.79961">
        <ele>225</ele>
        <time>2017-07-04T14:30:51Z</time>
      </trkpt>
      <trkpt lat="45.98242" lon="4.79968">
        <ele>225</ele>
        <time>2017-07-04T14:30:52Z</time>
      </trkpt>
      <trkpt lat="45.98245" lon="4.79975">
        <ele>225</ele>
        <time>2017-07-04T14:30:53Z</time>
      </trkpt>
      <trkpt lat="45.98247" lon="4.79982">
        <ele>225</ele>
        <time>2017-07-04T14:30:54Z</time>
      </trkpt>
      <trkpt lat="45.98249" lon="4.7999">
        <ele>226</ele>
        <time>2017-07-04T14:30:55Z</time>
      </trkpt>
      <trkpt lat="45.98252" lon="4.79998">
        <ele>226</ele>
        <time>2017-07-04T14:30:56Z</time>
      </trkpt>
      <trkpt lat="45.98254" lon="4.80007">
        <ele>227</ele>
        <time>2017-07-04T14:30:57Z</time>
      </trkpt>
      <trkpt lat="45.98256" lon="4.80016">
        <ele>228</ele>
        <time>2017-07-04T14:30:58Z</time>
      </trkpt>
      <trkpt lat="45.98259" lon="4.80024">
        <ele>228</ele>
        <time>2017-07-04T14:30:59Z</time>
      </trkpt>
      <trkpt lat="45.98262" lon="4.80033">
        <ele>228</ele>
        <time>2017-07-04T14:31:00Z</time>
      </trkpt>
      <trkpt lat="45.98264" lon="4.80041">
        <ele>228</ele>
        <time>2017-07-04T14:31:01Z</time>
      </trkpt>
      <trkpt lat="45.98267" lon="4.80049">
        <ele>229</ele>
        <time>2017-07-04T14:31:02Z</time>
      </trkpt>
      <trkpt lat="45.9827" lon="4.80057">
        <ele>228</ele>
        <time>2017-07-04T14:31:03Z</time>
      </trkpt>
      <trkpt lat="45.98273" lon="4.80064">
        <ele>228</ele>
        <time>2017-07-04T14:31:04Z</time>
      </trkpt>
      <trkpt lat="45.98276" lon="4.80071">
        <ele>228</ele>
        <time>2017-07-04T14:31:05Z</time>
      </trkpt>
      <trkpt lat="45.98278" lon="4.80079">
        <ele>229</ele>
        <time>2017-07-04T14:31:06Z</time>
      </trkpt>
      <trkpt lat="45.98281" lon="4.80086">
        <ele>228</ele>
        <time>2017-07-04T14:31:07Z</time>
      </trkpt>
      <trkpt lat="45.98283" lon="4.80093">
        <ele>228</ele>
        <time>2017-07-04T14:31:08Z</time>
      </trkpt>
      <trkpt lat="45.98286" lon="4.80099">
        <ele>228</ele>
        <time>2017-07-04T14:31:09Z</time>
      </trkpt>
      <trkpt lat="45.98288" lon="4.80105">
        <ele>228</ele>
        <time>2017-07-04T14:31:10Z</time>
      </trkpt>
      <trkpt lat="45.98291" lon="4.80112">
        <ele>228</ele>
        <time>2017-07-04T14:31:11Z</time>
      </trkpt>
      <trkpt lat="45.98293" lon="4.80118">
        <ele>228</ele>
        <time>2017-07-04T14:31:12Z</time>
      </trkpt>
      <trkpt lat="45.98295" lon="4.80125">
        <ele>228</ele>
        <time>2017-07-04T14:31:13Z</time>
      </trkpt>
      <trkpt lat="45.98297" lon="4.80132">
        <ele>228</ele>
        <time>2017-07-04T14:31:14Z</time>
      </trkpt>
      <trkpt lat="45.98299" lon="4.80139">
        <ele>228</ele>
        <time>2017-07-04T14:31:15Z</time>
      </trkpt>
      <trkpt lat="45.98302" lon="4.80146">
        <ele>228</ele>
        <time>2017-07-04T14:31:16Z</time>
      </trkpt>
      <trkpt lat="45.98304" lon="4.80154">
        <ele>228</ele>
        <time>2017-07-04T14:31:17Z</time>
      </trkpt>
      <trkpt lat="45.98307" lon="4.80162">
        <ele>228</ele>
        <time>2017-07-04T14:31:18Z</time>
      </trkpt>
      <trkpt lat="45.98309" lon="4.80169">
        <ele>227</ele>
        <time>2017-07-04T14:31:19Z</time>
      </trkpt>
      <trkpt lat="45.98311" lon="4.80177">
        <ele>227</ele>
        <time>2017-07-04T14:31:20Z</time>
      </trkpt>
      <trkpt lat="45.98314" lon="4.80183">
        <ele>227</ele>
        <time>2017-07-04T14:31:21Z</time>
      </trkpt>
      <trkpt lat="45.98316" lon="4.8019">
        <ele>227</ele>
        <time>2017-07-04T14:31:22Z</time>
      </trkpt>
      <trkpt lat="45.98319" lon="4.80197">
        <ele>227</ele>
        <time>2017-07-04T14:31:23Z</time>
      </trkpt>
      <trkpt lat="45.98321" lon="4.80204">
        <ele>227</ele>
        <time>2017-07-04T14:31:24Z</time>
      </trkpt>
      <trkpt lat="45.98323" lon="4.8021">
        <ele>227</ele>
        <time>2017-07-04T14:31:25Z</time>
      </trkpt>
      <trkpt lat="45.98326" lon="4.80217">
        <ele>227</ele>
        <time>2017-07-04T14:31:26Z</time>
      </trkpt>
      <trkpt lat="45.98328" lon="4.80223">
        <ele>227</ele>
        <time>2017-07-04T14:31:27Z</time>
      </trkpt>
      <trkpt lat="45.9833" lon="4.80229">
        <ele>228</ele>
        <time>2017-07-04T14:31:28Z</time>
      </trkpt>
      <trkpt lat="45.98329" lon="4.80236">
        <ele>228</ele>
        <time>2017-07-04T14:31:29Z</time>
      </trkpt>
      <trkpt lat="45.98327" lon="4.80243">
        <ele>229</ele>
        <time>2017-07-04T14:31:30Z</time>
      </trkpt>
      <trkpt lat="45.98326" lon="4.80251">
        <ele>229</ele>
        <time>2017-07-04T14:31:31Z</time>
      </trkpt>
      <trkpt lat="45.98325" lon="4.80259">
        <ele>228</ele>
        <time>2017-07-04T14:31:32Z</time>
      </trkpt>
      <trkpt lat="45.98324" lon="4.80267">
        <ele>227</ele>
        <time>2017-07-04T14:31:33Z</time>
      </trkpt>
      <trkpt lat="45.98323" lon="4.80275">
        <ele>227</ele>
        <time>2017-07-04T14:31:34Z</time>
      </trkpt>
      <trkpt lat="45.98321" lon="4.80283">
        <ele>227</ele>
        <time>2017-07-04T14:31:35Z</time>
      </trkpt>
      <trkpt lat="45.98318" lon="4.80292">
        <ele>226</ele>
        <time>2017-07-04T14:31:36Z</time>
      </trkpt>
      <trkpt lat="45.98317" lon="4.803">
        <ele>226</ele>
        <time>2017-07-04T14:31:37Z</time>
      </trkpt>
      <trkpt lat="45.98315" lon="4.80309">
        <ele>227</ele>
        <time>2017-07-04T14:31:38Z</time>
      </trkpt>
      <trkpt lat="45.98313" lon="4.80319">
        <ele>227</ele>
        <time>2017-07-04T14:31:39Z</time>
      </trkpt>
      <trkpt lat="45.98312" lon="4.80328">
        <ele>227</ele>
        <time>2017-07-04T14:31:40Z</time>
      </trkpt>
      <trkpt lat="45.9831" lon="4.80338">
        <ele>226</ele>
        <time>2017-07-04T14:31:41Z</time>
      </trkpt>
      <trkpt lat="45.98308" lon="4.80347">
        <ele>226</ele>
        <time>2017-07-04T14:31:42Z</time>
      </trkpt>
      <trkpt lat="45.98306" lon="4.80356">
        <ele>225</ele>
        <time>2017-07-04T14:31:43Z</time>
      </trkpt>
      <trkpt lat="45.98305" lon="4.80366">
        <ele>225</ele>
        <time>2017-07-04T14:31:44Z</time>
      </trkpt>
      <trkpt lat="45.98302" lon="4.80374">
        <ele>225</ele>
        <time>2017-07-04T14:31:45Z</time>
      </trkpt>
      <trkpt lat="45.98299" lon="4.80384">
        <ele>225</ele>
        <time>2017-07-04T14:31:46Z</time>
      </trkpt>
      <trkpt lat="45.98298" lon="4.80395">
        <ele>225</ele>
        <time>2017-07-04T14:31:47Z</time>
      </trkpt>
      <trkpt lat="45.98295" lon="4.80405">
        <ele>224</ele>
        <time>2017-07-04T14:31:48Z</time>
      </trkpt>
      <trkpt lat="45.98293" lon="4.80415">
        <ele>224</ele>
        <time>2017-07-04T14:31:49Z</time>
      </trkpt>
      <trkpt lat="45.98291" lon="4.80425">
        <ele>224</ele>
        <time>2017-07-04T14:31:50Z</time>
      </trkpt>
      <trkpt lat="45.98289" lon="4.80434">
        <ele>224</ele>
        <time>2017-07-04T14:31:51Z</time>
      </trkpt>
      <trkpt lat="45.98286" lon="4.80444">
        <ele>224</ele>
        <time>2017-07-04T14:31:52Z</time>
      </trkpt>
      <trkpt lat="45.98283" lon="4.80454">
        <ele>223</ele>
        <time>2017-07-04T14:31:53Z</time>
      </trkpt>
      <trkpt lat="45.9828" lon="4.80463">
        <ele>223</ele>
        <time>2017-07-04T14:31:54Z</time>
      </trkpt>
      <trkpt lat="45.98278" lon="4.80473">
        <ele>223</ele>
        <time>2017-07-04T14:31:55Z</time>
      </trkpt>
      <trkpt lat="45.98276" lon="4.80483">
        <ele>223</ele>
        <time>2017-07-04T14:31:56Z</time>
      </trkpt>
      <trkpt lat="45.98274" lon="4.80492">
        <ele>223</ele>
        <time>2017-07-04T14:31:57Z</time>
      </trkpt>
      <trkpt lat="45.9827" lon="4.80499">
        <ele>223</ele>
        <time>2017-07-04T14:31:58Z</time>
      </trkpt>
      <trkpt lat="45.98268" lon="4.80508">
        <ele>223</ele>
        <time>2017-07-04T14:31:59Z</time>
      </trkpt>
      <trkpt lat="45.98266" lon="4.80516">
        <ele>223</ele>
        <time>2017-07-04T14:32:00Z</time>
      </trkpt>
      <trkpt lat="45.98264" lon="4.80524">
        <ele>224</ele>
        <time>2017-07-04T14:32:01Z</time>
      </trkpt>
      <trkpt lat="45.98262" lon="4.80531">
        <ele>224</ele>
        <time>2017-07-04T14:32:02Z</time>
      </trkpt>
      <trkpt lat="45.9826" lon="4.80538">
        <ele>224</ele>
        <time>2017-07-04T14:32:03Z</time>
      </trkpt>
      <trkpt lat="45.98258" lon="4.80545">
        <ele>224</ele>
        <time>2017-07-04T14:32:04Z</time>
      </trkpt>
      <trkpt lat="45.98256" lon="4.80552">
        <ele>224</ele>
        <time>2017-07-04T14:32:05Z</time>
      </trkpt>
      <trkpt lat="45.98254" lon="4.80559">
        <ele>224</ele>
        <time>2017-07-04T14:32:06Z</time>
      </trkpt>
      <trkpt lat="45.98252" lon="4.80565">
        <ele>224</ele>
        <time>2017-07-04T14:32:07Z</time>
      </trkpt>
      <trkpt lat="45.9825" lon="4.80572">
        <ele>224</ele>
        <time>2017-07-04T14:32:08Z</time>
      </trkpt>
      <trkpt lat="45.98248" lon="4.80578">
        <ele>224</ele>
        <time>2017-07-04T14:32:09Z</time>
      </trkpt>
      <trkpt lat="45.98246" lon="4.80584">
        <ele>224</ele>
        <time>2017-07-04T14:32:10Z</time>
      </trkpt>
      <trkpt lat="45.98244" lon="4.8059">
        <ele>224</ele>
        <time>2017-07-04T14:32:11Z</time>
      </trkpt>
      <trkpt lat="45.98242" lon="4.80597">
        <ele>224</ele>
        <time>2017-07-04T14:32:12Z</time>
      </trkpt>
      <trkpt lat="45.9824" lon="4.80604">
        <ele>224</ele>
        <time>2017-07-04T14:32:13Z</time>
      </trkpt>
      <trkpt lat="45.98238" lon="4.80612">
        <ele>224</ele>
        <time>2017-07-04T14:32:14Z</time>
      </trkpt>
      <trkpt lat="45.98236" lon="4.80619">
        <ele>224</ele>
        <time>2017-07-04T14:32:15Z</time>
      </trkpt>
      <trkpt lat="45.98234" lon="4.80626">
        <ele>224</ele>
        <time>2017-07-04T14:32:16Z</time>
      </trkpt>
      <trkpt lat="45.98233" lon="4.80632">
        <ele>224</ele>
        <time>2017-07-04T14:32:17Z</time>
      </trkpt>
      <trkpt lat="45.98229" lon="4.80643">
        <ele>224</ele>
        <time>2017-07-04T14:32:19Z</time>
      </trkpt>
      <trkpt lat="45.98227" lon="4.80648">
        <ele>224</ele>
        <time>2017-07-04T14:32:20Z</time>
      </trkpt>
      <trkpt lat="45.98223" lon="4.80658">
        <ele>224</ele>
        <time>2017-07-04T14:32:22Z</time>
      </trkpt>
      <trkpt lat="45.98222" lon="4.80663">
        <ele>224</ele>
        <time>2017-07-04T14:32:23Z</time>
      </trkpt>
      <trkpt lat="45.98216" lon="4.80669">
        <ele>224</ele>
        <time>2017-07-04T14:32:25Z</time>
      </trkpt>
      <trkpt lat="45.98212" lon="4.80671">
        <ele>224</ele>
        <time>2017-07-04T14:32:26Z</time>
      </trkpt>
      <trkpt lat="45.98204" lon="4.80674">
        <ele>224</ele>
        <time>2017-07-04T14:32:28Z</time>
      </trkpt>
      <trkpt lat="45.982" lon="4.80676">
        <ele>225</ele>
        <time>2017-07-04T14:32:29Z</time>
      </trkpt>
      <trkpt lat="45.98192" lon="4.8068">
        <ele>225</ele>
        <time>2017-07-04T14:32:31Z</time>
      </trkpt>
      <trkpt lat="45.98188" lon="4.80682">
        <ele>225</ele>
        <time>2017-07-04T14:32:32Z</time>
      </trkpt>
      <trkpt lat="45.98183" lon="4.80683">
        <ele>225</ele>
        <time>2017-07-04T14:32:33Z</time>
      </trkpt>
      <trkpt lat="45.98179" lon="4.80684">
        <ele>225</ele>
        <time>2017-07-04T14:32:34Z</time>
      </trkpt>
      <trkpt lat="45.98174" lon="4.80684">
        <ele>225</ele>
        <time>2017-07-04T14:32:35Z</time>
      </trkpt>
      <trkpt lat="45.98169" lon="4.80685">
        <ele>225</ele>
        <time>2017-07-04T14:32:36Z</time>
      </trkpt>
      <trkpt lat="45.98164" lon="4.80685">
        <ele>227</ele>
        <time>2017-07-04T14:32:37Z</time>
      </trkpt>
      <trkpt lat="45.98159" lon="4.80686">
        <ele>227</ele>
        <time>2017-07-04T14:32:38Z</time>
      </trkpt>
      <trkpt lat="45.98155" lon="4.80687">
        <ele>227</ele>
        <time>2017-07-04T14:32:39Z</time>
      </trkpt>
      <trkpt lat="45.9815" lon="4.80687">
        <ele>227</ele>
        <time>2017-07-04T14:32:40Z</time>
      </trkpt>
      <trkpt lat="45.98145" lon="4.80688">
        <ele>228</ele>
        <time>2017-07-04T14:32:41Z</time>
      </trkpt>
      <trkpt lat="45.9814" lon="4.80688">
        <ele>228</ele>
        <time>2017-07-04T14:32:42Z</time>
      </trkpt>
      <trkpt lat="45.98131" lon="4.80689">
        <ele>228</ele>
        <time>2017-07-04T14:32:44Z</time>
      </trkpt>
      <trkpt lat="45.98127" lon="4.80689">
        <ele>228</ele>
        <time>2017-07-04T14:32:45Z</time>
      </trkpt>
      <trkpt lat="45.98118" lon="4.8069">
        <ele>228</ele>
        <time>2017-07-04T14:32:47Z</time>
      </trkpt>
      <trkpt lat="45.98114" lon="4.8069">
        <ele>228</ele>
        <time>2017-07-04T14:32:48Z</time>
      </trkpt>
      <trkpt lat="45.98106" lon="4.80691">
        <ele>228</ele>
        <time>2017-07-04T14:32:50Z</time>
      </trkpt>
      <trkpt lat="45.98102" lon="4.8069">
        <ele>228</ele>
        <time>2017-07-04T14:32:51Z</time>
      </trkpt>
      <trkpt lat="45.98094" lon="4.80691">
        <ele>228</ele>
        <time>2017-07-04T14:32:53Z</time>
      </trkpt>
      <trkpt lat="45.9809" lon="4.80692">
        <ele>228</ele>
        <time>2017-07-04T14:32:54Z</time>
      </trkpt>
      <trkpt lat="45.98083" lon="4.80692">
        <ele>230</ele>
        <time>2017-07-04T14:32:56Z</time>
      </trkpt>
      <trkpt lat="45.98079" lon="4.80693">
        <ele>230</ele>
        <time>2017-07-04T14:32:57Z</time>
      </trkpt>
      <trkpt lat="45.98074" lon="4.80693">
        <ele>230</ele>
        <time>2017-07-04T14:32:58Z</time>
      </trkpt>
      <trkpt lat="45.9807" lon="4.80694">
        <ele>230</ele>
        <time>2017-07-04T14:32:59Z</time>
      </trkpt>
      <trkpt lat="45.98061" lon="4.80695">
        <ele>230</ele>
        <time>2017-07-04T14:33:01Z</time>
      </trkpt>
      <trkpt lat="45.98057" lon="4.80695">
        <ele>230</ele>
        <time>2017-07-04T14:33:02Z</time>
      </trkpt>
      <trkpt lat="45.9805" lon="4.80696">
        <ele>230</ele>
        <time>2017-07-04T14:33:04Z</time>
      </trkpt>
      <trkpt lat="45.98046" lon="4.80697">
        <ele>230</ele>
        <time>2017-07-04T14:33:05Z</time>
      </trkpt>
      <trkpt lat="45.98039" lon="4.80698">
        <ele>230</ele>
        <time>2017-07-04T14:33:07Z</time>
      </trkpt>
      <trkpt lat="45.98036" lon="4.807">
        <ele>230</ele>
        <time>2017-07-04T14:33:08Z</time>
      </trkpt>
      <trkpt lat="45.98031" lon="4.80706">
        <ele>231</ele>
        <time>2017-07-04T14:33:10Z</time>
      </trkpt>
      <trkpt lat="45.98029" lon="4.8071">
        <ele>231</ele>
        <time>2017-07-04T14:33:11Z</time>
      </trkpt>
      <trkpt lat="45.98029" lon="4.80719">
        <ele>231</ele>
        <time>2017-07-04T14:33:13Z</time>
      </trkpt>
      <trkpt lat="45.9803" lon="4.80723">
        <ele>231</ele>
        <time>2017-07-04T14:33:14Z</time>
      </trkpt>
      <trkpt lat="45.98032" lon="4.80733">
        <ele>231</ele>
        <time>2017-07-04T14:33:16Z</time>
      </trkpt>
      <trkpt lat="45.98034" lon="4.80738">
        <ele>231</ele>
        <time>2017-07-04T14:33:17Z</time>
      </trkpt>
      <trkpt lat="45.98036" lon="4.80749">
        <ele>231</ele>
        <time>2017-07-04T14:33:20Z</time>
      </trkpt>
      <trkpt lat="45.98037" lon="4.80752">
        <ele>233</ele>
        <time>2017-07-04T14:33:21Z</time>
      </trkpt>
      <trkpt lat="45.98039" lon="4.80763">
        <ele>233</ele>
        <time>2017-07-04T14:33:24Z</time>
      </trkpt>
      <trkpt lat="45.9804" lon="4.80767">
        <ele>233</ele>
        <time>2017-07-04T14:33:25Z</time>
      </trkpt>
      <trkpt lat="45.98044" lon="4.80777">
        <ele>233</ele>
        <time>2017-07-04T14:33:28Z</time>
      </trkpt>
      <trkpt lat="45.98045" lon="4.80781">
        <ele>233</ele>
        <time>2017-07-04T14:33:29Z</time>
      </trkpt>
      <trkpt lat="45.98048" lon="4.80792">
        <ele>233</ele>
        <time>2017-07-04T14:33:32Z</time>
      </trkpt>
      <trkpt lat="45.98049" lon="4.80795">
        <ele>233</ele>
        <time>2017-07-04T14:33:33Z</time>
      </trkpt>
      <trkpt lat="45.98052" lon="4.80806">
        <ele>234</ele>
        <time>2017-07-04T14:33:36Z</time>
      </trkpt>
      <trkpt lat="45.98052" lon="4.8081">
        <ele>234</ele>
        <time>2017-07-04T14:33:37Z</time>
      </trkpt>
      <trkpt lat="45.98054" lon="4.80822">
        <ele>234</ele>
        <time>2017-07-04T14:33:40Z</time>
      </trkpt>
      <trkpt lat="45.98055" lon="4.80825">
        <ele>234</ele>
        <time>2017-07-04T14:33:41Z</time>
      </trkpt>
      <trkpt lat="45.98057" lon="4.80835">
        <ele>236</ele>
        <time>2017-07-04T14:33:44Z</time>
      </trkpt>
      <trkpt lat="45.98057" lon="4.80838">
        <ele>236</ele>
        <time>2017-07-04T14:33:45Z</time>
      </trkpt>
      <trkpt lat="45.9806" lon="4.80848">
        <ele>236</ele>
        <time>2017-07-04T14:33:48Z</time>
      </trkpt>
      <trkpt lat="45.98061" lon="4.80851">
        <ele>236</ele>
        <time>2017-07-04T14:33:49Z</time>
      </trkpt>
      <trkpt lat="45.98063" lon="4.80861">
        <ele>237</ele>
        <time>2017-07-04T14:33:52Z</time>
      </trkpt>
      <trkpt lat="45.98064" lon="4.80864">
        <ele>237</ele>
        <time>2017-07-04T14:33:53Z</time>
      </trkpt>
      <trkpt lat="45.98067" lon="4.80875">
        <ele>237</ele>
        <time>2017-07-04T14:33:57Z</time>
      </trkpt>
      <trkpt lat="45.98067" lon="4.80878">
        <ele>237</ele>
        <time>2017-07-04T14:33:58Z</time>
      </trkpt>
      <trkpt lat="45.9807" lon="4.80888">
        <ele>238</ele>
        <time>2017-07-04T14:34:02Z</time>
      </trkpt>
      <trkpt lat="45.98071" lon="4.80891">
        <ele>238</ele>
        <time>2017-07-04T14:34:03Z</time>
      </trkpt>
      <trkpt lat="45.98074" lon="4.80902">
        <ele>238</ele>
        <time>2017-07-04T14:34:07Z</time>
      </trkpt>
      <trkpt lat="45.98074" lon="4.80905">
        <ele>238</ele>
        <time>2017-07-04T14:34:08Z</time>
      </trkpt>
      <trkpt lat="45.98078" lon="4.80915">
        <ele>239</ele>
        <time>2017-07-04T14:34:12Z</time>
      </trkpt>
      <trkpt lat="45.98079" lon="4.80918">
        <ele>239</ele>
        <time>2017-07-04T14:34:13Z</time>
      </trkpt>
      <trkpt lat="45.98081" lon="4.8093">
        <ele>240</ele>
        <time>2017-07-04T14:34:18Z</time>
      </trkpt>
      <trkpt lat="45.98082" lon="4.80932">
        <ele>240</ele>
        <time>2017-07-04T14:34:19Z</time>
      </trkpt>
      <trkpt lat="45.98086" lon="4.80943">
        <ele>238</ele>
        <time>2017-07-04T14:34:23Z</time>
      </trkpt>
      <trkpt lat="45.98087" lon="4.80946">
        <ele>238</ele>
        <time>2017-07-04T14:34:24Z</time>
      </trkpt>
      <trkpt lat="45.9809" lon="4.80956">
        <ele>238</ele>
        <time>2017-07-04T14:34:27Z</time>
      </trkpt>
      <trkpt lat="45.9809" lon="4.80959">
        <ele>239</ele>
        <time>2017-07-04T14:34:28Z</time>
      </trkpt>
      <trkpt lat="45.98093" lon="4.8097">
        <ele>239</ele>
        <time>2017-07-04T14:34:32Z</time>
      </trkpt>
      <trkpt lat="45.98094" lon="4.80973">
        <ele>239</ele>
        <time>2017-07-04T14:34:33Z</time>
      </trkpt>
      <trkpt lat="45.98097" lon="4.80985">
        <ele>240</ele>
        <time>2017-07-04T14:34:37Z</time>
      </trkpt>
      <trkpt lat="45.98097" lon="4.80987">
        <ele>240</ele>
        <time>2017-07-04T14:34:38Z</time>
      </trkpt>
      <trkpt lat="45.98101" lon="4.80997">
        <ele>240</ele>
        <time>2017-07-04T14:34:42Z</time>
      </trkpt>
      <trkpt lat="45.98102" lon="4.81">
        <ele>240</ele>
        <time>2017-07-04T14:34:43Z</time>
      </trkpt>
      <trkpt lat="45.98106" lon="4.81007">
        <ele>242</ele>
        <time>2017-07-04T14:34:45Z</time>
      </trkpt>
      <trkpt lat="45.98108" lon="4.81012">
        <ele>242</ele>
        <time>2017-07-04T14:34:46Z</time>
      </trkpt>
      <trkpt lat="45.98111" lon="4.8102">
        <ele>242</ele>
        <time>2017-07-04T14:34:48Z</time>
      </trkpt>
      <trkpt lat="45.98112" lon="4.81024">
        <ele>242</ele>
        <time>2017-07-04T14:34:49Z</time>
      </trkpt>
      <trkpt lat="45.98115" lon="4.81035">
        <ele>242</ele>
        <time>2017-07-04T14:34:52Z</time>
      </trkpt>
      <trkpt lat="45.98117" lon="4.81039">
        <ele>242</ele>
        <time>2017-07-04T14:34:53Z</time>
      </trkpt>
      <trkpt lat="45.98118" lon="4.81048">
        <ele>243</ele>
        <time>2017-07-04T14:34:55Z</time>
      </trkpt>
      <trkpt lat="45.9812" lon="4.81052">
        <ele>243</ele>
        <time>2017-07-04T14:34:56Z</time>
      </trkpt>
      <trkpt lat="45.98123" lon="4.81061">
        <ele>243</ele>
        <time>2017-07-04T14:34:58Z</time>
      </trkpt>
      <trkpt lat="45.98125" lon="4.81065">
        <ele>243</ele>
        <time>2017-07-04T14:34:59Z</time>
      </trkpt>
      <trkpt lat="45.98128" lon="4.81074">
        <ele>243</ele>
        <time>2017-07-04T14:35:01Z</time>
      </trkpt>
      <trkpt lat="45.9813" lon="4.81079">
        <ele>243</ele>
        <time>2017-07-04T14:35:02Z</time>
      </trkpt>
      <trkpt lat="45.98133" lon="4.81087">
        <ele>245</ele>
        <time>2017-07-04T14:35:04Z</time>
      </trkpt>
      <trkpt lat="45.98134" lon="4.81091">
        <ele>245</ele>
        <time>2017-07-04T14:35:05Z</time>
      </trkpt>
      <trkpt lat="45.98139" lon="4.81102">
        <ele>245</ele>
        <time>2017-07-04T14:35:08Z</time>
      </trkpt>
      <trkpt lat="45.98141" lon="4.81106">
        <ele>245</ele>
        <time>2017-07-04T14:35:09Z</time>
      </trkpt>
      <trkpt lat="45.98144" lon="4.81116">
        <ele>245</ele>
        <time>2017-07-04T14:35:11Z</time>
      </trkpt>
      <trkpt lat="45.98144" lon="4.81121">
        <ele>245</ele>
        <time>2017-07-04T14:35:12Z</time>
      </trkpt>
      <trkpt lat="45.98148" lon="4.81131">
        <ele>245</ele>
        <time>2017-07-04T14:35:14Z</time>
      </trkpt>
      <trkpt lat="45.9815" lon="4.81135">
        <ele>245</ele>
        <time>2017-07-04T14:35:15Z</time>
      </trkpt>
      <trkpt lat="45.98153" lon="4.81144">
        <ele>245</ele>
        <time>2017-07-04T14:35:17Z</time>
      </trkpt>
      <trkpt lat="45.98154" lon="4.81149">
        <ele>245</ele>
        <time>2017-07-04T14:35:18Z</time>
      </trkpt>
      <trkpt lat="45.98157" lon="4.81157">
        <ele>245</ele>
        <time>2017-07-04T14:35:20Z</time>
      </trkpt>
      <trkpt lat="45.98158" lon="4.81162">
        <ele>245</ele>
        <time>2017-07-04T14:35:21Z</time>
      </trkpt>
      <trkpt lat="45.98162" lon="4.8117">
        <ele>245</ele>
        <time>2017-07-04T14:35:23Z</time>
      </trkpt>
      <trkpt lat="45.98164" lon="4.81174">
        <ele>246</ele>
        <time>2017-07-04T14:35:24Z</time>
      </trkpt>
      <trkpt lat="45.98166" lon="4.81183">
        <ele>246</ele>
        <time>2017-07-04T14:35:26Z</time>
      </trkpt>
      <trkpt lat="45.98167" lon="4.81188">
        <ele>245</ele>
        <time>2017-07-04T14:35:27Z</time>
      </trkpt>
      <trkpt lat="45.98169" lon="4.81198">
        <ele>245</ele>
        <time>2017-07-04T14:35:29Z</time>
      </trkpt>
      <trkpt lat="45.9817" lon="4.81204">
        <ele>245</ele>
        <time>2017-07-04T14:35:30Z</time>
      </trkpt>
      <trkpt lat="45.98171" lon="4.81215">
        <ele>246</ele>
        <time>2017-07-04T14:35:32Z</time>
      </trkpt>
      <trkpt lat="45.98171" lon="4.81221">
        <ele>246</ele>
        <time>2017-07-04T14:35:33Z</time>
      </trkpt>
      <trkpt lat="45.98173" lon="4.81231">
        <ele>246</ele>
        <time>2017-07-04T14:35:35Z</time>
      </trkpt>
      <trkpt lat="45.98173" lon="4.81235">
        <ele>247</ele>
        <time>2017-07-04T14:35:36Z</time>
      </trkpt>
      <trkpt lat="45.98176" lon="4.81244">
        <ele>247</ele>
        <time>2017-07-04T14:35:38Z</time>
      </trkpt>
      <trkpt lat="45.98177" lon="4.81248">
        <ele>247</ele>
        <time>2017-07-04T14:35:39Z</time>
      </trkpt>
      <trkpt lat="45.98178" lon="4.81261">
        <ele>247</ele>
        <time>2017-07-04T14:35:42Z</time>
      </trkpt>
      <trkpt lat="45.98179" lon="4.81265">
        <ele>247</ele>
        <time>2017-07-04T14:35:43Z</time>
      </trkpt>
      <trkpt lat="45.98179" lon="4.81274">
        <ele>247</ele>
        <time>2017-07-04T14:35:45Z</time>
      </trkpt>
      <trkpt lat="45.9818" lon="4.81278">
        <ele>247</ele>
        <time>2017-07-04T14:35:46Z</time>
      </trkpt>
      <trkpt lat="45.98182" lon="4.81289">
        <ele>247</ele>
        <time>2017-07-04T14:35:48Z</time>
      </trkpt>
      <trkpt lat="45.98183" lon="4.81293">
        <ele>247</ele>
        <time>2017-07-04T14:35:49Z</time>
      </trkpt>
      <trkpt lat="45.98186" lon="4.81303">
        <ele>247</ele>
        <time>2017-07-04T14:35:51Z</time>
      </trkpt>
      <trkpt lat="45.98187" lon="4.81309">
        <ele>247</ele>
        <time>2017-07-04T14:35:52Z</time>
      </trkpt>
      <trkpt lat="45.98189" lon="4.8132">
        <ele>247</ele>
        <time>2017-07-04T14:35:54Z</time>
      </trkpt>
      <trkpt lat="45.9819" lon="4.81325">
        <ele>247</ele>
        <time>2017-07-04T14:35:55Z</time>
      </trkpt>
      <trkpt lat="45.98192" lon="4.81336">
        <ele>248</ele>
        <time>2017-07-04T14:35:57Z</time>
      </trkpt>
      <trkpt lat="45.98193" lon="4.81341">
        <ele>248</ele>
        <time>2017-07-04T14:35:58Z</time>
      </trkpt>
      <trkpt lat="45.98196" lon="4.81352">
        <ele>248</ele>
        <time>2017-07-04T14:36:00Z</time>
      </trkpt>
      <trkpt lat="45.98197" lon="4.81357">
        <ele>248</ele>
        <time>2017-07-04T14:36:01Z</time>
      </trkpt>
      <trkpt lat="45.98199" lon="4.81365">
        <ele>248</ele>
        <time>2017-07-04T14:36:03Z</time>
      </trkpt>
      <trkpt lat="45.982" lon="4.8137">
        <ele>248</ele>
        <time>2017-07-04T14:36:04Z</time>
      </trkpt>
      <trkpt lat="45.98202" lon="4.8138">
        <ele>248</ele>
        <time>2017-07-04T14:36:06Z</time>
      </trkpt>
      <trkpt lat="45.98203" lon="4.81384">
        <ele>248</ele>
        <time>2017-07-04T14:36:07Z</time>
      </trkpt>
      <trkpt lat="45.98208" lon="4.81395">
        <ele>248</ele>
        <time>2017-07-04T14:36:10Z</time>
      </trkpt>
      <trkpt lat="45.98209" lon="4.81399">
        <ele>248</ele>
        <time>2017-07-04T14:36:11Z</time>
      </trkpt>
      <trkpt lat="45.98212" lon="4.81408">
        <ele>248</ele>
        <time>2017-07-04T14:36:13Z</time>
      </trkpt>
      <trkpt lat="45.98213" lon="4.81413">
        <ele>248</ele>
        <time>2017-07-04T14:36:14Z</time>
      </trkpt>
      <trkpt lat="45.98214" lon="4.81423">
        <ele>249</ele>
        <time>2017-07-04T14:36:16Z</time>
      </trkpt>
      <trkpt lat="45.98216" lon="4.81428">
        <ele>249</ele>
        <time>2017-07-04T14:36:17Z</time>
      </trkpt>
      <trkpt lat="45.98219" lon="4.81438">
        <ele>249</ele>
        <time>2017-07-04T14:36:19Z</time>
      </trkpt>
      <trkpt lat="45.9822" lon="4.81443">
        <ele>249</ele>
        <time>2017-07-04T14:36:20Z</time>
      </trkpt>
      <trkpt lat="45.98224" lon="4.81452">
        <ele>249</ele>
        <time>2017-07-04T14:36:22Z</time>
      </trkpt>
      <trkpt lat="45.98225" lon="4.81458">
        <ele>249</ele>
        <time>2017-07-04T14:36:23Z</time>
      </trkpt>
      <trkpt lat="45.98229" lon="4.81467">
        <ele>249</ele>
        <time>2017-07-04T14:36:25Z</time>
      </trkpt>
      <trkpt lat="45.98231" lon="4.81472">
        <ele>249</ele>
        <time>2017-07-04T14:36:26Z</time>
      </trkpt>
      <trkpt lat="45.98235" lon="4.81482">
        <ele>249</ele>
        <time>2017-07-04T14:36:28Z</time>
      </trkpt>
      <trkpt lat="45.98237" lon="4.81487">
        <ele>249</ele>
        <time>2017-07-04T14:36:29Z</time>
      </trkpt>
      <trkpt lat="45.98241" lon="4.81497">
        <ele>249</ele>
        <time>2017-07-04T14:36:31Z</time>
      </trkpt>
      <trkpt lat="45.98243" lon="4.81503">
        <ele>249</ele>
        <time>2017-07-04T14:36:32Z</time>
      </trkpt>
      <trkpt lat="45.98245" lon="4.81509">
        <ele>249</ele>
        <time>2017-07-04T14:36:33Z</time>
      </trkpt>
      <trkpt lat="45.98247" lon="4.81514">
        <ele>249</ele>
        <time>2017-07-04T14:36:34Z</time>
      </trkpt>
      <trkpt lat="45.9825" lon="4.8152">
        <ele>249</ele>
        <time>2017-07-04T14:36:35Z</time>
      </trkpt>
      <trkpt lat="45.98252" lon="4.81526">
        <ele>247</ele>
        <time>2017-07-04T14:36:36Z</time>
      </trkpt>
      <trkpt lat="45.98254" lon="4.81533">
        <ele>247</ele>
        <time>2017-07-04T14:36:37Z</time>
      </trkpt>
      <trkpt lat="45.98256" lon="4.81539">
        <ele>247</ele>
        <time>2017-07-04T14:36:38Z</time>
      </trkpt>
      <trkpt lat="45.9826" lon="4.8155">
        <ele>247</ele>
        <time>2017-07-04T14:36:40Z</time>
      </trkpt>
      <trkpt lat="45.98262" lon="4.81556">
        <ele>247</ele>
        <time>2017-07-04T14:36:41Z</time>
      </trkpt>
      <trkpt lat="45.98266" lon="4.81567">
        <ele>247</ele>
        <time>2017-07-04T14:36:43Z</time>
      </trkpt>
      <trkpt lat="45.98268" lon="4.81573">
        <ele>247</ele>
        <time>2017-07-04T14:36:44Z</time>
      </trkpt>
      <trkpt lat="45.9827" lon="4.81579">
        <ele>247</ele>
        <time>2017-07-04T14:36:45Z</time>
      </trkpt>
      <trkpt lat="45.98271" lon="4.81586">
        <ele>247</ele>
        <time>2017-07-04T14:36:46Z</time>
      </trkpt>
      <trkpt lat="45.98276" lon="4.81595">
        <ele>247</ele>
        <time>2017-07-04T14:36:48Z</time>
      </trkpt>
      <trkpt lat="45.98278" lon="4.81601">
        <ele>247</ele>
        <time>2017-07-04T14:36:49Z</time>
      </trkpt>
      <trkpt lat="45.98281" lon="4.81607">
        <ele>247</ele>
        <time>2017-07-04T14:36:50Z</time>
      </trkpt>
      <trkpt lat="45.98283" lon="4.81613">
        <ele>247</ele>
        <time>2017-07-04T14:36:51Z</time>
      </trkpt>
      <trkpt lat="45.98286" lon="4.81619">
        <ele>247</ele>
        <time>2017-07-04T14:36:52Z</time>
      </trkpt>
      <trkpt lat="45.98289" lon="4.81625">
        <ele>247</ele>
        <time>2017-07-04T14:36:53Z</time>
      </trkpt>
      <trkpt lat="45.98292" lon="4.81629">
        <ele>247</ele>
        <time>2017-07-04T14:36:54Z</time>
      </trkpt>
      <trkpt lat="45.98296" lon="4.81634">
        <ele>247</ele>
        <time>2017-07-04T14:36:55Z</time>
      </trkpt>
      <trkpt lat="45.98299" lon="4.81638">
        <ele>246</ele>
        <time>2017-07-04T14:36:56Z</time>
      </trkpt>
      <trkpt lat="45.98303" lon="4.81642">
        <ele>246</ele>
        <time>2017-07-04T14:36:57Z</time>
      </trkpt>
      <trkpt lat="45.98306" lon="4.81646">
        <ele>246</ele>
        <time>2017-07-04T14:36:58Z</time>
      </trkpt>
      <trkpt lat="45.9831" lon="4.8165">
        <ele>246</ele>
        <time>2017-07-04T14:36:59Z</time>
      </trkpt>
      <trkpt lat="45.98314" lon="4.81654">
        <ele>246</ele>
        <time>2017-07-04T14:37:00Z</time>
      </trkpt>
      <trkpt lat="45.98318" lon="4.81658">
        <ele>246</ele>
        <time>2017-07-04T14:37:01Z</time>
      </trkpt>
      <trkpt lat="45.98323" lon="4.81663">
        <ele>246</ele>
        <time>2017-07-04T14:37:02Z</time>
      </trkpt>
      <trkpt lat="45.98327" lon="4.81667">
        <ele>246</ele>
        <time>2017-07-04T14:37:03Z</time>
      </trkpt>
      <trkpt lat="45.98331" lon="4.81671">
        <ele>246</ele>
        <time>2017-07-04T14:37:04Z</time>
      </trkpt>
      <trkpt lat="45.98336" lon="4.81674">
        <ele>245</ele>
        <time>2017-07-04T14:37:05Z</time>
      </trkpt>
      <trkpt lat="45.98341" lon="4.81676">
        <ele>245</ele>
        <time>2017-07-04T14:37:06Z</time>
      </trkpt>
      <trkpt lat="45.98346" lon="4.81679">
        <ele>245</ele>
        <time>2017-07-04T14:37:07Z</time>
      </trkpt>
      <trkpt lat="45.98351" lon="4.81681">
        <ele>245</ele>
        <time>2017-07-04T14:37:08Z</time>
      </trkpt>
      <trkpt lat="45.98356" lon="4.81681">
        <ele>245</ele>
        <time>2017-07-04T14:37:09Z</time>
      </trkpt>
      <trkpt lat="45.98361" lon="4.81681">
        <ele>244</ele>
        <time>2017-07-04T14:37:10Z</time>
      </trkpt>
      <trkpt lat="45.98367" lon="4.81681">
        <ele>244</ele>
        <time>2017-07-04T14:37:11Z</time>
      </trkpt>
      <trkpt lat="45.98372" lon="4.81679">
        <ele>244</ele>
        <time>2017-07-04T14:37:12Z</time>
      </trkpt>
      <trkpt lat="45.98377" lon="4.81678">
        <ele>244</ele>
        <time>2017-07-04T14:37:13Z</time>
      </trkpt>
      <trkpt lat="45.98382" lon="4.81676">
        <ele>244</ele>
        <time>2017-07-04T14:37:14Z</time>
      </trkpt>
      <trkpt lat="45.98387" lon="4.81676">
        <ele>243</ele>
        <time>2017-07-04T14:37:15Z</time>
      </trkpt>
      <trkpt lat="45.98392" lon="4.81675">
        <ele>243</ele>
        <time>2017-07-04T14:37:16Z</time>
      </trkpt>
      <trkpt lat="45.98397" lon="4.81674">
        <ele>243</ele>
        <time>2017-07-04T14:37:17Z</time>
      </trkpt>
      <trkpt lat="45.98401" lon="4.81672">
        <ele>243</ele>
        <time>2017-07-04T14:37:18Z</time>
      </trkpt>
      <trkpt lat="45.98406" lon="4.81671">
        <ele>242</ele>
        <time>2017-07-04T14:37:19Z</time>
      </trkpt>
      <trkpt lat="45.9841" lon="4.81671">
        <ele>242</ele>
        <time>2017-07-04T14:37:20Z</time>
      </trkpt>
      <trkpt lat="45.98415" lon="4.81671">
        <ele>241</ele>
        <time>2017-07-04T14:37:21Z</time>
      </trkpt>
      <trkpt lat="45.9842" lon="4.81671">
        <ele>241</ele>
        <time>2017-07-04T14:37:22Z</time>
      </trkpt>
      <trkpt lat="45.98424" lon="4.81672">
        <ele>240</ele>
        <time>2017-07-04T14:37:23Z</time>
      </trkpt>
      <trkpt lat="45.98429" lon="4.81673">
        <ele>240</ele>
        <time>2017-07-04T14:37:24Z</time>
      </trkpt>
      <trkpt lat="45.98434" lon="4.81676">
        <ele>240</ele>
        <time>2017-07-04T14:37:25Z</time>
      </trkpt>
      <trkpt lat="45.98438" lon="4.81679">
        <ele>240</ele>
        <time>2017-07-04T14:37:26Z</time>
      </trkpt>
      <trkpt lat="45.98442" lon="4.81681">
        <ele>239</ele>
        <time>2017-07-04T14:37:27Z</time>
      </trkpt>
      <trkpt lat="45.98446" lon="4.81685">
        <ele>239</ele>
        <time>2017-07-04T14:37:28Z</time>
      </trkpt>
      <trkpt lat="45.98449" lon="4.8169">
        <ele>239</ele>
        <time>2017-07-04T14:37:29Z</time>
      </trkpt>
      <trkpt lat="45.98452" lon="4.81695">
        <ele>239</ele>
        <time>2017-07-04T14:37:30Z</time>
      </trkpt>
      <trkpt lat="45.98455" lon="4.81701">
        <ele>239</ele>
        <time>2017-07-04T14:37:31Z</time>
      </trkpt>
      <trkpt lat="45.98458" lon="4.81708">
        <ele>239</ele>
        <time>2017-07-04T14:37:32Z</time>
      </trkpt>
      <trkpt lat="45.98462" lon="4.81714">
        <ele>239</ele>
        <time>2017-07-04T14:37:33Z</time>
      </trkpt>
      <trkpt lat="45.98466" lon="4.81719">
        <ele>239</ele>
        <time>2017-07-04T14:37:34Z</time>
      </trkpt>
      <trkpt lat="45.9847" lon="4.81725">
        <ele>239</ele>
        <time>2017-07-04T14:37:35Z</time>
      </trkpt>
      <trkpt lat="45.98475" lon="4.81732">
        <ele>239</ele>
        <time>2017-07-04T14:37:36Z</time>
      </trkpt>
      <trkpt lat="45.9848" lon="4.81738">
        <ele>238</ele>
        <time>2017-07-04T14:37:37Z</time>
      </trkpt>
      <trkpt lat="45.98486" lon="4.81744">
        <ele>238</ele>
        <time>2017-07-04T14:37:38Z</time>
      </trkpt>
      <trkpt lat="45.98492" lon="4.8175">
        <ele>238</ele>
        <time>2017-07-04T14:37:39Z</time>
      </trkpt>
      <trkpt lat="45.98498" lon="4.81755">
        <ele>238</ele>
        <time>2017-07-04T14:37:40Z</time>
      </trkpt>
      <trkpt lat="45.98503" lon="4.81762">
        <ele>237</ele>
        <time>2017-07-04T14:37:41Z</time>
      </trkpt>
      <trkpt lat="45.98509" lon="4.8177">
        <ele>237</ele>
        <time>2017-07-04T14:37:42Z</time>
      </trkpt>
      <trkpt lat="45.98515" lon="4.81778">
        <ele>238</ele>
        <time>2017-07-04T14:37:43Z</time>
      </trkpt>
      <trkpt lat="45.98521" lon="4.81786">
        <ele>238</ele>
        <time>2017-07-04T14:37:44Z</time>
      </trkpt>
      <trkpt lat="45.98526" lon="4.81794">
        <ele>238</ele>
        <time>2017-07-04T14:37:45Z</time>
      </trkpt>
      <trkpt lat="45.98532" lon="4.81801">
        <ele>238</ele>
        <time>2017-07-04T14:37:46Z</time>
      </trkpt>
      <trkpt lat="45.98536" lon="4.81807">
        <ele>238</ele>
        <time>2017-07-04T14:37:47Z</time>
      </trkpt>
      <trkpt lat="45.98541" lon="4.81812">
        <ele>238</ele>
        <time>2017-07-04T14:37:48Z</time>
      </trkpt>
      <trkpt lat="45.98547" lon="4.81814">
        <ele>238</ele>
        <time>2017-07-04T14:37:49Z</time>
      </trkpt>
      <trkpt lat="45.98552" lon="4.81814">
        <ele>238</ele>
        <time>2017-07-04T14:37:50Z</time>
      </trkpt>
      <trkpt lat="45.98558" lon="4.81813">
        <ele>238</ele>
        <time>2017-07-04T14:37:51Z</time>
      </trkpt>
      <trkpt lat="45.98562" lon="4.81808">
        <ele>238</ele>
        <time>2017-07-04T14:37:52Z</time>
      </trkpt>
      <trkpt lat="45.98567" lon="4.81803">
        <ele>238</ele>
        <time>2017-07-04T14:37:53Z</time>
      </trkpt>
      <trkpt lat="45.98572" lon="4.81796">
        <ele>238</ele>
        <time>2017-07-04T14:37:54Z</time>
      </trkpt>
      <trkpt lat="45.98576" lon="4.8179">
        <ele>238</ele>
        <time>2017-07-04T14:37:55Z</time>
      </trkpt>
      <trkpt lat="45.98581" lon="4.81784">
        <ele>238</ele>
        <time>2017-07-04T14:37:56Z</time>
      </trkpt>
      <trkpt lat="45.98586" lon="4.81779">
        <ele>238</ele>
        <time>2017-07-04T14:37:57Z</time>
      </trkpt>
      <trkpt lat="45.9859" lon="4.81775">
        <ele>238</ele>
        <time>2017-07-04T14:37:58Z</time>
      </trkpt>
      <trkpt lat="45.98595" lon="4.81771">
        <ele>238</ele>
        <time>2017-07-04T14:37:59Z</time>
      </trkpt>
      <trkpt lat="45.986" lon="4.81769">
        <ele>238</ele>
        <time>2017-07-04T14:38:00Z</time>
      </trkpt>
      <trkpt lat="45.98605" lon="4.81767">
        <ele>238</ele>
        <time>2017-07-04T14:38:01Z</time>
      </trkpt>
      <trkpt lat="45.98609" lon="4.81766">
        <ele>238</ele>
        <time>2017-07-04T14:38:02Z</time>
      </trkpt>
      <trkpt lat="45.98615" lon="4.81763">
        <ele>238</ele>
        <time>2017-07-04T14:38:03Z</time>
      </trkpt>
      <trkpt lat="45.9862" lon="4.81763">
        <ele>238</ele>
        <time>2017-07-04T14:38:04Z</time>
      </trkpt>
      <trkpt lat="45.98626" lon="4.81762">
        <ele>238</ele>
        <time>2017-07-04T14:38:05Z</time>
      </trkpt>
      <trkpt lat="45.98631" lon="4.8176">
        <ele>238</ele>
        <time>2017-07-04T14:38:06Z</time>
      </trkpt>
      <trkpt lat="45.98637" lon="4.81758">
        <ele>238</ele>
        <time>2017-07-04T14:38:07Z</time>
      </trkpt>
      <trkpt lat="45.98642" lon="4.81756">
        <ele>238</ele>
        <time>2017-07-04T14:38:08Z</time>
      </trkpt>
      <trkpt lat="45.98648" lon="4.81754">
        <ele>238</ele>
        <time>2017-07-04T14:38:09Z</time>
      </trkpt>
      <trkpt lat="45.98652" lon="4.81752">
        <ele>238</ele>
        <time>2017-07-04T14:38:10Z</time>
      </trkpt>
      <trkpt lat="45.98657" lon="4.81751">
        <ele>238</ele>
        <time>2017-07-04T14:38:11Z</time>
      </trkpt>
      <trkpt lat="45.98662" lon="4.81749">
        <ele>238</ele>
        <time>2017-07-04T14:38:12Z</time>
      </trkpt>
      <trkpt lat="45.98667" lon="4.81748">
        <ele>238</ele>
        <time>2017-07-04T14:38:13Z</time>
      </trkpt>
      <trkpt lat="45.98675" lon="4.81747">
        <ele>238</ele>
        <time>2017-07-04T14:38:15Z</time>
      </trkpt>
      <trkpt lat="45.9868" lon="4.81746">
        <ele>238</ele>
        <time>2017-07-04T14:38:16Z</time>
      </trkpt>
      <trkpt lat="45.98688" lon="4.81743">
        <ele>238</ele>
        <time>2017-07-04T14:38:18Z</time>
      </trkpt>
      <trkpt lat="45.98693" lon="4.81742">
        <ele>238</ele>
        <time>2017-07-04T14:38:19Z</time>
      </trkpt>
      <trkpt lat="45.98701" lon="4.8174">
        <ele>239</ele>
        <time>2017-07-04T14:38:21Z</time>
      </trkpt>
      <trkpt lat="45.98706" lon="4.81739">
        <ele>239</ele>
        <time>2017-07-04T14:38:22Z</time>
      </trkpt>
      <trkpt lat="45.9871" lon="4.81738">
        <ele>239</ele>
        <time>2017-07-04T14:38:23Z</time>
      </trkpt>
      <trkpt lat="45.98715" lon="4.81738">
        <ele>239</ele>
        <time>2017-07-04T14:38:24Z</time>
      </trkpt>
      <trkpt lat="45.9872" lon="4.81737">
        <ele>239</ele>
        <time>2017-07-04T14:38:25Z</time>
      </trkpt>
      <trkpt lat="45.98724" lon="4.81737">
        <ele>239</ele>
        <time>2017-07-04T14:38:26Z</time>
      </trkpt>
      <trkpt lat="45.98729" lon="4.81739">
        <ele>239</ele>
        <time>2017-07-04T14:38:27Z</time>
      </trkpt>
      <trkpt lat="45.98732" lon="4.81743">
        <ele>240</ele>
        <time>2017-07-04T14:38:28Z</time>
      </trkpt>
      <trkpt lat="45.98735" lon="4.81748">
        <ele>240</ele>
        <time>2017-07-04T14:38:29Z</time>
      </trkpt>
      <trkpt lat="45.98738" lon="4.81754">
        <ele>240</ele>
        <time>2017-07-04T14:38:30Z</time>
      </trkpt>
      <trkpt lat="45.9874" lon="4.81759">
        <ele>240</ele>
        <time>2017-07-04T14:38:31Z</time>
      </trkpt>
      <trkpt lat="45.98743" lon="4.81764">
        <ele>240</ele>
        <time>2017-07-04T14:38:32Z</time>
      </trkpt>
      <trkpt lat="45.98748" lon="4.81775">
        <ele>240</ele>
        <time>2017-07-04T14:38:34Z</time>
      </trkpt>
      <trkpt lat="45.98749" lon="4.81781">
        <ele>240</ele>
        <time>2017-07-04T14:38:35Z</time>
      </trkpt>
      <trkpt lat="45.98751" lon="4.81786">
        <ele>241</ele>
        <time>2017-07-04T14:38:36Z</time>
      </trkpt>
      <trkpt lat="45.98754" lon="4.81793">
        <ele>240</ele>
        <time>2017-07-04T14:38:37Z</time>
      </trkpt>
      <trkpt lat="45.98756" lon="4.81798">
        <ele>240</ele>
        <time>2017-07-04T14:38:38Z</time>
      </trkpt>
      <trkpt lat="45.98759" lon="4.81804">
        <ele>240</ele>
        <time>2017-07-04T14:38:39Z</time>
      </trkpt>
      <trkpt lat="45.98762" lon="4.8181">
        <ele>240</ele>
        <time>2017-07-04T14:38:40Z</time>
      </trkpt>
      <trkpt lat="45.98765" lon="4.81815">
        <ele>240</ele>
        <time>2017-07-04T14:38:41Z</time>
      </trkpt>
      <trkpt lat="45.98767" lon="4.81821">
        <ele>240</ele>
        <time>2017-07-04T14:38:42Z</time>
      </trkpt>
      <trkpt lat="45.9877" lon="4.81827">
        <ele>240</ele>
        <time>2017-07-04T14:38:43Z</time>
      </trkpt>
      <trkpt lat="45.98772" lon="4.81833">
        <ele>240</ele>
        <time>2017-07-04T14:38:44Z</time>
      </trkpt>
      <trkpt lat="45.98775" lon="4.8184">
        <ele>239</ele>
        <time>2017-07-04T14:38:45Z</time>
      </trkpt>
      <trkpt lat="45.98777" lon="4.81847">
        <ele>239</ele>
        <time>2017-07-04T14:38:46Z</time>
      </trkpt>
      <trkpt lat="45.9878" lon="4.81853">
        <ele>239</ele>
        <time>2017-07-04T14:38:47Z</time>
      </trkpt>
      <trkpt lat="45.98783" lon="4.8186">
        <ele>239</ele>
        <time>2017-07-04T14:38:48Z</time>
      </trkpt>
      <trkpt lat="45.98786" lon="4.81867">
        <ele>239</ele>
        <time>2017-07-04T14:38:49Z</time>
      </trkpt>
      <trkpt lat="45.98788" lon="4.81873">
        <ele>239</ele>
        <time>2017-07-04T14:38:50Z</time>
      </trkpt>
      <trkpt lat="45.98791" lon="4.8188">
        <ele>239</ele>
        <time>2017-07-04T14:38:51Z</time>
      </trkpt>
      <trkpt lat="45.98793" lon="4.81887">
        <ele>239</ele>
        <time>2017-07-04T14:38:52Z</time>
      </trkpt>
      <trkpt lat="45.98795" lon="4.81895">
        <ele>239</ele>
        <time>2017-07-04T14:38:53Z</time>
      </trkpt>
      <trkpt lat="45.98797" lon="4.81903">
        <ele>239</ele>
        <time>2017-07-04T14:38:54Z</time>
      </trkpt>
      <trkpt lat="45.98799" lon="4.81911">
        <ele>239</ele>
        <time>2017-07-04T14:38:55Z</time>
      </trkpt>
      <trkpt lat="45.98801" lon="4.81919">
        <ele>239</ele>
        <time>2017-07-04T14:38:56Z</time>
      </trkpt>
      <trkpt lat="45.98802" lon="4.81926">
        <ele>239</ele>
        <time>2017-07-04T14:38:57Z</time>
      </trkpt>
      <trkpt lat="45.98804" lon="4.81933">
        <ele>239</ele>
        <time>2017-07-04T14:38:58Z</time>
      </trkpt>
      <trkpt lat="45.98806" lon="4.8194">
        <ele>239</ele>
        <time>2017-07-04T14:38:59Z</time>
      </trkpt>
      <trkpt lat="45.98808" lon="4.81947">
        <ele>239</ele>
        <time>2017-07-04T14:39:00Z</time>
      </trkpt>
      <trkpt lat="45.98809" lon="4.81954">
        <ele>239</ele>
        <time>2017-07-04T14:39:01Z</time>
      </trkpt>
      <trkpt lat="45.9881" lon="4.81961">
        <ele>239</ele>
        <time>2017-07-04T14:39:02Z</time>
      </trkpt>
      <trkpt lat="45.98811" lon="4.81967">
        <ele>239</ele>
        <time>2017-07-04T14:39:03Z</time>
      </trkpt>
      <trkpt lat="45.98812" lon="4.81974">
        <ele>239</ele>
        <time>2017-07-04T14:39:04Z</time>
      </trkpt>
      <trkpt lat="45.98814" lon="4.8198">
        <ele>239</ele>
        <time>2017-07-04T14:39:05Z</time>
      </trkpt>
      <trkpt lat="45.98816" lon="4.81993">
        <ele>238</ele>
        <time>2017-07-04T14:39:07Z</time>
      </trkpt>
      <trkpt lat="45.98817" lon="4.82">
        <ele>238</ele>
        <time>2017-07-04T14:39:08Z</time>
      </trkpt>
      <trkpt lat="45.98819" lon="4.82006">
        <ele>238</ele>
        <time>2017-07-04T14:39:09Z</time>
      </trkpt>
      <trkpt lat="45.9882" lon="4.82012">
        <ele>238</ele>
        <time>2017-07-04T14:39:10Z</time>
      </trkpt>
      <trkpt lat="45.98821" lon="4.82019">
        <ele>238</ele>
        <time>2017-07-04T14:39:11Z</time>
      </trkpt>
      <trkpt lat="45.98823" lon="4.82027">
        <ele>238</ele>
        <time>2017-07-04T14:39:12Z</time>
      </trkpt>
      <trkpt lat="45.98825" lon="4.82035">
        <ele>238</ele>
        <time>2017-07-04T14:39:13Z</time>
      </trkpt>
      <trkpt lat="45.98826" lon="4.82042">
        <ele>238</ele>
        <time>2017-07-04T14:39:14Z</time>
      </trkpt>
      <trkpt lat="45.98827" lon="4.82049">
        <ele>238</ele>
        <time>2017-07-04T14:39:15Z</time>
      </trkpt>
      <trkpt lat="45.98828" lon="4.82056">
        <ele>237</ele>
        <time>2017-07-04T14:39:16Z</time>
      </trkpt>
      <trkpt lat="45.9883" lon="4.82063">
        <ele>237</ele>
        <time>2017-07-04T14:39:17Z</time>
      </trkpt>
      <trkpt lat="45.98831" lon="4.82069">
        <ele>237</ele>
        <time>2017-07-04T14:39:18Z</time>
      </trkpt>
      <trkpt lat="45.98834" lon="4.82081">
        <ele>236</ele>
        <time>2017-07-04T14:39:20Z</time>
      </trkpt>
      <trkpt lat="45.98834" lon="4.82088">
        <ele>236</ele>
        <time>2017-07-04T14:39:21Z</time>
      </trkpt>
      <trkpt lat="45.98836" lon="4.82094">
        <ele>236</ele>
        <time>2017-07-04T14:39:22Z</time>
      </trkpt>
      <trkpt lat="45.98837" lon="4.821">
        <ele>236</ele>
        <time>2017-07-04T14:39:23Z</time>
      </trkpt>
      <trkpt lat="45.98838" lon="4.82107">
        <ele>236</ele>
        <time>2017-07-04T14:39:24Z</time>
      </trkpt>
      <trkpt lat="45.98839" lon="4.82115">
        <ele>235</ele>
        <time>2017-07-04T14:39:25Z</time>
      </trkpt>
      <trkpt lat="45.98841" lon="4.82123">
        <ele>235</ele>
        <time>2017-07-04T14:39:26Z</time>
      </trkpt>
      <trkpt lat="45.98842" lon="4.8213">
        <ele>236</ele>
        <time>2017-07-04T14:39:27Z</time>
      </trkpt>
      <trkpt lat="45.98844" lon="4.82138">
        <ele>236</ele>
        <time>2017-07-04T14:39:28Z</time>
      </trkpt>
      <trkpt lat="45.98845" lon="4.82145">
        <ele>236</ele>
        <time>2017-07-04T14:39:29Z</time>
      </trkpt>
      <trkpt lat="45.98846" lon="4.82153">
        <ele>236</ele>
        <time>2017-07-04T14:39:30Z</time>
      </trkpt>
      <trkpt lat="45.98848" lon="4.82159">
        <ele>236</ele>
        <time>2017-07-04T14:39:31Z</time>
      </trkpt>
      <trkpt lat="45.9885" lon="4.82166">
        <ele>236</ele>
        <time>2017-07-04T14:39:32Z</time>
      </trkpt>
      <trkpt lat="45.98852" lon="4.82172">
        <ele>236</ele>
        <time>2017-07-04T14:39:33Z</time>
      </trkpt>
      <trkpt lat="45.98856" lon="4.82183">
        <ele>236</ele>
        <time>2017-07-04T14:39:35Z</time>
      </trkpt>
      <trkpt lat="45.98858" lon="4.82189">
        <ele>236</ele>
        <time>2017-07-04T14:39:36Z</time>
      </trkpt>
      <trkpt lat="45.98862" lon="4.82199">
        <ele>236</ele>
        <time>2017-07-04T14:39:38Z</time>
      </trkpt>
      <trkpt lat="45.98864" lon="4.82205">
        <ele>236</ele>
        <time>2017-07-04T14:39:39Z</time>
      </trkpt>
      <trkpt lat="45.98866" lon="4.8221">
        <ele>236</ele>
        <time>2017-07-04T14:39:40Z</time>
      </trkpt>
      <trkpt lat="45.98869" lon="4.82216">
        <ele>236</ele>
        <time>2017-07-04T14:39:41Z</time>
      </trkpt>
      <trkpt lat="45.98871" lon="4.82222">
        <ele>236</ele>
        <time>2017-07-04T14:39:42Z</time>
      </trkpt>
      <trkpt lat="45.98873" lon="4.82228">
        <ele>236</ele>
        <time>2017-07-04T14:39:43Z</time>
      </trkpt>
      <trkpt lat="45.98876" lon="4.82235">
        <ele>236</ele>
        <time>2017-07-04T14:39:44Z</time>
      </trkpt>
      <trkpt lat="45.98879" lon="4.82242">
        <ele>236</ele>
        <time>2017-07-04T14:39:45Z</time>
      </trkpt>
      <trkpt lat="45.98881" lon="4.82249">
        <ele>236</ele>
        <time>2017-07-04T14:39:46Z</time>
      </trkpt>
      <trkpt lat="45.98884" lon="4.82255">
        <ele>236</ele>
        <time>2017-07-04T14:39:47Z</time>
      </trkpt>
      <trkpt lat="45.98887" lon="4.82262">
        <ele>236</ele>
        <time>2017-07-04T14:39:48Z</time>
      </trkpt>
      <trkpt lat="45.9889" lon="4.82268">
        <ele>236</ele>
        <time>2017-07-04T14:39:49Z</time>
      </trkpt>
      <trkpt lat="45.98893" lon="4.82273">
        <ele>236</ele>
        <time>2017-07-04T14:39:50Z</time>
      </trkpt>
      <trkpt lat="45.98896" lon="4.82278">
        <ele>236</ele>
        <time>2017-07-04T14:39:51Z</time>
      </trkpt>
      <trkpt lat="45.98899" lon="4.82283">
        <ele>236</ele>
        <time>2017-07-04T14:39:52Z</time>
      </trkpt>
      <trkpt lat="45.98902" lon="4.82287">
        <ele>237</ele>
        <time>2017-07-04T14:39:53Z</time>
      </trkpt>
      <trkpt lat="45.98906" lon="4.82292">
        <ele>237</ele>
        <time>2017-07-04T14:39:54Z</time>
      </trkpt>
      <trkpt lat="45.98909" lon="4.82297">
        <ele>237</ele>
        <time>2017-07-04T14:39:55Z</time>
      </trkpt>
      <trkpt lat="45.98913" lon="4.82301">
        <ele>237</ele>
        <time>2017-07-04T14:39:56Z</time>
      </trkpt>
      <trkpt lat="45.98917" lon="4.82306">
        <ele>235</ele>
        <time>2017-07-04T14:39:57Z</time>
      </trkpt>
      <trkpt lat="45.98921" lon="4.82311">
        <ele>235</ele>
        <time>2017-07-04T14:39:58Z</time>
      </trkpt>
      <trkpt lat="45.98925" lon="4.82315">
        <ele>235</ele>
        <time>2017-07-04T14:39:59Z</time>
      </trkpt>
      <trkpt lat="45.98929" lon="4.82319">
        <ele>235</ele>
        <time>2017-07-04T14:40:00Z</time>
      </trkpt>
      <trkpt lat="45.98933" lon="4.82324">
        <ele>235</ele>
        <time>2017-07-04T14:40:01Z</time>
      </trkpt>
      <trkpt lat="45.98936" lon="4.82329">
        <ele>235</ele>
        <time>2017-07-04T14:40:02Z</time>
      </trkpt>
      <trkpt lat="45.9894" lon="4.82333">
        <ele>235</ele>
        <time>2017-07-04T14:40:03Z</time>
      </trkpt>
      <trkpt lat="45.98943" lon="4.82338">
        <ele>235</ele>
        <time>2017-07-04T14:40:04Z</time>
      </trkpt>
      <trkpt lat="45.98946" lon="4.82343">
        <ele>235</ele>
        <time>2017-07-04T14:40:05Z</time>
      </trkpt>
      <trkpt lat="45.98949" lon="4.82348">
        <ele>235</ele>
        <time>2017-07-04T14:40:06Z</time>
      </trkpt>
      <trkpt lat="45.98952" lon="4.82354">
        <ele>235</ele>
        <time>2017-07-04T14:40:07Z</time>
      </trkpt>
      <trkpt lat="45.98955" lon="4.82361">
        <ele>235</ele>
        <time>2017-07-04T14:40:08Z</time>
      </trkpt>
      <trkpt lat="45.98958" lon="4.82367">
        <ele>235</ele>
        <time>2017-07-04T14:40:09Z</time>
      </trkpt>
      <trkpt lat="45.9896" lon="4.82374">
        <ele>235</ele>
        <time>2017-07-04T14:40:10Z</time>
      </trkpt>
      <trkpt lat="45.98962" lon="4.82381">
        <ele>235</ele>
        <time>2017-07-04T14:40:11Z</time>
      </trkpt>
      <trkpt lat="45.98964" lon="4.82387">
        <ele>235</ele>
        <time>2017-07-04T14:40:12Z</time>
      </trkpt>
      <trkpt lat="45.98966" lon="4.82395">
        <ele>235</ele>
        <time>2017-07-04T14:40:13Z</time>
      </trkpt>
      <trkpt lat="45.98968" lon="4.82401">
        <ele>235</ele>
        <time>2017-07-04T14:40:14Z</time>
      </trkpt>
      <trkpt lat="45.98969" lon="4.82408">
        <ele>235</ele>
        <time>2017-07-04T14:40:15Z</time>
      </trkpt>
      <trkpt lat="45.98971" lon="4.82415">
        <ele>235</ele>
        <time>2017-07-04T14:40:16Z</time>
      </trkpt>
      <trkpt lat="45.98973" lon="4.82422">
        <ele>236</ele>
        <time>2017-07-04T14:40:17Z</time>
      </trkpt>
      <trkpt lat="45.98975" lon="4.82428">
        <ele>236</ele>
        <time>2017-07-04T14:40:18Z</time>
      </trkpt>
      <trkpt lat="45.98977" lon="4.82434">
        <ele>236</ele>
        <time>2017-07-04T14:40:19Z</time>
      </trkpt>
      <trkpt lat="45.98978" lon="4.8244">
        <ele>236</ele>
        <time>2017-07-04T14:40:20Z</time>
      </trkpt>
      <trkpt lat="45.9898" lon="4.82446">
        <ele>236</ele>
        <time>2017-07-04T14:40:21Z</time>
      </trkpt>
      <trkpt lat="45.98983" lon="4.82458">
        <ele>236</ele>
        <time>2017-07-04T14:40:23Z</time>
      </trkpt>
      <trkpt lat="45.98985" lon="4.82464">
        <ele>236</ele>
        <time>2017-07-04T14:40:24Z</time>
      </trkpt>
      <trkpt lat="45.98988" lon="4.82476">
        <ele>236</ele>
        <time>2017-07-04T14:40:26Z</time>
      </trkpt>
      <trkpt lat="45.98989" lon="4.82482">
        <ele>236</ele>
        <time>2017-07-04T14:40:27Z</time>
      </trkpt>
      <trkpt lat="45.98993" lon="4.82493">
        <ele>236</ele>
        <time>2017-07-04T14:40:29Z</time>
      </trkpt>
      <trkpt lat="45.98995" lon="4.82499">
        <ele>235</ele>
        <time>2017-07-04T14:40:30Z</time>
      </trkpt>
      <trkpt lat="45.98998" lon="4.82505">
        <ele>236</ele>
        <time>2017-07-04T14:40:31Z</time>
      </trkpt>
      <trkpt lat="45.99" lon="4.82511">
        <ele>235</ele>
        <time>2017-07-04T14:40:32Z</time>
      </trkpt>
      <trkpt lat="45.99003" lon="4.82516">
        <ele>235</ele>
        <time>2017-07-04T14:40:33Z</time>
      </trkpt>
      <trkpt lat="45.99006" lon="4.82522">
        <ele>235</ele>
        <time>2017-07-04T14:40:34Z</time>
      </trkpt>
      <trkpt lat="45.99009" lon="4.82528">
        <ele>235</ele>
        <time>2017-07-04T14:40:35Z</time>
      </trkpt>
      <trkpt lat="45.99012" lon="4.82533">
        <ele>235</ele>
        <time>2017-07-04T14:40:36Z</time>
      </trkpt>
      <trkpt lat="45.99016" lon="4.82539">
        <ele>235</ele>
        <time>2017-07-04T14:40:37Z</time>
      </trkpt>
      <trkpt lat="45.99019" lon="4.82544">
        <ele>235</ele>
        <time>2017-07-04T14:40:38Z</time>
      </trkpt>
      <trkpt lat="45.99023" lon="4.82549">
        <ele>235</ele>
        <time>2017-07-04T14:40:39Z</time>
      </trkpt>
      <trkpt lat="45.99026" lon="4.82553">
        <ele>235</ele>
        <time>2017-07-04T14:40:40Z</time>
      </trkpt>
      <trkpt lat="45.9903" lon="4.82558">
        <ele>235</ele>
        <time>2017-07-04T14:40:41Z</time>
      </trkpt>
      <trkpt lat="45.99034" lon="4.82562">
        <ele>235</ele>
        <time>2017-07-04T14:40:42Z</time>
      </trkpt>
      <trkpt lat="45.99041" lon="4.82567">
        <ele>235</ele>
        <time>2017-07-04T14:40:44Z</time>
      </trkpt>
      <trkpt lat="45.99045" lon="4.8257">
        <ele>235</ele>
        <time>2017-07-04T14:40:45Z</time>
      </trkpt>
      <trkpt lat="45.99049" lon="4.82572">
        <ele>235</ele>
        <time>2017-07-04T14:40:46Z</time>
      </trkpt>
      <trkpt lat="45.99053" lon="4.82573">
        <ele>235</ele>
        <time>2017-07-04T14:40:47Z</time>
      </trkpt>
      <trkpt lat="45.99058" lon="4.82574">
        <ele>235</ele>
        <time>2017-07-04T14:40:48Z</time>
      </trkpt>
      <trkpt lat="45.99063" lon="4.82576">
        <ele>235</ele>
        <time>2017-07-04T14:40:49Z</time>
      </trkpt>
      <trkpt lat="45.99071" lon="4.82579">
        <ele>235</ele>
        <time>2017-07-04T14:40:51Z</time>
      </trkpt>
      <trkpt lat="45.99074" lon="4.82581">
        <ele>235</ele>
        <time>2017-07-04T14:40:52Z</time>
      </trkpt>
      <trkpt lat="45.99077" lon="4.82593">
        <ele>235</ele>
        <time>2017-07-04T14:40:55Z</time>
      </trkpt>
      <trkpt lat="45.99076" lon="4.82598">
        <ele>235</ele>
        <time>2017-07-04T14:40:56Z</time>
      </trkpt>
      <trkpt lat="45.99071" lon="4.82608">
        <ele>236</ele>
        <time>2017-07-04T14:40:59Z</time>
      </trkpt>
      <trkpt lat="45.9907" lon="4.82611">
        <ele>236</ele>
        <time>2017-07-04T14:41:00Z</time>
      </trkpt>
      <trkpt lat="45.99065" lon="4.8262">
        <ele>236</ele>
        <time>2017-07-04T14:41:03Z</time>
      </trkpt>
      <trkpt lat="45.99063" lon="4.82625">
        <ele>236</ele>
        <time>2017-07-04T14:41:04Z</time>
      </trkpt>
      <trkpt lat="45.99058" lon="4.82631">
        <ele>236</ele>
        <time>2017-07-04T14:41:06Z</time>
      </trkpt>
      <trkpt lat="45.99056" lon="4.82635">
        <ele>236</ele>
        <time>2017-07-04T14:41:07Z</time>
      </trkpt>
      <trkpt lat="45.99053" lon="4.82643">
        <ele>236</ele>
        <time>2017-07-04T14:41:09Z</time>
      </trkpt>
      <trkpt lat="45.99051" lon="4.82647">
        <ele>236</ele>
        <time>2017-07-04T14:41:10Z</time>
      </trkpt>
      <trkpt lat="45.99048" lon="4.82655">
        <ele>236</ele>
        <time>2017-07-04T14:41:12Z</time>
      </trkpt>
      <trkpt lat="45.99046" lon="4.82658">
        <ele>236</ele>
        <time>2017-07-04T14:41:13Z</time>
      </trkpt>
      <trkpt lat="45.99042" lon="4.8267">
        <ele>238</ele>
        <time>2017-07-04T14:41:16Z</time>
      </trkpt>
      <trkpt lat="45.9904" lon="4.82673">
        <ele>238</ele>
        <time>2017-07-04T14:41:17Z</time>
      </trkpt>
      <trkpt lat="45.99036" lon="4.82684">
        <ele>238</ele>
        <time>2017-07-04T14:41:20Z</time>
      </trkpt>
      <trkpt lat="45.99034" lon="4.82687">
        <ele>238</ele>
        <time>2017-07-04T14:41:21Z</time>
      </trkpt>
      <trkpt lat="45.9903" lon="4.82694">
        <ele>238</ele>
        <time>2017-07-04T14:41:23Z</time>
      </trkpt>
      <trkpt lat="45.99028" lon="4.82697">
        <ele>238</ele>
        <time>2017-07-04T14:41:24Z</time>
      </trkpt>
      <trkpt lat="45.99025" lon="4.82705">
        <ele>238</ele>
        <time>2017-07-04T14:41:26Z</time>
      </trkpt>
      <trkpt lat="45.99024" lon="4.82709">
        <ele>238</ele>
        <time>2017-07-04T14:41:27Z</time>
      </trkpt>
      <trkpt lat="45.9902" lon="4.82716">
        <ele>239</ele>
        <time>2017-07-04T14:41:29Z</time>
      </trkpt>
      <trkpt lat="45.99019" lon="4.8272">
        <ele>239</ele>
        <time>2017-07-04T14:41:30Z</time>
      </trkpt>
      <trkpt lat="45.99015" lon="4.8273">
        <ele>239</ele>
        <time>2017-07-04T14:41:33Z</time>
      </trkpt>
      <trkpt lat="45.99014" lon="4.82733">
        <ele>239</ele>
        <time>2017-07-04T14:41:34Z</time>
      </trkpt>
      <trkpt lat="45.99011" lon="4.82743">
        <ele>240</ele>
        <time>2017-07-04T14:41:37Z</time>
      </trkpt>
      <trkpt lat="45.99009" lon="4.82746">
        <ele>240</ele>
        <time>2017-07-04T14:41:38Z</time>
      </trkpt>
      <trkpt lat="45.99006" lon="4.82757">
        <ele>241</ele>
        <time>2017-07-04T14:41:41Z</time>
      </trkpt>
      <trkpt lat="45.99005" lon="4.82759">
        <ele>241</ele>
        <time>2017-07-04T14:41:42Z</time>
      </trkpt>
      <trkpt lat="45.99001" lon="4.82768">
        <ele>241</ele>
        <time>2017-07-04T14:41:45Z</time>
      </trkpt>
      <trkpt lat="45.99" lon="4.82771">
        <ele>245</ele>
        <time>2017-07-04T14:41:46Z</time>
      </trkpt>
      <trkpt lat="45.98996" lon="4.82779">
        <ele>246</ele>
        <time>2017-07-04T14:41:49Z</time>
      </trkpt>
      <trkpt lat="45.98995" lon="4.82782">
        <ele>246</ele>
        <time>2017-07-04T14:41:50Z</time>
      </trkpt>
      <trkpt lat="45.98991" lon="4.82792">
        <ele>247</ele>
        <time>2017-07-04T14:41:54Z</time>
      </trkpt>
      <trkpt lat="45.9899" lon="4.82795">
        <ele>247</ele>
        <time>2017-07-04T14:41:55Z</time>
      </trkpt>
      <trkpt lat="45.98985" lon="4.82804">
        <ele>248</ele>
        <time>2017-07-04T14:41:59Z</time>
      </trkpt>
      <trkpt lat="45.98984" lon="4.82806">
        <ele>248</ele>
        <time>2017-07-04T14:42:00Z</time>
      </trkpt>
      <trkpt lat="45.9898" lon="4.82816">
        <ele>248</ele>
        <time>2017-07-04T14:42:04Z</time>
      </trkpt>
      <trkpt lat="45.98978" lon="4.82818">
        <ele>248</ele>
        <time>2017-07-04T14:42:05Z</time>
      </trkpt>
      <trkpt lat="45.98975" lon="4.82828">
        <ele>249</ele>
        <time>2017-07-04T14:42:09Z</time>
      </trkpt>
      <trkpt lat="45.98974" lon="4.82832">
        <ele>249</ele>
        <time>2017-07-04T14:42:10Z</time>
      </trkpt>
      <trkpt lat="45.98969" lon="4.82842">
        <ele>251</ele>
        <time>2017-07-04T14:42:14Z</time>
      </trkpt>
      <trkpt lat="45.98968" lon="4.82845">
        <ele>252</ele>
        <time>2017-07-04T14:42:15Z</time>
      </trkpt>
      <trkpt lat="45.98963" lon="4.82856">
        <ele>252</ele>
        <time>2017-07-04T14:42:19Z</time>
      </trkpt>
      <trkpt lat="45.98962" lon="4.82858">
        <ele>252</ele>
        <time>2017-07-04T14:42:20Z</time>
      </trkpt>
      <trkpt lat="45.98958" lon="4.82868">
        <ele>252</ele>
        <time>2017-07-04T14:42:24Z</time>
      </trkpt>
      <trkpt lat="45.98957" lon="4.8287">
        <ele>252</ele>
        <time>2017-07-04T14:42:25Z</time>
      </trkpt>
      <trkpt lat="45.98953" lon="4.82879">
        <ele>253</ele>
        <time>2017-07-04T14:42:29Z</time>
      </trkpt>
      <trkpt lat="45.98952" lon="4.82882">
        <ele>253</ele>
        <time>2017-07-04T14:42:30Z</time>
      </trkpt>
      <trkpt lat="45.98947" lon="4.82891">
        <ele>253</ele>
        <time>2017-07-04T14:42:35Z</time>
      </trkpt>
      <trkpt lat="45.98947" lon="4.82894">
        <ele>253</ele>
        <time>2017-07-04T14:42:36Z</time>
      </trkpt>
      <trkpt lat="45.98941" lon="4.82903">
        <ele>253</ele>
        <time>2017-07-04T14:42:41Z</time>
      </trkpt>
      <trkpt lat="45.98939" lon="4.82905">
        <ele>253</ele>
        <time>2017-07-04T14:42:42Z</time>
      </trkpt>
      <trkpt lat="45.98935" lon="4.82917">
        <ele>254</ele>
        <time>2017-07-04T14:42:47Z</time>
      </trkpt>
      <trkpt lat="45.98934" lon="4.82919">
        <ele>255</ele>
        <time>2017-07-04T14:42:48Z</time>
      </trkpt>
      <trkpt lat="45.98929" lon="4.82928">
        <ele>255</ele>
        <time>2017-07-04T14:42:52Z</time>
      </trkpt>
      <trkpt lat="45.98928" lon="4.82931">
        <ele>255</ele>
        <time>2017-07-04T14:42:53Z</time>
      </trkpt>
      <trkpt lat="45.98925" lon="4.8294">
        <ele>255</ele>
        <time>2017-07-04T14:42:57Z</time>
      </trkpt>
      <trkpt lat="45.98923" lon="4.82942">
        <ele>255</ele>
        <time>2017-07-04T14:42:58Z</time>
      </trkpt>
      <trkpt lat="45.9892" lon="4.82952">
        <ele>255</ele>
        <time>2017-07-04T14:43:02Z</time>
      </trkpt>
      <trkpt lat="45.9892" lon="4.82954">
        <ele>255</ele>
        <time>2017-07-04T14:43:03Z</time>
      </trkpt>
      <trkpt lat="45.98915" lon="4.82964">
        <ele>258</ele>
        <time>2017-07-04T14:43:07Z</time>
      </trkpt>
      <trkpt lat="45.98914" lon="4.82965">
        <ele>258</ele>
        <time>2017-07-04T14:43:08Z</time>
      </trkpt>
      <trkpt lat="45.98908" lon="4.82974">
        <ele>259</ele>
        <time>2017-07-04T14:43:12Z</time>
      </trkpt>
      <trkpt lat="45.98907" lon="4.82976">
        <ele>259</ele>
        <time>2017-07-04T14:43:13Z</time>
      </trkpt>
      <trkpt lat="45.98899" lon="4.8298">
        <ele>259</ele>
        <time>2017-07-04T14:43:17Z</time>
      </trkpt>
      <trkpt lat="45.98897" lon="4.82982">
        <ele>259</ele>
        <time>2017-07-04T14:43:18Z</time>
      </trkpt>
      <trkpt lat="45.98892" lon="4.82989">
        <ele>259</ele>
        <time>2017-07-04T14:43:22Z</time>
      </trkpt>
      <trkpt lat="45.9889" lon="4.82991">
        <ele>259</ele>
        <time>2017-07-04T14:43:23Z</time>
      </trkpt>
      <trkpt lat="45.98881" lon="4.82993">
        <ele>259</ele>
        <time>2017-07-04T14:43:27Z</time>
      </trkpt>
      <trkpt lat="45.98879" lon="4.82994">
        <ele>260</ele>
        <time>2017-07-04T14:43:28Z</time>
      </trkpt>
      <trkpt lat="45.98872" lon="4.82999">
        <ele>260</ele>
        <time>2017-07-04T14:43:32Z</time>
      </trkpt>
      <trkpt lat="45.9887" lon="4.83">
        <ele>260</ele>
        <time>2017-07-04T14:43:33Z</time>
      </trkpt>
      <trkpt lat="45.98862" lon="4.83004">
        <ele>260</ele>
        <time>2017-07-04T14:43:37Z</time>
      </trkpt>
      <trkpt lat="45.9886" lon="4.83005">
        <ele>261</ele>
        <time>2017-07-04T14:43:38Z</time>
      </trkpt>
      <trkpt lat="45.98852" lon="4.8301">
        <ele>261</ele>
        <time>2017-07-04T14:43:42Z</time>
      </trkpt>
      <trkpt lat="45.9885" lon="4.83012">
        <ele>261</ele>
        <time>2017-07-04T14:43:43Z</time>
      </trkpt>
      <trkpt lat="45.98843" lon="4.83017">
        <ele>261</ele>
        <time>2017-07-04T14:43:46Z</time>
      </trkpt>
      <trkpt lat="45.98841" lon="4.83018">
        <ele>261</ele>
        <time>2017-07-04T14:43:47Z</time>
      </trkpt>
      <trkpt lat="45.98834" lon="4.83022">
        <ele>261</ele>
        <time>2017-07-04T14:43:51Z</time>
      </trkpt>
      <trkpt lat="45.98832" lon="4.83023">
        <ele>264</ele>
        <time>2017-07-04T14:43:52Z</time>
      </trkpt>
      <trkpt lat="45.98824" lon="4.83029">
        <ele>264</ele>
        <time>2017-07-04T14:43:56Z</time>
      </trkpt>
      <trkpt lat="45.98822" lon="4.8303">
        <ele>264</ele>
        <time>2017-07-04T14:43:57Z</time>
      </trkpt>
      <trkpt lat="45.98815" lon="4.83035">
        <ele>264</ele>
        <time>2017-07-04T14:44:00Z</time>
      </trkpt>
      <trkpt lat="45.98812" lon="4.83036">
        <ele>264</ele>
        <time>2017-07-04T14:44:01Z</time>
      </trkpt>
      <trkpt lat="45.98806" lon="4.83042">
        <ele>264</ele>
        <time>2017-07-04T14:44:04Z</time>
      </trkpt>
      <trkpt lat="45.98804" lon="4.83045">
        <ele>264</ele>
        <time>2017-07-04T14:44:05Z</time>
      </trkpt>
      <trkpt lat="45.98796" lon="4.83051">
        <ele>265</ele>
        <time>2017-07-04T14:44:08Z</time>
      </trkpt>
      <trkpt lat="45.98794" lon="4.83053">
        <ele>265</ele>
        <time>2017-07-04T14:44:09Z</time>
      </trkpt>
      <trkpt lat="45.98787" lon="4.8306">
        <ele>265</ele>
        <time>2017-07-04T14:44:12Z</time>
      </trkpt>
      <trkpt lat="45.98785" lon="4.83063">
        <ele>265</ele>
        <time>2017-07-04T14:44:13Z</time>
      </trkpt>
      <trkpt lat="45.98779" lon="4.83068">
        <ele>265</ele>
        <time>2017-07-04T14:44:16Z</time>
      </trkpt>
      <trkpt lat="45.98776" lon="4.83071">
        <ele>265</ele>
        <time>2017-07-04T14:44:17Z</time>
      </trkpt>
      <trkpt lat="45.98771" lon="4.83076">
        <ele>266</ele>
        <time>2017-07-04T14:44:19Z</time>
      </trkpt>
      <trkpt lat="45.98769" lon="4.83078">
        <ele>266</ele>
        <time>2017-07-04T14:44:20Z</time>
      </trkpt>
      <trkpt lat="45.98762" lon="4.83085">
        <ele>266</ele>
        <time>2017-07-04T14:44:23Z</time>
      </trkpt>
      <trkpt lat="45.98759" lon="4.83087">
        <ele>266</ele>
        <time>2017-07-04T14:44:24Z</time>
      </trkpt>
      <trkpt lat="45.98752" lon="4.83093">
        <ele>266</ele>
        <time>2017-07-04T14:44:27Z</time>
      </trkpt>
      <trkpt lat="45.98749" lon="4.83095">
        <ele>267</ele>
        <time>2017-07-04T14:44:28Z</time>
      </trkpt>
      <trkpt lat="45.98744" lon="4.83099">
        <ele>267</ele>
        <time>2017-07-04T14:44:30Z</time>
      </trkpt>
      <trkpt lat="45.98741" lon="4.83101">
        <ele>267</ele>
        <time>2017-07-04T14:44:31Z</time>
      </trkpt>
      <trkpt lat="45.98735" lon="4.83105">
        <ele>267</ele>
        <time>2017-07-04T14:44:33Z</time>
      </trkpt>
      <trkpt lat="45.98733" lon="4.83107">
        <ele>267</ele>
        <time>2017-07-04T14:44:34Z</time>
      </trkpt>
      <trkpt lat="45.98727" lon="4.83112">
        <ele>267</ele>
        <time>2017-07-04T14:44:36Z</time>
      </trkpt>
      <trkpt lat="45.98725" lon="4.83115">
        <ele>267</ele>
        <time>2017-07-04T14:44:37Z</time>
      </trkpt>
      <trkpt lat="45.98717" lon="4.83122">
        <ele>266</ele>
        <time>2017-07-04T14:44:40Z</time>
      </trkpt>
      <trkpt lat="45.98714" lon="4.83124">
        <ele>266</ele>
        <time>2017-07-04T14:44:41Z</time>
      </trkpt>
      <trkpt lat="45.98709" lon="4.83128">
        <ele>266</ele>
        <time>2017-07-04T14:44:43Z</time>
      </trkpt>
      <trkpt lat="45.98706" lon="4.83131">
        <ele>266</ele>
        <time>2017-07-04T14:44:44Z</time>
      </trkpt>
      <trkpt lat="45.987" lon="4.83136">
        <ele>266</ele>
        <time>2017-07-04T14:44:46Z</time>
      </trkpt>
      <trkpt lat="45.98697" lon="4.83138">
        <ele>266</ele>
        <time>2017-07-04T14:44:47Z</time>
      </trkpt>
      <trkpt lat="45.9869" lon="4.83145">
        <ele>266</ele>
        <time>2017-07-04T14:44:50Z</time>
      </trkpt>
      <trkpt lat="45.98688" lon="4.83147">
        <ele>266</ele>
        <time>2017-07-04T14:44:51Z</time>
      </trkpt>
      <trkpt lat="45.98681" lon="4.83153">
        <ele>266</ele>
        <time>2017-07-04T14:44:54Z</time>
      </trkpt>
      <trkpt lat="45.98678" lon="4.83154">
        <ele>266</ele>
        <time>2017-07-04T14:44:55Z</time>
      </trkpt>
      <trkpt lat="45.98672" lon="4.83158">
        <ele>266</ele>
        <time>2017-07-04T14:44:57Z</time>
      </trkpt>
      <trkpt lat="45.9867" lon="4.8316">
        <ele>266</ele>
        <time>2017-07-04T14:44:58Z</time>
      </trkpt>
      <trkpt lat="45.98664" lon="4.83165">
        <ele>266</ele>
        <time>2017-07-04T14:45:00Z</time>
      </trkpt>
      <trkpt lat="45.98661" lon="4.83167">
        <ele>266</ele>
        <time>2017-07-04T14:45:01Z</time>
      </trkpt>
      <trkpt lat="45.98655" lon="4.83171">
        <ele>267</ele>
        <time>2017-07-04T14:45:03Z</time>
      </trkpt>
      <trkpt lat="45.98653" lon="4.83174">
        <ele>267</ele>
        <time>2017-07-04T14:45:04Z</time>
      </trkpt>
      <trkpt lat="45.98647" lon="4.8318">
        <ele>267</ele>
        <time>2017-07-04T14:45:06Z</time>
      </trkpt>
      <trkpt lat="45.98644" lon="4.83183">
        <ele>267</ele>
        <time>2017-07-04T14:45:07Z</time>
      </trkpt>
      <trkpt lat="45.98639" lon="4.83188">
        <ele>267</ele>
        <time>2017-07-04T14:45:09Z</time>
      </trkpt>
      <trkpt lat="45.98636" lon="4.8319">
        <ele>267</ele>
        <time>2017-07-04T14:45:10Z</time>
      </trkpt>
      <trkpt lat="45.98629" lon="4.83196">
        <ele>267</ele>
        <time>2017-07-04T14:45:13Z</time>
      </trkpt>
      <trkpt lat="45.98627" lon="4.83199">
        <ele>267</ele>
        <time>2017-07-04T14:45:14Z</time>
      </trkpt>
      <trkpt lat="45.98622" lon="4.83205">
        <ele>267</ele>
        <time>2017-07-04T14:45:16Z</time>
      </trkpt>
      <trkpt lat="45.98619" lon="4.83209">
        <ele>267</ele>
        <time>2017-07-04T14:45:17Z</time>
      </trkpt>
      <trkpt lat="45.98613" lon="4.83217">
        <ele>267</ele>
        <time>2017-07-04T14:45:19Z</time>
      </trkpt>
      <trkpt lat="45.9861" lon="4.8322">
        <ele>267</ele>
        <time>2017-07-04T14:45:20Z</time>
      </trkpt>
      <trkpt lat="45.98605" lon="4.83227">
        <ele>267</ele>
        <time>2017-07-04T14:45:22Z</time>
      </trkpt>
      <trkpt lat="45.98603" lon="4.8323">
        <ele>268</ele>
        <time>2017-07-04T14:45:23Z</time>
      </trkpt>
      <trkpt lat="45.98598" lon="4.83236">
        <ele>268</ele>
        <time>2017-07-04T14:45:25Z</time>
      </trkpt>
      <trkpt lat="45.98596" lon="4.83239">
        <ele>268</ele>
        <time>2017-07-04T14:45:26Z</time>
      </trkpt>
      <trkpt lat="45.98591" lon="4.83245">
        <ele>268</ele>
        <time>2017-07-04T14:45:28Z</time>
      </trkpt>
      <trkpt lat="45.98589" lon="4.83248">
        <ele>268</ele>
        <time>2017-07-04T14:45:29Z</time>
      </trkpt>
      <trkpt lat="45.98583" lon="4.83256">
        <ele>268</ele>
        <time>2017-07-04T14:45:31Z</time>
      </trkpt>
      <trkpt lat="45.98581" lon="4.83259">
        <ele>268</ele>
        <time>2017-07-04T14:45:32Z</time>
      </trkpt>
      <trkpt lat="45.98576" lon="4.83266">
        <ele>269</ele>
        <time>2017-07-04T14:45:34Z</time>
      </trkpt>
      <trkpt lat="45.98574" lon="4.83269">
        <ele>269</ele>
        <time>2017-07-04T14:45:35Z</time>
      </trkpt>
      <trkpt lat="45.98569" lon="4.83274">
        <ele>269</ele>
        <time>2017-07-04T14:45:37Z</time>
      </trkpt>
      <trkpt lat="45.98567" lon="4.83277">
        <ele>269</ele>
        <time>2017-07-04T14:45:38Z</time>
      </trkpt>
      <trkpt lat="45.98562" lon="4.83283">
        <ele>269</ele>
        <time>2017-07-04T14:45:40Z</time>
      </trkpt>
      <trkpt lat="45.98559" lon="4.83287">
        <ele>269</ele>
        <time>2017-07-04T14:45:41Z</time>
      </trkpt>
      <trkpt lat="45.98554" lon="4.83294">
        <ele>269</ele>
        <time>2017-07-04T14:45:43Z</time>
      </trkpt>
      <trkpt lat="45.98552" lon="4.83297">
        <ele>269</ele>
        <time>2017-07-04T14:45:44Z</time>
      </trkpt>
      <trkpt lat="45.98547" lon="4.83303">
        <ele>269</ele>
        <time>2017-07-04T14:45:46Z</time>
      </trkpt>
      <trkpt lat="45.98545" lon="4.83307">
        <ele>269</ele>
        <time>2017-07-04T14:45:47Z</time>
      </trkpt>
      <trkpt lat="45.98539" lon="4.83316">
        <ele>269</ele>
        <time>2017-07-04T14:45:50Z</time>
      </trkpt>
      <trkpt lat="45.98537" lon="4.83319">
        <ele>269</ele>
        <time>2017-07-04T14:45:51Z</time>
      </trkpt>
      <trkpt lat="45.98532" lon="4.83326">
        <ele>269</ele>
        <time>2017-07-04T14:45:53Z</time>
      </trkpt>
      <trkpt lat="45.9853" lon="4.83329">
        <ele>269</ele>
        <time>2017-07-04T14:45:54Z</time>
      </trkpt>
      <trkpt lat="45.98524" lon="4.83335">
        <ele>270</ele>
        <time>2017-07-04T14:45:56Z</time>
      </trkpt>
      <trkpt lat="45.98522" lon="4.83338">
        <ele>270</ele>
        <time>2017-07-04T14:45:57Z</time>
      </trkpt>
      <trkpt lat="45.98518" lon="4.83344">
        <ele>270</ele>
        <time>2017-07-04T14:45:59Z</time>
      </trkpt>
      <trkpt lat="45.98515" lon="4.83347">
        <ele>270</ele>
        <time>2017-07-04T14:46:00Z</time>
      </trkpt>
      <trkpt lat="45.9851" lon="4.83352">
        <ele>270</ele>
        <time>2017-07-04T14:46:02Z</time>
      </trkpt>
      <trkpt lat="45.98508" lon="4.83355">
        <ele>270</ele>
        <time>2017-07-04T14:46:03Z</time>
      </trkpt>
      <trkpt lat="45.98503" lon="4.83362">
        <ele>269</ele>
        <time>2017-07-04T14:46:05Z</time>
      </trkpt>
      <trkpt lat="45.98501" lon="4.83365">
        <ele>269</ele>
        <time>2017-07-04T14:46:06Z</time>
      </trkpt>
      <trkpt lat="45.98496" lon="4.83372">
        <ele>270</ele>
        <time>2017-07-04T14:46:08Z</time>
      </trkpt>
      <trkpt lat="45.98493" lon="4.83376">
        <ele>269</ele>
        <time>2017-07-04T14:46:09Z</time>
      </trkpt>
      <trkpt lat="45.98488" lon="4.83384">
        <ele>269</ele>
        <time>2017-07-04T14:46:11Z</time>
      </trkpt>
      <trkpt lat="45.98486" lon="4.83388">
        <ele>269</ele>
        <time>2017-07-04T14:46:12Z</time>
      </trkpt>
      <trkpt lat="45.9848" lon="4.83396">
        <ele>269</ele>
        <time>2017-07-04T14:46:14Z</time>
      </trkpt>
      <trkpt lat="45.98477" lon="4.834">
        <ele>269</ele>
        <time>2017-07-04T14:46:15Z</time>
      </trkpt>
      <trkpt lat="45.98473" lon="4.83405">
        <ele>269</ele>
        <time>2017-07-04T14:46:16Z</time>
      </trkpt>
      <trkpt lat="45.9847" lon="4.8341">
        <ele>269</ele>
        <time>2017-07-04T14:46:17Z</time>
      </trkpt>
      <trkpt lat="45.98466" lon="4.83415">
        <ele>269</ele>
        <time>2017-07-04T14:46:18Z</time>
      </trkpt>
      <trkpt lat="45.98463" lon="4.8342">
        <ele>269</ele>
        <time>2017-07-04T14:46:19Z</time>
      </trkpt>
      <trkpt lat="45.98456" lon="4.83429">
        <ele>268</ele>
        <time>2017-07-04T14:46:21Z</time>
      </trkpt>
      <trkpt lat="45.98453" lon="4.83434">
        <ele>268</ele>
        <time>2017-07-04T14:46:22Z</time>
      </trkpt>
      <trkpt lat="45.9845" lon="4.83439">
        <ele>268</ele>
        <time>2017-07-04T14:46:23Z</time>
      </trkpt>
      <trkpt lat="45.98446" lon="4.83443">
        <ele>268</ele>
        <time>2017-07-04T14:46:24Z</time>
      </trkpt>
      <trkpt lat="45.9844" lon="4.83451">
        <ele>268</ele>
        <time>2017-07-04T14:46:26Z</time>
      </trkpt>
      <trkpt lat="45.98437" lon="4.83455">
        <ele>268</ele>
        <time>2017-07-04T14:46:27Z</time>
      </trkpt>
      <trkpt lat="45.98431" lon="4.83463">
        <ele>268</ele>
        <time>2017-07-04T14:46:29Z</time>
      </trkpt>
      <trkpt lat="45.98428" lon="4.83468">
        <ele>268</ele>
        <time>2017-07-04T14:46:30Z</time>
      </trkpt>
      <trkpt lat="45.98425" lon="4.83473">
        <ele>268</ele>
        <time>2017-07-04T14:46:31Z</time>
      </trkpt>
      <trkpt lat="45.98421" lon="4.83478">
        <ele>268</ele>
        <time>2017-07-04T14:46:32Z</time>
      </trkpt>
      <trkpt lat="45.98415" lon="4.83486">
        <ele>269</ele>
        <time>2017-07-04T14:46:34Z</time>
      </trkpt>
      <trkpt lat="45.98412" lon="4.8349">
        <ele>268</ele>
        <time>2017-07-04T14:46:35Z</time>
      </trkpt>
      <trkpt lat="45.98406" lon="4.83498">
        <ele>268</ele>
        <time>2017-07-04T14:46:37Z</time>
      </trkpt>
      <trkpt lat="45.98403" lon="4.83502">
        <ele>268</ele>
        <time>2017-07-04T14:46:38Z</time>
      </trkpt>
      <trkpt lat="45.98397" lon="4.8351">
        <ele>269</ele>
        <time>2017-07-04T14:46:40Z</time>
      </trkpt>
      <trkpt lat="45.98393" lon="4.83514">
        <ele>269</ele>
        <time>2017-07-04T14:46:41Z</time>
      </trkpt>
      <trkpt lat="45.98387" lon="4.83522">
        <ele>269</ele>
        <time>2017-07-04T14:46:43Z</time>
      </trkpt>
      <trkpt lat="45.98384" lon="4.83526">
        <ele>269</ele>
        <time>2017-07-04T14:46:44Z</time>
      </trkpt>
      <trkpt lat="45.98378" lon="4.83534">
        <ele>269</ele>
        <time>2017-07-04T14:46:46Z</time>
      </trkpt>
      <trkpt lat="45.98374" lon="4.83538">
        <ele>269</ele>
        <time>2017-07-04T14:46:47Z</time>
      </trkpt>
      <trkpt lat="45.98368" lon="4.83547">
        <ele>269</ele>
        <time>2017-07-04T14:46:49Z</time>
      </trkpt>
      <trkpt lat="45.98365" lon="4.83551">
        <ele>269</ele>
        <time>2017-07-04T14:46:50Z</time>
      </trkpt>
      <trkpt lat="45.9836" lon="4.83559">
        <ele>269</ele>
        <time>2017-07-04T14:46:52Z</time>
      </trkpt>
      <trkpt lat="45.98357" lon="4.83563">
        <ele>269</ele>
        <time>2017-07-04T14:46:53Z</time>
      </trkpt>
      <trkpt lat="45.98351" lon="4.8357">
        <ele>269</ele>
        <time>2017-07-04T14:46:55Z</time>
      </trkpt>
      <trkpt lat="45.98348" lon="4.83574">
        <ele>269</ele>
        <time>2017-07-04T14:46:56Z</time>
      </trkpt>
      <trkpt lat="45.98342" lon="4.83582">
        <ele>270</ele>
        <time>2017-07-04T14:46:58Z</time>
      </trkpt>
      <trkpt lat="45.98339" lon="4.83586">
        <ele>270</ele>
        <time>2017-07-04T14:46:59Z</time>
      </trkpt>
      <trkpt lat="45.98334" lon="4.83593">
        <ele>270</ele>
        <time>2017-07-04T14:47:01Z</time>
      </trkpt>
      <trkpt lat="45.98332" lon="4.83596">
        <ele>270</ele>
        <time>2017-07-04T14:47:02Z</time>
      </trkpt>
      <trkpt lat="45.98326" lon="4.83603">
        <ele>271</ele>
        <time>2017-07-04T14:47:04Z</time>
      </trkpt>
      <trkpt lat="45.98323" lon="4.83608">
        <ele>271</ele>
        <time>2017-07-04T14:47:05Z</time>
      </trkpt>
      <trkpt lat="45.98318" lon="4.83617">
        <ele>271</ele>
        <time>2017-07-04T14:47:07Z</time>
      </trkpt>
      <trkpt lat="45.98315" lon="4.83621">
        <ele>271</ele>
        <time>2017-07-04T14:47:08Z</time>
      </trkpt>
      <trkpt lat="45.98311" lon="4.83629">
        <ele>271</ele>
        <time>2017-07-04T14:47:10Z</time>
      </trkpt>
      <trkpt lat="45.98309" lon="4.83633">
        <ele>271</ele>
        <time>2017-07-04T14:47:11Z</time>
      </trkpt>
      <trkpt lat="45.98305" lon="4.83642">
        <ele>271</ele>
        <time>2017-07-04T14:47:13Z</time>
      </trkpt>
      <trkpt lat="45.98303" lon="4.83646">
        <ele>271</ele>
        <time>2017-07-04T14:47:14Z</time>
      </trkpt>
      <trkpt lat="45.98298" lon="4.83655">
        <ele>271</ele>
        <time>2017-07-04T14:47:16Z</time>
      </trkpt>
      <trkpt lat="45.98296" lon="4.8366">
        <ele>271</ele>
        <time>2017-07-04T14:47:17Z</time>
      </trkpt>
      <trkpt lat="45.98291" lon="4.8367">
        <ele>272</ele>
        <time>2017-07-04T14:47:19Z</time>
      </trkpt>
      <trkpt lat="45.98289" lon="4.83676">
        <ele>272</ele>
        <time>2017-07-04T14:47:20Z</time>
      </trkpt>
      <trkpt lat="45.98286" lon="4.83683">
        <ele>272</ele>
        <time>2017-07-04T14:47:21Z</time>
      </trkpt>
      <trkpt lat="45.98284" lon="4.83689">
        <ele>272</ele>
        <time>2017-07-04T14:47:22Z</time>
      </trkpt>
      <trkpt lat="45.98281" lon="4.83698">
        <ele>272</ele>
        <time>2017-07-04T14:47:24Z</time>
      </trkpt>
      <trkpt lat="45.98279" lon="4.83702">
        <ele>272</ele>
        <time>2017-07-04T14:47:25Z</time>
      </trkpt>
      <trkpt lat="45.98276" lon="4.83712">
        <ele>272</ele>
        <time>2017-07-04T14:47:27Z</time>
      </trkpt>
      <trkpt lat="45.98274" lon="4.83717">
        <ele>272</ele>
        <time>2017-07-04T14:47:28Z</time>
      </trkpt>
      <trkpt lat="45.9827" lon="4.83727">
        <ele>272</ele>
        <time>2017-07-04T14:47:30Z</time>
      </trkpt>
      <trkpt lat="45.98268" lon="4.83733">
        <ele>272</ele>
        <time>2017-07-04T14:47:31Z</time>
      </trkpt>
      <trkpt lat="45.98264" lon="4.83744">
        <ele>272</ele>
        <time>2017-07-04T14:47:33Z</time>
      </trkpt>
      <trkpt lat="45.98262" lon="4.8375">
        <ele>272</ele>
        <time>2017-07-04T14:47:34Z</time>
      </trkpt>
      <trkpt lat="45.98259" lon="4.83761">
        <ele>272</ele>
        <time>2017-07-04T14:47:36Z</time>
      </trkpt>
      <trkpt lat="45.98257" lon="4.83767">
        <ele>272</ele>
        <time>2017-07-04T14:47:37Z</time>
      </trkpt>
      <trkpt lat="45.98254" lon="4.83777">
        <ele>272</ele>
        <time>2017-07-04T14:47:39Z</time>
      </trkpt>
      <trkpt lat="45.98252" lon="4.83782">
        <ele>272</ele>
        <time>2017-07-04T14:47:40Z</time>
      </trkpt>
      <trkpt lat="45.98249" lon="4.83791">
        <ele>272</ele>
        <time>2017-07-04T14:47:42Z</time>
      </trkpt>
      <trkpt lat="45.98248" lon="4.83795">
        <ele>272</ele>
        <time>2017-07-04T14:47:43Z</time>
      </trkpt>
      <trkpt lat="45.98245" lon="4.83803">
        <ele>272</ele>
        <time>2017-07-04T14:47:45Z</time>
      </trkpt>
      <trkpt lat="45.98244" lon="4.83808">
        <ele>272</ele>
        <time>2017-07-04T14:47:46Z</time>
      </trkpt>
      <trkpt lat="45.98241" lon="4.83818">
        <ele>272</ele>
        <time>2017-07-04T14:47:48Z</time>
      </trkpt>
      <trkpt lat="45.9824" lon="4.83824">
        <ele>272</ele>
        <time>2017-07-04T14:47:49Z</time>
      </trkpt>
      <trkpt lat="45.98236" lon="4.83835">
        <ele>272</ele>
        <time>2017-07-04T14:47:51Z</time>
      </trkpt>
      <trkpt lat="45.98233" lon="4.83842">
        <ele>272</ele>
        <time>2017-07-04T14:47:52Z</time>
      </trkpt>
      <trkpt lat="45.98231" lon="4.83849">
        <ele>272</ele>
        <time>2017-07-04T14:47:53Z</time>
      </trkpt>
      <trkpt lat="45.98229" lon="4.83855">
        <ele>272</ele>
        <time>2017-07-04T14:47:54Z</time>
      </trkpt>
      <trkpt lat="45.98225" lon="4.83865">
        <ele>272</ele>
        <time>2017-07-04T14:47:56Z</time>
      </trkpt>
      <trkpt lat="45.98224" lon="4.83871">
        <ele>272</ele>
        <time>2017-07-04T14:47:57Z</time>
      </trkpt>
      <trkpt lat="45.9822" lon="4.83881">
        <ele>272</ele>
        <time>2017-07-04T14:47:59Z</time>
      </trkpt>
      <trkpt lat="45.98219" lon="4.83886">
        <ele>272</ele>
        <time>2017-07-04T14:48:00Z</time>
      </trkpt>
      <trkpt lat="45.98216" lon="4.83895">
        <ele>273</ele>
        <time>2017-07-04T14:48:02Z</time>
      </trkpt>
      <trkpt lat="45.98214" lon="4.83898">
        <ele>273</ele>
        <time>2017-07-04T14:48:03Z</time>
      </trkpt>
      <trkpt lat="45.98211" lon="4.83907">
        <ele>273</ele>
        <time>2017-07-04T14:48:05Z</time>
      </trkpt>
      <trkpt lat="45.98209" lon="4.83912">
        <ele>273</ele>
        <time>2017-07-04T14:48:06Z</time>
      </trkpt>
      <trkpt lat="45.98205" lon="4.83923">
        <ele>273</ele>
        <time>2017-07-04T14:48:08Z</time>
      </trkpt>
      <trkpt lat="45.98203" lon="4.83928">
        <ele>273</ele>
        <time>2017-07-04T14:48:09Z</time>
      </trkpt>
      <trkpt lat="45.98201" lon="4.83934">
        <ele>273</ele>
        <time>2017-07-04T14:48:10Z</time>
      </trkpt>
      <trkpt lat="45.98199" lon="4.8394">
        <ele>273</ele>
        <time>2017-07-04T14:48:11Z</time>
      </trkpt>
      <trkpt lat="45.98197" lon="4.83946">
        <ele>273</ele>
        <time>2017-07-04T14:48:12Z</time>
      </trkpt>
      <trkpt lat="45.98195" lon="4.83952">
        <ele>273</ele>
        <time>2017-07-04T14:48:13Z</time>
      </trkpt>
      <trkpt lat="45.9819" lon="4.83963">
        <ele>273</ele>
        <time>2017-07-04T14:48:15Z</time>
      </trkpt>
      <trkpt lat="45.98188" lon="4.83969">
        <ele>273</ele>
        <time>2017-07-04T14:48:16Z</time>
      </trkpt>
      <trkpt lat="45.98185" lon="4.83978">
        <ele>273</ele>
        <time>2017-07-04T14:48:18Z</time>
      </trkpt>
      <trkpt lat="45.98183" lon="4.83983">
        <ele>273</ele>
        <time>2017-07-04T14:48:19Z</time>
      </trkpt>
      <trkpt lat="45.98179" lon="4.83993">
        <ele>273</ele>
        <time>2017-07-04T14:48:21Z</time>
      </trkpt>
      <trkpt lat="45.98176" lon="4.83998">
        <ele>273</ele>
        <time>2017-07-04T14:48:22Z</time>
      </trkpt>
      <trkpt lat="45.98175" lon="4.84004">
        <ele>273</ele>
        <time>2017-07-04T14:48:23Z</time>
      </trkpt>
      <trkpt lat="45.98172" lon="4.84011">
        <ele>273</ele>
        <time>2017-07-04T14:48:24Z</time>
      </trkpt>
      <trkpt lat="45.98169" lon="4.84017">
        <ele>273</ele>
        <time>2017-07-04T14:48:25Z</time>
      </trkpt>
      <trkpt lat="45.98166" lon="4.84023">
        <ele>273</ele>
        <time>2017-07-04T14:48:26Z</time>
      </trkpt>
      <trkpt lat="45.98163" lon="4.84028">
        <ele>273</ele>
        <time>2017-07-04T14:48:27Z</time>
      </trkpt>
      <trkpt lat="45.9816" lon="4.84034">
        <ele>273</ele>
        <time>2017-07-04T14:48:28Z</time>
      </trkpt>
      <trkpt lat="45.98156" lon="4.84039">
        <ele>273</ele>
        <time>2017-07-04T14:48:29Z</time>
      </trkpt>
      <trkpt lat="45.98153" lon="4.84044">
        <ele>273</ele>
        <time>2017-07-04T14:48:30Z</time>
      </trkpt>
      <trkpt lat="45.9815" lon="4.84048">
        <ele>273</ele>
        <time>2017-07-04T14:48:31Z</time>
      </trkpt>
      <trkpt lat="45.98146" lon="4.84053">
        <ele>273</ele>
        <time>2017-07-04T14:48:32Z</time>
      </trkpt>
      <trkpt lat="45.98143" lon="4.84058">
        <ele>273</ele>
        <time>2017-07-04T14:48:33Z</time>
      </trkpt>
      <trkpt lat="45.9814" lon="4.84063">
        <ele>273</ele>
        <time>2017-07-04T14:48:34Z</time>
      </trkpt>
      <trkpt lat="45.98137" lon="4.84067">
        <ele>273</ele>
        <time>2017-07-04T14:48:35Z</time>
      </trkpt>
      <trkpt lat="45.98133" lon="4.84072">
        <ele>273</ele>
        <time>2017-07-04T14:48:36Z</time>
      </trkpt>
      <trkpt lat="45.98129" lon="4.84076">
        <ele>273</ele>
        <time>2017-07-04T14:48:37Z</time>
      </trkpt>
      <trkpt lat="45.98125" lon="4.8408">
        <ele>273</ele>
        <time>2017-07-04T14:48:38Z</time>
      </trkpt>
      <trkpt lat="45.9812" lon="4.84085">
        <ele>273</ele>
        <time>2017-07-04T14:48:39Z</time>
      </trkpt>
      <trkpt lat="45.98116" lon="4.8409">
        <ele>273</ele>
        <time>2017-07-04T14:48:40Z</time>
      </trkpt>
      <trkpt lat="45.98112" lon="4.84094">
        <ele>273</ele>
        <time>2017-07-04T14:48:41Z</time>
      </trkpt>
      <trkpt lat="45.98108" lon="4.84097">
        <ele>273</ele>
        <time>2017-07-04T14:48:42Z</time>
      </trkpt>
      <trkpt lat="45.98101" lon="4.84105">
        <ele>273</ele>
        <time>2017-07-04T14:48:44Z</time>
      </trkpt>
      <trkpt lat="45.98097" lon="4.84108">
        <ele>273</ele>
        <time>2017-07-04T14:48:45Z</time>
      </trkpt>
      <trkpt lat="45.9809" lon="4.84114">
        <ele>273</ele>
        <time>2017-07-04T14:48:47Z</time>
      </trkpt>
      <trkpt lat="45.98087" lon="4.84117">
        <ele>273</ele>
        <time>2017-07-04T14:48:48Z</time>
      </trkpt>
      <trkpt lat="45.98083" lon="4.84121">
        <ele>273</ele>
        <time>2017-07-04T14:48:49Z</time>
      </trkpt>
      <trkpt lat="45.98079" lon="4.84125">
        <ele>273</ele>
        <time>2017-07-04T14:48:50Z</time>
      </trkpt>
      <trkpt lat="45.98074" lon="4.84128">
        <ele>273</ele>
        <time>2017-07-04T14:48:51Z</time>
      </trkpt>
      <trkpt lat="45.9807" lon="4.84132">
        <ele>273</ele>
        <time>2017-07-04T14:48:52Z</time>
      </trkpt>
      <trkpt lat="45.98066" lon="4.84136">
        <ele>273</ele>
        <time>2017-07-04T14:48:53Z</time>
      </trkpt>
      <trkpt lat="45.98062" lon="4.84141">
        <ele>273</ele>
        <time>2017-07-04T14:48:54Z</time>
      </trkpt>
      <trkpt lat="45.98058" lon="4.84145">
        <ele>273</ele>
        <time>2017-07-04T14:48:55Z</time>
      </trkpt>
      <trkpt lat="45.98054" lon="4.84149">
        <ele>273</ele>
        <time>2017-07-04T14:48:56Z</time>
      </trkpt>
      <trkpt lat="45.98051" lon="4.84153">
        <ele>273</ele>
        <time>2017-07-04T14:48:57Z</time>
      </trkpt>
      <trkpt lat="45.98046" lon="4.84156">
        <ele>273</ele>
        <time>2017-07-04T14:48:58Z</time>
      </trkpt>
      <trkpt lat="45.98042" lon="4.8416">
        <ele>273</ele>
        <time>2017-07-04T14:48:59Z</time>
      </trkpt>
      <trkpt lat="45.98038" lon="4.84164">
        <ele>273</ele>
        <time>2017-07-04T14:49:00Z</time>
      </trkpt>
      <trkpt lat="45.98033" lon="4.84168">
        <ele>273</ele>
        <time>2017-07-04T14:49:01Z</time>
      </trkpt>
      <trkpt lat="45.98029" lon="4.84172">
        <ele>274</ele>
        <time>2017-07-04T14:49:02Z</time>
      </trkpt>
      <trkpt lat="45.98025" lon="4.84175">
        <ele>274</ele>
        <time>2017-07-04T14:49:03Z</time>
      </trkpt>
      <trkpt lat="45.98022" lon="4.84179">
        <ele>274</ele>
        <time>2017-07-04T14:49:04Z</time>
      </trkpt>
      <trkpt lat="45.98014" lon="4.84186">
        <ele>274</ele>
        <time>2017-07-04T14:49:06Z</time>
      </trkpt>
      <trkpt lat="45.98011" lon="4.84189">
        <ele>274</ele>
        <time>2017-07-04T14:49:07Z</time>
      </trkpt>
      <trkpt lat="45.98003" lon="4.84195">
        <ele>274</ele>
        <time>2017-07-04T14:49:09Z</time>
      </trkpt>
      <trkpt lat="45.98" lon="4.84198">
        <ele>274</ele>
        <time>2017-07-04T14:49:10Z</time>
      </trkpt>
      <trkpt lat="45.97992" lon="4.84204">
        <ele>274</ele>
        <time>2017-07-04T14:49:12Z</time>
      </trkpt>
      <trkpt lat="45.97988" lon="4.84208">
        <ele>274</ele>
        <time>2017-07-04T14:49:13Z</time>
      </trkpt>
      <trkpt lat="45.97981" lon="4.84215">
        <ele>274</ele>
        <time>2017-07-04T14:49:15Z</time>
      </trkpt>
      <trkpt lat="45.97977" lon="4.84218">
        <ele>274</ele>
        <time>2017-07-04T14:49:16Z</time>
      </trkpt>
      <trkpt lat="45.97971" lon="4.84224">
        <ele>274</ele>
        <time>2017-07-04T14:49:18Z</time>
      </trkpt>
      <trkpt lat="45.97967" lon="4.84227">
        <ele>274</ele>
        <time>2017-07-04T14:49:19Z</time>
      </trkpt>
      <trkpt lat="45.9796" lon="4.84233">
        <ele>274</ele>
        <time>2017-07-04T14:49:21Z</time>
      </trkpt>
      <trkpt lat="45.97956" lon="4.84237">
        <ele>275</ele>
        <time>2017-07-04T14:49:22Z</time>
      </trkpt>
      <trkpt lat="45.97952" lon="4.84241">
        <ele>275</ele>
        <time>2017-07-04T14:49:23Z</time>
      </trkpt>
      <trkpt lat="45.97948" lon="4.84244">
        <ele>275</ele>
        <time>2017-07-04T14:49:24Z</time>
      </trkpt>
      <trkpt lat="45.97944" lon="4.84247">
        <ele>275</ele>
        <time>2017-07-04T14:49:25Z</time>
      </trkpt>
      <trkpt lat="45.9794" lon="4.84251">
        <ele>275</ele>
        <time>2017-07-04T14:49:26Z</time>
      </trkpt>
      <trkpt lat="45.97933" lon="4.84258">
        <ele>275</ele>
        <time>2017-07-04T14:49:28Z</time>
      </trkpt>
      <trkpt lat="45.9793" lon="4.84262">
        <ele>275</ele>
        <time>2017-07-04T14:49:29Z</time>
      </trkpt>
      <trkpt lat="45.97925" lon="4.84272">
        <ele>275</ele>
        <time>2017-07-04T14:49:31Z</time>
      </trkpt>
      <trkpt lat="45.97924" lon="4.84278">
        <ele>275</ele>
        <time>2017-07-04T14:49:32Z</time>
      </trkpt>
      <trkpt lat="45.97923" lon="4.84285">
        <ele>275</ele>
        <time>2017-07-04T14:49:33Z</time>
      </trkpt>
      <trkpt lat="45.97923" lon="4.84292">
        <ele>275</ele>
        <time>2017-07-04T14:49:34Z</time>
      </trkpt>
      <trkpt lat="45.97925" lon="4.84299">
        <ele>275</ele>
        <time>2017-07-04T14:49:35Z</time>
      </trkpt>
      <trkpt lat="45.97926" lon="4.84306">
        <ele>275</ele>
        <time>2017-07-04T14:49:36Z</time>
      </trkpt>
      <trkpt lat="45.97927" lon="4.84312">
        <ele>275</ele>
        <time>2017-07-04T14:49:37Z</time>
      </trkpt>
      <trkpt lat="45.97928" lon="4.84319">
        <ele>275</ele>
        <time>2017-07-04T14:49:38Z</time>
      </trkpt>
      <trkpt lat="45.97931" lon="4.84331">
        <ele>275</ele>
        <time>2017-07-04T14:49:40Z</time>
      </trkpt>
      <trkpt lat="45.97932" lon="4.84336">
        <ele>275</ele>
        <time>2017-07-04T14:49:41Z</time>
      </trkpt>
      <trkpt lat="45.97935" lon="4.84348">
        <ele>275</ele>
        <time>2017-07-04T14:49:43Z</time>
      </trkpt>
      <trkpt lat="45.97936" lon="4.84354">
        <ele>275</ele>
        <time>2017-07-04T14:49:44Z</time>
      </trkpt>
      <trkpt lat="45.97937" lon="4.84361">
        <ele>275</ele>
        <time>2017-07-04T14:49:45Z</time>
      </trkpt>
      <trkpt lat="45.97939" lon="4.84368">
        <ele>275</ele>
        <time>2017-07-04T14:49:46Z</time>
      </trkpt>
      <trkpt lat="45.9794" lon="4.84375">
        <ele>275</ele>
        <time>2017-07-04T14:49:47Z</time>
      </trkpt>
      <trkpt lat="45.97942" lon="4.84382">
        <ele>275</ele>
        <time>2017-07-04T14:49:48Z</time>
      </trkpt>
      <trkpt lat="45.97943" lon="4.84389">
        <ele>275</ele>
        <time>2017-07-04T14:49:49Z</time>
      </trkpt>
      <trkpt lat="45.97945" lon="4.84397">
        <ele>275</ele>
        <time>2017-07-04T14:49:50Z</time>
      </trkpt>
      <trkpt lat="45.97947" lon="4.84404">
        <ele>275</ele>
        <time>2017-07-04T14:49:51Z</time>
      </trkpt>
      <trkpt lat="45.97948" lon="4.84411">
        <ele>275</ele>
        <time>2017-07-04T14:49:52Z</time>
      </trkpt>
      <trkpt lat="45.97949" lon="4.84417">
        <ele>275</ele>
        <time>2017-07-04T14:49:53Z</time>
      </trkpt>
      <trkpt lat="45.9795" lon="4.84424">
        <ele>275</ele>
        <time>2017-07-04T14:49:54Z</time>
      </trkpt>
      <trkpt lat="45.9795" lon="4.8443">
        <ele>275</ele>
        <time>2017-07-04T14:49:55Z</time>
      </trkpt>
      <trkpt lat="45.97951" lon="4.84438">
        <ele>275</ele>
        <time>2017-07-04T14:49:56Z</time>
      </trkpt>
      <trkpt lat="45.97952" lon="4.84445">
        <ele>275</ele>
        <time>2017-07-04T14:49:57Z</time>
      </trkpt>
      <trkpt lat="45.97954" lon="4.84451">
        <ele>275</ele>
        <time>2017-07-04T14:49:58Z</time>
      </trkpt>
      <trkpt lat="45.97955" lon="4.84457">
        <ele>275</ele>
        <time>2017-07-04T14:49:59Z</time>
      </trkpt>
      <trkpt lat="45.97957" lon="4.84464">
        <ele>275</ele>
        <time>2017-07-04T14:50:00Z</time>
      </trkpt>
      <trkpt lat="45.97958" lon="4.84471">
        <ele>275</ele>
        <time>2017-07-04T14:50:01Z</time>
      </trkpt>
      <trkpt lat="45.97959" lon="4.84477">
        <ele>275</ele>
        <time>2017-07-04T14:50:02Z</time>
      </trkpt>
      <trkpt lat="45.9796" lon="4.84483">
        <ele>275</ele>
        <time>2017-07-04T14:50:03Z</time>
      </trkpt>
      <trkpt lat="45.97961" lon="4.8449">
        <ele>275</ele>
        <time>2017-07-04T14:50:04Z</time>
      </trkpt>
      <trkpt lat="45.97962" lon="4.84496">
        <ele>275</ele>
        <time>2017-07-04T14:50:05Z</time>
      </trkpt>
      <trkpt lat="45.97963" lon="4.84502">
        <ele>275</ele>
        <time>2017-07-04T14:50:06Z</time>
      </trkpt>
      <trkpt lat="45.97964" lon="4.84509">
        <ele>275</ele>
        <time>2017-07-04T14:50:07Z</time>
      </trkpt>
      <trkpt lat="45.97965" lon="4.84515">
        <ele>275</ele>
        <time>2017-07-04T14:50:08Z</time>
      </trkpt>
      <trkpt lat="45.97966" lon="4.84522">
        <ele>275</ele>
        <time>2017-07-04T14:50:09Z</time>
      </trkpt>
      <trkpt lat="45.97968" lon="4.84528">
        <ele>275</ele>
        <time>2017-07-04T14:50:10Z</time>
      </trkpt>
      <trkpt lat="45.97969" lon="4.84535">
        <ele>275</ele>
        <time>2017-07-04T14:50:11Z</time>
      </trkpt>
      <trkpt lat="45.9797" lon="4.84542">
        <ele>275</ele>
        <time>2017-07-04T14:50:12Z</time>
      </trkpt>
      <trkpt lat="45.97972" lon="4.8455">
        <ele>275</ele>
        <time>2017-07-04T14:50:13Z</time>
      </trkpt>
      <trkpt lat="45.97973" lon="4.84557">
        <ele>275</ele>
        <time>2017-07-04T14:50:14Z</time>
      </trkpt>
      <trkpt lat="45.97974" lon="4.84565">
        <ele>275</ele>
        <time>2017-07-04T14:50:15Z</time>
      </trkpt>
      <trkpt lat="45.97976" lon="4.84572">
        <ele>275</ele>
        <time>2017-07-04T14:50:16Z</time>
      </trkpt>
      <trkpt lat="45.97977" lon="4.84579">
        <ele>275</ele>
        <time>2017-07-04T14:50:17Z</time>
      </trkpt>
      <trkpt lat="45.97978" lon="4.84586">
        <ele>274</ele>
        <time>2017-07-04T14:50:18Z</time>
      </trkpt>
      <trkpt lat="45.97979" lon="4.84593">
        <ele>274</ele>
        <time>2017-07-04T14:50:19Z</time>
      </trkpt>
      <trkpt lat="45.9798" lon="4.846">
        <ele>274</ele>
        <time>2017-07-04T14:50:20Z</time>
      </trkpt>
      <trkpt lat="45.97982" lon="4.84607">
        <ele>274</ele>
        <time>2017-07-04T14:50:21Z</time>
      </trkpt>
      <trkpt lat="45.97983" lon="4.84613">
        <ele>275</ele>
        <time>2017-07-04T14:50:22Z</time>
      </trkpt>
      <trkpt lat="45.97984" lon="4.8462">
        <ele>275</ele>
        <time>2017-07-04T14:50:23Z</time>
      </trkpt>
      <trkpt lat="45.97985" lon="4.84626">
        <ele>275</ele>
        <time>2017-07-04T14:50:24Z</time>
      </trkpt>
      <trkpt lat="45.97985" lon="4.84633">
        <ele>275</ele>
        <time>2017-07-04T14:50:25Z</time>
      </trkpt>
      <trkpt lat="45.97986" lon="4.84639">
        <ele>275</ele>
        <time>2017-07-04T14:50:26Z</time>
      </trkpt>
      <trkpt lat="45.97986" lon="4.84647">
        <ele>274</ele>
        <time>2017-07-04T14:50:27Z</time>
      </trkpt>
      <trkpt lat="45.97987" lon="4.84654">
        <ele>274</ele>
        <time>2017-07-04T14:50:28Z</time>
      </trkpt>
      <trkpt lat="45.97987" lon="4.8466">
        <ele>274</ele>
        <time>2017-07-04T14:50:29Z</time>
      </trkpt>
      <trkpt lat="45.97988" lon="4.84667">
        <ele>274</ele>
        <time>2017-07-04T14:50:30Z</time>
      </trkpt>
      <trkpt lat="45.97989" lon="4.84674">
        <ele>275</ele>
        <time>2017-07-04T14:50:31Z</time>
      </trkpt>
      <trkpt lat="45.9799" lon="4.8468">
        <ele>275</ele>
        <time>2017-07-04T14:50:32Z</time>
      </trkpt>
      <trkpt lat="45.97991" lon="4.84687">
        <ele>275</ele>
        <time>2017-07-04T14:50:33Z</time>
      </trkpt>
      <trkpt lat="45.97991" lon="4.84693">
        <ele>275</ele>
        <time>2017-07-04T14:50:34Z</time>
      </trkpt>
      <trkpt lat="45.97992" lon="4.84705">
        <ele>275</ele>
        <time>2017-07-04T14:50:36Z</time>
      </trkpt>
      <trkpt lat="45.97992" lon="4.84712">
        <ele>275</ele>
        <time>2017-07-04T14:50:37Z</time>
      </trkpt>
      <trkpt lat="45.97993" lon="4.84719">
        <ele>275</ele>
        <time>2017-07-04T14:50:38Z</time>
      </trkpt>
      <trkpt lat="45.97993" lon="4.84726">
        <ele>275</ele>
        <time>2017-07-04T14:50:39Z</time>
      </trkpt>
      <trkpt lat="45.97994" lon="4.84737">
        <ele>275</ele>
        <time>2017-07-04T14:50:41Z</time>
      </trkpt>
      <trkpt lat="45.97993" lon="4.84743">
        <ele>275</ele>
        <time>2017-07-04T14:50:42Z</time>
      </trkpt>
      <trkpt lat="45.97994" lon="4.84755">
        <ele>275</ele>
        <time>2017-07-04T14:50:44Z</time>
      </trkpt>
      <trkpt lat="45.97994" lon="4.84761">
        <ele>275</ele>
        <time>2017-07-04T14:50:45Z</time>
      </trkpt>
      <trkpt lat="45.97994" lon="4.84768">
        <ele>275</ele>
        <time>2017-07-04T14:50:46Z</time>
      </trkpt>
      <trkpt lat="45.97995" lon="4.84774">
        <ele>274</ele>
        <time>2017-07-04T14:50:47Z</time>
      </trkpt>
      <trkpt lat="45.97996" lon="4.84781">
        <ele>274</ele>
        <time>2017-07-04T14:50:48Z</time>
      </trkpt>
      <trkpt lat="45.97996" lon="4.84788">
        <ele>274</ele>
        <time>2017-07-04T14:50:49Z</time>
      </trkpt>
      <trkpt lat="45.97997" lon="4.84795">
        <ele>274</ele>
        <time>2017-07-04T14:50:50Z</time>
      </trkpt>
      <trkpt lat="45.97997" lon="4.84802">
        <ele>274</ele>
        <time>2017-07-04T14:50:51Z</time>
      </trkpt>
      <trkpt lat="45.97997" lon="4.84808">
        <ele>273</ele>
        <time>2017-07-04T14:50:52Z</time>
      </trkpt>
      <trkpt lat="45.97998" lon="4.84815">
        <ele>273</ele>
        <time>2017-07-04T14:50:53Z</time>
      </trkpt>
      <trkpt lat="45.97999" lon="4.84822">
        <ele>273</ele>
        <time>2017-07-04T14:50:54Z</time>
      </trkpt>
      <trkpt lat="45.98" lon="4.84829">
        <ele>272</ele>
        <time>2017-07-04T14:50:55Z</time>
      </trkpt>
      <trkpt lat="45.98001" lon="4.8484">
        <ele>272</ele>
        <time>2017-07-04T14:50:57Z</time>
      </trkpt>
      <trkpt lat="45.98001" lon="4.84845">
        <ele>272</ele>
        <time>2017-07-04T14:50:58Z</time>
      </trkpt>
      <trkpt lat="45.98002" lon="4.84852">
        <ele>272</ele>
        <time>2017-07-04T14:50:59Z</time>
      </trkpt>
      <trkpt lat="45.98003" lon="4.8486">
        <ele>272</ele>
        <time>2017-07-04T14:51:00Z</time>
      </trkpt>
      <trkpt lat="45.98004" lon="4.84868">
        <ele>272</ele>
        <time>2017-07-04T14:51:01Z</time>
      </trkpt>
      <trkpt lat="45.98005" lon="4.84874">
        <ele>272</ele>
        <time>2017-07-04T14:51:02Z</time>
      </trkpt>
      <trkpt lat="45.98005" lon="4.84882">
        <ele>272</ele>
        <time>2017-07-04T14:51:03Z</time>
      </trkpt>
      <trkpt lat="45.98006" lon="4.84888">
        <ele>272</ele>
        <time>2017-07-04T14:51:04Z</time>
      </trkpt>
      <trkpt lat="45.98006" lon="4.84895">
        <ele>272</ele>
        <time>2017-07-04T14:51:05Z</time>
      </trkpt>
      <trkpt lat="45.98007" lon="4.84902">
        <ele>272</ele>
        <time>2017-07-04T14:51:06Z</time>
      </trkpt>
      <trkpt lat="45.98008" lon="4.84913">
        <ele>272</ele>
        <time>2017-07-04T14:51:08Z</time>
      </trkpt>
      <trkpt lat="45.98008" lon="4.8492">
        <ele>272</ele>
        <time>2017-07-04T14:51:09Z</time>
      </trkpt>
      <trkpt lat="45.98009" lon="4.84927">
        <ele>272</ele>
        <time>2017-07-04T14:51:10Z</time>
      </trkpt>
      <trkpt lat="45.9801" lon="4.84934">
        <ele>272</ele>
        <time>2017-07-04T14:51:11Z</time>
      </trkpt>
      <trkpt lat="45.98011" lon="4.8494">
        <ele>272</ele>
        <time>2017-07-04T14:51:12Z</time>
      </trkpt>
      <trkpt lat="45.98012" lon="4.84946">
        <ele>272</ele>
        <time>2017-07-04T14:51:13Z</time>
      </trkpt>
      <trkpt lat="45.98013" lon="4.84954">
        <ele>272</ele>
        <time>2017-07-04T14:51:14Z</time>
      </trkpt>
      <trkpt lat="45.98014" lon="4.84961">
        <ele>272</ele>
        <time>2017-07-04T14:51:15Z</time>
      </trkpt>
      <trkpt lat="45.98015" lon="4.84969">
        <ele>272</ele>
        <time>2017-07-04T14:51:16Z</time>
      </trkpt>
      <trkpt lat="45.98016" lon="4.84976">
        <ele>272</ele>
        <time>2017-07-04T14:51:17Z</time>
      </trkpt>
      <trkpt lat="45.98016" lon="4.84983">
        <ele>272</ele>
        <time>2017-07-04T14:51:18Z</time>
      </trkpt>
      <trkpt lat="45.98017" lon="4.8499">
        <ele>272</ele>
        <time>2017-07-04T14:51:19Z</time>
      </trkpt>
      <trkpt lat="45.98018" lon="4.84997">
        <ele>272</ele>
        <time>2017-07-04T14:51:20Z</time>
      </trkpt>
      <trkpt lat="45.98019" lon="4.85004">
        <ele>272</ele>
        <time>2017-07-04T14:51:21Z</time>
      </trkpt>
      <trkpt lat="45.98019" lon="4.85011">
        <ele>273</ele>
        <time>2017-07-04T14:51:22Z</time>
      </trkpt>
      <trkpt lat="45.9802" lon="4.85018">
        <ele>273</ele>
        <time>2017-07-04T14:51:23Z</time>
      </trkpt>
      <trkpt lat="45.9802" lon="4.85025">
        <ele>273</ele>
        <time>2017-07-04T14:51:24Z</time>
      </trkpt>
      <trkpt lat="45.9802" lon="4.85031">
        <ele>273</ele>
        <time>2017-07-04T14:51:25Z</time>
      </trkpt>
      <trkpt lat="45.9802" lon="4.85039">
        <ele>273</ele>
        <time>2017-07-04T14:51:26Z</time>
      </trkpt>
      <trkpt lat="45.9802" lon="4.85046">
        <ele>273</ele>
        <time>2017-07-04T14:51:27Z</time>
      </trkpt>
      <trkpt lat="45.9802" lon="4.85053">
        <ele>273</ele>
        <time>2017-07-04T14:51:28Z</time>
      </trkpt>
      <trkpt lat="45.9802" lon="4.8506">
        <ele>273</ele>
        <time>2017-07-04T14:51:29Z</time>
      </trkpt>
      <trkpt lat="45.9802" lon="4.85068">
        <ele>273</ele>
        <time>2017-07-04T14:51:30Z</time>
      </trkpt>
      <trkpt lat="45.9802" lon="4.85075">
        <ele>273</ele>
        <time>2017-07-04T14:51:31Z</time>
      </trkpt>
      <trkpt lat="45.98021" lon="4.85081">
        <ele>273</ele>
        <time>2017-07-04T14:51:32Z</time>
      </trkpt>
      <trkpt lat="45.98021" lon="4.85088">
        <ele>274</ele>
        <time>2017-07-04T14:51:33Z</time>
      </trkpt>
      <trkpt lat="45.98023" lon="4.851">
        <ele>274</ele>
        <time>2017-07-04T14:51:35Z</time>
      </trkpt>
      <trkpt lat="45.98024" lon="4.85106">
        <ele>274</ele>
        <time>2017-07-04T14:51:36Z</time>
      </trkpt>
      <trkpt lat="45.98026" lon="4.85112">
        <ele>274</ele>
        <time>2017-07-04T14:51:37Z</time>
      </trkpt>
      <trkpt lat="45.98028" lon="4.85118">
        <ele>274</ele>
        <time>2017-07-04T14:51:38Z</time>
      </trkpt>
      <trkpt lat="45.9803" lon="4.85124">
        <ele>274</ele>
        <time>2017-07-04T14:51:39Z</time>
      </trkpt>
      <trkpt lat="45.98031" lon="4.85131">
        <ele>274</ele>
        <time>2017-07-04T14:51:40Z</time>
      </trkpt>
      <trkpt lat="45.98034" lon="4.85142">
        <ele>275</ele>
        <time>2017-07-04T14:51:42Z</time>
      </trkpt>
      <trkpt lat="45.98035" lon="4.85148">
        <ele>275</ele>
        <time>2017-07-04T14:51:43Z</time>
      </trkpt>
      <trkpt lat="45.98037" lon="4.85154">
        <ele>275</ele>
        <time>2017-07-04T14:51:44Z</time>
      </trkpt>
      <trkpt lat="45.98039" lon="4.85161">
        <ele>275</ele>
        <time>2017-07-04T14:51:45Z</time>
      </trkpt>
      <trkpt lat="45.98041" lon="4.85167">
        <ele>275</ele>
        <time>2017-07-04T14:51:46Z</time>
      </trkpt>
      <trkpt lat="45.98043" lon="4.85172">
        <ele>275</ele>
        <time>2017-07-04T14:51:47Z</time>
      </trkpt>
      <trkpt lat="45.98047" lon="4.85182">
        <ele>276</ele>
        <time>2017-07-04T14:51:49Z</time>
      </trkpt>
      <trkpt lat="45.98048" lon="4.85187">
        <ele>276</ele>
        <time>2017-07-04T14:51:50Z</time>
      </trkpt>
      <trkpt lat="45.9805" lon="4.85196">
        <ele>276</ele>
        <time>2017-07-04T14:51:52Z</time>
      </trkpt>
      <trkpt lat="45.98052" lon="4.852">
        <ele>276</ele>
        <time>2017-07-04T14:51:53Z</time>
      </trkpt>
      <trkpt lat="45.98054" lon="4.85208">
        <ele>276</ele>
        <time>2017-07-04T14:51:55Z</time>
      </trkpt>
      <trkpt lat="45.98055" lon="4.85213">
        <ele>276</ele>
        <time>2017-07-04T14:51:56Z</time>
      </trkpt>
      <trkpt lat="45.98059" lon="4.85221">
        <ele>276</ele>
        <time>2017-07-04T14:51:58Z</time>
      </trkpt>
      <trkpt lat="45.9806" lon="4.85226">
        <ele>276</ele>
        <time>2017-07-04T14:51:59Z</time>
      </trkpt>
      <trkpt lat="45.98063" lon="4.85231">
        <ele>276</ele>
        <time>2017-07-04T14:52:00Z</time>
      </trkpt>
      <trkpt lat="45.98066" lon="4.85236">
        <ele>276</ele>
        <time>2017-07-04T14:52:01Z</time>
      </trkpt>
      <trkpt lat="45.98069" lon="4.85241">
        <ele>276</ele>
        <time>2017-07-04T14:52:02Z</time>
      </trkpt>
      <trkpt lat="45.98072" lon="4.85246">
        <ele>276</ele>
        <time>2017-07-04T14:52:03Z</time>
      </trkpt>
      <trkpt lat="45.98074" lon="4.85252">
        <ele>276</ele>
        <time>2017-07-04T14:52:04Z</time>
      </trkpt>
      <trkpt lat="45.98077" lon="4.85257">
        <ele>276</ele>
        <time>2017-07-04T14:52:05Z</time>
      </trkpt>
      <trkpt lat="45.9808" lon="4.85262">
        <ele>276</ele>
        <time>2017-07-04T14:52:06Z</time>
      </trkpt>
      <trkpt lat="45.98083" lon="4.85268">
        <ele>276</ele>
        <time>2017-07-04T14:52:07Z</time>
      </trkpt>
      <trkpt lat="45.98086" lon="4.85274">
        <ele>276</ele>
        <time>2017-07-04T14:52:08Z</time>
      </trkpt>
      <trkpt lat="45.98088" lon="4.85279">
        <ele>276</ele>
        <time>2017-07-04T14:52:09Z</time>
      </trkpt>
      <trkpt lat="45.98091" lon="4.85286">
        <ele>276</ele>
        <time>2017-07-04T14:52:10Z</time>
      </trkpt>
      <trkpt lat="45.98094" lon="4.85291">
        <ele>276</ele>
        <time>2017-07-04T14:52:11Z</time>
      </trkpt>
      <trkpt lat="45.98097" lon="4.85297">
        <ele>276</ele>
        <time>2017-07-04T14:52:12Z</time>
      </trkpt>
      <trkpt lat="45.98099" lon="4.85303">
        <ele>276</ele>
        <time>2017-07-04T14:52:13Z</time>
      </trkpt>
      <trkpt lat="45.98101" lon="4.8531">
        <ele>276</ele>
        <time>2017-07-04T14:52:14Z</time>
      </trkpt>
      <trkpt lat="45.98104" lon="4.85316">
        <ele>276</ele>
        <time>2017-07-04T14:52:15Z</time>
      </trkpt>
      <trkpt lat="45.98106" lon="4.85322">
        <ele>276</ele>
        <time>2017-07-04T14:52:16Z</time>
      </trkpt>
      <trkpt lat="45.98108" lon="4.85328">
        <ele>276</ele>
        <time>2017-07-04T14:52:17Z</time>
      </trkpt>
      <trkpt lat="45.9811" lon="4.85334">
        <ele>276</ele>
        <time>2017-07-04T14:52:18Z</time>
      </trkpt>
      <trkpt lat="45.98112" lon="4.85339">
        <ele>276</ele>
        <time>2017-07-04T14:52:19Z</time>
      </trkpt>
      <trkpt lat="45.98115" lon="4.85345">
        <ele>276</ele>
        <time>2017-07-04T14:52:20Z</time>
      </trkpt>
      <trkpt lat="45.98117" lon="4.85351">
        <ele>276</ele>
        <time>2017-07-04T14:52:21Z</time>
      </trkpt>
      <trkpt lat="45.9812" lon="4.85357">
        <ele>276</ele>
        <time>2017-07-04T14:52:22Z</time>
      </trkpt>
      <trkpt lat="45.98122" lon="4.85364">
        <ele>276</ele>
        <time>2017-07-04T14:52:23Z</time>
      </trkpt>
      <trkpt lat="45.98125" lon="4.85371">
        <ele>276</ele>
        <time>2017-07-04T14:52:24Z</time>
      </trkpt>
      <trkpt lat="45.98128" lon="4.85378">
        <ele>276</ele>
        <time>2017-07-04T14:52:25Z</time>
      </trkpt>
      <trkpt lat="45.98131" lon="4.85385">
        <ele>276</ele>
        <time>2017-07-04T14:52:26Z</time>
      </trkpt>
      <trkpt lat="45.98134" lon="4.85392">
        <ele>276</ele>
        <time>2017-07-04T14:52:27Z</time>
      </trkpt>
      <trkpt lat="45.98137" lon="4.85399">
        <ele>276</ele>
        <time>2017-07-04T14:52:28Z</time>
      </trkpt>
      <trkpt lat="45.9814" lon="4.85406">
        <ele>276</ele>
        <time>2017-07-04T14:52:29Z</time>
      </trkpt>
      <trkpt lat="45.98143" lon="4.85413">
        <ele>276</ele>
        <time>2017-07-04T14:52:30Z</time>
      </trkpt>
      <trkpt lat="45.98146" lon="4.85419">
        <ele>276</ele>
        <time>2017-07-04T14:52:31Z</time>
      </trkpt>
      <trkpt lat="45.98149" lon="4.85425">
        <ele>276</ele>
        <time>2017-07-04T14:52:32Z</time>
      </trkpt>
      <trkpt lat="45.98152" lon="4.85432">
        <ele>276</ele>
        <time>2017-07-04T14:52:33Z</time>
      </trkpt>
      <trkpt lat="45.98155" lon="4.85438">
        <ele>276</ele>
        <time>2017-07-04T14:52:34Z</time>
      </trkpt>
      <trkpt lat="45.98158" lon="4.85445">
        <ele>276</ele>
        <time>2017-07-04T14:52:35Z</time>
      </trkpt>
      <trkpt lat="45.98161" lon="4.85452">
        <ele>276</ele>
        <time>2017-07-04T14:52:36Z</time>
      </trkpt>
      <trkpt lat="45.98164" lon="4.85458">
        <ele>276</ele>
        <time>2017-07-04T14:52:37Z</time>
      </trkpt>
      <trkpt lat="45.98166" lon="4.85465">
        <ele>275</ele>
        <time>2017-07-04T14:52:38Z</time>
      </trkpt>
      <trkpt lat="45.98168" lon="4.85471">
        <ele>275</ele>
        <time>2017-07-04T14:52:39Z</time>
      </trkpt>
      <trkpt lat="45.98171" lon="4.85478">
        <ele>275</ele>
        <time>2017-07-04T14:52:40Z</time>
      </trkpt>
      <trkpt lat="45.98173" lon="4.85484">
        <ele>275</ele>
        <time>2017-07-04T14:52:41Z</time>
      </trkpt>
      <trkpt lat="45.98176" lon="4.8549">
        <ele>275</ele>
        <time>2017-07-04T14:52:42Z</time>
      </trkpt>
      <trkpt lat="45.98179" lon="4.85496">
        <ele>275</ele>
        <time>2017-07-04T14:52:43Z</time>
      </trkpt>
      <trkpt lat="45.98181" lon="4.85503">
        <ele>275</ele>
        <time>2017-07-04T14:52:44Z</time>
      </trkpt>
      <trkpt lat="45.98183" lon="4.8551">
        <ele>275</ele>
        <time>2017-07-04T14:52:45Z</time>
      </trkpt>
      <trkpt lat="45.98186" lon="4.85517">
        <ele>275</ele>
        <time>2017-07-04T14:52:46Z</time>
      </trkpt>
      <trkpt lat="45.98189" lon="4.85523">
        <ele>276</ele>
        <time>2017-07-04T14:52:47Z</time>
      </trkpt>
      <trkpt lat="45.98191" lon="4.85529">
        <ele>276</ele>
        <time>2017-07-04T14:52:48Z</time>
      </trkpt>
      <trkpt lat="45.98194" lon="4.85535">
        <ele>276</ele>
        <time>2017-07-04T14:52:49Z</time>
      </trkpt>
      <trkpt lat="45.98196" lon="4.85541">
        <ele>276</ele>
        <time>2017-07-04T14:52:50Z</time>
      </trkpt>
      <trkpt lat="45.98198" lon="4.85547">
        <ele>276</ele>
        <time>2017-07-04T14:52:51Z</time>
      </trkpt>
      <trkpt lat="45.98202" lon="4.85557">
        <ele>276</ele>
        <time>2017-07-04T14:52:53Z</time>
      </trkpt>
      <trkpt lat="45.98204" lon="4.85562">
        <ele>276</ele>
        <time>2017-07-04T14:52:54Z</time>
      </trkpt>
      <trkpt lat="45.98206" lon="4.85568">
        <ele>276</ele>
        <time>2017-07-04T14:52:55Z</time>
      </trkpt>
      <trkpt lat="45.98209" lon="4.85574">
        <ele>276</ele>
        <time>2017-07-04T14:52:56Z</time>
      </trkpt>
      <trkpt lat="45.98211" lon="4.85579">
        <ele>276</ele>
        <time>2017-07-04T14:52:57Z</time>
      </trkpt>
      <trkpt lat="45.98214" lon="4.85585">
        <ele>277</ele>
        <time>2017-07-04T14:52:58Z</time>
      </trkpt>
      <trkpt lat="45.98216" lon="4.85591">
        <ele>277</ele>
        <time>2017-07-04T14:52:59Z</time>
      </trkpt>
      <trkpt lat="45.98218" lon="4.85597">
        <ele>277</ele>
        <time>2017-07-04T14:53:00Z</time>
      </trkpt>
      <trkpt lat="45.98222" lon="4.85608">
        <ele>277</ele>
        <time>2017-07-04T14:53:02Z</time>
      </trkpt>
      <trkpt lat="45.98224" lon="4.85613">
        <ele>277</ele>
        <time>2017-07-04T14:53:03Z</time>
      </trkpt>
      <trkpt lat="45.98229" lon="4.85624">
        <ele>277</ele>
        <time>2017-07-04T14:53:05Z</time>
      </trkpt>
      <trkpt lat="45.98231" lon="4.8563">
        <ele>277</ele>
        <time>2017-07-04T14:53:06Z</time>
      </trkpt>
      <trkpt lat="45.98233" lon="4.85635">
        <ele>277</ele>
        <time>2017-07-04T14:53:07Z</time>
      </trkpt>
      <trkpt lat="45.98236" lon="4.85642">
        <ele>277</ele>
        <time>2017-07-04T14:53:08Z</time>
      </trkpt>
      <trkpt lat="45.98238" lon="4.85648">
        <ele>277</ele>
        <time>2017-07-04T14:53:09Z</time>
      </trkpt>
      <trkpt lat="45.9824" lon="4.85654">
        <ele>276</ele>
        <time>2017-07-04T14:53:10Z</time>
      </trkpt>
      <trkpt lat="45.98243" lon="4.85659">
        <ele>276</ele>
        <time>2017-07-04T14:53:11Z</time>
      </trkpt>
      <trkpt lat="45.98245" lon="4.85665">
        <ele>276</ele>
        <time>2017-07-04T14:53:12Z</time>
      </trkpt>
      <trkpt lat="45.98249" lon="4.85676">
        <ele>276</ele>
        <time>2017-07-04T14:53:14Z</time>
      </trkpt>
      <trkpt lat="45.98251" lon="4.85681">
        <ele>275</ele>
        <time>2017-07-04T14:53:15Z</time>
      </trkpt>
      <trkpt lat="45.98255" lon="4.85691">
        <ele>275</ele>
        <time>2017-07-04T14:53:17Z</time>
      </trkpt>
      <trkpt lat="45.98257" lon="4.85695">
        <ele>275</ele>
        <time>2017-07-04T14:53:18Z</time>
      </trkpt>
      <trkpt lat="45.98261" lon="4.85705">
        <ele>275</ele>
        <time>2017-07-04T14:53:20Z</time>
      </trkpt>
      <trkpt lat="45.98264" lon="4.85711">
        <ele>275</ele>
        <time>2017-07-04T14:53:21Z</time>
      </trkpt>
      <trkpt lat="45.98266" lon="4.85717">
        <ele>275</ele>
        <time>2017-07-04T14:53:22Z</time>
      </trkpt>
      <trkpt lat="45.98269" lon="4.85722">
        <ele>275</ele>
        <time>2017-07-04T14:53:23Z</time>
      </trkpt>
      <trkpt lat="45.98271" lon="4.85728">
        <ele>274</ele>
        <time>2017-07-04T14:53:24Z</time>
      </trkpt>
      <trkpt lat="45.98273" lon="4.85735">
        <ele>274</ele>
        <time>2017-07-04T14:53:25Z</time>
      </trkpt>
      <trkpt lat="45.98276" lon="4.85741">
        <ele>274</ele>
        <time>2017-07-04T14:53:26Z</time>
      </trkpt>
      <trkpt lat="45.98278" lon="4.85747">
        <ele>274</ele>
        <time>2017-07-04T14:53:27Z</time>
      </trkpt>
      <trkpt lat="45.98281" lon="4.85752">
        <ele>275</ele>
        <time>2017-07-04T14:53:28Z</time>
      </trkpt>
      <trkpt lat="45.98283" lon="4.85757">
        <ele>275</ele>
        <time>2017-07-04T14:53:29Z</time>
      </trkpt>
      <trkpt lat="45.98287" lon="4.85767">
        <ele>275</ele>
        <time>2017-07-04T14:53:31Z</time>
      </trkpt>
      <trkpt lat="45.9829" lon="4.85772">
        <ele>275</ele>
        <time>2017-07-04T14:53:32Z</time>
      </trkpt>
      <trkpt lat="45.98294" lon="4.85783">
        <ele>275</ele>
        <time>2017-07-04T14:53:34Z</time>
      </trkpt>
      <trkpt lat="45.98296" lon="4.8579">
        <ele>275</ele>
        <time>2017-07-04T14:53:35Z</time>
      </trkpt>
      <trkpt lat="45.98299" lon="4.85796">
        <ele>275</ele>
        <time>2017-07-04T14:53:36Z</time>
      </trkpt>
      <trkpt lat="45.98301" lon="4.85802">
        <ele>275</ele>
        <time>2017-07-04T14:53:37Z</time>
      </trkpt>
      <trkpt lat="45.98304" lon="4.85809">
        <ele>275</ele>
        <time>2017-07-04T14:53:38Z</time>
      </trkpt>
      <trkpt lat="45.98306" lon="4.85815">
        <ele>275</ele>
        <time>2017-07-04T14:53:39Z</time>
      </trkpt>
      <trkpt lat="45.98308" lon="4.85821">
        <ele>275</ele>
        <time>2017-07-04T14:53:40Z</time>
      </trkpt>
      <trkpt lat="45.98311" lon="4.85826">
        <ele>275</ele>
        <time>2017-07-04T14:53:41Z</time>
      </trkpt>
      <trkpt lat="45.98313" lon="4.85832">
        <ele>275</ele>
        <time>2017-07-04T14:53:42Z</time>
      </trkpt>
      <trkpt lat="45.98316" lon="4.85838">
        <ele>276</ele>
        <time>2017-07-04T14:53:43Z</time>
      </trkpt>
      <trkpt lat="45.9832" lon="4.85848">
        <ele>276</ele>
        <time>2017-07-04T14:53:45Z</time>
      </trkpt>
      <trkpt lat="45.98322" lon="4.85853">
        <ele>276</ele>
        <time>2017-07-04T14:53:46Z</time>
      </trkpt>
      <trkpt lat="45.98325" lon="4.85859">
        <ele>276</ele>
        <time>2017-07-04T14:53:47Z</time>
      </trkpt>
      <trkpt lat="45.98327" lon="4.85864">
        <ele>276</ele>
        <time>2017-07-04T14:53:48Z</time>
      </trkpt>
      <trkpt lat="45.98331" lon="4.85875">
        <ele>276</ele>
        <time>2017-07-04T14:53:50Z</time>
      </trkpt>
      <trkpt lat="45.98334" lon="4.85882">
        <ele>276</ele>
        <time>2017-07-04T14:53:51Z</time>
      </trkpt>
      <trkpt lat="45.98336" lon="4.85888">
        <ele>276</ele>
        <time>2017-07-04T14:53:52Z</time>
      </trkpt>
      <trkpt lat="45.98339" lon="4.85895">
        <ele>276</ele>
        <time>2017-07-04T14:53:53Z</time>
      </trkpt>
      <trkpt lat="45.98342" lon="4.85902">
        <ele>276</ele>
        <time>2017-07-04T14:53:54Z</time>
      </trkpt>
      <trkpt lat="45.98344" lon="4.85909">
        <ele>276</ele>
        <time>2017-07-04T14:53:55Z</time>
      </trkpt>
      <trkpt lat="45.98347" lon="4.85916">
        <ele>276</ele>
        <time>2017-07-04T14:53:56Z</time>
      </trkpt>
      <trkpt lat="45.9835" lon="4.85922">
        <ele>276</ele>
        <time>2017-07-04T14:53:57Z</time>
      </trkpt>
      <trkpt lat="45.98352" lon="4.85929">
        <ele>276</ele>
        <time>2017-07-04T14:53:58Z</time>
      </trkpt>
      <trkpt lat="45.98355" lon="4.85936">
        <ele>276</ele>
        <time>2017-07-04T14:53:59Z</time>
      </trkpt>
      <trkpt lat="45.98359" lon="4.85947">
        <ele>276</ele>
        <time>2017-07-04T14:54:01Z</time>
      </trkpt>
      <trkpt lat="45.98362" lon="4.85953">
        <ele>276</ele>
        <time>2017-07-04T14:54:02Z</time>
      </trkpt>
      <trkpt lat="45.98364" lon="4.85959">
        <ele>276</ele>
        <time>2017-07-04T14:54:03Z</time>
      </trkpt>
      <trkpt lat="45.98366" lon="4.85966">
        <ele>276</ele>
        <time>2017-07-04T14:54:04Z</time>
      </trkpt>
      <trkpt lat="45.98369" lon="4.85978">
        <ele>276</ele>
        <time>2017-07-04T14:54:06Z</time>
      </trkpt>
      <trkpt lat="45.98371" lon="4.85983">
        <ele>276</ele>
        <time>2017-07-04T14:54:07Z</time>
      </trkpt>
      <trkpt lat="45.98374" lon="4.85989">
        <ele>276</ele>
        <time>2017-07-04T14:54:08Z</time>
      </trkpt>
      <trkpt lat="45.98376" lon="4.85996">
        <ele>277</ele>
        <time>2017-07-04T14:54:09Z</time>
      </trkpt>
      <trkpt lat="45.98378" lon="4.86002">
        <ele>277</ele>
        <time>2017-07-04T14:54:10Z</time>
      </trkpt>
      <trkpt lat="45.9838" lon="4.86008">
        <ele>277</ele>
        <time>2017-07-04T14:54:11Z</time>
      </trkpt>
      <trkpt lat="45.98383" lon="4.86015">
        <ele>277</ele>
        <time>2017-07-04T14:54:12Z</time>
      </trkpt>
      <trkpt lat="45.98385" lon="4.86023">
        <ele>277</ele>
        <time>2017-07-04T14:54:13Z</time>
      </trkpt>
      <trkpt lat="45.98388" lon="4.8603">
        <ele>277</ele>
        <time>2017-07-04T14:54:14Z</time>
      </trkpt>
      <trkpt lat="45.98391" lon="4.86037">
        <ele>277</ele>
        <time>2017-07-04T14:54:15Z</time>
      </trkpt>
      <trkpt lat="45.98393" lon="4.86043">
        <ele>277</ele>
        <time>2017-07-04T14:54:16Z</time>
      </trkpt>
      <trkpt lat="45.98396" lon="4.86049">
        <ele>277</ele>
        <time>2017-07-04T14:54:17Z</time>
      </trkpt>
      <trkpt lat="45.98397" lon="4.86055">
        <ele>277</ele>
        <time>2017-07-04T14:54:18Z</time>
      </trkpt>
      <trkpt lat="45.98399" lon="4.86063">
        <ele>277</ele>
        <time>2017-07-04T14:54:19Z</time>
      </trkpt>
      <trkpt lat="45.984" lon="4.8607">
        <ele>277</ele>
        <time>2017-07-04T14:54:20Z</time>
      </trkpt>
      <trkpt lat="45.98402" lon="4.86077">
        <ele>277</ele>
        <time>2017-07-04T14:54:21Z</time>
      </trkpt>
      <trkpt lat="45.98403" lon="4.86084">
        <ele>277</ele>
        <time>2017-07-04T14:54:22Z</time>
      </trkpt>
      <trkpt lat="45.98404" lon="4.86091">
        <ele>277</ele>
        <time>2017-07-04T14:54:23Z</time>
      </trkpt>
      <trkpt lat="45.98406" lon="4.86098">
        <ele>277</ele>
        <time>2017-07-04T14:54:24Z</time>
      </trkpt>
      <trkpt lat="45.98407" lon="4.86105">
        <ele>277</ele>
        <time>2017-07-04T14:54:25Z</time>
      </trkpt>
      <trkpt lat="45.98409" lon="4.86112">
        <ele>277</ele>
        <time>2017-07-04T14:54:26Z</time>
      </trkpt>
      <trkpt lat="45.9841" lon="4.86119">
        <ele>277</ele>
        <time>2017-07-04T14:54:27Z</time>
      </trkpt>
      <trkpt lat="45.98411" lon="4.86125">
        <ele>276</ele>
        <time>2017-07-04T14:54:28Z</time>
      </trkpt>
      <trkpt lat="45.98412" lon="4.86132">
        <ele>276</ele>
        <time>2017-07-04T14:54:29Z</time>
      </trkpt>
      <trkpt lat="45.98414" lon="4.86144">
        <ele>276</ele>
        <time>2017-07-04T14:54:31Z</time>
      </trkpt>
      <trkpt lat="45.98415" lon="4.8615">
        <ele>276</ele>
        <time>2017-07-04T14:54:32Z</time>
      </trkpt>
      <trkpt lat="45.98417" lon="4.86162">
        <ele>276</ele>
        <time>2017-07-04T14:54:34Z</time>
      </trkpt>
      <trkpt lat="45.98418" lon="4.86167">
        <ele>276</ele>
        <time>2017-07-04T14:54:35Z</time>
      </trkpt>
      <trkpt lat="45.98421" lon="4.86177">
        <ele>276</ele>
        <time>2017-07-04T14:54:37Z</time>
      </trkpt>
      <trkpt lat="45.98423" lon="4.86183">
        <ele>275</ele>
        <time>2017-07-04T14:54:38Z</time>
      </trkpt>
      <trkpt lat="45.98424" lon="4.86192">
        <ele>275</ele>
        <time>2017-07-04T14:54:40Z</time>
      </trkpt>
      <trkpt lat="45.98425" lon="4.86197">
        <ele>275</ele>
        <time>2017-07-04T14:54:41Z</time>
      </trkpt>
      <trkpt lat="45.98427" lon="4.86206">
        <ele>275</ele>
        <time>2017-07-04T14:54:43Z</time>
      </trkpt>
      <trkpt lat="45.98428" lon="4.86211">
        <ele>275</ele>
        <time>2017-07-04T14:54:44Z</time>
      </trkpt>
      <trkpt lat="45.9843" lon="4.86222">
        <ele>275</ele>
        <time>2017-07-04T14:54:46Z</time>
      </trkpt>
      <trkpt lat="45.9843" lon="4.86228">
        <ele>275</ele>
        <time>2017-07-04T14:54:47Z</time>
      </trkpt>
      <trkpt lat="45.98432" lon="4.86235">
        <ele>275</ele>
        <time>2017-07-04T14:54:48Z</time>
      </trkpt>
      <trkpt lat="45.98433" lon="4.86243">
        <ele>275</ele>
        <time>2017-07-04T14:54:49Z</time>
      </trkpt>
      <trkpt lat="45.98434" lon="4.86251">
        <ele>275</ele>
        <time>2017-07-04T14:54:50Z</time>
      </trkpt>
      <trkpt lat="45.98436" lon="4.86259">
        <ele>275</ele>
        <time>2017-07-04T14:54:51Z</time>
      </trkpt>
      <trkpt lat="45.98438" lon="4.86268">
        <ele>275</ele>
        <time>2017-07-04T14:54:52Z</time>
      </trkpt>
      <trkpt lat="45.9844" lon="4.86277">
        <ele>276</ele>
        <time>2017-07-04T14:54:53Z</time>
      </trkpt>
      <trkpt lat="45.98442" lon="4.86286">
        <ele>276</ele>
        <time>2017-07-04T14:54:54Z</time>
      </trkpt>
      <trkpt lat="45.98443" lon="4.86296">
        <ele>276</ele>
        <time>2017-07-04T14:54:55Z</time>
      </trkpt>
      <trkpt lat="45.98445" lon="4.86306">
        <ele>276</ele>
        <time>2017-07-04T14:54:56Z</time>
      </trkpt>
      <trkpt lat="45.98447" lon="4.86316">
        <ele>276</ele>
        <time>2017-07-04T14:54:57Z</time>
      </trkpt>
      <trkpt lat="45.98449" lon="4.86326">
        <ele>276</ele>
        <time>2017-07-04T14:54:58Z</time>
      </trkpt>
      <trkpt lat="45.98452" lon="4.86336">
        <ele>277</ele>
        <time>2017-07-04T14:54:59Z</time>
      </trkpt>
      <trkpt lat="45.98455" lon="4.86346">
        <ele>277</ele>
        <time>2017-07-04T14:55:00Z</time>
      </trkpt>
      <trkpt lat="45.98457" lon="4.86354">
        <ele>277</ele>
        <time>2017-07-04T14:55:01Z</time>
      </trkpt>
      <trkpt lat="45.98459" lon="4.86364">
        <ele>277</ele>
        <time>2017-07-04T14:55:02Z</time>
      </trkpt>
      <trkpt lat="45.98462" lon="4.86372">
        <ele>277</ele>
        <time>2017-07-04T14:55:03Z</time>
      </trkpt>
      <trkpt lat="45.98464" lon="4.86381">
        <ele>277</ele>
        <time>2017-07-04T14:55:04Z</time>
      </trkpt>
      <trkpt lat="45.98467" lon="4.86389">
        <ele>277</ele>
        <time>2017-07-04T14:55:05Z</time>
      </trkpt>
      <trkpt lat="45.98471" lon="4.86398">
        <ele>277</ele>
        <time>2017-07-04T14:55:06Z</time>
      </trkpt>
      <trkpt lat="45.98474" lon="4.86405">
        <ele>277</ele>
        <time>2017-07-04T14:55:07Z</time>
      </trkpt>
      <trkpt lat="45.98477" lon="4.86412">
        <ele>277</ele>
        <time>2017-07-04T14:55:08Z</time>
      </trkpt>
      <trkpt lat="45.9848" lon="4.86419">
        <ele>278</ele>
        <time>2017-07-04T14:55:09Z</time>
      </trkpt>
      <trkpt lat="45.98483" lon="4.86426">
        <ele>278</ele>
        <time>2017-07-04T14:55:10Z</time>
      </trkpt>
      <trkpt lat="45.98486" lon="4.86433">
        <ele>278</ele>
        <time>2017-07-04T14:55:11Z</time>
      </trkpt>
      <trkpt lat="45.98489" lon="4.8644">
        <ele>278</ele>
        <time>2017-07-04T14:55:12Z</time>
      </trkpt>
      <trkpt lat="45.98492" lon="4.86447">
        <ele>278</ele>
        <time>2017-07-04T14:55:13Z</time>
      </trkpt>
      <trkpt lat="45.98495" lon="4.86453">
        <ele>278</ele>
        <time>2017-07-04T14:55:14Z</time>
      </trkpt>
      <trkpt lat="45.98498" lon="4.86459">
        <ele>278</ele>
        <time>2017-07-04T14:55:15Z</time>
      </trkpt>
      <trkpt lat="45.985" lon="4.86466">
        <ele>279</ele>
        <time>2017-07-04T14:55:16Z</time>
      </trkpt>
      <trkpt lat="45.98502" lon="4.86472">
        <ele>278</ele>
        <time>2017-07-04T14:55:17Z</time>
      </trkpt>
      <trkpt lat="45.98505" lon="4.86477">
        <ele>278</ele>
        <time>2017-07-04T14:55:18Z</time>
      </trkpt>
      <trkpt lat="45.98509" lon="4.86484">
        <ele>278</ele>
        <time>2017-07-04T14:55:19Z</time>
      </trkpt>
      <trkpt lat="45.98512" lon="4.86491">
        <ele>279</ele>
        <time>2017-07-04T14:55:20Z</time>
      </trkpt>
      <trkpt lat="45.98516" lon="4.86498">
        <ele>279</ele>
        <time>2017-07-04T14:55:21Z</time>
      </trkpt>
      <trkpt lat="45.98519" lon="4.86505">
        <ele>279</ele>
        <time>2017-07-04T14:55:22Z</time>
      </trkpt>
      <trkpt lat="45.98523" lon="4.86512">
        <ele>279</ele>
        <time>2017-07-04T14:55:23Z</time>
      </trkpt>
      <trkpt lat="45.98526" lon="4.8652">
        <ele>279</ele>
        <time>2017-07-04T14:55:24Z</time>
      </trkpt>
      <trkpt lat="45.98529" lon="4.86527">
        <ele>279</ele>
        <time>2017-07-04T14:55:25Z</time>
      </trkpt>
      <trkpt lat="45.98533" lon="4.86534">
        <ele>278</ele>
        <time>2017-07-04T14:55:26Z</time>
      </trkpt>
      <trkpt lat="45.98537" lon="4.86541">
        <ele>278</ele>
        <time>2017-07-04T14:55:27Z</time>
      </trkpt>
      <trkpt lat="45.9854" lon="4.86547">
        <ele>278</ele>
        <time>2017-07-04T14:55:28Z</time>
      </trkpt>
      <trkpt lat="45.98543" lon="4.86552">
        <ele>278</ele>
        <time>2017-07-04T14:55:29Z</time>
      </trkpt>
      <trkpt lat="45.98546" lon="4.86558">
        <ele>278</ele>
        <time>2017-07-04T14:55:30Z</time>
      </trkpt>
      <trkpt lat="45.98549" lon="4.86565">
        <ele>278</ele>
        <time>2017-07-04T14:55:31Z</time>
      </trkpt>
      <trkpt lat="45.98552" lon="4.86572">
        <ele>278</ele>
        <time>2017-07-04T14:55:32Z</time>
      </trkpt>
      <trkpt lat="45.98554" lon="4.86578">
        <ele>278</ele>
        <time>2017-07-04T14:55:33Z</time>
      </trkpt>
      <trkpt lat="45.98555" lon="4.86585">
        <ele>278</ele>
        <time>2017-07-04T14:55:34Z</time>
      </trkpt>
      <trkpt lat="45.98557" lon="4.86592">
        <ele>278</ele>
        <time>2017-07-04T14:55:35Z</time>
      </trkpt>
      <trkpt lat="45.98558" lon="4.866">
        <ele>278</ele>
        <time>2017-07-04T14:55:36Z</time>
      </trkpt>
      <trkpt lat="45.9856" lon="4.86607">
        <ele>278</ele>
        <time>2017-07-04T14:55:37Z</time>
      </trkpt>
      <trkpt lat="45.98562" lon="4.86616">
        <ele>278</ele>
        <time>2017-07-04T14:55:38Z</time>
      </trkpt>
      <trkpt lat="45.98563" lon="4.86624">
        <ele>278</ele>
        <time>2017-07-04T14:55:39Z</time>
      </trkpt>
      <trkpt lat="45.98564" lon="4.86631">
        <ele>277</ele>
        <time>2017-07-04T14:55:40Z</time>
      </trkpt>
      <trkpt lat="45.98565" lon="4.86639">
        <ele>277</ele>
        <time>2017-07-04T14:55:41Z</time>
      </trkpt>
      <trkpt lat="45.98566" lon="4.86647">
        <ele>277</ele>
        <time>2017-07-04T14:55:42Z</time>
      </trkpt>
      <trkpt lat="45.98566" lon="4.86654">
        <ele>277</ele>
        <time>2017-07-04T14:55:43Z</time>
      </trkpt>
      <trkpt lat="45.98567" lon="4.8666">
        <ele>277</ele>
        <time>2017-07-04T14:55:44Z</time>
      </trkpt>
      <trkpt lat="45.98568" lon="4.86667">
        <ele>276</ele>
        <time>2017-07-04T14:55:45Z</time>
      </trkpt>
      <trkpt lat="45.98569" lon="4.86674">
        <ele>276</ele>
        <time>2017-07-04T14:55:46Z</time>
      </trkpt>
      <trkpt lat="45.98569" lon="4.86681">
        <ele>276</ele>
        <time>2017-07-04T14:55:47Z</time>
      </trkpt>
      <trkpt lat="45.98569" lon="4.86687">
        <ele>277</ele>
        <time>2017-07-04T14:55:48Z</time>
      </trkpt>
      <trkpt lat="45.9857" lon="4.86694">
        <ele>277</ele>
        <time>2017-07-04T14:55:49Z</time>
      </trkpt>
      <trkpt lat="45.9857" lon="4.86707">
        <ele>277</ele>
        <time>2017-07-04T14:55:51Z</time>
      </trkpt>
      <trkpt lat="45.9857" lon="4.86713">
        <ele>277</ele>
        <time>2017-07-04T14:55:52Z</time>
      </trkpt>
      <trkpt lat="45.98571" lon="4.8672">
        <ele>277</ele>
        <time>2017-07-04T14:55:53Z</time>
      </trkpt>
      <trkpt lat="45.98571" lon="4.86726">
        <ele>277</ele>
        <time>2017-07-04T14:55:54Z</time>
      </trkpt>
      <trkpt lat="45.98572" lon="4.86738">
        <ele>277</ele>
        <time>2017-07-04T14:55:56Z</time>
      </trkpt>
      <trkpt lat="45.98573" lon="4.86745">
        <ele>277</ele>
        <time>2017-07-04T14:55:57Z</time>
      </trkpt>
      <trkpt lat="45.98574" lon="4.86753">
        <ele>277</ele>
        <time>2017-07-04T14:55:58Z</time>
      </trkpt>
      <trkpt lat="45.98576" lon="4.86759">
        <ele>277</ele>
        <time>2017-07-04T14:55:59Z</time>
      </trkpt>
      <trkpt lat="45.98577" lon="4.86767">
        <ele>277</ele>
        <time>2017-07-04T14:56:00Z</time>
      </trkpt>
      <trkpt lat="45.98577" lon="4.86773">
        <ele>277</ele>
        <time>2017-07-04T14:56:01Z</time>
      </trkpt>
      <trkpt lat="45.98578" lon="4.86781">
        <ele>277</ele>
        <time>2017-07-04T14:56:02Z</time>
      </trkpt>
      <trkpt lat="45.98579" lon="4.86787">
        <ele>277</ele>
        <time>2017-07-04T14:56:03Z</time>
      </trkpt>
      <trkpt lat="45.98581" lon="4.86799">
        <ele>277</ele>
        <time>2017-07-04T14:56:05Z</time>
      </trkpt>
      <trkpt lat="45.98582" lon="4.86805">
        <ele>277</ele>
        <time>2017-07-04T14:56:06Z</time>
      </trkpt>
      <trkpt lat="45.98584" lon="4.86817">
        <ele>276</ele>
        <time>2017-07-04T14:56:08Z</time>
      </trkpt>
      <trkpt lat="45.98584" lon="4.86823">
        <ele>277</ele>
        <time>2017-07-04T14:56:09Z</time>
      </trkpt>
      <trkpt lat="45.98585" lon="4.86836">
        <ele>277</ele>
        <time>2017-07-04T14:56:11Z</time>
      </trkpt>
      <trkpt lat="45.98585" lon="4.86843">
        <ele>277</ele>
        <time>2017-07-04T14:56:12Z</time>
      </trkpt>
      <trkpt lat="45.98585" lon="4.86851">
        <ele>277</ele>
        <time>2017-07-04T14:56:13Z</time>
      </trkpt>
      <trkpt lat="45.98586" lon="4.8686">
        <ele>277</ele>
        <time>2017-07-04T14:56:14Z</time>
      </trkpt>
      <trkpt lat="45.98586" lon="4.86868">
        <ele>277</ele>
        <time>2017-07-04T14:56:15Z</time>
      </trkpt>
      <trkpt lat="45.98586" lon="4.86875">
        <ele>277</ele>
        <time>2017-07-04T14:56:16Z</time>
      </trkpt>
      <trkpt lat="45.98586" lon="4.86884">
        <ele>278</ele>
        <time>2017-07-04T14:56:17Z</time>
      </trkpt>
      <trkpt lat="45.98586" lon="4.86893">
        <ele>278</ele>
        <time>2017-07-04T14:56:18Z</time>
      </trkpt>
      <trkpt lat="45.98586" lon="4.86902">
        <ele>278</ele>
        <time>2017-07-04T14:56:19Z</time>
      </trkpt>
      <trkpt lat="45.98586" lon="4.8691">
        <ele>279</ele>
        <time>2017-07-04T14:56:20Z</time>
      </trkpt>
      <trkpt lat="45.98586" lon="4.86919">
        <ele>279</ele>
        <time>2017-07-04T14:56:21Z</time>
      </trkpt>
      <trkpt lat="45.98586" lon="4.86927">
        <ele>279</ele>
        <time>2017-07-04T14:56:22Z</time>
      </trkpt>
      <trkpt lat="45.98586" lon="4.86936">
        <ele>279</ele>
        <time>2017-07-04T14:56:23Z</time>
      </trkpt>
      <trkpt lat="45.98586" lon="4.86945">
        <ele>279</ele>
        <time>2017-07-04T14:56:24Z</time>
      </trkpt>
      <trkpt lat="45.98586" lon="4.86954">
        <ele>279</ele>
        <time>2017-07-04T14:56:25Z</time>
      </trkpt>
      <trkpt lat="45.98587" lon="4.86963">
        <ele>279</ele>
        <time>2017-07-04T14:56:26Z</time>
      </trkpt>
      <trkpt lat="45.98588" lon="4.86971">
        <ele>279</ele>
        <time>2017-07-04T14:56:27Z</time>
      </trkpt>
      <trkpt lat="45.98588" lon="4.8698">
        <ele>279</ele>
        <time>2017-07-04T14:56:28Z</time>
      </trkpt>
      <trkpt lat="45.98589" lon="4.86988">
        <ele>279</ele>
        <time>2017-07-04T14:56:29Z</time>
      </trkpt>
      <trkpt lat="45.98589" lon="4.86996">
        <ele>279</ele>
        <time>2017-07-04T14:56:30Z</time>
      </trkpt>
      <trkpt lat="45.9859" lon="4.87004">
        <ele>280</ele>
        <time>2017-07-04T14:56:31Z</time>
      </trkpt>
      <trkpt lat="45.98592" lon="4.87012">
        <ele>279</ele>
        <time>2017-07-04T14:56:32Z</time>
      </trkpt>
      <trkpt lat="45.98593" lon="4.87019">
        <ele>279</ele>
        <time>2017-07-04T14:56:33Z</time>
      </trkpt>
      <trkpt lat="45.98595" lon="4.87026">
        <ele>279</ele>
        <time>2017-07-04T14:56:34Z</time>
      </trkpt>
      <trkpt lat="45.98596" lon="4.87034">
        <ele>279</ele>
        <time>2017-07-04T14:56:35Z</time>
      </trkpt>
      <trkpt lat="45.98598" lon="4.87041">
        <ele>279</ele>
        <time>2017-07-04T14:56:36Z</time>
      </trkpt>
      <trkpt lat="45.98599" lon="4.87048">
        <ele>279</ele>
        <time>2017-07-04T14:56:37Z</time>
      </trkpt>
      <trkpt lat="45.98601" lon="4.87055">
        <ele>279</ele>
        <time>2017-07-04T14:56:38Z</time>
      </trkpt>
      <trkpt lat="45.98602" lon="4.87063">
        <ele>279</ele>
        <time>2017-07-04T14:56:39Z</time>
      </trkpt>
      <trkpt lat="45.98603" lon="4.8707">
        <ele>279</ele>
        <time>2017-07-04T14:56:40Z</time>
      </trkpt>
      <trkpt lat="45.98605" lon="4.87082">
        <ele>279</ele>
        <time>2017-07-04T14:56:42Z</time>
      </trkpt>
      <trkpt lat="45.98606" lon="4.8709">
        <ele>279</ele>
        <time>2017-07-04T14:56:43Z</time>
      </trkpt>
      <trkpt lat="45.98607" lon="4.87097">
        <ele>279</ele>
        <time>2017-07-04T14:56:44Z</time>
      </trkpt>
      <trkpt lat="45.98607" lon="4.87105">
        <ele>279</ele>
        <time>2017-07-04T14:56:45Z</time>
      </trkpt>
      <trkpt lat="45.98608" lon="4.87112">
        <ele>279</ele>
        <time>2017-07-04T14:56:46Z</time>
      </trkpt>
      <trkpt lat="45.98609" lon="4.8712">
        <ele>279</ele>
        <time>2017-07-04T14:56:47Z</time>
      </trkpt>
      <trkpt lat="45.98609" lon="4.87129">
        <ele>279</ele>
        <time>2017-07-04T14:56:48Z</time>
      </trkpt>
      <trkpt lat="45.98609" lon="4.87138">
        <ele>278</ele>
        <time>2017-07-04T14:56:49Z</time>
      </trkpt>
      <trkpt lat="45.98609" lon="4.87146">
        <ele>278</ele>
        <time>2017-07-04T14:56:50Z</time>
      </trkpt>
      <trkpt lat="45.98609" lon="4.87155">
        <ele>278</ele>
        <time>2017-07-04T14:56:51Z</time>
      </trkpt>
      <trkpt lat="45.98608" lon="4.87164">
        <ele>278</ele>
        <time>2017-07-04T14:56:52Z</time>
      </trkpt>
      <trkpt lat="45.98607" lon="4.87172">
        <ele>277</ele>
        <time>2017-07-04T14:56:53Z</time>
      </trkpt>
      <trkpt lat="45.98606" lon="4.87181">
        <ele>277</ele>
        <time>2017-07-04T14:56:54Z</time>
      </trkpt>
      <trkpt lat="45.98605" lon="4.87189">
        <ele>277</ele>
        <time>2017-07-04T14:56:55Z</time>
      </trkpt>
      <trkpt lat="45.98605" lon="4.87197">
        <ele>277</ele>
        <time>2017-07-04T14:56:56Z</time>
      </trkpt>
      <trkpt lat="45.98604" lon="4.87204">
        <ele>277</ele>
        <time>2017-07-04T14:56:57Z</time>
      </trkpt>
      <trkpt lat="45.98602" lon="4.8721">
        <ele>277</ele>
        <time>2017-07-04T14:56:58Z</time>
      </trkpt>
      <trkpt lat="45.98601" lon="4.87217">
        <ele>277</ele>
        <time>2017-07-04T14:56:59Z</time>
      </trkpt>
      <trkpt lat="45.98601" lon="4.87226">
        <ele>277</ele>
        <time>2017-07-04T14:57:00Z</time>
      </trkpt>
      <trkpt lat="45.98601" lon="4.87235">
        <ele>277</ele>
        <time>2017-07-04T14:57:01Z</time>
      </trkpt>
      <trkpt lat="45.98601" lon="4.87243">
        <ele>277</ele>
        <time>2017-07-04T14:57:02Z</time>
      </trkpt>
      <trkpt lat="45.98601" lon="4.87251">
        <ele>275</ele>
        <time>2017-07-04T14:57:03Z</time>
      </trkpt>
      <trkpt lat="45.986" lon="4.87259">
        <ele>275</ele>
        <time>2017-07-04T14:57:04Z</time>
      </trkpt>
      <trkpt lat="45.986" lon="4.87268">
        <ele>275</ele>
        <time>2017-07-04T14:57:05Z</time>
      </trkpt>
      <trkpt lat="45.986" lon="4.87277">
        <ele>275</ele>
        <time>2017-07-04T14:57:06Z</time>
      </trkpt>
      <trkpt lat="45.98599" lon="4.87286">
        <ele>275</ele>
        <time>2017-07-04T14:57:07Z</time>
      </trkpt>
      <trkpt lat="45.98599" lon="4.87295">
        <ele>275</ele>
        <time>2017-07-04T14:57:08Z</time>
      </trkpt>
      <trkpt lat="45.98599" lon="4.87304">
        <ele>274</ele>
        <time>2017-07-04T14:57:09Z</time>
      </trkpt>
      <trkpt lat="45.986" lon="4.87315">
        <ele>274</ele>
        <time>2017-07-04T14:57:10Z</time>
      </trkpt>
      <trkpt lat="45.98601" lon="4.87325">
        <ele>274</ele>
        <time>2017-07-04T14:57:11Z</time>
      </trkpt>
      <trkpt lat="45.98602" lon="4.87334">
        <ele>272</ele>
        <time>2017-07-04T14:57:12Z</time>
      </trkpt>
      <trkpt lat="45.98604" lon="4.87344">
        <ele>272</ele>
        <time>2017-07-04T14:57:13Z</time>
      </trkpt>
      <trkpt lat="45.98605" lon="4.87355">
        <ele>272</ele>
        <time>2017-07-04T14:57:14Z</time>
      </trkpt>
      <trkpt lat="45.98607" lon="4.87365">
        <ele>272</ele>
        <time>2017-07-04T14:57:15Z</time>
      </trkpt>
      <trkpt lat="45.98609" lon="4.87375">
        <ele>271</ele>
        <time>2017-07-04T14:57:16Z</time>
      </trkpt>
      <trkpt lat="45.98611" lon="4.87385">
        <ele>271</ele>
        <time>2017-07-04T14:57:17Z</time>
      </trkpt>
      <trkpt lat="45.98612" lon="4.87395">
        <ele>271</ele>
        <time>2017-07-04T14:57:18Z</time>
      </trkpt>
      <trkpt lat="45.98615" lon="4.87404">
        <ele>271</ele>
        <time>2017-07-04T14:57:19Z</time>
      </trkpt>
      <trkpt lat="45.98617" lon="4.87414">
        <ele>271</ele>
        <time>2017-07-04T14:57:20Z</time>
      </trkpt>
      <trkpt lat="45.9862" lon="4.87424">
        <ele>269</ele>
        <time>2017-07-04T14:57:21Z</time>
      </trkpt>
      <trkpt lat="45.98622" lon="4.87434">
        <ele>269</ele>
        <time>2017-07-04T14:57:22Z</time>
      </trkpt>
      <trkpt lat="45.98624" lon="4.87445">
        <ele>268</ele>
        <time>2017-07-04T14:57:23Z</time>
      </trkpt>
      <trkpt lat="45.98626" lon="4.87456">
        <ele>268</ele>
        <time>2017-07-04T14:57:24Z</time>
      </trkpt>
      <trkpt lat="45.98628" lon="4.87466">
        <ele>268</ele>
        <time>2017-07-04T14:57:25Z</time>
      </trkpt>
      <trkpt lat="45.9863" lon="4.87477">
        <ele>268</ele>
        <time>2017-07-04T14:57:26Z</time>
      </trkpt>
      <trkpt lat="45.98632" lon="4.87488">
        <ele>268</ele>
        <time>2017-07-04T14:57:27Z</time>
      </trkpt>
      <trkpt lat="45.98634" lon="4.87498">
        <ele>267</ele>
        <time>2017-07-04T14:57:28Z</time>
      </trkpt>
      <trkpt lat="45.98636" lon="4.87509">
        <ele>267</ele>
        <time>2017-07-04T14:57:29Z</time>
      </trkpt>
      <trkpt lat="45.98638" lon="4.8752">
        <ele>267</ele>
        <time>2017-07-04T14:57:30Z</time>
      </trkpt>
      <trkpt lat="45.9864" lon="4.8753">
        <ele>267</ele>
        <time>2017-07-04T14:57:31Z</time>
      </trkpt>
      <trkpt lat="45.98643" lon="4.87539">
        <ele>267</ele>
        <time>2017-07-04T14:57:32Z</time>
      </trkpt>
      <trkpt lat="45.98645" lon="4.87549">
        <ele>267</ele>
        <time>2017-07-04T14:57:33Z</time>
      </trkpt>
      <trkpt lat="45.9865" lon="4.87558">
        <ele>267</ele>
        <time>2017-07-04T14:57:34Z</time>
      </trkpt>
      <trkpt lat="45.98656" lon="4.87565">
        <ele>267</ele>
        <time>2017-07-04T14:57:35Z</time>
      </trkpt>
      <trkpt lat="45.98662" lon="4.8757">
        <ele>267</ele>
        <time>2017-07-04T14:57:36Z</time>
      </trkpt>
      <trkpt lat="45.98669" lon="4.87573">
        <ele>267</ele>
        <time>2017-07-04T14:57:37Z</time>
      </trkpt>
      <trkpt lat="45.98676" lon="4.87574">
        <ele>267</ele>
        <time>2017-07-04T14:57:38Z</time>
      </trkpt>
      <trkpt lat="45.98682" lon="4.87574">
        <ele>267</ele>
        <time>2017-07-04T14:57:39Z</time>
      </trkpt>
      <trkpt lat="45.98688" lon="4.87573">
        <ele>267</ele>
        <time>2017-07-04T14:57:40Z</time>
      </trkpt>
      <trkpt lat="45.98694" lon="4.87572">
        <ele>267</ele>
        <time>2017-07-04T14:57:41Z</time>
      </trkpt>
      <trkpt lat="45.98699" lon="4.87571">
        <ele>267</ele>
        <time>2017-07-04T14:57:42Z</time>
      </trkpt>
      <trkpt lat="45.98704" lon="4.8757">
        <ele>267</ele>
        <time>2017-07-04T14:57:43Z</time>
      </trkpt>
      <trkpt lat="45.98709" lon="4.87569">
        <ele>267</ele>
        <time>2017-07-04T14:57:44Z</time>
      </trkpt>
      <trkpt lat="45.98714" lon="4.87568">
        <ele>267</ele>
        <time>2017-07-04T14:57:45Z</time>
      </trkpt>
      <trkpt lat="45.98723" lon="4.87567">
        <ele>267</ele>
        <time>2017-07-04T14:57:47Z</time>
      </trkpt>
      <trkpt lat="45.98727" lon="4.87566">
        <ele>267</ele>
        <time>2017-07-04T14:57:48Z</time>
      </trkpt>
      <trkpt lat="45.98732" lon="4.87566">
        <ele>267</ele>
        <time>2017-07-04T14:57:49Z</time>
      </trkpt>
      <trkpt lat="45.98737" lon="4.87567">
        <ele>267</ele>
        <time>2017-07-04T14:57:50Z</time>
      </trkpt>
      <trkpt lat="45.98743" lon="4.87568">
        <ele>267</ele>
        <time>2017-07-04T14:57:51Z</time>
      </trkpt>
      <trkpt lat="45.98748" lon="4.87571">
        <ele>267</ele>
        <time>2017-07-04T14:57:52Z</time>
      </trkpt>
      <trkpt lat="45.98756" lon="4.87574">
        <ele>268</ele>
        <time>2017-07-04T14:57:54Z</time>
      </trkpt>
      <trkpt lat="45.9876" lon="4.87576">
        <ele>268</ele>
        <time>2017-07-04T14:57:55Z</time>
      </trkpt>
      <trkpt lat="45.98764" lon="4.87579">
        <ele>269</ele>
        <time>2017-07-04T14:57:56Z</time>
      </trkpt>
      <trkpt lat="45.98768" lon="4.87582">
        <ele>269</ele>
        <time>2017-07-04T14:57:57Z</time>
      </trkpt>
      <trkpt lat="45.98773" lon="4.87586">
        <ele>270</ele>
        <time>2017-07-04T14:57:58Z</time>
      </trkpt>
      <trkpt lat="45.98777" lon="4.87591">
        <ele>270</ele>
        <time>2017-07-04T14:57:59Z</time>
      </trkpt>
      <trkpt lat="45.98781" lon="4.87595">
        <ele>271</ele>
        <time>2017-07-04T14:58:00Z</time>
      </trkpt>
      <trkpt lat="45.98785" lon="4.87599">
        <ele>271</ele>
        <time>2017-07-04T14:58:01Z</time>
      </trkpt>
      <trkpt lat="45.98788" lon="4.87604">
        <ele>271</ele>
        <time>2017-07-04T14:58:02Z</time>
      </trkpt>
      <trkpt lat="45.98791" lon="4.87608">
        <ele>271</ele>
        <time>2017-07-04T14:58:03Z</time>
      </trkpt>
      <trkpt lat="45.98795" lon="4.87613">
        <ele>271</ele>
        <time>2017-07-04T14:58:04Z</time>
      </trkpt>
      <trkpt lat="45.98798" lon="4.87617">
        <ele>271</ele>
        <time>2017-07-04T14:58:05Z</time>
      </trkpt>
      <trkpt lat="45.98803" lon="4.87625">
        <ele>271</ele>
        <time>2017-07-04T14:58:07Z</time>
      </trkpt>
      <trkpt lat="45.98805" lon="4.8763">
        <ele>271</ele>
        <time>2017-07-04T14:58:08Z</time>
      </trkpt>
      <trkpt lat="45.98809" lon="4.87641">
        <ele>272</ele>
        <time>2017-07-04T14:58:10Z</time>
      </trkpt>
      <trkpt lat="45.98811" lon="4.87646">
        <ele>272</ele>
        <time>2017-07-04T14:58:11Z</time>
      </trkpt>
      <trkpt lat="45.98814" lon="4.87655">
        <ele>272</ele>
        <time>2017-07-04T14:58:13Z</time>
      </trkpt>
      <trkpt lat="45.98814" lon="4.8766">
        <ele>272</ele>
        <time>2017-07-04T14:58:14Z</time>
      </trkpt>
      <trkpt lat="45.98817" lon="4.87672">
        <ele>273</ele>
        <time>2017-07-04T14:58:16Z</time>
      </trkpt>
      <trkpt lat="45.98818" lon="4.87677">
        <ele>273</ele>
        <time>2017-07-04T14:58:17Z</time>
      </trkpt>
      <trkpt lat="45.98819" lon="4.87683">
        <ele>273</ele>
        <time>2017-07-04T14:58:18Z</time>
      </trkpt>
      <trkpt lat="45.98821" lon="4.8769">
        <ele>273</ele>
        <time>2017-07-04T14:58:19Z</time>
      </trkpt>
      <trkpt lat="45.98823" lon="4.87697">
        <ele>273</ele>
        <time>2017-07-04T14:58:20Z</time>
      </trkpt>
      <trkpt lat="45.98825" lon="4.87705">
        <ele>273</ele>
        <time>2017-07-04T14:58:21Z</time>
      </trkpt>
      <trkpt lat="45.98828" lon="4.87713">
        <ele>274</ele>
        <time>2017-07-04T14:58:22Z</time>
      </trkpt>
      <trkpt lat="45.9883" lon="4.87721">
        <ele>274</ele>
        <time>2017-07-04T14:58:23Z</time>
      </trkpt>
      <trkpt lat="45.98831" lon="4.87727">
        <ele>274</ele>
        <time>2017-07-04T14:58:24Z</time>
      </trkpt>
      <trkpt lat="45.98833" lon="4.87733">
        <ele>273</ele>
        <time>2017-07-04T14:58:25Z</time>
      </trkpt>
      <trkpt lat="45.98836" lon="4.87744">
        <ele>273</ele>
        <time>2017-07-04T14:58:27Z</time>
      </trkpt>
      <trkpt lat="45.98838" lon="4.8775">
        <ele>273</ele>
        <time>2017-07-04T14:58:28Z</time>
      </trkpt>
      <trkpt lat="45.98841" lon="4.87761">
        <ele>273</ele>
        <time>2017-07-04T14:58:30Z</time>
      </trkpt>
      <trkpt lat="45.98842" lon="4.87767">
        <ele>273</ele>
        <time>2017-07-04T14:58:31Z</time>
      </trkpt>
      <trkpt lat="45.98845" lon="4.87779">
        <ele>273</ele>
        <time>2017-07-04T14:58:33Z</time>
      </trkpt>
      <trkpt lat="45.98847" lon="4.87784">
        <ele>273</ele>
        <time>2017-07-04T14:58:34Z</time>
      </trkpt>
      <trkpt lat="45.98848" lon="4.8779">
        <ele>273</ele>
        <time>2017-07-04T14:58:35Z</time>
      </trkpt>
      <trkpt lat="45.98851" lon="4.87796">
        <ele>273</ele>
        <time>2017-07-04T14:58:36Z</time>
      </trkpt>
      <trkpt lat="45.98855" lon="4.87808">
        <ele>273</ele>
        <time>2017-07-04T14:58:38Z</time>
      </trkpt>
      <trkpt lat="45.98857" lon="4.87814">
        <ele>273</ele>
        <time>2017-07-04T14:58:39Z</time>
      </trkpt>
      <trkpt lat="45.98861" lon="4.87825">
        <ele>273</ele>
        <time>2017-07-04T14:58:41Z</time>
      </trkpt>
      <trkpt lat="45.98863" lon="4.8783">
        <ele>273</ele>
        <time>2017-07-04T14:58:42Z</time>
      </trkpt>
      <trkpt lat="45.98867" lon="4.87839">
        <ele>273</ele>
        <time>2017-07-04T14:58:43Z</time>
      </trkpt>
      <trkpt lat="45.9887" lon="4.87845">
        <ele>273</ele>
        <time>2017-07-04T14:58:44Z</time>
      </trkpt>
      <trkpt lat="45.98873" lon="4.87851">
        <ele>273</ele>
        <time>2017-07-04T14:58:45Z</time>
      </trkpt>
      <trkpt lat="45.98877" lon="4.87857">
        <ele>272</ele>
        <time>2017-07-04T14:58:46Z</time>
      </trkpt>
      <trkpt lat="45.9888" lon="4.87862">
        <ele>272</ele>
        <time>2017-07-04T14:58:47Z</time>
      </trkpt>
      <trkpt lat="45.98883" lon="4.87867">
        <ele>272</ele>
        <time>2017-07-04T14:58:48Z</time>
      </trkpt>
      <trkpt lat="45.98888" lon="4.87877">
        <ele>272</ele>
        <time>2017-07-04T14:58:50Z</time>
      </trkpt>
      <trkpt lat="45.98891" lon="4.87882">
        <ele>272</ele>
        <time>2017-07-04T14:58:51Z</time>
      </trkpt>
      <trkpt lat="45.98894" lon="4.87888">
        <ele>272</ele>
        <time>2017-07-04T14:58:52Z</time>
      </trkpt>
      <trkpt lat="45.98898" lon="4.87893">
        <ele>272</ele>
        <time>2017-07-04T14:58:53Z</time>
      </trkpt>
      <trkpt lat="45.98904" lon="4.87901">
        <ele>272</ele>
        <time>2017-07-04T14:58:55Z</time>
      </trkpt>
      <trkpt lat="45.98908" lon="4.87904">
        <ele>272</ele>
        <time>2017-07-04T14:58:56Z</time>
      </trkpt>
      <trkpt lat="45.98914" lon="4.87911">
        <ele>271</ele>
        <time>2017-07-04T14:58:58Z</time>
      </trkpt>
      <trkpt lat="45.98918" lon="4.87914">
        <ele>271</ele>
        <time>2017-07-04T14:58:59Z</time>
      </trkpt>
      <trkpt lat="45.98924" lon="4.87919">
        <ele>272</ele>
        <time>2017-07-04T14:59:01Z</time>
      </trkpt>
      <trkpt lat="45.98926" lon="4.87922">
        <ele>272</ele>
        <time>2017-07-04T14:59:02Z</time>
      </trkpt>
      <trkpt lat="45.98933" lon="4.87929">
        <ele>272</ele>
        <time>2017-07-04T14:59:05Z</time>
      </trkpt>
      <trkpt lat="45.98935" lon="4.8793">
        <ele>272</ele>
        <time>2017-07-04T14:59:06Z</time>
      </trkpt>
      <trkpt lat="45.98942" lon="4.87935">
        <ele>273</ele>
        <time>2017-07-04T14:59:09Z</time>
      </trkpt>
      <trkpt lat="45.98944" lon="4.87937">
        <ele>273</ele>
        <time>2017-07-04T14:59:10Z</time>
      </trkpt>
      <trkpt lat="45.9895" lon="4.8794">
        <ele>273</ele>
        <time>2017-07-04T14:59:12Z</time>
      </trkpt>
      <trkpt lat="45.98954" lon="4.87941">
        <ele>273</ele>
        <time>2017-07-04T14:59:13Z</time>
      </trkpt>
      <trkpt lat="45.98958" lon="4.87943">
        <ele>273</ele>
        <time>2017-07-04T14:59:14Z</time>
      </trkpt>
      <trkpt lat="45.98962" lon="4.87946">
        <ele>273</ele>
        <time>2017-07-04T14:59:15Z</time>
      </trkpt>
      <trkpt lat="45.9897" lon="4.8795">
        <ele>274</ele>
        <time>2017-07-04T14:59:17Z</time>
      </trkpt>
      <trkpt lat="45.98973" lon="4.87951">
        <ele>274</ele>
        <time>2017-07-04T14:59:18Z</time>
      </trkpt>
      <trkpt lat="45.98979" lon="4.87956">
        <ele>274</ele>
        <time>2017-07-04T14:59:20Z</time>
      </trkpt>
      <trkpt lat="45.98981" lon="4.87958">
        <ele>274</ele>
        <time>2017-07-04T14:59:21Z</time>
      </trkpt>
      <trkpt lat="45.98989" lon="4.87965">
        <ele>274</ele>
        <time>2017-07-04T14:59:24Z</time>
      </trkpt>
      <trkpt lat="45.98992" lon="4.87967">
        <ele>274</ele>
        <time>2017-07-04T14:59:25Z</time>
      </trkpt>
      <trkpt lat="45.98999" lon="4.8797">
        <ele>274</ele>
        <time>2017-07-04T14:59:28Z</time>
      </trkpt>
      <trkpt lat="45.99002" lon="4.8797">
        <ele>276</ele>
        <time>2017-07-04T14:59:29Z</time>
      </trkpt>
      <trkpt lat="45.99008" lon="4.87974">
        <ele>276</ele>
        <time>2017-07-04T14:59:31Z</time>
      </trkpt>
      <trkpt lat="45.99011" lon="4.87976">
        <ele>276</ele>
        <time>2017-07-04T14:59:32Z</time>
      </trkpt>
      <trkpt lat="45.99017" lon="4.8798">
        <ele>276</ele>
        <time>2017-07-04T14:59:34Z</time>
      </trkpt>
      <trkpt lat="45.9902" lon="4.87982">
        <ele>276</ele>
        <time>2017-07-04T14:59:35Z</time>
      </trkpt>
      <trkpt lat="45.99026" lon="4.87986">
        <ele>276</ele>
        <time>2017-07-04T14:59:37Z</time>
      </trkpt>
      <trkpt lat="45.9903" lon="4.87988">
        <ele>276</ele>
        <time>2017-07-04T14:59:38Z</time>
      </trkpt>
      <trkpt lat="45.99037" lon="4.87994">
        <ele>276</ele>
        <time>2017-07-04T14:59:40Z</time>
      </trkpt>
      <trkpt lat="45.9904" lon="4.87996">
        <ele>276</ele>
        <time>2017-07-04T14:59:41Z</time>
      </trkpt>
      <trkpt lat="45.99047" lon="4.88001">
        <ele>277</ele>
        <time>2017-07-04T14:59:43Z</time>
      </trkpt>
      <trkpt lat="45.9905" lon="4.88002">
        <ele>277</ele>
        <time>2017-07-04T14:59:44Z</time>
      </trkpt>
      <trkpt lat="45.99059" lon="4.88004">
        <ele>277</ele>
        <time>2017-07-04T14:59:46Z</time>
      </trkpt>
      <trkpt lat="45.99062" lon="4.88006">
        <ele>277</ele>
        <time>2017-07-04T14:59:47Z</time>
      </trkpt>
      <trkpt lat="45.99069" lon="4.8801">
        <ele>277</ele>
        <time>2017-07-04T14:59:49Z</time>
      </trkpt>
      <trkpt lat="45.99073" lon="4.88011">
        <ele>277</ele>
        <time>2017-07-04T14:59:50Z</time>
      </trkpt>
      <trkpt lat="45.9908" lon="4.88015">
        <ele>277</ele>
        <time>2017-07-04T14:59:52Z</time>
      </trkpt>
      <trkpt lat="45.99083" lon="4.88017">
        <ele>277</ele>
        <time>2017-07-04T14:59:53Z</time>
      </trkpt>
      <trkpt lat="45.9909" lon="4.88021">
        <ele>278</ele>
        <time>2017-07-04T14:59:55Z</time>
      </trkpt>
      <trkpt lat="45.99094" lon="4.88024">
        <ele>278</ele>
        <time>2017-07-04T14:59:56Z</time>
      </trkpt>
      <trkpt lat="45.991" lon="4.88028">
        <ele>278</ele>
        <time>2017-07-04T14:59:58Z</time>
      </trkpt>
      <trkpt lat="45.99104" lon="4.8803">
        <ele>278</ele>
        <time>2017-07-04T14:59:59Z</time>
      </trkpt>
      <trkpt lat="45.9911" lon="4.88033">
        <ele>278</ele>
        <time>2017-07-04T15:00:01Z</time>
      </trkpt>
      <trkpt lat="45.99113" lon="4.88036">
        <ele>278</ele>
        <time>2017-07-04T15:00:02Z</time>
      </trkpt>
      <trkpt lat="45.9912" lon="4.8804">
        <ele>278</ele>
        <time>2017-07-04T15:00:04Z</time>
      </trkpt>
      <trkpt lat="45.99123" lon="4.88043">
        <ele>278</ele>
        <time>2017-07-04T15:00:05Z</time>
      </trkpt>
      <trkpt lat="45.9913" lon="4.88047">
        <ele>279</ele>
        <time>2017-07-04T15:00:07Z</time>
      </trkpt>
      <trkpt lat="45.99134" lon="4.88049">
        <ele>279</ele>
        <time>2017-07-04T15:00:08Z</time>
      </trkpt>
      <trkpt lat="45.9914" lon="4.88053">
        <ele>279</ele>
        <time>2017-07-04T15:00:10Z</time>
      </trkpt>
      <trkpt lat="45.99143" lon="4.88053">
        <ele>279</ele>
        <time>2017-07-04T15:00:11Z</time>
      </trkpt>
      <trkpt lat="45.9915" lon="4.88057">
        <ele>279</ele>
        <time>2017-07-04T15:00:13Z</time>
      </trkpt>
      <trkpt lat="45.99153" lon="4.88059">
        <ele>279</ele>
        <time>2017-07-04T15:00:14Z</time>
      </trkpt>
      <trkpt lat="45.99161" lon="4.88059">
        <ele>279</ele>
        <time>2017-07-04T15:00:16Z</time>
      </trkpt>
      <trkpt lat="45.99164" lon="4.8806">
        <ele>279</ele>
        <time>2017-07-04T15:00:17Z</time>
      </trkpt>
      <trkpt lat="45.99171" lon="4.88063">
        <ele>279</ele>
        <time>2017-07-04T15:00:19Z</time>
      </trkpt>
      <trkpt lat="45.99174" lon="4.88066">
        <ele>279</ele>
        <time>2017-07-04T15:00:20Z</time>
      </trkpt>
      <trkpt lat="45.9918" lon="4.88071">
        <ele>279</ele>
        <time>2017-07-04T15:00:22Z</time>
      </trkpt>
      <trkpt lat="45.99183" lon="4.88074">
        <ele>279</ele>
        <time>2017-07-04T15:00:23Z</time>
      </trkpt>
      <trkpt lat="45.99189" lon="4.8808">
        <ele>280</ele>
        <time>2017-07-04T15:00:25Z</time>
      </trkpt>
      <trkpt lat="45.99192" lon="4.88082">
        <ele>280</ele>
        <time>2017-07-04T15:00:26Z</time>
      </trkpt>
      <trkpt lat="45.99199" lon="4.88089">
        <ele>280</ele>
        <time>2017-07-04T15:00:28Z</time>
      </trkpt>
      <trkpt lat="45.99202" lon="4.88091">
        <ele>280</ele>
        <time>2017-07-04T15:00:29Z</time>
      </trkpt>
      <trkpt lat="45.99209" lon="4.88098">
        <ele>280</ele>
        <time>2017-07-04T15:00:31Z</time>
      </trkpt>
      <trkpt lat="45.99213" lon="4.88101">
        <ele>280</ele>
        <time>2017-07-04T15:00:32Z</time>
      </trkpt>
      <trkpt lat="45.99219" lon="4.88106">
        <ele>280</ele>
        <time>2017-07-04T15:00:34Z</time>
      </trkpt>
      <trkpt lat="45.99222" lon="4.88108">
        <ele>280</ele>
        <time>2017-07-04T15:00:35Z</time>
      </trkpt>
      <trkpt lat="45.99228" lon="4.88114">
        <ele>280</ele>
        <time>2017-07-04T15:00:37Z</time>
      </trkpt>
      <trkpt lat="45.99232" lon="4.88116">
        <ele>280</ele>
        <time>2017-07-04T15:00:38Z</time>
      </trkpt>
      <trkpt lat="45.99238" lon="4.88122">
        <ele>280</ele>
        <time>2017-07-04T15:00:40Z</time>
      </trkpt>
      <trkpt lat="45.99242" lon="4.88125">
        <ele>280</ele>
        <time>2017-07-04T15:00:41Z</time>
      </trkpt>
      <trkpt lat="45.99248" lon="4.88131">
        <ele>280</ele>
        <time>2017-07-04T15:00:43Z</time>
      </trkpt>
      <trkpt lat="45.99252" lon="4.88134">
        <ele>283</ele>
        <time>2017-07-04T15:00:44Z</time>
      </trkpt>
      <trkpt lat="45.99258" lon="4.8814">
        <ele>283</ele>
        <time>2017-07-04T15:00:46Z</time>
      </trkpt>
      <trkpt lat="45.99261" lon="4.88145">
        <ele>283</ele>
        <time>2017-07-04T15:00:47Z</time>
      </trkpt>
      <trkpt lat="45.99266" lon="4.88151">
        <ele>283</ele>
        <time>2017-07-04T15:00:49Z</time>
      </trkpt>
      <trkpt lat="45.9927" lon="4.88154">
        <ele>283</ele>
        <time>2017-07-04T15:00:50Z</time>
      </trkpt>
      <trkpt lat="45.99276" lon="4.88159">
        <ele>283</ele>
        <time>2017-07-04T15:00:52Z</time>
      </trkpt>
      <trkpt lat="45.99279" lon="4.88162">
        <ele>283</ele>
        <time>2017-07-04T15:00:53Z</time>
      </trkpt>
      <trkpt lat="45.99285" lon="4.88166">
        <ele>284</ele>
        <time>2017-07-04T15:00:55Z</time>
      </trkpt>
      <trkpt lat="45.99289" lon="4.88169">
        <ele>284</ele>
        <time>2017-07-04T15:00:56Z</time>
      </trkpt>
      <trkpt lat="45.99295" lon="4.88174">
        <ele>284</ele>
        <time>2017-07-04T15:00:58Z</time>
      </trkpt>
      <trkpt lat="45.99299" lon="4.88177">
        <ele>284</ele>
        <time>2017-07-04T15:00:59Z</time>
      </trkpt>
      <trkpt lat="45.99306" lon="4.88183">
        <ele>285</ele>
        <time>2017-07-04T15:01:01Z</time>
      </trkpt>
      <trkpt lat="45.99309" lon="4.88186">
        <ele>285</ele>
        <time>2017-07-04T15:01:02Z</time>
      </trkpt>
      <trkpt lat="45.99316" lon="4.88193">
        <ele>285</ele>
        <time>2017-07-04T15:01:04Z</time>
      </trkpt>
      <trkpt lat="45.99319" lon="4.88197">
        <ele>285</ele>
        <time>2017-07-04T15:01:05Z</time>
      </trkpt>
      <trkpt lat="45.99327" lon="4.88203">
        <ele>285</ele>
        <time>2017-07-04T15:01:07Z</time>
      </trkpt>
      <trkpt lat="45.9933" lon="4.88206">
        <ele>285</ele>
        <time>2017-07-04T15:01:08Z</time>
      </trkpt>
      <trkpt lat="45.99336" lon="4.88212">
        <ele>287</ele>
        <time>2017-07-04T15:01:10Z</time>
      </trkpt>
      <trkpt lat="45.9934" lon="4.88215">
        <ele>287</ele>
        <time>2017-07-04T15:01:11Z</time>
      </trkpt>
      <trkpt lat="45.99346" lon="4.88221">
        <ele>287</ele>
        <time>2017-07-04T15:01:13Z</time>
      </trkpt>
      <trkpt lat="45.99349" lon="4.88224">
        <ele>287</ele>
        <time>2017-07-04T15:01:14Z</time>
      </trkpt>
      <trkpt lat="45.99356" lon="4.8823">
        <ele>287</ele>
        <time>2017-07-04T15:01:16Z</time>
      </trkpt>
      <trkpt lat="45.99359" lon="4.88232">
        <ele>287</ele>
        <time>2017-07-04T15:01:17Z</time>
      </trkpt>
      <trkpt lat="45.99367" lon="4.88237">
        <ele>287</ele>
        <time>2017-07-04T15:01:20Z</time>
      </trkpt>
      <trkpt lat="45.99369" lon="4.8824">
        <ele>287</ele>
        <time>2017-07-04T15:01:21Z</time>
      </trkpt>
      <trkpt lat="45.99374" lon="4.88248">
        <ele>287</ele>
        <time>2017-07-04T15:01:23Z</time>
      </trkpt>
      <trkpt lat="45.99376" lon="4.88252">
        <ele>285</ele>
        <time>2017-07-04T15:01:24Z</time>
      </trkpt>
      <trkpt lat="45.9938" lon="4.88262">
        <ele>285</ele>
        <time>2017-07-04T15:01:26Z</time>
      </trkpt>
      <trkpt lat="45.99382" lon="4.88267">
        <ele>285</ele>
        <time>2017-07-04T15:01:27Z</time>
      </trkpt>
      <trkpt lat="45.99387" lon="4.88276">
        <ele>284</ele>
        <time>2017-07-04T15:01:29Z</time>
      </trkpt>
      <trkpt lat="45.99388" lon="4.8828">
        <ele>284</ele>
        <time>2017-07-04T15:01:30Z</time>
      </trkpt>
      <trkpt lat="45.99392" lon="4.88287">
        <ele>284</ele>
        <time>2017-07-04T15:01:32Z</time>
      </trkpt>
      <trkpt lat="45.99394" lon="4.88292">
        <ele>284</ele>
        <time>2017-07-04T15:01:33Z</time>
      </trkpt>
      <trkpt lat="45.99398" lon="4.88302">
        <ele>284</ele>
        <time>2017-07-04T15:01:35Z</time>
      </trkpt>
      <trkpt lat="45.994" lon="4.88307">
        <ele>284</ele>
        <time>2017-07-04T15:01:36Z</time>
      </trkpt>
      <trkpt lat="45.99404" lon="4.88318">
        <ele>283</ele>
        <time>2017-07-04T15:01:38Z</time>
      </trkpt>
      <trkpt lat="45.99405" lon="4.88322">
        <ele>283</ele>
        <time>2017-07-04T15:01:39Z</time>
      </trkpt>
      <trkpt lat="45.99409" lon="4.88332">
        <ele>283</ele>
        <time>2017-07-04T15:01:41Z</time>
      </trkpt>
      <trkpt lat="45.99411" lon="4.88337">
        <ele>282</ele>
        <time>2017-07-04T15:01:42Z</time>
      </trkpt>
      <trkpt lat="45.99416" lon="4.88346">
        <ele>282</ele>
        <time>2017-07-04T15:01:44Z</time>
      </trkpt>
      <trkpt lat="45.99418" lon="4.8835">
        <ele>282</ele>
        <time>2017-07-04T15:01:45Z</time>
      </trkpt>
      <trkpt lat="45.99422" lon="4.88358">
        <ele>283</ele>
        <time>2017-07-04T15:01:47Z</time>
      </trkpt>
      <trkpt lat="45.99423" lon="4.88362">
        <ele>283</ele>
        <time>2017-07-04T15:01:48Z</time>
      </trkpt>
      <trkpt lat="45.99428" lon="4.8837">
        <ele>283</ele>
        <time>2017-07-04T15:01:50Z</time>
      </trkpt>
      <trkpt lat="45.9943" lon="4.88375">
        <ele>283</ele>
        <time>2017-07-04T15:01:51Z</time>
      </trkpt>
      <trkpt lat="45.99435" lon="4.88385">
        <ele>283</ele>
        <time>2017-07-04T15:01:53Z</time>
      </trkpt>
      <trkpt lat="45.99437" lon="4.8839">
        <ele>283</ele>
        <time>2017-07-04T15:01:54Z</time>
      </trkpt>
      <trkpt lat="45.99442" lon="4.88399">
        <ele>283</ele>
        <time>2017-07-04T15:01:56Z</time>
      </trkpt>
      <trkpt lat="45.99445" lon="4.88403">
        <ele>283</ele>
        <time>2017-07-04T15:01:57Z</time>
      </trkpt>
      <trkpt lat="45.99451" lon="4.88411">
        <ele>283</ele>
        <time>2017-07-04T15:01:59Z</time>
      </trkpt>
      <trkpt lat="45.99455" lon="4.88415">
        <ele>283</ele>
        <time>2017-07-04T15:02:00Z</time>
      </trkpt>
      <trkpt lat="45.99459" lon="4.88419">
        <ele>284</ele>
        <time>2017-07-04T15:02:01Z</time>
      </trkpt>
      <trkpt lat="45.99463" lon="4.88423">
        <ele>284</ele>
        <time>2017-07-04T15:02:02Z</time>
      </trkpt>
      <trkpt lat="45.99467" lon="4.88426">
        <ele>284</ele>
        <time>2017-07-04T15:02:03Z</time>
      </trkpt>
      <trkpt lat="45.99471" lon="4.8843">
        <ele>284</ele>
        <time>2017-07-04T15:02:04Z</time>
      </trkpt>
      <trkpt lat="45.99475" lon="4.88434">
        <ele>284</ele>
        <time>2017-07-04T15:02:05Z</time>
      </trkpt>
      <trkpt lat="45.99479" lon="4.88439">
        <ele>284</ele>
        <time>2017-07-04T15:02:06Z</time>
      </trkpt>
      <trkpt lat="45.99483" lon="4.88443">
        <ele>284</ele>
        <time>2017-07-04T15:02:07Z</time>
      </trkpt>
      <trkpt lat="45.99486" lon="4.88449">
        <ele>284</ele>
        <time>2017-07-04T15:02:08Z</time>
      </trkpt>
      <trkpt lat="45.9949" lon="4.88454">
        <ele>284</ele>
        <time>2017-07-04T15:02:09Z</time>
      </trkpt>
      <trkpt lat="45.99493" lon="4.8846">
        <ele>284</ele>
        <time>2017-07-04T15:02:10Z</time>
      </trkpt>
      <trkpt lat="45.99496" lon="4.88466">
        <ele>284</ele>
        <time>2017-07-04T15:02:11Z</time>
      </trkpt>
      <trkpt lat="45.99499" lon="4.88471">
        <ele>284</ele>
        <time>2017-07-04T15:02:12Z</time>
      </trkpt>
      <trkpt lat="45.99502" lon="4.88476">
        <ele>284</ele>
        <time>2017-07-04T15:02:13Z</time>
      </trkpt>
      <trkpt lat="45.99505" lon="4.88482">
        <ele>284</ele>
        <time>2017-07-04T15:02:14Z</time>
      </trkpt>
      <trkpt lat="45.99508" lon="4.88487">
        <ele>284</ele>
        <time>2017-07-04T15:02:15Z</time>
      </trkpt>
      <trkpt lat="45.9951" lon="4.88492">
        <ele>284</ele>
        <time>2017-07-04T15:02:16Z</time>
      </trkpt>
      <trkpt lat="45.99513" lon="4.88497">
        <ele>284</ele>
        <time>2017-07-04T15:02:17Z</time>
      </trkpt>
      <trkpt lat="45.99516" lon="4.88502">
        <ele>285</ele>
        <time>2017-07-04T15:02:18Z</time>
      </trkpt>
      <trkpt lat="45.99519" lon="4.88508">
        <ele>285</ele>
        <time>2017-07-04T15:02:19Z</time>
      </trkpt>
      <trkpt lat="45.99522" lon="4.88513">
        <ele>285</ele>
        <time>2017-07-04T15:02:20Z</time>
      </trkpt>
      <trkpt lat="45.99524" lon="4.88518">
        <ele>285</ele>
        <time>2017-07-04T15:02:21Z</time>
      </trkpt>
      <trkpt lat="45.99527" lon="4.88524">
        <ele>285</ele>
        <time>2017-07-04T15:02:22Z</time>
      </trkpt>
      <trkpt lat="45.99529" lon="4.88531">
        <ele>285</ele>
        <time>2017-07-04T15:02:23Z</time>
      </trkpt>
      <trkpt lat="45.99532" lon="4.88537">
        <ele>285</ele>
        <time>2017-07-04T15:02:24Z</time>
      </trkpt>
      <trkpt lat="45.99536" lon="4.88548">
        <ele>285</ele>
        <time>2017-07-04T15:02:26Z</time>
      </trkpt>
      <trkpt lat="45.99538" lon="4.88553">
        <ele>285</ele>
        <time>2017-07-04T15:02:27Z</time>
      </trkpt>
      <trkpt lat="45.99543" lon="4.88564">
        <ele>285</ele>
        <time>2017-07-04T15:02:29Z</time>
      </trkpt>
      <trkpt lat="45.99544" lon="4.8857">
        <ele>286</ele>
        <time>2017-07-04T15:02:30Z</time>
      </trkpt>
      <trkpt lat="45.99546" lon="4.88576">
        <ele>286</ele>
        <time>2017-07-04T15:02:31Z</time>
      </trkpt>
      <trkpt lat="45.99548" lon="4.88583">
        <ele>286</ele>
        <time>2017-07-04T15:02:32Z</time>
      </trkpt>
      <trkpt lat="45.9955" lon="4.88589">
        <ele>286</ele>
        <time>2017-07-04T15:02:33Z</time>
      </trkpt>
      <trkpt lat="45.99551" lon="4.88596">
        <ele>286</ele>
        <time>2017-07-04T15:02:34Z</time>
      </trkpt>
      <trkpt lat="45.99553" lon="4.88608">
        <ele>286</ele>
        <time>2017-07-04T15:02:36Z</time>
      </trkpt>
      <trkpt lat="45.99554" lon="4.88614">
        <ele>286</ele>
        <time>2017-07-04T15:02:37Z</time>
      </trkpt>
      <trkpt lat="45.99555" lon="4.88625">
        <ele>286</ele>
        <time>2017-07-04T15:02:39Z</time>
      </trkpt>
      <trkpt lat="45.99555" lon="4.8863">
        <ele>286</ele>
        <time>2017-07-04T15:02:40Z</time>
      </trkpt>
      <trkpt lat="45.99557" lon="4.88641">
        <ele>286</ele>
        <time>2017-07-04T15:02:42Z</time>
      </trkpt>
      <trkpt lat="45.99557" lon="4.88647">
        <ele>286</ele>
        <time>2017-07-04T15:02:43Z</time>
      </trkpt>
      <trkpt lat="45.99557" lon="4.88654">
        <ele>286</ele>
        <time>2017-07-04T15:02:44Z</time>
      </trkpt>
      <trkpt lat="45.99558" lon="4.88661">
        <ele>286</ele>
        <time>2017-07-04T15:02:45Z</time>
      </trkpt>
      <trkpt lat="45.99559" lon="4.88668">
        <ele>286</ele>
        <time>2017-07-04T15:02:46Z</time>
      </trkpt>
      <trkpt lat="45.9956" lon="4.88675">
        <ele>286</ele>
        <time>2017-07-04T15:02:47Z</time>
      </trkpt>
      <trkpt lat="45.99561" lon="4.88682">
        <ele>286</ele>
        <time>2017-07-04T15:02:48Z</time>
      </trkpt>
      <trkpt lat="45.99561" lon="4.88688">
        <ele>286</ele>
        <time>2017-07-04T15:02:49Z</time>
      </trkpt>
      <trkpt lat="45.99562" lon="4.887">
        <ele>286</ele>
        <time>2017-07-04T15:02:51Z</time>
      </trkpt>
      <trkpt lat="45.99563" lon="4.88705">
        <ele>286</ele>
        <time>2017-07-04T15:02:52Z</time>
      </trkpt>
      <trkpt lat="45.99565" lon="4.88716">
        <ele>286</ele>
        <time>2017-07-04T15:02:54Z</time>
      </trkpt>
      <trkpt lat="45.99566" lon="4.88721">
        <ele>286</ele>
        <time>2017-07-04T15:02:55Z</time>
      </trkpt>
      <trkpt lat="45.99567" lon="4.88731">
        <ele>287</ele>
        <time>2017-07-04T15:02:57Z</time>
      </trkpt>
      <trkpt lat="45.99567" lon="4.88738">
        <ele>287</ele>
        <time>2017-07-04T15:02:58Z</time>
      </trkpt>
      <trkpt lat="45.99568" lon="4.88745">
        <ele>287</ele>
        <time>2017-07-04T15:02:59Z</time>
      </trkpt>
      <trkpt lat="45.99569" lon="4.88752">
        <ele>287</ele>
        <time>2017-07-04T15:03:00Z</time>
      </trkpt>
      <trkpt lat="45.99569" lon="4.8876">
        <ele>287</ele>
        <time>2017-07-04T15:03:01Z</time>
      </trkpt>
      <trkpt lat="45.9957" lon="4.88767">
        <ele>287</ele>
        <time>2017-07-04T15:03:02Z</time>
      </trkpt>
      <trkpt lat="45.9957" lon="4.8878">
        <ele>287</ele>
        <time>2017-07-04T15:03:04Z</time>
      </trkpt>
      <trkpt lat="45.99571" lon="4.88786">
        <ele>287</ele>
        <time>2017-07-04T15:03:05Z</time>
      </trkpt>
      <trkpt lat="45.99572" lon="4.88793">
        <ele>287</ele>
        <time>2017-07-04T15:03:06Z</time>
      </trkpt>
      <trkpt lat="45.99573" lon="4.88799">
        <ele>287</ele>
        <time>2017-07-04T15:03:07Z</time>
      </trkpt>
      <trkpt lat="45.99573" lon="4.88806">
        <ele>287</ele>
        <time>2017-07-04T15:03:08Z</time>
      </trkpt>
      <trkpt lat="45.99574" lon="4.88813">
        <ele>287</ele>
        <time>2017-07-04T15:03:09Z</time>
      </trkpt>
      <trkpt lat="45.99575" lon="4.8882">
        <ele>287</ele>
        <time>2017-07-04T15:03:10Z</time>
      </trkpt>
      <trkpt lat="45.99576" lon="4.88827">
        <ele>287</ele>
        <time>2017-07-04T15:03:11Z</time>
      </trkpt>
      <trkpt lat="45.99576" lon="4.88838">
        <ele>287</ele>
        <time>2017-07-04T15:03:13Z</time>
      </trkpt>
      <trkpt lat="45.99577" lon="4.88844">
        <ele>287</ele>
        <time>2017-07-04T15:03:14Z</time>
      </trkpt>
      <trkpt lat="45.99578" lon="4.88855">
        <ele>287</ele>
        <time>2017-07-04T15:03:16Z</time>
      </trkpt>
      <trkpt lat="45.99578" lon="4.88861">
        <ele>287</ele>
        <time>2017-07-04T15:03:17Z</time>
      </trkpt>
      <trkpt lat="45.99579" lon="4.88868">
        <ele>287</ele>
        <time>2017-07-04T15:03:18Z</time>
      </trkpt>
      <trkpt lat="45.99579" lon="4.88874">
        <ele>287</ele>
        <time>2017-07-04T15:03:19Z</time>
      </trkpt>
      <trkpt lat="45.9958" lon="4.88882">
        <ele>287</ele>
        <time>2017-07-04T15:03:20Z</time>
      </trkpt>
      <trkpt lat="45.9958" lon="4.88889">
        <ele>287</ele>
        <time>2017-07-04T15:03:21Z</time>
      </trkpt>
      <trkpt lat="45.99581" lon="4.88896">
        <ele>287</ele>
        <time>2017-07-04T15:03:22Z</time>
      </trkpt>
      <trkpt lat="45.99582" lon="4.88904">
        <ele>287</ele>
        <time>2017-07-04T15:03:23Z</time>
      </trkpt>
      <trkpt lat="45.99582" lon="4.88911">
        <ele>287</ele>
        <time>2017-07-04T15:03:24Z</time>
      </trkpt>
      <trkpt lat="45.99583" lon="4.88919">
        <ele>287</ele>
        <time>2017-07-04T15:03:25Z</time>
      </trkpt>
      <trkpt lat="45.99583" lon="4.88925">
        <ele>287</ele>
        <time>2017-07-04T15:03:26Z</time>
      </trkpt>
      <trkpt lat="45.99584" lon="4.88932">
        <ele>287</ele>
        <time>2017-07-04T15:03:27Z</time>
      </trkpt>
      <trkpt lat="45.99584" lon="4.88939">
        <ele>287</ele>
        <time>2017-07-04T15:03:28Z</time>
      </trkpt>
      <trkpt lat="45.99585" lon="4.88945">
        <ele>287</ele>
        <time>2017-07-04T15:03:29Z</time>
      </trkpt>
      <trkpt lat="45.99586" lon="4.88957">
        <ele>287</ele>
        <time>2017-07-04T15:03:31Z</time>
      </trkpt>
      <trkpt lat="45.99587" lon="4.88963">
        <ele>288</ele>
        <time>2017-07-04T15:03:32Z</time>
      </trkpt>
      <trkpt lat="45.99587" lon="4.88974">
        <ele>288</ele>
        <time>2017-07-04T15:03:34Z</time>
      </trkpt>
      <trkpt lat="45.99588" lon="4.8898">
        <ele>288</ele>
        <time>2017-07-04T15:03:35Z</time>
      </trkpt>
      <trkpt lat="45.99589" lon="4.88991">
        <ele>288</ele>
        <time>2017-07-04T15:03:37Z</time>
      </trkpt>
      <trkpt lat="45.99589" lon="4.88998">
        <ele>288</ele>
        <time>2017-07-04T15:03:38Z</time>
      </trkpt>
      <trkpt lat="45.99589" lon="4.8901">
        <ele>288</ele>
        <time>2017-07-04T15:03:40Z</time>
      </trkpt>
      <trkpt lat="45.99588" lon="4.89016">
        <ele>288</ele>
        <time>2017-07-04T15:03:41Z</time>
      </trkpt>
      <trkpt lat="45.99588" lon="4.89028">
        <ele>289</ele>
        <time>2017-07-04T15:03:43Z</time>
      </trkpt>
      <trkpt lat="45.99588" lon="4.89034">
        <ele>289</ele>
        <time>2017-07-04T15:03:44Z</time>
      </trkpt>
      <trkpt lat="45.99587" lon="4.89044">
        <ele>289</ele>
        <time>2017-07-04T15:03:46Z</time>
      </trkpt>
      <trkpt lat="45.99586" lon="4.89049">
        <ele>289</ele>
        <time>2017-07-04T15:03:47Z</time>
      </trkpt>
      <trkpt lat="45.99585" lon="4.89059">
        <ele>289</ele>
        <time>2017-07-04T15:03:49Z</time>
      </trkpt>
      <trkpt lat="45.99584" lon="4.89065">
        <ele>289</ele>
        <time>2017-07-04T15:03:50Z</time>
      </trkpt>
      <trkpt lat="45.99583" lon="4.89077">
        <ele>289</ele>
        <time>2017-07-04T15:03:52Z</time>
      </trkpt>
      <trkpt lat="45.99584" lon="4.89082">
        <ele>289</ele>
        <time>2017-07-04T15:03:53Z</time>
      </trkpt>
      <trkpt lat="45.99583" lon="4.89089">
        <ele>289</ele>
        <time>2017-07-04T15:03:54Z</time>
      </trkpt>
      <trkpt lat="45.99582" lon="4.89096">
        <ele>289</ele>
        <time>2017-07-04T15:03:55Z</time>
      </trkpt>
      <trkpt lat="45.99581" lon="4.89109">
        <ele>289</ele>
        <time>2017-07-04T15:03:57Z</time>
      </trkpt>
      <trkpt lat="45.99581" lon="4.89114">
        <ele>289</ele>
        <time>2017-07-04T15:03:58Z</time>
      </trkpt>
      <trkpt lat="45.99582" lon="4.89126">
        <ele>289</ele>
        <time>2017-07-04T15:04:00Z</time>
      </trkpt>
      <trkpt lat="45.99582" lon="4.89132">
        <ele>289</ele>
        <time>2017-07-04T15:04:01Z</time>
      </trkpt>
      <trkpt lat="45.99582" lon="4.89142">
        <ele>289</ele>
        <time>2017-07-04T15:04:03Z</time>
      </trkpt>
      <trkpt lat="45.99582" lon="4.89147">
        <ele>289</ele>
        <time>2017-07-04T15:04:04Z</time>
      </trkpt>
      <trkpt lat="45.99584" lon="4.89159">
        <ele>288</ele>
        <time>2017-07-04T15:04:06Z</time>
      </trkpt>
      <trkpt lat="45.99584" lon="4.89166">
        <ele>288</ele>
        <time>2017-07-04T15:04:07Z</time>
      </trkpt>
      <trkpt lat="45.99584" lon="4.89174">
        <ele>288</ele>
        <time>2017-07-04T15:04:08Z</time>
      </trkpt>
      <trkpt lat="45.99583" lon="4.89181">
        <ele>288</ele>
        <time>2017-07-04T15:04:09Z</time>
      </trkpt>
      <trkpt lat="45.99583" lon="4.89188">
        <ele>288</ele>
        <time>2017-07-04T15:04:10Z</time>
      </trkpt>
      <trkpt lat="45.99583" lon="4.89194">
        <ele>288</ele>
        <time>2017-07-04T15:04:11Z</time>
      </trkpt>
      <trkpt lat="45.99583" lon="4.89206">
        <ele>288</ele>
        <time>2017-07-04T15:04:13Z</time>
      </trkpt>
      <trkpt lat="45.99584" lon="4.89212">
        <ele>288</ele>
        <time>2017-07-04T15:04:14Z</time>
      </trkpt>
      <trkpt lat="45.99584" lon="4.89219">
        <ele>288</ele>
        <time>2017-07-04T15:04:15Z</time>
      </trkpt>
      <trkpt lat="45.99584" lon="4.89225">
        <ele>288</ele>
        <time>2017-07-04T15:04:16Z</time>
      </trkpt>
      <trkpt lat="45.99585" lon="4.89232">
        <ele>288</ele>
        <time>2017-07-04T15:04:17Z</time>
      </trkpt>
      <trkpt lat="45.99585" lon="4.89239">
        <ele>288</ele>
        <time>2017-07-04T15:04:18Z</time>
      </trkpt>
      <trkpt lat="45.99586" lon="4.89246">
        <ele>288</ele>
        <time>2017-07-04T15:04:19Z</time>
      </trkpt>
      <trkpt lat="45.99586" lon="4.89253">
        <ele>288</ele>
        <time>2017-07-04T15:04:20Z</time>
      </trkpt>
      <trkpt lat="45.99587" lon="4.89265">
        <ele>288</ele>
        <time>2017-07-04T15:04:22Z</time>
      </trkpt>
      <trkpt lat="45.99588" lon="4.89271">
        <ele>288</ele>
        <time>2017-07-04T15:04:23Z</time>
      </trkpt>
      <trkpt lat="45.99588" lon="4.89282">
        <ele>289</ele>
        <time>2017-07-04T15:04:25Z</time>
      </trkpt>
      <trkpt lat="45.99589" lon="4.89287">
        <ele>289</ele>
        <time>2017-07-04T15:04:26Z</time>
      </trkpt>
      <trkpt lat="45.99589" lon="4.89298">
        <ele>289</ele>
        <time>2017-07-04T15:04:28Z</time>
      </trkpt>
      <trkpt lat="45.99589" lon="4.89307">
        <ele>289</ele>
        <time>2017-07-04T15:04:29Z</time>
      </trkpt>
      <trkpt lat="45.9959" lon="4.89314">
        <ele>289</ele>
        <time>2017-07-04T15:04:30Z</time>
      </trkpt>
      <trkpt lat="45.9959" lon="4.89322">
        <ele>289</ele>
        <time>2017-07-04T15:04:31Z</time>
      </trkpt>
      <trkpt lat="45.99591" lon="4.8933">
        <ele>289</ele>
        <time>2017-07-04T15:04:32Z</time>
      </trkpt>
      <trkpt lat="45.99591" lon="4.89338">
        <ele>289</ele>
        <time>2017-07-04T15:04:33Z</time>
      </trkpt>
      <trkpt lat="45.99592" lon="4.89345">
        <ele>289</ele>
        <time>2017-07-04T15:04:34Z</time>
      </trkpt>
      <trkpt lat="45.99592" lon="4.89352">
        <ele>289</ele>
        <time>2017-07-04T15:04:35Z</time>
      </trkpt>
      <trkpt lat="45.99593" lon="4.89358">
        <ele>289</ele>
        <time>2017-07-04T15:04:36Z</time>
      </trkpt>
      <trkpt lat="45.99593" lon="4.89365">
        <ele>289</ele>
        <time>2017-07-04T15:04:37Z</time>
      </trkpt>
      <trkpt lat="45.99594" lon="4.89372">
        <ele>289</ele>
        <time>2017-07-04T15:04:38Z</time>
      </trkpt>
      <trkpt lat="45.99594" lon="4.89379">
        <ele>290</ele>
        <time>2017-07-04T15:04:39Z</time>
      </trkpt>
      <trkpt lat="45.99594" lon="4.89391">
        <ele>290</ele>
        <time>2017-07-04T15:04:41Z</time>
      </trkpt>
      <trkpt lat="45.99595" lon="4.89397">
        <ele>290</ele>
        <time>2017-07-04T15:04:42Z</time>
      </trkpt>
      <trkpt lat="45.99595" lon="4.89408">
        <ele>290</ele>
        <time>2017-07-04T15:04:44Z</time>
      </trkpt>
      <trkpt lat="45.99595" lon="4.89414">
        <ele>290</ele>
        <time>2017-07-04T15:04:45Z</time>
      </trkpt>
      <trkpt lat="45.99597" lon="4.89422">
        <ele>290</ele>
        <time>2017-07-04T15:04:47Z</time>
      </trkpt>
      <trkpt lat="45.99597" lon="4.89427">
        <ele>290</ele>
        <time>2017-07-04T15:04:48Z</time>
      </trkpt>
      <trkpt lat="45.99597" lon="4.89437">
        <ele>290</ele>
        <time>2017-07-04T15:04:50Z</time>
      </trkpt>
      <trkpt lat="45.99597" lon="4.89442">
        <ele>290</ele>
        <time>2017-07-04T15:04:51Z</time>
      </trkpt>
      <trkpt lat="45.99598" lon="4.89453">
        <ele>290</ele>
        <time>2017-07-04T15:04:53Z</time>
      </trkpt>
      <trkpt lat="45.99598" lon="4.8946">
        <ele>290</ele>
        <time>2017-07-04T15:04:54Z</time>
      </trkpt>
      <trkpt lat="45.99599" lon="4.89466">
        <ele>290</ele>
        <time>2017-07-04T15:04:55Z</time>
      </trkpt>
      <trkpt lat="45.99599" lon="4.89473">
        <ele>290</ele>
        <time>2017-07-04T15:04:56Z</time>
      </trkpt>
      <trkpt lat="45.99599" lon="4.89481">
        <ele>290</ele>
        <time>2017-07-04T15:04:57Z</time>
      </trkpt>
      <trkpt lat="45.99599" lon="4.89489">
        <ele>290</ele>
        <time>2017-07-04T15:04:58Z</time>
      </trkpt>
      <trkpt lat="45.99599" lon="4.89496">
        <ele>290</ele>
        <time>2017-07-04T15:04:59Z</time>
      </trkpt>
      <trkpt lat="45.99599" lon="4.89503">
        <ele>290</ele>
        <time>2017-07-04T15:05:00Z</time>
      </trkpt>
      <trkpt lat="45.996" lon="4.8951">
        <ele>290</ele>
        <time>2017-07-04T15:05:01Z</time>
      </trkpt>
      <trkpt lat="45.996" lon="4.89517">
        <ele>290</ele>
        <time>2017-07-04T15:05:02Z</time>
      </trkpt>
      <trkpt lat="45.99601" lon="4.89529">
        <ele>291</ele>
        <time>2017-07-04T15:05:04Z</time>
      </trkpt>
      <trkpt lat="45.99602" lon="4.89536">
        <ele>291</ele>
        <time>2017-07-04T15:05:05Z</time>
      </trkpt>
      <trkpt lat="45.99603" lon="4.89543">
        <ele>291</ele>
        <time>2017-07-04T15:05:06Z</time>
      </trkpt>
      <trkpt lat="45.99603" lon="4.8955">
        <ele>291</ele>
        <time>2017-07-04T15:05:07Z</time>
      </trkpt>
      <trkpt lat="45.99604" lon="4.89557">
        <ele>291</ele>
        <time>2017-07-04T15:05:08Z</time>
      </trkpt>
      <trkpt lat="45.99605" lon="4.89565">
        <ele>291</ele>
        <time>2017-07-04T15:05:09Z</time>
      </trkpt>
      <trkpt lat="45.99605" lon="4.89572">
        <ele>291</ele>
        <time>2017-07-04T15:05:10Z</time>
      </trkpt>
      <trkpt lat="45.99606" lon="4.89579">
        <ele>291</ele>
        <time>2017-07-04T15:05:11Z</time>
      </trkpt>
      <trkpt lat="45.99608" lon="4.89591">
        <ele>292</ele>
        <time>2017-07-04T15:05:13Z</time>
      </trkpt>
      <trkpt lat="45.99608" lon="4.89597">
        <ele>291</ele>
        <time>2017-07-04T15:05:14Z</time>
      </trkpt>
      <trkpt lat="45.99609" lon="4.89607">
        <ele>291</ele>
        <time>2017-07-04T15:05:16Z</time>
      </trkpt>
      <trkpt lat="45.99609" lon="4.89613">
        <ele>291</ele>
        <time>2017-07-04T15:05:17Z</time>
      </trkpt>
      <trkpt lat="45.99609" lon="4.89623">
        <ele>291</ele>
        <time>2017-07-04T15:05:19Z</time>
      </trkpt>
      <trkpt lat="45.99609" lon="4.89631">
        <ele>291</ele>
        <time>2017-07-04T15:05:20Z</time>
      </trkpt>
      <trkpt lat="45.99609" lon="4.89638">
        <ele>291</ele>
        <time>2017-07-04T15:05:21Z</time>
      </trkpt>
      <trkpt lat="45.99609" lon="4.89645">
        <ele>291</ele>
        <time>2017-07-04T15:05:22Z</time>
      </trkpt>
      <trkpt lat="45.99609" lon="4.89657">
        <ele>291</ele>
        <time>2017-07-04T15:05:24Z</time>
      </trkpt>
      <trkpt lat="45.9961" lon="4.89663">
        <ele>291</ele>
        <time>2017-07-04T15:05:25Z</time>
      </trkpt>
      <trkpt lat="45.99609" lon="4.8967">
        <ele>291</ele>
        <time>2017-07-04T15:05:26Z</time>
      </trkpt>
      <trkpt lat="45.99609" lon="4.89677">
        <ele>291</ele>
        <time>2017-07-04T15:05:27Z</time>
      </trkpt>
      <trkpt lat="45.99608" lon="4.8969">
        <ele>291</ele>
        <time>2017-07-04T15:05:29Z</time>
      </trkpt>
      <trkpt lat="45.99608" lon="4.89697">
        <ele>291</ele>
        <time>2017-07-04T15:05:30Z</time>
      </trkpt>
      <trkpt lat="45.99607" lon="4.89704">
        <ele>291</ele>
        <time>2017-07-04T15:05:31Z</time>
      </trkpt>
      <trkpt lat="45.99607" lon="4.89711">
        <ele>292</ele>
        <time>2017-07-04T15:05:32Z</time>
      </trkpt>
      <trkpt lat="45.99606" lon="4.89723">
        <ele>292</ele>
        <time>2017-07-04T15:05:34Z</time>
      </trkpt>
      <trkpt lat="45.99605" lon="4.89727">
        <ele>292</ele>
        <time>2017-07-04T15:05:35Z</time>
      </trkpt>
      <trkpt lat="45.99605" lon="4.89738">
        <ele>292</ele>
        <time>2017-07-04T15:05:37Z</time>
      </trkpt>
      <trkpt lat="45.99605" lon="4.89743">
        <ele>292</ele>
        <time>2017-07-04T15:05:38Z</time>
      </trkpt>
      <trkpt lat="45.99604" lon="4.89753">
        <ele>292</ele>
        <time>2017-07-04T15:05:40Z</time>
      </trkpt>
      <trkpt lat="45.99604" lon="4.89759">
        <ele>292</ele>
        <time>2017-07-04T15:05:41Z</time>
      </trkpt>
      <trkpt lat="45.99603" lon="4.89769">
        <ele>292</ele>
        <time>2017-07-04T15:05:43Z</time>
      </trkpt>
      <trkpt lat="45.99603" lon="4.89774">
        <ele>292</ele>
        <time>2017-07-04T15:05:44Z</time>
      </trkpt>
      <trkpt lat="45.99603" lon="4.89787">
        <ele>292</ele>
        <time>2017-07-04T15:05:46Z</time>
      </trkpt>
      <trkpt lat="45.99603" lon="4.89792">
        <ele>292</ele>
        <time>2017-07-04T15:05:47Z</time>
      </trkpt>
      <trkpt lat="45.99603" lon="4.89803">
        <ele>292</ele>
        <time>2017-07-04T15:05:49Z</time>
      </trkpt>
      <trkpt lat="45.99603" lon="4.89808">
        <ele>292</ele>
        <time>2017-07-04T15:05:50Z</time>
      </trkpt>
      <trkpt lat="45.99603" lon="4.89816">
        <ele>292</ele>
        <time>2017-07-04T15:05:52Z</time>
      </trkpt>
      <trkpt lat="45.99603" lon="4.89821">
        <ele>292</ele>
        <time>2017-07-04T15:05:53Z</time>
      </trkpt>
      <trkpt lat="45.99603" lon="4.89832">
        <ele>293</ele>
        <time>2017-07-04T15:05:55Z</time>
      </trkpt>
      <trkpt lat="45.99602" lon="4.89839">
        <ele>293</ele>
        <time>2017-07-04T15:05:56Z</time>
      </trkpt>
      <trkpt lat="45.996" lon="4.89851">
        <ele>293</ele>
        <time>2017-07-04T15:05:57Z</time>
      </trkpt>
      <trkpt lat="45.996" lon="4.89861">
        <ele>293</ele>
        <time>2017-07-04T15:05:58Z</time>
      </trkpt>
      <trkpt lat="45.996" lon="4.89869">
        <ele>293</ele>
        <time>2017-07-04T15:05:59Z</time>
      </trkpt>
      <trkpt lat="45.996" lon="4.89877">
        <ele>292</ele>
        <time>2017-07-04T15:06:00Z</time>
      </trkpt>
      <trkpt lat="45.996" lon="4.89885">
        <ele>292</ele>
        <time>2017-07-04T15:06:01Z</time>
      </trkpt>
      <trkpt lat="45.996" lon="4.89893">
        <ele>292</ele>
        <time>2017-07-04T15:06:02Z</time>
      </trkpt>
      <trkpt lat="45.99599" lon="4.899">
        <ele>292</ele>
        <time>2017-07-04T15:06:03Z</time>
      </trkpt>
      <trkpt lat="45.99599" lon="4.89908">
        <ele>292</ele>
        <time>2017-07-04T15:06:04Z</time>
      </trkpt>
      <trkpt lat="45.996" lon="4.8992">
        <ele>293</ele>
        <time>2017-07-04T15:06:06Z</time>
      </trkpt>
      <trkpt lat="45.99601" lon="4.89926">
        <ele>293</ele>
        <time>2017-07-04T15:06:07Z</time>
      </trkpt>
      <trkpt lat="45.99602" lon="4.89933">
        <ele>293</ele>
        <time>2017-07-04T15:06:08Z</time>
      </trkpt>
      <trkpt lat="45.99602" lon="4.8994">
        <ele>293</ele>
        <time>2017-07-04T15:06:09Z</time>
      </trkpt>
      <trkpt lat="45.99602" lon="4.89947">
        <ele>294</ele>
        <time>2017-07-04T15:06:10Z</time>
      </trkpt>
      <trkpt lat="45.99603" lon="4.89953">
        <ele>294</ele>
        <time>2017-07-04T15:06:11Z</time>
      </trkpt>
      <trkpt lat="45.99604" lon="4.89965">
        <ele>294</ele>
        <time>2017-07-04T15:06:13Z</time>
      </trkpt>
      <trkpt lat="45.99604" lon="4.8997">
        <ele>294</ele>
        <time>2017-07-04T15:06:14Z</time>
      </trkpt>
      <trkpt lat="45.99605" lon="4.89982">
        <ele>294</ele>
        <time>2017-07-04T15:06:16Z</time>
      </trkpt>
      <trkpt lat="45.99606" lon="4.89988">
        <ele>294</ele>
        <time>2017-07-04T15:06:17Z</time>
      </trkpt>
      <trkpt lat="45.99609" lon="4.9">
        <ele>295</ele>
        <time>2017-07-04T15:06:19Z</time>
      </trkpt>
      <trkpt lat="45.9961" lon="4.90006">
        <ele>296</ele>
        <time>2017-07-04T15:06:20Z</time>
      </trkpt>
      <trkpt lat="45.99611" lon="4.90012">
        <ele>296</ele>
        <time>2017-07-04T15:06:21Z</time>
      </trkpt>
      <trkpt lat="45.99612" lon="4.90019">
        <ele>296</ele>
        <time>2017-07-04T15:06:22Z</time>
      </trkpt>
      <trkpt lat="45.99614" lon="4.90025">
        <ele>296</ele>
        <time>2017-07-04T15:06:23Z</time>
      </trkpt>
      <trkpt lat="45.99615" lon="4.90032">
        <ele>296</ele>
        <time>2017-07-04T15:06:24Z</time>
      </trkpt>
      <trkpt lat="45.99617" lon="4.90038">
        <ele>296</ele>
        <time>2017-07-04T15:06:25Z</time>
      </trkpt>
      <trkpt lat="45.9962" lon="4.90044">
        <ele>296</ele>
        <time>2017-07-04T15:06:26Z</time>
      </trkpt>
      <trkpt lat="45.99622" lon="4.9005">
        <ele>297</ele>
        <time>2017-07-04T15:06:27Z</time>
      </trkpt>
      <trkpt lat="45.99624" lon="4.90056">
        <ele>297</ele>
        <time>2017-07-04T15:06:28Z</time>
      </trkpt>
      <trkpt lat="45.99628" lon="4.90065">
        <ele>297</ele>
        <time>2017-07-04T15:06:30Z</time>
      </trkpt>
      <trkpt lat="45.99632" lon="4.9007">
        <ele>297</ele>
        <time>2017-07-04T15:06:31Z</time>
      </trkpt>
      <trkpt lat="45.99635" lon="4.90074">
        <ele>297</ele>
        <time>2017-07-04T15:06:32Z</time>
      </trkpt>
      <trkpt lat="45.99634" lon="4.90084">
        <ele>298</ele>
        <time>2017-07-04T15:06:33Z</time>
      </trkpt>
      <trkpt lat="45.99639" lon="4.90091">
        <ele>299</ele>
        <time>2017-07-04T15:06:35Z</time>
      </trkpt>
      <trkpt lat="45.99641" lon="4.90095">
        <ele>299</ele>
        <time>2017-07-04T15:06:36Z</time>
      </trkpt>
      <trkpt lat="45.99643" lon="4.90105">
        <ele>299</ele>
        <time>2017-07-04T15:06:38Z</time>
      </trkpt>
      <trkpt lat="45.99643" lon="4.90111">
        <ele>299</ele>
        <time>2017-07-04T15:06:39Z</time>
      </trkpt>
      <trkpt lat="45.99645" lon="4.90123">
        <ele>299</ele>
        <time>2017-07-04T15:06:41Z</time>
      </trkpt>
      <trkpt lat="45.99647" lon="4.90129">
        <ele>299</ele>
        <time>2017-07-04T15:06:42Z</time>
      </trkpt>
      <trkpt lat="45.99651" lon="4.90138">
        <ele>299</ele>
        <time>2017-07-04T15:06:44Z</time>
      </trkpt>
      <trkpt lat="45.99652" lon="4.90142">
        <ele>300</ele>
        <time>2017-07-04T15:06:45Z</time>
      </trkpt>
      <trkpt lat="45.99654" lon="4.90152">
        <ele>300</ele>
        <time>2017-07-04T15:06:47Z</time>
      </trkpt>
      <trkpt lat="45.99656" lon="4.90158">
        <ele>300</ele>
        <time>2017-07-04T15:06:48Z</time>
      </trkpt>
      <trkpt lat="45.9966" lon="4.90169">
        <ele>301</ele>
        <time>2017-07-04T15:06:50Z</time>
      </trkpt>
      <trkpt lat="45.99662" lon="4.90173">
        <ele>301</ele>
        <time>2017-07-04T15:06:51Z</time>
      </trkpt>
      <trkpt lat="45.99665" lon="4.90182">
        <ele>301</ele>
        <time>2017-07-04T15:06:53Z</time>
      </trkpt>
      <trkpt lat="45.99666" lon="4.90187">
        <ele>301</ele>
        <time>2017-07-04T15:06:54Z</time>
      </trkpt>
      <trkpt lat="45.99668" lon="4.90196">
        <ele>303</ele>
        <time>2017-07-04T15:06:56Z</time>
      </trkpt>
      <trkpt lat="45.99669" lon="4.902">
        <ele>303</ele>
        <time>2017-07-04T15:06:57Z</time>
      </trkpt>
      <trkpt lat="45.99672" lon="4.90211">
        <ele>303</ele>
        <time>2017-07-04T15:07:00Z</time>
      </trkpt>
      <trkpt lat="45.99673" lon="4.90215">
        <ele>303</ele>
        <time>2017-07-04T15:07:01Z</time>
      </trkpt>
      <trkpt lat="45.99675" lon="4.90224">
        <ele>304</ele>
        <time>2017-07-04T15:07:03Z</time>
      </trkpt>
      <trkpt lat="45.99676" lon="4.90229">
        <ele>304</ele>
        <time>2017-07-04T15:07:04Z</time>
      </trkpt>
      <trkpt lat="45.99678" lon="4.90241">
        <ele>304</ele>
        <time>2017-07-04T15:07:07Z</time>
      </trkpt>
      <trkpt lat="45.99679" lon="4.90245">
        <ele>304</ele>
        <time>2017-07-04T15:07:08Z</time>
      </trkpt>
      <trkpt lat="45.9968" lon="4.90257">
        <ele>304</ele>
        <time>2017-07-04T15:07:11Z</time>
      </trkpt>
      <trkpt lat="45.9968" lon="4.90261">
        <ele>304</ele>
        <time>2017-07-04T15:07:12Z</time>
      </trkpt>
      <trkpt lat="45.99679" lon="4.90273">
        <ele>305</ele>
        <time>2017-07-04T15:07:15Z</time>
      </trkpt>
      <trkpt lat="45.99678" lon="4.90278">
        <ele>304</ele>
        <time>2017-07-04T15:07:16Z</time>
      </trkpt>
      <trkpt lat="45.99677" lon="4.90287">
        <ele>304</ele>
        <time>2017-07-04T15:07:18Z</time>
      </trkpt>
      <trkpt lat="45.99677" lon="4.90292">
        <ele>304</ele>
        <time>2017-07-04T15:07:19Z</time>
      </trkpt>
      <trkpt lat="45.99675" lon="4.90301">
        <ele>304</ele>
        <time>2017-07-04T15:07:21Z</time>
      </trkpt>
      <trkpt lat="45.99674" lon="4.90306">
        <ele>304</ele>
        <time>2017-07-04T15:07:22Z</time>
      </trkpt>
      <trkpt lat="45.99672" lon="4.90317">
        <ele>303</ele>
        <time>2017-07-04T15:07:25Z</time>
      </trkpt>
      <trkpt lat="45.99671" lon="4.90319">
        <ele>303</ele>
        <time>2017-07-04T15:07:26Z</time>
      </trkpt>
      <trkpt lat="45.99665" lon="4.90322">
        <ele>302</ele>
        <time>2017-07-04T15:07:29Z</time>
      </trkpt>
      <trkpt lat="45.9966" lon="4.90323">
        <ele>302</ele>
        <time>2017-07-04T15:07:30Z</time>
      </trkpt>
      <trkpt lat="45.99654" lon="4.90327">
        <ele>302</ele>
        <time>2017-07-04T15:07:32Z</time>
      </trkpt>
      <trkpt lat="45.9965" lon="4.90326">
        <ele>302</ele>
        <time>2017-07-04T15:07:33Z</time>
      </trkpt>
      <trkpt lat="45.99642" lon="4.90325">
        <ele>302</ele>
        <time>2017-07-04T15:07:35Z</time>
      </trkpt>
      <trkpt lat="45.99638" lon="4.90325">
        <ele>302</ele>
        <time>2017-07-04T15:07:36Z</time>
      </trkpt>
      <trkpt lat="45.99629" lon="4.90326">
        <ele>302</ele>
        <time>2017-07-04T15:07:38Z</time>
      </trkpt>
      <trkpt lat="45.99625" lon="4.90326">
        <ele>302</ele>
        <time>2017-07-04T15:07:39Z</time>
      </trkpt>
      <trkpt lat="45.99621" lon="4.90324">
        <ele>302</ele>
        <time>2017-07-04T15:07:40Z</time>
      </trkpt>
      <trkpt lat="45.99616" lon="4.90323">
        <ele>302</ele>
        <time>2017-07-04T15:07:41Z</time>
      </trkpt>
      <trkpt lat="45.9961" lon="4.90322">
        <ele>301</ele>
        <time>2017-07-04T15:07:42Z</time>
      </trkpt>
      <trkpt lat="45.99604" lon="4.90322">
        <ele>301</ele>
        <time>2017-07-04T15:07:43Z</time>
      </trkpt>
      <trkpt lat="45.99599" lon="4.90321">
        <ele>301</ele>
        <time>2017-07-04T15:07:44Z</time>
      </trkpt>
      <trkpt lat="45.99593" lon="4.90321">
        <ele>301</ele>
        <time>2017-07-04T15:07:45Z</time>
      </trkpt>
      <trkpt lat="45.99588" lon="4.9032">
        <ele>301</ele>
        <time>2017-07-04T15:07:46Z</time>
      </trkpt>
      <trkpt lat="45.99583" lon="4.9032">
        <ele>301</ele>
        <time>2017-07-04T15:07:47Z</time>
      </trkpt>
      <trkpt lat="45.99577" lon="4.90319">
        <ele>301</ele>
        <time>2017-07-04T15:07:48Z</time>
      </trkpt>
      <trkpt lat="45.99572" lon="4.90318">
        <ele>301</ele>
        <time>2017-07-04T15:07:49Z</time>
      </trkpt>
      <trkpt lat="45.99567" lon="4.90317">
        <ele>301</ele>
        <time>2017-07-04T15:07:50Z</time>
      </trkpt>
      <trkpt lat="45.99562" lon="4.90316">
        <ele>301</ele>
        <time>2017-07-04T15:07:51Z</time>
      </trkpt>
      <trkpt lat="45.99557" lon="4.90316">
        <ele>300</ele>
        <time>2017-07-04T15:07:52Z</time>
      </trkpt>
      <trkpt lat="45.99551" lon="4.90316">
        <ele>300</ele>
        <time>2017-07-04T15:07:53Z</time>
      </trkpt>
      <trkpt lat="45.99545" lon="4.90315">
        <ele>300</ele>
        <time>2017-07-04T15:07:54Z</time>
      </trkpt>
      <trkpt lat="45.9954" lon="4.90314">
        <ele>300</ele>
        <time>2017-07-04T15:07:55Z</time>
      </trkpt>
      <trkpt lat="45.99534" lon="4.90314">
        <ele>300</ele>
        <time>2017-07-04T15:07:56Z</time>
      </trkpt>
      <trkpt lat="45.99528" lon="4.90312">
        <ele>300</ele>
        <time>2017-07-04T15:07:57Z</time>
      </trkpt>
      <trkpt lat="45.99523" lon="4.90311">
        <ele>300</ele>
        <time>2017-07-04T15:07:58Z</time>
      </trkpt>
      <trkpt lat="45.99517" lon="4.90311">
        <ele>300</ele>
        <time>2017-07-04T15:07:59Z</time>
      </trkpt>
      <trkpt lat="45.99512" lon="4.90311">
        <ele>300</ele>
        <time>2017-07-04T15:08:00Z</time>
      </trkpt>
      <trkpt lat="45.99507" lon="4.9031">
        <ele>300</ele>
        <time>2017-07-04T15:08:01Z</time>
      </trkpt>
      <trkpt lat="45.99501" lon="4.9031">
        <ele>300</ele>
        <time>2017-07-04T15:08:02Z</time>
      </trkpt>
      <trkpt lat="45.99495" lon="4.9031">
        <ele>300</ele>
        <time>2017-07-04T15:08:03Z</time>
      </trkpt>
      <trkpt lat="45.99489" lon="4.9031">
        <ele>300</ele>
        <time>2017-07-04T15:08:04Z</time>
      </trkpt>
      <trkpt lat="45.99484" lon="4.9031">
        <ele>300</ele>
        <time>2017-07-04T15:08:05Z</time>
      </trkpt>
      <trkpt lat="45.99479" lon="4.90308">
        <ele>300</ele>
        <time>2017-07-04T15:08:06Z</time>
      </trkpt>
      <trkpt lat="45.99474" lon="4.90307">
        <ele>300</ele>
        <time>2017-07-04T15:08:07Z</time>
      </trkpt>
      <trkpt lat="45.99469" lon="4.90306">
        <ele>300</ele>
        <time>2017-07-04T15:08:08Z</time>
      </trkpt>
      <trkpt lat="45.99464" lon="4.90307">
        <ele>300</ele>
        <time>2017-07-04T15:08:09Z</time>
      </trkpt>
      <trkpt lat="45.9946" lon="4.90306">
        <ele>300</ele>
        <time>2017-07-04T15:08:10Z</time>
      </trkpt>
      <trkpt lat="45.99455" lon="4.90305">
        <ele>300</ele>
        <time>2017-07-04T15:08:11Z</time>
      </trkpt>
      <trkpt lat="45.9945" lon="4.90303">
        <ele>300</ele>
        <time>2017-07-04T15:08:12Z</time>
      </trkpt>
      <trkpt lat="45.99445" lon="4.90301">
        <ele>300</ele>
        <time>2017-07-04T15:08:13Z</time>
      </trkpt>
      <trkpt lat="45.99439" lon="4.903">
        <ele>300</ele>
        <time>2017-07-04T15:08:14Z</time>
      </trkpt>
      <trkpt lat="45.99434" lon="4.90298">
        <ele>300</ele>
        <time>2017-07-04T15:08:15Z</time>
      </trkpt>
      <trkpt lat="45.99429" lon="4.90297">
        <ele>300</ele>
        <time>2017-07-04T15:08:16Z</time>
      </trkpt>
      <trkpt lat="45.99424" lon="4.90296">
        <ele>300</ele>
        <time>2017-07-04T15:08:17Z</time>
      </trkpt>
      <trkpt lat="45.99419" lon="4.90295">
        <ele>300</ele>
        <time>2017-07-04T15:08:18Z</time>
      </trkpt>
      <trkpt lat="45.99414" lon="4.90294">
        <ele>300</ele>
        <time>2017-07-04T15:08:19Z</time>
      </trkpt>
      <trkpt lat="45.99409" lon="4.90294">
        <ele>300</ele>
        <time>2017-07-04T15:08:20Z</time>
      </trkpt>
      <trkpt lat="45.99404" lon="4.90294">
        <ele>300</ele>
        <time>2017-07-04T15:08:21Z</time>
      </trkpt>
      <trkpt lat="45.99399" lon="4.90293">
        <ele>300</ele>
        <time>2017-07-04T15:08:22Z</time>
      </trkpt>
      <trkpt lat="45.99394" lon="4.90293">
        <ele>300</ele>
        <time>2017-07-04T15:08:23Z</time>
      </trkpt>
      <trkpt lat="45.99386" lon="4.90292">
        <ele>300</ele>
        <time>2017-07-04T15:08:25Z</time>
      </trkpt>
      <trkpt lat="45.99381" lon="4.90292">
        <ele>299</ele>
        <time>2017-07-04T15:08:26Z</time>
      </trkpt>
      <trkpt lat="45.99377" lon="4.90291">
        <ele>299</ele>
        <time>2017-07-04T15:08:27Z</time>
      </trkpt>
      <trkpt lat="45.99372" lon="4.9029">
        <ele>299</ele>
        <time>2017-07-04T15:08:28Z</time>
      </trkpt>
      <trkpt lat="45.99366" lon="4.9029">
        <ele>299</ele>
        <time>2017-07-04T15:08:29Z</time>
      </trkpt>
      <trkpt lat="45.9936" lon="4.9029">
        <ele>299</ele>
        <time>2017-07-04T15:08:30Z</time>
      </trkpt>
      <trkpt lat="45.99355" lon="4.90289">
        <ele>299</ele>
        <time>2017-07-04T15:08:31Z</time>
      </trkpt>
      <trkpt lat="45.9935" lon="4.90288">
        <ele>299</ele>
        <time>2017-07-04T15:08:32Z</time>
      </trkpt>
      <trkpt lat="45.99345" lon="4.90287">
        <ele>299</ele>
        <time>2017-07-04T15:08:33Z</time>
      </trkpt>
      <trkpt lat="45.99341" lon="4.90288">
        <ele>299</ele>
        <time>2017-07-04T15:08:34Z</time>
      </trkpt>
      <trkpt lat="45.99332" lon="4.90288">
        <ele>299</ele>
        <time>2017-07-04T15:08:36Z</time>
      </trkpt>
      <trkpt lat="45.99329" lon="4.90286">
        <ele>299</ele>
        <time>2017-07-04T15:08:37Z</time>
      </trkpt>
      <trkpt lat="45.99322" lon="4.90279">
        <ele>299</ele>
        <time>2017-07-04T15:08:39Z</time>
      </trkpt>
      <trkpt lat="45.99319" lon="4.90273">
        <ele>299</ele>
        <time>2017-07-04T15:08:40Z</time>
      </trkpt>
      <trkpt lat="45.99316" lon="4.90267">
        <ele>299</ele>
        <time>2017-07-04T15:08:41Z</time>
      </trkpt>
      <trkpt lat="45.99313" lon="4.90261">
        <ele>299</ele>
        <time>2017-07-04T15:08:42Z</time>
      </trkpt>
      <trkpt lat="45.9931" lon="4.90254">
        <ele>299</ele>
        <time>2017-07-04T15:08:43Z</time>
      </trkpt>
      <trkpt lat="45.99307" lon="4.90248">
        <ele>298</ele>
        <time>2017-07-04T15:08:44Z</time>
      </trkpt>
      <trkpt lat="45.99303" lon="4.90243">
        <ele>298</ele>
        <time>2017-07-04T15:08:45Z</time>
      </trkpt>
      <trkpt lat="45.99299" lon="4.90237">
        <ele>298</ele>
        <time>2017-07-04T15:08:46Z</time>
      </trkpt>
      <trkpt lat="45.99296" lon="4.90232">
        <ele>298</ele>
        <time>2017-07-04T15:08:47Z</time>
      </trkpt>
      <trkpt lat="45.99293" lon="4.90227">
        <ele>298</ele>
        <time>2017-07-04T15:08:48Z</time>
      </trkpt>
      <trkpt lat="45.99289" lon="4.90222">
        <ele>298</ele>
        <time>2017-07-04T15:08:49Z</time>
      </trkpt>
      <trkpt lat="45.99286" lon="4.90217">
        <ele>298</ele>
        <time>2017-07-04T15:08:50Z</time>
      </trkpt>
      <trkpt lat="45.99282" lon="4.90212">
        <ele>298</ele>
        <time>2017-07-04T15:08:51Z</time>
      </trkpt>
      <trkpt lat="45.99278" lon="4.90207">
        <ele>298</ele>
        <time>2017-07-04T15:08:52Z</time>
      </trkpt>
      <trkpt lat="45.99274" lon="4.90202">
        <ele>298</ele>
        <time>2017-07-04T15:08:53Z</time>
      </trkpt>
      <trkpt lat="45.99271" lon="4.90197">
        <ele>298</ele>
        <time>2017-07-04T15:08:54Z</time>
      </trkpt>
      <trkpt lat="45.99268" lon="4.90192">
        <ele>298</ele>
        <time>2017-07-04T15:08:55Z</time>
      </trkpt>
      <trkpt lat="45.99264" lon="4.90187">
        <ele>298</ele>
        <time>2017-07-04T15:08:56Z</time>
      </trkpt>
      <trkpt lat="45.9926" lon="4.90182">
        <ele>298</ele>
        <time>2017-07-04T15:08:57Z</time>
      </trkpt>
      <trkpt lat="45.99255" lon="4.90177">
        <ele>297</ele>
        <time>2017-07-04T15:08:58Z</time>
      </trkpt>
      <trkpt lat="45.99251" lon="4.9017">
        <ele>297</ele>
        <time>2017-07-04T15:08:59Z</time>
      </trkpt>
      <trkpt lat="45.99246" lon="4.90164">
        <ele>297</ele>
        <time>2017-07-04T15:09:00Z</time>
      </trkpt>
      <trkpt lat="45.99242" lon="4.90158">
        <ele>297</ele>
        <time>2017-07-04T15:09:01Z</time>
      </trkpt>
      <trkpt lat="45.99238" lon="4.90153">
        <ele>297</ele>
        <time>2017-07-04T15:09:02Z</time>
      </trkpt>
      <trkpt lat="45.99233" lon="4.90148">
        <ele>297</ele>
        <time>2017-07-04T15:09:03Z</time>
      </trkpt>
      <trkpt lat="45.9923" lon="4.90142">
        <ele>297</ele>
        <time>2017-07-04T15:09:04Z</time>
      </trkpt>
      <trkpt lat="45.99226" lon="4.90136">
        <ele>297</ele>
        <time>2017-07-04T15:09:05Z</time>
      </trkpt>
      <trkpt lat="45.99223" lon="4.90131">
        <ele>297</ele>
        <time>2017-07-04T15:09:06Z</time>
      </trkpt>
      <trkpt lat="45.99219" lon="4.90125">
        <ele>297</ele>
        <time>2017-07-04T15:09:07Z</time>
      </trkpt>
      <trkpt lat="45.99215" lon="4.9012">
        <ele>297</ele>
        <time>2017-07-04T15:09:08Z</time>
      </trkpt>
      <trkpt lat="45.99211" lon="4.90115">
        <ele>297</ele>
        <time>2017-07-04T15:09:09Z</time>
      </trkpt>
      <trkpt lat="45.99207" lon="4.90109">
        <ele>297</ele>
        <time>2017-07-04T15:09:10Z</time>
      </trkpt>
      <trkpt lat="45.99203" lon="4.90105">
        <ele>297</ele>
        <time>2017-07-04T15:09:11Z</time>
      </trkpt>
      <trkpt lat="45.99199" lon="4.90101">
        <ele>297</ele>
        <time>2017-07-04T15:09:12Z</time>
      </trkpt>
      <trkpt lat="45.99195" lon="4.90098">
        <ele>297</ele>
        <time>2017-07-04T15:09:13Z</time>
      </trkpt>
      <trkpt lat="45.99191" lon="4.90093">
        <ele>297</ele>
        <time>2017-07-04T15:09:14Z</time>
      </trkpt>
      <trkpt lat="45.99188" lon="4.90089">
        <ele>297</ele>
        <time>2017-07-04T15:09:15Z</time>
      </trkpt>
      <trkpt lat="45.99183" lon="4.90083">
        <ele>297</ele>
        <time>2017-07-04T15:09:16Z</time>
      </trkpt>
      <trkpt lat="45.99179" lon="4.90078">
        <ele>297</ele>
        <time>2017-07-04T15:09:17Z</time>
      </trkpt>
      <trkpt lat="45.99175" lon="4.90073">
        <ele>297</ele>
        <time>2017-07-04T15:09:18Z</time>
      </trkpt>
      <trkpt lat="45.9917" lon="4.90067">
        <ele>297</ele>
        <time>2017-07-04T15:09:19Z</time>
      </trkpt>
      <trkpt lat="45.99166" lon="4.90061">
        <ele>297</ele>
        <time>2017-07-04T15:09:20Z</time>
      </trkpt>
      <trkpt lat="45.99161" lon="4.90055">
        <ele>297</ele>
        <time>2017-07-04T15:09:21Z</time>
      </trkpt>
      <trkpt lat="45.99157" lon="4.9005">
        <ele>297</ele>
        <time>2017-07-04T15:09:22Z</time>
      </trkpt>
      <trkpt lat="45.99153" lon="4.90045">
        <ele>297</ele>
        <time>2017-07-04T15:09:23Z</time>
      </trkpt>
      <trkpt lat="45.99148" lon="4.90039">
        <ele>297</ele>
        <time>2017-07-04T15:09:24Z</time>
      </trkpt>
      <trkpt lat="45.99144" lon="4.90034">
        <ele>297</ele>
        <time>2017-07-04T15:09:25Z</time>
      </trkpt>
      <trkpt lat="45.99141" lon="4.90029">
        <ele>297</ele>
        <time>2017-07-04T15:09:26Z</time>
      </trkpt>
      <trkpt lat="45.99136" lon="4.90024">
        <ele>297</ele>
        <time>2017-07-04T15:09:27Z</time>
      </trkpt>
      <trkpt lat="45.99133" lon="4.90019">
        <ele>296</ele>
        <time>2017-07-04T15:09:28Z</time>
      </trkpt>
      <trkpt lat="45.99129" lon="4.90013">
        <ele>296</ele>
        <time>2017-07-04T15:09:29Z</time>
      </trkpt>
      <trkpt lat="45.99124" lon="4.90008">
        <ele>296</ele>
        <time>2017-07-04T15:09:30Z</time>
      </trkpt>
      <trkpt lat="45.9912" lon="4.90003">
        <ele>296</ele>
        <time>2017-07-04T15:09:31Z</time>
      </trkpt>
      <trkpt lat="45.99116" lon="4.89998">
        <ele>295</ele>
        <time>2017-07-04T15:09:32Z</time>
      </trkpt>
      <trkpt lat="45.99112" lon="4.89993">
        <ele>295</ele>
        <time>2017-07-04T15:09:33Z</time>
      </trkpt>
      <trkpt lat="45.99107" lon="4.89989">
        <ele>295</ele>
        <time>2017-07-04T15:09:34Z</time>
      </trkpt>
      <trkpt lat="45.99102" lon="4.89985">
        <ele>295</ele>
        <time>2017-07-04T15:09:35Z</time>
      </trkpt>
      <trkpt lat="45.99099" lon="4.8998">
        <ele>295</ele>
        <time>2017-07-04T15:09:36Z</time>
      </trkpt>
      <trkpt lat="45.99095" lon="4.89975">
        <ele>295</ele>
        <time>2017-07-04T15:09:37Z</time>
      </trkpt>
      <trkpt lat="45.99092" lon="4.8997">
        <ele>295</ele>
        <time>2017-07-04T15:09:38Z</time>
      </trkpt>
      <trkpt lat="45.99088" lon="4.89963">
        <ele>295</ele>
        <time>2017-07-04T15:09:39Z</time>
      </trkpt>
      <trkpt lat="45.99084" lon="4.89957">
        <ele>295</ele>
        <time>2017-07-04T15:09:40Z</time>
      </trkpt>
      <trkpt lat="45.99081" lon="4.89951">
        <ele>294</ele>
        <time>2017-07-04T15:09:41Z</time>
      </trkpt>
      <trkpt lat="45.99078" lon="4.89945">
        <ele>294</ele>
        <time>2017-07-04T15:09:42Z</time>
      </trkpt>
      <trkpt lat="45.99075" lon="4.89939">
        <ele>294</ele>
        <time>2017-07-04T15:09:43Z</time>
      </trkpt>
      <trkpt lat="45.99071" lon="4.89933">
        <ele>294</ele>
        <time>2017-07-04T15:09:44Z</time>
      </trkpt>
      <trkpt lat="45.99068" lon="4.89928">
        <ele>294</ele>
        <time>2017-07-04T15:09:45Z</time>
      </trkpt>
      <trkpt lat="45.99064" lon="4.89923">
        <ele>294</ele>
        <time>2017-07-04T15:09:46Z</time>
      </trkpt>
      <trkpt lat="45.99061" lon="4.89918">
        <ele>294</ele>
        <time>2017-07-04T15:09:47Z</time>
      </trkpt>
      <trkpt lat="45.99057" lon="4.89912">
        <ele>293</ele>
        <time>2017-07-04T15:09:48Z</time>
      </trkpt>
      <trkpt lat="45.99054" lon="4.89907">
        <ele>293</ele>
        <time>2017-07-04T15:09:49Z</time>
      </trkpt>
      <trkpt lat="45.9905" lon="4.89902">
        <ele>293</ele>
        <time>2017-07-04T15:09:50Z</time>
      </trkpt>
      <trkpt lat="45.99046" lon="4.89897">
        <ele>293</ele>
        <time>2017-07-04T15:09:51Z</time>
      </trkpt>
      <trkpt lat="45.99042" lon="4.89891">
        <ele>293</ele>
        <time>2017-07-04T15:09:52Z</time>
      </trkpt>
      <trkpt lat="45.99038" lon="4.89885">
        <ele>293</ele>
        <time>2017-07-04T15:09:53Z</time>
      </trkpt>
      <trkpt lat="45.99035" lon="4.8988">
        <ele>293</ele>
        <time>2017-07-04T15:09:54Z</time>
      </trkpt>
      <trkpt lat="45.99031" lon="4.89875">
        <ele>293</ele>
        <time>2017-07-04T15:09:55Z</time>
      </trkpt>
      <trkpt lat="45.99027" lon="4.89871">
        <ele>293</ele>
        <time>2017-07-04T15:09:56Z</time>
      </trkpt>
      <trkpt lat="45.99023" lon="4.89866">
        <ele>293</ele>
        <time>2017-07-04T15:09:57Z</time>
      </trkpt>
      <trkpt lat="45.99019" lon="4.89861">
        <ele>293</ele>
        <time>2017-07-04T15:09:58Z</time>
      </trkpt>
      <trkpt lat="45.99015" lon="4.89856">
        <ele>293</ele>
        <time>2017-07-04T15:09:59Z</time>
      </trkpt>
      <trkpt lat="45.99012" lon="4.8985">
        <ele>293</ele>
        <time>2017-07-04T15:10:00Z</time>
      </trkpt>
      <trkpt lat="45.99008" lon="4.89844">
        <ele>293</ele>
        <time>2017-07-04T15:10:01Z</time>
      </trkpt>
      <trkpt lat="45.99004" lon="4.89839">
        <ele>293</ele>
        <time>2017-07-04T15:10:02Z</time>
      </trkpt>
      <trkpt lat="45.99" lon="4.89834">
        <ele>293</ele>
        <time>2017-07-04T15:10:03Z</time>
      </trkpt>
      <trkpt lat="45.98996" lon="4.89829">
        <ele>293</ele>
        <time>2017-07-04T15:10:04Z</time>
      </trkpt>
      <trkpt lat="45.98993" lon="4.89824">
        <ele>293</ele>
        <time>2017-07-04T15:10:05Z</time>
      </trkpt>
      <trkpt lat="45.98989" lon="4.89819">
        <ele>293</ele>
        <time>2017-07-04T15:10:06Z</time>
      </trkpt>
      <trkpt lat="45.98985" lon="4.89814">
        <ele>293</ele>
        <time>2017-07-04T15:10:07Z</time>
      </trkpt>
      <trkpt lat="45.98981" lon="4.89809">
        <ele>293</ele>
        <time>2017-07-04T15:10:08Z</time>
      </trkpt>
      <trkpt lat="45.98977" lon="4.89805">
        <ele>293</ele>
        <time>2017-07-04T15:10:09Z</time>
      </trkpt>
      <trkpt lat="45.98973" lon="4.89801">
        <ele>293</ele>
        <time>2017-07-04T15:10:10Z</time>
      </trkpt>
      <trkpt lat="45.98968" lon="4.89797">
        <ele>293</ele>
        <time>2017-07-04T15:10:11Z</time>
      </trkpt>
      <trkpt lat="45.98964" lon="4.89792">
        <ele>293</ele>
        <time>2017-07-04T15:10:12Z</time>
      </trkpt>
      <trkpt lat="45.98958" lon="4.89788">
        <ele>293</ele>
        <time>2017-07-04T15:10:13Z</time>
      </trkpt>
      <trkpt lat="45.98953" lon="4.89784">
        <ele>293</ele>
        <time>2017-07-04T15:10:14Z</time>
      </trkpt>
      <trkpt lat="45.98947" lon="4.8978">
        <ele>293</ele>
        <time>2017-07-04T15:10:15Z</time>
      </trkpt>
      <trkpt lat="45.98942" lon="4.89777">
        <ele>293</ele>
        <time>2017-07-04T15:10:16Z</time>
      </trkpt>
      <trkpt lat="45.98937" lon="4.89773">
        <ele>293</ele>
        <time>2017-07-04T15:10:17Z</time>
      </trkpt>
      <trkpt lat="45.98932" lon="4.8977">
        <ele>293</ele>
        <time>2017-07-04T15:10:18Z</time>
      </trkpt>
      <trkpt lat="45.98928" lon="4.89767">
        <ele>293</ele>
        <time>2017-07-04T15:10:19Z</time>
      </trkpt>
      <trkpt lat="45.98923" lon="4.89764">
        <ele>293</ele>
        <time>2017-07-04T15:10:20Z</time>
      </trkpt>
      <trkpt lat="45.98918" lon="4.89762">
        <ele>293</ele>
        <time>2017-07-04T15:10:21Z</time>
      </trkpt>
      <trkpt lat="45.98913" lon="4.89759">
        <ele>293</ele>
        <time>2017-07-04T15:10:22Z</time>
      </trkpt>
      <trkpt lat="45.98909" lon="4.89755">
        <ele>293</ele>
        <time>2017-07-04T15:10:23Z</time>
      </trkpt>
      <trkpt lat="45.98903" lon="4.89752">
        <ele>293</ele>
        <time>2017-07-04T15:10:24Z</time>
      </trkpt>
      <trkpt lat="45.98899" lon="4.89749">
        <ele>293</ele>
        <time>2017-07-04T15:10:25Z</time>
      </trkpt>
      <trkpt lat="45.98894" lon="4.89745">
        <ele>293</ele>
        <time>2017-07-04T15:10:26Z</time>
      </trkpt>
      <trkpt lat="45.98889" lon="4.89742">
        <ele>293</ele>
        <time>2017-07-04T15:10:27Z</time>
      </trkpt>
      <trkpt lat="45.98885" lon="4.89739">
        <ele>293</ele>
        <time>2017-07-04T15:10:28Z</time>
      </trkpt>
      <trkpt lat="45.9888" lon="4.89735">
        <ele>293</ele>
        <time>2017-07-04T15:10:29Z</time>
      </trkpt>
      <trkpt lat="45.98875" lon="4.89732">
        <ele>293</ele>
        <time>2017-07-04T15:10:30Z</time>
      </trkpt>
      <trkpt lat="45.9887" lon="4.89729">
        <ele>293</ele>
        <time>2017-07-04T15:10:31Z</time>
      </trkpt>
      <trkpt lat="45.98866" lon="4.89725">
        <ele>293</ele>
        <time>2017-07-04T15:10:32Z</time>
      </trkpt>
      <trkpt lat="45.98862" lon="4.89721">
        <ele>293</ele>
        <time>2017-07-04T15:10:33Z</time>
      </trkpt>
      <trkpt lat="45.98857" lon="4.89717">
        <ele>293</ele>
        <time>2017-07-04T15:10:34Z</time>
      </trkpt>
      <trkpt lat="45.98852" lon="4.89713">
        <ele>293</ele>
        <time>2017-07-04T15:10:35Z</time>
      </trkpt>
      <trkpt lat="45.98848" lon="4.89708">
        <ele>292</ele>
        <time>2017-07-04T15:10:36Z</time>
      </trkpt>
      <trkpt lat="45.98841" lon="4.89705">
        <ele>292</ele>
        <time>2017-07-04T15:10:37Z</time>
      </trkpt>
      <trkpt lat="45.98835" lon="4.89701">
        <ele>292</ele>
        <time>2017-07-04T15:10:38Z</time>
      </trkpt>
      <trkpt lat="45.9883" lon="4.89697">
        <ele>292</ele>
        <time>2017-07-04T15:10:39Z</time>
      </trkpt>
      <trkpt lat="45.98825" lon="4.89691">
        <ele>292</ele>
        <time>2017-07-04T15:10:40Z</time>
      </trkpt>
      <trkpt lat="45.98821" lon="4.89686">
        <ele>292</ele>
        <time>2017-07-04T15:10:41Z</time>
      </trkpt>
      <trkpt lat="45.98816" lon="4.89681">
        <ele>292</ele>
        <time>2017-07-04T15:10:42Z</time>
      </trkpt>
      <trkpt lat="45.98811" lon="4.89676">
        <ele>292</ele>
        <time>2017-07-04T15:10:43Z</time>
      </trkpt>
      <trkpt lat="45.98806" lon="4.8967">
        <ele>292</ele>
        <time>2017-07-04T15:10:44Z</time>
      </trkpt>
      <trkpt lat="45.98801" lon="4.89665">
        <ele>291</ele>
        <time>2017-07-04T15:10:45Z</time>
      </trkpt>
      <trkpt lat="45.98796" lon="4.8966">
        <ele>291</ele>
        <time>2017-07-04T15:10:46Z</time>
      </trkpt>
      <trkpt lat="45.98792" lon="4.89654">
        <ele>291</ele>
        <time>2017-07-04T15:10:47Z</time>
      </trkpt>
      <trkpt lat="45.98787" lon="4.89648">
        <ele>291</ele>
        <time>2017-07-04T15:10:48Z</time>
      </trkpt>
      <trkpt lat="45.98782" lon="4.89641">
        <ele>291</ele>
        <time>2017-07-04T15:10:49Z</time>
      </trkpt>
      <trkpt lat="45.98777" lon="4.89635">
        <ele>291</ele>
        <time>2017-07-04T15:10:50Z</time>
      </trkpt>
      <trkpt lat="45.98772" lon="4.89628">
        <ele>291</ele>
        <time>2017-07-04T15:10:51Z</time>
      </trkpt>
      <trkpt lat="45.98767" lon="4.89621">
        <ele>291</ele>
        <time>2017-07-04T15:10:52Z</time>
      </trkpt>
      <trkpt lat="45.98761" lon="4.89614">
        <ele>291</ele>
        <time>2017-07-04T15:10:53Z</time>
      </trkpt>
      <trkpt lat="45.98756" lon="4.89607">
        <ele>291</ele>
        <time>2017-07-04T15:10:54Z</time>
      </trkpt>
      <trkpt lat="45.98751" lon="4.896">
        <ele>291</ele>
        <time>2017-07-04T15:10:55Z</time>
      </trkpt>
      <trkpt lat="45.98746" lon="4.89593">
        <ele>291</ele>
        <time>2017-07-04T15:10:56Z</time>
      </trkpt>
      <trkpt lat="45.98741" lon="4.89586">
        <ele>291</ele>
        <time>2017-07-04T15:10:57Z</time>
      </trkpt>
      <trkpt lat="45.98736" lon="4.89578">
        <ele>290</ele>
        <time>2017-07-04T15:10:58Z</time>
      </trkpt>
      <trkpt lat="45.98731" lon="4.8957">
        <ele>290</ele>
        <time>2017-07-04T15:10:59Z</time>
      </trkpt>
      <trkpt lat="45.98726" lon="4.89562">
        <ele>290</ele>
        <time>2017-07-04T15:11:00Z</time>
      </trkpt>
      <trkpt lat="45.98721" lon="4.89555">
        <ele>290</ele>
        <time>2017-07-04T15:11:01Z</time>
      </trkpt>
      <trkpt lat="45.98715" lon="4.89547">
        <ele>290</ele>
        <time>2017-07-04T15:11:02Z</time>
      </trkpt>
      <trkpt lat="45.9871" lon="4.89539">
        <ele>289</ele>
        <time>2017-07-04T15:11:03Z</time>
      </trkpt>
      <trkpt lat="45.98705" lon="4.89532">
        <ele>289</ele>
        <time>2017-07-04T15:11:04Z</time>
      </trkpt>
      <trkpt lat="45.987" lon="4.89526">
        <ele>289</ele>
        <time>2017-07-04T15:11:05Z</time>
      </trkpt>
      <trkpt lat="45.98695" lon="4.89519">
        <ele>289</ele>
        <time>2017-07-04T15:11:06Z</time>
      </trkpt>
      <trkpt lat="45.98688" lon="4.89512">
        <ele>289</ele>
        <time>2017-07-04T15:11:07Z</time>
      </trkpt>
      <trkpt lat="45.98683" lon="4.89505">
        <ele>289</ele>
        <time>2017-07-04T15:11:08Z</time>
      </trkpt>
      <trkpt lat="45.98679" lon="4.89498">
        <ele>289</ele>
        <time>2017-07-04T15:11:09Z</time>
      </trkpt>
      <trkpt lat="45.98675" lon="4.89491">
        <ele>289</ele>
        <time>2017-07-04T15:11:10Z</time>
      </trkpt>
      <trkpt lat="45.98671" lon="4.89484">
        <ele>289</ele>
        <time>2017-07-04T15:11:11Z</time>
      </trkpt>
      <trkpt lat="45.98666" lon="4.89479">
        <ele>290</ele>
        <time>2017-07-04T15:11:12Z</time>
      </trkpt>
      <trkpt lat="45.98661" lon="4.89473">
        <ele>290</ele>
        <time>2017-07-04T15:11:13Z</time>
      </trkpt>
      <trkpt lat="45.98656" lon="4.89467">
        <ele>290</ele>
        <time>2017-07-04T15:11:14Z</time>
      </trkpt>
      <trkpt lat="45.98651" lon="4.89461">
        <ele>290</ele>
        <time>2017-07-04T15:11:15Z</time>
      </trkpt>
      <trkpt lat="45.98646" lon="4.89456">
        <ele>291</ele>
        <time>2017-07-04T15:11:16Z</time>
      </trkpt>
      <trkpt lat="45.9864" lon="4.8945">
        <ele>291</ele>
        <time>2017-07-04T15:11:17Z</time>
      </trkpt>
      <trkpt lat="45.98634" lon="4.89444">
        <ele>291</ele>
        <time>2017-07-04T15:11:18Z</time>
      </trkpt>
      <trkpt lat="45.98629" lon="4.89438">
        <ele>291</ele>
        <time>2017-07-04T15:11:19Z</time>
      </trkpt>
      <trkpt lat="45.98622" lon="4.89432">
        <ele>291</ele>
        <time>2017-07-04T15:11:20Z</time>
      </trkpt>
      <trkpt lat="45.98617" lon="4.89426">
        <ele>292</ele>
        <time>2017-07-04T15:11:21Z</time>
      </trkpt>
      <trkpt lat="45.98612" lon="4.8942">
        <ele>292</ele>
        <time>2017-07-04T15:11:22Z</time>
      </trkpt>
      <trkpt lat="45.98607" lon="4.89414">
        <ele>292</ele>
        <time>2017-07-04T15:11:23Z</time>
      </trkpt>
      <trkpt lat="45.98602" lon="4.89409">
        <ele>292</ele>
        <time>2017-07-04T15:11:24Z</time>
      </trkpt>
      <trkpt lat="45.98597" lon="4.89403">
        <ele>292</ele>
        <time>2017-07-04T15:11:25Z</time>
      </trkpt>
      <trkpt lat="45.98592" lon="4.89399">
        <ele>292</ele>
        <time>2017-07-04T15:11:26Z</time>
      </trkpt>
      <trkpt lat="45.98588" lon="4.89394">
        <ele>292</ele>
        <time>2017-07-04T15:11:27Z</time>
      </trkpt>
      <trkpt lat="45.98584" lon="4.8939">
        <ele>292</ele>
        <time>2017-07-04T15:11:28Z</time>
      </trkpt>
      <trkpt lat="45.98577" lon="4.89383">
        <ele>295</ele>
        <time>2017-07-04T15:11:30Z</time>
      </trkpt>
      <trkpt lat="45.98573" lon="4.89379">
        <ele>295</ele>
        <time>2017-07-04T15:11:31Z</time>
      </trkpt>
      <trkpt lat="45.98569" lon="4.89374">
        <ele>295</ele>
        <time>2017-07-04T15:11:32Z</time>
      </trkpt>
      <trkpt lat="45.98565" lon="4.89369">
        <ele>295</ele>
        <time>2017-07-04T15:11:33Z</time>
      </trkpt>
      <trkpt lat="45.98561" lon="4.89364">
        <ele>295</ele>
        <time>2017-07-04T15:11:34Z</time>
      </trkpt>
      <trkpt lat="45.98556" lon="4.89359">
        <ele>295</ele>
        <time>2017-07-04T15:11:35Z</time>
      </trkpt>
      <trkpt lat="45.98552" lon="4.89353">
        <ele>295</ele>
        <time>2017-07-04T15:11:36Z</time>
      </trkpt>
      <trkpt lat="45.98547" lon="4.89348">
        <ele>295</ele>
        <time>2017-07-04T15:11:37Z</time>
      </trkpt>
      <trkpt lat="45.98543" lon="4.8934">
        <ele>295</ele>
        <time>2017-07-04T15:11:38Z</time>
      </trkpt>
      <trkpt lat="45.98539" lon="4.89334">
        <ele>295</ele>
        <time>2017-07-04T15:11:39Z</time>
      </trkpt>
      <trkpt lat="45.98533" lon="4.89328">
        <ele>293</ele>
        <time>2017-07-04T15:11:40Z</time>
      </trkpt>
      <trkpt lat="45.98529" lon="4.89322">
        <ele>293</ele>
        <time>2017-07-04T15:11:41Z</time>
      </trkpt>
      <trkpt lat="45.98524" lon="4.89316">
        <ele>293</ele>
        <time>2017-07-04T15:11:42Z</time>
      </trkpt>
      <trkpt lat="45.98521" lon="4.8931">
        <ele>293</ele>
        <time>2017-07-04T15:11:43Z</time>
      </trkpt>
      <trkpt lat="45.98518" lon="4.89304">
        <ele>293</ele>
        <time>2017-07-04T15:11:44Z</time>
      </trkpt>
      <trkpt lat="45.98514" lon="4.89299">
        <ele>293</ele>
        <time>2017-07-04T15:11:45Z</time>
      </trkpt>
      <trkpt lat="45.9851" lon="4.89293">
        <ele>292</ele>
        <time>2017-07-04T15:11:46Z</time>
      </trkpt>
      <trkpt lat="45.98507" lon="4.89288">
        <ele>292</ele>
        <time>2017-07-04T15:11:47Z</time>
      </trkpt>
      <trkpt lat="45.98504" lon="4.89282">
        <ele>292</ele>
        <time>2017-07-04T15:11:48Z</time>
      </trkpt>
      <trkpt lat="45.985" lon="4.89276">
        <ele>292</ele>
        <time>2017-07-04T15:11:49Z</time>
      </trkpt>
      <trkpt lat="45.98497" lon="4.8927">
        <ele>291</ele>
        <time>2017-07-04T15:11:50Z</time>
      </trkpt>
      <trkpt lat="45.98494" lon="4.89264">
        <ele>291</ele>
        <time>2017-07-04T15:11:51Z</time>
      </trkpt>
      <trkpt lat="45.98491" lon="4.89258">
        <ele>291</ele>
        <time>2017-07-04T15:11:52Z</time>
      </trkpt>
      <trkpt lat="45.98487" lon="4.89251">
        <ele>291</ele>
        <time>2017-07-04T15:11:53Z</time>
      </trkpt>
      <trkpt lat="45.98483" lon="4.89245">
        <ele>289</ele>
        <time>2017-07-04T15:11:54Z</time>
      </trkpt>
      <trkpt lat="45.9848" lon="4.89238">
        <ele>289</ele>
        <time>2017-07-04T15:11:55Z</time>
      </trkpt>
      <trkpt lat="45.98476" lon="4.89231">
        <ele>289</ele>
        <time>2017-07-04T15:11:56Z</time>
      </trkpt>
      <trkpt lat="45.98472" lon="4.89224">
        <ele>289</ele>
        <time>2017-07-04T15:11:57Z</time>
      </trkpt>
      <trkpt lat="45.98468" lon="4.89217">
        <ele>289</ele>
        <time>2017-07-04T15:11:58Z</time>
      </trkpt>
      <trkpt lat="45.98465" lon="4.89209">
        <ele>289</ele>
        <time>2017-07-04T15:11:59Z</time>
      </trkpt>
      <trkpt lat="45.98462" lon="4.89202">
        <ele>289</ele>
        <time>2017-07-04T15:12:00Z</time>
      </trkpt>
      <trkpt lat="45.98458" lon="4.89195">
        <ele>289</ele>
        <time>2017-07-04T15:12:01Z</time>
      </trkpt>
      <trkpt lat="45.98453" lon="4.89187">
        <ele>289</ele>
        <time>2017-07-04T15:12:02Z</time>
      </trkpt>
      <trkpt lat="45.98449" lon="4.8918">
        <ele>288</ele>
        <time>2017-07-04T15:12:03Z</time>
      </trkpt>
      <trkpt lat="45.98444" lon="4.89172">
        <ele>288</ele>
        <time>2017-07-04T15:12:04Z</time>
      </trkpt>
      <trkpt lat="45.98439" lon="4.89163">
        <ele>288</ele>
        <time>2017-07-04T15:12:05Z</time>
      </trkpt>
      <trkpt lat="45.98433" lon="4.89155">
        <ele>288</ele>
        <time>2017-07-04T15:12:06Z</time>
      </trkpt>
      <trkpt lat="45.98428" lon="4.89147">
        <ele>288</ele>
        <time>2017-07-04T15:12:07Z</time>
      </trkpt>
      <trkpt lat="45.98423" lon="4.89139">
        <ele>288</ele>
        <time>2017-07-04T15:12:08Z</time>
      </trkpt>
      <trkpt lat="45.98417" lon="4.89132">
        <ele>288</ele>
        <time>2017-07-04T15:12:09Z</time>
      </trkpt>
      <trkpt lat="45.98412" lon="4.89124">
        <ele>285</ele>
        <time>2017-07-04T15:12:10Z</time>
      </trkpt>
      <trkpt lat="45.98408" lon="4.89116">
        <ele>285</ele>
        <time>2017-07-04T15:12:11Z</time>
      </trkpt>
      <trkpt lat="45.98404" lon="4.89107">
        <ele>286</ele>
        <time>2017-07-04T15:12:12Z</time>
      </trkpt>
      <trkpt lat="45.98401" lon="4.89099">
        <ele>286</ele>
        <time>2017-07-04T15:12:13Z</time>
      </trkpt>
      <trkpt lat="45.98397" lon="4.8909">
        <ele>286</ele>
        <time>2017-07-04T15:12:14Z</time>
      </trkpt>
      <trkpt lat="45.98394" lon="4.8908">
        <ele>285</ele>
        <time>2017-07-04T15:12:15Z</time>
      </trkpt>
      <trkpt lat="45.9839" lon="4.89069">
        <ele>285</ele>
        <time>2017-07-04T15:12:16Z</time>
      </trkpt>
      <trkpt lat="45.98387" lon="4.89059">
        <ele>285</ele>
        <time>2017-07-04T15:12:17Z</time>
      </trkpt>
      <trkpt lat="45.98385" lon="4.89046">
        <ele>284</ele>
        <time>2017-07-04T15:12:18Z</time>
      </trkpt>
      <trkpt lat="45.98383" lon="4.89034">
        <ele>284</ele>
        <time>2017-07-04T15:12:19Z</time>
      </trkpt>
      <trkpt lat="45.9838" lon="4.89024">
        <ele>284</ele>
        <time>2017-07-04T15:12:20Z</time>
      </trkpt>
      <trkpt lat="45.98378" lon="4.89011">
        <ele>284</ele>
        <time>2017-07-04T15:12:21Z</time>
      </trkpt>
      <trkpt lat="45.98376" lon="4.88998">
        <ele>283</ele>
        <time>2017-07-04T15:12:22Z</time>
      </trkpt>
      <trkpt lat="45.98373" lon="4.88986">
        <ele>283</ele>
        <time>2017-07-04T15:12:23Z</time>
      </trkpt>
      <trkpt lat="45.98371" lon="4.88975">
        <ele>283</ele>
        <time>2017-07-04T15:12:24Z</time>
      </trkpt>
      <trkpt lat="45.98369" lon="4.88964">
        <ele>283</ele>
        <time>2017-07-04T15:12:25Z</time>
      </trkpt>
      <trkpt lat="45.98367" lon="4.88953">
        <ele>282</ele>
        <time>2017-07-04T15:12:26Z</time>
      </trkpt>
      <trkpt lat="45.98365" lon="4.88942">
        <ele>282</ele>
        <time>2017-07-04T15:12:27Z</time>
      </trkpt>
      <trkpt lat="45.98363" lon="4.88931">
        <ele>282</ele>
        <time>2017-07-04T15:12:28Z</time>
      </trkpt>
      <trkpt lat="45.98361" lon="4.8892">
        <ele>282</ele>
        <time>2017-07-04T15:12:29Z</time>
      </trkpt>
      <trkpt lat="45.98359" lon="4.8891">
        <ele>280</ele>
        <time>2017-07-04T15:12:30Z</time>
      </trkpt>
      <trkpt lat="45.98356" lon="4.889">
        <ele>280</ele>
        <time>2017-07-04T15:12:31Z</time>
      </trkpt>
      <trkpt lat="45.98354" lon="4.8889">
        <ele>280</ele>
        <time>2017-07-04T15:12:32Z</time>
      </trkpt>
      <trkpt lat="45.98351" lon="4.88879">
        <ele>280</ele>
        <time>2017-07-04T15:12:33Z</time>
      </trkpt>
      <trkpt lat="45.98349" lon="4.8887">
        <ele>280</ele>
        <time>2017-07-04T15:12:34Z</time>
      </trkpt>
      <trkpt lat="45.98346" lon="4.8886">
        <ele>280</ele>
        <time>2017-07-04T15:12:35Z</time>
      </trkpt>
      <trkpt lat="45.98344" lon="4.88851">
        <ele>279</ele>
        <time>2017-07-04T15:12:36Z</time>
      </trkpt>
      <trkpt lat="45.98341" lon="4.88841">
        <ele>279</ele>
        <time>2017-07-04T15:12:37Z</time>
      </trkpt>
      <trkpt lat="45.98339" lon="4.88832">
        <ele>278</ele>
        <time>2017-07-04T15:12:38Z</time>
      </trkpt>
      <trkpt lat="45.98336" lon="4.88822">
        <ele>278</ele>
        <time>2017-07-04T15:12:39Z</time>
      </trkpt>
      <trkpt lat="45.98332" lon="4.88813">
        <ele>277</ele>
        <time>2017-07-04T15:12:40Z</time>
      </trkpt>
      <trkpt lat="45.98328" lon="4.88804">
        <ele>277</ele>
        <time>2017-07-04T15:12:41Z</time>
      </trkpt>
      <trkpt lat="45.98325" lon="4.88796">
        <ele>277</ele>
        <time>2017-07-04T15:12:42Z</time>
      </trkpt>
      <trkpt lat="45.98322" lon="4.88787">
        <ele>277</ele>
        <time>2017-07-04T15:12:43Z</time>
      </trkpt>
      <trkpt lat="45.9832" lon="4.88778">
        <ele>277</ele>
        <time>2017-07-04T15:12:44Z</time>
      </trkpt>
      <trkpt lat="45.98317" lon="4.88769">
        <ele>277</ele>
        <time>2017-07-04T15:12:45Z</time>
      </trkpt>
      <trkpt lat="45.98315" lon="4.8876">
        <ele>276</ele>
        <time>2017-07-04T15:12:46Z</time>
      </trkpt>
      <trkpt lat="45.98312" lon="4.88751">
        <ele>276</ele>
        <time>2017-07-04T15:12:47Z</time>
      </trkpt>
      <trkpt lat="45.9831" lon="4.88742">
        <ele>276</ele>
        <time>2017-07-04T15:12:48Z</time>
      </trkpt>
      <trkpt lat="45.98307" lon="4.88734">
        <ele>276</ele>
        <time>2017-07-04T15:12:49Z</time>
      </trkpt>
      <trkpt lat="45.98305" lon="4.88726">
        <ele>276</ele>
        <time>2017-07-04T15:12:50Z</time>
      </trkpt>
      <trkpt lat="45.98303" lon="4.88717">
        <ele>276</ele>
        <time>2017-07-04T15:12:51Z</time>
      </trkpt>
      <trkpt lat="45.983" lon="4.88708">
        <ele>276</ele>
        <time>2017-07-04T15:12:52Z</time>
      </trkpt>
      <trkpt lat="45.98298" lon="4.88699">
        <ele>276</ele>
        <time>2017-07-04T15:12:53Z</time>
      </trkpt>
      <trkpt lat="45.98296" lon="4.88689">
        <ele>276</ele>
        <time>2017-07-04T15:12:54Z</time>
      </trkpt>
      <trkpt lat="45.98293" lon="4.8868">
        <ele>276</ele>
        <time>2017-07-04T15:12:55Z</time>
      </trkpt>
      <trkpt lat="45.9829" lon="4.8867">
        <ele>276</ele>
        <time>2017-07-04T15:12:56Z</time>
      </trkpt>
      <trkpt lat="45.98287" lon="4.88661">
        <ele>276</ele>
        <time>2017-07-04T15:12:57Z</time>
      </trkpt>
      <trkpt lat="45.98285" lon="4.88651">
        <ele>276</ele>
        <time>2017-07-04T15:12:58Z</time>
      </trkpt>
      <trkpt lat="45.98282" lon="4.88642">
        <ele>276</ele>
        <time>2017-07-04T15:12:59Z</time>
      </trkpt>
      <trkpt lat="45.98279" lon="4.88633">
        <ele>276</ele>
        <time>2017-07-04T15:13:00Z</time>
      </trkpt>
      <trkpt lat="45.98277" lon="4.88624">
        <ele>276</ele>
        <time>2017-07-04T15:13:01Z</time>
      </trkpt>
      <trkpt lat="45.98275" lon="4.88615">
        <ele>276</ele>
        <time>2017-07-04T15:13:02Z</time>
      </trkpt>
      <trkpt lat="45.98272" lon="4.88606">
        <ele>276</ele>
        <time>2017-07-04T15:13:03Z</time>
      </trkpt>
      <trkpt lat="45.98269" lon="4.88598">
        <ele>276</ele>
        <time>2017-07-04T15:13:04Z</time>
      </trkpt>
      <trkpt lat="45.98266" lon="4.8859">
        <ele>275</ele>
        <time>2017-07-04T15:13:05Z</time>
      </trkpt>
      <trkpt lat="45.98264" lon="4.88583">
        <ele>276</ele>
        <time>2017-07-04T15:13:06Z</time>
      </trkpt>
      <trkpt lat="45.98262" lon="4.88574">
        <ele>276</ele>
        <time>2017-07-04T15:13:07Z</time>
      </trkpt>
      <trkpt lat="45.98261" lon="4.88566">
        <ele>276</ele>
        <time>2017-07-04T15:13:08Z</time>
      </trkpt>
      <trkpt lat="45.98258" lon="4.88558">
        <ele>276</ele>
        <time>2017-07-04T15:13:09Z</time>
      </trkpt>
      <trkpt lat="45.98256" lon="4.88549">
        <ele>276</ele>
        <time>2017-07-04T15:13:10Z</time>
      </trkpt>
      <trkpt lat="45.98255" lon="4.8854">
        <ele>276</ele>
        <time>2017-07-04T15:13:11Z</time>
      </trkpt>
      <trkpt lat="45.98253" lon="4.8853">
        <ele>276</ele>
        <time>2017-07-04T15:13:12Z</time>
      </trkpt>
      <trkpt lat="45.98251" lon="4.88521">
        <ele>277</ele>
        <time>2017-07-04T15:13:13Z</time>
      </trkpt>
      <trkpt lat="45.98249" lon="4.88513">
        <ele>276</ele>
        <time>2017-07-04T15:13:14Z</time>
      </trkpt>
      <trkpt lat="45.98247" lon="4.88505">
        <ele>277</ele>
        <time>2017-07-04T15:13:15Z</time>
      </trkpt>
      <trkpt lat="45.98245" lon="4.88496">
        <ele>277</ele>
        <time>2017-07-04T15:13:16Z</time>
      </trkpt>
      <trkpt lat="45.98243" lon="4.88488">
        <ele>276</ele>
        <time>2017-07-04T15:13:17Z</time>
      </trkpt>
      <trkpt lat="45.9824" lon="4.8848">
        <ele>276</ele>
        <time>2017-07-04T15:13:18Z</time>
      </trkpt>
      <trkpt lat="45.98238" lon="4.88471">
        <ele>276</ele>
        <time>2017-07-04T15:13:19Z</time>
      </trkpt>
      <trkpt lat="45.98237" lon="4.88463">
        <ele>276</ele>
        <time>2017-07-04T15:13:20Z</time>
      </trkpt>
      <trkpt lat="45.98235" lon="4.88455">
        <ele>276</ele>
        <time>2017-07-04T15:13:21Z</time>
      </trkpt>
      <trkpt lat="45.98233" lon="4.88446">
        <ele>276</ele>
        <time>2017-07-04T15:13:22Z</time>
      </trkpt>
      <trkpt lat="45.9823" lon="4.88437">
        <ele>276</ele>
        <time>2017-07-04T15:13:23Z</time>
      </trkpt>
      <trkpt lat="45.98228" lon="4.88427">
        <ele>276</ele>
        <time>2017-07-04T15:13:24Z</time>
      </trkpt>
      <trkpt lat="45.98226" lon="4.88417">
        <ele>275</ele>
        <time>2017-07-04T15:13:25Z</time>
      </trkpt>
      <trkpt lat="45.98224" lon="4.88406">
        <ele>275</ele>
        <time>2017-07-04T15:13:26Z</time>
      </trkpt>
      <trkpt lat="45.98221" lon="4.88396">
        <ele>275</ele>
        <time>2017-07-04T15:13:27Z</time>
      </trkpt>
      <trkpt lat="45.9822" lon="4.88386">
        <ele>275</ele>
        <time>2017-07-04T15:13:28Z</time>
      </trkpt>
      <trkpt lat="45.98218" lon="4.88376">
        <ele>275</ele>
        <time>2017-07-04T15:13:29Z</time>
      </trkpt>
      <trkpt lat="45.98218" lon="4.88366">
        <ele>275</ele>
        <time>2017-07-04T15:13:30Z</time>
      </trkpt>
      <trkpt lat="45.98218" lon="4.88356">
        <ele>275</ele>
        <time>2017-07-04T15:13:31Z</time>
      </trkpt>
      <trkpt lat="45.98218" lon="4.88347">
        <ele>275</ele>
        <time>2017-07-04T15:13:32Z</time>
      </trkpt>
      <trkpt lat="45.98217" lon="4.88337">
        <ele>275</ele>
        <time>2017-07-04T15:13:33Z</time>
      </trkpt>
      <trkpt lat="45.98217" lon="4.88327">
        <ele>274</ele>
        <time>2017-07-04T15:13:34Z</time>
      </trkpt>
      <trkpt lat="45.98216" lon="4.88316">
        <ele>274</ele>
        <time>2017-07-04T15:13:35Z</time>
      </trkpt>
      <trkpt lat="45.98215" lon="4.88306">
        <ele>274</ele>
        <time>2017-07-04T15:13:36Z</time>
      </trkpt>
      <trkpt lat="45.98214" lon="4.88296">
        <ele>274</ele>
        <time>2017-07-04T15:13:37Z</time>
      </trkpt>
      <trkpt lat="45.98212" lon="4.88286">
        <ele>274</ele>
        <time>2017-07-04T15:13:38Z</time>
      </trkpt>
      <trkpt lat="45.9821" lon="4.88275">
        <ele>274</ele>
        <time>2017-07-04T15:13:39Z</time>
      </trkpt>
      <trkpt lat="45.98207" lon="4.88265">
        <ele>274</ele>
        <time>2017-07-04T15:13:40Z</time>
      </trkpt>
      <trkpt lat="45.98204" lon="4.88255">
        <ele>274</ele>
        <time>2017-07-04T15:13:41Z</time>
      </trkpt>
      <trkpt lat="45.98201" lon="4.88243">
        <ele>273</ele>
        <time>2017-07-04T15:13:42Z</time>
      </trkpt>
      <trkpt lat="45.98198" lon="4.88234">
        <ele>273</ele>
        <time>2017-07-04T15:13:43Z</time>
      </trkpt>
      <trkpt lat="45.98196" lon="4.88224">
        <ele>273</ele>
        <time>2017-07-04T15:13:44Z</time>
      </trkpt>
      <trkpt lat="45.98193" lon="4.88215">
        <ele>273</ele>
        <time>2017-07-04T15:13:45Z</time>
      </trkpt>
      <trkpt lat="45.9819" lon="4.88206">
        <ele>273</ele>
        <time>2017-07-04T15:13:46Z</time>
      </trkpt>
      <trkpt lat="45.98187" lon="4.88198">
        <ele>273</ele>
        <time>2017-07-04T15:13:47Z</time>
      </trkpt>
      <trkpt lat="45.98184" lon="4.8819">
        <ele>273</ele>
        <time>2017-07-04T15:13:48Z</time>
      </trkpt>
      <trkpt lat="45.98181" lon="4.88182">
        <ele>273</ele>
        <time>2017-07-04T15:13:49Z</time>
      </trkpt>
      <trkpt lat="45.98179" lon="4.88174">
        <ele>273</ele>
        <time>2017-07-04T15:13:50Z</time>
      </trkpt>
      <trkpt lat="45.98176" lon="4.88166">
        <ele>273</ele>
        <time>2017-07-04T15:13:51Z</time>
      </trkpt>
      <trkpt lat="45.98174" lon="4.88158">
        <ele>273</ele>
        <time>2017-07-04T15:13:52Z</time>
      </trkpt>
      <trkpt lat="45.98172" lon="4.88149">
        <ele>273</ele>
        <time>2017-07-04T15:13:53Z</time>
      </trkpt>
      <trkpt lat="45.9817" lon="4.88142">
        <ele>273</ele>
        <time>2017-07-04T15:13:54Z</time>
      </trkpt>
      <trkpt lat="45.98168" lon="4.88133">
        <ele>273</ele>
        <time>2017-07-04T15:13:55Z</time>
      </trkpt>
      <trkpt lat="45.98166" lon="4.88125">
        <ele>274</ele>
        <time>2017-07-04T15:13:56Z</time>
      </trkpt>
      <trkpt lat="45.98164" lon="4.88117">
        <ele>274</ele>
        <time>2017-07-04T15:13:57Z</time>
      </trkpt>
      <trkpt lat="45.98161" lon="4.88108">
        <ele>274</ele>
        <time>2017-07-04T15:13:58Z</time>
      </trkpt>
      <trkpt lat="45.98158" lon="4.88099">
        <ele>274</ele>
        <time>2017-07-04T15:13:59Z</time>
      </trkpt>
      <trkpt lat="45.98155" lon="4.88091">
        <ele>274</ele>
        <time>2017-07-04T15:14:00Z</time>
      </trkpt>
      <trkpt lat="45.98153" lon="4.88083">
        <ele>274</ele>
        <time>2017-07-04T15:14:01Z</time>
      </trkpt>
      <trkpt lat="45.9815" lon="4.88075">
        <ele>275</ele>
        <time>2017-07-04T15:14:02Z</time>
      </trkpt>
      <trkpt lat="45.98147" lon="4.88067">
        <ele>275</ele>
        <time>2017-07-04T15:14:03Z</time>
      </trkpt>
      <trkpt lat="45.98145" lon="4.88058">
        <ele>275</ele>
        <time>2017-07-04T15:14:04Z</time>
      </trkpt>
      <trkpt lat="45.98142" lon="4.88049">
        <ele>275</ele>
        <time>2017-07-04T15:14:05Z</time>
      </trkpt>
      <trkpt lat="45.98139" lon="4.8804">
        <ele>275</ele>
        <time>2017-07-04T15:14:06Z</time>
      </trkpt>
      <trkpt lat="45.98136" lon="4.88031">
        <ele>276</ele>
        <time>2017-07-04T15:14:07Z</time>
      </trkpt>
      <trkpt lat="45.98133" lon="4.88023">
        <ele>276</ele>
        <time>2017-07-04T15:14:08Z</time>
      </trkpt>
      <trkpt lat="45.98129" lon="4.88014">
        <ele>276</ele>
        <time>2017-07-04T15:14:09Z</time>
      </trkpt>
      <trkpt lat="45.98126" lon="4.88004">
        <ele>276</ele>
        <time>2017-07-04T15:14:10Z</time>
      </trkpt>
      <trkpt lat="45.98123" lon="4.87995">
        <ele>277</ele>
        <time>2017-07-04T15:14:11Z</time>
      </trkpt>
      <trkpt lat="45.9812" lon="4.87987">
        <ele>277</ele>
        <time>2017-07-04T15:14:12Z</time>
      </trkpt>
      <trkpt lat="45.98116" lon="4.87979">
        <ele>277</ele>
        <time>2017-07-04T15:14:13Z</time>
      </trkpt>
      <trkpt lat="45.98114" lon="4.87971">
        <ele>277</ele>
        <time>2017-07-04T15:14:14Z</time>
      </trkpt>
      <trkpt lat="45.98112" lon="4.87964">
        <ele>277</ele>
        <time>2017-07-04T15:14:15Z</time>
      </trkpt>
      <trkpt lat="45.9811" lon="4.87958">
        <ele>277</ele>
        <time>2017-07-04T15:14:16Z</time>
      </trkpt>
      <trkpt lat="45.98108" lon="4.87951">
        <ele>277</ele>
        <time>2017-07-04T15:14:17Z</time>
      </trkpt>
      <trkpt lat="45.98106" lon="4.87944">
        <ele>277</ele>
        <time>2017-07-04T15:14:18Z</time>
      </trkpt>
      <trkpt lat="45.98105" lon="4.87938">
        <ele>277</ele>
        <time>2017-07-04T15:14:19Z</time>
      </trkpt>
      <trkpt lat="45.98103" lon="4.87932">
        <ele>277</ele>
        <time>2017-07-04T15:14:20Z</time>
      </trkpt>
      <trkpt lat="45.98102" lon="4.87926">
        <ele>277</ele>
        <time>2017-07-04T15:14:21Z</time>
      </trkpt>
      <trkpt lat="45.98101" lon="4.8792">
        <ele>278</ele>
        <time>2017-07-04T15:14:22Z</time>
      </trkpt>
      <trkpt lat="45.98098" lon="4.87908">
        <ele>278</ele>
        <time>2017-07-04T15:14:24Z</time>
      </trkpt>
      <trkpt lat="45.98097" lon="4.87902">
        <ele>278</ele>
        <time>2017-07-04T15:14:25Z</time>
      </trkpt>
      <trkpt lat="45.98095" lon="4.87895">
        <ele>278</ele>
        <time>2017-07-04T15:14:26Z</time>
      </trkpt>
      <trkpt lat="45.98093" lon="4.87889">
        <ele>278</ele>
        <time>2017-07-04T15:14:27Z</time>
      </trkpt>
      <trkpt lat="45.98092" lon="4.87883">
        <ele>278</ele>
        <time>2017-07-04T15:14:28Z</time>
      </trkpt>
      <trkpt lat="45.9809" lon="4.87876">
        <ele>278</ele>
        <time>2017-07-04T15:14:29Z</time>
      </trkpt>
      <trkpt lat="45.98089" lon="4.8787">
        <ele>278</ele>
        <time>2017-07-04T15:14:30Z</time>
      </trkpt>
      <trkpt lat="45.98088" lon="4.87864">
        <ele>278</ele>
        <time>2017-07-04T15:14:31Z</time>
      </trkpt>
      <trkpt lat="45.98085" lon="4.87853">
        <ele>278</ele>
        <time>2017-07-04T15:14:33Z</time>
      </trkpt>
      <trkpt lat="45.98084" lon="4.87847">
        <ele>278</ele>
        <time>2017-07-04T15:14:34Z</time>
      </trkpt>
      <trkpt lat="45.98081" lon="4.87836">
        <ele>279</ele>
        <time>2017-07-04T15:14:36Z</time>
      </trkpt>
      <trkpt lat="45.9808" lon="4.8783">
        <ele>279</ele>
        <time>2017-07-04T15:14:37Z</time>
      </trkpt>
      <trkpt lat="45.98078" lon="4.87824">
        <ele>279</ele>
        <time>2017-07-04T15:14:38Z</time>
      </trkpt>
      <trkpt lat="45.98076" lon="4.87818">
        <ele>279</ele>
        <time>2017-07-04T15:14:39Z</time>
      </trkpt>
      <trkpt lat="45.98074" lon="4.87812">
        <ele>280</ele>
        <time>2017-07-04T15:14:40Z</time>
      </trkpt>
      <trkpt lat="45.98072" lon="4.87806">
        <ele>280</ele>
        <time>2017-07-04T15:14:41Z</time>
      </trkpt>
      <trkpt lat="45.98071" lon="4.87799">
        <ele>280</ele>
        <time>2017-07-04T15:14:42Z</time>
      </trkpt>
      <trkpt lat="45.98069" lon="4.87793">
        <ele>280</ele>
        <time>2017-07-04T15:14:43Z</time>
      </trkpt>
      <trkpt lat="45.98067" lon="4.87786">
        <ele>280</ele>
        <time>2017-07-04T15:14:44Z</time>
      </trkpt>
      <trkpt lat="45.98065" lon="4.8778">
        <ele>280</ele>
        <time>2017-07-04T15:14:45Z</time>
      </trkpt>
      <trkpt lat="45.98062" lon="4.87774">
        <ele>280</ele>
        <time>2017-07-04T15:14:46Z</time>
      </trkpt>
      <trkpt lat="45.9806" lon="4.87768">
        <ele>280</ele>
        <time>2017-07-04T15:14:47Z</time>
      </trkpt>
      <trkpt lat="45.98056" lon="4.87757">
        <ele>280</ele>
        <time>2017-07-04T15:14:49Z</time>
      </trkpt>
      <trkpt lat="45.98055" lon="4.87752">
        <ele>280</ele>
        <time>2017-07-04T15:14:50Z</time>
      </trkpt>
      <trkpt lat="45.98052" lon="4.8774">
        <ele>280</ele>
        <time>2017-07-04T15:14:52Z</time>
      </trkpt>
      <trkpt lat="45.98051" lon="4.87733">
        <ele>280</ele>
        <time>2017-07-04T15:14:53Z</time>
      </trkpt>
      <trkpt lat="45.98049" lon="4.87727">
        <ele>280</ele>
        <time>2017-07-04T15:14:54Z</time>
      </trkpt>
      <trkpt lat="45.98047" lon="4.87721">
        <ele>280</ele>
        <time>2017-07-04T15:14:55Z</time>
      </trkpt>
      <trkpt lat="45.98044" lon="4.8771">
        <ele>280</ele>
        <time>2017-07-04T15:14:57Z</time>
      </trkpt>
      <trkpt lat="45.98042" lon="4.87705">
        <ele>280</ele>
        <time>2017-07-04T15:14:58Z</time>
      </trkpt>
      <trkpt lat="45.98038" lon="4.87693">
        <ele>280</ele>
        <time>2017-07-04T15:15:00Z</time>
      </trkpt>
      <trkpt lat="45.98036" lon="4.87687">
        <ele>280</ele>
        <time>2017-07-04T15:15:01Z</time>
      </trkpt>
      <trkpt lat="45.98034" lon="4.8768">
        <ele>280</ele>
        <time>2017-07-04T15:15:02Z</time>
      </trkpt>
      <trkpt lat="45.98032" lon="4.87674">
        <ele>280</ele>
        <time>2017-07-04T15:15:03Z</time>
      </trkpt>
      <trkpt lat="45.9803" lon="4.87667">
        <ele>280</ele>
        <time>2017-07-04T15:15:04Z</time>
      </trkpt>
      <trkpt lat="45.98029" lon="4.87661">
        <ele>280</ele>
        <time>2017-07-04T15:15:05Z</time>
      </trkpt>
      <trkpt lat="45.98027" lon="4.87653">
        <ele>280</ele>
        <time>2017-07-04T15:15:06Z</time>
      </trkpt>
      <trkpt lat="45.98025" lon="4.87646">
        <ele>280</ele>
        <time>2017-07-04T15:15:07Z</time>
      </trkpt>
      <trkpt lat="45.98023" lon="4.87639">
        <ele>280</ele>
        <time>2017-07-04T15:15:08Z</time>
      </trkpt>
      <trkpt lat="45.98021" lon="4.87633">
        <ele>280</ele>
        <time>2017-07-04T15:15:09Z</time>
      </trkpt>
      <trkpt lat="45.98019" lon="4.87625">
        <ele>280</ele>
        <time>2017-07-04T15:15:10Z</time>
      </trkpt>
      <trkpt lat="45.98017" lon="4.87618">
        <ele>280</ele>
        <time>2017-07-04T15:15:11Z</time>
      </trkpt>
      <trkpt lat="45.98014" lon="4.87611">
        <ele>280</ele>
        <time>2017-07-04T15:15:12Z</time>
      </trkpt>
      <trkpt lat="45.98012" lon="4.87604">
        <ele>280</ele>
        <time>2017-07-04T15:15:13Z</time>
      </trkpt>
      <trkpt lat="45.98009" lon="4.87598">
        <ele>280</ele>
        <time>2017-07-04T15:15:14Z</time>
      </trkpt>
      <trkpt lat="45.98005" lon="4.87591">
        <ele>280</ele>
        <time>2017-07-04T15:15:15Z</time>
      </trkpt>
      <trkpt lat="45.98001" lon="4.87586">
        <ele>280</ele>
        <time>2017-07-04T15:15:16Z</time>
      </trkpt>
      <trkpt lat="45.97998" lon="4.8758">
        <ele>280</ele>
        <time>2017-07-04T15:15:17Z</time>
      </trkpt>
      <trkpt lat="45.97994" lon="4.87574">
        <ele>280</ele>
        <time>2017-07-04T15:15:18Z</time>
      </trkpt>
      <trkpt lat="45.97989" lon="4.87568">
        <ele>280</ele>
        <time>2017-07-04T15:15:19Z</time>
      </trkpt>
      <trkpt lat="45.97985" lon="4.87562">
        <ele>279</ele>
        <time>2017-07-04T15:15:20Z</time>
      </trkpt>
      <trkpt lat="45.97981" lon="4.87557">
        <ele>279</ele>
        <time>2017-07-04T15:15:21Z</time>
      </trkpt>
      <trkpt lat="45.97976" lon="4.87553">
        <ele>279</ele>
        <time>2017-07-04T15:15:22Z</time>
      </trkpt>
      <trkpt lat="45.97971" lon="4.87549">
        <ele>279</ele>
        <time>2017-07-04T15:15:23Z</time>
      </trkpt>
      <trkpt lat="45.97966" lon="4.87547">
        <ele>279</ele>
        <time>2017-07-04T15:15:24Z</time>
      </trkpt>
      <trkpt lat="45.97961" lon="4.87544">
        <ele>279</ele>
        <time>2017-07-04T15:15:25Z</time>
      </trkpt>
      <trkpt lat="45.97953" lon="4.87539">
        <ele>279</ele>
        <time>2017-07-04T15:15:27Z</time>
      </trkpt>
      <trkpt lat="45.97949" lon="4.87537">
        <ele>279</ele>
        <time>2017-07-04T15:15:28Z</time>
      </trkpt>
      <trkpt lat="45.97944" lon="4.87535">
        <ele>279</ele>
        <time>2017-07-04T15:15:29Z</time>
      </trkpt>
      <trkpt lat="45.97939" lon="4.87533">
        <ele>279</ele>
        <time>2017-07-04T15:15:30Z</time>
      </trkpt>
      <trkpt lat="45.97934" lon="4.87532">
        <ele>279</ele>
        <time>2017-07-04T15:15:31Z</time>
      </trkpt>
      <trkpt lat="45.9793" lon="4.87529">
        <ele>279</ele>
        <time>2017-07-04T15:15:32Z</time>
      </trkpt>
      <trkpt lat="45.97925" lon="4.87527">
        <ele>279</ele>
        <time>2017-07-04T15:15:33Z</time>
      </trkpt>
      <trkpt lat="45.9792" lon="4.87524">
        <ele>279</ele>
        <time>2017-07-04T15:15:34Z</time>
      </trkpt>
      <trkpt lat="45.97915" lon="4.87522">
        <ele>280</ele>
        <time>2017-07-04T15:15:35Z</time>
      </trkpt>
      <trkpt lat="45.9791" lon="4.8752">
        <ele>280</ele>
        <time>2017-07-04T15:15:36Z</time>
      </trkpt>
      <trkpt lat="45.97905" lon="4.87518">
        <ele>280</ele>
        <time>2017-07-04T15:15:37Z</time>
      </trkpt>
      <trkpt lat="45.97899" lon="4.87515">
        <ele>280</ele>
        <time>2017-07-04T15:15:38Z</time>
      </trkpt>
      <trkpt lat="45.97893" lon="4.87512">
        <ele>280</ele>
        <time>2017-07-04T15:15:39Z</time>
      </trkpt>
      <trkpt lat="45.97887" lon="4.87509">
        <ele>281</ele>
        <time>2017-07-04T15:15:40Z</time>
      </trkpt>
      <trkpt lat="45.97882" lon="4.87506">
        <ele>281</ele>
        <time>2017-07-04T15:15:41Z</time>
      </trkpt>
      <trkpt lat="45.97876" lon="4.87502">
        <ele>281</ele>
        <time>2017-07-04T15:15:42Z</time>
      </trkpt>
      <trkpt lat="45.9787" lon="4.87498">
        <ele>280</ele>
        <time>2017-07-04T15:15:43Z</time>
      </trkpt>
      <trkpt lat="45.97865" lon="4.87493">
        <ele>280</ele>
        <time>2017-07-04T15:15:44Z</time>
      </trkpt>
      <trkpt lat="45.9786" lon="4.87489">
        <ele>281</ele>
        <time>2017-07-04T15:15:45Z</time>
      </trkpt>
      <trkpt lat="45.97855" lon="4.87484">
        <ele>281</ele>
        <time>2017-07-04T15:15:46Z</time>
      </trkpt>
      <trkpt lat="45.97849" lon="4.87478">
        <ele>281</ele>
        <time>2017-07-04T15:15:47Z</time>
      </trkpt>
      <trkpt lat="45.97845" lon="4.87473">
        <ele>281</ele>
        <time>2017-07-04T15:15:48Z</time>
      </trkpt>
      <trkpt lat="45.9784" lon="4.87468">
        <ele>281</ele>
        <time>2017-07-04T15:15:49Z</time>
      </trkpt>
      <trkpt lat="45.97836" lon="4.87464">
        <ele>281</ele>
        <time>2017-07-04T15:15:50Z</time>
      </trkpt>
      <trkpt lat="45.97832" lon="4.8746">
        <ele>282</ele>
        <time>2017-07-04T15:15:51Z</time>
      </trkpt>
      <trkpt lat="45.97828" lon="4.87455">
        <ele>282</ele>
        <time>2017-07-04T15:15:52Z</time>
      </trkpt>
      <trkpt lat="45.97824" lon="4.87451">
        <ele>282</ele>
        <time>2017-07-04T15:15:53Z</time>
      </trkpt>
      <trkpt lat="45.97819" lon="4.87446">
        <ele>282</ele>
        <time>2017-07-04T15:15:54Z</time>
      </trkpt>
      <trkpt lat="45.97814" lon="4.87442">
        <ele>282</ele>
        <time>2017-07-04T15:15:55Z</time>
      </trkpt>
      <trkpt lat="45.9781" lon="4.87437">
        <ele>282</ele>
        <time>2017-07-04T15:15:56Z</time>
      </trkpt>
      <trkpt lat="45.97806" lon="4.87433">
        <ele>283</ele>
        <time>2017-07-04T15:15:57Z</time>
      </trkpt>
      <trkpt lat="45.97802" lon="4.87428">
        <ele>283</ele>
        <time>2017-07-04T15:15:58Z</time>
      </trkpt>
      <trkpt lat="45.97795" lon="4.87421">
        <ele>283</ele>
        <time>2017-07-04T15:16:00Z</time>
      </trkpt>
      <trkpt lat="45.97792" lon="4.87418">
        <ele>283</ele>
        <time>2017-07-04T15:16:01Z</time>
      </trkpt>
      <trkpt lat="45.97787" lon="4.8741">
        <ele>284</ele>
        <time>2017-07-04T15:16:03Z</time>
      </trkpt>
      <trkpt lat="45.97784" lon="4.87406">
        <ele>284</ele>
        <time>2017-07-04T15:16:04Z</time>
      </trkpt>
      <trkpt lat="45.97781" lon="4.87402">
        <ele>284</ele>
        <time>2017-07-04T15:16:05Z</time>
      </trkpt>
      <trkpt lat="45.97777" lon="4.87397">
        <ele>284</ele>
        <time>2017-07-04T15:16:06Z</time>
      </trkpt>
      <trkpt lat="45.97773" lon="4.87392">
        <ele>284</ele>
        <time>2017-07-04T15:16:07Z</time>
      </trkpt>
      <trkpt lat="45.97769" lon="4.87386">
        <ele>284</ele>
        <time>2017-07-04T15:16:08Z</time>
      </trkpt>
      <trkpt lat="45.97765" lon="4.87381">
        <ele>284</ele>
        <time>2017-07-04T15:16:09Z</time>
      </trkpt>
      <trkpt lat="45.97762" lon="4.87376">
        <ele>284</ele>
        <time>2017-07-04T15:16:10Z</time>
      </trkpt>
      <trkpt lat="45.97758" lon="4.87371">
        <ele>285</ele>
        <time>2017-07-04T15:16:11Z</time>
      </trkpt>
      <trkpt lat="45.97754" lon="4.87366">
        <ele>285</ele>
        <time>2017-07-04T15:16:12Z</time>
      </trkpt>
      <trkpt lat="45.97751" lon="4.87362">
        <ele>285</ele>
        <time>2017-07-04T15:16:13Z</time>
      </trkpt>
      <trkpt lat="45.97748" lon="4.87357">
        <ele>286</ele>
        <time>2017-07-04T15:16:14Z</time>
      </trkpt>
      <trkpt lat="45.97742" lon="4.87347">
        <ele>286</ele>
        <time>2017-07-04T15:16:16Z</time>
      </trkpt>
      <trkpt lat="45.97738" lon="4.87343">
        <ele>286</ele>
        <time>2017-07-04T15:16:17Z</time>
      </trkpt>
      <trkpt lat="45.97732" lon="4.87335">
        <ele>286</ele>
        <time>2017-07-04T15:16:19Z</time>
      </trkpt>
      <trkpt lat="45.9773" lon="4.87331">
        <ele>286</ele>
        <time>2017-07-04T15:16:20Z</time>
      </trkpt>
      <trkpt lat="45.97724" lon="4.87322">
        <ele>286</ele>
        <time>2017-07-04T15:16:22Z</time>
      </trkpt>
      <trkpt lat="45.97721" lon="4.87317">
        <ele>286</ele>
        <time>2017-07-04T15:16:23Z</time>
      </trkpt>
      <trkpt lat="45.97717" lon="4.87312">
        <ele>286</ele>
        <time>2017-07-04T15:16:24Z</time>
      </trkpt>
      <trkpt lat="45.97713" lon="4.87308">
        <ele>286</ele>
        <time>2017-07-04T15:16:25Z</time>
      </trkpt>
      <trkpt lat="45.97709" lon="4.87304">
        <ele>286</ele>
        <time>2017-07-04T15:16:26Z</time>
      </trkpt>
      <trkpt lat="45.97705" lon="4.873">
        <ele>286</ele>
        <time>2017-07-04T15:16:27Z</time>
      </trkpt>
      <trkpt lat="45.97697" lon="4.87293">
        <ele>286</ele>
        <time>2017-07-04T15:16:29Z</time>
      </trkpt>
      <trkpt lat="45.97693" lon="4.87289">
        <ele>286</ele>
        <time>2017-07-04T15:16:30Z</time>
      </trkpt>
      <trkpt lat="45.97686" lon="4.87282">
        <ele>286</ele>
        <time>2017-07-04T15:16:32Z</time>
      </trkpt>
      <trkpt lat="45.97683" lon="4.87279">
        <ele>286</ele>
        <time>2017-07-04T15:16:33Z</time>
      </trkpt>
      <trkpt lat="45.97675" lon="4.87272">
        <ele>286</ele>
        <time>2017-07-04T15:16:35Z</time>
      </trkpt>
      <trkpt lat="45.97672" lon="4.87268">
        <ele>286</ele>
        <time>2017-07-04T15:16:36Z</time>
      </trkpt>
      <trkpt lat="45.97668" lon="4.87264">
        <ele>286</ele>
        <time>2017-07-04T15:16:37Z</time>
      </trkpt>
      <trkpt lat="45.97663" lon="4.8726">
        <ele>286</ele>
        <time>2017-07-04T15:16:38Z</time>
      </trkpt>
      <trkpt lat="45.97659" lon="4.87256">
        <ele>286</ele>
        <time>2017-07-04T15:16:39Z</time>
      </trkpt>
      <trkpt lat="45.97654" lon="4.87252">
        <ele>285</ele>
        <time>2017-07-04T15:16:40Z</time>
      </trkpt>
      <trkpt lat="45.97649" lon="4.87247">
        <ele>285</ele>
        <time>2017-07-04T15:16:41Z</time>
      </trkpt>
      <trkpt lat="45.97644" lon="4.87242">
        <ele>285</ele>
        <time>2017-07-04T15:16:42Z</time>
      </trkpt>
      <trkpt lat="45.97639" lon="4.87237">
        <ele>284</ele>
        <time>2017-07-04T15:16:43Z</time>
      </trkpt>
      <trkpt lat="45.97635" lon="4.87233">
        <ele>284</ele>
        <time>2017-07-04T15:16:44Z</time>
      </trkpt>
      <trkpt lat="45.9763" lon="4.87229">
        <ele>284</ele>
        <time>2017-07-04T15:16:45Z</time>
      </trkpt>
      <trkpt lat="45.97627" lon="4.87224">
        <ele>284</ele>
        <time>2017-07-04T15:16:46Z</time>
      </trkpt>
      <trkpt lat="45.97624" lon="4.8722">
        <ele>284</ele>
        <time>2017-07-04T15:16:47Z</time>
      </trkpt>
      <trkpt lat="45.97621" lon="4.87214">
        <ele>284</ele>
        <time>2017-07-04T15:16:48Z</time>
      </trkpt>
      <trkpt lat="45.97617" lon="4.87209">
        <ele>284</ele>
        <time>2017-07-04T15:16:49Z</time>
      </trkpt>
      <trkpt lat="45.97613" lon="4.87206">
        <ele>284</ele>
        <time>2017-07-04T15:16:50Z</time>
      </trkpt>
      <trkpt lat="45.9761" lon="4.87201">
        <ele>284</ele>
        <time>2017-07-04T15:16:51Z</time>
      </trkpt>
      <trkpt lat="45.97604" lon="4.87197">
        <ele>284</ele>
        <time>2017-07-04T15:16:52Z</time>
      </trkpt>
      <trkpt lat="45.97599" lon="4.87193">
        <ele>283</ele>
        <time>2017-07-04T15:16:53Z</time>
      </trkpt>
      <trkpt lat="45.97594" lon="4.87188">
        <ele>283</ele>
        <time>2017-07-04T15:16:54Z</time>
      </trkpt>
      <trkpt lat="45.9759" lon="4.87184">
        <ele>283</ele>
        <time>2017-07-04T15:16:55Z</time>
      </trkpt>
      <trkpt lat="45.97586" lon="4.8718">
        <ele>283</ele>
        <time>2017-07-04T15:16:56Z</time>
      </trkpt>
      <trkpt lat="45.97579" lon="4.87174">
        <ele>283</ele>
        <time>2017-07-04T15:16:58Z</time>
      </trkpt>
      <trkpt lat="45.97575" lon="4.87171">
        <ele>283</ele>
        <time>2017-07-04T15:16:59Z</time>
      </trkpt>
      <trkpt lat="45.9757" lon="4.87168">
        <ele>283</ele>
        <time>2017-07-04T15:17:00Z</time>
      </trkpt>
      <trkpt lat="45.97565" lon="4.87164">
        <ele>283</ele>
        <time>2017-07-04T15:17:01Z</time>
      </trkpt>
      <trkpt lat="45.9756" lon="4.87161">
        <ele>283</ele>
        <time>2017-07-04T15:17:02Z</time>
      </trkpt>
      <trkpt lat="45.97556" lon="4.87157">
        <ele>283</ele>
        <time>2017-07-04T15:17:03Z</time>
      </trkpt>
      <trkpt lat="45.97551" lon="4.87153">
        <ele>283</ele>
        <time>2017-07-04T15:17:04Z</time>
      </trkpt>
      <trkpt lat="45.97547" lon="4.8715">
        <ele>283</ele>
        <time>2017-07-04T15:17:05Z</time>
      </trkpt>
      <trkpt lat="45.97542" lon="4.87146">
        <ele>283</ele>
        <time>2017-07-04T15:17:06Z</time>
      </trkpt>
      <trkpt lat="45.97538" lon="4.87142">
        <ele>283</ele>
        <time>2017-07-04T15:17:07Z</time>
      </trkpt>
      <trkpt lat="45.97534" lon="4.87138">
        <ele>283</ele>
        <time>2017-07-04T15:17:08Z</time>
      </trkpt>
      <trkpt lat="45.97529" lon="4.87132">
        <ele>283</ele>
        <time>2017-07-04T15:17:09Z</time>
      </trkpt>
      <trkpt lat="45.97522" lon="4.87124">
        <ele>283</ele>
        <time>2017-07-04T15:17:11Z</time>
      </trkpt>
      <trkpt lat="45.97519" lon="4.8712">
        <ele>283</ele>
        <time>2017-07-04T15:17:12Z</time>
      </trkpt>
      <trkpt lat="45.97515" lon="4.87116">
        <ele>283</ele>
        <time>2017-07-04T15:17:13Z</time>
      </trkpt>
      <trkpt lat="45.97511" lon="4.87112">
        <ele>283</ele>
        <time>2017-07-04T15:17:14Z</time>
      </trkpt>
      <trkpt lat="45.97507" lon="4.87108">
        <ele>283</ele>
        <time>2017-07-04T15:17:15Z</time>
      </trkpt>
      <trkpt lat="45.97502" lon="4.87104">
        <ele>283</ele>
        <time>2017-07-04T15:17:16Z</time>
      </trkpt>
      <trkpt lat="45.97498" lon="4.871">
        <ele>283</ele>
        <time>2017-07-04T15:17:17Z</time>
      </trkpt>
      <trkpt lat="45.97494" lon="4.87095">
        <ele>283</ele>
        <time>2017-07-04T15:17:18Z</time>
      </trkpt>
      <trkpt lat="45.97488" lon="4.8709">
        <ele>283</ele>
        <time>2017-07-04T15:17:19Z</time>
      </trkpt>
      <trkpt lat="45.97484" lon="4.87084">
        <ele>283</ele>
        <time>2017-07-04T15:17:20Z</time>
      </trkpt>
      <trkpt lat="45.9748" lon="4.87079">
        <ele>284</ele>
        <time>2017-07-04T15:17:21Z</time>
      </trkpt>
      <trkpt lat="45.97475" lon="4.87074">
        <ele>284</ele>
        <time>2017-07-04T15:17:22Z</time>
      </trkpt>
      <trkpt lat="45.9747" lon="4.8707">
        <ele>284</ele>
        <time>2017-07-04T15:17:23Z</time>
      </trkpt>
      <trkpt lat="45.97466" lon="4.87066">
        <ele>284</ele>
        <time>2017-07-04T15:17:24Z</time>
      </trkpt>
      <trkpt lat="45.97462" lon="4.87061">
        <ele>284</ele>
        <time>2017-07-04T15:17:25Z</time>
      </trkpt>
      <trkpt lat="45.97458" lon="4.87056">
        <ele>284</ele>
        <time>2017-07-04T15:17:26Z</time>
      </trkpt>
      <trkpt lat="45.97454" lon="4.87052">
        <ele>284</ele>
        <time>2017-07-04T15:17:27Z</time>
      </trkpt>
      <trkpt lat="45.9745" lon="4.87047">
        <ele>284</ele>
        <time>2017-07-04T15:17:28Z</time>
      </trkpt>
      <trkpt lat="45.97446" lon="4.87043">
        <ele>284</ele>
        <time>2017-07-04T15:17:29Z</time>
      </trkpt>
      <trkpt lat="45.97441" lon="4.87038">
        <ele>284</ele>
        <time>2017-07-04T15:17:30Z</time>
      </trkpt>
      <trkpt lat="45.97437" lon="4.87034">
        <ele>284</ele>
        <time>2017-07-04T15:17:31Z</time>
      </trkpt>
      <trkpt lat="45.97432" lon="4.87029">
        <ele>284</ele>
        <time>2017-07-04T15:17:32Z</time>
      </trkpt>
      <trkpt lat="45.97427" lon="4.87025">
        <ele>284</ele>
        <time>2017-07-04T15:17:33Z</time>
      </trkpt>
      <trkpt lat="45.97422" lon="4.87021">
        <ele>284</ele>
        <time>2017-07-04T15:17:34Z</time>
      </trkpt>
      <trkpt lat="45.97417" lon="4.87017">
        <ele>285</ele>
        <time>2017-07-04T15:17:35Z</time>
      </trkpt>
      <trkpt lat="45.97413" lon="4.87012">
        <ele>285</ele>
        <time>2017-07-04T15:17:36Z</time>
      </trkpt>
      <trkpt lat="45.97408" lon="4.87009">
        <ele>285</ele>
        <time>2017-07-04T15:17:37Z</time>
      </trkpt>
      <trkpt lat="45.97403" lon="4.87005">
        <ele>285</ele>
        <time>2017-07-04T15:17:38Z</time>
      </trkpt>
      <trkpt lat="45.97399" lon="4.87001">
        <ele>285</ele>
        <time>2017-07-04T15:17:39Z</time>
      </trkpt>
      <trkpt lat="45.97395" lon="4.86997">
        <ele>285</ele>
        <time>2017-07-04T15:17:40Z</time>
      </trkpt>
      <trkpt lat="45.97392" lon="4.86994">
        <ele>285</ele>
        <time>2017-07-04T15:17:41Z</time>
      </trkpt>
      <trkpt lat="45.97387" lon="4.8699">
        <ele>285</ele>
        <time>2017-07-04T15:17:42Z</time>
      </trkpt>
      <trkpt lat="45.97383" lon="4.86986">
        <ele>285</ele>
        <time>2017-07-04T15:17:43Z</time>
      </trkpt>
      <trkpt lat="45.97379" lon="4.86981">
        <ele>285</ele>
        <time>2017-07-04T15:17:44Z</time>
      </trkpt>
      <trkpt lat="45.97375" lon="4.86976">
        <ele>285</ele>
        <time>2017-07-04T15:17:45Z</time>
      </trkpt>
      <trkpt lat="45.97371" lon="4.86971">
        <ele>285</ele>
        <time>2017-07-04T15:17:46Z</time>
      </trkpt>
      <trkpt lat="45.97367" lon="4.86965">
        <ele>285</ele>
        <time>2017-07-04T15:17:47Z</time>
      </trkpt>
      <trkpt lat="45.97363" lon="4.86959">
        <ele>285</ele>
        <time>2017-07-04T15:17:48Z</time>
      </trkpt>
      <trkpt lat="45.97358" lon="4.86953">
        <ele>284</ele>
        <time>2017-07-04T15:17:49Z</time>
      </trkpt>
      <trkpt lat="45.97355" lon="4.86946">
        <ele>284</ele>
        <time>2017-07-04T15:17:50Z</time>
      </trkpt>
      <trkpt lat="45.97351" lon="4.8694">
        <ele>284</ele>
        <time>2017-07-04T15:17:51Z</time>
      </trkpt>
      <trkpt lat="45.97347" lon="4.86934">
        <ele>284</ele>
        <time>2017-07-04T15:17:52Z</time>
      </trkpt>
      <trkpt lat="45.97343" lon="4.86928">
        <ele>284</ele>
        <time>2017-07-04T15:17:53Z</time>
      </trkpt>
      <trkpt lat="45.97339" lon="4.86923">
        <ele>284</ele>
        <time>2017-07-04T15:17:54Z</time>
      </trkpt>
      <trkpt lat="45.97335" lon="4.86918">
        <ele>284</ele>
        <time>2017-07-04T15:17:55Z</time>
      </trkpt>
      <trkpt lat="45.9733" lon="4.86913">
        <ele>284</ele>
        <time>2017-07-04T15:17:56Z</time>
      </trkpt>
      <trkpt lat="45.97326" lon="4.86909">
        <ele>284</ele>
        <time>2017-07-04T15:17:57Z</time>
      </trkpt>
      <trkpt lat="45.97323" lon="4.86904">
        <ele>284</ele>
        <time>2017-07-04T15:17:58Z</time>
      </trkpt>
      <trkpt lat="45.97319" lon="4.86899">
        <ele>284</ele>
        <time>2017-07-04T15:17:59Z</time>
      </trkpt>
      <trkpt lat="45.97314" lon="4.86894">
        <ele>284</ele>
        <time>2017-07-04T15:18:00Z</time>
      </trkpt>
      <trkpt lat="45.9731" lon="4.86889">
        <ele>284</ele>
        <time>2017-07-04T15:18:01Z</time>
      </trkpt>
      <trkpt lat="45.97306" lon="4.86884">
        <ele>284</ele>
        <time>2017-07-04T15:18:02Z</time>
      </trkpt>
      <trkpt lat="45.97302" lon="4.86878">
        <ele>284</ele>
        <time>2017-07-04T15:18:03Z</time>
      </trkpt>
      <trkpt lat="45.97298" lon="4.86873">
        <ele>284</ele>
        <time>2017-07-04T15:18:04Z</time>
      </trkpt>
      <trkpt lat="45.97295" lon="4.86867">
        <ele>284</ele>
        <time>2017-07-04T15:18:05Z</time>
      </trkpt>
      <trkpt lat="45.97291" lon="4.86861">
        <ele>285</ele>
        <time>2017-07-04T15:18:06Z</time>
      </trkpt>
      <trkpt lat="45.97288" lon="4.86855">
        <ele>285</ele>
        <time>2017-07-04T15:18:07Z</time>
      </trkpt>
      <trkpt lat="45.97285" lon="4.86849">
        <ele>285</ele>
        <time>2017-07-04T15:18:08Z</time>
      </trkpt>
      <trkpt lat="45.97281" lon="4.86843">
        <ele>285</ele>
        <time>2017-07-04T15:18:09Z</time>
      </trkpt>
      <trkpt lat="45.97278" lon="4.86836">
        <ele>285</ele>
        <time>2017-07-04T15:18:10Z</time>
      </trkpt>
      <trkpt lat="45.97275" lon="4.8683">
        <ele>285</ele>
        <time>2017-07-04T15:18:11Z</time>
      </trkpt>
      <trkpt lat="45.97271" lon="4.86824">
        <ele>285</ele>
        <time>2017-07-04T15:18:12Z</time>
      </trkpt>
      <trkpt lat="45.97267" lon="4.86818">
        <ele>285</ele>
        <time>2017-07-04T15:18:13Z</time>
      </trkpt>
      <trkpt lat="45.97263" lon="4.86814">
        <ele>285</ele>
        <time>2017-07-04T15:18:14Z</time>
      </trkpt>
      <trkpt lat="45.97259" lon="4.86808">
        <ele>285</ele>
        <time>2017-07-04T15:18:15Z</time>
      </trkpt>
      <trkpt lat="45.97254" lon="4.86804">
        <ele>285</ele>
        <time>2017-07-04T15:18:16Z</time>
      </trkpt>
      <trkpt lat="45.9725" lon="4.868">
        <ele>284</ele>
        <time>2017-07-04T15:18:17Z</time>
      </trkpt>
      <trkpt lat="45.97245" lon="4.86796">
        <ele>284</ele>
        <time>2017-07-04T15:18:18Z</time>
      </trkpt>
      <trkpt lat="45.97239" lon="4.86794">
        <ele>284</ele>
        <time>2017-07-04T15:18:19Z</time>
      </trkpt>
      <trkpt lat="45.97233" lon="4.86792">
        <ele>284</ele>
        <time>2017-07-04T15:18:20Z</time>
      </trkpt>
      <trkpt lat="45.97224" lon="4.8679">
        <ele>284</ele>
        <time>2017-07-04T15:18:21Z</time>
      </trkpt>
      <trkpt lat="45.97217" lon="4.86789">
        <ele>284</ele>
        <time>2017-07-04T15:18:22Z</time>
      </trkpt>
      <trkpt lat="45.97209" lon="4.86788">
        <ele>284</ele>
        <time>2017-07-04T15:18:23Z</time>
      </trkpt>
      <trkpt lat="45.97203" lon="4.86789">
        <ele>284</ele>
        <time>2017-07-04T15:18:24Z</time>
      </trkpt>
      <trkpt lat="45.97198" lon="4.8679">
        <ele>284</ele>
        <time>2017-07-04T15:18:25Z</time>
      </trkpt>
      <trkpt lat="45.97193" lon="4.86792">
        <ele>284</ele>
        <time>2017-07-04T15:18:26Z</time>
      </trkpt>
      <trkpt lat="45.97188" lon="4.86794">
        <ele>284</ele>
        <time>2017-07-04T15:18:27Z</time>
      </trkpt>
      <trkpt lat="45.97183" lon="4.86796">
        <ele>284</ele>
        <time>2017-07-04T15:18:28Z</time>
      </trkpt>
      <trkpt lat="45.97177" lon="4.86798">
        <ele>284</ele>
        <time>2017-07-04T15:18:29Z</time>
      </trkpt>
      <trkpt lat="45.97172" lon="4.868">
        <ele>283</ele>
        <time>2017-07-04T15:18:30Z</time>
      </trkpt>
      <trkpt lat="45.97166" lon="4.86803">
        <ele>283</ele>
        <time>2017-07-04T15:18:31Z</time>
      </trkpt>
      <trkpt lat="45.97161" lon="4.86805">
        <ele>283</ele>
        <time>2017-07-04T15:18:32Z</time>
      </trkpt>
      <trkpt lat="45.97155" lon="4.86807">
        <ele>283</ele>
        <time>2017-07-04T15:18:33Z</time>
      </trkpt>
      <trkpt lat="45.9715" lon="4.86809">
        <ele>283</ele>
        <time>2017-07-04T15:18:34Z</time>
      </trkpt>
      <trkpt lat="45.97145" lon="4.86812">
        <ele>283</ele>
        <time>2017-07-04T15:18:35Z</time>
      </trkpt>
      <trkpt lat="45.9714" lon="4.86814">
        <ele>283</ele>
        <time>2017-07-04T15:18:36Z</time>
      </trkpt>
      <trkpt lat="45.97135" lon="4.86816">
        <ele>283</ele>
        <time>2017-07-04T15:18:37Z</time>
      </trkpt>
      <trkpt lat="45.9713" lon="4.86818">
        <ele>283</ele>
        <time>2017-07-04T15:18:38Z</time>
      </trkpt>
      <trkpt lat="45.97125" lon="4.8682">
        <ele>283</ele>
        <time>2017-07-04T15:18:39Z</time>
      </trkpt>
      <trkpt lat="45.97121" lon="4.86821">
        <ele>283</ele>
        <time>2017-07-04T15:18:40Z</time>
      </trkpt>
      <trkpt lat="45.97116" lon="4.86823">
        <ele>283</ele>
        <time>2017-07-04T15:18:41Z</time>
      </trkpt>
      <trkpt lat="45.97111" lon="4.86825">
        <ele>283</ele>
        <time>2017-07-04T15:18:42Z</time>
      </trkpt>
      <trkpt lat="45.97107" lon="4.86826">
        <ele>284</ele>
        <time>2017-07-04T15:18:43Z</time>
      </trkpt>
      <trkpt lat="45.97102" lon="4.86827">
        <ele>284</ele>
        <time>2017-07-04T15:18:44Z</time>
      </trkpt>
      <trkpt lat="45.97097" lon="4.86828">
        <ele>284</ele>
        <time>2017-07-04T15:18:45Z</time>
      </trkpt>
      <trkpt lat="45.97092" lon="4.8683">
        <ele>284</ele>
        <time>2017-07-04T15:18:46Z</time>
      </trkpt>
      <trkpt lat="45.97087" lon="4.8683">
        <ele>284</ele>
        <time>2017-07-04T15:18:47Z</time>
      </trkpt>
      <trkpt lat="45.97081" lon="4.86831">
        <ele>284</ele>
        <time>2017-07-04T15:18:48Z</time>
      </trkpt>
      <trkpt lat="45.97075" lon="4.86832">
        <ele>284</ele>
        <time>2017-07-04T15:18:49Z</time>
      </trkpt>
      <trkpt lat="45.97069" lon="4.86833">
        <ele>284</ele>
        <time>2017-07-04T15:18:50Z</time>
      </trkpt>
      <trkpt lat="45.97063" lon="4.86834">
        <ele>284</ele>
        <time>2017-07-04T15:18:51Z</time>
      </trkpt>
      <trkpt lat="45.97057" lon="4.86836">
        <ele>284</ele>
        <time>2017-07-04T15:18:52Z</time>
      </trkpt>
      <trkpt lat="45.9705" lon="4.86837">
        <ele>285</ele>
        <time>2017-07-04T15:18:53Z</time>
      </trkpt>
      <trkpt lat="45.97043" lon="4.86838">
        <ele>285</ele>
        <time>2017-07-04T15:18:54Z</time>
      </trkpt>
      <trkpt lat="45.97037" lon="4.86839">
        <ele>285</ele>
        <time>2017-07-04T15:18:55Z</time>
      </trkpt>
      <trkpt lat="45.97031" lon="4.8684">
        <ele>285</ele>
        <time>2017-07-04T15:18:56Z</time>
      </trkpt>
      <trkpt lat="45.97025" lon="4.86841">
        <ele>285</ele>
        <time>2017-07-04T15:18:57Z</time>
      </trkpt>
      <trkpt lat="45.97019" lon="4.86842">
        <ele>285</ele>
        <time>2017-07-04T15:18:58Z</time>
      </trkpt>
      <trkpt lat="45.97014" lon="4.86843">
        <ele>285</ele>
        <time>2017-07-04T15:18:59Z</time>
      </trkpt>
      <trkpt lat="45.97009" lon="4.86843">
        <ele>285</ele>
        <time>2017-07-04T15:19:00Z</time>
      </trkpt>
      <trkpt lat="45.97004" lon="4.86844">
        <ele>285</ele>
        <time>2017-07-04T15:19:01Z</time>
      </trkpt>
      <trkpt lat="45.96999" lon="4.86844">
        <ele>286</ele>
        <time>2017-07-04T15:19:02Z</time>
      </trkpt>
      <trkpt lat="45.96994" lon="4.86844">
        <ele>286</ele>
        <time>2017-07-04T15:19:03Z</time>
      </trkpt>
      <trkpt lat="45.9699" lon="4.86844">
        <ele>286</ele>
        <time>2017-07-04T15:19:04Z</time>
      </trkpt>
      <trkpt lat="45.96985" lon="4.86843">
        <ele>286</ele>
        <time>2017-07-04T15:19:05Z</time>
      </trkpt>
      <trkpt lat="45.9698" lon="4.86842">
        <ele>286</ele>
        <time>2017-07-04T15:19:06Z</time>
      </trkpt>
      <trkpt lat="45.96975" lon="4.8684">
        <ele>286</ele>
        <time>2017-07-04T15:19:07Z</time>
      </trkpt>
      <trkpt lat="45.96969" lon="4.86839">
        <ele>286</ele>
        <time>2017-07-04T15:19:08Z</time>
      </trkpt>
      <trkpt lat="45.96964" lon="4.86838">
        <ele>287</ele>
        <time>2017-07-04T15:19:09Z</time>
      </trkpt>
      <trkpt lat="45.96958" lon="4.86836">
        <ele>287</ele>
        <time>2017-07-04T15:19:10Z</time>
      </trkpt>
      <trkpt lat="45.96953" lon="4.86833">
        <ele>286</ele>
        <time>2017-07-04T15:19:11Z</time>
      </trkpt>
      <trkpt lat="45.96948" lon="4.86831">
        <ele>287</ele>
        <time>2017-07-04T15:19:12Z</time>
      </trkpt>
      <trkpt lat="45.96944" lon="4.86829">
        <ele>287</ele>
        <time>2017-07-04T15:19:13Z</time>
      </trkpt>
      <trkpt lat="45.96939" lon="4.86827">
        <ele>287</ele>
        <time>2017-07-04T15:19:14Z</time>
      </trkpt>
      <trkpt lat="45.96934" lon="4.86824">
        <ele>287</ele>
        <time>2017-07-04T15:19:15Z</time>
      </trkpt>
      <trkpt lat="45.9693" lon="4.8682">
        <ele>287</ele>
        <time>2017-07-04T15:19:16Z</time>
      </trkpt>
      <trkpt lat="45.96926" lon="4.86817">
        <ele>287</ele>
        <time>2017-07-04T15:19:17Z</time>
      </trkpt>
      <trkpt lat="45.96921" lon="4.86814">
        <ele>287</ele>
        <time>2017-07-04T15:19:18Z</time>
      </trkpt>
      <trkpt lat="45.96917" lon="4.8681">
        <ele>288</ele>
        <time>2017-07-04T15:19:19Z</time>
      </trkpt>
      <trkpt lat="45.96912" lon="4.86807">
        <ele>288</ele>
        <time>2017-07-04T15:19:20Z</time>
      </trkpt>
      <trkpt lat="45.96908" lon="4.86803">
        <ele>288</ele>
        <time>2017-07-04T15:19:21Z</time>
      </trkpt>
      <trkpt lat="45.96904" lon="4.86799">
        <ele>289</ele>
        <time>2017-07-04T15:19:22Z</time>
      </trkpt>
      <trkpt lat="45.96897" lon="4.86792">
        <ele>289</ele>
        <time>2017-07-04T15:19:24Z</time>
      </trkpt>
      <trkpt lat="45.96893" lon="4.86788">
        <ele>289</ele>
        <time>2017-07-04T15:19:25Z</time>
      </trkpt>
      <trkpt lat="45.96889" lon="4.86785">
        <ele>289</ele>
        <time>2017-07-04T15:19:26Z</time>
      </trkpt>
      <trkpt lat="45.96885" lon="4.86781">
        <ele>289</ele>
        <time>2017-07-04T15:19:27Z</time>
      </trkpt>
      <trkpt lat="45.96879" lon="4.86774">
        <ele>289</ele>
        <time>2017-07-04T15:19:29Z</time>
      </trkpt>
      <trkpt lat="45.96875" lon="4.86771">
        <ele>289</ele>
        <time>2017-07-04T15:19:30Z</time>
      </trkpt>
      <trkpt lat="45.96868" lon="4.86765">
        <ele>289</ele>
        <time>2017-07-04T15:19:32Z</time>
      </trkpt>
      <trkpt lat="45.96865" lon="4.86762">
        <ele>289</ele>
        <time>2017-07-04T15:19:33Z</time>
      </trkpt>
      <trkpt lat="45.96858" lon="4.86755">
        <ele>289</ele>
        <time>2017-07-04T15:19:35Z</time>
      </trkpt>
      <trkpt lat="45.96854" lon="4.86752">
        <ele>289</ele>
        <time>2017-07-04T15:19:36Z</time>
      </trkpt>
      <trkpt lat="45.96847" lon="4.86747">
        <ele>289</ele>
        <time>2017-07-04T15:19:38Z</time>
      </trkpt>
      <trkpt lat="45.96845" lon="4.86743">
        <ele>289</ele>
        <time>2017-07-04T15:19:39Z</time>
      </trkpt>
      <trkpt lat="45.96838" lon="4.86737">
        <ele>289</ele>
        <time>2017-07-04T15:19:41Z</time>
      </trkpt>
      <trkpt lat="45.96835" lon="4.86734">
        <ele>289</ele>
        <time>2017-07-04T15:19:42Z</time>
      </trkpt>
      <trkpt lat="45.96831" lon="4.86731">
        <ele>289</ele>
        <time>2017-07-04T15:19:43Z</time>
      </trkpt>
      <trkpt lat="45.96827" lon="4.86728">
        <ele>289</ele>
        <time>2017-07-04T15:19:44Z</time>
      </trkpt>
      <trkpt lat="45.9682" lon="4.86721">
        <ele>289</ele>
        <time>2017-07-04T15:19:46Z</time>
      </trkpt>
      <trkpt lat="45.96816" lon="4.86718">
        <ele>289</ele>
        <time>2017-07-04T15:19:47Z</time>
      </trkpt>
      <trkpt lat="45.9681" lon="4.86711">
        <ele>289</ele>
        <time>2017-07-04T15:19:49Z</time>
      </trkpt>
      <trkpt lat="45.96806" lon="4.86706">
        <ele>289</ele>
        <time>2017-07-04T15:19:50Z</time>
      </trkpt>
      <trkpt lat="45.96799" lon="4.86699">
        <ele>289</ele>
        <time>2017-07-04T15:19:52Z</time>
      </trkpt>
      <trkpt lat="45.96795" lon="4.86695">
        <ele>289</ele>
        <time>2017-07-04T15:19:53Z</time>
      </trkpt>
      <trkpt lat="45.96788" lon="4.86688">
        <ele>289</ele>
        <time>2017-07-04T15:19:55Z</time>
      </trkpt>
      <trkpt lat="45.96784" lon="4.86685">
        <ele>289</ele>
        <time>2017-07-04T15:19:56Z</time>
      </trkpt>
      <trkpt lat="45.96777" lon="4.86679">
        <ele>289</ele>
        <time>2017-07-04T15:19:58Z</time>
      </trkpt>
      <trkpt lat="45.96775" lon="4.86676">
        <ele>289</ele>
        <time>2017-07-04T15:19:59Z</time>
      </trkpt>
      <trkpt lat="45.9677" lon="4.86669">
        <ele>290</ele>
        <time>2017-07-04T15:20:01Z</time>
      </trkpt>
      <trkpt lat="45.96769" lon="4.86664">
        <ele>290</ele>
        <time>2017-07-04T15:20:02Z</time>
      </trkpt>
      <trkpt lat="45.96765" lon="4.86654">
        <ele>290</ele>
        <time>2017-07-04T15:20:04Z</time>
      </trkpt>
      <trkpt lat="45.96763" lon="4.86649">
        <ele>290</ele>
        <time>2017-07-04T15:20:05Z</time>
      </trkpt>
      <trkpt lat="45.96757" lon="4.86642">
        <ele>290</ele>
        <time>2017-07-04T15:20:07Z</time>
      </trkpt>
      <trkpt lat="45.96753" lon="4.8664">
        <ele>290</ele>
        <time>2017-07-04T15:20:08Z</time>
      </trkpt>
      <trkpt lat="45.96746" lon="4.86643">
        <ele>290</ele>
        <time>2017-07-04T15:20:10Z</time>
      </trkpt>
      <trkpt lat="45.96743" lon="4.86648">
        <ele>290</ele>
        <time>2017-07-04T15:20:11Z</time>
      </trkpt>
      <trkpt lat="45.96739" lon="4.86654">
        <ele>290</ele>
        <time>2017-07-04T15:20:12Z</time>
      </trkpt>
      <trkpt lat="45.96736" lon="4.8666">
        <ele>290</ele>
        <time>2017-07-04T15:20:13Z</time>
      </trkpt>
      <trkpt lat="45.96732" lon="4.86668">
        <ele>290</ele>
        <time>2017-07-04T15:20:14Z</time>
      </trkpt>
      <trkpt lat="45.96728" lon="4.86675">
        <ele>289</ele>
        <time>2017-07-04T15:20:15Z</time>
      </trkpt>
      <trkpt lat="45.96724" lon="4.86681">
        <ele>289</ele>
        <time>2017-07-04T15:20:16Z</time>
      </trkpt>
      <trkpt lat="45.9672" lon="4.86688">
        <ele>289</ele>
        <time>2017-07-04T15:20:17Z</time>
      </trkpt>
      <trkpt lat="45.96717" lon="4.86695">
        <ele>289</ele>
        <time>2017-07-04T15:20:18Z</time>
      </trkpt>
      <trkpt lat="45.96713" lon="4.86701">
        <ele>289</ele>
        <time>2017-07-04T15:20:19Z</time>
      </trkpt>
      <trkpt lat="45.96709" lon="4.86708">
        <ele>289</ele>
        <time>2017-07-04T15:20:20Z</time>
      </trkpt>
      <trkpt lat="45.96705" lon="4.86714">
        <ele>289</ele>
        <time>2017-07-04T15:20:21Z</time>
      </trkpt>
      <trkpt lat="45.96701" lon="4.86721">
        <ele>289</ele>
        <time>2017-07-04T15:20:22Z</time>
      </trkpt>
      <trkpt lat="45.96697" lon="4.86727">
        <ele>289</ele>
        <time>2017-07-04T15:20:23Z</time>
      </trkpt>
      <trkpt lat="45.96693" lon="4.86734">
        <ele>289</ele>
        <time>2017-07-04T15:20:24Z</time>
      </trkpt>
      <trkpt lat="45.9669" lon="4.8674">
        <ele>289</ele>
        <time>2017-07-04T15:20:25Z</time>
      </trkpt>
      <trkpt lat="45.96687" lon="4.86746">
        <ele>289</ele>
        <time>2017-07-04T15:20:26Z</time>
      </trkpt>
      <trkpt lat="45.96683" lon="4.86753">
        <ele>289</ele>
        <time>2017-07-04T15:20:27Z</time>
      </trkpt>
      <trkpt lat="45.9668" lon="4.8676">
        <ele>289</ele>
        <time>2017-07-04T15:20:28Z</time>
      </trkpt>
      <trkpt lat="45.96676" lon="4.86767">
        <ele>289</ele>
        <time>2017-07-04T15:20:29Z</time>
      </trkpt>
      <trkpt lat="45.96672" lon="4.86773">
        <ele>289</ele>
        <time>2017-07-04T15:20:30Z</time>
      </trkpt>
      <trkpt lat="45.96668" lon="4.86779">
        <ele>289</ele>
        <time>2017-07-04T15:20:31Z</time>
      </trkpt>
      <trkpt lat="45.96664" lon="4.86785">
        <ele>288</ele>
        <time>2017-07-04T15:20:32Z</time>
      </trkpt>
      <trkpt lat="45.9666" lon="4.86791">
        <ele>288</ele>
        <time>2017-07-04T15:20:33Z</time>
      </trkpt>
      <trkpt lat="45.96657" lon="4.86797">
        <ele>288</ele>
        <time>2017-07-04T15:20:34Z</time>
      </trkpt>
      <trkpt lat="45.96653" lon="4.86802">
        <ele>288</ele>
        <time>2017-07-04T15:20:35Z</time>
      </trkpt>
      <trkpt lat="45.96649" lon="4.86808">
        <ele>288</ele>
        <time>2017-07-04T15:20:36Z</time>
      </trkpt>
      <trkpt lat="45.96645" lon="4.86813">
        <ele>288</ele>
        <time>2017-07-04T15:20:37Z</time>
      </trkpt>
      <trkpt lat="45.96641" lon="4.86819">
        <ele>288</ele>
        <time>2017-07-04T15:20:38Z</time>
      </trkpt>
      <trkpt lat="45.96638" lon="4.86824">
        <ele>288</ele>
        <time>2017-07-04T15:20:39Z</time>
      </trkpt>
      <trkpt lat="45.96634" lon="4.8683">
        <ele>288</ele>
        <time>2017-07-04T15:20:40Z</time>
      </trkpt>
      <trkpt lat="45.9663" lon="4.86836">
        <ele>287</ele>
        <time>2017-07-04T15:20:41Z</time>
      </trkpt>
      <trkpt lat="45.96627" lon="4.86842">
        <ele>287</ele>
        <time>2017-07-04T15:20:42Z</time>
      </trkpt>
      <trkpt lat="45.96623" lon="4.86847">
        <ele>287</ele>
        <time>2017-07-04T15:20:43Z</time>
      </trkpt>
      <trkpt lat="45.96619" lon="4.86853">
        <ele>287</ele>
        <time>2017-07-04T15:20:44Z</time>
      </trkpt>
      <trkpt lat="45.96615" lon="4.86858">
        <ele>287</ele>
        <time>2017-07-04T15:20:45Z</time>
      </trkpt>
      <trkpt lat="45.96611" lon="4.86863">
        <ele>287</ele>
        <time>2017-07-04T15:20:46Z</time>
      </trkpt>
      <trkpt lat="45.96607" lon="4.86869">
        <ele>287</ele>
        <time>2017-07-04T15:20:47Z</time>
      </trkpt>
      <trkpt lat="45.96603" lon="4.86875">
        <ele>287</ele>
        <time>2017-07-04T15:20:48Z</time>
      </trkpt>
      <trkpt lat="45.96599" lon="4.8688">
        <ele>287</ele>
        <time>2017-07-04T15:20:49Z</time>
      </trkpt>
      <trkpt lat="45.96596" lon="4.86886">
        <ele>287</ele>
        <time>2017-07-04T15:20:50Z</time>
      </trkpt>
      <trkpt lat="45.96592" lon="4.86891">
        <ele>286</ele>
        <time>2017-07-04T15:20:51Z</time>
      </trkpt>
      <trkpt lat="45.96588" lon="4.86897">
        <ele>286</ele>
        <time>2017-07-04T15:20:52Z</time>
      </trkpt>
      <trkpt lat="45.96585" lon="4.86903">
        <ele>286</ele>
        <time>2017-07-04T15:20:53Z</time>
      </trkpt>
      <trkpt lat="45.96581" lon="4.8691">
        <ele>285</ele>
        <time>2017-07-04T15:20:54Z</time>
      </trkpt>
      <trkpt lat="45.96578" lon="4.86916">
        <ele>285</ele>
        <time>2017-07-04T15:20:55Z</time>
      </trkpt>
      <trkpt lat="45.96573" lon="4.86922">
        <ele>284</ele>
        <time>2017-07-04T15:20:56Z</time>
      </trkpt>
      <trkpt lat="45.9657" lon="4.86928">
        <ele>284</ele>
        <time>2017-07-04T15:20:57Z</time>
      </trkpt>
      <trkpt lat="45.96566" lon="4.86935">
        <ele>284</ele>
        <time>2017-07-04T15:20:58Z</time>
      </trkpt>
      <trkpt lat="45.96562" lon="4.86942">
        <ele>284</ele>
        <time>2017-07-04T15:20:59Z</time>
      </trkpt>
      <trkpt lat="45.96557" lon="4.86949">
        <ele>283</ele>
        <time>2017-07-04T15:21:00Z</time>
      </trkpt>
      <trkpt lat="45.96554" lon="4.86955">
        <ele>283</ele>
        <time>2017-07-04T15:21:01Z</time>
      </trkpt>
      <trkpt lat="45.9655" lon="4.86961">
        <ele>283</ele>
        <time>2017-07-04T15:21:02Z</time>
      </trkpt>
      <trkpt lat="45.96546" lon="4.86965">
        <ele>283</ele>
        <time>2017-07-04T15:21:03Z</time>
      </trkpt>
      <trkpt lat="45.9654" lon="4.86974">
        <ele>283</ele>
        <time>2017-07-04T15:21:05Z</time>
      </trkpt>
      <trkpt lat="45.96538" lon="4.8698">
        <ele>283</ele>
        <time>2017-07-04T15:21:06Z</time>
      </trkpt>
      <trkpt lat="45.96537" lon="4.86986">
        <ele>283</ele>
        <time>2017-07-04T15:21:07Z</time>
      </trkpt>
      <trkpt lat="45.96538" lon="4.86993">
        <ele>283</ele>
        <time>2017-07-04T15:21:08Z</time>
      </trkpt>
      <trkpt lat="45.96539" lon="4.87006">
        <ele>283</ele>
        <time>2017-07-04T15:21:11Z</time>
      </trkpt>
      <trkpt lat="45.9654" lon="4.87009">
        <ele>283</ele>
        <time>2017-07-04T15:21:12Z</time>
      </trkpt>
      <trkpt lat="45.96546" lon="4.87018">
        <ele>283</ele>
        <time>2017-07-04T15:21:15Z</time>
      </trkpt>
      <trkpt lat="45.96547" lon="4.8702">
        <ele>283</ele>
        <time>2017-07-04T15:21:16Z</time>
      </trkpt>
      <trkpt lat="45.96547" lon="4.87021">
        <ele>283</ele>
        <time>2017-07-04T15:21:17Z</time>
      </trkpt>
      <trkpt lat="45.96548" lon="4.87023">
        <ele>283</ele>
        <time>2017-07-04T15:21:42Z</time>
      </trkpt>
      <trkpt lat="45.96549" lon="4.87025">
        <ele>283</ele>
        <time>2017-07-04T15:21:43Z</time>
      </trkpt>
      <trkpt lat="45.96556" lon="4.87028">
        <ele>283</ele>
        <time>2017-07-04T15:26:42Z</time>
      </trkpt>
      <trkpt lat="45.96558" lon="4.8703">
        <ele>283</ele>
        <time>2017-07-04T15:26:43Z</time>
      </trkpt>
      <trkpt lat="45.9656" lon="4.8704">
        <ele>283</ele>
        <time>2017-07-04T15:26:46Z</time>
      </trkpt>
      <trkpt lat="45.9656" lon="4.87044">
        <ele>283</ele>
        <time>2017-07-04T15:26:47Z</time>
      </trkpt>
      <trkpt lat="45.96561" lon="4.87057">
        <ele>283</ele>
        <time>2017-07-04T15:26:50Z</time>
      </trkpt>
      <trkpt lat="45.96562" lon="4.87061">
        <ele>283</ele>
        <time>2017-07-04T15:26:51Z</time>
      </trkpt>
      <trkpt lat="45.96557" lon="4.8707">
        <ele>283</ele>
        <time>2017-07-04T15:26:55Z</time>
      </trkpt>
      <trkpt lat="45.96555" lon="4.87071">
        <ele>283</ele>
        <time>2017-07-04T15:26:56Z</time>
      </trkpt>
      <trkpt lat="45.96547" lon="4.87071">
        <ele>283</ele>
        <time>2017-07-04T15:27:00Z</time>
      </trkpt>
      <trkpt lat="45.96546" lon="4.87069">
        <ele>283</ele>
        <time>2017-07-04T15:27:01Z</time>
      </trkpt>
      <trkpt lat="45.96543" lon="4.87057">
        <ele>283</ele>
        <time>2017-07-04T15:27:07Z</time>
      </trkpt>
      <trkpt lat="45.96544" lon="4.87054">
        <ele>283</ele>
        <time>2017-07-04T15:27:08Z</time>
      </trkpt>
      <trkpt lat="45.96541" lon="4.87043">
        <ele>283</ele>
        <time>2017-07-04T15:27:11Z</time>
      </trkpt>
      <trkpt lat="45.9654" lon="4.87038">
        <ele>283</ele>
        <time>2017-07-04T15:27:12Z</time>
      </trkpt>
      <trkpt lat="45.96536" lon="4.87027">
        <ele>283</ele>
        <time>2017-07-04T15:27:16Z</time>
      </trkpt>
      <trkpt lat="45.96535" lon="4.87027">
        <ele>283</ele>
        <time>2017-07-04T15:27:17Z</time>
      </trkpt>
      <trkpt lat="45.96534" lon="4.87027">
        <ele>283</ele>
        <time>2017-07-04T15:27:22Z</time>
      </trkpt>
      <trkpt lat="45.96534" lon="4.87026">
        <ele>283</ele>
        <time>2017-07-04T15:27:23Z</time>
      </trkpt>
      <trkpt lat="45.96535" lon="4.87022">
        <ele>283</ele>
        <time>2017-07-04T15:27:26Z</time>
      </trkpt>
      <trkpt lat="45.96536" lon="4.8702">
        <ele>283</ele>
        <time>2017-07-04T15:27:27Z</time>
      </trkpt>
      <trkpt lat="45.96541" lon="4.8701">
        <ele>283</ele>
        <time>2017-07-04T15:27:32Z</time>
      </trkpt>
      <trkpt lat="45.96543" lon="4.87007">
        <ele>283</ele>
        <time>2017-07-04T15:27:33Z</time>
      </trkpt>
      <trkpt lat="45.96546" lon="4.86997">
        <ele>283</ele>
        <time>2017-07-04T15:27:36Z</time>
      </trkpt>
      <trkpt lat="45.96548" lon="4.86993">
        <ele>283</ele>
        <time>2017-07-04T15:27:37Z</time>
      </trkpt>
      <trkpt lat="45.96554" lon="4.86985">
        <ele>283</ele>
        <time>2017-07-04T15:27:39Z</time>
      </trkpt>
      <trkpt lat="45.96557" lon="4.8698">
        <ele>283</ele>
        <time>2017-07-04T15:27:40Z</time>
      </trkpt>
      <trkpt lat="45.9656" lon="4.86974">
        <ele>283</ele>
        <time>2017-07-04T15:27:41Z</time>
      </trkpt>
      <trkpt lat="45.96562" lon="4.8697">
        <ele>283</ele>
        <time>2017-07-04T15:27:42Z</time>
      </trkpt>
      <trkpt lat="45.96568" lon="4.8696">
        <ele>284</ele>
        <time>2017-07-04T15:27:44Z</time>
      </trkpt>
      <trkpt lat="45.96571" lon="4.86955">
        <ele>284</ele>
        <time>2017-07-04T15:27:45Z</time>
      </trkpt>
      <trkpt lat="45.96576" lon="4.86946">
        <ele>284</ele>
        <time>2017-07-04T15:27:47Z</time>
      </trkpt>
      <trkpt lat="45.96579" lon="4.86942">
        <ele>284</ele>
        <time>2017-07-04T15:27:48Z</time>
      </trkpt>
      <trkpt lat="45.96584" lon="4.86933">
        <ele>286</ele>
        <time>2017-07-04T15:27:50Z</time>
      </trkpt>
      <trkpt lat="45.96586" lon="4.86928">
        <ele>285</ele>
        <time>2017-07-04T15:27:51Z</time>
      </trkpt>
      <trkpt lat="45.9659" lon="4.86924">
        <ele>285</ele>
        <time>2017-07-04T15:27:52Z</time>
      </trkpt>
      <trkpt lat="45.96592" lon="4.86919">
        <ele>285</ele>
        <time>2017-07-04T15:27:53Z</time>
      </trkpt>
      <trkpt lat="45.96598" lon="4.8691">
        <ele>286</ele>
        <time>2017-07-04T15:27:55Z</time>
      </trkpt>
      <trkpt lat="45.966" lon="4.86907">
        <ele>286</ele>
        <time>2017-07-04T15:27:56Z</time>
      </trkpt>
      <trkpt lat="45.96605" lon="4.869">
        <ele>286</ele>
        <time>2017-07-04T15:27:58Z</time>
      </trkpt>
      <trkpt lat="45.96607" lon="4.86897">
        <ele>287</ele>
        <time>2017-07-04T15:27:59Z</time>
      </trkpt>
      <trkpt lat="45.96613" lon="4.86891">
        <ele>287</ele>
        <time>2017-07-04T15:28:02Z</time>
      </trkpt>
      <trkpt lat="45.96615" lon="4.86889">
        <ele>287</ele>
        <time>2017-07-04T15:28:03Z</time>
      </trkpt>
      <trkpt lat="45.96616" lon="4.86887">
        <ele>287</ele>
        <time>2017-07-04T15:28:04Z</time>
      </trkpt>
      <trkpt lat="45.96617" lon="4.86886">
        <ele>287</ele>
        <time>2017-07-04T15:28:05Z</time>
      </trkpt>
      <trkpt lat="45.96616" lon="4.86884">
        <ele>287</ele>
        <time>2017-07-04T15:28:32Z</time>
      </trkpt>
      <trkpt lat="45.96617" lon="4.8688">
        <ele>287</ele>
        <time>2017-07-04T15:28:33Z</time>
      </trkpt>
      <trkpt lat="45.96623" lon="4.86871">
        <ele>287</ele>
        <time>2017-07-04T15:28:38Z</time>
      </trkpt>
      <trkpt lat="45.96625" lon="4.86868">
        <ele>287</ele>
        <time>2017-07-04T15:28:39Z</time>
      </trkpt>
      <trkpt lat="45.9663" lon="4.86863">
        <ele>287</ele>
        <time>2017-07-04T15:28:41Z</time>
      </trkpt>
      <trkpt lat="45.96632" lon="4.8686">
        <ele>287</ele>
        <time>2017-07-04T15:28:42Z</time>
      </trkpt>
      <trkpt lat="45.96638" lon="4.86851">
        <ele>287</ele>
        <time>2017-07-04T15:28:44Z</time>
      </trkpt>
      <trkpt lat="45.96642" lon="4.86846">
        <ele>287</ele>
        <time>2017-07-04T15:28:45Z</time>
      </trkpt>
      <trkpt lat="45.96644" lon="4.8684">
        <ele>287</ele>
        <time>2017-07-04T15:28:46Z</time>
      </trkpt>
      <trkpt lat="45.96647" lon="4.86834">
        <ele>287</ele>
        <time>2017-07-04T15:28:47Z</time>
      </trkpt>
      <trkpt lat="45.9665" lon="4.86828">
        <ele>288</ele>
        <time>2017-07-04T15:28:48Z</time>
      </trkpt>
      <trkpt lat="45.96653" lon="4.86822">
        <ele>288</ele>
        <time>2017-07-04T15:28:49Z</time>
      </trkpt>
      <trkpt lat="45.96656" lon="4.86816">
        <ele>288</ele>
        <time>2017-07-04T15:28:50Z</time>
      </trkpt>
      <trkpt lat="45.9666" lon="4.86811">
        <ele>288</ele>
        <time>2017-07-04T15:28:51Z</time>
      </trkpt>
      <trkpt lat="45.96663" lon="4.86805">
        <ele>288</ele>
        <time>2017-07-04T15:28:52Z</time>
      </trkpt>
      <trkpt lat="45.96665" lon="4.868">
        <ele>288</ele>
        <time>2017-07-04T15:28:53Z</time>
      </trkpt>
      <trkpt lat="45.96671" lon="4.86791">
        <ele>289</ele>
        <time>2017-07-04T15:28:55Z</time>
      </trkpt>
      <trkpt lat="45.96673" lon="4.86787">
        <ele>289</ele>
        <time>2017-07-04T15:28:56Z</time>
      </trkpt>
      <trkpt lat="45.9668" lon="4.86779">
        <ele>289</ele>
        <time>2017-07-04T15:28:58Z</time>
      </trkpt>
      <trkpt lat="45.96683" lon="4.86773">
        <ele>289</ele>
        <time>2017-07-04T15:28:59Z</time>
      </trkpt>
      <trkpt lat="45.96687" lon="4.86768">
        <ele>289</ele>
        <time>2017-07-04T15:29:00Z</time>
      </trkpt>
      <trkpt lat="45.9669" lon="4.86763">
        <ele>289</ele>
        <time>2017-07-04T15:29:01Z</time>
      </trkpt>
      <trkpt lat="45.96694" lon="4.86757">
        <ele>289</ele>
        <time>2017-07-04T15:29:02Z</time>
      </trkpt>
      <trkpt lat="45.96697" lon="4.86751">
        <ele>289</ele>
        <time>2017-07-04T15:29:03Z</time>
      </trkpt>
      <trkpt lat="45.96701" lon="4.86744">
        <ele>289</ele>
        <time>2017-07-04T15:29:04Z</time>
      </trkpt>
      <trkpt lat="45.96704" lon="4.86739">
        <ele>289</ele>
        <time>2017-07-04T15:29:05Z</time>
      </trkpt>
      <trkpt lat="45.96707" lon="4.86733">
        <ele>289</ele>
        <time>2017-07-04T15:29:06Z</time>
      </trkpt>
      <trkpt lat="45.9671" lon="4.86728">
        <ele>289</ele>
        <time>2017-07-04T15:29:07Z</time>
      </trkpt>
      <trkpt lat="45.96713" lon="4.86722">
        <ele>289</ele>
        <time>2017-07-04T15:29:08Z</time>
      </trkpt>
      <trkpt lat="45.96717" lon="4.86716">
        <ele>289</ele>
        <time>2017-07-04T15:29:09Z</time>
      </trkpt>
      <trkpt lat="45.96721" lon="4.86707">
        <ele>289</ele>
        <time>2017-07-04T15:29:11Z</time>
      </trkpt>
      <trkpt lat="45.96724" lon="4.86702">
        <ele>289</ele>
        <time>2017-07-04T15:29:12Z</time>
      </trkpt>
      <trkpt lat="45.9673" lon="4.86693">
        <ele>289</ele>
        <time>2017-07-04T15:29:14Z</time>
      </trkpt>
      <trkpt lat="45.96733" lon="4.86689">
        <ele>289</ele>
        <time>2017-07-04T15:29:15Z</time>
      </trkpt>
      <trkpt lat="45.96736" lon="4.86684">
        <ele>290</ele>
        <time>2017-07-04T15:29:16Z</time>
      </trkpt>
      <trkpt lat="45.96739" lon="4.86679">
        <ele>290</ele>
        <time>2017-07-04T15:29:17Z</time>
      </trkpt>
      <trkpt lat="45.96745" lon="4.86669">
        <ele>290</ele>
        <time>2017-07-04T15:29:19Z</time>
      </trkpt>
      <trkpt lat="45.96747" lon="4.86664">
        <ele>290</ele>
        <time>2017-07-04T15:29:20Z</time>
      </trkpt>
      <trkpt lat="45.96751" lon="4.86655">
        <ele>290</ele>
        <time>2017-07-04T15:29:22Z</time>
      </trkpt>
      <trkpt lat="45.96753" lon="4.8665">
        <ele>290</ele>
        <time>2017-07-04T15:29:23Z</time>
      </trkpt>
      <trkpt lat="45.96754" lon="4.86644">
        <ele>290</ele>
        <time>2017-07-04T15:29:24Z</time>
      </trkpt>
      <trkpt lat="45.96754" lon="4.86637">
        <ele>290</ele>
        <time>2017-07-04T15:29:25Z</time>
      </trkpt>
      <trkpt lat="45.96751" lon="4.86631">
        <ele>290</ele>
        <time>2017-07-04T15:29:26Z</time>
      </trkpt>
      <trkpt lat="45.96747" lon="4.86628">
        <ele>290</ele>
        <time>2017-07-04T15:29:27Z</time>
      </trkpt>
      <trkpt lat="45.96742" lon="4.86626">
        <ele>290</ele>
        <time>2017-07-04T15:29:28Z</time>
      </trkpt>
      <trkpt lat="45.96737" lon="4.86625">
        <ele>290</ele>
        <time>2017-07-04T15:29:29Z</time>
      </trkpt>
      <trkpt lat="45.96732" lon="4.86624">
        <ele>290</ele>
        <time>2017-07-04T15:29:30Z</time>
      </trkpt>
      <trkpt lat="45.96727" lon="4.86623">
        <ele>290</ele>
        <time>2017-07-04T15:29:31Z</time>
      </trkpt>
      <trkpt lat="45.96719" lon="4.86618">
        <ele>290</ele>
        <time>2017-07-04T15:29:33Z</time>
      </trkpt>
      <trkpt lat="45.96715" lon="4.86615">
        <ele>290</ele>
        <time>2017-07-04T15:29:34Z</time>
      </trkpt>
      <trkpt lat="45.96711" lon="4.86612">
        <ele>290</ele>
        <time>2017-07-04T15:29:35Z</time>
      </trkpt>
      <trkpt lat="45.96707" lon="4.86609">
        <ele>290</ele>
        <time>2017-07-04T15:29:36Z</time>
      </trkpt>
      <trkpt lat="45.96703" lon="4.86605">
        <ele>290</ele>
        <time>2017-07-04T15:29:37Z</time>
      </trkpt>
      <trkpt lat="45.96698" lon="4.86602">
        <ele>290</ele>
        <time>2017-07-04T15:29:38Z</time>
      </trkpt>
      <trkpt lat="45.96693" lon="4.86599">
        <ele>290</ele>
        <time>2017-07-04T15:29:39Z</time>
      </trkpt>
      <trkpt lat="45.96688" lon="4.86594">
        <ele>290</ele>
        <time>2017-07-04T15:29:40Z</time>
      </trkpt>
      <trkpt lat="45.96684" lon="4.86589">
        <ele>290</ele>
        <time>2017-07-04T15:29:41Z</time>
      </trkpt>
      <trkpt lat="45.9668" lon="4.86585">
        <ele>290</ele>
        <time>2017-07-04T15:29:42Z</time>
      </trkpt>
      <trkpt lat="45.96676" lon="4.8658">
        <ele>290</ele>
        <time>2017-07-04T15:29:43Z</time>
      </trkpt>
      <trkpt lat="45.96672" lon="4.86576">
        <ele>290</ele>
        <time>2017-07-04T15:29:44Z</time>
      </trkpt>
      <trkpt lat="45.96668" lon="4.86571">
        <ele>290</ele>
        <time>2017-07-04T15:29:45Z</time>
      </trkpt>
      <trkpt lat="45.96663" lon="4.86567">
        <ele>290</ele>
        <time>2017-07-04T15:29:46Z</time>
      </trkpt>
      <trkpt lat="45.96659" lon="4.86564">
        <ele>290</ele>
        <time>2017-07-04T15:29:47Z</time>
      </trkpt>
      <trkpt lat="45.96655" lon="4.8656">
        <ele>290</ele>
        <time>2017-07-04T15:29:48Z</time>
      </trkpt>
      <trkpt lat="45.96647" lon="4.86553">
        <ele>291</ele>
        <time>2017-07-04T15:29:50Z</time>
      </trkpt>
      <trkpt lat="45.96644" lon="4.8655">
        <ele>291</ele>
        <time>2017-07-04T15:29:51Z</time>
      </trkpt>
      <trkpt lat="45.96637" lon="4.86543">
        <ele>291</ele>
        <time>2017-07-04T15:29:53Z</time>
      </trkpt>
      <trkpt lat="45.96633" lon="4.8654">
        <ele>291</ele>
        <time>2017-07-04T15:29:54Z</time>
      </trkpt>
      <trkpt lat="45.96627" lon="4.86534">
        <ele>291</ele>
        <time>2017-07-04T15:29:56Z</time>
      </trkpt>
      <trkpt lat="45.96623" lon="4.86531">
        <ele>291</ele>
        <time>2017-07-04T15:29:57Z</time>
      </trkpt>
      <trkpt lat="45.96619" lon="4.86527">
        <ele>291</ele>
        <time>2017-07-04T15:29:58Z</time>
      </trkpt>
      <trkpt lat="45.96615" lon="4.86524">
        <ele>291</ele>
        <time>2017-07-04T15:29:59Z</time>
      </trkpt>
      <trkpt lat="45.96611" lon="4.8652">
        <ele>291</ele>
        <time>2017-07-04T15:30:00Z</time>
      </trkpt>
      <trkpt lat="45.96606" lon="4.86516">
        <ele>291</ele>
        <time>2017-07-04T15:30:01Z</time>
      </trkpt>
      <trkpt lat="45.96602" lon="4.86512">
        <ele>291</ele>
        <time>2017-07-04T15:30:02Z</time>
      </trkpt>
      <trkpt lat="45.96598" lon="4.86508">
        <ele>291</ele>
        <time>2017-07-04T15:30:03Z</time>
      </trkpt>
      <trkpt lat="45.96594" lon="4.86503">
        <ele>292</ele>
        <time>2017-07-04T15:30:04Z</time>
      </trkpt>
      <trkpt lat="45.9659" lon="4.86498">
        <ele>292</ele>
        <time>2017-07-04T15:30:05Z</time>
      </trkpt>
      <trkpt lat="45.96588" lon="4.86492">
        <ele>292</ele>
        <time>2017-07-04T15:30:06Z</time>
      </trkpt>
      <trkpt lat="45.96585" lon="4.86485">
        <ele>292</ele>
        <time>2017-07-04T15:30:07Z</time>
      </trkpt>
      <trkpt lat="45.96583" lon="4.86479">
        <ele>290</ele>
        <time>2017-07-04T15:30:08Z</time>
      </trkpt>
      <trkpt lat="45.96582" lon="4.86472">
        <ele>290</ele>
        <time>2017-07-04T15:30:09Z</time>
      </trkpt>
      <trkpt lat="45.9658" lon="4.86464">
        <ele>289</ele>
        <time>2017-07-04T15:30:10Z</time>
      </trkpt>
      <trkpt lat="45.9658" lon="4.86458">
        <ele>289</ele>
        <time>2017-07-04T15:30:11Z</time>
      </trkpt>
      <trkpt lat="45.9658" lon="4.8645">
        <ele>289</ele>
        <time>2017-07-04T15:30:12Z</time>
      </trkpt>
      <trkpt lat="45.9658" lon="4.86442">
        <ele>289</ele>
        <time>2017-07-04T15:30:13Z</time>
      </trkpt>
      <trkpt lat="45.9658" lon="4.86434">
        <ele>289</ele>
        <time>2017-07-04T15:30:14Z</time>
      </trkpt>
      <trkpt lat="45.9658" lon="4.86426">
        <ele>289</ele>
        <time>2017-07-04T15:30:15Z</time>
      </trkpt>
      <trkpt lat="45.9658" lon="4.86417">
        <ele>290</ele>
        <time>2017-07-04T15:30:16Z</time>
      </trkpt>
      <trkpt lat="45.96579" lon="4.86408">
        <ele>288</ele>
        <time>2017-07-04T15:30:17Z</time>
      </trkpt>
      <trkpt lat="45.96579" lon="4.864">
        <ele>288</ele>
        <time>2017-07-04T15:30:18Z</time>
      </trkpt>
      <trkpt lat="45.96579" lon="4.8639">
        <ele>287</ele>
        <time>2017-07-04T15:30:19Z</time>
      </trkpt>
      <trkpt lat="45.96579" lon="4.86381">
        <ele>286</ele>
        <time>2017-07-04T15:30:20Z</time>
      </trkpt>
      <trkpt lat="45.96579" lon="4.86372">
        <ele>286</ele>
        <time>2017-07-04T15:30:21Z</time>
      </trkpt>
      <trkpt lat="45.9658" lon="4.86363">
        <ele>286</ele>
        <time>2017-07-04T15:30:22Z</time>
      </trkpt>
      <trkpt lat="45.9658" lon="4.86354">
        <ele>285</ele>
        <time>2017-07-04T15:30:23Z</time>
      </trkpt>
      <trkpt lat="45.9658" lon="4.86344">
        <ele>285</ele>
        <time>2017-07-04T15:30:24Z</time>
      </trkpt>
      <trkpt lat="45.9658" lon="4.86335">
        <ele>285</ele>
        <time>2017-07-04T15:30:25Z</time>
      </trkpt>
      <trkpt lat="45.9658" lon="4.86325">
        <ele>284</ele>
        <time>2017-07-04T15:30:26Z</time>
      </trkpt>
      <trkpt lat="45.96581" lon="4.86315">
        <ele>283</ele>
        <time>2017-07-04T15:30:27Z</time>
      </trkpt>
      <trkpt lat="45.96581" lon="4.86306">
        <ele>283</ele>
        <time>2017-07-04T15:30:28Z</time>
      </trkpt>
      <trkpt lat="45.96582" lon="4.86296">
        <ele>282</ele>
        <time>2017-07-04T15:30:29Z</time>
      </trkpt>
      <trkpt lat="45.96583" lon="4.86286">
        <ele>282</ele>
        <time>2017-07-04T15:30:30Z</time>
      </trkpt>
      <trkpt lat="45.96584" lon="4.86275">
        <ele>283</ele>
        <time>2017-07-04T15:30:31Z</time>
      </trkpt>
      <trkpt lat="45.96584" lon="4.86265">
        <ele>283</ele>
        <time>2017-07-04T15:30:32Z</time>
      </trkpt>
      <trkpt lat="45.96585" lon="4.86253">
        <ele>282</ele>
        <time>2017-07-04T15:30:33Z</time>
      </trkpt>
      <trkpt lat="45.96587" lon="4.86242">
        <ele>281</ele>
        <time>2017-07-04T15:30:34Z</time>
      </trkpt>
      <trkpt lat="45.96588" lon="4.8623">
        <ele>282</ele>
        <time>2017-07-04T15:30:35Z</time>
      </trkpt>
      <trkpt lat="45.9659" lon="4.86218">
        <ele>282</ele>
        <time>2017-07-04T15:30:36Z</time>
      </trkpt>
      <trkpt lat="45.96591" lon="4.86205">
        <ele>282</ele>
        <time>2017-07-04T15:30:37Z</time>
      </trkpt>
      <trkpt lat="45.96593" lon="4.86192">
        <ele>282</ele>
        <time>2017-07-04T15:30:38Z</time>
      </trkpt>
      <trkpt lat="45.96594" lon="4.86178">
        <ele>281</ele>
        <time>2017-07-04T15:30:39Z</time>
      </trkpt>
      <trkpt lat="45.96595" lon="4.86165">
        <ele>281</ele>
        <time>2017-07-04T15:30:40Z</time>
      </trkpt>
      <trkpt lat="45.96597" lon="4.86151">
        <ele>281</ele>
        <time>2017-07-04T15:30:41Z</time>
      </trkpt>
      <trkpt lat="45.96598" lon="4.86138">
        <ele>281</ele>
        <time>2017-07-04T15:30:42Z</time>
      </trkpt>
      <trkpt lat="45.96599" lon="4.86124">
        <ele>281</ele>
        <time>2017-07-04T15:30:43Z</time>
      </trkpt>
      <trkpt lat="45.96599" lon="4.86111">
        <ele>281</ele>
        <time>2017-07-04T15:30:44Z</time>
      </trkpt>
      <trkpt lat="45.96598" lon="4.86097">
        <ele>280</ele>
        <time>2017-07-04T15:30:45Z</time>
      </trkpt>
      <trkpt lat="45.96595" lon="4.86084">
        <ele>280</ele>
        <time>2017-07-04T15:30:46Z</time>
      </trkpt>
      <trkpt lat="45.96591" lon="4.8607">
        <ele>279</ele>
        <time>2017-07-04T15:30:47Z</time>
      </trkpt>
      <trkpt lat="45.96585" lon="4.86058">
        <ele>280</ele>
        <time>2017-07-04T15:30:48Z</time>
      </trkpt>
      <trkpt lat="45.96579" lon="4.86045">
        <ele>276</ele>
        <time>2017-07-04T15:30:49Z</time>
      </trkpt>
      <trkpt lat="45.96572" lon="4.86033">
        <ele>276</ele>
        <time>2017-07-04T15:30:50Z</time>
      </trkpt>
      <trkpt lat="45.96566" lon="4.8602">
        <ele>276</ele>
        <time>2017-07-04T15:30:51Z</time>
      </trkpt>
      <trkpt lat="45.96559" lon="4.86008">
        <ele>276</ele>
        <time>2017-07-04T15:30:52Z</time>
      </trkpt>
      <trkpt lat="45.96553" lon="4.85996">
        <ele>276</ele>
        <time>2017-07-04T15:30:53Z</time>
      </trkpt>
      <trkpt lat="45.96546" lon="4.85984">
        <ele>275</ele>
        <time>2017-07-04T15:30:54Z</time>
      </trkpt>
      <trkpt lat="45.9654" lon="4.85972">
        <ele>275</ele>
        <time>2017-07-04T15:30:55Z</time>
      </trkpt>
      <trkpt lat="45.96534" lon="4.8596">
        <ele>275</ele>
        <time>2017-07-04T15:30:56Z</time>
      </trkpt>
      <trkpt lat="45.96528" lon="4.85947">
        <ele>275</ele>
        <time>2017-07-04T15:30:57Z</time>
      </trkpt>
      <trkpt lat="45.96523" lon="4.85935">
        <ele>275</ele>
        <time>2017-07-04T15:30:58Z</time>
      </trkpt>
      <trkpt lat="45.96519" lon="4.85922">
        <ele>275</ele>
        <time>2017-07-04T15:30:59Z</time>
      </trkpt>
      <trkpt lat="45.96515" lon="4.85908">
        <ele>275</ele>
        <time>2017-07-04T15:31:00Z</time>
      </trkpt>
      <trkpt lat="45.96512" lon="4.85895">
        <ele>275</ele>
        <time>2017-07-04T15:31:01Z</time>
      </trkpt>
      <trkpt lat="45.9651" lon="4.85882">
        <ele>275</ele>
        <time>2017-07-04T15:31:02Z</time>
      </trkpt>
      <trkpt lat="45.96508" lon="4.85868">
        <ele>275</ele>
        <time>2017-07-04T15:31:03Z</time>
      </trkpt>
      <trkpt lat="45.96506" lon="4.85855">
        <ele>275</ele>
        <time>2017-07-04T15:31:04Z</time>
      </trkpt>
      <trkpt lat="45.96504" lon="4.85841">
        <ele>275</ele>
        <time>2017-07-04T15:31:05Z</time>
      </trkpt>
      <trkpt lat="45.96502" lon="4.85828">
        <ele>275</ele>
        <time>2017-07-04T15:31:06Z</time>
      </trkpt>
      <trkpt lat="45.965" lon="4.85814">
        <ele>275</ele>
        <time>2017-07-04T15:31:07Z</time>
      </trkpt>
      <trkpt lat="45.96499" lon="4.85801">
        <ele>274</ele>
        <time>2017-07-04T15:31:08Z</time>
      </trkpt>
      <trkpt lat="45.96496" lon="4.85788">
        <ele>274</ele>
        <time>2017-07-04T15:31:09Z</time>
      </trkpt>
      <trkpt lat="45.96494" lon="4.85775">
        <ele>274</ele>
        <time>2017-07-04T15:31:10Z</time>
      </trkpt>
      <trkpt lat="45.96492" lon="4.85762">
        <ele>274</ele>
        <time>2017-07-04T15:31:11Z</time>
      </trkpt>
      <trkpt lat="45.96491" lon="4.85749">
        <ele>273</ele>
        <time>2017-07-04T15:31:12Z</time>
      </trkpt>
      <trkpt lat="45.96489" lon="4.85737">
        <ele>273</ele>
        <time>2017-07-04T15:31:13Z</time>
      </trkpt>
      <trkpt lat="45.96488" lon="4.85725">
        <ele>273</ele>
        <time>2017-07-04T15:31:14Z</time>
      </trkpt>
      <trkpt lat="45.96487" lon="4.85712">
        <ele>272</ele>
        <time>2017-07-04T15:31:15Z</time>
      </trkpt>
      <trkpt lat="45.96485" lon="4.85701">
        <ele>272</ele>
        <time>2017-07-04T15:31:16Z</time>
      </trkpt>
      <trkpt lat="45.96483" lon="4.85689">
        <ele>272</ele>
        <time>2017-07-04T15:31:17Z</time>
      </trkpt>
      <trkpt lat="45.96482" lon="4.85678">
        <ele>272</ele>
        <time>2017-07-04T15:31:18Z</time>
      </trkpt>
      <trkpt lat="45.96481" lon="4.85666">
        <ele>271</ele>
        <time>2017-07-04T15:31:19Z</time>
      </trkpt>
      <trkpt lat="45.96479" lon="4.85654">
        <ele>271</ele>
        <time>2017-07-04T15:31:20Z</time>
      </trkpt>
      <trkpt lat="45.96477" lon="4.85642">
        <ele>271</ele>
        <time>2017-07-04T15:31:21Z</time>
      </trkpt>
      <trkpt lat="45.96476" lon="4.85631">
        <ele>271</ele>
        <time>2017-07-04T15:31:22Z</time>
      </trkpt>
      <trkpt lat="45.96474" lon="4.8562">
        <ele>271</ele>
        <time>2017-07-04T15:31:23Z</time>
      </trkpt>
      <trkpt lat="45.96473" lon="4.85609">
        <ele>271</ele>
        <time>2017-07-04T15:31:24Z</time>
      </trkpt>
      <trkpt lat="45.96472" lon="4.85599">
        <ele>271</ele>
        <time>2017-07-04T15:31:25Z</time>
      </trkpt>
      <trkpt lat="45.96471" lon="4.85588">
        <ele>271</ele>
        <time>2017-07-04T15:31:26Z</time>
      </trkpt>
      <trkpt lat="45.9647" lon="4.85577">
        <ele>272</ele>
        <time>2017-07-04T15:31:27Z</time>
      </trkpt>
      <trkpt lat="45.96469" lon="4.85567">
        <ele>272</ele>
        <time>2017-07-04T15:31:28Z</time>
      </trkpt>
      <trkpt lat="45.96468" lon="4.85556">
        <ele>272</ele>
        <time>2017-07-04T15:31:29Z</time>
      </trkpt>
      <trkpt lat="45.96467" lon="4.85545">
        <ele>272</ele>
        <time>2017-07-04T15:31:30Z</time>
      </trkpt>
      <trkpt lat="45.96467" lon="4.85535">
        <ele>272</ele>
        <time>2017-07-04T15:31:31Z</time>
      </trkpt>
      <trkpt lat="45.96466" lon="4.85524">
        <ele>272</ele>
        <time>2017-07-04T15:31:32Z</time>
      </trkpt>
      <trkpt lat="45.96466" lon="4.85514">
        <ele>272</ele>
        <time>2017-07-04T15:31:33Z</time>
      </trkpt>
      <trkpt lat="45.96466" lon="4.85503">
        <ele>272</ele>
        <time>2017-07-04T15:31:34Z</time>
      </trkpt>
      <trkpt lat="45.96466" lon="4.85493">
        <ele>272</ele>
        <time>2017-07-04T15:31:35Z</time>
      </trkpt>
      <trkpt lat="45.96466" lon="4.85483">
        <ele>272</ele>
        <time>2017-07-04T15:31:36Z</time>
      </trkpt>
      <trkpt lat="45.96467" lon="4.85473">
        <ele>272</ele>
        <time>2017-07-04T15:31:37Z</time>
      </trkpt>
      <trkpt lat="45.96467" lon="4.85463">
        <ele>272</ele>
        <time>2017-07-04T15:31:38Z</time>
      </trkpt>
      <trkpt lat="45.96466" lon="4.85454">
        <ele>272</ele>
        <time>2017-07-04T15:31:39Z</time>
      </trkpt>
      <trkpt lat="45.96466" lon="4.85445">
        <ele>272</ele>
        <time>2017-07-04T15:31:40Z</time>
      </trkpt>
      <trkpt lat="45.96466" lon="4.85436">
        <ele>272</ele>
        <time>2017-07-04T15:31:41Z</time>
      </trkpt>
      <trkpt lat="45.96466" lon="4.85428">
        <ele>272</ele>
        <time>2017-07-04T15:31:42Z</time>
      </trkpt>
      <trkpt lat="45.96465" lon="4.85419">
        <ele>272</ele>
        <time>2017-07-04T15:31:43Z</time>
      </trkpt>
      <trkpt lat="45.96464" lon="4.85411">
        <ele>272</ele>
        <time>2017-07-04T15:31:44Z</time>
      </trkpt>
      <trkpt lat="45.96463" lon="4.85402">
        <ele>272</ele>
        <time>2017-07-04T15:31:45Z</time>
      </trkpt>
      <trkpt lat="45.96463" lon="4.85393">
        <ele>272</ele>
        <time>2017-07-04T15:31:46Z</time>
      </trkpt>
      <trkpt lat="45.96462" lon="4.85383">
        <ele>272</ele>
        <time>2017-07-04T15:31:47Z</time>
      </trkpt>
      <trkpt lat="45.96461" lon="4.85374">
        <ele>272</ele>
        <time>2017-07-04T15:31:48Z</time>
      </trkpt>
      <trkpt lat="45.9646" lon="4.85364">
        <ele>272</ele>
        <time>2017-07-04T15:31:49Z</time>
      </trkpt>
      <trkpt lat="45.96458" lon="4.85354">
        <ele>272</ele>
        <time>2017-07-04T15:31:50Z</time>
      </trkpt>
      <trkpt lat="45.96458" lon="4.85344">
        <ele>272</ele>
        <time>2017-07-04T15:31:51Z</time>
      </trkpt>
      <trkpt lat="45.96457" lon="4.85335">
        <ele>272</ele>
        <time>2017-07-04T15:31:52Z</time>
      </trkpt>
      <trkpt lat="45.96456" lon="4.85325">
        <ele>271</ele>
        <time>2017-07-04T15:31:53Z</time>
      </trkpt>
      <trkpt lat="45.96455" lon="4.85315">
        <ele>271</ele>
        <time>2017-07-04T15:31:54Z</time>
      </trkpt>
      <trkpt lat="45.96454" lon="4.85306">
        <ele>271</ele>
        <time>2017-07-04T15:31:55Z</time>
      </trkpt>
      <trkpt lat="45.96453" lon="4.85297">
        <ele>270</ele>
        <time>2017-07-04T15:31:56Z</time>
      </trkpt>
      <trkpt lat="45.96452" lon="4.85288">
        <ele>270</ele>
        <time>2017-07-04T15:31:57Z</time>
      </trkpt>
      <trkpt lat="45.96452" lon="4.85279">
        <ele>270</ele>
        <time>2017-07-04T15:31:58Z</time>
      </trkpt>
      <trkpt lat="45.96451" lon="4.8527">
        <ele>270</ele>
        <time>2017-07-04T15:31:59Z</time>
      </trkpt>
      <trkpt lat="45.96451" lon="4.85261">
        <ele>270</ele>
        <time>2017-07-04T15:32:00Z</time>
      </trkpt>
      <trkpt lat="45.96451" lon="4.85252">
        <ele>270</ele>
        <time>2017-07-04T15:32:01Z</time>
      </trkpt>
      <trkpt lat="45.96451" lon="4.85243">
        <ele>269</ele>
        <time>2017-07-04T15:32:02Z</time>
      </trkpt>
      <trkpt lat="45.96452" lon="4.85233">
        <ele>269</ele>
        <time>2017-07-04T15:32:03Z</time>
      </trkpt>
      <trkpt lat="45.96452" lon="4.85223">
        <ele>269</ele>
        <time>2017-07-04T15:32:04Z</time>
      </trkpt>
      <trkpt lat="45.96453" lon="4.85213">
        <ele>269</ele>
        <time>2017-07-04T15:32:05Z</time>
      </trkpt>
      <trkpt lat="45.96454" lon="4.85203">
        <ele>269</ele>
        <time>2017-07-04T15:32:06Z</time>
      </trkpt>
      <trkpt lat="45.96455" lon="4.85194">
        <ele>269</ele>
        <time>2017-07-04T15:32:07Z</time>
      </trkpt>
      <trkpt lat="45.96456" lon="4.85184">
        <ele>269</ele>
        <time>2017-07-04T15:32:08Z</time>
      </trkpt>
      <trkpt lat="45.96457" lon="4.85174">
        <ele>269</ele>
        <time>2017-07-04T15:32:09Z</time>
      </trkpt>
      <trkpt lat="45.96458" lon="4.85164">
        <ele>268</ele>
        <time>2017-07-04T15:32:10Z</time>
      </trkpt>
      <trkpt lat="45.9646" lon="4.85154">
        <ele>268</ele>
        <time>2017-07-04T15:32:11Z</time>
      </trkpt>
      <trkpt lat="45.96462" lon="4.85144">
        <ele>268</ele>
        <time>2017-07-04T15:32:12Z</time>
      </trkpt>
      <trkpt lat="45.96465" lon="4.85134">
        <ele>268</ele>
        <time>2017-07-04T15:32:13Z</time>
      </trkpt>
      <trkpt lat="45.96467" lon="4.85124">
        <ele>268</ele>
        <time>2017-07-04T15:32:14Z</time>
      </trkpt>
      <trkpt lat="45.96469" lon="4.85113">
        <ele>268</ele>
        <time>2017-07-04T15:32:15Z</time>
      </trkpt>
      <trkpt lat="45.9647" lon="4.85102">
        <ele>268</ele>
        <time>2017-07-04T15:32:16Z</time>
      </trkpt>
      <trkpt lat="45.96471" lon="4.8509">
        <ele>268</ele>
        <time>2017-07-04T15:32:17Z</time>
      </trkpt>
      <trkpt lat="45.96471" lon="4.85078">
        <ele>267</ele>
        <time>2017-07-04T15:32:18Z</time>
      </trkpt>
      <trkpt lat="45.96472" lon="4.85067">
        <ele>266</ele>
        <time>2017-07-04T15:32:19Z</time>
      </trkpt>
      <trkpt lat="45.96472" lon="4.85055">
        <ele>266</ele>
        <time>2017-07-04T15:32:20Z</time>
      </trkpt>
      <trkpt lat="45.96472" lon="4.85042">
        <ele>266</ele>
        <time>2017-07-04T15:32:21Z</time>
      </trkpt>
      <trkpt lat="45.96473" lon="4.85029">
        <ele>266</ele>
        <time>2017-07-04T15:32:22Z</time>
      </trkpt>
      <trkpt lat="45.96474" lon="4.85016">
        <ele>266</ele>
        <time>2017-07-04T15:32:23Z</time>
      </trkpt>
      <trkpt lat="45.96475" lon="4.85003">
        <ele>266</ele>
        <time>2017-07-04T15:32:24Z</time>
      </trkpt>
      <trkpt lat="45.96476" lon="4.84989">
        <ele>263</ele>
        <time>2017-07-04T15:32:25Z</time>
      </trkpt>
      <trkpt lat="45.96478" lon="4.84975">
        <ele>262</ele>
        <time>2017-07-04T15:32:26Z</time>
      </trkpt>
      <trkpt lat="45.96481" lon="4.84961">
        <ele>261</ele>
        <time>2017-07-04T15:32:27Z</time>
      </trkpt>
      <trkpt lat="45.96484" lon="4.84947">
        <ele>260</ele>
        <time>2017-07-04T15:32:28Z</time>
      </trkpt>
      <trkpt lat="45.96487" lon="4.84933">
        <ele>259</ele>
        <time>2017-07-04T15:32:29Z</time>
      </trkpt>
      <trkpt lat="45.9649" lon="4.84918">
        <ele>258</ele>
        <time>2017-07-04T15:32:30Z</time>
      </trkpt>
      <trkpt lat="45.96493" lon="4.84904">
        <ele>256</ele>
        <time>2017-07-04T15:32:31Z</time>
      </trkpt>
      <trkpt lat="45.96496" lon="4.84889">
        <ele>256</ele>
        <time>2017-07-04T15:32:32Z</time>
      </trkpt>
      <trkpt lat="45.965" lon="4.84875">
        <ele>255</ele>
        <time>2017-07-04T15:32:33Z</time>
      </trkpt>
      <trkpt lat="45.96504" lon="4.8486">
        <ele>257</ele>
        <time>2017-07-04T15:32:34Z</time>
      </trkpt>
      <trkpt lat="45.96507" lon="4.84846">
        <ele>255</ele>
        <time>2017-07-04T15:32:35Z</time>
      </trkpt>
      <trkpt lat="45.96511" lon="4.84831">
        <ele>254</ele>
        <time>2017-07-04T15:32:36Z</time>
      </trkpt>
      <trkpt lat="45.96514" lon="4.84816">
        <ele>254</ele>
        <time>2017-07-04T15:32:37Z</time>
      </trkpt>
      <trkpt lat="45.96517" lon="4.84802">
        <ele>254</ele>
        <time>2017-07-04T15:32:38Z</time>
      </trkpt>
      <trkpt lat="45.96521" lon="4.84787">
        <ele>254</ele>
        <time>2017-07-04T15:32:39Z</time>
      </trkpt>
      <trkpt lat="45.96524" lon="4.84772">
        <ele>254</ele>
        <time>2017-07-04T15:32:40Z</time>
      </trkpt>
      <trkpt lat="45.96528" lon="4.84758">
        <ele>253</ele>
        <time>2017-07-04T15:32:41Z</time>
      </trkpt>
      <trkpt lat="45.96531" lon="4.84744">
        <ele>253</ele>
        <time>2017-07-04T15:32:42Z</time>
      </trkpt>
      <trkpt lat="45.96533" lon="4.84729">
        <ele>253</ele>
        <time>2017-07-04T15:32:43Z</time>
      </trkpt>
      <trkpt lat="45.96536" lon="4.84715">
        <ele>253</ele>
        <time>2017-07-04T15:32:44Z</time>
      </trkpt>
      <trkpt lat="45.96536" lon="4.84701">
        <ele>253</ele>
        <time>2017-07-04T15:32:45Z</time>
      </trkpt>
      <trkpt lat="45.96534" lon="4.84687">
        <ele>253</ele>
        <time>2017-07-04T15:32:46Z</time>
      </trkpt>
      <trkpt lat="45.9653" lon="4.84674">
        <ele>252</ele>
        <time>2017-07-04T15:32:47Z</time>
      </trkpt>
      <trkpt lat="45.96528" lon="4.84661">
        <ele>252</ele>
        <time>2017-07-04T15:32:48Z</time>
      </trkpt>
      <trkpt lat="45.96526" lon="4.84648">
        <ele>252</ele>
        <time>2017-07-04T15:32:49Z</time>
      </trkpt>
      <trkpt lat="45.96525" lon="4.84635">
        <ele>252</ele>
        <time>2017-07-04T15:32:50Z</time>
      </trkpt>
      <trkpt lat="45.96526" lon="4.84622">
        <ele>252</ele>
        <time>2017-07-04T15:32:51Z</time>
      </trkpt>
      <trkpt lat="45.96526" lon="4.8461">
        <ele>252</ele>
        <time>2017-07-04T15:32:52Z</time>
      </trkpt>
      <trkpt lat="45.96526" lon="4.84598">
        <ele>252</ele>
        <time>2017-07-04T15:32:53Z</time>
      </trkpt>
      <trkpt lat="45.96527" lon="4.84587">
        <ele>252</ele>
        <time>2017-07-04T15:32:54Z</time>
      </trkpt>
      <trkpt lat="45.96527" lon="4.84576">
        <ele>253</ele>
        <time>2017-07-04T15:32:55Z</time>
      </trkpt>
      <trkpt lat="45.96526" lon="4.84564">
        <ele>253</ele>
        <time>2017-07-04T15:32:56Z</time>
      </trkpt>
      <trkpt lat="45.96528" lon="4.84553">
        <ele>253</ele>
        <time>2017-07-04T15:32:57Z</time>
      </trkpt>
      <trkpt lat="45.96528" lon="4.84542">
        <ele>253</ele>
        <time>2017-07-04T15:32:58Z</time>
      </trkpt>
      <trkpt lat="45.96529" lon="4.84531">
        <ele>253</ele>
        <time>2017-07-04T15:32:59Z</time>
      </trkpt>
      <trkpt lat="45.9653" lon="4.84521">
        <ele>253</ele>
        <time>2017-07-04T15:33:00Z</time>
      </trkpt>
      <trkpt lat="45.96531" lon="4.8451">
        <ele>253</ele>
        <time>2017-07-04T15:33:01Z</time>
      </trkpt>
      <trkpt lat="45.96531" lon="4.84499">
        <ele>253</ele>
        <time>2017-07-04T15:33:02Z</time>
      </trkpt>
      <trkpt lat="45.96532" lon="4.84488">
        <ele>253</ele>
        <time>2017-07-04T15:33:03Z</time>
      </trkpt>
      <trkpt lat="45.96533" lon="4.84477">
        <ele>253</ele>
        <time>2017-07-04T15:33:04Z</time>
      </trkpt>
      <trkpt lat="45.96533" lon="4.84467">
        <ele>253</ele>
        <time>2017-07-04T15:33:05Z</time>
      </trkpt>
      <trkpt lat="45.96534" lon="4.84456">
        <ele>253</ele>
        <time>2017-07-04T15:33:06Z</time>
      </trkpt>
      <trkpt lat="45.96534" lon="4.84446">
        <ele>253</ele>
        <time>2017-07-04T15:33:07Z</time>
      </trkpt>
      <trkpt lat="45.96535" lon="4.84436">
        <ele>253</ele>
        <time>2017-07-04T15:33:08Z</time>
      </trkpt>
      <trkpt lat="45.96535" lon="4.84426">
        <ele>253</ele>
        <time>2017-07-04T15:33:09Z</time>
      </trkpt>
      <trkpt lat="45.96535" lon="4.84417">
        <ele>252</ele>
        <time>2017-07-04T15:33:10Z</time>
      </trkpt>
      <trkpt lat="45.96535" lon="4.84407">
        <ele>252</ele>
        <time>2017-07-04T15:33:11Z</time>
      </trkpt>
      <trkpt lat="45.96536" lon="4.84398">
        <ele>252</ele>
        <time>2017-07-04T15:33:12Z</time>
      </trkpt>
      <trkpt lat="45.96536" lon="4.84389">
        <ele>252</ele>
        <time>2017-07-04T15:33:13Z</time>
      </trkpt>
      <trkpt lat="45.96535" lon="4.8438">
        <ele>252</ele>
        <time>2017-07-04T15:33:14Z</time>
      </trkpt>
      <trkpt lat="45.96534" lon="4.8437">
        <ele>251</ele>
        <time>2017-07-04T15:33:15Z</time>
      </trkpt>
      <trkpt lat="45.96532" lon="4.84361">
        <ele>251</ele>
        <time>2017-07-04T15:33:16Z</time>
      </trkpt>
      <trkpt lat="45.96529" lon="4.84352">
        <ele>251</ele>
        <time>2017-07-04T15:33:17Z</time>
      </trkpt>
      <trkpt lat="45.96526" lon="4.84343">
        <ele>251</ele>
        <time>2017-07-04T15:33:18Z</time>
      </trkpt>
      <trkpt lat="45.96524" lon="4.84334">
        <ele>251</ele>
        <time>2017-07-04T15:33:19Z</time>
      </trkpt>
      <trkpt lat="45.96521" lon="4.84326">
        <ele>250</ele>
        <time>2017-07-04T15:33:20Z</time>
      </trkpt>
      <trkpt lat="45.96519" lon="4.84318">
        <ele>250</ele>
        <time>2017-07-04T15:33:21Z</time>
      </trkpt>
      <trkpt lat="45.96517" lon="4.8431">
        <ele>250</ele>
        <time>2017-07-04T15:33:22Z</time>
      </trkpt>
      <trkpt lat="45.96515" lon="4.84303">
        <ele>250</ele>
        <time>2017-07-04T15:33:23Z</time>
      </trkpt>
      <trkpt lat="45.96514" lon="4.84296">
        <ele>250</ele>
        <time>2017-07-04T15:33:24Z</time>
      </trkpt>
      <trkpt lat="45.96512" lon="4.84288">
        <ele>250</ele>
        <time>2017-07-04T15:33:25Z</time>
      </trkpt>
      <trkpt lat="45.9651" lon="4.84281">
        <ele>250</ele>
        <time>2017-07-04T15:33:26Z</time>
      </trkpt>
      <trkpt lat="45.96508" lon="4.84273">
        <ele>250</ele>
        <time>2017-07-04T15:33:27Z</time>
      </trkpt>
      <trkpt lat="45.96507" lon="4.84265">
        <ele>251</ele>
        <time>2017-07-04T15:33:28Z</time>
      </trkpt>
      <trkpt lat="45.96505" lon="4.84257">
        <ele>251</ele>
        <time>2017-07-04T15:33:29Z</time>
      </trkpt>
      <trkpt lat="45.96504" lon="4.84249">
        <ele>251</ele>
        <time>2017-07-04T15:33:30Z</time>
      </trkpt>
      <trkpt lat="45.96502" lon="4.84242">
        <ele>250</ele>
        <time>2017-07-04T15:33:31Z</time>
      </trkpt>
      <trkpt lat="45.965" lon="4.84234">
        <ele>250</ele>
        <time>2017-07-04T15:33:32Z</time>
      </trkpt>
      <trkpt lat="45.96498" lon="4.84227">
        <ele>252</ele>
        <time>2017-07-04T15:33:33Z</time>
      </trkpt>
      <trkpt lat="45.96496" lon="4.8422">
        <ele>252</ele>
        <time>2017-07-04T15:33:34Z</time>
      </trkpt>
      <trkpt lat="45.96495" lon="4.84212">
        <ele>251</ele>
        <time>2017-07-04T15:33:35Z</time>
      </trkpt>
      <trkpt lat="45.96493" lon="4.84205">
        <ele>251</ele>
        <time>2017-07-04T15:33:36Z</time>
      </trkpt>
      <trkpt lat="45.96492" lon="4.84197">
        <ele>251</ele>
        <time>2017-07-04T15:33:37Z</time>
      </trkpt>
      <trkpt lat="45.9649" lon="4.84189">
        <ele>251</ele>
        <time>2017-07-04T15:33:38Z</time>
      </trkpt>
      <trkpt lat="45.96488" lon="4.84182">
        <ele>251</ele>
        <time>2017-07-04T15:33:39Z</time>
      </trkpt>
      <trkpt lat="45.96487" lon="4.84174">
        <ele>251</ele>
        <time>2017-07-04T15:33:40Z</time>
      </trkpt>
      <trkpt lat="45.96486" lon="4.84167">
        <ele>251</ele>
        <time>2017-07-04T15:33:41Z</time>
      </trkpt>
      <trkpt lat="45.96484" lon="4.8416">
        <ele>250</ele>
        <time>2017-07-04T15:33:42Z</time>
      </trkpt>
      <trkpt lat="45.96482" lon="4.84153">
        <ele>251</ele>
        <time>2017-07-04T15:33:43Z</time>
      </trkpt>
      <trkpt lat="45.9648" lon="4.84146">
        <ele>251</ele>
        <time>2017-07-04T15:33:44Z</time>
      </trkpt>
      <trkpt lat="45.96478" lon="4.8414">
        <ele>251</ele>
        <time>2017-07-04T15:33:45Z</time>
      </trkpt>
      <trkpt lat="45.96476" lon="4.84133">
        <ele>251</ele>
        <time>2017-07-04T15:33:46Z</time>
      </trkpt>
      <trkpt lat="45.96474" lon="4.84126">
        <ele>251</ele>
        <time>2017-07-04T15:33:47Z</time>
      </trkpt>
      <trkpt lat="45.96472" lon="4.84118">
        <ele>251</ele>
        <time>2017-07-04T15:33:48Z</time>
      </trkpt>
      <trkpt lat="45.9647" lon="4.84111">
        <ele>251</ele>
        <time>2017-07-04T15:33:49Z</time>
      </trkpt>
      <trkpt lat="45.96468" lon="4.84104">
        <ele>251</ele>
        <time>2017-07-04T15:33:50Z</time>
      </trkpt>
      <trkpt lat="45.96465" lon="4.84096">
        <ele>251</ele>
        <time>2017-07-04T15:33:51Z</time>
      </trkpt>
      <trkpt lat="45.96463" lon="4.84089">
        <ele>251</ele>
        <time>2017-07-04T15:33:52Z</time>
      </trkpt>
      <trkpt lat="45.9646" lon="4.8408">
        <ele>251</ele>
        <time>2017-07-04T15:33:53Z</time>
      </trkpt>
      <trkpt lat="45.96457" lon="4.84072">
        <ele>251</ele>
        <time>2017-07-04T15:33:54Z</time>
      </trkpt>
      <trkpt lat="45.96454" lon="4.84065">
        <ele>251</ele>
        <time>2017-07-04T15:33:55Z</time>
      </trkpt>
      <trkpt lat="45.96451" lon="4.84057">
        <ele>251</ele>
        <time>2017-07-04T15:33:56Z</time>
      </trkpt>
      <trkpt lat="45.96448" lon="4.84049">
        <ele>251</ele>
        <time>2017-07-04T15:33:57Z</time>
      </trkpt>
      <trkpt lat="45.96444" lon="4.84041">
        <ele>251</ele>
        <time>2017-07-04T15:33:58Z</time>
      </trkpt>
      <trkpt lat="45.9644" lon="4.84033">
        <ele>251</ele>
        <time>2017-07-04T15:33:59Z</time>
      </trkpt>
      <trkpt lat="45.96436" lon="4.84025">
        <ele>251</ele>
        <time>2017-07-04T15:34:00Z</time>
      </trkpt>
      <trkpt lat="45.96432" lon="4.84017">
        <ele>252</ele>
        <time>2017-07-04T15:34:01Z</time>
      </trkpt>
      <trkpt lat="45.96428" lon="4.84009">
        <ele>252</ele>
        <time>2017-07-04T15:34:02Z</time>
      </trkpt>
      <trkpt lat="45.96423" lon="4.84001">
        <ele>252</ele>
        <time>2017-07-04T15:34:03Z</time>
      </trkpt>
      <trkpt lat="45.96419" lon="4.83993">
        <ele>252</ele>
        <time>2017-07-04T15:34:04Z</time>
      </trkpt>
      <trkpt lat="45.96415" lon="4.83984">
        <ele>253</ele>
        <time>2017-07-04T15:34:05Z</time>
      </trkpt>
      <trkpt lat="45.96411" lon="4.83975">
        <ele>253</ele>
        <time>2017-07-04T15:34:06Z</time>
      </trkpt>
      <trkpt lat="45.96407" lon="4.83966">
        <ele>253</ele>
        <time>2017-07-04T15:34:07Z</time>
      </trkpt>
      <trkpt lat="45.96403" lon="4.83957">
        <ele>252</ele>
        <time>2017-07-04T15:34:08Z</time>
      </trkpt>
      <trkpt lat="45.96399" lon="4.83947">
        <ele>252</ele>
        <time>2017-07-04T15:34:09Z</time>
      </trkpt>
      <trkpt lat="45.96395" lon="4.83937">
        <ele>251</ele>
        <time>2017-07-04T15:34:10Z</time>
      </trkpt>
      <trkpt lat="45.9639" lon="4.83927">
        <ele>251</ele>
        <time>2017-07-04T15:34:11Z</time>
      </trkpt>
      <trkpt lat="45.96386" lon="4.83917">
        <ele>251</ele>
        <time>2017-07-04T15:34:12Z</time>
      </trkpt>
      <trkpt lat="45.96382" lon="4.83907">
        <ele>248</ele>
        <time>2017-07-04T15:34:13Z</time>
      </trkpt>
      <trkpt lat="45.96377" lon="4.83897">
        <ele>248</ele>
        <time>2017-07-04T15:34:14Z</time>
      </trkpt>
      <trkpt lat="45.96373" lon="4.83886">
        <ele>248</ele>
        <time>2017-07-04T15:34:15Z</time>
      </trkpt>
      <trkpt lat="45.96368" lon="4.83876">
        <ele>247</ele>
        <time>2017-07-04T15:34:16Z</time>
      </trkpt>
      <trkpt lat="45.96363" lon="4.83866">
        <ele>247</ele>
        <time>2017-07-04T15:34:17Z</time>
      </trkpt>
      <trkpt lat="45.96358" lon="4.83856">
        <ele>246</ele>
        <time>2017-07-04T15:34:18Z</time>
      </trkpt>
      <trkpt lat="45.96353" lon="4.83847">
        <ele>246</ele>
        <time>2017-07-04T15:34:19Z</time>
      </trkpt>
      <trkpt lat="45.96347" lon="4.83838">
        <ele>245</ele>
        <time>2017-07-04T15:34:20Z</time>
      </trkpt>
      <trkpt lat="45.96341" lon="4.8383">
        <ele>244</ele>
        <time>2017-07-04T15:34:21Z</time>
      </trkpt>
      <trkpt lat="45.96335" lon="4.83823">
        <ele>245</ele>
        <time>2017-07-04T15:34:22Z</time>
      </trkpt>
      <trkpt lat="45.96328" lon="4.83816">
        <ele>244</ele>
        <time>2017-07-04T15:34:23Z</time>
      </trkpt>
      <trkpt lat="45.96322" lon="4.8381">
        <ele>244</ele>
        <time>2017-07-04T15:34:24Z</time>
      </trkpt>
      <trkpt lat="45.96315" lon="4.83805">
        <ele>245</ele>
        <time>2017-07-04T15:34:25Z</time>
      </trkpt>
      <trkpt lat="45.96309" lon="4.83799">
        <ele>245</ele>
        <time>2017-07-04T15:34:26Z</time>
      </trkpt>
      <trkpt lat="45.96302" lon="4.83793">
        <ele>245</ele>
        <time>2017-07-04T15:34:27Z</time>
      </trkpt>
      <trkpt lat="45.96296" lon="4.83787">
        <ele>245</ele>
        <time>2017-07-04T15:34:28Z</time>
      </trkpt>
      <trkpt lat="45.9629" lon="4.83781">
        <ele>245</ele>
        <time>2017-07-04T15:34:29Z</time>
      </trkpt>
      <trkpt lat="45.96284" lon="4.83776">
        <ele>245</ele>
        <time>2017-07-04T15:34:30Z</time>
      </trkpt>
      <trkpt lat="45.96278" lon="4.83771">
        <ele>245</ele>
        <time>2017-07-04T15:34:31Z</time>
      </trkpt>
      <trkpt lat="45.96272" lon="4.83765">
        <ele>245</ele>
        <time>2017-07-04T15:34:32Z</time>
      </trkpt>
      <trkpt lat="45.96267" lon="4.8376">
        <ele>245</ele>
        <time>2017-07-04T15:34:33Z</time>
      </trkpt>
      <trkpt lat="45.96261" lon="4.83755">
        <ele>244</ele>
        <time>2017-07-04T15:34:34Z</time>
      </trkpt>
      <trkpt lat="45.96256" lon="4.83749">
        <ele>245</ele>
        <time>2017-07-04T15:34:35Z</time>
      </trkpt>
      <trkpt lat="45.96251" lon="4.83743">
        <ele>245</ele>
        <time>2017-07-04T15:34:36Z</time>
      </trkpt>
      <trkpt lat="45.96246" lon="4.83737">
        <ele>244</ele>
        <time>2017-07-04T15:34:37Z</time>
      </trkpt>
      <trkpt lat="45.96241" lon="4.83731">
        <ele>244</ele>
        <time>2017-07-04T15:34:38Z</time>
      </trkpt>
      <trkpt lat="45.96236" lon="4.83726">
        <ele>244</ele>
        <time>2017-07-04T15:34:39Z</time>
      </trkpt>
      <trkpt lat="45.96231" lon="4.83721">
        <ele>244</ele>
        <time>2017-07-04T15:34:40Z</time>
      </trkpt>
      <trkpt lat="45.96227" lon="4.83716">
        <ele>244</ele>
        <time>2017-07-04T15:34:41Z</time>
      </trkpt>
      <trkpt lat="45.96222" lon="4.83711">
        <ele>244</ele>
        <time>2017-07-04T15:34:42Z</time>
      </trkpt>
      <trkpt lat="45.96217" lon="4.83706">
        <ele>244</ele>
        <time>2017-07-04T15:34:43Z</time>
      </trkpt>
      <trkpt lat="45.96213" lon="4.83701">
        <ele>243</ele>
        <time>2017-07-04T15:34:44Z</time>
      </trkpt>
      <trkpt lat="45.96208" lon="4.83695">
        <ele>243</ele>
        <time>2017-07-04T15:34:45Z</time>
      </trkpt>
      <trkpt lat="45.96204" lon="4.8369">
        <ele>243</ele>
        <time>2017-07-04T15:34:46Z</time>
      </trkpt>
      <trkpt lat="45.96199" lon="4.83685">
        <ele>243</ele>
        <time>2017-07-04T15:34:47Z</time>
      </trkpt>
      <trkpt lat="45.96194" lon="4.8368">
        <ele>243</ele>
        <time>2017-07-04T15:34:48Z</time>
      </trkpt>
      <trkpt lat="45.9619" lon="4.83675">
        <ele>243</ele>
        <time>2017-07-04T15:34:49Z</time>
      </trkpt>
      <trkpt lat="45.96186" lon="4.8367">
        <ele>243</ele>
        <time>2017-07-04T15:34:50Z</time>
      </trkpt>
      <trkpt lat="45.96182" lon="4.83665">
        <ele>242</ele>
        <time>2017-07-04T15:34:51Z</time>
      </trkpt>
      <trkpt lat="45.96178" lon="4.83659">
        <ele>242</ele>
        <time>2017-07-04T15:34:52Z</time>
      </trkpt>
      <trkpt lat="45.96175" lon="4.83653">
        <ele>242</ele>
        <time>2017-07-04T15:34:53Z</time>
      </trkpt>
      <trkpt lat="45.96171" lon="4.83647">
        <ele>242</ele>
        <time>2017-07-04T15:34:54Z</time>
      </trkpt>
      <trkpt lat="45.96168" lon="4.83641">
        <ele>242</ele>
        <time>2017-07-04T15:34:55Z</time>
      </trkpt>
      <trkpt lat="45.96165" lon="4.83634">
        <ele>243</ele>
        <time>2017-07-04T15:34:56Z</time>
      </trkpt>
      <trkpt lat="45.96163" lon="4.83627">
        <ele>242</ele>
        <time>2017-07-04T15:34:57Z</time>
      </trkpt>
      <trkpt lat="45.9616" lon="4.83619">
        <ele>242</ele>
        <time>2017-07-04T15:34:58Z</time>
      </trkpt>
      <trkpt lat="45.96159" lon="4.8361">
        <ele>242</ele>
        <time>2017-07-04T15:34:59Z</time>
      </trkpt>
      <trkpt lat="45.96156" lon="4.83602">
        <ele>242</ele>
        <time>2017-07-04T15:35:00Z</time>
      </trkpt>
      <trkpt lat="45.96154" lon="4.83593">
        <ele>242</ele>
        <time>2017-07-04T15:35:01Z</time>
      </trkpt>
      <trkpt lat="45.96152" lon="4.83584">
        <ele>242</ele>
        <time>2017-07-04T15:35:02Z</time>
      </trkpt>
      <trkpt lat="45.9615" lon="4.83576">
        <ele>241</ele>
        <time>2017-07-04T15:35:03Z</time>
      </trkpt>
      <trkpt lat="45.96148" lon="4.83568">
        <ele>241</ele>
        <time>2017-07-04T15:35:04Z</time>
      </trkpt>
      <trkpt lat="45.96146" lon="4.83561">
        <ele>241</ele>
        <time>2017-07-04T15:35:05Z</time>
      </trkpt>
      <trkpt lat="45.96144" lon="4.83553">
        <ele>242</ele>
        <time>2017-07-04T15:35:06Z</time>
      </trkpt>
      <trkpt lat="45.96142" lon="4.83545">
        <ele>242</ele>
        <time>2017-07-04T15:35:07Z</time>
      </trkpt>
      <trkpt lat="45.96141" lon="4.83538">
        <ele>242</ele>
        <time>2017-07-04T15:35:08Z</time>
      </trkpt>
      <trkpt lat="45.96139" lon="4.8353">
        <ele>242</ele>
        <time>2017-07-04T15:35:09Z</time>
      </trkpt>
      <trkpt lat="45.96137" lon="4.83522">
        <ele>242</ele>
        <time>2017-07-04T15:35:10Z</time>
      </trkpt>
      <trkpt lat="45.96135" lon="4.83515">
        <ele>242</ele>
        <time>2017-07-04T15:35:11Z</time>
      </trkpt>
      <trkpt lat="45.96134" lon="4.83507">
        <ele>242</ele>
        <time>2017-07-04T15:35:12Z</time>
      </trkpt>
      <trkpt lat="45.96132" lon="4.83499">
        <ele>242</ele>
        <time>2017-07-04T15:35:13Z</time>
      </trkpt>
      <trkpt lat="45.96131" lon="4.8349">
        <ele>242</ele>
        <time>2017-07-04T15:35:14Z</time>
      </trkpt>
      <trkpt lat="45.9613" lon="4.83482">
        <ele>242</ele>
        <time>2017-07-04T15:35:15Z</time>
      </trkpt>
      <trkpt lat="45.96129" lon="4.83473">
        <ele>242</ele>
        <time>2017-07-04T15:35:16Z</time>
      </trkpt>
      <trkpt lat="45.96128" lon="4.83465">
        <ele>242</ele>
        <time>2017-07-04T15:35:17Z</time>
      </trkpt>
      <trkpt lat="45.96127" lon="4.83457">
        <ele>242</ele>
        <time>2017-07-04T15:35:18Z</time>
      </trkpt>
      <trkpt lat="45.96125" lon="4.83448">
        <ele>242</ele>
        <time>2017-07-04T15:35:19Z</time>
      </trkpt>
      <trkpt lat="45.96124" lon="4.8344">
        <ele>242</ele>
        <time>2017-07-04T15:35:20Z</time>
      </trkpt>
      <trkpt lat="45.96123" lon="4.83431">
        <ele>242</ele>
        <time>2017-07-04T15:35:21Z</time>
      </trkpt>
      <trkpt lat="45.96122" lon="4.83422">
        <ele>243</ele>
        <time>2017-07-04T15:35:22Z</time>
      </trkpt>
      <trkpt lat="45.9612" lon="4.83413">
        <ele>243</ele>
        <time>2017-07-04T15:35:23Z</time>
      </trkpt>
      <trkpt lat="45.96119" lon="4.83403">
        <ele>243</ele>
        <time>2017-07-04T15:35:24Z</time>
      </trkpt>
      <trkpt lat="45.96117" lon="4.83393">
        <ele>243</ele>
        <time>2017-07-04T15:35:25Z</time>
      </trkpt>
      <trkpt lat="45.96115" lon="4.83384">
        <ele>243</ele>
        <time>2017-07-04T15:35:26Z</time>
      </trkpt>
      <trkpt lat="45.96114" lon="4.83375">
        <ele>242</ele>
        <time>2017-07-04T15:35:27Z</time>
      </trkpt>
      <trkpt lat="45.96112" lon="4.83366">
        <ele>242</ele>
        <time>2017-07-04T15:35:28Z</time>
      </trkpt>
      <trkpt lat="45.9611" lon="4.83356">
        <ele>242</ele>
        <time>2017-07-04T15:35:29Z</time>
      </trkpt>
      <trkpt lat="45.96108" lon="4.83347">
        <ele>242</ele>
        <time>2017-07-04T15:35:30Z</time>
      </trkpt>
      <trkpt lat="45.96107" lon="4.83338">
        <ele>242</ele>
        <time>2017-07-04T15:35:31Z</time>
      </trkpt>
      <trkpt lat="45.96105" lon="4.83328">
        <ele>241</ele>
        <time>2017-07-04T15:35:32Z</time>
      </trkpt>
      <trkpt lat="45.96103" lon="4.83319">
        <ele>241</ele>
        <time>2017-07-04T15:35:33Z</time>
      </trkpt>
      <trkpt lat="45.96102" lon="4.83309">
        <ele>241</ele>
        <time>2017-07-04T15:35:34Z</time>
      </trkpt>
      <trkpt lat="45.96101" lon="4.833">
        <ele>241</ele>
        <time>2017-07-04T15:35:35Z</time>
      </trkpt>
      <trkpt lat="45.96101" lon="4.83291">
        <ele>241</ele>
        <time>2017-07-04T15:35:36Z</time>
      </trkpt>
      <trkpt lat="45.961" lon="4.83282">
        <ele>241</ele>
        <time>2017-07-04T15:35:37Z</time>
      </trkpt>
      <trkpt lat="45.96099" lon="4.83273">
        <ele>241</ele>
        <time>2017-07-04T15:35:38Z</time>
      </trkpt>
      <trkpt lat="45.96098" lon="4.83265">
        <ele>241</ele>
        <time>2017-07-04T15:35:39Z</time>
      </trkpt>
      <trkpt lat="45.96098" lon="4.83256">
        <ele>241</ele>
        <time>2017-07-04T15:35:40Z</time>
      </trkpt>
      <trkpt lat="45.96097" lon="4.83247">
        <ele>240</ele>
        <time>2017-07-04T15:35:41Z</time>
      </trkpt>
      <trkpt lat="45.96097" lon="4.83237">
        <ele>240</ele>
        <time>2017-07-04T15:35:42Z</time>
      </trkpt>
      <trkpt lat="45.96097" lon="4.83227">
        <ele>240</ele>
        <time>2017-07-04T15:35:43Z</time>
      </trkpt>
      <trkpt lat="45.96097" lon="4.83218">
        <ele>240</ele>
        <time>2017-07-04T15:35:44Z</time>
      </trkpt>
      <trkpt lat="45.96096" lon="4.83208">
        <ele>240</ele>
        <time>2017-07-04T15:35:45Z</time>
      </trkpt>
      <trkpt lat="45.96096" lon="4.83198">
        <ele>240</ele>
        <time>2017-07-04T15:35:46Z</time>
      </trkpt>
      <trkpt lat="45.96095" lon="4.83189">
        <ele>240</ele>
        <time>2017-07-04T15:35:47Z</time>
      </trkpt>
      <trkpt lat="45.96095" lon="4.83179">
        <ele>240</ele>
        <time>2017-07-04T15:35:48Z</time>
      </trkpt>
      <trkpt lat="45.96095" lon="4.8317">
        <ele>240</ele>
        <time>2017-07-04T15:35:49Z</time>
      </trkpt>
      <trkpt lat="45.96094" lon="4.83161">
        <ele>240</ele>
        <time>2017-07-04T15:35:50Z</time>
      </trkpt>
      <trkpt lat="45.96094" lon="4.83151">
        <ele>240</ele>
        <time>2017-07-04T15:35:51Z</time>
      </trkpt>
      <trkpt lat="45.96093" lon="4.83142">
        <ele>240</ele>
        <time>2017-07-04T15:35:52Z</time>
      </trkpt>
      <trkpt lat="45.96092" lon="4.83133">
        <ele>240</ele>
        <time>2017-07-04T15:35:53Z</time>
      </trkpt>
      <trkpt lat="45.96091" lon="4.83124">
        <ele>240</ele>
        <time>2017-07-04T15:35:54Z</time>
      </trkpt>
      <trkpt lat="45.9609" lon="4.83115">
        <ele>240</ele>
        <time>2017-07-04T15:35:55Z</time>
      </trkpt>
      <trkpt lat="45.96089" lon="4.83106">
        <ele>240</ele>
        <time>2017-07-04T15:35:56Z</time>
      </trkpt>
      <trkpt lat="45.96088" lon="4.83098">
        <ele>240</ele>
        <time>2017-07-04T15:35:57Z</time>
      </trkpt>
      <trkpt lat="45.96087" lon="4.83089">
        <ele>240</ele>
        <time>2017-07-04T15:35:58Z</time>
      </trkpt>
      <trkpt lat="45.96085" lon="4.83081">
        <ele>240</ele>
        <time>2017-07-04T15:35:59Z</time>
      </trkpt>
      <trkpt lat="45.96084" lon="4.83074">
        <ele>240</ele>
        <time>2017-07-04T15:36:00Z</time>
      </trkpt>
      <trkpt lat="45.96082" lon="4.83067">
        <ele>242</ele>
        <time>2017-07-04T15:36:01Z</time>
      </trkpt>
      <trkpt lat="45.9608" lon="4.83059">
        <ele>242</ele>
        <time>2017-07-04T15:36:02Z</time>
      </trkpt>
      <trkpt lat="45.96077" lon="4.83051">
        <ele>242</ele>
        <time>2017-07-04T15:36:03Z</time>
      </trkpt>
      <trkpt lat="45.96075" lon="4.83043">
        <ele>242</ele>
        <time>2017-07-04T15:36:04Z</time>
      </trkpt>
      <trkpt lat="45.96074" lon="4.83035">
        <ele>242</ele>
        <time>2017-07-04T15:36:05Z</time>
      </trkpt>
      <trkpt lat="45.96073" lon="4.83027">
        <ele>242</ele>
        <time>2017-07-04T15:36:06Z</time>
      </trkpt>
      <trkpt lat="45.96071" lon="4.83017">
        <ele>242</ele>
        <time>2017-07-04T15:36:07Z</time>
      </trkpt>
      <trkpt lat="45.9607" lon="4.83007">
        <ele>241</ele>
        <time>2017-07-04T15:36:08Z</time>
      </trkpt>
      <trkpt lat="45.9607" lon="4.82996">
        <ele>241</ele>
        <time>2017-07-04T15:36:09Z</time>
      </trkpt>
      <trkpt lat="45.9607" lon="4.82986">
        <ele>241</ele>
        <time>2017-07-04T15:36:10Z</time>
      </trkpt>
      <trkpt lat="45.96071" lon="4.82977">
        <ele>241</ele>
        <time>2017-07-04T15:36:11Z</time>
      </trkpt>
      <trkpt lat="45.96075" lon="4.82967">
        <ele>241</ele>
        <time>2017-07-04T15:36:12Z</time>
      </trkpt>
      <trkpt lat="45.96077" lon="4.82958">
        <ele>241</ele>
        <time>2017-07-04T15:36:13Z</time>
      </trkpt>
      <trkpt lat="45.96079" lon="4.82948">
        <ele>241</ele>
        <time>2017-07-04T15:36:14Z</time>
      </trkpt>
      <trkpt lat="45.96081" lon="4.82939">
        <ele>240</ele>
        <time>2017-07-04T15:36:15Z</time>
      </trkpt>
      <trkpt lat="45.96084" lon="4.82929">
        <ele>238</ele>
        <time>2017-07-04T15:36:16Z</time>
      </trkpt>
      <trkpt lat="45.96086" lon="4.8292">
        <ele>238</ele>
        <time>2017-07-04T15:36:17Z</time>
      </trkpt>
      <trkpt lat="45.96089" lon="4.82911">
        <ele>238</ele>
        <time>2017-07-04T15:36:18Z</time>
      </trkpt>
      <trkpt lat="45.96091" lon="4.82903">
        <ele>238</ele>
        <time>2017-07-04T15:36:19Z</time>
      </trkpt>
      <trkpt lat="45.96093" lon="4.82894">
        <ele>237</ele>
        <time>2017-07-04T15:36:20Z</time>
      </trkpt>
      <trkpt lat="45.96095" lon="4.82885">
        <ele>237</ele>
        <time>2017-07-04T15:36:21Z</time>
      </trkpt>
      <trkpt lat="45.96097" lon="4.82877">
        <ele>237</ele>
        <time>2017-07-04T15:36:22Z</time>
      </trkpt>
      <trkpt lat="45.96099" lon="4.82869">
        <ele>237</ele>
        <time>2017-07-04T15:36:23Z</time>
      </trkpt>
      <trkpt lat="45.96101" lon="4.82861">
        <ele>237</ele>
        <time>2017-07-04T15:36:24Z</time>
      </trkpt>
      <trkpt lat="45.96101" lon="4.82853">
        <ele>237</ele>
        <time>2017-07-04T15:36:25Z</time>
      </trkpt>
      <trkpt lat="45.96101" lon="4.82845">
        <ele>237</ele>
        <time>2017-07-04T15:36:26Z</time>
      </trkpt>
      <trkpt lat="45.96099" lon="4.82836">
        <ele>237</ele>
        <time>2017-07-04T15:36:27Z</time>
      </trkpt>
      <trkpt lat="45.96098" lon="4.82828">
        <ele>237</ele>
        <time>2017-07-04T15:36:28Z</time>
      </trkpt>
      <trkpt lat="45.96096" lon="4.8282">
        <ele>237</ele>
        <time>2017-07-04T15:36:29Z</time>
      </trkpt>
      <trkpt lat="45.96095" lon="4.82812">
        <ele>237</ele>
        <time>2017-07-04T15:36:30Z</time>
      </trkpt>
      <trkpt lat="45.96093" lon="4.82804">
        <ele>237</ele>
        <time>2017-07-04T15:36:31Z</time>
      </trkpt>
      <trkpt lat="45.96091" lon="4.82795">
        <ele>237</ele>
        <time>2017-07-04T15:36:32Z</time>
      </trkpt>
      <trkpt lat="45.96089" lon="4.82787">
        <ele>237</ele>
        <time>2017-07-04T15:36:33Z</time>
      </trkpt>
      <trkpt lat="45.96087" lon="4.82778">
        <ele>237</ele>
        <time>2017-07-04T15:36:34Z</time>
      </trkpt>
      <trkpt lat="45.96085" lon="4.82769">
        <ele>237</ele>
        <time>2017-07-04T15:36:35Z</time>
      </trkpt>
      <trkpt lat="45.96083" lon="4.8276">
        <ele>237</ele>
        <time>2017-07-04T15:36:36Z</time>
      </trkpt>
      <trkpt lat="45.9608" lon="4.82751">
        <ele>237</ele>
        <time>2017-07-04T15:36:37Z</time>
      </trkpt>
      <trkpt lat="45.96079" lon="4.82744">
        <ele>237</ele>
        <time>2017-07-04T15:36:38Z</time>
      </trkpt>
      <trkpt lat="45.96076" lon="4.82736">
        <ele>237</ele>
        <time>2017-07-04T15:36:39Z</time>
      </trkpt>
      <trkpt lat="45.96074" lon="4.82729">
        <ele>237</ele>
        <time>2017-07-04T15:36:40Z</time>
      </trkpt>
      <trkpt lat="45.96071" lon="4.82721">
        <ele>237</ele>
        <time>2017-07-04T15:36:41Z</time>
      </trkpt>
      <trkpt lat="45.96068" lon="4.82714">
        <ele>237</ele>
        <time>2017-07-04T15:36:42Z</time>
      </trkpt>
      <trkpt lat="45.96066" lon="4.82707">
        <ele>237</ele>
        <time>2017-07-04T15:36:43Z</time>
      </trkpt>
      <trkpt lat="45.96064" lon="4.827">
        <ele>237</ele>
        <time>2017-07-04T15:36:44Z</time>
      </trkpt>
      <trkpt lat="45.96061" lon="4.82693">
        <ele>237</ele>
        <time>2017-07-04T15:36:45Z</time>
      </trkpt>
      <trkpt lat="45.96058" lon="4.82685">
        <ele>236</ele>
        <time>2017-07-04T15:36:46Z</time>
      </trkpt>
      <trkpt lat="45.96055" lon="4.82677">
        <ele>236</ele>
        <time>2017-07-04T15:36:47Z</time>
      </trkpt>
      <trkpt lat="45.96053" lon="4.8267">
        <ele>236</ele>
        <time>2017-07-04T15:36:48Z</time>
      </trkpt>
      <trkpt lat="45.9605" lon="4.82663">
        <ele>235</ele>
        <time>2017-07-04T15:36:49Z</time>
      </trkpt>
      <trkpt lat="45.96047" lon="4.82656">
        <ele>235</ele>
        <time>2017-07-04T15:36:50Z</time>
      </trkpt>
      <trkpt lat="45.96044" lon="4.82648">
        <ele>235</ele>
        <time>2017-07-04T15:36:51Z</time>
      </trkpt>
      <trkpt lat="45.96041" lon="4.8264">
        <ele>235</ele>
        <time>2017-07-04T15:36:52Z</time>
      </trkpt>
      <trkpt lat="45.96038" lon="4.82632">
        <ele>235</ele>
        <time>2017-07-04T15:36:53Z</time>
      </trkpt>
      <trkpt lat="45.96035" lon="4.82625">
        <ele>235</ele>
        <time>2017-07-04T15:36:54Z</time>
      </trkpt>
      <trkpt lat="45.96032" lon="4.82617">
        <ele>235</ele>
        <time>2017-07-04T15:36:55Z</time>
      </trkpt>
      <trkpt lat="45.96028" lon="4.82609">
        <ele>235</ele>
        <time>2017-07-04T15:36:56Z</time>
      </trkpt>
      <trkpt lat="45.96025" lon="4.82602">
        <ele>235</ele>
        <time>2017-07-04T15:36:57Z</time>
      </trkpt>
      <trkpt lat="45.96022" lon="4.82595">
        <ele>235</ele>
        <time>2017-07-04T15:36:58Z</time>
      </trkpt>
      <trkpt lat="45.9602" lon="4.82587">
        <ele>235</ele>
        <time>2017-07-04T15:36:59Z</time>
      </trkpt>
      <trkpt lat="45.96018" lon="4.8258">
        <ele>234</ele>
        <time>2017-07-04T15:37:00Z</time>
      </trkpt>
      <trkpt lat="45.96016" lon="4.82573">
        <ele>234</ele>
        <time>2017-07-04T15:37:01Z</time>
      </trkpt>
      <trkpt lat="45.96014" lon="4.82566">
        <ele>235</ele>
        <time>2017-07-04T15:37:02Z</time>
      </trkpt>
      <trkpt lat="45.96012" lon="4.82557">
        <ele>235</ele>
        <time>2017-07-04T15:37:03Z</time>
      </trkpt>
      <trkpt lat="45.9601" lon="4.82549">
        <ele>235</ele>
        <time>2017-07-04T15:37:04Z</time>
      </trkpt>
      <trkpt lat="45.96009" lon="4.82542">
        <ele>235</ele>
        <time>2017-07-04T15:37:05Z</time>
      </trkpt>
      <trkpt lat="45.9601" lon="4.82534">
        <ele>235</ele>
        <time>2017-07-04T15:37:06Z</time>
      </trkpt>
      <trkpt lat="45.96011" lon="4.82524">
        <ele>235</ele>
        <time>2017-07-04T15:37:07Z</time>
      </trkpt>
      <trkpt lat="45.96011" lon="4.82515">
        <ele>235</ele>
        <time>2017-07-04T15:37:08Z</time>
      </trkpt>
      <trkpt lat="45.96011" lon="4.82506">
        <ele>235</ele>
        <time>2017-07-04T15:37:09Z</time>
      </trkpt>
      <trkpt lat="45.96012" lon="4.82497">
        <ele>235</ele>
        <time>2017-07-04T15:37:10Z</time>
      </trkpt>
      <trkpt lat="45.96012" lon="4.82488">
        <ele>235</ele>
        <time>2017-07-04T15:37:11Z</time>
      </trkpt>
      <trkpt lat="45.96013" lon="4.8248">
        <ele>235</ele>
        <time>2017-07-04T15:37:12Z</time>
      </trkpt>
      <trkpt lat="45.96014" lon="4.82471">
        <ele>235</ele>
        <time>2017-07-04T15:37:13Z</time>
      </trkpt>
      <trkpt lat="45.96015" lon="4.82463">
        <ele>235</ele>
        <time>2017-07-04T15:37:14Z</time>
      </trkpt>
      <trkpt lat="45.96016" lon="4.82454">
        <ele>235</ele>
        <time>2017-07-04T15:37:15Z</time>
      </trkpt>
      <trkpt lat="45.96019" lon="4.82445">
        <ele>235</ele>
        <time>2017-07-04T15:37:16Z</time>
      </trkpt>
      <trkpt lat="45.96021" lon="4.82436">
        <ele>235</ele>
        <time>2017-07-04T15:37:17Z</time>
      </trkpt>
      <trkpt lat="45.96022" lon="4.82427">
        <ele>235</ele>
        <time>2017-07-04T15:37:18Z</time>
      </trkpt>
      <trkpt lat="45.96023" lon="4.82419">
        <ele>235</ele>
        <time>2017-07-04T15:37:19Z</time>
      </trkpt>
      <trkpt lat="45.96024" lon="4.82411">
        <ele>235</ele>
        <time>2017-07-04T15:37:20Z</time>
      </trkpt>
      <trkpt lat="45.96026" lon="4.82404">
        <ele>235</ele>
        <time>2017-07-04T15:37:21Z</time>
      </trkpt>
      <trkpt lat="45.96027" lon="4.82396">
        <ele>235</ele>
        <time>2017-07-04T15:37:22Z</time>
      </trkpt>
      <trkpt lat="45.96029" lon="4.82388">
        <ele>235</ele>
        <time>2017-07-04T15:37:23Z</time>
      </trkpt>
      <trkpt lat="45.96031" lon="4.82381">
        <ele>235</ele>
        <time>2017-07-04T15:37:24Z</time>
      </trkpt>
      <trkpt lat="45.96033" lon="4.82375">
        <ele>235</ele>
        <time>2017-07-04T15:37:25Z</time>
      </trkpt>
      <trkpt lat="45.96031" lon="4.82363">
        <ele>235</ele>
        <time>2017-07-04T15:37:27Z</time>
      </trkpt>
      <trkpt lat="45.96027" lon="4.82359">
        <ele>235</ele>
        <time>2017-07-04T15:37:28Z</time>
      </trkpt>
      <trkpt lat="45.96019" lon="4.82359">
        <ele>235</ele>
        <time>2017-07-04T15:37:30Z</time>
      </trkpt>
      <trkpt lat="45.96015" lon="4.82358">
        <ele>235</ele>
        <time>2017-07-04T15:37:31Z</time>
      </trkpt>
      <trkpt lat="45.96007" lon="4.82357">
        <ele>235</ele>
        <time>2017-07-04T15:37:33Z</time>
      </trkpt>
      <trkpt lat="45.96003" lon="4.82357">
        <ele>235</ele>
        <time>2017-07-04T15:37:34Z</time>
      </trkpt>
      <trkpt lat="45.95995" lon="4.82358">
        <ele>236</ele>
        <time>2017-07-04T15:37:36Z</time>
      </trkpt>
      <trkpt lat="45.95989" lon="4.82358">
        <ele>236</ele>
        <time>2017-07-04T15:37:37Z</time>
      </trkpt>
      <trkpt lat="45.95984" lon="4.82358">
        <ele>237</ele>
        <time>2017-07-04T15:37:38Z</time>
      </trkpt>
      <trkpt lat="45.9598" lon="4.82357">
        <ele>237</ele>
        <time>2017-07-04T15:37:39Z</time>
      </trkpt>
      <trkpt lat="45.95972" lon="4.82357">
        <ele>237</ele>
        <time>2017-07-04T15:37:41Z</time>
      </trkpt>
      <trkpt lat="45.95969" lon="4.82356">
        <ele>237</ele>
        <time>2017-07-04T15:37:42Z</time>
      </trkpt>
      <trkpt lat="45.95961" lon="4.82357">
        <ele>237</ele>
        <time>2017-07-04T15:37:44Z</time>
      </trkpt>
      <trkpt lat="45.95957" lon="4.82358">
        <ele>237</ele>
        <time>2017-07-04T15:37:45Z</time>
      </trkpt>
      <trkpt lat="45.95949" lon="4.82356">
        <ele>237</ele>
        <time>2017-07-04T15:37:47Z</time>
      </trkpt>
      <trkpt lat="45.95945" lon="4.82355">
        <ele>237</ele>
        <time>2017-07-04T15:37:48Z</time>
      </trkpt>
      <trkpt lat="45.95938" lon="4.82356">
        <ele>237</ele>
        <time>2017-07-04T15:37:50Z</time>
      </trkpt>
      <trkpt lat="45.95935" lon="4.82356">
        <ele>238</ele>
        <time>2017-07-04T15:37:51Z</time>
      </trkpt>
      <trkpt lat="45.95929" lon="4.82357">
        <ele>238</ele>
        <time>2017-07-04T15:37:53Z</time>
      </trkpt>
      <trkpt lat="45.95926" lon="4.82358">
        <ele>238</ele>
        <time>2017-07-04T15:37:54Z</time>
      </trkpt>
      <trkpt lat="45.9592" lon="4.82358">
        <ele>238</ele>
        <time>2017-07-04T15:37:56Z</time>
      </trkpt>
      <trkpt lat="45.95917" lon="4.82359">
        <ele>242</ele>
        <time>2017-07-04T15:37:57Z</time>
      </trkpt>
      <trkpt lat="45.95908" lon="4.8236">
        <ele>242</ele>
        <time>2017-07-04T15:38:00Z</time>
      </trkpt>
      <trkpt lat="45.95905" lon="4.8236">
        <ele>242</ele>
        <time>2017-07-04T15:38:01Z</time>
      </trkpt>
      <trkpt lat="45.95898" lon="4.82362">
        <ele>243</ele>
        <time>2017-07-04T15:38:03Z</time>
      </trkpt>
      <trkpt lat="45.95894" lon="4.82363">
        <ele>243</ele>
        <time>2017-07-04T15:38:04Z</time>
      </trkpt>
      <trkpt lat="45.95887" lon="4.82364">
        <ele>243</ele>
        <time>2017-07-04T15:38:06Z</time>
      </trkpt>
      <trkpt lat="45.95884" lon="4.82364">
        <ele>243</ele>
        <time>2017-07-04T15:38:07Z</time>
      </trkpt>
      <trkpt lat="45.95878" lon="4.82365">
        <ele>244</ele>
        <time>2017-07-04T15:38:09Z</time>
      </trkpt>
      <trkpt lat="45.95875" lon="4.82365">
        <ele>244</ele>
        <time>2017-07-04T15:38:10Z</time>
      </trkpt>
      <trkpt lat="45.95866" lon="4.82365">
        <ele>245</ele>
        <time>2017-07-04T15:38:13Z</time>
      </trkpt>
      <trkpt lat="45.95863" lon="4.82365">
        <ele>245</ele>
        <time>2017-07-04T15:38:14Z</time>
      </trkpt>
      <trkpt lat="45.95855" lon="4.82366">
        <ele>245</ele>
        <time>2017-07-04T15:38:17Z</time>
      </trkpt>
      <trkpt lat="45.95853" lon="4.82366">
        <ele>245</ele>
        <time>2017-07-04T15:38:18Z</time>
      </trkpt>
      <trkpt lat="45.95846" lon="4.82366">
        <ele>246</ele>
        <time>2017-07-04T15:38:21Z</time>
      </trkpt>
      <trkpt lat="45.95843" lon="4.82366">
        <ele>246</ele>
        <time>2017-07-04T15:38:22Z</time>
      </trkpt>
      <trkpt lat="45.95835" lon="4.82365">
        <ele>246</ele>
        <time>2017-07-04T15:38:25Z</time>
      </trkpt>
      <trkpt lat="45.95833" lon="4.82365">
        <ele>251</ele>
        <time>2017-07-04T15:38:26Z</time>
      </trkpt>
      <trkpt lat="45.95824" lon="4.82363">
        <ele>251</ele>
        <time>2017-07-04T15:38:30Z</time>
      </trkpt>
      <trkpt lat="45.95822" lon="4.82363">
        <ele>251</ele>
        <time>2017-07-04T15:38:31Z</time>
      </trkpt>
      <trkpt lat="45.95814" lon="4.82361">
        <ele>251</ele>
        <time>2017-07-04T15:38:35Z</time>
      </trkpt>
      <trkpt lat="45.95812" lon="4.8236">
        <ele>251</ele>
        <time>2017-07-04T15:38:36Z</time>
      </trkpt>
      <trkpt lat="45.95805" lon="4.82359">
        <ele>252</ele>
        <time>2017-07-04T15:38:39Z</time>
      </trkpt>
      <trkpt lat="45.95802" lon="4.82358">
        <ele>252</ele>
        <time>2017-07-04T15:38:40Z</time>
      </trkpt>
      <trkpt lat="45.95796" lon="4.82355">
        <ele>252</ele>
        <time>2017-07-04T15:38:43Z</time>
      </trkpt>
      <trkpt lat="45.95793" lon="4.82354">
        <ele>252</ele>
        <time>2017-07-04T15:38:44Z</time>
      </trkpt>
      <trkpt lat="45.95786" lon="4.82349">
        <ele>253</ele>
        <time>2017-07-04T15:38:47Z</time>
      </trkpt>
      <trkpt lat="45.95784" lon="4.82347">
        <ele>253</ele>
        <time>2017-07-04T15:38:48Z</time>
      </trkpt>
      <trkpt lat="45.95779" lon="4.82341">
        <ele>253</ele>
        <time>2017-07-04T15:38:51Z</time>
      </trkpt>
      <trkpt lat="45.95777" lon="4.82339">
        <ele>253</ele>
        <time>2017-07-04T15:38:52Z</time>
      </trkpt>
      <trkpt lat="45.9577" lon="4.82331">
        <ele>252</ele>
        <time>2017-07-04T15:38:56Z</time>
      </trkpt>
      <trkpt lat="45.95768" lon="4.82329">
        <ele>253</ele>
        <time>2017-07-04T15:38:57Z</time>
      </trkpt>
      <trkpt lat="45.95762" lon="4.82324">
        <ele>253</ele>
        <time>2017-07-04T15:39:00Z</time>
      </trkpt>
      <trkpt lat="45.9576" lon="4.82322">
        <ele>253</ele>
        <time>2017-07-04T15:39:01Z</time>
      </trkpt>
      <trkpt lat="45.95754" lon="4.82315">
        <ele>253</ele>
        <time>2017-07-04T15:39:04Z</time>
      </trkpt>
      <trkpt lat="45.95752" lon="4.82313">
        <ele>253</ele>
        <time>2017-07-04T15:39:05Z</time>
      </trkpt>
      <trkpt lat="45.95746" lon="4.82305">
        <ele>255</ele>
        <time>2017-07-04T15:39:08Z</time>
      </trkpt>
      <trkpt lat="45.95744" lon="4.82303">
        <ele>255</ele>
        <time>2017-07-04T15:39:09Z</time>
      </trkpt>
      <trkpt lat="45.95738" lon="4.82297">
        <ele>255</ele>
        <time>2017-07-04T15:39:11Z</time>
      </trkpt>
      <trkpt lat="45.95736" lon="4.82295">
        <ele>255</ele>
        <time>2017-07-04T15:39:12Z</time>
      </trkpt>
      <trkpt lat="45.95731" lon="4.82289">
        <ele>255</ele>
        <time>2017-07-04T15:39:15Z</time>
      </trkpt>
      <trkpt lat="45.95729" lon="4.82286">
        <ele>255</ele>
        <time>2017-07-04T15:39:16Z</time>
      </trkpt>
      <trkpt lat="45.95723" lon="4.82278">
        <ele>255</ele>
        <time>2017-07-04T15:39:19Z</time>
      </trkpt>
      <trkpt lat="45.95721" lon="4.82275">
        <ele>255</ele>
        <time>2017-07-04T15:39:20Z</time>
      </trkpt>
      <trkpt lat="45.95713" lon="4.82269">
        <ele>255</ele>
        <time>2017-07-04T15:39:24Z</time>
      </trkpt>
      <trkpt lat="45.95711" lon="4.82267">
        <ele>255</ele>
        <time>2017-07-04T15:39:25Z</time>
      </trkpt>
      <trkpt lat="45.95706" lon="4.82259">
        <ele>255</ele>
        <time>2017-07-04T15:39:28Z</time>
      </trkpt>
      <trkpt lat="45.95704" lon="4.82256">
        <ele>255</ele>
        <time>2017-07-04T15:39:29Z</time>
      </trkpt>
      <trkpt lat="45.95698" lon="4.8225">
        <ele>254</ele>
        <time>2017-07-04T15:39:31Z</time>
      </trkpt>
      <trkpt lat="45.95695" lon="4.82247">
        <ele>254</ele>
        <time>2017-07-04T15:39:32Z</time>
      </trkpt>
      <trkpt lat="45.95688" lon="4.82241">
        <ele>255</ele>
        <time>2017-07-04T15:39:35Z</time>
      </trkpt>
      <trkpt lat="45.95686" lon="4.82239">
        <ele>255</ele>
        <time>2017-07-04T15:39:36Z</time>
      </trkpt>
      <trkpt lat="45.95679" lon="4.82234">
        <ele>255</ele>
        <time>2017-07-04T15:39:39Z</time>
      </trkpt>
      <trkpt lat="45.95676" lon="4.82233">
        <ele>255</ele>
        <time>2017-07-04T15:39:40Z</time>
      </trkpt>
      <trkpt lat="45.95669" lon="4.8223">
        <ele>255</ele>
        <time>2017-07-04T15:39:42Z</time>
      </trkpt>
      <trkpt lat="45.95666" lon="4.82229">
        <ele>257</ele>
        <time>2017-07-04T15:39:43Z</time>
      </trkpt>
      <trkpt lat="45.95659" lon="4.82226">
        <ele>257</ele>
        <time>2017-07-04T15:39:45Z</time>
      </trkpt>
      <trkpt lat="45.95655" lon="4.82225">
        <ele>257</ele>
        <time>2017-07-04T15:39:46Z</time>
      </trkpt>
      <trkpt lat="45.95646" lon="4.82224">
        <ele>257</ele>
        <time>2017-07-04T15:39:48Z</time>
      </trkpt>
      <trkpt lat="45.95642" lon="4.82224">
        <ele>257</ele>
        <time>2017-07-04T15:39:49Z</time>
      </trkpt>
      <trkpt lat="45.95635" lon="4.82223">
        <ele>257</ele>
        <time>2017-07-04T15:39:51Z</time>
      </trkpt>
      <trkpt lat="45.95633" lon="4.82223">
        <ele>257</ele>
        <time>2017-07-04T15:39:52Z</time>
      </trkpt>
      <trkpt lat="45.95624" lon="4.82225">
        <ele>257</ele>
        <time>2017-07-04T15:39:55Z</time>
      </trkpt>
      <trkpt lat="45.95621" lon="4.82226">
        <ele>257</ele>
        <time>2017-07-04T15:39:56Z</time>
      </trkpt>
      <trkpt lat="45.95615" lon="4.82227">
        <ele>257</ele>
        <time>2017-07-04T15:39:58Z</time>
      </trkpt>
      <trkpt lat="45.95612" lon="4.82227">
        <ele>257</ele>
        <time>2017-07-04T15:39:59Z</time>
      </trkpt>
      <trkpt lat="45.95605" lon="4.82227">
        <ele>257</ele>
        <time>2017-07-04T15:40:01Z</time>
      </trkpt>
      <trkpt lat="45.95602" lon="4.82227">
        <ele>257</ele>
        <time>2017-07-04T15:40:02Z</time>
      </trkpt>
      <trkpt lat="45.95595" lon="4.82225">
        <ele>257</ele>
        <time>2017-07-04T15:40:04Z</time>
      </trkpt>
      <trkpt lat="45.95593" lon="4.82223">
        <ele>257</ele>
        <time>2017-07-04T15:40:05Z</time>
      </trkpt>
      <trkpt lat="45.95586" lon="4.82218">
        <ele>257</ele>
        <time>2017-07-04T15:40:07Z</time>
      </trkpt>
      <trkpt lat="45.95583" lon="4.82215">
        <ele>258</ele>
        <time>2017-07-04T15:40:08Z</time>
      </trkpt>
      <trkpt lat="45.95577" lon="4.82209">
        <ele>258</ele>
        <time>2017-07-04T15:40:10Z</time>
      </trkpt>
      <trkpt lat="45.95574" lon="4.82206">
        <ele>258</ele>
        <time>2017-07-04T15:40:11Z</time>
      </trkpt>
      <trkpt lat="45.95569" lon="4.82201">
        <ele>258</ele>
        <time>2017-07-04T15:40:13Z</time>
      </trkpt>
      <trkpt lat="45.95566" lon="4.82199">
        <ele>258</ele>
        <time>2017-07-04T15:40:14Z</time>
      </trkpt>
      <trkpt lat="45.95559" lon="4.82194">
        <ele>259</ele>
        <time>2017-07-04T15:40:16Z</time>
      </trkpt>
      <trkpt lat="45.95554" lon="4.8219">
        <ele>259</ele>
        <time>2017-07-04T15:40:17Z</time>
      </trkpt>
      <trkpt lat="45.95547" lon="4.82184">
        <ele>259</ele>
        <time>2017-07-04T15:40:19Z</time>
      </trkpt>
      <trkpt lat="45.95544" lon="4.82181">
        <ele>259</ele>
        <time>2017-07-04T15:40:20Z</time>
      </trkpt>
      <trkpt lat="45.95537" lon="4.82175">
        <ele>259</ele>
        <time>2017-07-04T15:40:22Z</time>
      </trkpt>
      <trkpt lat="45.95534" lon="4.82172">
        <ele>259</ele>
        <time>2017-07-04T15:40:23Z</time>
      </trkpt>
      <trkpt lat="45.95528" lon="4.82165">
        <ele>259</ele>
        <time>2017-07-04T15:40:25Z</time>
      </trkpt>
      <trkpt lat="45.95525" lon="4.82162">
        <ele>259</ele>
        <time>2017-07-04T15:40:26Z</time>
      </trkpt>
      <trkpt lat="45.95518" lon="4.82155">
        <ele>259</ele>
        <time>2017-07-04T15:40:28Z</time>
      </trkpt>
      <trkpt lat="45.95515" lon="4.82152">
        <ele>259</ele>
        <time>2017-07-04T15:40:29Z</time>
      </trkpt>
      <trkpt lat="45.95508" lon="4.82146">
        <ele>259</ele>
        <time>2017-07-04T15:40:31Z</time>
      </trkpt>
      <trkpt lat="45.95506" lon="4.82143">
        <ele>259</ele>
        <time>2017-07-04T15:40:32Z</time>
      </trkpt>
      <trkpt lat="45.955" lon="4.82137">
        <ele>259</ele>
        <time>2017-07-04T15:40:34Z</time>
      </trkpt>
      <trkpt lat="45.95498" lon="4.82133">
        <ele>260</ele>
        <time>2017-07-04T15:40:35Z</time>
      </trkpt>
      <trkpt lat="45.95491" lon="4.82127">
        <ele>260</ele>
        <time>2017-07-04T15:40:37Z</time>
      </trkpt>
      <trkpt lat="45.95488" lon="4.82124">
        <ele>260</ele>
        <time>2017-07-04T15:40:38Z</time>
      </trkpt>
      <trkpt lat="45.95482" lon="4.82118">
        <ele>260</ele>
        <time>2017-07-04T15:40:40Z</time>
      </trkpt>
      <trkpt lat="45.95477" lon="4.82116">
        <ele>260</ele>
        <time>2017-07-04T15:40:41Z</time>
      </trkpt>
      <trkpt lat="45.9547" lon="4.82109">
        <ele>260</ele>
        <time>2017-07-04T15:40:43Z</time>
      </trkpt>
      <trkpt lat="45.95466" lon="4.82106">
        <ele>260</ele>
        <time>2017-07-04T15:40:44Z</time>
      </trkpt>
      <trkpt lat="45.9546" lon="4.82099">
        <ele>260</ele>
        <time>2017-07-04T15:40:46Z</time>
      </trkpt>
      <trkpt lat="45.95456" lon="4.82095">
        <ele>260</ele>
        <time>2017-07-04T15:40:47Z</time>
      </trkpt>
      <trkpt lat="45.9545" lon="4.82089">
        <ele>260</ele>
        <time>2017-07-04T15:40:49Z</time>
      </trkpt>
      <trkpt lat="45.95447" lon="4.82085">
        <ele>260</ele>
        <time>2017-07-04T15:40:50Z</time>
      </trkpt>
      <trkpt lat="45.9544" lon="4.82079">
        <ele>260</ele>
        <time>2017-07-04T15:40:52Z</time>
      </trkpt>
      <trkpt lat="45.95438" lon="4.82076">
        <ele>260</ele>
        <time>2017-07-04T15:40:53Z</time>
      </trkpt>
      <trkpt lat="45.95432" lon="4.82069">
        <ele>260</ele>
        <time>2017-07-04T15:40:55Z</time>
      </trkpt>
      <trkpt lat="45.95429" lon="4.82067">
        <ele>260</ele>
        <time>2017-07-04T15:40:56Z</time>
      </trkpt>
      <trkpt lat="45.95424" lon="4.8206">
        <ele>260</ele>
        <time>2017-07-04T15:40:58Z</time>
      </trkpt>
      <trkpt lat="45.95421" lon="4.82057">
        <ele>260</ele>
        <time>2017-07-04T15:40:59Z</time>
      </trkpt>
      <trkpt lat="45.95415" lon="4.82049">
        <ele>261</ele>
        <time>2017-07-04T15:41:01Z</time>
      </trkpt>
      <trkpt lat="45.95411" lon="4.82045">
        <ele>261</ele>
        <time>2017-07-04T15:41:02Z</time>
      </trkpt>
      <trkpt lat="45.95407" lon="4.82041">
        <ele>261</ele>
        <time>2017-07-04T15:41:03Z</time>
      </trkpt>
      <trkpt lat="45.95403" lon="4.82037">
        <ele>261</ele>
        <time>2017-07-04T15:41:04Z</time>
      </trkpt>
      <trkpt lat="45.954" lon="4.82033">
        <ele>261</ele>
        <time>2017-07-04T15:41:05Z</time>
      </trkpt>
      <trkpt lat="45.95396" lon="4.82029">
        <ele>261</ele>
        <time>2017-07-04T15:41:06Z</time>
      </trkpt>
      <trkpt lat="45.95392" lon="4.82025">
        <ele>261</ele>
        <time>2017-07-04T15:41:07Z</time>
      </trkpt>
      <trkpt lat="45.95388" lon="4.82022">
        <ele>261</ele>
        <time>2017-07-04T15:41:08Z</time>
      </trkpt>
      <trkpt lat="45.9538" lon="4.82015">
        <ele>262</ele>
        <time>2017-07-04T15:41:10Z</time>
      </trkpt>
      <trkpt lat="45.95377" lon="4.82011">
        <ele>262</ele>
        <time>2017-07-04T15:41:11Z</time>
      </trkpt>
      <trkpt lat="45.95374" lon="4.82007">
        <ele>262</ele>
        <time>2017-07-04T15:41:12Z</time>
      </trkpt>
      <trkpt lat="45.9537" lon="4.82003">
        <ele>262</ele>
        <time>2017-07-04T15:41:13Z</time>
      </trkpt>
      <trkpt lat="45.95363" lon="4.81996">
        <ele>261</ele>
        <time>2017-07-04T15:41:15Z</time>
      </trkpt>
      <trkpt lat="45.95359" lon="4.81992">
        <ele>261</ele>
        <time>2017-07-04T15:41:16Z</time>
      </trkpt>
      <trkpt lat="45.95355" lon="4.81988">
        <ele>262</ele>
        <time>2017-07-04T15:41:17Z</time>
      </trkpt>
      <trkpt lat="45.95351" lon="4.81984">
        <ele>262</ele>
        <time>2017-07-04T15:41:18Z</time>
      </trkpt>
      <trkpt lat="45.95347" lon="4.8198">
        <ele>262</ele>
        <time>2017-07-04T15:41:19Z</time>
      </trkpt>
      <trkpt lat="45.95343" lon="4.81977">
        <ele>262</ele>
        <time>2017-07-04T15:41:20Z</time>
      </trkpt>
      <trkpt lat="45.95336" lon="4.81971">
        <ele>261</ele>
        <time>2017-07-04T15:41:22Z</time>
      </trkpt>
      <trkpt lat="45.95332" lon="4.81967">
        <ele>262</ele>
        <time>2017-07-04T15:41:23Z</time>
      </trkpt>
      <trkpt lat="45.95325" lon="4.8196">
        <ele>262</ele>
        <time>2017-07-04T15:41:25Z</time>
      </trkpt>
      <trkpt lat="45.95321" lon="4.81956">
        <ele>262</ele>
        <time>2017-07-04T15:41:26Z</time>
      </trkpt>
      <trkpt lat="45.95317" lon="4.81952">
        <ele>262</ele>
        <time>2017-07-04T15:41:27Z</time>
      </trkpt>
      <trkpt lat="45.95313" lon="4.81948">
        <ele>262</ele>
        <time>2017-07-04T15:41:28Z</time>
      </trkpt>
      <trkpt lat="45.95309" lon="4.81944">
        <ele>261</ele>
        <time>2017-07-04T15:41:29Z</time>
      </trkpt>
      <trkpt lat="45.95305" lon="4.8194">
        <ele>261</ele>
        <time>2017-07-04T15:41:30Z</time>
      </trkpt>
      <trkpt lat="45.95301" lon="4.81935">
        <ele>261</ele>
        <time>2017-07-04T15:41:31Z</time>
      </trkpt>
      <trkpt lat="45.95298" lon="4.81931">
        <ele>261</ele>
        <time>2017-07-04T15:41:32Z</time>
      </trkpt>
      <trkpt lat="45.95292" lon="4.81922">
        <ele>261</ele>
        <time>2017-07-04T15:41:34Z</time>
      </trkpt>
      <trkpt lat="45.95288" lon="4.81917">
        <ele>261</ele>
        <time>2017-07-04T15:41:35Z</time>
      </trkpt>
      <trkpt lat="45.95285" lon="4.81913">
        <ele>260</ele>
        <time>2017-07-04T15:41:36Z</time>
      </trkpt>
      <trkpt lat="45.95281" lon="4.81908">
        <ele>260</ele>
        <time>2017-07-04T15:41:37Z</time>
      </trkpt>
      <trkpt lat="45.95275" lon="4.81899">
        <ele>260</ele>
        <time>2017-07-04T15:41:39Z</time>
      </trkpt>
      <trkpt lat="45.95272" lon="4.81895">
        <ele>260</ele>
        <time>2017-07-04T15:41:40Z</time>
      </trkpt>
      <trkpt lat="45.95266" lon="4.81886">
        <ele>260</ele>
        <time>2017-07-04T15:41:42Z</time>
      </trkpt>
      <trkpt lat="45.95263" lon="4.81881">
        <ele>260</ele>
        <time>2017-07-04T15:41:43Z</time>
      </trkpt>
      <trkpt lat="45.9526" lon="4.81876">
        <ele>260</ele>
        <time>2017-07-04T15:41:44Z</time>
      </trkpt>
      <trkpt lat="45.95256" lon="4.81871">
        <ele>260</ele>
        <time>2017-07-04T15:41:45Z</time>
      </trkpt>
      <trkpt lat="45.95253" lon="4.81867">
        <ele>260</ele>
        <time>2017-07-04T15:41:46Z</time>
      </trkpt>
      <trkpt lat="45.95249" lon="4.81862">
        <ele>260</ele>
        <time>2017-07-04T15:41:47Z</time>
      </trkpt>
      <trkpt lat="45.95246" lon="4.81856">
        <ele>260</ele>
        <time>2017-07-04T15:41:48Z</time>
      </trkpt>
      <trkpt lat="45.95242" lon="4.8185">
        <ele>260</ele>
        <time>2017-07-04T15:41:49Z</time>
      </trkpt>
      <trkpt lat="45.95238" lon="4.81845">
        <ele>260</ele>
        <time>2017-07-04T15:41:50Z</time>
      </trkpt>
      <trkpt lat="45.95234" lon="4.81839">
        <ele>260</ele>
        <time>2017-07-04T15:41:51Z</time>
      </trkpt>
      <trkpt lat="45.9523" lon="4.81834">
        <ele>260</ele>
        <time>2017-07-04T15:41:52Z</time>
      </trkpt>
      <trkpt lat="45.95226" lon="4.81829">
        <ele>259</ele>
        <time>2017-07-04T15:41:53Z</time>
      </trkpt>
      <trkpt lat="45.95222" lon="4.81824">
        <ele>259</ele>
        <time>2017-07-04T15:41:54Z</time>
      </trkpt>
      <trkpt lat="45.95219" lon="4.81818">
        <ele>259</ele>
        <time>2017-07-04T15:41:55Z</time>
      </trkpt>
      <trkpt lat="45.95216" lon="4.81812">
        <ele>259</ele>
        <time>2017-07-04T15:41:56Z</time>
      </trkpt>
      <trkpt lat="45.95213" lon="4.81806">
        <ele>259</ele>
        <time>2017-07-04T15:41:57Z</time>
      </trkpt>
      <trkpt lat="45.95209" lon="4.818">
        <ele>259</ele>
        <time>2017-07-04T15:41:58Z</time>
      </trkpt>
      <trkpt lat="45.95205" lon="4.81794">
        <ele>259</ele>
        <time>2017-07-04T15:41:59Z</time>
      </trkpt>
      <trkpt lat="45.95201" lon="4.81788">
        <ele>258</ele>
        <time>2017-07-04T15:42:00Z</time>
      </trkpt>
      <trkpt lat="45.95196" lon="4.81781">
        <ele>258</ele>
        <time>2017-07-04T15:42:01Z</time>
      </trkpt>
      <trkpt lat="45.95191" lon="4.81774">
        <ele>258</ele>
        <time>2017-07-04T15:42:02Z</time>
      </trkpt>
      <trkpt lat="45.95187" lon="4.81767">
        <ele>258</ele>
        <time>2017-07-04T15:42:03Z</time>
      </trkpt>
      <trkpt lat="45.95182" lon="4.81759">
        <ele>258</ele>
        <time>2017-07-04T15:42:04Z</time>
      </trkpt>
      <trkpt lat="45.95178" lon="4.81752">
        <ele>258</ele>
        <time>2017-07-04T15:42:05Z</time>
      </trkpt>
      <trkpt lat="45.95173" lon="4.81743">
        <ele>257</ele>
        <time>2017-07-04T15:42:06Z</time>
      </trkpt>
      <trkpt lat="45.95168" lon="4.81734">
        <ele>257</ele>
        <time>2017-07-04T15:42:07Z</time>
      </trkpt>
      <trkpt lat="45.95165" lon="4.81725">
        <ele>256</ele>
        <time>2017-07-04T15:42:08Z</time>
      </trkpt>
      <trkpt lat="45.95161" lon="4.81714">
        <ele>256</ele>
        <time>2017-07-04T15:42:09Z</time>
      </trkpt>
      <trkpt lat="45.95157" lon="4.81703">
        <ele>255</ele>
        <time>2017-07-04T15:42:10Z</time>
      </trkpt>
      <trkpt lat="45.95152" lon="4.81692">
        <ele>255</ele>
        <time>2017-07-04T15:42:11Z</time>
      </trkpt>
      <trkpt lat="45.95148" lon="4.81679">
        <ele>255</ele>
        <time>2017-07-04T15:42:12Z</time>
      </trkpt>
      <trkpt lat="45.95143" lon="4.81667">
        <ele>255</ele>
        <time>2017-07-04T15:42:13Z</time>
      </trkpt>
      <trkpt lat="45.95139" lon="4.81655">
        <ele>253</ele>
        <time>2017-07-04T15:42:14Z</time>
      </trkpt>
      <trkpt lat="45.95135" lon="4.81643">
        <ele>253</ele>
        <time>2017-07-04T15:42:15Z</time>
      </trkpt>
      <trkpt lat="45.95131" lon="4.81631">
        <ele>253</ele>
        <time>2017-07-04T15:42:16Z</time>
      </trkpt>
      <trkpt lat="45.95127" lon="4.81618">
        <ele>252</ele>
        <time>2017-07-04T15:42:17Z</time>
      </trkpt>
      <trkpt lat="45.95123" lon="4.81605">
        <ele>252</ele>
        <time>2017-07-04T15:42:18Z</time>
      </trkpt>
      <trkpt lat="45.95119" lon="4.81592">
        <ele>252</ele>
        <time>2017-07-04T15:42:19Z</time>
      </trkpt>
      <trkpt lat="45.95115" lon="4.8158">
        <ele>251</ele>
        <time>2017-07-04T15:42:20Z</time>
      </trkpt>
      <trkpt lat="45.95111" lon="4.81568">
        <ele>251</ele>
        <time>2017-07-04T15:42:21Z</time>
      </trkpt>
      <trkpt lat="45.95108" lon="4.81556">
        <ele>251</ele>
        <time>2017-07-04T15:42:22Z</time>
      </trkpt>
      <trkpt lat="45.95104" lon="4.81545">
        <ele>251</ele>
        <time>2017-07-04T15:42:23Z</time>
      </trkpt>
      <trkpt lat="45.951" lon="4.81534">
        <ele>251</ele>
        <time>2017-07-04T15:42:24Z</time>
      </trkpt>
      <trkpt lat="45.95096" lon="4.81524">
        <ele>251</ele>
        <time>2017-07-04T15:42:25Z</time>
      </trkpt>
      <trkpt lat="45.95093" lon="4.81515">
        <ele>251</ele>
        <time>2017-07-04T15:42:26Z</time>
      </trkpt>
      <trkpt lat="45.9509" lon="4.81506">
        <ele>252</ele>
        <time>2017-07-04T15:42:27Z</time>
      </trkpt>
      <trkpt lat="45.95088" lon="4.81498">
        <ele>252</ele>
        <time>2017-07-04T15:42:28Z</time>
      </trkpt>
      <trkpt lat="45.95085" lon="4.8149">
        <ele>251</ele>
        <time>2017-07-04T15:42:29Z</time>
      </trkpt>
      <trkpt lat="45.95083" lon="4.81482">
        <ele>253</ele>
        <time>2017-07-04T15:42:30Z</time>
      </trkpt>
      <trkpt lat="45.95081" lon="4.81475">
        <ele>253</ele>
        <time>2017-07-04T15:42:31Z</time>
      </trkpt>
      <trkpt lat="45.95078" lon="4.81469">
        <ele>253</ele>
        <time>2017-07-04T15:42:32Z</time>
      </trkpt>
      <trkpt lat="45.95075" lon="4.81463">
        <ele>253</ele>
        <time>2017-07-04T15:42:33Z</time>
      </trkpt>
      <trkpt lat="45.95071" lon="4.81454">
        <ele>253</ele>
        <time>2017-07-04T15:42:35Z</time>
      </trkpt>
      <trkpt lat="45.95069" lon="4.81448">
        <ele>253</ele>
        <time>2017-07-04T15:42:36Z</time>
      </trkpt>
      <trkpt lat="45.95067" lon="4.81442">
        <ele>253</ele>
        <time>2017-07-04T15:42:37Z</time>
      </trkpt>
      <trkpt lat="45.95064" lon="4.81435">
        <ele>252</ele>
        <time>2017-07-04T15:42:38Z</time>
      </trkpt>
      <trkpt lat="45.95061" lon="4.81428">
        <ele>252</ele>
        <time>2017-07-04T15:42:39Z</time>
      </trkpt>
      <trkpt lat="45.95058" lon="4.81421">
        <ele>253</ele>
        <time>2017-07-04T15:42:40Z</time>
      </trkpt>
      <trkpt lat="45.95055" lon="4.81415">
        <ele>253</ele>
        <time>2017-07-04T15:42:41Z</time>
      </trkpt>
      <trkpt lat="45.95053" lon="4.81408">
        <ele>253</ele>
        <time>2017-07-04T15:42:42Z</time>
      </trkpt>
      <trkpt lat="45.9505" lon="4.81397">
        <ele>253</ele>
        <time>2017-07-04T15:42:44Z</time>
      </trkpt>
      <trkpt lat="45.95048" lon="4.81392">
        <ele>253</ele>
        <time>2017-07-04T15:42:45Z</time>
      </trkpt>
      <trkpt lat="45.95045" lon="4.81382">
        <ele>254</ele>
        <time>2017-07-04T15:42:47Z</time>
      </trkpt>
      <trkpt lat="45.95043" lon="4.81376">
        <ele>254</ele>
        <time>2017-07-04T15:42:48Z</time>
      </trkpt>
      <trkpt lat="45.9504" lon="4.81366">
        <ele>254</ele>
        <time>2017-07-04T15:42:50Z</time>
      </trkpt>
      <trkpt lat="45.95038" lon="4.8136">
        <ele>254</ele>
        <time>2017-07-04T15:42:51Z</time>
      </trkpt>
      <trkpt lat="45.95035" lon="4.81348">
        <ele>254</ele>
        <time>2017-07-04T15:42:53Z</time>
      </trkpt>
      <trkpt lat="45.95033" lon="4.81342">
        <ele>254</ele>
        <time>2017-07-04T15:42:54Z</time>
      </trkpt>
      <trkpt lat="45.9503" lon="4.8133">
        <ele>255</ele>
        <time>2017-07-04T15:42:56Z</time>
      </trkpt>
      <trkpt lat="45.95028" lon="4.81323">
        <ele>255</ele>
        <time>2017-07-04T15:42:57Z</time>
      </trkpt>
      <trkpt lat="45.95026" lon="4.81317">
        <ele>255</ele>
        <time>2017-07-04T15:42:58Z</time>
      </trkpt>
      <trkpt lat="45.95024" lon="4.81312">
        <ele>255</ele>
        <time>2017-07-04T15:42:59Z</time>
      </trkpt>
      <trkpt lat="45.95022" lon="4.81301">
        <ele>255</ele>
        <time>2017-07-04T15:43:01Z</time>
      </trkpt>
      <trkpt lat="45.95021" lon="4.81295">
        <ele>255</ele>
        <time>2017-07-04T15:43:02Z</time>
      </trkpt>
      <trkpt lat="45.95019" lon="4.8129">
        <ele>255</ele>
        <time>2017-07-04T15:43:03Z</time>
      </trkpt>
      <trkpt lat="45.95018" lon="4.81283">
        <ele>255</ele>
        <time>2017-07-04T15:43:04Z</time>
      </trkpt>
      <trkpt lat="45.95017" lon="4.81276">
        <ele>255</ele>
        <time>2017-07-04T15:43:05Z</time>
      </trkpt>
      <trkpt lat="45.95016" lon="4.81269">
        <ele>255</ele>
        <time>2017-07-04T15:43:06Z</time>
      </trkpt>
      <trkpt lat="45.95015" lon="4.81261">
        <ele>256</ele>
        <time>2017-07-04T15:43:07Z</time>
      </trkpt>
      <trkpt lat="45.95015" lon="4.81254">
        <ele>256</ele>
        <time>2017-07-04T15:43:08Z</time>
      </trkpt>
      <trkpt lat="45.95014" lon="4.81248">
        <ele>256</ele>
        <time>2017-07-04T15:43:09Z</time>
      </trkpt>
      <trkpt lat="45.95013" lon="4.81241">
        <ele>256</ele>
        <time>2017-07-04T15:43:10Z</time>
      </trkpt>
      <trkpt lat="45.95012" lon="4.81234">
        <ele>256</ele>
        <time>2017-07-04T15:43:11Z</time>
      </trkpt>
      <trkpt lat="45.95011" lon="4.81228">
        <ele>256</ele>
        <time>2017-07-04T15:43:12Z</time>
      </trkpt>
      <trkpt lat="45.95011" lon="4.81221">
        <ele>256</ele>
        <time>2017-07-04T15:43:13Z</time>
      </trkpt>
      <trkpt lat="45.9501" lon="4.81214">
        <ele>256</ele>
        <time>2017-07-04T15:43:14Z</time>
      </trkpt>
      <trkpt lat="45.95009" lon="4.81208">
        <ele>256</ele>
        <time>2017-07-04T15:43:15Z</time>
      </trkpt>
      <trkpt lat="45.95009" lon="4.81201">
        <ele>256</ele>
        <time>2017-07-04T15:43:16Z</time>
      </trkpt>
      <trkpt lat="45.95008" lon="4.81194">
        <ele>256</ele>
        <time>2017-07-04T15:43:17Z</time>
      </trkpt>
      <trkpt lat="45.95007" lon="4.81187">
        <ele>256</ele>
        <time>2017-07-04T15:43:18Z</time>
      </trkpt>
      <trkpt lat="45.95006" lon="4.81181">
        <ele>256</ele>
        <time>2017-07-04T15:43:19Z</time>
      </trkpt>
      <trkpt lat="45.95005" lon="4.81174">
        <ele>256</ele>
        <time>2017-07-04T15:43:20Z</time>
      </trkpt>
      <trkpt lat="45.95003" lon="4.81162">
        <ele>256</ele>
        <time>2017-07-04T15:43:22Z</time>
      </trkpt>
      <trkpt lat="45.95002" lon="4.81156">
        <ele>256</ele>
        <time>2017-07-04T15:43:23Z</time>
      </trkpt>
      <trkpt lat="45.95" lon="4.81146">
        <ele>256</ele>
        <time>2017-07-04T15:43:25Z</time>
      </trkpt>
      <trkpt lat="45.95" lon="4.81141">
        <ele>256</ele>
        <time>2017-07-04T15:43:26Z</time>
      </trkpt>
      <trkpt lat="45.95" lon="4.81129">
        <ele>256</ele>
        <time>2017-07-04T15:43:28Z</time>
      </trkpt>
      <trkpt lat="45.95" lon="4.81124">
        <ele>257</ele>
        <time>2017-07-04T15:43:29Z</time>
      </trkpt>
      <trkpt lat="45.94999" lon="4.81113">
        <ele>257</ele>
        <time>2017-07-04T15:43:31Z</time>
      </trkpt>
      <trkpt lat="45.94998" lon="4.81106">
        <ele>257</ele>
        <time>2017-07-04T15:43:32Z</time>
      </trkpt>
      <trkpt lat="45.94997" lon="4.81094">
        <ele>257</ele>
        <time>2017-07-04T15:43:34Z</time>
      </trkpt>
      <trkpt lat="45.94997" lon="4.81087">
        <ele>257</ele>
        <time>2017-07-04T15:43:35Z</time>
      </trkpt>
      <trkpt lat="45.94997" lon="4.81081">
        <ele>257</ele>
        <time>2017-07-04T15:43:36Z</time>
      </trkpt>
      <trkpt lat="45.94997" lon="4.81074">
        <ele>257</ele>
        <time>2017-07-04T15:43:37Z</time>
      </trkpt>
      <trkpt lat="45.94996" lon="4.81062">
        <ele>257</ele>
        <time>2017-07-04T15:43:39Z</time>
      </trkpt>
      <trkpt lat="45.94995" lon="4.81056">
        <ele>257</ele>
        <time>2017-07-04T15:43:40Z</time>
      </trkpt>
      <trkpt lat="45.94994" lon="4.81045">
        <ele>257</ele>
        <time>2017-07-04T15:43:42Z</time>
      </trkpt>
      <trkpt lat="45.94994" lon="4.8104">
        <ele>257</ele>
        <time>2017-07-04T15:43:43Z</time>
      </trkpt>
      <trkpt lat="45.94994" lon="4.81027">
        <ele>257</ele>
        <time>2017-07-04T15:43:45Z</time>
      </trkpt>
      <trkpt lat="45.94993" lon="4.8102">
        <ele>257</ele>
        <time>2017-07-04T15:43:46Z</time>
      </trkpt>
      <trkpt lat="45.94992" lon="4.81007">
        <ele>257</ele>
        <time>2017-07-04T15:43:48Z</time>
      </trkpt>
      <trkpt lat="45.94991" lon="4.81001">
        <ele>257</ele>
        <time>2017-07-04T15:43:49Z</time>
      </trkpt>
      <trkpt lat="45.9499" lon="4.8099">
        <ele>257</ele>
        <time>2017-07-04T15:43:51Z</time>
      </trkpt>
      <trkpt lat="45.94989" lon="4.80984">
        <ele>258</ele>
        <time>2017-07-04T15:43:52Z</time>
      </trkpt>
      <trkpt lat="45.94988" lon="4.80973">
        <ele>258</ele>
        <time>2017-07-04T15:43:54Z</time>
      </trkpt>
      <trkpt lat="45.94987" lon="4.80967">
        <ele>258</ele>
        <time>2017-07-04T15:43:55Z</time>
      </trkpt>
      <trkpt lat="45.94987" lon="4.80961">
        <ele>258</ele>
        <time>2017-07-04T15:43:56Z</time>
      </trkpt>
      <trkpt lat="45.94986" lon="4.80954">
        <ele>258</ele>
        <time>2017-07-04T15:43:57Z</time>
      </trkpt>
      <trkpt lat="45.94984" lon="4.80947">
        <ele>258</ele>
        <time>2017-07-04T15:43:58Z</time>
      </trkpt>
      <trkpt lat="45.94983" lon="4.8094">
        <ele>258</ele>
        <time>2017-07-04T15:43:59Z</time>
      </trkpt>
      <trkpt lat="45.94981" lon="4.80933">
        <ele>258</ele>
        <time>2017-07-04T15:44:00Z</time>
      </trkpt>
      <trkpt lat="45.9498" lon="4.80927">
        <ele>258</ele>
        <time>2017-07-04T15:44:01Z</time>
      </trkpt>
      <trkpt lat="45.94978" lon="4.8092">
        <ele>258</ele>
        <time>2017-07-04T15:44:02Z</time>
      </trkpt>
      <trkpt lat="45.94977" lon="4.80914">
        <ele>258</ele>
        <time>2017-07-04T15:44:03Z</time>
      </trkpt>
      <trkpt lat="45.94975" lon="4.80902">
        <ele>258</ele>
        <time>2017-07-04T15:44:05Z</time>
      </trkpt>
      <trkpt lat="45.94975" lon="4.80895">
        <ele>258</ele>
        <time>2017-07-04T15:44:06Z</time>
      </trkpt>
      <trkpt lat="45.94974" lon="4.80889">
        <ele>258</ele>
        <time>2017-07-04T15:44:07Z</time>
      </trkpt>
      <trkpt lat="45.94972" lon="4.80883">
        <ele>258</ele>
        <time>2017-07-04T15:44:08Z</time>
      </trkpt>
      <trkpt lat="45.94971" lon="4.80876">
        <ele>258</ele>
        <time>2017-07-04T15:44:09Z</time>
      </trkpt>
      <trkpt lat="45.9497" lon="4.8087">
        <ele>259</ele>
        <time>2017-07-04T15:44:10Z</time>
      </trkpt>
      <trkpt lat="45.94968" lon="4.80858">
        <ele>259</ele>
        <time>2017-07-04T15:44:12Z</time>
      </trkpt>
      <trkpt lat="45.94966" lon="4.80853">
        <ele>259</ele>
        <time>2017-07-04T15:44:13Z</time>
      </trkpt>
      <trkpt lat="45.94965" lon="4.80842">
        <ele>259</ele>
        <time>2017-07-04T15:44:15Z</time>
      </trkpt>
      <trkpt lat="45.94963" lon="4.80836">
        <ele>259</ele>
        <time>2017-07-04T15:44:16Z</time>
      </trkpt>
      <trkpt lat="45.9496" lon="4.80827">
        <ele>259</ele>
        <time>2017-07-04T15:44:18Z</time>
      </trkpt>
      <trkpt lat="45.94959" lon="4.80822">
        <ele>259</ele>
        <time>2017-07-04T15:44:19Z</time>
      </trkpt>
      <trkpt lat="45.94957" lon="4.80813">
        <ele>258</ele>
        <time>2017-07-04T15:44:21Z</time>
      </trkpt>
      <trkpt lat="45.94957" lon="4.80808">
        <ele>258</ele>
        <time>2017-07-04T15:44:22Z</time>
      </trkpt>
      <trkpt lat="45.94956" lon="4.80802">
        <ele>259</ele>
        <time>2017-07-04T15:44:27Z</time>
      </trkpt>
      <trkpt lat="45.94956" lon="4.808">
        <ele>259</ele>
        <time>2017-07-04T15:44:28Z</time>
      </trkpt>
      <trkpt lat="45.94956" lon="4.80795">
        <ele>259</ele>
        <time>2017-07-04T15:44:31Z</time>
      </trkpt>
      <trkpt lat="45.94957" lon="4.80793">
        <ele>259</ele>
        <time>2017-07-04T15:44:32Z</time>
      </trkpt>
      <trkpt lat="45.94955" lon="4.80782">
        <ele>259</ele>
        <time>2017-07-04T15:44:35Z</time>
      </trkpt>
      <trkpt lat="45.94954" lon="4.80777">
        <ele>259</ele>
        <time>2017-07-04T15:44:36Z</time>
      </trkpt>
      <trkpt lat="45.94954" lon="4.80765">
        <ele>259</ele>
        <time>2017-07-04T15:44:38Z</time>
      </trkpt>
      <trkpt lat="45.94955" lon="4.80758">
        <ele>259</ele>
        <time>2017-07-04T15:44:39Z</time>
      </trkpt>
      <trkpt lat="45.94955" lon="4.80751">
        <ele>259</ele>
        <time>2017-07-04T15:44:40Z</time>
      </trkpt>
      <trkpt lat="45.94956" lon="4.80744">
        <ele>259</ele>
        <time>2017-07-04T15:44:41Z</time>
      </trkpt>
      <trkpt lat="45.94957" lon="4.80732">
        <ele>259</ele>
        <time>2017-07-04T15:44:43Z</time>
      </trkpt>
      <trkpt lat="45.94957" lon="4.80726">
        <ele>259</ele>
        <time>2017-07-04T15:44:44Z</time>
      </trkpt>
      <trkpt lat="45.94958" lon="4.80714">
        <ele>259</ele>
        <time>2017-07-04T15:44:46Z</time>
      </trkpt>
      <trkpt lat="45.94957" lon="4.80708">
        <ele>259</ele>
        <time>2017-07-04T15:44:47Z</time>
      </trkpt>
      <trkpt lat="45.94957" lon="4.80696">
        <ele>259</ele>
        <time>2017-07-04T15:44:49Z</time>
      </trkpt>
      <trkpt lat="45.94957" lon="4.8069">
        <ele>259</ele>
        <time>2017-07-04T15:44:50Z</time>
      </trkpt>
      <trkpt lat="45.94957" lon="4.80683">
        <ele>259</ele>
        <time>2017-07-04T15:44:51Z</time>
      </trkpt>
      <trkpt lat="45.94957" lon="4.80676">
        <ele>259</ele>
        <time>2017-07-04T15:44:52Z</time>
      </trkpt>
      <trkpt lat="45.94956" lon="4.80669">
        <ele>259</ele>
        <time>2017-07-04T15:44:53Z</time>
      </trkpt>
      <trkpt lat="45.94956" lon="4.80661">
        <ele>259</ele>
        <time>2017-07-04T15:44:54Z</time>
      </trkpt>
      <trkpt lat="45.94956" lon="4.80653">
        <ele>259</ele>
        <time>2017-07-04T15:44:55Z</time>
      </trkpt>
      <trkpt lat="45.94955" lon="4.80646">
        <ele>258</ele>
        <time>2017-07-04T15:44:56Z</time>
      </trkpt>
      <trkpt lat="45.94955" lon="4.80638">
        <ele>258</ele>
        <time>2017-07-04T15:44:57Z</time>
      </trkpt>
      <trkpt lat="45.94954" lon="4.80631">
        <ele>258</ele>
        <time>2017-07-04T15:44:58Z</time>
      </trkpt>
      <trkpt lat="45.94954" lon="4.80624">
        <ele>258</ele>
        <time>2017-07-04T15:44:59Z</time>
      </trkpt>
      <trkpt lat="45.94954" lon="4.80617">
        <ele>258</ele>
        <time>2017-07-04T15:45:00Z</time>
      </trkpt>
      <trkpt lat="45.94954" lon="4.80609">
        <ele>258</ele>
        <time>2017-07-04T15:45:01Z</time>
      </trkpt>
      <trkpt lat="45.94952" lon="4.80602">
        <ele>258</ele>
        <time>2017-07-04T15:45:02Z</time>
      </trkpt>
      <trkpt lat="45.94952" lon="4.80594">
        <ele>258</ele>
        <time>2017-07-04T15:45:03Z</time>
      </trkpt>
      <trkpt lat="45.94952" lon="4.80587">
        <ele>258</ele>
        <time>2017-07-04T15:45:04Z</time>
      </trkpt>
      <trkpt lat="45.94952" lon="4.8058">
        <ele>257</ele>
        <time>2017-07-04T15:45:05Z</time>
      </trkpt>
      <trkpt lat="45.94951" lon="4.80572">
        <ele>257</ele>
        <time>2017-07-04T15:45:06Z</time>
      </trkpt>
      <trkpt lat="45.94952" lon="4.80565">
        <ele>257</ele>
        <time>2017-07-04T15:45:07Z</time>
      </trkpt>
      <trkpt lat="45.94951" lon="4.80557">
        <ele>258</ele>
        <time>2017-07-04T15:45:08Z</time>
      </trkpt>
      <trkpt lat="45.94951" lon="4.80549">
        <ele>258</ele>
        <time>2017-07-04T15:45:09Z</time>
      </trkpt>
      <trkpt lat="45.94951" lon="4.80541">
        <ele>258</ele>
        <time>2017-07-04T15:45:10Z</time>
      </trkpt>
      <trkpt lat="45.94951" lon="4.80532">
        <ele>258</ele>
        <time>2017-07-04T15:45:11Z</time>
      </trkpt>
      <trkpt lat="45.94951" lon="4.80523">
        <ele>258</ele>
        <time>2017-07-04T15:45:12Z</time>
      </trkpt>
      <trkpt lat="45.9495" lon="4.80515">
        <ele>258</ele>
        <time>2017-07-04T15:45:13Z</time>
      </trkpt>
      <trkpt lat="45.9495" lon="4.80506">
        <ele>258</ele>
        <time>2017-07-04T15:45:14Z</time>
      </trkpt>
      <trkpt lat="45.9495" lon="4.80498">
        <ele>258</ele>
        <time>2017-07-04T15:45:15Z</time>
      </trkpt>
      <trkpt lat="45.94949" lon="4.8049">
        <ele>258</ele>
        <time>2017-07-04T15:45:16Z</time>
      </trkpt>
      <trkpt lat="45.94949" lon="4.80482">
        <ele>258</ele>
        <time>2017-07-04T15:45:17Z</time>
      </trkpt>
      <trkpt lat="45.94949" lon="4.80474">
        <ele>258</ele>
        <time>2017-07-04T15:45:18Z</time>
      </trkpt>
      <trkpt lat="45.94949" lon="4.80466">
        <ele>258</ele>
        <time>2017-07-04T15:45:19Z</time>
      </trkpt>
      <trkpt lat="45.94949" lon="4.80458">
        <ele>258</ele>
        <time>2017-07-04T15:45:20Z</time>
      </trkpt>
      <trkpt lat="45.94948" lon="4.80451">
        <ele>258</ele>
        <time>2017-07-04T15:45:21Z</time>
      </trkpt>
      <trkpt lat="45.94949" lon="4.80443">
        <ele>259</ele>
        <time>2017-07-04T15:45:22Z</time>
      </trkpt>
      <trkpt lat="45.94949" lon="4.80435">
        <ele>259</ele>
        <time>2017-07-04T15:45:23Z</time>
      </trkpt>
      <trkpt lat="45.94948" lon="4.80426">
        <ele>259</ele>
        <time>2017-07-04T15:45:24Z</time>
      </trkpt>
      <trkpt lat="45.94948" lon="4.80418">
        <ele>259</ele>
        <time>2017-07-04T15:45:25Z</time>
      </trkpt>
      <trkpt lat="45.94948" lon="4.80409">
        <ele>258</ele>
        <time>2017-07-04T15:45:26Z</time>
      </trkpt>
      <trkpt lat="45.94949" lon="4.80401">
        <ele>258</ele>
        <time>2017-07-04T15:45:27Z</time>
      </trkpt>
      <trkpt lat="45.94949" lon="4.80393">
        <ele>258</ele>
        <time>2017-07-04T15:45:28Z</time>
      </trkpt>
      <trkpt lat="45.9495" lon="4.80385">
        <ele>258</ele>
        <time>2017-07-04T15:45:29Z</time>
      </trkpt>
      <trkpt lat="45.94949" lon="4.80377">
        <ele>258</ele>
        <time>2017-07-04T15:45:30Z</time>
      </trkpt>
      <trkpt lat="45.94949" lon="4.80369">
        <ele>258</ele>
        <time>2017-07-04T15:45:31Z</time>
      </trkpt>
      <trkpt lat="45.94949" lon="4.80361">
        <ele>258</ele>
        <time>2017-07-04T15:45:32Z</time>
      </trkpt>
      <trkpt lat="45.94947" lon="4.80353">
        <ele>258</ele>
        <time>2017-07-04T15:45:33Z</time>
      </trkpt>
      <trkpt lat="45.94948" lon="4.80345">
        <ele>258</ele>
        <time>2017-07-04T15:45:34Z</time>
      </trkpt>
      <trkpt lat="45.94947" lon="4.80337">
        <ele>258</ele>
        <time>2017-07-04T15:45:35Z</time>
      </trkpt>
      <trkpt lat="45.94947" lon="4.80329">
        <ele>257</ele>
        <time>2017-07-04T15:45:36Z</time>
      </trkpt>
      <trkpt lat="45.94947" lon="4.80321">
        <ele>257</ele>
        <time>2017-07-04T15:45:37Z</time>
      </trkpt>
      <trkpt lat="45.94947" lon="4.80313">
        <ele>257</ele>
        <time>2017-07-04T15:45:38Z</time>
      </trkpt>
      <trkpt lat="45.94947" lon="4.80304">
        <ele>257</ele>
        <time>2017-07-04T15:45:39Z</time>
      </trkpt>
      <trkpt lat="45.94948" lon="4.80295">
        <ele>257</ele>
        <time>2017-07-04T15:45:40Z</time>
      </trkpt>
      <trkpt lat="45.94948" lon="4.80287">
        <ele>257</ele>
        <time>2017-07-04T15:45:41Z</time>
      </trkpt>
      <trkpt lat="45.94948" lon="4.80278">
        <ele>257</ele>
        <time>2017-07-04T15:45:42Z</time>
      </trkpt>
      <trkpt lat="45.94948" lon="4.8027">
        <ele>257</ele>
        <time>2017-07-04T15:45:43Z</time>
      </trkpt>
      <trkpt lat="45.94947" lon="4.80262">
        <ele>257</ele>
        <time>2017-07-04T15:45:44Z</time>
      </trkpt>
      <trkpt lat="45.94946" lon="4.80254">
        <ele>257</ele>
        <time>2017-07-04T15:45:45Z</time>
      </trkpt>
      <trkpt lat="45.94945" lon="4.80245">
        <ele>256</ele>
        <time>2017-07-04T15:45:46Z</time>
      </trkpt>
      <trkpt lat="45.94944" lon="4.80235">
        <ele>256</ele>
        <time>2017-07-04T15:45:47Z</time>
      </trkpt>
      <trkpt lat="45.94943" lon="4.80225">
        <ele>256</ele>
        <time>2017-07-04T15:45:48Z</time>
      </trkpt>
      <trkpt lat="45.94942" lon="4.80216">
        <ele>256</ele>
        <time>2017-07-04T15:45:49Z</time>
      </trkpt>
      <trkpt lat="45.9494" lon="4.80207">
        <ele>256</ele>
        <time>2017-07-04T15:45:50Z</time>
      </trkpt>
      <trkpt lat="45.94939" lon="4.80197">
        <ele>256</ele>
        <time>2017-07-04T15:45:51Z</time>
      </trkpt>
      <trkpt lat="45.94937" lon="4.80187">
        <ele>256</ele>
        <time>2017-07-04T15:45:52Z</time>
      </trkpt>
      <trkpt lat="45.94935" lon="4.80177">
        <ele>256</ele>
        <time>2017-07-04T15:45:53Z</time>
      </trkpt>
      <trkpt lat="45.94933" lon="4.80168">
        <ele>255</ele>
        <time>2017-07-04T15:45:54Z</time>
      </trkpt>
      <trkpt lat="45.94931" lon="4.80158">
        <ele>255</ele>
        <time>2017-07-04T15:45:55Z</time>
      </trkpt>
      <trkpt lat="45.94929" lon="4.80149">
        <ele>256</ele>
        <time>2017-07-04T15:45:56Z</time>
      </trkpt>
      <trkpt lat="45.94927" lon="4.8014">
        <ele>256</ele>
        <time>2017-07-04T15:45:57Z</time>
      </trkpt>
      <trkpt lat="45.94925" lon="4.80131">
        <ele>256</ele>
        <time>2017-07-04T15:45:58Z</time>
      </trkpt>
      <trkpt lat="45.94924" lon="4.80123">
        <ele>256</ele>
        <time>2017-07-04T15:45:59Z</time>
      </trkpt>
      <trkpt lat="45.94922" lon="4.80115">
        <ele>256</ele>
        <time>2017-07-04T15:46:00Z</time>
      </trkpt>
      <trkpt lat="45.9492" lon="4.80107">
        <ele>256</ele>
        <time>2017-07-04T15:46:01Z</time>
      </trkpt>
      <trkpt lat="45.94918" lon="4.80099">
        <ele>256</ele>
        <time>2017-07-04T15:46:02Z</time>
      </trkpt>
      <trkpt lat="45.94916" lon="4.80092">
        <ele>257</ele>
        <time>2017-07-04T15:46:03Z</time>
      </trkpt>
      <trkpt lat="45.94914" lon="4.80083">
        <ele>257</ele>
        <time>2017-07-04T15:46:04Z</time>
      </trkpt>
      <trkpt lat="45.94913" lon="4.80074">
        <ele>257</ele>
        <time>2017-07-04T15:46:05Z</time>
      </trkpt>
      <trkpt lat="45.94912" lon="4.80066">
        <ele>256</ele>
        <time>2017-07-04T15:46:06Z</time>
      </trkpt>
      <trkpt lat="45.94908" lon="4.80057">
        <ele>256</ele>
        <time>2017-07-04T15:46:07Z</time>
      </trkpt>
      <trkpt lat="45.94907" lon="4.80049">
        <ele>256</ele>
        <time>2017-07-04T15:46:08Z</time>
      </trkpt>
      <trkpt lat="45.94905" lon="4.80041">
        <ele>256</ele>
        <time>2017-07-04T15:46:09Z</time>
      </trkpt>
      <trkpt lat="45.94903" lon="4.80034">
        <ele>256</ele>
        <time>2017-07-04T15:46:10Z</time>
      </trkpt>
      <trkpt lat="45.949" lon="4.80026">
        <ele>256</ele>
        <time>2017-07-04T15:46:11Z</time>
      </trkpt>
      <trkpt lat="45.94898" lon="4.80018">
        <ele>256</ele>
        <time>2017-07-04T15:46:12Z</time>
      </trkpt>
      <trkpt lat="45.94895" lon="4.8001">
        <ele>256</ele>
        <time>2017-07-04T15:46:13Z</time>
      </trkpt>
      <trkpt lat="45.94892" lon="4.80002">
        <ele>256</ele>
        <time>2017-07-04T15:46:14Z</time>
      </trkpt>
      <trkpt lat="45.94889" lon="4.79994">
        <ele>256</ele>
        <time>2017-07-04T15:46:15Z</time>
      </trkpt>
      <trkpt lat="45.94886" lon="4.79985">
        <ele>256</ele>
        <time>2017-07-04T15:46:16Z</time>
      </trkpt>
      <trkpt lat="45.94883" lon="4.79977">
        <ele>256</ele>
        <time>2017-07-04T15:46:17Z</time>
      </trkpt>
      <trkpt lat="45.9488" lon="4.79969">
        <ele>256</ele>
        <time>2017-07-04T15:46:18Z</time>
      </trkpt>
      <trkpt lat="45.94877" lon="4.79962">
        <ele>256</ele>
        <time>2017-07-04T15:46:19Z</time>
      </trkpt>
      <trkpt lat="45.94874" lon="4.79954">
        <ele>256</ele>
        <time>2017-07-04T15:46:20Z</time>
      </trkpt>
      <trkpt lat="45.94871" lon="4.79947">
        <ele>256</ele>
        <time>2017-07-04T15:46:21Z</time>
      </trkpt>
      <trkpt lat="45.94867" lon="4.7994">
        <ele>256</ele>
        <time>2017-07-04T15:46:22Z</time>
      </trkpt>
      <trkpt lat="45.94863" lon="4.79933">
        <ele>256</ele>
        <time>2017-07-04T15:46:23Z</time>
      </trkpt>
      <trkpt lat="45.9486" lon="4.79926">
        <ele>256</ele>
        <time>2017-07-04T15:46:24Z</time>
      </trkpt>
      <trkpt lat="45.94858" lon="4.7992">
        <ele>256</ele>
        <time>2017-07-04T15:46:25Z</time>
      </trkpt>
      <trkpt lat="45.94855" lon="4.79913">
        <ele>255</ele>
        <time>2017-07-04T15:46:26Z</time>
      </trkpt>
      <trkpt lat="45.94852" lon="4.79906">
        <ele>255</ele>
        <time>2017-07-04T15:46:27Z</time>
      </trkpt>
      <trkpt lat="45.94849" lon="4.79898">
        <ele>255</ele>
        <time>2017-07-04T15:46:28Z</time>
      </trkpt>
      <trkpt lat="45.94846" lon="4.79891">
        <ele>255</ele>
        <time>2017-07-04T15:46:29Z</time>
      </trkpt>
      <trkpt lat="45.94844" lon="4.79883">
        <ele>255</ele>
        <time>2017-07-04T15:46:30Z</time>
      </trkpt>
      <trkpt lat="45.94841" lon="4.79875">
        <ele>255</ele>
        <time>2017-07-04T15:46:31Z</time>
      </trkpt>
      <trkpt lat="45.94839" lon="4.79867">
        <ele>255</ele>
        <time>2017-07-04T15:46:32Z</time>
      </trkpt>
      <trkpt lat="45.94836" lon="4.79858">
        <ele>255</ele>
        <time>2017-07-04T15:46:33Z</time>
      </trkpt>
      <trkpt lat="45.94834" lon="4.79849">
        <ele>254</ele>
        <time>2017-07-04T15:46:34Z</time>
      </trkpt>
      <trkpt lat="45.94832" lon="4.79839">
        <ele>254</ele>
        <time>2017-07-04T15:46:35Z</time>
      </trkpt>
      <trkpt lat="45.9483" lon="4.7983">
        <ele>254</ele>
        <time>2017-07-04T15:46:36Z</time>
      </trkpt>
      <trkpt lat="45.94828" lon="4.79821">
        <ele>254</ele>
        <time>2017-07-04T15:46:37Z</time>
      </trkpt>
      <trkpt lat="45.94825" lon="4.79812">
        <ele>254</ele>
        <time>2017-07-04T15:46:38Z</time>
      </trkpt>
      <trkpt lat="45.94822" lon="4.79804">
        <ele>254</ele>
        <time>2017-07-04T15:46:39Z</time>
      </trkpt>
      <trkpt lat="45.9482" lon="4.79795">
        <ele>254</ele>
        <time>2017-07-04T15:46:40Z</time>
      </trkpt>
      <trkpt lat="45.94817" lon="4.79787">
        <ele>254</ele>
        <time>2017-07-04T15:46:41Z</time>
      </trkpt>
      <trkpt lat="45.94815" lon="4.79779">
        <ele>254</ele>
        <time>2017-07-04T15:46:42Z</time>
      </trkpt>
      <trkpt lat="45.94814" lon="4.7977">
        <ele>254</ele>
        <time>2017-07-04T15:46:43Z</time>
      </trkpt>
      <trkpt lat="45.94811" lon="4.79762">
        <ele>254</ele>
        <time>2017-07-04T15:46:44Z</time>
      </trkpt>
      <trkpt lat="45.94809" lon="4.79753">
        <ele>254</ele>
        <time>2017-07-04T15:46:45Z</time>
      </trkpt>
      <trkpt lat="45.94807" lon="4.79745">
        <ele>254</ele>
        <time>2017-07-04T15:46:46Z</time>
      </trkpt>
      <trkpt lat="45.94804" lon="4.79736">
        <ele>254</ele>
        <time>2017-07-04T15:46:47Z</time>
      </trkpt>
      <trkpt lat="45.94802" lon="4.79728">
        <ele>254</ele>
        <time>2017-07-04T15:46:48Z</time>
      </trkpt>
      <trkpt lat="45.94799" lon="4.79719">
        <ele>254</ele>
        <time>2017-07-04T15:46:49Z</time>
      </trkpt>
      <trkpt lat="45.94796" lon="4.79711">
        <ele>254</ele>
        <time>2017-07-04T15:46:50Z</time>
      </trkpt>
      <trkpt lat="45.94794" lon="4.79702">
        <ele>254</ele>
        <time>2017-07-04T15:46:51Z</time>
      </trkpt>
      <trkpt lat="45.94792" lon="4.79694">
        <ele>254</ele>
        <time>2017-07-04T15:46:52Z</time>
      </trkpt>
      <trkpt lat="45.94791" lon="4.79685">
        <ele>254</ele>
        <time>2017-07-04T15:46:53Z</time>
      </trkpt>
      <trkpt lat="45.94789" lon="4.79677">
        <ele>254</ele>
        <time>2017-07-04T15:46:54Z</time>
      </trkpt>
      <trkpt lat="45.94787" lon="4.79669">
        <ele>254</ele>
        <time>2017-07-04T15:46:55Z</time>
      </trkpt>
      <trkpt lat="45.94784" lon="4.79661">
        <ele>254</ele>
        <time>2017-07-04T15:46:56Z</time>
      </trkpt>
      <trkpt lat="45.94782" lon="4.79653">
        <ele>254</ele>
        <time>2017-07-04T15:46:57Z</time>
      </trkpt>
      <trkpt lat="45.94781" lon="4.79646">
        <ele>254</ele>
        <time>2017-07-04T15:46:58Z</time>
      </trkpt>
      <trkpt lat="45.94778" lon="4.79638">
        <ele>253</ele>
        <time>2017-07-04T15:46:59Z</time>
      </trkpt>
      <trkpt lat="45.94777" lon="4.79629">
        <ele>253</ele>
        <time>2017-07-04T15:47:00Z</time>
      </trkpt>
      <trkpt lat="45.94775" lon="4.79621">
        <ele>253</ele>
        <time>2017-07-04T15:47:01Z</time>
      </trkpt>
      <trkpt lat="45.94773" lon="4.79613">
        <ele>253</ele>
        <time>2017-07-04T15:47:02Z</time>
      </trkpt>
      <trkpt lat="45.94772" lon="4.79606">
        <ele>253</ele>
        <time>2017-07-04T15:47:03Z</time>
      </trkpt>
      <trkpt lat="45.94772" lon="4.796">
        <ele>253</ele>
        <time>2017-07-04T15:47:04Z</time>
      </trkpt>
      <trkpt lat="45.94772" lon="4.79588">
        <ele>253</ele>
        <time>2017-07-04T15:47:08Z</time>
      </trkpt>
      <trkpt lat="45.94773" lon="4.79586">
        <ele>253</ele>
        <time>2017-07-04T15:47:09Z</time>
      </trkpt>
      <trkpt lat="45.94773" lon="4.79577">
        <ele>252</ele>
        <time>2017-07-04T15:47:11Z</time>
      </trkpt>
      <trkpt lat="45.94771" lon="4.79572">
        <ele>252</ele>
        <time>2017-07-04T15:47:12Z</time>
      </trkpt>
      <trkpt lat="45.94767" lon="4.79561">
        <ele>252</ele>
        <time>2017-07-04T15:47:14Z</time>
      </trkpt>
      <trkpt lat="45.94765" lon="4.79554">
        <ele>252</ele>
        <time>2017-07-04T15:47:15Z</time>
      </trkpt>
      <trkpt lat="45.94763" lon="4.79547">
        <ele>252</ele>
        <time>2017-07-04T15:47:16Z</time>
      </trkpt>
      <trkpt lat="45.9476" lon="4.79539">
        <ele>252</ele>
        <time>2017-07-04T15:47:17Z</time>
      </trkpt>
      <trkpt lat="45.94757" lon="4.79532">
        <ele>252</ele>
        <time>2017-07-04T15:47:18Z</time>
      </trkpt>
      <trkpt lat="45.94754" lon="4.79524">
        <ele>252</ele>
        <time>2017-07-04T15:47:19Z</time>
      </trkpt>
      <trkpt lat="45.94751" lon="4.79517">
        <ele>252</ele>
        <time>2017-07-04T15:47:20Z</time>
      </trkpt>
      <trkpt lat="45.94748" lon="4.79509">
        <ele>252</ele>
        <time>2017-07-04T15:47:21Z</time>
      </trkpt>
      <trkpt lat="45.94745" lon="4.79501">
        <ele>252</ele>
        <time>2017-07-04T15:47:22Z</time>
      </trkpt>
      <trkpt lat="45.94743" lon="4.79494">
        <ele>252</ele>
        <time>2017-07-04T15:47:23Z</time>
      </trkpt>
      <trkpt lat="45.94739" lon="4.79488">
        <ele>252</ele>
        <time>2017-07-04T15:47:24Z</time>
      </trkpt>
      <trkpt lat="45.94736" lon="4.79481">
        <ele>253</ele>
        <time>2017-07-04T15:47:25Z</time>
      </trkpt>
      <trkpt lat="45.94734" lon="4.79474">
        <ele>253</ele>
        <time>2017-07-04T15:47:26Z</time>
      </trkpt>
      <trkpt lat="45.94731" lon="4.79467">
        <ele>253</ele>
        <time>2017-07-04T15:47:27Z</time>
      </trkpt>
      <trkpt lat="45.94729" lon="4.79461">
        <ele>253</ele>
        <time>2017-07-04T15:47:28Z</time>
      </trkpt>
      <trkpt lat="45.94727" lon="4.79454">
        <ele>253</ele>
        <time>2017-07-04T15:47:29Z</time>
      </trkpt>
      <trkpt lat="45.94724" lon="4.79447">
        <ele>253</ele>
        <time>2017-07-04T15:47:30Z</time>
      </trkpt>
      <trkpt lat="45.94722" lon="4.7944">
        <ele>253</ele>
        <time>2017-07-04T15:47:31Z</time>
      </trkpt>
      <trkpt lat="45.94718" lon="4.79434">
        <ele>253</ele>
        <time>2017-07-04T15:47:32Z</time>
      </trkpt>
      <trkpt lat="45.94716" lon="4.79428">
        <ele>253</ele>
        <time>2017-07-04T15:47:33Z</time>
      </trkpt>
      <trkpt lat="45.94713" lon="4.79421">
        <ele>253</ele>
        <time>2017-07-04T15:47:34Z</time>
      </trkpt>
      <trkpt lat="45.94709" lon="4.79414">
        <ele>253</ele>
        <time>2017-07-04T15:47:35Z</time>
      </trkpt>
      <trkpt lat="45.94706" lon="4.79407">
        <ele>253</ele>
        <time>2017-07-04T15:47:36Z</time>
      </trkpt>
      <trkpt lat="45.94703" lon="4.794">
        <ele>253</ele>
        <time>2017-07-04T15:47:37Z</time>
      </trkpt>
      <trkpt lat="45.947" lon="4.79393">
        <ele>253</ele>
        <time>2017-07-04T15:47:38Z</time>
      </trkpt>
      <trkpt lat="45.94697" lon="4.79387">
        <ele>253</ele>
        <time>2017-07-04T15:47:39Z</time>
      </trkpt>
      <trkpt lat="45.94694" lon="4.79381">
        <ele>253</ele>
        <time>2017-07-04T15:47:40Z</time>
      </trkpt>
      <trkpt lat="45.94691" lon="4.79375">
        <ele>253</ele>
        <time>2017-07-04T15:47:41Z</time>
      </trkpt>
      <trkpt lat="45.94689" lon="4.79369">
        <ele>253</ele>
        <time>2017-07-04T15:47:42Z</time>
      </trkpt>
      <trkpt lat="45.94686" lon="4.79364">
        <ele>253</ele>
        <time>2017-07-04T15:47:43Z</time>
      </trkpt>
      <trkpt lat="45.94681" lon="4.79354">
        <ele>253</ele>
        <time>2017-07-04T15:47:45Z</time>
      </trkpt>
      <trkpt lat="45.94678" lon="4.79349">
        <ele>253</ele>
        <time>2017-07-04T15:47:46Z</time>
      </trkpt>
      <trkpt lat="45.94675" lon="4.79344">
        <ele>253</ele>
        <time>2017-07-04T15:47:47Z</time>
      </trkpt>
      <trkpt lat="45.94672" lon="4.79339">
        <ele>254</ele>
        <time>2017-07-04T15:47:48Z</time>
      </trkpt>
      <trkpt lat="45.9467" lon="4.79333">
        <ele>254</ele>
        <time>2017-07-04T15:47:49Z</time>
      </trkpt>
      <trkpt lat="45.94667" lon="4.79328">
        <ele>254</ele>
        <time>2017-07-04T15:47:50Z</time>
      </trkpt>
      <trkpt lat="45.94663" lon="4.79322">
        <ele>254</ele>
        <time>2017-07-04T15:47:51Z</time>
      </trkpt>
      <trkpt lat="45.9466" lon="4.79316">
        <ele>254</ele>
        <time>2017-07-04T15:47:52Z</time>
      </trkpt>
      <trkpt lat="45.94657" lon="4.79309">
        <ele>254</ele>
        <time>2017-07-04T15:47:53Z</time>
      </trkpt>
      <trkpt lat="45.94654" lon="4.79303">
        <ele>254</ele>
        <time>2017-07-04T15:47:54Z</time>
      </trkpt>
      <trkpt lat="45.94651" lon="4.79296">
        <ele>254</ele>
        <time>2017-07-04T15:47:55Z</time>
      </trkpt>
      <trkpt lat="45.94648" lon="4.7929">
        <ele>254</ele>
        <time>2017-07-04T15:47:56Z</time>
      </trkpt>
      <trkpt lat="45.94645" lon="4.79283">
        <ele>254</ele>
        <time>2017-07-04T15:47:57Z</time>
      </trkpt>
      <trkpt lat="45.94641" lon="4.79276">
        <ele>254</ele>
        <time>2017-07-04T15:47:58Z</time>
      </trkpt>
      <trkpt lat="45.94639" lon="4.79269">
        <ele>254</ele>
        <time>2017-07-04T15:47:59Z</time>
      </trkpt>
      <trkpt lat="45.94636" lon="4.79262">
        <ele>254</ele>
        <time>2017-07-04T15:48:00Z</time>
      </trkpt>
      <trkpt lat="45.94632" lon="4.79255">
        <ele>254</ele>
        <time>2017-07-04T15:48:01Z</time>
      </trkpt>
      <trkpt lat="45.94628" lon="4.79248">
        <ele>256</ele>
        <time>2017-07-04T15:48:02Z</time>
      </trkpt>
      <trkpt lat="45.94625" lon="4.79241">
        <ele>256</ele>
        <time>2017-07-04T15:48:03Z</time>
      </trkpt>
      <trkpt lat="45.94621" lon="4.79234">
        <ele>256</ele>
        <time>2017-07-04T15:48:04Z</time>
      </trkpt>
      <trkpt lat="45.94618" lon="4.79228">
        <ele>256</ele>
        <time>2017-07-04T15:48:05Z</time>
      </trkpt>
      <trkpt lat="45.94615" lon="4.7922">
        <ele>256</ele>
        <time>2017-07-04T15:48:06Z</time>
      </trkpt>
      <trkpt lat="45.94611" lon="4.79213">
        <ele>257</ele>
        <time>2017-07-04T15:48:07Z</time>
      </trkpt>
      <trkpt lat="45.94608" lon="4.79205">
        <ele>257</ele>
        <time>2017-07-04T15:48:08Z</time>
      </trkpt>
      <trkpt lat="45.94605" lon="4.79198">
        <ele>257</ele>
        <time>2017-07-04T15:48:09Z</time>
      </trkpt>
      <trkpt lat="45.94602" lon="4.79192">
        <ele>257</ele>
        <time>2017-07-04T15:48:10Z</time>
      </trkpt>
      <trkpt lat="45.94598" lon="4.79185">
        <ele>258</ele>
        <time>2017-07-04T15:48:11Z</time>
      </trkpt>
      <trkpt lat="45.94595" lon="4.79178">
        <ele>258</ele>
        <time>2017-07-04T15:48:12Z</time>
      </trkpt>
      <trkpt lat="45.94591" lon="4.79172">
        <ele>258</ele>
        <time>2017-07-04T15:48:13Z</time>
      </trkpt>
      <trkpt lat="45.94588" lon="4.79165">
        <ele>259</ele>
        <time>2017-07-04T15:48:14Z</time>
      </trkpt>
      <trkpt lat="45.94585" lon="4.79158">
        <ele>259</ele>
        <time>2017-07-04T15:48:15Z</time>
      </trkpt>
      <trkpt lat="45.94581" lon="4.79151">
        <ele>258</ele>
        <time>2017-07-04T15:48:16Z</time>
      </trkpt>
      <trkpt lat="45.94578" lon="4.79144">
        <ele>257</ele>
        <time>2017-07-04T15:48:17Z</time>
      </trkpt>
      <trkpt lat="45.94574" lon="4.79137">
        <ele>257</ele>
        <time>2017-07-04T15:48:18Z</time>
      </trkpt>
      <trkpt lat="45.9457" lon="4.79131">
        <ele>257</ele>
        <time>2017-07-04T15:48:19Z</time>
      </trkpt>
      <trkpt lat="45.94567" lon="4.79124">
        <ele>257</ele>
        <time>2017-07-04T15:48:20Z</time>
      </trkpt>
      <trkpt lat="45.94564" lon="4.79118">
        <ele>257</ele>
        <time>2017-07-04T15:48:21Z</time>
      </trkpt>
      <trkpt lat="45.94561" lon="4.79112">
        <ele>257</ele>
        <time>2017-07-04T15:48:22Z</time>
      </trkpt>
      <trkpt lat="45.94557" lon="4.79107">
        <ele>257</ele>
        <time>2017-07-04T15:48:23Z</time>
      </trkpt>
      <trkpt lat="45.94554" lon="4.79102">
        <ele>257</ele>
        <time>2017-07-04T15:48:24Z</time>
      </trkpt>
      <trkpt lat="45.94551" lon="4.79097">
        <ele>256</ele>
        <time>2017-07-04T15:48:25Z</time>
      </trkpt>
      <trkpt lat="45.94548" lon="4.79091">
        <ele>256</ele>
        <time>2017-07-04T15:48:26Z</time>
      </trkpt>
      <trkpt lat="45.94545" lon="4.79086">
        <ele>256</ele>
        <time>2017-07-04T15:48:27Z</time>
      </trkpt>
      <trkpt lat="45.94543" lon="4.79081">
        <ele>256</ele>
        <time>2017-07-04T15:48:28Z</time>
      </trkpt>
      <trkpt lat="45.94539" lon="4.79072">
        <ele>256</ele>
        <time>2017-07-04T15:48:29Z</time>
      </trkpt>
      <trkpt lat="45.94536" lon="4.79064">
        <ele>255</ele>
        <time>2017-07-04T15:48:30Z</time>
      </trkpt>
      <trkpt lat="45.94534" lon="4.79057">
        <ele>255</ele>
        <time>2017-07-04T15:48:31Z</time>
      </trkpt>
      <trkpt lat="45.94532" lon="4.79051">
        <ele>255</ele>
        <time>2017-07-04T15:48:32Z</time>
      </trkpt>
      <trkpt lat="45.94529" lon="4.79045">
        <ele>255</ele>
        <time>2017-07-04T15:48:33Z</time>
      </trkpt>
      <trkpt lat="45.94525" lon="4.79037">
        <ele>255</ele>
        <time>2017-07-04T15:48:34Z</time>
      </trkpt>
      <trkpt lat="45.94523" lon="4.7903">
        <ele>255</ele>
        <time>2017-07-04T15:48:35Z</time>
      </trkpt>
      <trkpt lat="45.9452" lon="4.79022">
        <ele>255</ele>
        <time>2017-07-04T15:48:36Z</time>
      </trkpt>
      <trkpt lat="45.94516" lon="4.79015">
        <ele>255</ele>
        <time>2017-07-04T15:48:37Z</time>
      </trkpt>
      <trkpt lat="45.94511" lon="4.79007">
        <ele>255</ele>
        <time>2017-07-04T15:48:38Z</time>
      </trkpt>
      <trkpt lat="45.94507" lon="4.78999">
        <ele>254</ele>
        <time>2017-07-04T15:48:39Z</time>
      </trkpt>
      <trkpt lat="45.94501" lon="4.78991">
        <ele>254</ele>
        <time>2017-07-04T15:48:40Z</time>
      </trkpt>
      <trkpt lat="45.94497" lon="4.78982">
        <ele>254</ele>
        <time>2017-07-04T15:48:41Z</time>
      </trkpt>
      <trkpt lat="45.94491" lon="4.78973">
        <ele>254</ele>
        <time>2017-07-04T15:48:42Z</time>
      </trkpt>
      <trkpt lat="45.94486" lon="4.78964">
        <ele>254</ele>
        <time>2017-07-04T15:48:43Z</time>
      </trkpt>
      <trkpt lat="45.94482" lon="4.78954">
        <ele>254</ele>
        <time>2017-07-04T15:48:44Z</time>
      </trkpt>
      <trkpt lat="45.94477" lon="4.78944">
        <ele>254</ele>
        <time>2017-07-04T15:48:45Z</time>
      </trkpt>
      <trkpt lat="45.94472" lon="4.78933">
        <ele>254</ele>
        <time>2017-07-04T15:48:46Z</time>
      </trkpt>
      <trkpt lat="45.94469" lon="4.78919">
        <ele>254</ele>
        <time>2017-07-04T15:48:47Z</time>
      </trkpt>
      <trkpt lat="45.94467" lon="4.78905">
        <ele>253</ele>
        <time>2017-07-04T15:48:48Z</time>
      </trkpt>
      <trkpt lat="45.94466" lon="4.7889">
        <ele>253</ele>
        <time>2017-07-04T15:48:49Z</time>
      </trkpt>
      <trkpt lat="45.94465" lon="4.78875">
        <ele>253</ele>
        <time>2017-07-04T15:48:50Z</time>
      </trkpt>
      <trkpt lat="45.94465" lon="4.78861">
        <ele>253</ele>
        <time>2017-07-04T15:48:51Z</time>
      </trkpt>
      <trkpt lat="45.94466" lon="4.78846">
        <ele>253</ele>
        <time>2017-07-04T15:48:52Z</time>
      </trkpt>
      <trkpt lat="45.9447" lon="4.78832">
        <ele>251</ele>
        <time>2017-07-04T15:48:53Z</time>
      </trkpt>
      <trkpt lat="45.94474" lon="4.78817">
        <ele>251</ele>
        <time>2017-07-04T15:48:54Z</time>
      </trkpt>
      <trkpt lat="45.94478" lon="4.78802">
        <ele>251</ele>
        <time>2017-07-04T15:48:55Z</time>
      </trkpt>
      <trkpt lat="45.94482" lon="4.78786">
        <ele>250</ele>
        <time>2017-07-04T15:48:56Z</time>
      </trkpt>
      <trkpt lat="45.94485" lon="4.78769">
        <ele>249</ele>
        <time>2017-07-04T15:48:57Z</time>
      </trkpt>
      <trkpt lat="45.94487" lon="4.78752">
        <ele>248</ele>
        <time>2017-07-04T15:48:58Z</time>
      </trkpt>
      <trkpt lat="45.94488" lon="4.78735">
        <ele>246</ele>
        <time>2017-07-04T15:48:59Z</time>
      </trkpt>
      <trkpt lat="45.94487" lon="4.78718">
        <ele>245</ele>
        <time>2017-07-04T15:49:00Z</time>
      </trkpt>
      <trkpt lat="45.94485" lon="4.78701">
        <ele>245</ele>
        <time>2017-07-04T15:49:01Z</time>
      </trkpt>
      <trkpt lat="45.94483" lon="4.78684">
        <ele>244</ele>
        <time>2017-07-04T15:49:02Z</time>
      </trkpt>
      <trkpt lat="45.94481" lon="4.78667">
        <ele>243</ele>
        <time>2017-07-04T15:49:03Z</time>
      </trkpt>
      <trkpt lat="45.94479" lon="4.7865">
        <ele>241</ele>
        <time>2017-07-04T15:49:04Z</time>
      </trkpt>
      <trkpt lat="45.94476" lon="4.78633">
        <ele>241</ele>
        <time>2017-07-04T15:49:05Z</time>
      </trkpt>
      <trkpt lat="45.94469" lon="4.78614">
        <ele>241</ele>
        <time>2017-07-04T15:49:06Z</time>
      </trkpt>
      <trkpt lat="45.94464" lon="4.78598">
        <ele>241</ele>
        <time>2017-07-04T15:49:07Z</time>
      </trkpt>
      <trkpt lat="45.94458" lon="4.78583">
        <ele>240</ele>
        <time>2017-07-04T15:49:08Z</time>
      </trkpt>
      <trkpt lat="45.94448" lon="4.78568">
        <ele>239</ele>
        <time>2017-07-04T15:49:09Z</time>
      </trkpt>
      <trkpt lat="45.94439" lon="4.78554">
        <ele>239</ele>
        <time>2017-07-04T15:49:10Z</time>
      </trkpt>
      <trkpt lat="45.94431" lon="4.7854">
        <ele>239</ele>
        <time>2017-07-04T15:49:11Z</time>
      </trkpt>
      <trkpt lat="45.94423" lon="4.78527">
        <ele>238</ele>
        <time>2017-07-04T15:49:12Z</time>
      </trkpt>
      <trkpt lat="45.94413" lon="4.78515">
        <ele>236</ele>
        <time>2017-07-04T15:49:13Z</time>
      </trkpt>
      <trkpt lat="45.94403" lon="4.78505">
        <ele>236</ele>
        <time>2017-07-04T15:49:14Z</time>
      </trkpt>
      <trkpt lat="45.94393" lon="4.78494">
        <ele>235</ele>
        <time>2017-07-04T15:49:15Z</time>
      </trkpt>
      <trkpt lat="45.94383" lon="4.78482">
        <ele>236</ele>
        <time>2017-07-04T15:49:16Z</time>
      </trkpt>
      <trkpt lat="45.94372" lon="4.78471">
        <ele>236</ele>
        <time>2017-07-04T15:49:17Z</time>
      </trkpt>
      <trkpt lat="45.94363" lon="4.78458">
        <ele>236</ele>
        <time>2017-07-04T15:49:18Z</time>
      </trkpt>
      <trkpt lat="45.94353" lon="4.78445">
        <ele>235</ele>
        <time>2017-07-04T15:49:19Z</time>
      </trkpt>
      <trkpt lat="45.94344" lon="4.78432">
        <ele>233</ele>
        <time>2017-07-04T15:49:20Z</time>
      </trkpt>
      <trkpt lat="45.94336" lon="4.78418">
        <ele>230</ele>
        <time>2017-07-04T15:49:21Z</time>
      </trkpt>
      <trkpt lat="45.94329" lon="4.78402">
        <ele>230</ele>
        <time>2017-07-04T15:49:22Z</time>
      </trkpt>
      <trkpt lat="45.94322" lon="4.78387">
        <ele>230</ele>
        <time>2017-07-04T15:49:23Z</time>
      </trkpt>
      <trkpt lat="45.94315" lon="4.78372">
        <ele>229</ele>
        <time>2017-07-04T15:49:24Z</time>
      </trkpt>
      <trkpt lat="45.94307" lon="4.78358">
        <ele>229</ele>
        <time>2017-07-04T15:49:25Z</time>
      </trkpt>
      <trkpt lat="45.94298" lon="4.78344">
        <ele>228</ele>
        <time>2017-07-04T15:49:26Z</time>
      </trkpt>
      <trkpt lat="45.94289" lon="4.78332">
        <ele>228</ele>
        <time>2017-07-04T15:49:27Z</time>
      </trkpt>
      <trkpt lat="45.94279" lon="4.7832">
        <ele>228</ele>
        <time>2017-07-04T15:49:28Z</time>
      </trkpt>
      <trkpt lat="45.94267" lon="4.78312">
        <ele>227</ele>
        <time>2017-07-04T15:49:29Z</time>
      </trkpt>
      <trkpt lat="45.94255" lon="4.78304">
        <ele>227</ele>
        <time>2017-07-04T15:49:30Z</time>
      </trkpt>
      <trkpt lat="45.94243" lon="4.78298">
        <ele>222</ele>
        <time>2017-07-04T15:49:31Z</time>
      </trkpt>
      <trkpt lat="45.94231" lon="4.78294">
        <ele>222</ele>
        <time>2017-07-04T15:49:32Z</time>
      </trkpt>
      <trkpt lat="45.94218" lon="4.78291">
        <ele>222</ele>
        <time>2017-07-04T15:49:33Z</time>
      </trkpt>
      <trkpt lat="45.94205" lon="4.78288">
        <ele>221</ele>
        <time>2017-07-04T15:49:34Z</time>
      </trkpt>
      <trkpt lat="45.94193" lon="4.78285">
        <ele>221</ele>
        <time>2017-07-04T15:49:35Z</time>
      </trkpt>
      <trkpt lat="45.94181" lon="4.78281">
        <ele>221</ele>
        <time>2017-07-04T15:49:36Z</time>
      </trkpt>
      <trkpt lat="45.9417" lon="4.78275">
        <ele>220</ele>
        <time>2017-07-04T15:49:37Z</time>
      </trkpt>
      <trkpt lat="45.9416" lon="4.78268">
        <ele>216</ele>
        <time>2017-07-04T15:49:38Z</time>
      </trkpt>
      <trkpt lat="45.94148" lon="4.78261">
        <ele>216</ele>
        <time>2017-07-04T15:49:39Z</time>
      </trkpt>
      <trkpt lat="45.94138" lon="4.78255">
        <ele>215</ele>
        <time>2017-07-04T15:49:40Z</time>
      </trkpt>
      <trkpt lat="45.94127" lon="4.78248">
        <ele>215</ele>
        <time>2017-07-04T15:49:41Z</time>
      </trkpt>
      <trkpt lat="45.94117" lon="4.78241">
        <ele>214</ele>
        <time>2017-07-04T15:49:42Z</time>
      </trkpt>
      <trkpt lat="45.94106" lon="4.78235">
        <ele>213</ele>
        <time>2017-07-04T15:49:43Z</time>
      </trkpt>
      <trkpt lat="45.94095" lon="4.78229">
        <ele>212</ele>
        <time>2017-07-04T15:49:44Z</time>
      </trkpt>
      <trkpt lat="45.94084" lon="4.78223">
        <ele>212</ele>
        <time>2017-07-04T15:49:45Z</time>
      </trkpt>
      <trkpt lat="45.94074" lon="4.78217">
        <ele>206</ele>
        <time>2017-07-04T15:49:46Z</time>
      </trkpt>
      <trkpt lat="45.94064" lon="4.78212">
        <ele>206</ele>
        <time>2017-07-04T15:49:47Z</time>
      </trkpt>
      <trkpt lat="45.94054" lon="4.78207">
        <ele>205</ele>
        <time>2017-07-04T15:49:48Z</time>
      </trkpt>
      <trkpt lat="45.94045" lon="4.78201">
        <ele>205</ele>
        <time>2017-07-04T15:49:49Z</time>
      </trkpt>
      <trkpt lat="45.94036" lon="4.78197">
        <ele>205</ele>
        <time>2017-07-04T15:49:50Z</time>
      </trkpt>
      <trkpt lat="45.94028" lon="4.78193">
        <ele>204</ele>
        <time>2017-07-04T15:49:51Z</time>
      </trkpt>
      <trkpt lat="45.9402" lon="4.78189">
        <ele>204</ele>
        <time>2017-07-04T15:49:52Z</time>
      </trkpt>
      <trkpt lat="45.94014" lon="4.78186">
        <ele>203</ele>
        <time>2017-07-04T15:49:53Z</time>
      </trkpt>
      <trkpt lat="45.94008" lon="4.78185">
        <ele>203</ele>
        <time>2017-07-04T15:49:54Z</time>
      </trkpt>
      <trkpt lat="45.94004" lon="4.78182">
        <ele>203</ele>
        <time>2017-07-04T15:49:55Z</time>
      </trkpt>
      <trkpt lat="45.94" lon="4.7818">
        <ele>199</ele>
        <time>2017-07-04T15:49:56Z</time>
      </trkpt>
      <trkpt lat="45.93995" lon="4.7817">
        <ele>200</ele>
        <time>2017-07-04T15:49:58Z</time>
      </trkpt>
      <trkpt lat="45.93997" lon="4.78155">
        <ele>199</ele>
        <time>2017-07-04T15:49:59Z</time>
      </trkpt>
      <trkpt lat="45.93995" lon="4.78149">
        <ele>198</ele>
        <time>2017-07-04T15:50:00Z</time>
      </trkpt>
      <trkpt lat="45.93995" lon="4.78138">
        <ele>198</ele>
        <time>2017-07-04T15:50:01Z</time>
      </trkpt>
      <trkpt lat="45.93997" lon="4.78126">
        <ele>197</ele>
        <time>2017-07-04T15:50:03Z</time>
      </trkpt>
      <trkpt lat="45.93998" lon="4.7812">
        <ele>197</ele>
        <time>2017-07-04T15:50:04Z</time>
      </trkpt>
      <trkpt lat="45.94" lon="4.78114">
        <ele>203</ele>
        <time>2017-07-04T15:50:05Z</time>
      </trkpt>
      <trkpt lat="45.94003" lon="4.78107">
        <ele>202</ele>
        <time>2017-07-04T15:50:06Z</time>
      </trkpt>
      <trkpt lat="45.94004" lon="4.781">
        <ele>202</ele>
        <time>2017-07-04T15:50:07Z</time>
      </trkpt>
      <trkpt lat="45.94006" lon="4.78093">
        <ele>201</ele>
        <time>2017-07-04T15:50:08Z</time>
      </trkpt>
      <trkpt lat="45.94008" lon="4.78085">
        <ele>201</ele>
        <time>2017-07-04T15:50:09Z</time>
      </trkpt>
      <trkpt lat="45.9401" lon="4.78077">
        <ele>200</ele>
        <time>2017-07-04T15:50:10Z</time>
      </trkpt>
      <trkpt lat="45.94011" lon="4.78068">
        <ele>201</ele>
        <time>2017-07-04T15:50:11Z</time>
      </trkpt>
      <trkpt lat="45.94012" lon="4.7806">
        <ele>201</ele>
        <time>2017-07-04T15:50:12Z</time>
      </trkpt>
      <trkpt lat="45.94015" lon="4.78052">
        <ele>201</ele>
        <time>2017-07-04T15:50:13Z</time>
      </trkpt>
      <trkpt lat="45.94017" lon="4.78044">
        <ele>202</ele>
        <time>2017-07-04T15:50:14Z</time>
      </trkpt>
      <trkpt lat="45.94019" lon="4.78037">
        <ele>201</ele>
        <time>2017-07-04T15:50:15Z</time>
      </trkpt>
      <trkpt lat="45.9402" lon="4.78029">
        <ele>201</ele>
        <time>2017-07-04T15:50:16Z</time>
      </trkpt>
      <trkpt lat="45.94021" lon="4.78021">
        <ele>201</ele>
        <time>2017-07-04T15:50:17Z</time>
      </trkpt>
      <trkpt lat="45.94023" lon="4.78013">
        <ele>201</ele>
        <time>2017-07-04T15:50:18Z</time>
      </trkpt>
      <trkpt lat="45.94024" lon="4.78004">
        <ele>201</ele>
        <time>2017-07-04T15:50:19Z</time>
      </trkpt>
      <trkpt lat="45.94026" lon="4.77996">
        <ele>200</ele>
        <time>2017-07-04T15:50:20Z</time>
      </trkpt>
      <trkpt lat="45.94027" lon="4.77987">
        <ele>200</ele>
        <time>2017-07-04T15:50:21Z</time>
      </trkpt>
      <trkpt lat="45.94029" lon="4.77978">
        <ele>201</ele>
        <time>2017-07-04T15:50:22Z</time>
      </trkpt>
      <trkpt lat="45.94029" lon="4.7797">
        <ele>201</ele>
        <time>2017-07-04T15:50:23Z</time>
      </trkpt>
      <trkpt lat="45.9403" lon="4.77963">
        <ele>201</ele>
        <time>2017-07-04T15:50:24Z</time>
      </trkpt>
      <trkpt lat="45.94032" lon="4.77952">
        <ele>201</ele>
        <time>2017-07-04T15:50:26Z</time>
      </trkpt>
      <trkpt lat="45.94034" lon="4.77947">
        <ele>201</ele>
        <time>2017-07-04T15:50:27Z</time>
      </trkpt>
      <trkpt lat="45.94036" lon="4.77937">
        <ele>201</ele>
        <time>2017-07-04T15:50:29Z</time>
      </trkpt>
      <trkpt lat="45.94035" lon="4.77932">
        <ele>200</ele>
        <time>2017-07-04T15:50:30Z</time>
      </trkpt>
      <trkpt lat="45.94032" lon="4.77928">
        <ele>200</ele>
        <time>2017-07-04T15:50:31Z</time>
      </trkpt>
      <trkpt lat="45.94023" lon="4.77928">
        <ele>199</ele>
        <time>2017-07-04T15:50:32Z</time>
      </trkpt>
      <trkpt lat="45.94019" lon="4.77927">
        <ele>198</ele>
        <time>2017-07-04T15:50:33Z</time>
      </trkpt>
      <trkpt lat="45.94013" lon="4.77927">
        <ele>198</ele>
        <time>2017-07-04T15:50:34Z</time>
      </trkpt>
      <trkpt lat="45.94005" lon="4.77928">
        <ele>197</ele>
        <time>2017-07-04T15:50:35Z</time>
      </trkpt>
      <trkpt lat="45.93997" lon="4.77929">
        <ele>193</ele>
        <time>2017-07-04T15:50:36Z</time>
      </trkpt>
      <trkpt lat="45.93989" lon="4.77932">
        <ele>192</ele>
        <time>2017-07-04T15:50:37Z</time>
      </trkpt>
      <trkpt lat="45.9398" lon="4.77937">
        <ele>191</ele>
        <time>2017-07-04T15:50:38Z</time>
      </trkpt>
      <trkpt lat="45.93971" lon="4.77943">
        <ele>191</ele>
        <time>2017-07-04T15:50:39Z</time>
      </trkpt>
      <trkpt lat="45.93963" lon="4.77948">
        <ele>190</ele>
        <time>2017-07-04T15:50:40Z</time>
      </trkpt>
      <trkpt lat="45.93955" lon="4.77953">
        <ele>190</ele>
        <time>2017-07-04T15:50:41Z</time>
      </trkpt>
      <trkpt lat="45.93948" lon="4.77958">
        <ele>189</ele>
        <time>2017-07-04T15:50:42Z</time>
      </trkpt>
      <trkpt lat="45.9394" lon="4.77964">
        <ele>189</ele>
        <time>2017-07-04T15:50:43Z</time>
      </trkpt>
      <trkpt lat="45.93934" lon="4.77969">
        <ele>189</ele>
        <time>2017-07-04T15:50:44Z</time>
      </trkpt>
      <trkpt lat="45.93922" lon="4.77973">
        <ele>188</ele>
        <time>2017-07-04T15:50:45Z</time>
      </trkpt>
      <trkpt lat="45.93915" lon="4.77977">
        <ele>182</ele>
        <time>2017-07-04T15:50:46Z</time>
      </trkpt>
      <trkpt lat="45.93909" lon="4.7798">
        <ele>182</ele>
        <time>2017-07-04T15:50:47Z</time>
      </trkpt>
      <trkpt lat="45.93901" lon="4.77985">
        <ele>182</ele>
        <time>2017-07-04T15:50:49Z</time>
      </trkpt>
      <trkpt lat="45.93899" lon="4.77988">
        <ele>182</ele>
        <time>2017-07-04T15:50:50Z</time>
      </trkpt>
      <trkpt lat="45.93893" lon="4.77995">
        <ele>182</ele>
        <time>2017-07-04T15:50:53Z</time>
      </trkpt>
      <trkpt lat="45.9389" lon="4.77997">
        <ele>181</ele>
        <time>2017-07-04T15:50:54Z</time>
      </trkpt>
      <trkpt lat="45.93882" lon="4.78003">
        <ele>184</ele>
        <time>2017-07-04T15:50:58Z</time>
      </trkpt>
      <trkpt lat="45.93881" lon="4.78003">
        <ele>184</ele>
        <time>2017-07-04T15:50:59Z</time>
      </trkpt>
      <trkpt lat="45.93876" lon="4.7801">
        <ele>183</ele>
        <time>2017-07-04T15:51:04Z</time>
      </trkpt>
      <trkpt lat="45.93873" lon="4.7801">
        <ele>183</ele>
        <time>2017-07-04T15:51:05Z</time>
      </trkpt>
      <trkpt lat="45.93869" lon="4.78004">
        <ele>183</ele>
        <time>2017-07-04T15:51:07Z</time>
      </trkpt>
      <trkpt lat="45.93867" lon="4.78001">
        <ele>183</ele>
        <time>2017-07-04T15:51:08Z</time>
      </trkpt>
      <trkpt lat="45.9386" lon="4.77994">
        <ele>179</ele>
        <time>2017-07-04T15:51:10Z</time>
      </trkpt>
      <trkpt lat="45.93856" lon="4.7799">
        <ele>179</ele>
        <time>2017-07-04T15:51:11Z</time>
      </trkpt>
      <trkpt lat="45.93852" lon="4.77987">
        <ele>179</ele>
        <time>2017-07-04T15:51:12Z</time>
      </trkpt>
      <trkpt lat="45.93847" lon="4.77983">
        <ele>179</ele>
        <time>2017-07-04T15:51:13Z</time>
      </trkpt>
      <trkpt lat="45.93841" lon="4.77976">
        <ele>178</ele>
        <time>2017-07-04T15:51:15Z</time>
      </trkpt>
      <trkpt lat="45.93837" lon="4.7797">
        <ele>178</ele>
        <time>2017-07-04T15:51:16Z</time>
      </trkpt>
      <trkpt lat="45.93833" lon="4.77965">
        <ele>171</ele>
        <time>2017-07-04T15:51:17Z</time>
      </trkpt>
      <trkpt lat="45.93828" lon="4.7796">
        <ele>171</ele>
        <time>2017-07-04T15:51:18Z</time>
      </trkpt>
      <trkpt lat="45.93824" lon="4.77954">
        <ele>170</ele>
        <time>2017-07-04T15:51:19Z</time>
      </trkpt>
      <trkpt lat="45.9382" lon="4.77949">
        <ele>169</ele>
        <time>2017-07-04T15:51:20Z</time>
      </trkpt>
      <trkpt lat="45.93817" lon="4.77944">
        <ele>169</ele>
        <time>2017-07-04T15:51:21Z</time>
      </trkpt>
      <trkpt lat="45.93813" lon="4.77939">
        <ele>169</ele>
        <time>2017-07-04T15:51:22Z</time>
      </trkpt>
      <trkpt lat="45.93809" lon="4.77934">
        <ele>168</ele>
        <time>2017-07-04T15:51:23Z</time>
      </trkpt>
      <trkpt lat="45.93805" lon="4.7793">
        <ele>168</ele>
        <time>2017-07-04T15:51:24Z</time>
      </trkpt>
      <trkpt lat="45.938" lon="4.77925">
        <ele>168</ele>
        <time>2017-07-04T15:51:25Z</time>
      </trkpt>
      <trkpt lat="45.93796" lon="4.7792">
        <ele>168</ele>
        <time>2017-07-04T15:51:26Z</time>
      </trkpt>
      <trkpt lat="45.93791" lon="4.77914">
        <ele>166</ele>
        <time>2017-07-04T15:51:27Z</time>
      </trkpt>
      <trkpt lat="45.93787" lon="4.77909">
        <ele>166</ele>
        <time>2017-07-04T15:51:28Z</time>
      </trkpt>
      <trkpt lat="45.93783" lon="4.77903">
        <ele>166</ele>
        <time>2017-07-04T15:51:29Z</time>
      </trkpt>
      <trkpt lat="45.93778" lon="4.77898">
        <ele>166</ele>
        <time>2017-07-04T15:51:30Z</time>
      </trkpt>
      <trkpt lat="45.93774" lon="4.77892">
        <ele>166</ele>
        <time>2017-07-04T15:51:31Z</time>
      </trkpt>
      <trkpt lat="45.9377" lon="4.77887">
        <ele>166</ele>
        <time>2017-07-04T15:51:32Z</time>
      </trkpt>
      <trkpt lat="45.93766" lon="4.77883">
        <ele>166</ele>
        <time>2017-07-04T15:51:33Z</time>
      </trkpt>
      <trkpt lat="45.93762" lon="4.77879">
        <ele>166</ele>
        <time>2017-07-04T15:51:34Z</time>
      </trkpt>
      <trkpt lat="45.93757" lon="4.77874">
        <ele>166</ele>
        <time>2017-07-04T15:51:35Z</time>
      </trkpt>
      <trkpt lat="45.93754" lon="4.77869">
        <ele>166</ele>
        <time>2017-07-04T15:51:36Z</time>
      </trkpt>
      <trkpt lat="45.93749" lon="4.77864">
        <ele>167</ele>
        <time>2017-07-04T15:51:37Z</time>
      </trkpt>
      <trkpt lat="45.93745" lon="4.77858">
        <ele>167</ele>
        <time>2017-07-04T15:51:38Z</time>
      </trkpt>
      <trkpt lat="45.9374" lon="4.77853">
        <ele>167</ele>
        <time>2017-07-04T15:51:39Z</time>
      </trkpt>
      <trkpt lat="45.93736" lon="4.77847">
        <ele>167</ele>
        <time>2017-07-04T15:51:40Z</time>
      </trkpt>
      <trkpt lat="45.93731" lon="4.77841">
        <ele>167</ele>
        <time>2017-07-04T15:51:41Z</time>
      </trkpt>
      <trkpt lat="45.93726" lon="4.77836">
        <ele>167</ele>
        <time>2017-07-04T15:51:42Z</time>
      </trkpt>
      <trkpt lat="45.93722" lon="4.7783">
        <ele>168</ele>
        <time>2017-07-04T15:51:43Z</time>
      </trkpt>
      <trkpt lat="45.93717" lon="4.77824">
        <ele>169</ele>
        <time>2017-07-04T15:51:44Z</time>
      </trkpt>
      <trkpt lat="45.93712" lon="4.77818">
        <ele>169</ele>
        <time>2017-07-04T15:51:45Z</time>
      </trkpt>
      <trkpt lat="45.93707" lon="4.77811">
        <ele>169</ele>
        <time>2017-07-04T15:51:46Z</time>
      </trkpt>
      <trkpt lat="45.93703" lon="4.77805">
        <ele>169</ele>
        <time>2017-07-04T15:51:47Z</time>
      </trkpt>
      <trkpt lat="45.93697" lon="4.77798">
        <ele>169</ele>
        <time>2017-07-04T15:51:48Z</time>
      </trkpt>
      <trkpt lat="45.93692" lon="4.77792">
        <ele>169</ele>
        <time>2017-07-04T15:51:49Z</time>
      </trkpt>
      <trkpt lat="45.93687" lon="4.77785">
        <ele>170</ele>
        <time>2017-07-04T15:51:50Z</time>
      </trkpt>
      <trkpt lat="45.93681" lon="4.77777">
        <ele>170</ele>
        <time>2017-07-04T15:51:51Z</time>
      </trkpt>
      <trkpt lat="45.93676" lon="4.7777">
        <ele>170</ele>
        <time>2017-07-04T15:51:52Z</time>
      </trkpt>
      <trkpt lat="45.9367" lon="4.77761">
        <ele>170</ele>
        <time>2017-07-04T15:51:53Z</time>
      </trkpt>
      <trkpt lat="45.93665" lon="4.77753">
        <ele>171</ele>
        <time>2017-07-04T15:51:54Z</time>
      </trkpt>
      <trkpt lat="45.9366" lon="4.77744">
        <ele>171</ele>
        <time>2017-07-04T15:51:55Z</time>
      </trkpt>
      <trkpt lat="45.93654" lon="4.77735">
        <ele>170</ele>
        <time>2017-07-04T15:51:56Z</time>
      </trkpt>
      <trkpt lat="45.93649" lon="4.77726">
        <ele>170</ele>
        <time>2017-07-04T15:51:57Z</time>
      </trkpt>
      <trkpt lat="45.93643" lon="4.77716">
        <ele>170</ele>
        <time>2017-07-04T15:51:58Z</time>
      </trkpt>
      <trkpt lat="45.93638" lon="4.77707">
        <ele>170</ele>
        <time>2017-07-04T15:51:59Z</time>
      </trkpt>
      <trkpt lat="45.93632" lon="4.77696">
        <ele>169</ele>
        <time>2017-07-04T15:52:00Z</time>
      </trkpt>
      <trkpt lat="45.93627" lon="4.77686">
        <ele>169</ele>
        <time>2017-07-04T15:52:01Z</time>
      </trkpt>
      <trkpt lat="45.93622" lon="4.77675">
        <ele>169</ele>
        <time>2017-07-04T15:52:02Z</time>
      </trkpt>
      <trkpt lat="45.93617" lon="4.77664">
        <ele>169</ele>
        <time>2017-07-04T15:52:03Z</time>
      </trkpt>
      <trkpt lat="45.93612" lon="4.77653">
        <ele>169</ele>
        <time>2017-07-04T15:52:04Z</time>
      </trkpt>
      <trkpt lat="45.93607" lon="4.77643">
        <ele>169</ele>
        <time>2017-07-04T15:52:05Z</time>
      </trkpt>
      <trkpt lat="45.93603" lon="4.77632">
        <ele>169</ele>
        <time>2017-07-04T15:52:06Z</time>
      </trkpt>
      <trkpt lat="45.93599" lon="4.77622">
        <ele>170</ele>
        <time>2017-07-04T15:52:07Z</time>
      </trkpt>
      <trkpt lat="45.93596" lon="4.77612">
        <ele>170</ele>
        <time>2017-07-04T15:52:08Z</time>
      </trkpt>
      <trkpt lat="45.93591" lon="4.77602">
        <ele>170</ele>
        <time>2017-07-04T15:52:09Z</time>
      </trkpt>
      <trkpt lat="45.93588" lon="4.77592">
        <ele>170</ele>
        <time>2017-07-04T15:52:10Z</time>
      </trkpt>
      <trkpt lat="45.93585" lon="4.77582">
        <ele>170</ele>
        <time>2017-07-04T15:52:11Z</time>
      </trkpt>
      <trkpt lat="45.93582" lon="4.77573">
        <ele>170</ele>
        <time>2017-07-04T15:52:12Z</time>
      </trkpt>
      <trkpt lat="45.93579" lon="4.77563">
        <ele>169</ele>
        <time>2017-07-04T15:52:13Z</time>
      </trkpt>
      <trkpt lat="45.93576" lon="4.77554">
        <ele>169</ele>
        <time>2017-07-04T15:52:14Z</time>
      </trkpt>
      <trkpt lat="45.93574" lon="4.77545">
        <ele>169</ele>
        <time>2017-07-04T15:52:15Z</time>
      </trkpt>
      <trkpt lat="45.93572" lon="4.77536">
        <ele>169</ele>
        <time>2017-07-04T15:52:16Z</time>
      </trkpt>
      <trkpt lat="45.9357" lon="4.77527">
        <ele>169</ele>
        <time>2017-07-04T15:52:17Z</time>
      </trkpt>
      <trkpt lat="45.93568" lon="4.77519">
        <ele>169</ele>
        <time>2017-07-04T15:52:18Z</time>
      </trkpt>
      <trkpt lat="45.93566" lon="4.7751">
        <ele>169</ele>
        <time>2017-07-04T15:52:19Z</time>
      </trkpt>
      <trkpt lat="45.93564" lon="4.77502">
        <ele>169</ele>
        <time>2017-07-04T15:52:20Z</time>
      </trkpt>
      <trkpt lat="45.93563" lon="4.77495">
        <ele>169</ele>
        <time>2017-07-04T15:52:21Z</time>
      </trkpt>
      <trkpt lat="45.93561" lon="4.77487">
        <ele>169</ele>
        <time>2017-07-04T15:52:22Z</time>
      </trkpt>
      <trkpt lat="45.93559" lon="4.77479">
        <ele>169</ele>
        <time>2017-07-04T15:52:23Z</time>
      </trkpt>
      <trkpt lat="45.93558" lon="4.77472">
        <ele>169</ele>
        <time>2017-07-04T15:52:24Z</time>
      </trkpt>
      <trkpt lat="45.93556" lon="4.77465">
        <ele>169</ele>
        <time>2017-07-04T15:52:25Z</time>
      </trkpt>
      <trkpt lat="45.93555" lon="4.77458">
        <ele>169</ele>
        <time>2017-07-04T15:52:26Z</time>
      </trkpt>
      <trkpt lat="45.93554" lon="4.77451">
        <ele>169</ele>
        <time>2017-07-04T15:52:27Z</time>
      </trkpt>
      <trkpt lat="45.93552" lon="4.77444">
        <ele>169</ele>
        <time>2017-07-04T15:52:28Z</time>
      </trkpt>
      <trkpt lat="45.9355" lon="4.77436">
        <ele>169</ele>
        <time>2017-07-04T15:52:29Z</time>
      </trkpt>
      <trkpt lat="45.93548" lon="4.77428">
        <ele>169</ele>
        <time>2017-07-04T15:52:30Z</time>
      </trkpt>
      <trkpt lat="45.93547" lon="4.7742">
        <ele>170</ele>
        <time>2017-07-04T15:52:31Z</time>
      </trkpt>
      <trkpt lat="45.93545" lon="4.77412">
        <ele>170</ele>
        <time>2017-07-04T15:52:32Z</time>
      </trkpt>
      <trkpt lat="45.93543" lon="4.77404">
        <ele>170</ele>
        <time>2017-07-04T15:52:33Z</time>
      </trkpt>
      <trkpt lat="45.93542" lon="4.77396">
        <ele>170</ele>
        <time>2017-07-04T15:52:34Z</time>
      </trkpt>
      <trkpt lat="45.9354" lon="4.77388">
        <ele>170</ele>
        <time>2017-07-04T15:52:35Z</time>
      </trkpt>
      <trkpt lat="45.93539" lon="4.7738">
        <ele>170</ele>
        <time>2017-07-04T15:52:36Z</time>
      </trkpt>
      <trkpt lat="45.93537" lon="4.77373">
        <ele>170</ele>
        <time>2017-07-04T15:52:37Z</time>
      </trkpt>
      <trkpt lat="45.93536" lon="4.77366">
        <ele>170</ele>
        <time>2017-07-04T15:52:38Z</time>
      </trkpt>
      <trkpt lat="45.93535" lon="4.77359">
        <ele>170</ele>
        <time>2017-07-04T15:52:39Z</time>
      </trkpt>
      <trkpt lat="45.93534" lon="4.77351">
        <ele>170</ele>
        <time>2017-07-04T15:52:40Z</time>
      </trkpt>
      <trkpt lat="45.93532" lon="4.77344">
        <ele>170</ele>
        <time>2017-07-04T15:52:41Z</time>
      </trkpt>
      <trkpt lat="45.9353" lon="4.77337">
        <ele>170</ele>
        <time>2017-07-04T15:52:42Z</time>
      </trkpt>
      <trkpt lat="45.93528" lon="4.77331">
        <ele>170</ele>
        <time>2017-07-04T15:52:43Z</time>
      </trkpt>
      <trkpt lat="45.93527" lon="4.77324">
        <ele>170</ele>
        <time>2017-07-04T15:52:44Z</time>
      </trkpt>
      <trkpt lat="45.93526" lon="4.77318">
        <ele>170</ele>
        <time>2017-07-04T15:52:45Z</time>
      </trkpt>
      <trkpt lat="45.93525" lon="4.77311">
        <ele>170</ele>
        <time>2017-07-04T15:52:46Z</time>
      </trkpt>
      <trkpt lat="45.93523" lon="4.77304">
        <ele>170</ele>
        <time>2017-07-04T15:52:47Z</time>
      </trkpt>
      <trkpt lat="45.93521" lon="4.77297">
        <ele>170</ele>
        <time>2017-07-04T15:52:48Z</time>
      </trkpt>
      <trkpt lat="45.9352" lon="4.7729">
        <ele>170</ele>
        <time>2017-07-04T15:52:49Z</time>
      </trkpt>
      <trkpt lat="45.93518" lon="4.77282">
        <ele>170</ele>
        <time>2017-07-04T15:52:50Z</time>
      </trkpt>
      <trkpt lat="45.93516" lon="4.77275">
        <ele>170</ele>
        <time>2017-07-04T15:52:51Z</time>
      </trkpt>
      <trkpt lat="45.93514" lon="4.77267">
        <ele>170</ele>
        <time>2017-07-04T15:52:52Z</time>
      </trkpt>
      <trkpt lat="45.93512" lon="4.7726">
        <ele>170</ele>
        <time>2017-07-04T15:52:53Z</time>
      </trkpt>
      <trkpt lat="45.93511" lon="4.77252">
        <ele>170</ele>
        <time>2017-07-04T15:52:54Z</time>
      </trkpt>
      <trkpt lat="45.93509" lon="4.77244">
        <ele>169</ele>
        <time>2017-07-04T15:52:55Z</time>
      </trkpt>
      <trkpt lat="45.93508" lon="4.77237">
        <ele>169</ele>
        <time>2017-07-04T15:52:56Z</time>
      </trkpt>
      <trkpt lat="45.93507" lon="4.7723">
        <ele>169</ele>
        <time>2017-07-04T15:52:57Z</time>
      </trkpt>
      <trkpt lat="45.93506" lon="4.77223">
        <ele>169</ele>
        <time>2017-07-04T15:52:58Z</time>
      </trkpt>
      <trkpt lat="45.93504" lon="4.77216">
        <ele>169</ele>
        <time>2017-07-04T15:52:59Z</time>
      </trkpt>
      <trkpt lat="45.93503" lon="4.77209">
        <ele>169</ele>
        <time>2017-07-04T15:53:00Z</time>
      </trkpt>
      <trkpt lat="45.93502" lon="4.77202">
        <ele>169</ele>
        <time>2017-07-04T15:53:01Z</time>
      </trkpt>
      <trkpt lat="45.935" lon="4.77195">
        <ele>169</ele>
        <time>2017-07-04T15:53:02Z</time>
      </trkpt>
      <trkpt lat="45.93499" lon="4.77188">
        <ele>169</ele>
        <time>2017-07-04T15:53:03Z</time>
      </trkpt>
      <trkpt lat="45.93497" lon="4.7718">
        <ele>169</ele>
        <time>2017-07-04T15:53:04Z</time>
      </trkpt>
      <trkpt lat="45.93496" lon="4.77172">
        <ele>169</ele>
        <time>2017-07-04T15:53:05Z</time>
      </trkpt>
      <trkpt lat="45.93494" lon="4.77165">
        <ele>169</ele>
        <time>2017-07-04T15:53:06Z</time>
      </trkpt>
      <trkpt lat="45.93492" lon="4.77157">
        <ele>169</ele>
        <time>2017-07-04T15:53:07Z</time>
      </trkpt>
      <trkpt lat="45.9349" lon="4.77149">
        <ele>169</ele>
        <time>2017-07-04T15:53:08Z</time>
      </trkpt>
      <trkpt lat="45.93488" lon="4.77141">
        <ele>169</ele>
        <time>2017-07-04T15:53:09Z</time>
      </trkpt>
      <trkpt lat="45.93486" lon="4.77134">
        <ele>169</ele>
        <time>2017-07-04T15:53:10Z</time>
      </trkpt>
      <trkpt lat="45.93484" lon="4.77127">
        <ele>169</ele>
        <time>2017-07-04T15:53:11Z</time>
      </trkpt>
      <trkpt lat="45.93484" lon="4.7712">
        <ele>169</ele>
        <time>2017-07-04T15:53:12Z</time>
      </trkpt>
      <trkpt lat="45.93482" lon="4.77114">
        <ele>169</ele>
        <time>2017-07-04T15:53:13Z</time>
      </trkpt>
      <trkpt lat="45.93481" lon="4.77107">
        <ele>169</ele>
        <time>2017-07-04T15:53:14Z</time>
      </trkpt>
      <trkpt lat="45.93481" lon="4.771">
        <ele>169</ele>
        <time>2017-07-04T15:53:15Z</time>
      </trkpt>
      <trkpt lat="45.9348" lon="4.77093">
        <ele>169</ele>
        <time>2017-07-04T15:53:16Z</time>
      </trkpt>
      <trkpt lat="45.93479" lon="4.77085">
        <ele>169</ele>
        <time>2017-07-04T15:53:17Z</time>
      </trkpt>
      <trkpt lat="45.93477" lon="4.77077">
        <ele>170</ele>
        <time>2017-07-04T15:53:18Z</time>
      </trkpt>
      <trkpt lat="45.93476" lon="4.7707">
        <ele>170</ele>
        <time>2017-07-04T15:53:19Z</time>
      </trkpt>
      <trkpt lat="45.93475" lon="4.77062">
        <ele>170</ele>
        <time>2017-07-04T15:53:20Z</time>
      </trkpt>
      <trkpt lat="45.93474" lon="4.77054">
        <ele>170</ele>
        <time>2017-07-04T15:53:21Z</time>
      </trkpt>
      <trkpt lat="45.93473" lon="4.77047">
        <ele>170</ele>
        <time>2017-07-04T15:53:22Z</time>
      </trkpt>
      <trkpt lat="45.93472" lon="4.77039">
        <ele>170</ele>
        <time>2017-07-04T15:53:23Z</time>
      </trkpt>
      <trkpt lat="45.93471" lon="4.77032">
        <ele>170</ele>
        <time>2017-07-04T15:53:24Z</time>
      </trkpt>
      <trkpt lat="45.9347" lon="4.77025">
        <ele>170</ele>
        <time>2017-07-04T15:53:25Z</time>
      </trkpt>
      <trkpt lat="45.93468" lon="4.77017">
        <ele>170</ele>
        <time>2017-07-04T15:53:26Z</time>
      </trkpt>
      <trkpt lat="45.93467" lon="4.7701">
        <ele>170</ele>
        <time>2017-07-04T15:53:27Z</time>
      </trkpt>
      <trkpt lat="45.93466" lon="4.77003">
        <ele>170</ele>
        <time>2017-07-04T15:53:28Z</time>
      </trkpt>
      <trkpt lat="45.93465" lon="4.76995">
        <ele>170</ele>
        <time>2017-07-04T15:53:29Z</time>
      </trkpt>
      <trkpt lat="45.93464" lon="4.76988">
        <ele>170</ele>
        <time>2017-07-04T15:53:30Z</time>
      </trkpt>
      <trkpt lat="45.93463" lon="4.76981">
        <ele>170</ele>
        <time>2017-07-04T15:53:31Z</time>
      </trkpt>
      <trkpt lat="45.93461" lon="4.76973">
        <ele>170</ele>
        <time>2017-07-04T15:53:32Z</time>
      </trkpt>
      <trkpt lat="45.9346" lon="4.76966">
        <ele>170</ele>
        <time>2017-07-04T15:53:33Z</time>
      </trkpt>
      <trkpt lat="45.93459" lon="4.76958">
        <ele>170</ele>
        <time>2017-07-04T15:53:34Z</time>
      </trkpt>
      <trkpt lat="45.93458" lon="4.76951">
        <ele>170</ele>
        <time>2017-07-04T15:53:35Z</time>
      </trkpt>
      <trkpt lat="45.93457" lon="4.76943">
        <ele>170</ele>
        <time>2017-07-04T15:53:36Z</time>
      </trkpt>
      <trkpt lat="45.93455" lon="4.76935">
        <ele>170</ele>
        <time>2017-07-04T15:53:37Z</time>
      </trkpt>
      <trkpt lat="45.93454" lon="4.76927">
        <ele>170</ele>
        <time>2017-07-04T15:53:38Z</time>
      </trkpt>
      <trkpt lat="45.93453" lon="4.76918">
        <ele>170</ele>
        <time>2017-07-04T15:53:39Z</time>
      </trkpt>
      <trkpt lat="45.93451" lon="4.76909">
        <ele>170</ele>
        <time>2017-07-04T15:53:40Z</time>
      </trkpt>
      <trkpt lat="45.93448" lon="4.769">
        <ele>170</ele>
        <time>2017-07-04T15:53:41Z</time>
      </trkpt>
      <trkpt lat="45.93445" lon="4.76892">
        <ele>170</ele>
        <time>2017-07-04T15:53:42Z</time>
      </trkpt>
      <trkpt lat="45.93443" lon="4.76884">
        <ele>170</ele>
        <time>2017-07-04T15:53:43Z</time>
      </trkpt>
      <trkpt lat="45.9344" lon="4.76877">
        <ele>171</ele>
        <time>2017-07-04T15:53:44Z</time>
      </trkpt>
      <trkpt lat="45.93438" lon="4.76869">
        <ele>171</ele>
        <time>2017-07-04T15:53:45Z</time>
      </trkpt>
      <trkpt lat="45.93435" lon="4.76862">
        <ele>171</ele>
        <time>2017-07-04T15:53:46Z</time>
      </trkpt>
      <trkpt lat="45.93432" lon="4.76856">
        <ele>171</ele>
        <time>2017-07-04T15:53:47Z</time>
      </trkpt>
      <trkpt lat="45.93429" lon="4.7685">
        <ele>171</ele>
        <time>2017-07-04T15:53:48Z</time>
      </trkpt>
      <trkpt lat="45.93427" lon="4.76844">
        <ele>171</ele>
        <time>2017-07-04T15:53:49Z</time>
      </trkpt>
      <trkpt lat="45.93424" lon="4.76838">
        <ele>171</ele>
        <time>2017-07-04T15:53:50Z</time>
      </trkpt>
      <trkpt lat="45.93421" lon="4.76832">
        <ele>172</ele>
        <time>2017-07-04T15:53:51Z</time>
      </trkpt>
      <trkpt lat="45.93418" lon="4.76826">
        <ele>172</ele>
        <time>2017-07-04T15:53:52Z</time>
      </trkpt>
      <trkpt lat="45.93414" lon="4.7682">
        <ele>172</ele>
        <time>2017-07-04T15:53:53Z</time>
      </trkpt>
      <trkpt lat="45.93411" lon="4.76814">
        <ele>172</ele>
        <time>2017-07-04T15:53:54Z</time>
      </trkpt>
      <trkpt lat="45.93407" lon="4.76808">
        <ele>172</ele>
        <time>2017-07-04T15:53:55Z</time>
      </trkpt>
      <trkpt lat="45.93403" lon="4.76802">
        <ele>172</ele>
        <time>2017-07-04T15:53:56Z</time>
      </trkpt>
      <trkpt lat="45.93399" lon="4.76797">
        <ele>172</ele>
        <time>2017-07-04T15:53:57Z</time>
      </trkpt>
      <trkpt lat="45.93395" lon="4.76793">
        <ele>172</ele>
        <time>2017-07-04T15:53:58Z</time>
      </trkpt>
      <trkpt lat="45.9339" lon="4.76788">
        <ele>172</ele>
        <time>2017-07-04T15:53:59Z</time>
      </trkpt>
      <trkpt lat="45.93386" lon="4.76784">
        <ele>172</ele>
        <time>2017-07-04T15:54:00Z</time>
      </trkpt>
      <trkpt lat="45.93383" lon="4.7678">
        <ele>172</ele>
        <time>2017-07-04T15:54:01Z</time>
      </trkpt>
      <trkpt lat="45.93375" lon="4.76772">
        <ele>172</ele>
        <time>2017-07-04T15:54:03Z</time>
      </trkpt>
      <trkpt lat="45.93372" lon="4.76768">
        <ele>172</ele>
        <time>2017-07-04T15:54:04Z</time>
      </trkpt>
      <trkpt lat="45.93368" lon="4.76764">
        <ele>172</ele>
        <time>2017-07-04T15:54:05Z</time>
      </trkpt>
      <trkpt lat="45.93364" lon="4.7676">
        <ele>172</ele>
        <time>2017-07-04T15:54:06Z</time>
      </trkpt>
      <trkpt lat="45.9336" lon="4.76757">
        <ele>172</ele>
        <time>2017-07-04T15:54:07Z</time>
      </trkpt>
      <trkpt lat="45.93356" lon="4.76753">
        <ele>172</ele>
        <time>2017-07-04T15:54:08Z</time>
      </trkpt>
      <trkpt lat="45.93352" lon="4.76749">
        <ele>172</ele>
        <time>2017-07-04T15:54:09Z</time>
      </trkpt>
      <trkpt lat="45.93348" lon="4.76745">
        <ele>172</ele>
        <time>2017-07-04T15:54:10Z</time>
      </trkpt>
      <trkpt lat="45.93343" lon="4.7674">
        <ele>172</ele>
        <time>2017-07-04T15:54:11Z</time>
      </trkpt>
      <trkpt lat="45.93338" lon="4.76736">
        <ele>172</ele>
        <time>2017-07-04T15:54:12Z</time>
      </trkpt>
      <trkpt lat="45.93333" lon="4.76731">
        <ele>172</ele>
        <time>2017-07-04T15:54:13Z</time>
      </trkpt>
      <trkpt lat="45.93327" lon="4.76727">
        <ele>172</ele>
        <time>2017-07-04T15:54:14Z</time>
      </trkpt>
      <trkpt lat="45.93322" lon="4.76722">
        <ele>172</ele>
        <time>2017-07-04T15:54:15Z</time>
      </trkpt>
      <trkpt lat="45.93317" lon="4.76717">
        <ele>172</ele>
        <time>2017-07-04T15:54:16Z</time>
      </trkpt>
      <trkpt lat="45.93312" lon="4.76712">
        <ele>172</ele>
        <time>2017-07-04T15:54:17Z</time>
      </trkpt>
      <trkpt lat="45.93308" lon="4.76707">
        <ele>172</ele>
        <time>2017-07-04T15:54:18Z</time>
      </trkpt>
      <trkpt lat="45.93303" lon="4.76703">
        <ele>172</ele>
        <time>2017-07-04T15:54:19Z</time>
      </trkpt>
      <trkpt lat="45.93298" lon="4.76699">
        <ele>172</ele>
        <time>2017-07-04T15:54:20Z</time>
      </trkpt>
      <trkpt lat="45.93294" lon="4.76695">
        <ele>172</ele>
        <time>2017-07-04T15:54:21Z</time>
      </trkpt>
      <trkpt lat="45.9329" lon="4.76691">
        <ele>172</ele>
        <time>2017-07-04T15:54:22Z</time>
      </trkpt>
      <trkpt lat="45.93286" lon="4.76687">
        <ele>172</ele>
        <time>2017-07-04T15:54:23Z</time>
      </trkpt>
      <trkpt lat="45.93281" lon="4.76683">
        <ele>172</ele>
        <time>2017-07-04T15:54:24Z</time>
      </trkpt>
      <trkpt lat="45.93277" lon="4.76679">
        <ele>172</ele>
        <time>2017-07-04T15:54:25Z</time>
      </trkpt>
      <trkpt lat="45.93273" lon="4.76674">
        <ele>172</ele>
        <time>2017-07-04T15:54:26Z</time>
      </trkpt>
      <trkpt lat="45.93268" lon="4.7667">
        <ele>172</ele>
        <time>2017-07-04T15:54:27Z</time>
      </trkpt>
      <trkpt lat="45.93263" lon="4.76665">
        <ele>171</ele>
        <time>2017-07-04T15:54:28Z</time>
      </trkpt>
      <trkpt lat="45.93259" lon="4.7666">
        <ele>171</ele>
        <time>2017-07-04T15:54:29Z</time>
      </trkpt>
      <trkpt lat="45.93255" lon="4.76656">
        <ele>171</ele>
        <time>2017-07-04T15:54:30Z</time>
      </trkpt>
      <trkpt lat="45.93251" lon="4.76651">
        <ele>171</ele>
        <time>2017-07-04T15:54:31Z</time>
      </trkpt>
      <trkpt lat="45.93247" lon="4.76646">
        <ele>171</ele>
        <time>2017-07-04T15:54:32Z</time>
      </trkpt>
      <trkpt lat="45.93242" lon="4.76642">
        <ele>171</ele>
        <time>2017-07-04T15:54:33Z</time>
      </trkpt>
      <trkpt lat="45.93238" lon="4.76638">
        <ele>171</ele>
        <time>2017-07-04T15:54:34Z</time>
      </trkpt>
      <trkpt lat="45.93234" lon="4.76634">
        <ele>171</ele>
        <time>2017-07-04T15:54:35Z</time>
      </trkpt>
      <trkpt lat="45.9323" lon="4.7663">
        <ele>170</ele>
        <time>2017-07-04T15:54:36Z</time>
      </trkpt>
      <trkpt lat="45.93227" lon="4.76625">
        <ele>170</ele>
        <time>2017-07-04T15:54:37Z</time>
      </trkpt>
      <trkpt lat="45.93223" lon="4.76621">
        <ele>170</ele>
        <time>2017-07-04T15:54:38Z</time>
      </trkpt>
      <trkpt lat="45.93219" lon="4.76617">
        <ele>170</ele>
        <time>2017-07-04T15:54:39Z</time>
      </trkpt>
      <trkpt lat="45.93215" lon="4.76614">
        <ele>170</ele>
        <time>2017-07-04T15:54:40Z</time>
      </trkpt>
      <trkpt lat="45.93211" lon="4.7661">
        <ele>170</ele>
        <time>2017-07-04T15:54:41Z</time>
      </trkpt>
      <trkpt lat="45.93207" lon="4.76606">
        <ele>170</ele>
        <time>2017-07-04T15:54:42Z</time>
      </trkpt>
      <trkpt lat="45.93202" lon="4.76602">
        <ele>170</ele>
        <time>2017-07-04T15:54:43Z</time>
      </trkpt>
      <trkpt lat="45.93197" lon="4.76597">
        <ele>170</ele>
        <time>2017-07-04T15:54:44Z</time>
      </trkpt>
      <trkpt lat="45.93193" lon="4.76592">
        <ele>170</ele>
        <time>2017-07-04T15:54:45Z</time>
      </trkpt>
      <trkpt lat="45.93188" lon="4.76587">
        <ele>171</ele>
        <time>2017-07-04T15:54:46Z</time>
      </trkpt>
      <trkpt lat="45.93183" lon="4.76583">
        <ele>170</ele>
        <time>2017-07-04T15:54:47Z</time>
      </trkpt>
      <trkpt lat="45.93179" lon="4.76579">
        <ele>170</ele>
        <time>2017-07-04T15:54:48Z</time>
      </trkpt>
      <trkpt lat="45.93175" lon="4.76575">
        <ele>170</ele>
        <time>2017-07-04T15:54:49Z</time>
      </trkpt>
      <trkpt lat="45.93171" lon="4.76571">
        <ele>170</ele>
        <time>2017-07-04T15:54:50Z</time>
      </trkpt>
      <trkpt lat="45.93166" lon="4.76567">
        <ele>170</ele>
        <time>2017-07-04T15:54:51Z</time>
      </trkpt>
      <trkpt lat="45.93163" lon="4.76563">
        <ele>170</ele>
        <time>2017-07-04T15:54:52Z</time>
      </trkpt>
      <trkpt lat="45.93159" lon="4.76558">
        <ele>170</ele>
        <time>2017-07-04T15:54:53Z</time>
      </trkpt>
      <trkpt lat="45.93155" lon="4.76554">
        <ele>170</ele>
        <time>2017-07-04T15:54:54Z</time>
      </trkpt>
      <trkpt lat="45.93151" lon="4.7655">
        <ele>170</ele>
        <time>2017-07-04T15:54:55Z</time>
      </trkpt>
      <trkpt lat="45.93147" lon="4.76546">
        <ele>170</ele>
        <time>2017-07-04T15:54:56Z</time>
      </trkpt>
      <trkpt lat="45.93143" lon="4.76542">
        <ele>170</ele>
        <time>2017-07-04T15:54:57Z</time>
      </trkpt>
      <trkpt lat="45.93139" lon="4.76539">
        <ele>170</ele>
        <time>2017-07-04T15:54:58Z</time>
      </trkpt>
      <trkpt lat="45.93135" lon="4.76535">
        <ele>170</ele>
        <time>2017-07-04T15:54:59Z</time>
      </trkpt>
      <trkpt lat="45.93131" lon="4.76531">
        <ele>170</ele>
        <time>2017-07-04T15:55:00Z</time>
      </trkpt>
      <trkpt lat="45.93126" lon="4.76527">
        <ele>170</ele>
        <time>2017-07-04T15:55:01Z</time>
      </trkpt>
      <trkpt lat="45.93121" lon="4.76522">
        <ele>170</ele>
        <time>2017-07-04T15:55:02Z</time>
      </trkpt>
      <trkpt lat="45.93116" lon="4.76517">
        <ele>170</ele>
        <time>2017-07-04T15:55:03Z</time>
      </trkpt>
      <trkpt lat="45.93111" lon="4.76512">
        <ele>170</ele>
        <time>2017-07-04T15:55:04Z</time>
      </trkpt>
      <trkpt lat="45.93106" lon="4.76508">
        <ele>170</ele>
        <time>2017-07-04T15:55:05Z</time>
      </trkpt>
      <trkpt lat="45.93102" lon="4.76503">
        <ele>170</ele>
        <time>2017-07-04T15:55:06Z</time>
      </trkpt>
      <trkpt lat="45.93097" lon="4.76499">
        <ele>170</ele>
        <time>2017-07-04T15:55:07Z</time>
      </trkpt>
      <trkpt lat="45.93092" lon="4.76495">
        <ele>170</ele>
        <time>2017-07-04T15:55:08Z</time>
      </trkpt>
      <trkpt lat="45.93088" lon="4.76491">
        <ele>170</ele>
        <time>2017-07-04T15:55:09Z</time>
      </trkpt>
      <trkpt lat="45.93083" lon="4.76487">
        <ele>170</ele>
        <time>2017-07-04T15:55:10Z</time>
      </trkpt>
      <trkpt lat="45.93079" lon="4.76483">
        <ele>169</ele>
        <time>2017-07-04T15:55:11Z</time>
      </trkpt>
      <trkpt lat="45.93075" lon="4.7648">
        <ele>169</ele>
        <time>2017-07-04T15:55:12Z</time>
      </trkpt>
      <trkpt lat="45.93071" lon="4.76476">
        <ele>169</ele>
        <time>2017-07-04T15:55:13Z</time>
      </trkpt>
      <trkpt lat="45.93067" lon="4.76472">
        <ele>169</ele>
        <time>2017-07-04T15:55:14Z</time>
      </trkpt>
      <trkpt lat="45.9306" lon="4.76464">
        <ele>169</ele>
        <time>2017-07-04T15:55:16Z</time>
      </trkpt>
      <trkpt lat="45.93056" lon="4.7646">
        <ele>169</ele>
        <time>2017-07-04T15:55:17Z</time>
      </trkpt>
      <trkpt lat="45.93052" lon="4.76455">
        <ele>169</ele>
        <time>2017-07-04T15:55:18Z</time>
      </trkpt>
      <trkpt lat="45.93048" lon="4.76451">
        <ele>169</ele>
        <time>2017-07-04T15:55:19Z</time>
      </trkpt>
      <trkpt lat="45.93043" lon="4.76447">
        <ele>169</ele>
        <time>2017-07-04T15:55:20Z</time>
      </trkpt>
      <trkpt lat="45.93039" lon="4.76443">
        <ele>169</ele>
        <time>2017-07-04T15:55:21Z</time>
      </trkpt>
      <trkpt lat="45.93035" lon="4.76438">
        <ele>169</ele>
        <time>2017-07-04T15:55:22Z</time>
      </trkpt>
      <trkpt lat="45.93031" lon="4.76434">
        <ele>169</ele>
        <time>2017-07-04T15:55:23Z</time>
      </trkpt>
      <trkpt lat="45.93027" lon="4.7643">
        <ele>169</ele>
        <time>2017-07-04T15:55:24Z</time>
      </trkpt>
      <trkpt lat="45.93023" lon="4.76426">
        <ele>169</ele>
        <time>2017-07-04T15:55:25Z</time>
      </trkpt>
      <trkpt lat="45.93019" lon="4.76422">
        <ele>169</ele>
        <time>2017-07-04T15:55:26Z</time>
      </trkpt>
      <trkpt lat="45.93015" lon="4.76418">
        <ele>169</ele>
        <time>2017-07-04T15:55:27Z</time>
      </trkpt>
      <trkpt lat="45.93008" lon="4.7641">
        <ele>169</ele>
        <time>2017-07-04T15:55:29Z</time>
      </trkpt>
      <trkpt lat="45.93005" lon="4.76407">
        <ele>169</ele>
        <time>2017-07-04T15:55:30Z</time>
      </trkpt>
      <trkpt lat="45.92998" lon="4.764">
        <ele>169</ele>
        <time>2017-07-04T15:55:32Z</time>
      </trkpt>
      <trkpt lat="45.92994" lon="4.76397">
        <ele>169</ele>
        <time>2017-07-04T15:55:33Z</time>
      </trkpt>
      <trkpt lat="45.9299" lon="4.76393">
        <ele>169</ele>
        <time>2017-07-04T15:55:34Z</time>
      </trkpt>
      <trkpt lat="45.92986" lon="4.76389">
        <ele>169</ele>
        <time>2017-07-04T15:55:35Z</time>
      </trkpt>
      <trkpt lat="45.92982" lon="4.76385">
        <ele>169</ele>
        <time>2017-07-04T15:55:36Z</time>
      </trkpt>
      <trkpt lat="45.92978" lon="4.76382">
        <ele>169</ele>
        <time>2017-07-04T15:55:37Z</time>
      </trkpt>
      <trkpt lat="45.9297" lon="4.76375">
        <ele>169</ele>
        <time>2017-07-04T15:55:39Z</time>
      </trkpt>
      <trkpt lat="45.92967" lon="4.76371">
        <ele>169</ele>
        <time>2017-07-04T15:55:40Z</time>
      </trkpt>
      <trkpt lat="45.92963" lon="4.76367">
        <ele>169</ele>
        <time>2017-07-04T15:55:41Z</time>
      </trkpt>
      <trkpt lat="45.92959" lon="4.76363">
        <ele>169</ele>
        <time>2017-07-04T15:55:42Z</time>
      </trkpt>
      <trkpt lat="45.92955" lon="4.76359">
        <ele>169</ele>
        <time>2017-07-04T15:55:43Z</time>
      </trkpt>
      <trkpt lat="45.92951" lon="4.76354">
        <ele>169</ele>
        <time>2017-07-04T15:55:44Z</time>
      </trkpt>
      <trkpt lat="45.92947" lon="4.7635">
        <ele>169</ele>
        <time>2017-07-04T15:55:45Z</time>
      </trkpt>
      <trkpt lat="45.92944" lon="4.76344">
        <ele>169</ele>
        <time>2017-07-04T15:55:46Z</time>
      </trkpt>
      <trkpt lat="45.92939" lon="4.76339">
        <ele>169</ele>
        <time>2017-07-04T15:55:47Z</time>
      </trkpt>
      <trkpt lat="45.92935" lon="4.76333">
        <ele>169</ele>
        <time>2017-07-04T15:55:48Z</time>
      </trkpt>
      <trkpt lat="45.92931" lon="4.76328">
        <ele>169</ele>
        <time>2017-07-04T15:55:49Z</time>
      </trkpt>
      <trkpt lat="45.92926" lon="4.76323">
        <ele>169</ele>
        <time>2017-07-04T15:55:50Z</time>
      </trkpt>
      <trkpt lat="45.92921" lon="4.76319">
        <ele>169</ele>
        <time>2017-07-04T15:55:51Z</time>
      </trkpt>
      <trkpt lat="45.92917" lon="4.76315">
        <ele>169</ele>
        <time>2017-07-04T15:55:52Z</time>
      </trkpt>
      <trkpt lat="45.92912" lon="4.76311">
        <ele>169</ele>
        <time>2017-07-04T15:55:53Z</time>
      </trkpt>
      <trkpt lat="45.92908" lon="4.76307">
        <ele>169</ele>
        <time>2017-07-04T15:55:54Z</time>
      </trkpt>
      <trkpt lat="45.92904" lon="4.76303">
        <ele>169</ele>
        <time>2017-07-04T15:55:55Z</time>
      </trkpt>
      <trkpt lat="45.92899" lon="4.76299">
        <ele>169</ele>
        <time>2017-07-04T15:55:56Z</time>
      </trkpt>
      <trkpt lat="45.92895" lon="4.76295">
        <ele>169</ele>
        <time>2017-07-04T15:55:57Z</time>
      </trkpt>
      <trkpt lat="45.9289" lon="4.7629">
        <ele>169</ele>
        <time>2017-07-04T15:55:58Z</time>
      </trkpt>
      <trkpt lat="45.92886" lon="4.76286">
        <ele>169</ele>
        <time>2017-07-04T15:55:59Z</time>
      </trkpt>
      <trkpt lat="45.92881" lon="4.76282">
        <ele>169</ele>
        <time>2017-07-04T15:56:00Z</time>
      </trkpt>
      <trkpt lat="45.92877" lon="4.76277">
        <ele>169</ele>
        <time>2017-07-04T15:56:01Z</time>
      </trkpt>
      <trkpt lat="45.92873" lon="4.76273">
        <ele>169</ele>
        <time>2017-07-04T15:56:02Z</time>
      </trkpt>
      <trkpt lat="45.92869" lon="4.76268">
        <ele>169</ele>
        <time>2017-07-04T15:56:03Z</time>
      </trkpt>
      <trkpt lat="45.92865" lon="4.76264">
        <ele>169</ele>
        <time>2017-07-04T15:56:04Z</time>
      </trkpt>
      <trkpt lat="45.92861" lon="4.7626">
        <ele>169</ele>
        <time>2017-07-04T15:56:05Z</time>
      </trkpt>
      <trkpt lat="45.92857" lon="4.76256">
        <ele>169</ele>
        <time>2017-07-04T15:56:06Z</time>
      </trkpt>
      <trkpt lat="45.92853" lon="4.76252">
        <ele>169</ele>
        <time>2017-07-04T15:56:07Z</time>
      </trkpt>
      <trkpt lat="45.92849" lon="4.76249">
        <ele>169</ele>
        <time>2017-07-04T15:56:08Z</time>
      </trkpt>
      <trkpt lat="45.92841" lon="4.76243">
        <ele>169</ele>
        <time>2017-07-04T15:56:10Z</time>
      </trkpt>
      <trkpt lat="45.92837" lon="4.76239">
        <ele>169</ele>
        <time>2017-07-04T15:56:11Z</time>
      </trkpt>
      <trkpt lat="45.92832" lon="4.76234">
        <ele>168</ele>
        <time>2017-07-04T15:56:12Z</time>
      </trkpt>
      <trkpt lat="45.92828" lon="4.76229">
        <ele>168</ele>
        <time>2017-07-04T15:56:13Z</time>
      </trkpt>
      <trkpt lat="45.92823" lon="4.76224">
        <ele>168</ele>
        <time>2017-07-04T15:56:14Z</time>
      </trkpt>
      <trkpt lat="45.92819" lon="4.76219">
        <ele>168</ele>
        <time>2017-07-04T15:56:15Z</time>
      </trkpt>
      <trkpt lat="45.92814" lon="4.76215">
        <ele>168</ele>
        <time>2017-07-04T15:56:16Z</time>
      </trkpt>
      <trkpt lat="45.92809" lon="4.76209">
        <ele>168</ele>
        <time>2017-07-04T15:56:17Z</time>
      </trkpt>
      <trkpt lat="45.92804" lon="4.76205">
        <ele>168</ele>
        <time>2017-07-04T15:56:18Z</time>
      </trkpt>
      <trkpt lat="45.92799" lon="4.762">
        <ele>168</ele>
        <time>2017-07-04T15:56:19Z</time>
      </trkpt>
      <trkpt lat="45.92795" lon="4.76196">
        <ele>168</ele>
        <time>2017-07-04T15:56:20Z</time>
      </trkpt>
      <trkpt lat="45.9279" lon="4.76191">
        <ele>168</ele>
        <time>2017-07-04T15:56:21Z</time>
      </trkpt>
      <trkpt lat="45.92786" lon="4.76186">
        <ele>168</ele>
        <time>2017-07-04T15:56:22Z</time>
      </trkpt>
      <trkpt lat="45.92781" lon="4.76182">
        <ele>168</ele>
        <time>2017-07-04T15:56:23Z</time>
      </trkpt>
      <trkpt lat="45.92776" lon="4.76177">
        <ele>167</ele>
        <time>2017-07-04T15:56:24Z</time>
      </trkpt>
      <trkpt lat="45.92771" lon="4.76174">
        <ele>167</ele>
        <time>2017-07-04T15:56:25Z</time>
      </trkpt>
      <trkpt lat="45.92766" lon="4.7617">
        <ele>167</ele>
        <time>2017-07-04T15:56:26Z</time>
      </trkpt>
      <trkpt lat="45.92761" lon="4.76167">
        <ele>167</ele>
        <time>2017-07-04T15:56:27Z</time>
      </trkpt>
      <trkpt lat="45.92756" lon="4.76164">
        <ele>167</ele>
        <time>2017-07-04T15:56:28Z</time>
      </trkpt>
      <trkpt lat="45.92752" lon="4.7616">
        <ele>167</ele>
        <time>2017-07-04T15:56:29Z</time>
      </trkpt>
      <trkpt lat="45.92747" lon="4.76157">
        <ele>167</ele>
        <time>2017-07-04T15:56:30Z</time>
      </trkpt>
      <trkpt lat="45.92743" lon="4.76154">
        <ele>168</ele>
        <time>2017-07-04T15:56:31Z</time>
      </trkpt>
      <trkpt lat="45.92735" lon="4.76148">
        <ele>168</ele>
        <time>2017-07-04T15:56:33Z</time>
      </trkpt>
      <trkpt lat="45.92731" lon="4.76145">
        <ele>168</ele>
        <time>2017-07-04T15:56:34Z</time>
      </trkpt>
      <trkpt lat="45.92728" lon="4.76141">
        <ele>168</ele>
        <time>2017-07-04T15:56:35Z</time>
      </trkpt>
      <trkpt lat="45.92723" lon="4.76138">
        <ele>168</ele>
        <time>2017-07-04T15:56:36Z</time>
      </trkpt>
      <trkpt lat="45.92719" lon="4.76134">
        <ele>168</ele>
        <time>2017-07-04T15:56:37Z</time>
      </trkpt>
      <trkpt lat="45.92715" lon="4.76131">
        <ele>168</ele>
        <time>2017-07-04T15:56:38Z</time>
      </trkpt>
      <trkpt lat="45.92711" lon="4.76128">
        <ele>168</ele>
        <time>2017-07-04T15:56:39Z</time>
      </trkpt>
      <trkpt lat="45.92707" lon="4.76125">
        <ele>169</ele>
        <time>2017-07-04T15:56:40Z</time>
      </trkpt>
      <trkpt lat="45.92703" lon="4.76121">
        <ele>169</ele>
        <time>2017-07-04T15:56:41Z</time>
      </trkpt>
      <trkpt lat="45.92698" lon="4.76118">
        <ele>169</ele>
        <time>2017-07-04T15:56:42Z</time>
      </trkpt>
      <trkpt lat="45.92693" lon="4.76114">
        <ele>169</ele>
        <time>2017-07-04T15:56:43Z</time>
      </trkpt>
      <trkpt lat="45.92689" lon="4.7611">
        <ele>169</ele>
        <time>2017-07-04T15:56:44Z</time>
      </trkpt>
      <trkpt lat="45.92684" lon="4.76106">
        <ele>169</ele>
        <time>2017-07-04T15:56:45Z</time>
      </trkpt>
      <trkpt lat="45.92679" lon="4.76102">
        <ele>169</ele>
        <time>2017-07-04T15:56:46Z</time>
      </trkpt>
      <trkpt lat="45.92675" lon="4.76098">
        <ele>169</ele>
        <time>2017-07-04T15:56:47Z</time>
      </trkpt>
      <trkpt lat="45.9267" lon="4.76093">
        <ele>170</ele>
        <time>2017-07-04T15:56:48Z</time>
      </trkpt>
      <trkpt lat="45.92664" lon="4.76088">
        <ele>170</ele>
        <time>2017-07-04T15:56:49Z</time>
      </trkpt>
      <trkpt lat="45.92659" lon="4.76084">
        <ele>170</ele>
        <time>2017-07-04T15:56:50Z</time>
      </trkpt>
      <trkpt lat="45.92654" lon="4.7608">
        <ele>170</ele>
        <time>2017-07-04T15:56:51Z</time>
      </trkpt>
      <trkpt lat="45.92649" lon="4.76076">
        <ele>170</ele>
        <time>2017-07-04T15:56:52Z</time>
      </trkpt>
      <trkpt lat="45.92644" lon="4.76072">
        <ele>170</ele>
        <time>2017-07-04T15:56:53Z</time>
      </trkpt>
      <trkpt lat="45.92638" lon="4.76068">
        <ele>170</ele>
        <time>2017-07-04T15:56:54Z</time>
      </trkpt>
      <trkpt lat="45.92633" lon="4.76064">
        <ele>170</ele>
        <time>2017-07-04T15:56:55Z</time>
      </trkpt>
      <trkpt lat="45.92628" lon="4.7606">
        <ele>170</ele>
        <time>2017-07-04T15:56:56Z</time>
      </trkpt>
      <trkpt lat="45.92623" lon="4.76056">
        <ele>171</ele>
        <time>2017-07-04T15:56:57Z</time>
      </trkpt>
      <trkpt lat="45.92618" lon="4.76053">
        <ele>171</ele>
        <time>2017-07-04T15:56:58Z</time>
      </trkpt>
      <trkpt lat="45.92613" lon="4.76049">
        <ele>171</ele>
        <time>2017-07-04T15:56:59Z</time>
      </trkpt>
      <trkpt lat="45.92608" lon="4.76046">
        <ele>171</ele>
        <time>2017-07-04T15:57:00Z</time>
      </trkpt>
      <trkpt lat="45.92604" lon="4.76043">
        <ele>171</ele>
        <time>2017-07-04T15:57:01Z</time>
      </trkpt>
      <trkpt lat="45.926" lon="4.7604">
        <ele>171</ele>
        <time>2017-07-04T15:57:02Z</time>
      </trkpt>
      <trkpt lat="45.92595" lon="4.76037">
        <ele>171</ele>
        <time>2017-07-04T15:57:03Z</time>
      </trkpt>
      <trkpt lat="45.92591" lon="4.76034">
        <ele>171</ele>
        <time>2017-07-04T15:57:04Z</time>
      </trkpt>
      <trkpt lat="45.92586" lon="4.76032">
        <ele>171</ele>
        <time>2017-07-04T15:57:05Z</time>
      </trkpt>
      <trkpt lat="45.92582" lon="4.76029">
        <ele>172</ele>
        <time>2017-07-04T15:57:06Z</time>
      </trkpt>
      <trkpt lat="45.92574" lon="4.76025">
        <ele>172</ele>
        <time>2017-07-04T15:57:08Z</time>
      </trkpt>
      <trkpt lat="45.9257" lon="4.76022">
        <ele>172</ele>
        <time>2017-07-04T15:57:09Z</time>
      </trkpt>
      <trkpt lat="45.92562" lon="4.76017">
        <ele>172</ele>
        <time>2017-07-04T15:57:11Z</time>
      </trkpt>
      <trkpt lat="45.92558" lon="4.76014">
        <ele>172</ele>
        <time>2017-07-04T15:57:12Z</time>
      </trkpt>
      <trkpt lat="45.9255" lon="4.76009">
        <ele>172</ele>
        <time>2017-07-04T15:57:14Z</time>
      </trkpt>
      <trkpt lat="45.92546" lon="4.76006">
        <ele>172</ele>
        <time>2017-07-04T15:57:15Z</time>
      </trkpt>
      <trkpt lat="45.92539" lon="4.76001">
        <ele>172</ele>
        <time>2017-07-04T15:57:17Z</time>
      </trkpt>
      <trkpt lat="45.92535" lon="4.75998">
        <ele>172</ele>
        <time>2017-07-04T15:57:18Z</time>
      </trkpt>
      <trkpt lat="45.92528" lon="4.75993">
        <ele>172</ele>
        <time>2017-07-04T15:57:20Z</time>
      </trkpt>
      <trkpt lat="45.92524" lon="4.7599">
        <ele>172</ele>
        <time>2017-07-04T15:57:21Z</time>
      </trkpt>
      <trkpt lat="45.92518" lon="4.75985">
        <ele>172</ele>
        <time>2017-07-04T15:57:23Z</time>
      </trkpt>
      <trkpt lat="45.92515" lon="4.75983">
        <ele>172</ele>
        <time>2017-07-04T15:57:24Z</time>
      </trkpt>
      <trkpt lat="45.92508" lon="4.75978">
        <ele>172</ele>
        <time>2017-07-04T15:57:26Z</time>
      </trkpt>
      <trkpt lat="45.92505" lon="4.75975">
        <ele>172</ele>
        <time>2017-07-04T15:57:27Z</time>
      </trkpt>
      <trkpt lat="45.92498" lon="4.7597">
        <ele>172</ele>
        <time>2017-07-04T15:57:29Z</time>
      </trkpt>
      <trkpt lat="45.92494" lon="4.75967">
        <ele>172</ele>
        <time>2017-07-04T15:57:30Z</time>
      </trkpt>
      <trkpt lat="45.92486" lon="4.75962">
        <ele>172</ele>
        <time>2017-07-04T15:57:32Z</time>
      </trkpt>
      <trkpt lat="45.92481" lon="4.7596">
        <ele>172</ele>
        <time>2017-07-04T15:57:33Z</time>
      </trkpt>
      <trkpt lat="45.92477" lon="4.75957">
        <ele>172</ele>
        <time>2017-07-04T15:57:34Z</time>
      </trkpt>
      <trkpt lat="45.92473" lon="4.75955">
        <ele>172</ele>
        <time>2017-07-04T15:57:35Z</time>
      </trkpt>
      <trkpt lat="45.92468" lon="4.75952">
        <ele>172</ele>
        <time>2017-07-04T15:57:36Z</time>
      </trkpt>
      <trkpt lat="45.92464" lon="4.75949">
        <ele>172</ele>
        <time>2017-07-04T15:57:37Z</time>
      </trkpt>
      <trkpt lat="45.92459" lon="4.75947">
        <ele>172</ele>
        <time>2017-07-04T15:57:38Z</time>
      </trkpt>
      <trkpt lat="45.92454" lon="4.75944">
        <ele>172</ele>
        <time>2017-07-04T15:57:39Z</time>
      </trkpt>
      <trkpt lat="45.9245" lon="4.75941">
        <ele>172</ele>
        <time>2017-07-04T15:57:40Z</time>
      </trkpt>
      <trkpt lat="45.92445" lon="4.75938">
        <ele>172</ele>
        <time>2017-07-04T15:57:41Z</time>
      </trkpt>
      <trkpt lat="45.9244" lon="4.75934">
        <ele>172</ele>
        <time>2017-07-04T15:57:42Z</time>
      </trkpt>
      <trkpt lat="45.92435" lon="4.75931">
        <ele>172</ele>
        <time>2017-07-04T15:57:43Z</time>
      </trkpt>
      <trkpt lat="45.92429" lon="4.75927">
        <ele>172</ele>
        <time>2017-07-04T15:57:44Z</time>
      </trkpt>
      <trkpt lat="45.92424" lon="4.75923">
        <ele>172</ele>
        <time>2017-07-04T15:57:45Z</time>
      </trkpt>
      <trkpt lat="45.92418" lon="4.75919">
        <ele>172</ele>
        <time>2017-07-04T15:57:46Z</time>
      </trkpt>
      <trkpt lat="45.92413" lon="4.75915">
        <ele>172</ele>
        <time>2017-07-04T15:57:47Z</time>
      </trkpt>
      <trkpt lat="45.92407" lon="4.75911">
        <ele>172</ele>
        <time>2017-07-04T15:57:48Z</time>
      </trkpt>
      <trkpt lat="45.92402" lon="4.75906">
        <ele>173</ele>
        <time>2017-07-04T15:57:49Z</time>
      </trkpt>
      <trkpt lat="45.92397" lon="4.75901">
        <ele>173</ele>
        <time>2017-07-04T15:57:50Z</time>
      </trkpt>
      <trkpt lat="45.92392" lon="4.75897">
        <ele>173</ele>
        <time>2017-07-04T15:57:51Z</time>
      </trkpt>
      <trkpt lat="45.92386" lon="4.75892">
        <ele>173</ele>
        <time>2017-07-04T15:57:52Z</time>
      </trkpt>
      <trkpt lat="45.92381" lon="4.75888">
        <ele>173</ele>
        <time>2017-07-04T15:57:53Z</time>
      </trkpt>
      <trkpt lat="45.92375" lon="4.75884">
        <ele>173</ele>
        <time>2017-07-04T15:57:54Z</time>
      </trkpt>
      <trkpt lat="45.92369" lon="4.75881">
        <ele>173</ele>
        <time>2017-07-04T15:57:55Z</time>
      </trkpt>
      <trkpt lat="45.92364" lon="4.75878">
        <ele>173</ele>
        <time>2017-07-04T15:57:56Z</time>
      </trkpt>
      <trkpt lat="45.92358" lon="4.75874">
        <ele>173</ele>
        <time>2017-07-04T15:57:57Z</time>
      </trkpt>
      <trkpt lat="45.92353" lon="4.7587">
        <ele>173</ele>
        <time>2017-07-04T15:57:58Z</time>
      </trkpt>
      <trkpt lat="45.92348" lon="4.75867">
        <ele>173</ele>
        <time>2017-07-04T15:57:59Z</time>
      </trkpt>
      <trkpt lat="45.92343" lon="4.75864">
        <ele>173</ele>
        <time>2017-07-04T15:58:00Z</time>
      </trkpt>
      <trkpt lat="45.92338" lon="4.75861">
        <ele>173</ele>
        <time>2017-07-04T15:58:01Z</time>
      </trkpt>
      <trkpt lat="45.92333" lon="4.75859">
        <ele>174</ele>
        <time>2017-07-04T15:58:02Z</time>
      </trkpt>
      <trkpt lat="45.92328" lon="4.75856">
        <ele>174</ele>
        <time>2017-07-04T15:58:03Z</time>
      </trkpt>
      <trkpt lat="45.92324" lon="4.75853">
        <ele>174</ele>
        <time>2017-07-04T15:58:04Z</time>
      </trkpt>
      <trkpt lat="45.9232" lon="4.75851">
        <ele>174</ele>
        <time>2017-07-04T15:58:05Z</time>
      </trkpt>
      <trkpt lat="45.92315" lon="4.75847">
        <ele>174</ele>
        <time>2017-07-04T15:58:06Z</time>
      </trkpt>
      <trkpt lat="45.9231" lon="4.75844">
        <ele>173</ele>
        <time>2017-07-04T15:58:07Z</time>
      </trkpt>
      <trkpt lat="45.92306" lon="4.75841">
        <ele>173</ele>
        <time>2017-07-04T15:58:08Z</time>
      </trkpt>
      <trkpt lat="45.92301" lon="4.75838">
        <ele>173</ele>
        <time>2017-07-04T15:58:09Z</time>
      </trkpt>
      <trkpt lat="45.92296" lon="4.75835">
        <ele>173</ele>
        <time>2017-07-04T15:58:10Z</time>
      </trkpt>
      <trkpt lat="45.92291" lon="4.75831">
        <ele>174</ele>
        <time>2017-07-04T15:58:11Z</time>
      </trkpt>
      <trkpt lat="45.92286" lon="4.75828">
        <ele>174</ele>
        <time>2017-07-04T15:58:12Z</time>
      </trkpt>
      <trkpt lat="45.92281" lon="4.75824">
        <ele>174</ele>
        <time>2017-07-04T15:58:13Z</time>
      </trkpt>
      <trkpt lat="45.92276" lon="4.75819">
        <ele>174</ele>
        <time>2017-07-04T15:58:14Z</time>
      </trkpt>
      <trkpt lat="45.92271" lon="4.75813">
        <ele>174</ele>
        <time>2017-07-04T15:58:15Z</time>
      </trkpt>
      <trkpt lat="45.92267" lon="4.75807">
        <ele>174</ele>
        <time>2017-07-04T15:58:16Z</time>
      </trkpt>
      <trkpt lat="45.92264" lon="4.758">
        <ele>174</ele>
        <time>2017-07-04T15:58:17Z</time>
      </trkpt>
      <trkpt lat="45.92262" lon="4.75793">
        <ele>174</ele>
        <time>2017-07-04T15:58:18Z</time>
      </trkpt>
      <trkpt lat="45.9226" lon="4.75786">
        <ele>174</ele>
        <time>2017-07-04T15:58:19Z</time>
      </trkpt>
      <trkpt lat="45.92258" lon="4.7578">
        <ele>174</ele>
        <time>2017-07-04T15:58:20Z</time>
      </trkpt>
      <trkpt lat="45.92257" lon="4.75773">
        <ele>174</ele>
        <time>2017-07-04T15:58:21Z</time>
      </trkpt>
      <trkpt lat="45.92256" lon="4.75767">
        <ele>174</ele>
        <time>2017-07-04T15:58:22Z</time>
      </trkpt>
      <trkpt lat="45.92255" lon="4.7576">
        <ele>174</ele>
        <time>2017-07-04T15:58:23Z</time>
      </trkpt>
      <trkpt lat="45.92253" lon="4.75748">
        <ele>174</ele>
        <time>2017-07-04T15:58:25Z</time>
      </trkpt>
      <trkpt lat="45.92252" lon="4.75741">
        <ele>174</ele>
        <time>2017-07-04T15:58:26Z</time>
      </trkpt>
      <trkpt lat="45.9225" lon="4.75735">
        <ele>174</ele>
        <time>2017-07-04T15:58:27Z</time>
      </trkpt>
      <trkpt lat="45.92249" lon="4.75727">
        <ele>174</ele>
        <time>2017-07-04T15:58:28Z</time>
      </trkpt>
      <trkpt lat="45.92247" lon="4.7572">
        <ele>174</ele>
        <time>2017-07-04T15:58:29Z</time>
      </trkpt>
      <trkpt lat="45.92244" lon="4.75713">
        <ele>174</ele>
        <time>2017-07-04T15:58:30Z</time>
      </trkpt>
      <trkpt lat="45.92241" lon="4.75706">
        <ele>174</ele>
        <time>2017-07-04T15:58:31Z</time>
      </trkpt>
      <trkpt lat="45.92237" lon="4.75699">
        <ele>174</ele>
        <time>2017-07-04T15:58:32Z</time>
      </trkpt>
      <trkpt lat="45.92233" lon="4.75693">
        <ele>174</ele>
        <time>2017-07-04T15:58:33Z</time>
      </trkpt>
      <trkpt lat="45.92229" lon="4.75688">
        <ele>174</ele>
        <time>2017-07-04T15:58:34Z</time>
      </trkpt>
      <trkpt lat="45.92223" lon="4.75684">
        <ele>174</ele>
        <time>2017-07-04T15:58:35Z</time>
      </trkpt>
      <trkpt lat="45.92218" lon="4.75679">
        <ele>174</ele>
        <time>2017-07-04T15:58:36Z</time>
      </trkpt>
      <trkpt lat="45.92213" lon="4.75674">
        <ele>174</ele>
        <time>2017-07-04T15:58:37Z</time>
      </trkpt>
      <trkpt lat="45.92207" lon="4.7567">
        <ele>174</ele>
        <time>2017-07-04T15:58:38Z</time>
      </trkpt>
      <trkpt lat="45.92202" lon="4.75665">
        <ele>174</ele>
        <time>2017-07-04T15:58:39Z</time>
      </trkpt>
      <trkpt lat="45.92197" lon="4.7566">
        <ele>174</ele>
        <time>2017-07-04T15:58:40Z</time>
      </trkpt>
      <trkpt lat="45.92192" lon="4.75655">
        <ele>174</ele>
        <time>2017-07-04T15:58:41Z</time>
      </trkpt>
      <trkpt lat="45.92187" lon="4.75651">
        <ele>174</ele>
        <time>2017-07-04T15:58:42Z</time>
      </trkpt>
      <trkpt lat="45.92182" lon="4.75646">
        <ele>174</ele>
        <time>2017-07-04T15:58:43Z</time>
      </trkpt>
      <trkpt lat="45.92177" lon="4.75642">
        <ele>174</ele>
        <time>2017-07-04T15:58:44Z</time>
      </trkpt>
      <trkpt lat="45.92172" lon="4.75637">
        <ele>174</ele>
        <time>2017-07-04T15:58:45Z</time>
      </trkpt>
      <trkpt lat="45.92167" lon="4.75633">
        <ele>174</ele>
        <time>2017-07-04T15:58:46Z</time>
      </trkpt>
      <trkpt lat="45.92163" lon="4.75628">
        <ele>174</ele>
        <time>2017-07-04T15:58:47Z</time>
      </trkpt>
      <trkpt lat="45.92158" lon="4.75624">
        <ele>174</ele>
        <time>2017-07-04T15:58:48Z</time>
      </trkpt>
      <trkpt lat="45.92153" lon="4.7562">
        <ele>174</ele>
        <time>2017-07-04T15:58:49Z</time>
      </trkpt>
      <trkpt lat="45.92149" lon="4.75616">
        <ele>174</ele>
        <time>2017-07-04T15:58:50Z</time>
      </trkpt>
      <trkpt lat="45.92144" lon="4.75612">
        <ele>174</ele>
        <time>2017-07-04T15:58:51Z</time>
      </trkpt>
      <trkpt lat="45.92141" lon="4.75607">
        <ele>174</ele>
        <time>2017-07-04T15:58:52Z</time>
      </trkpt>
      <trkpt lat="45.92137" lon="4.75603">
        <ele>174</ele>
        <time>2017-07-04T15:58:53Z</time>
      </trkpt>
      <trkpt lat="45.92134" lon="4.75599">
        <ele>174</ele>
        <time>2017-07-04T15:58:54Z</time>
      </trkpt>
      <trkpt lat="45.92127" lon="4.7559">
        <ele>174</ele>
        <time>2017-07-04T15:58:56Z</time>
      </trkpt>
      <trkpt lat="45.92124" lon="4.75586">
        <ele>174</ele>
        <time>2017-07-04T15:58:57Z</time>
      </trkpt>
      <trkpt lat="45.92121" lon="4.75576">
        <ele>174</ele>
        <time>2017-07-04T15:58:59Z</time>
      </trkpt>
      <trkpt lat="45.9212" lon="4.75572">
        <ele>174</ele>
        <time>2017-07-04T15:59:00Z</time>
      </trkpt>
      <trkpt lat="45.92121" lon="4.75563">
        <ele>174</ele>
        <time>2017-07-04T15:59:02Z</time>
      </trkpt>
      <trkpt lat="45.92122" lon="4.75558">
        <ele>174</ele>
        <time>2017-07-04T15:59:03Z</time>
      </trkpt>
      <trkpt lat="45.92126" lon="4.75548">
        <ele>174</ele>
        <time>2017-07-04T15:59:05Z</time>
      </trkpt>
      <trkpt lat="45.92129" lon="4.75543">
        <ele>174</ele>
        <time>2017-07-04T15:59:06Z</time>
      </trkpt>
      <trkpt lat="45.92132" lon="4.75537">
        <ele>174</ele>
        <time>2017-07-04T15:59:07Z</time>
      </trkpt>
      <trkpt lat="45.92135" lon="4.75532">
        <ele>174</ele>
        <time>2017-07-04T15:59:08Z</time>
      </trkpt>
      <trkpt lat="45.92138" lon="4.75525">
        <ele>174</ele>
        <time>2017-07-04T15:59:09Z</time>
      </trkpt>
      <trkpt lat="45.92141" lon="4.75519">
        <ele>174</ele>
        <time>2017-07-04T15:59:10Z</time>
      </trkpt>
      <trkpt lat="45.92144" lon="4.75512">
        <ele>174</ele>
        <time>2017-07-04T15:59:11Z</time>
      </trkpt>
      <trkpt lat="45.92146" lon="4.75505">
        <ele>175</ele>
        <time>2017-07-04T15:59:12Z</time>
      </trkpt>
      <trkpt lat="45.92149" lon="4.75498">
        <ele>175</ele>
        <time>2017-07-04T15:59:13Z</time>
      </trkpt>
      <trkpt lat="45.92151" lon="4.75492">
        <ele>175</ele>
        <time>2017-07-04T15:59:14Z</time>
      </trkpt>
      <trkpt lat="45.92155" lon="4.75486">
        <ele>176</ele>
        <time>2017-07-04T15:59:15Z</time>
      </trkpt>
      <trkpt lat="45.92157" lon="4.75479">
        <ele>176</ele>
        <time>2017-07-04T15:59:16Z</time>
      </trkpt>
      <trkpt lat="45.9216" lon="4.75472">
        <ele>176</ele>
        <time>2017-07-04T15:59:17Z</time>
      </trkpt>
      <trkpt lat="45.92163" lon="4.75466">
        <ele>176</ele>
        <time>2017-07-04T15:59:18Z</time>
      </trkpt>
      <trkpt lat="45.92165" lon="4.75459">
        <ele>176</ele>
        <time>2017-07-04T15:59:19Z</time>
      </trkpt>
      <trkpt lat="45.92167" lon="4.75452">
        <ele>176</ele>
        <time>2017-07-04T15:59:20Z</time>
      </trkpt>
      <trkpt lat="45.9217" lon="4.75445">
        <ele>176</ele>
        <time>2017-07-04T15:59:21Z</time>
      </trkpt>
      <trkpt lat="45.92174" lon="4.75438">
        <ele>177</ele>
        <time>2017-07-04T15:59:22Z</time>
      </trkpt>
      <trkpt lat="45.92178" lon="4.75433">
        <ele>177</ele>
        <time>2017-07-04T15:59:23Z</time>
      </trkpt>
      <trkpt lat="45.92181" lon="4.75426">
        <ele>177</ele>
        <time>2017-07-04T15:59:24Z</time>
      </trkpt>
      <trkpt lat="45.92183" lon="4.75419">
        <ele>177</ele>
        <time>2017-07-04T15:59:25Z</time>
      </trkpt>
      <trkpt lat="45.92186" lon="4.75412">
        <ele>177</ele>
        <time>2017-07-04T15:59:26Z</time>
      </trkpt>
      <trkpt lat="45.92188" lon="4.75406">
        <ele>177</ele>
        <time>2017-07-04T15:59:27Z</time>
      </trkpt>
      <trkpt lat="45.9219" lon="4.75398">
        <ele>177</ele>
        <time>2017-07-04T15:59:28Z</time>
      </trkpt>
      <trkpt lat="45.92192" lon="4.75392">
        <ele>177</ele>
        <time>2017-07-04T15:59:29Z</time>
      </trkpt>
      <trkpt lat="45.92194" lon="4.75386">
        <ele>177</ele>
        <time>2017-07-04T15:59:30Z</time>
      </trkpt>
      <trkpt lat="45.92197" lon="4.7538">
        <ele>177</ele>
        <time>2017-07-04T15:59:31Z</time>
      </trkpt>
      <trkpt lat="45.92199" lon="4.75374">
        <ele>177</ele>
        <time>2017-07-04T15:59:32Z</time>
      </trkpt>
      <trkpt lat="45.92201" lon="4.75368">
        <ele>177</ele>
        <time>2017-07-04T15:59:33Z</time>
      </trkpt>
      <trkpt lat="45.92204" lon="4.75362">
        <ele>177</ele>
        <time>2017-07-04T15:59:34Z</time>
      </trkpt>
      <trkpt lat="45.92207" lon="4.75354">
        <ele>177</ele>
        <time>2017-07-04T15:59:35Z</time>
      </trkpt>
      <trkpt lat="45.92209" lon="4.75347">
        <ele>177</ele>
        <time>2017-07-04T15:59:36Z</time>
      </trkpt>
      <trkpt lat="45.92211" lon="4.75339">
        <ele>177</ele>
        <time>2017-07-04T15:59:37Z</time>
      </trkpt>
      <trkpt lat="45.92213" lon="4.75331">
        <ele>176</ele>
        <time>2017-07-04T15:59:38Z</time>
      </trkpt>
      <trkpt lat="45.92214" lon="4.75323">
        <ele>176</ele>
        <time>2017-07-04T15:59:39Z</time>
      </trkpt>
      <trkpt lat="45.92215" lon="4.75315">
        <ele>176</ele>
        <time>2017-07-04T15:59:40Z</time>
      </trkpt>
      <trkpt lat="45.92216" lon="4.75306">
        <ele>176</ele>
        <time>2017-07-04T15:59:41Z</time>
      </trkpt>
      <trkpt lat="45.92216" lon="4.75298">
        <ele>176</ele>
        <time>2017-07-04T15:59:42Z</time>
      </trkpt>
      <trkpt lat="45.92217" lon="4.75289">
        <ele>176</ele>
        <time>2017-07-04T15:59:43Z</time>
      </trkpt>
      <trkpt lat="45.92216" lon="4.75281">
        <ele>176</ele>
        <time>2017-07-04T15:59:44Z</time>
      </trkpt>
      <trkpt lat="45.92217" lon="4.75272">
        <ele>176</ele>
        <time>2017-07-04T15:59:45Z</time>
      </trkpt>
      <trkpt lat="45.92217" lon="4.75263">
        <ele>176</ele>
        <time>2017-07-04T15:59:46Z</time>
      </trkpt>
      <trkpt lat="45.92217" lon="4.75254">
        <ele>175</ele>
        <time>2017-07-04T15:59:47Z</time>
      </trkpt>
      <trkpt lat="45.92218" lon="4.75245">
        <ele>175</ele>
        <time>2017-07-04T15:59:48Z</time>
      </trkpt>
      <trkpt lat="45.92218" lon="4.75235">
        <ele>175</ele>
        <time>2017-07-04T15:59:49Z</time>
      </trkpt>
      <trkpt lat="45.92218" lon="4.75226">
        <ele>175</ele>
        <time>2017-07-04T15:59:50Z</time>
      </trkpt>
      <trkpt lat="45.92219" lon="4.75217">
        <ele>175</ele>
        <time>2017-07-04T15:59:51Z</time>
      </trkpt>
      <trkpt lat="45.92221" lon="4.75208">
        <ele>175</ele>
        <time>2017-07-04T15:59:52Z</time>
      </trkpt>
      <trkpt lat="45.92223" lon="4.75198">
        <ele>175</ele>
        <time>2017-07-04T15:59:53Z</time>
      </trkpt>
      <trkpt lat="45.92225" lon="4.75189">
        <ele>175</ele>
        <time>2017-07-04T15:59:54Z</time>
      </trkpt>
      <trkpt lat="45.92227" lon="4.7518">
        <ele>175</ele>
        <time>2017-07-04T15:59:55Z</time>
      </trkpt>
      <trkpt lat="45.9223" lon="4.75171">
        <ele>175</ele>
        <time>2017-07-04T15:59:56Z</time>
      </trkpt>
      <trkpt lat="45.92235" lon="4.75162">
        <ele>174</ele>
        <time>2017-07-04T15:59:57Z</time>
      </trkpt>
      <trkpt lat="45.92239" lon="4.75154">
        <ele>174</ele>
        <time>2017-07-04T15:59:58Z</time>
      </trkpt>
      <trkpt lat="45.92243" lon="4.75146">
        <ele>174</ele>
        <time>2017-07-04T15:59:59Z</time>
      </trkpt>
      <trkpt lat="45.92247" lon="4.75138">
        <ele>174</ele>
        <time>2017-07-04T16:00:00Z</time>
      </trkpt>
      <trkpt lat="45.92252" lon="4.75131">
        <ele>174</ele>
        <time>2017-07-04T16:00:01Z</time>
      </trkpt>
      <trkpt lat="45.92256" lon="4.75125">
        <ele>174</ele>
        <time>2017-07-04T16:00:02Z</time>
      </trkpt>
      <trkpt lat="45.92261" lon="4.75119">
        <ele>174</ele>
        <time>2017-07-04T16:00:03Z</time>
      </trkpt>
      <trkpt lat="45.92267" lon="4.75114">
        <ele>174</ele>
        <time>2017-07-04T16:00:04Z</time>
      </trkpt>
      <trkpt lat="45.92272" lon="4.75109">
        <ele>174</ele>
        <time>2017-07-04T16:00:05Z</time>
      </trkpt>
      <trkpt lat="45.92277" lon="4.75104">
        <ele>174</ele>
        <time>2017-07-04T16:00:06Z</time>
      </trkpt>
      <trkpt lat="45.92282" lon="4.75099">
        <ele>173</ele>
        <time>2017-07-04T16:00:07Z</time>
      </trkpt>
      <trkpt lat="45.92287" lon="4.75095">
        <ele>173</ele>
        <time>2017-07-04T16:00:08Z</time>
      </trkpt>
      <trkpt lat="45.92292" lon="4.75091">
        <ele>173</ele>
        <time>2017-07-04T16:00:09Z</time>
      </trkpt>
      <trkpt lat="45.92296" lon="4.75086">
        <ele>173</ele>
        <time>2017-07-04T16:00:10Z</time>
      </trkpt>
      <trkpt lat="45.92301" lon="4.7508">
        <ele>172</ele>
        <time>2017-07-04T16:00:11Z</time>
      </trkpt>
      <trkpt lat="45.92305" lon="4.75074">
        <ele>172</ele>
        <time>2017-07-04T16:00:12Z</time>
      </trkpt>
      <trkpt lat="45.9231" lon="4.75068">
        <ele>172</ele>
        <time>2017-07-04T16:00:13Z</time>
      </trkpt>
      <trkpt lat="45.92314" lon="4.75062">
        <ele>172</ele>
        <time>2017-07-04T16:00:14Z</time>
      </trkpt>
      <trkpt lat="45.92318" lon="4.75056">
        <ele>172</ele>
        <time>2017-07-04T16:00:15Z</time>
      </trkpt>
      <trkpt lat="45.92322" lon="4.75049">
        <ele>172</ele>
        <time>2017-07-04T16:00:16Z</time>
      </trkpt>
      <trkpt lat="45.92326" lon="4.75042">
        <ele>172</ele>
        <time>2017-07-04T16:00:17Z</time>
      </trkpt>
      <trkpt lat="45.9233" lon="4.75036">
        <ele>171</ele>
        <time>2017-07-04T16:00:18Z</time>
      </trkpt>
      <trkpt lat="45.92334" lon="4.75029">
        <ele>170</ele>
        <time>2017-07-04T16:00:19Z</time>
      </trkpt>
      <trkpt lat="45.92337" lon="4.75022">
        <ele>170</ele>
        <time>2017-07-04T16:00:20Z</time>
      </trkpt>
      <trkpt lat="45.9234" lon="4.75015">
        <ele>170</ele>
        <time>2017-07-04T16:00:21Z</time>
      </trkpt>
      <trkpt lat="45.92343" lon="4.75008">
        <ele>170</ele>
        <time>2017-07-04T16:00:22Z</time>
      </trkpt>
      <trkpt lat="45.92346" lon="4.75001">
        <ele>170</ele>
        <time>2017-07-04T16:00:23Z</time>
      </trkpt>
      <trkpt lat="45.92349" lon="4.74993">
        <ele>170</ele>
        <time>2017-07-04T16:00:24Z</time>
      </trkpt>
      <trkpt lat="45.92352" lon="4.74984">
        <ele>170</ele>
        <time>2017-07-04T16:00:25Z</time>
      </trkpt>
      <trkpt lat="45.92355" lon="4.74976">
        <ele>170</ele>
        <time>2017-07-04T16:00:26Z</time>
      </trkpt>
      <trkpt lat="45.92358" lon="4.74968">
        <ele>170</ele>
        <time>2017-07-04T16:00:27Z</time>
      </trkpt>
      <trkpt lat="45.92361" lon="4.74961">
        <ele>170</ele>
        <time>2017-07-04T16:00:28Z</time>
      </trkpt>
      <trkpt lat="45.92364" lon="4.74953">
        <ele>170</ele>
        <time>2017-07-04T16:00:29Z</time>
      </trkpt>
      <trkpt lat="45.92367" lon="4.74946">
        <ele>170</ele>
        <time>2017-07-04T16:00:30Z</time>
      </trkpt>
      <trkpt lat="45.9237" lon="4.74938">
        <ele>170</ele>
        <time>2017-07-04T16:00:31Z</time>
      </trkpt>
      <trkpt lat="45.92373" lon="4.7493">
        <ele>170</ele>
        <time>2017-07-04T16:00:32Z</time>
      </trkpt>
      <trkpt lat="45.92376" lon="4.74923">
        <ele>170</ele>
        <time>2017-07-04T16:00:33Z</time>
      </trkpt>
      <trkpt lat="45.92378" lon="4.74916">
        <ele>171</ele>
        <time>2017-07-04T16:00:34Z</time>
      </trkpt>
      <trkpt lat="45.92381" lon="4.7491">
        <ele>171</ele>
        <time>2017-07-04T16:00:35Z</time>
      </trkpt>
      <trkpt lat="45.92384" lon="4.74903">
        <ele>171</ele>
        <time>2017-07-04T16:00:36Z</time>
      </trkpt>
      <trkpt lat="45.92386" lon="4.74896">
        <ele>171</ele>
        <time>2017-07-04T16:00:37Z</time>
      </trkpt>
      <trkpt lat="45.92388" lon="4.74889">
        <ele>171</ele>
        <time>2017-07-04T16:00:38Z</time>
      </trkpt>
      <trkpt lat="45.92391" lon="4.74882">
        <ele>171</ele>
        <time>2017-07-04T16:00:39Z</time>
      </trkpt>
      <trkpt lat="45.92394" lon="4.74875">
        <ele>171</ele>
        <time>2017-07-04T16:00:40Z</time>
      </trkpt>
      <trkpt lat="45.92397" lon="4.74867">
        <ele>171</ele>
        <time>2017-07-04T16:00:41Z</time>
      </trkpt>
      <trkpt lat="45.92399" lon="4.7486">
        <ele>171</ele>
        <time>2017-07-04T16:00:42Z</time>
      </trkpt>
      <trkpt lat="45.92402" lon="4.74852">
        <ele>171</ele>
        <time>2017-07-04T16:00:43Z</time>
      </trkpt>
      <trkpt lat="45.92404" lon="4.74844">
        <ele>171</ele>
        <time>2017-07-04T16:00:44Z</time>
      </trkpt>
      <trkpt lat="45.92406" lon="4.74837">
        <ele>171</ele>
        <time>2017-07-04T16:00:45Z</time>
      </trkpt>
      <trkpt lat="45.92407" lon="4.74828">
        <ele>171</ele>
        <time>2017-07-04T16:00:46Z</time>
      </trkpt>
      <trkpt lat="45.92409" lon="4.74821">
        <ele>171</ele>
        <time>2017-07-04T16:00:47Z</time>
      </trkpt>
      <trkpt lat="45.9241" lon="4.74813">
        <ele>171</ele>
        <time>2017-07-04T16:00:48Z</time>
      </trkpt>
      <trkpt lat="45.92412" lon="4.74806">
        <ele>171</ele>
        <time>2017-07-04T16:00:49Z</time>
      </trkpt>
      <trkpt lat="45.92414" lon="4.74798">
        <ele>171</ele>
        <time>2017-07-04T16:00:50Z</time>
      </trkpt>
      <trkpt lat="45.92415" lon="4.74791">
        <ele>171</ele>
        <time>2017-07-04T16:00:51Z</time>
      </trkpt>
      <trkpt lat="45.92417" lon="4.74783">
        <ele>171</ele>
        <time>2017-07-04T16:00:52Z</time>
      </trkpt>
      <trkpt lat="45.92419" lon="4.74775">
        <ele>171</ele>
        <time>2017-07-04T16:00:53Z</time>
      </trkpt>
      <trkpt lat="45.92421" lon="4.74768">
        <ele>171</ele>
        <time>2017-07-04T16:00:54Z</time>
      </trkpt>
      <trkpt lat="45.92423" lon="4.7476">
        <ele>171</ele>
        <time>2017-07-04T16:00:55Z</time>
      </trkpt>
      <trkpt lat="45.92425" lon="4.74753">
        <ele>172</ele>
        <time>2017-07-04T16:00:56Z</time>
      </trkpt>
      <trkpt lat="45.92426" lon="4.74746">
        <ele>172</ele>
        <time>2017-07-04T16:00:57Z</time>
      </trkpt>
      <trkpt lat="45.92428" lon="4.7474">
        <ele>171</ele>
        <time>2017-07-04T16:00:58Z</time>
      </trkpt>
      <trkpt lat="45.9243" lon="4.74733">
        <ele>171</ele>
        <time>2017-07-04T16:00:59Z</time>
      </trkpt>
      <trkpt lat="45.92432" lon="4.74727">
        <ele>171</ele>
        <time>2017-07-04T16:01:00Z</time>
      </trkpt>
      <trkpt lat="45.92434" lon="4.7472">
        <ele>171</ele>
        <time>2017-07-04T16:01:01Z</time>
      </trkpt>
      <trkpt lat="45.92437" lon="4.74713">
        <ele>171</ele>
        <time>2017-07-04T16:01:02Z</time>
      </trkpt>
      <trkpt lat="45.9244" lon="4.74706">
        <ele>171</ele>
        <time>2017-07-04T16:01:03Z</time>
      </trkpt>
      <trkpt lat="45.92442" lon="4.74699">
        <ele>171</ele>
        <time>2017-07-04T16:01:04Z</time>
      </trkpt>
      <trkpt lat="45.92445" lon="4.74693">
        <ele>171</ele>
        <time>2017-07-04T16:01:05Z</time>
      </trkpt>
      <trkpt lat="45.92447" lon="4.74687">
        <ele>171</ele>
        <time>2017-07-04T16:01:06Z</time>
      </trkpt>
      <trkpt lat="45.9245" lon="4.74681">
        <ele>171</ele>
        <time>2017-07-04T16:01:07Z</time>
      </trkpt>
      <trkpt lat="45.92452" lon="4.74675">
        <ele>171</ele>
        <time>2017-07-04T16:01:08Z</time>
      </trkpt>
      <trkpt lat="45.92455" lon="4.74669">
        <ele>171</ele>
        <time>2017-07-04T16:01:09Z</time>
      </trkpt>
      <trkpt lat="45.92458" lon="4.74663">
        <ele>171</ele>
        <time>2017-07-04T16:01:10Z</time>
      </trkpt>
      <trkpt lat="45.92461" lon="4.74657">
        <ele>171</ele>
        <time>2017-07-04T16:01:11Z</time>
      </trkpt>
      <trkpt lat="45.92464" lon="4.74651">
        <ele>171</ele>
        <time>2017-07-04T16:01:12Z</time>
      </trkpt>
      <trkpt lat="45.92468" lon="4.74646">
        <ele>171</ele>
        <time>2017-07-04T16:01:13Z</time>
      </trkpt>
      <trkpt lat="45.92471" lon="4.74641">
        <ele>171</ele>
        <time>2017-07-04T16:01:14Z</time>
      </trkpt>
      <trkpt lat="45.92475" lon="4.74637">
        <ele>171</ele>
        <time>2017-07-04T16:01:15Z</time>
      </trkpt>
      <trkpt lat="45.9248" lon="4.74632">
        <ele>171</ele>
        <time>2017-07-04T16:01:16Z</time>
      </trkpt>
      <trkpt lat="45.92484" lon="4.74627">
        <ele>171</ele>
        <time>2017-07-04T16:01:17Z</time>
      </trkpt>
      <trkpt lat="45.92487" lon="4.74622">
        <ele>171</ele>
        <time>2017-07-04T16:01:18Z</time>
      </trkpt>
      <trkpt lat="45.92491" lon="4.74617">
        <ele>171</ele>
        <time>2017-07-04T16:01:19Z</time>
      </trkpt>
      <trkpt lat="45.92495" lon="4.74612">
        <ele>171</ele>
        <time>2017-07-04T16:01:20Z</time>
      </trkpt>
      <trkpt lat="45.925" lon="4.74607">
        <ele>171</ele>
        <time>2017-07-04T16:01:21Z</time>
      </trkpt>
      <trkpt lat="45.92504" lon="4.74601">
        <ele>171</ele>
        <time>2017-07-04T16:01:22Z</time>
      </trkpt>
      <trkpt lat="45.92509" lon="4.74596">
        <ele>171</ele>
        <time>2017-07-04T16:01:23Z</time>
      </trkpt>
      <trkpt lat="45.92513" lon="4.7459">
        <ele>171</ele>
        <time>2017-07-04T16:01:24Z</time>
      </trkpt>
      <trkpt lat="45.92518" lon="4.74585">
        <ele>171</ele>
        <time>2017-07-04T16:01:25Z</time>
      </trkpt>
      <trkpt lat="45.92523" lon="4.74579">
        <ele>171</ele>
        <time>2017-07-04T16:01:26Z</time>
      </trkpt>
      <trkpt lat="45.92528" lon="4.74573">
        <ele>171</ele>
        <time>2017-07-04T16:01:27Z</time>
      </trkpt>
      <trkpt lat="45.92532" lon="4.74566">
        <ele>171</ele>
        <time>2017-07-04T16:01:28Z</time>
      </trkpt>
      <trkpt lat="45.92536" lon="4.7456">
        <ele>171</ele>
        <time>2017-07-04T16:01:29Z</time>
      </trkpt>
      <trkpt lat="45.9254" lon="4.74555">
        <ele>171</ele>
        <time>2017-07-04T16:01:30Z</time>
      </trkpt>
      <trkpt lat="45.92545" lon="4.74549">
        <ele>170</ele>
        <time>2017-07-04T16:01:31Z</time>
      </trkpt>
      <trkpt lat="45.92548" lon="4.74542">
        <ele>170</ele>
        <time>2017-07-04T16:01:32Z</time>
      </trkpt>
      <trkpt lat="45.92552" lon="4.74536">
        <ele>170</ele>
        <time>2017-07-04T16:01:33Z</time>
      </trkpt>
      <trkpt lat="45.92555" lon="4.74529">
        <ele>170</ele>
        <time>2017-07-04T16:01:34Z</time>
      </trkpt>
      <trkpt lat="45.92558" lon="4.74523">
        <ele>170</ele>
        <time>2017-07-04T16:01:35Z</time>
      </trkpt>
      <trkpt lat="45.92562" lon="4.74517">
        <ele>170</ele>
        <time>2017-07-04T16:01:36Z</time>
      </trkpt>
      <trkpt lat="45.92565" lon="4.74511">
        <ele>170</ele>
        <time>2017-07-04T16:01:37Z</time>
      </trkpt>
      <trkpt lat="45.92568" lon="4.74505">
        <ele>170</ele>
        <time>2017-07-04T16:01:38Z</time>
      </trkpt>
      <trkpt lat="45.92571" lon="4.745">
        <ele>170</ele>
        <time>2017-07-04T16:01:39Z</time>
      </trkpt>
      <trkpt lat="45.92575" lon="4.74494">
        <ele>170</ele>
        <time>2017-07-04T16:01:40Z</time>
      </trkpt>
      <trkpt lat="45.92578" lon="4.74488">
        <ele>170</ele>
        <time>2017-07-04T16:01:41Z</time>
      </trkpt>
      <trkpt lat="45.92581" lon="4.74483">
        <ele>170</ele>
        <time>2017-07-04T16:01:42Z</time>
      </trkpt>
      <trkpt lat="45.92584" lon="4.74477">
        <ele>170</ele>
        <time>2017-07-04T16:01:43Z</time>
      </trkpt>
      <trkpt lat="45.92588" lon="4.74471">
        <ele>170</ele>
        <time>2017-07-04T16:01:44Z</time>
      </trkpt>
      <trkpt lat="45.92591" lon="4.74464">
        <ele>170</ele>
        <time>2017-07-04T16:01:45Z</time>
      </trkpt>
      <trkpt lat="45.92595" lon="4.74458">
        <ele>170</ele>
        <time>2017-07-04T16:01:46Z</time>
      </trkpt>
      <trkpt lat="45.92598" lon="4.74452">
        <ele>170</ele>
        <time>2017-07-04T16:01:47Z</time>
      </trkpt>
      <trkpt lat="45.92601" lon="4.74445">
        <ele>170</ele>
        <time>2017-07-04T16:01:48Z</time>
      </trkpt>
      <trkpt lat="45.92604" lon="4.74439">
        <ele>170</ele>
        <time>2017-07-04T16:01:49Z</time>
      </trkpt>
      <trkpt lat="45.92608" lon="4.74434">
        <ele>170</ele>
        <time>2017-07-04T16:01:50Z</time>
      </trkpt>
      <trkpt lat="45.92611" lon="4.74429">
        <ele>170</ele>
        <time>2017-07-04T16:01:51Z</time>
      </trkpt>
      <trkpt lat="45.92614" lon="4.74423">
        <ele>170</ele>
        <time>2017-07-04T16:01:52Z</time>
      </trkpt>
      <trkpt lat="45.92618" lon="4.74417">
        <ele>170</ele>
        <time>2017-07-04T16:01:53Z</time>
      </trkpt>
      <trkpt lat="45.92621" lon="4.74412">
        <ele>170</ele>
        <time>2017-07-04T16:01:54Z</time>
      </trkpt>
      <trkpt lat="45.92625" lon="4.74406">
        <ele>170</ele>
        <time>2017-07-04T16:01:55Z</time>
      </trkpt>
      <trkpt lat="45.92628" lon="4.744">
        <ele>170</ele>
        <time>2017-07-04T16:01:56Z</time>
      </trkpt>
      <trkpt lat="45.92631" lon="4.74393">
        <ele>170</ele>
        <time>2017-07-04T16:01:57Z</time>
      </trkpt>
      <trkpt lat="45.92634" lon="4.74386">
        <ele>170</ele>
        <time>2017-07-04T16:01:58Z</time>
      </trkpt>
      <trkpt lat="45.92637" lon="4.7438">
        <ele>170</ele>
        <time>2017-07-04T16:01:59Z</time>
      </trkpt>
      <trkpt lat="45.9264" lon="4.74374">
        <ele>171</ele>
        <time>2017-07-04T16:02:00Z</time>
      </trkpt>
      <trkpt lat="45.92643" lon="4.74368">
        <ele>171</ele>
        <time>2017-07-04T16:02:01Z</time>
      </trkpt>
      <trkpt lat="45.92646" lon="4.74363">
        <ele>171</ele>
        <time>2017-07-04T16:02:02Z</time>
      </trkpt>
      <trkpt lat="45.92649" lon="4.74357">
        <ele>171</ele>
        <time>2017-07-04T16:02:03Z</time>
      </trkpt>
      <trkpt lat="45.92652" lon="4.74352">
        <ele>171</ele>
        <time>2017-07-04T16:02:04Z</time>
      </trkpt>
      <trkpt lat="45.92655" lon="4.74346">
        <ele>171</ele>
        <time>2017-07-04T16:02:05Z</time>
      </trkpt>
      <trkpt lat="45.92658" lon="4.74341">
        <ele>171</ele>
        <time>2017-07-04T16:02:06Z</time>
      </trkpt>
      <trkpt lat="45.92662" lon="4.74335">
        <ele>171</ele>
        <time>2017-07-04T16:02:07Z</time>
      </trkpt>
      <trkpt lat="45.92666" lon="4.74329">
        <ele>171</ele>
        <time>2017-07-04T16:02:08Z</time>
      </trkpt>
      <trkpt lat="45.92669" lon="4.74323">
        <ele>171</ele>
        <time>2017-07-04T16:02:09Z</time>
      </trkpt>
      <trkpt lat="45.92672" lon="4.74317">
        <ele>171</ele>
        <time>2017-07-04T16:02:10Z</time>
      </trkpt>
      <trkpt lat="45.92676" lon="4.74311">
        <ele>171</ele>
        <time>2017-07-04T16:02:11Z</time>
      </trkpt>
      <trkpt lat="45.92679" lon="4.74305">
        <ele>171</ele>
        <time>2017-07-04T16:02:12Z</time>
      </trkpt>
      <trkpt lat="45.92682" lon="4.74299">
        <ele>171</ele>
        <time>2017-07-04T16:02:13Z</time>
      </trkpt>
      <trkpt lat="45.92685" lon="4.74293">
        <ele>171</ele>
        <time>2017-07-04T16:02:14Z</time>
      </trkpt>
      <trkpt lat="45.92689" lon="4.74288">
        <ele>171</ele>
        <time>2017-07-04T16:02:15Z</time>
      </trkpt>
      <trkpt lat="45.92692" lon="4.74282">
        <ele>171</ele>
        <time>2017-07-04T16:02:16Z</time>
      </trkpt>
      <trkpt lat="45.92696" lon="4.74276">
        <ele>171</ele>
        <time>2017-07-04T16:02:17Z</time>
      </trkpt>
      <trkpt lat="45.927" lon="4.7427">
        <ele>171</ele>
        <time>2017-07-04T16:02:18Z</time>
      </trkpt>
      <trkpt lat="45.92703" lon="4.74264">
        <ele>171</ele>
        <time>2017-07-04T16:02:19Z</time>
      </trkpt>
      <trkpt lat="45.92707" lon="4.74258">
        <ele>171</ele>
        <time>2017-07-04T16:02:20Z</time>
      </trkpt>
      <trkpt lat="45.9271" lon="4.74252">
        <ele>171</ele>
        <time>2017-07-04T16:02:21Z</time>
      </trkpt>
      <trkpt lat="45.92714" lon="4.74246">
        <ele>171</ele>
        <time>2017-07-04T16:02:22Z</time>
      </trkpt>
      <trkpt lat="45.92717" lon="4.74241">
        <ele>171</ele>
        <time>2017-07-04T16:02:23Z</time>
      </trkpt>
      <trkpt lat="45.92721" lon="4.74235">
        <ele>171</ele>
        <time>2017-07-04T16:02:24Z</time>
      </trkpt>
      <trkpt lat="45.92724" lon="4.7423">
        <ele>171</ele>
        <time>2017-07-04T16:02:25Z</time>
      </trkpt>
      <trkpt lat="45.92728" lon="4.74225">
        <ele>171</ele>
        <time>2017-07-04T16:02:26Z</time>
      </trkpt>
      <trkpt lat="45.92732" lon="4.7422">
        <ele>171</ele>
        <time>2017-07-04T16:02:27Z</time>
      </trkpt>
      <trkpt lat="45.92736" lon="4.74214">
        <ele>171</ele>
        <time>2017-07-04T16:02:28Z</time>
      </trkpt>
      <trkpt lat="45.9274" lon="4.74208">
        <ele>171</ele>
        <time>2017-07-04T16:02:29Z</time>
      </trkpt>
      <trkpt lat="45.92745" lon="4.74202">
        <ele>171</ele>
        <time>2017-07-04T16:02:30Z</time>
      </trkpt>
      <trkpt lat="45.9275" lon="4.74196">
        <ele>172</ele>
        <time>2017-07-04T16:02:31Z</time>
      </trkpt>
      <trkpt lat="45.92755" lon="4.7419">
        <ele>172</ele>
        <time>2017-07-04T16:02:32Z</time>
      </trkpt>
      <trkpt lat="45.9276" lon="4.74184">
        <ele>172</ele>
        <time>2017-07-04T16:02:33Z</time>
      </trkpt>
      <trkpt lat="45.92765" lon="4.74178">
        <ele>172</ele>
        <time>2017-07-04T16:02:34Z</time>
      </trkpt>
      <trkpt lat="45.9277" lon="4.74173">
        <ele>172</ele>
        <time>2017-07-04T16:02:35Z</time>
      </trkpt>
      <trkpt lat="45.92775" lon="4.74168">
        <ele>172</ele>
        <time>2017-07-04T16:02:36Z</time>
      </trkpt>
      <trkpt lat="45.9278" lon="4.74163">
        <ele>172</ele>
        <time>2017-07-04T16:02:37Z</time>
      </trkpt>
      <trkpt lat="45.92784" lon="4.74159">
        <ele>172</ele>
        <time>2017-07-04T16:02:38Z</time>
      </trkpt>
      <trkpt lat="45.92789" lon="4.74154">
        <ele>172</ele>
        <time>2017-07-04T16:02:39Z</time>
      </trkpt>
      <trkpt lat="45.92793" lon="4.7415">
        <ele>172</ele>
        <time>2017-07-04T16:02:40Z</time>
      </trkpt>
      <trkpt lat="45.92798" lon="4.74146">
        <ele>172</ele>
        <time>2017-07-04T16:02:41Z</time>
      </trkpt>
      <trkpt lat="45.92803" lon="4.74141">
        <ele>172</ele>
        <time>2017-07-04T16:02:42Z</time>
      </trkpt>
      <trkpt lat="45.92807" lon="4.74137">
        <ele>172</ele>
        <time>2017-07-04T16:02:43Z</time>
      </trkpt>
      <trkpt lat="45.92812" lon="4.74132">
        <ele>172</ele>
        <time>2017-07-04T16:02:44Z</time>
      </trkpt>
      <trkpt lat="45.92816" lon="4.74127">
        <ele>172</ele>
        <time>2017-07-04T16:02:45Z</time>
      </trkpt>
      <trkpt lat="45.92821" lon="4.74123">
        <ele>172</ele>
        <time>2017-07-04T16:02:46Z</time>
      </trkpt>
      <trkpt lat="45.92824" lon="4.74118">
        <ele>171</ele>
        <time>2017-07-04T16:02:47Z</time>
      </trkpt>
      <trkpt lat="45.92828" lon="4.74114">
        <ele>171</ele>
        <time>2017-07-04T16:02:48Z</time>
      </trkpt>
      <trkpt lat="45.92832" lon="4.74109">
        <ele>171</ele>
        <time>2017-07-04T16:02:49Z</time>
      </trkpt>
      <trkpt lat="45.92836" lon="4.74105">
        <ele>171</ele>
        <time>2017-07-04T16:02:50Z</time>
      </trkpt>
      <trkpt lat="45.9284" lon="4.741">
        <ele>171</ele>
        <time>2017-07-04T16:02:51Z</time>
      </trkpt>
      <trkpt lat="45.92844" lon="4.74096">
        <ele>171</ele>
        <time>2017-07-04T16:02:52Z</time>
      </trkpt>
      <trkpt lat="45.92848" lon="4.74091">
        <ele>171</ele>
        <time>2017-07-04T16:02:53Z</time>
      </trkpt>
      <trkpt lat="45.92852" lon="4.74086">
        <ele>171</ele>
        <time>2017-07-04T16:02:54Z</time>
      </trkpt>
      <trkpt lat="45.92856" lon="4.74081">
        <ele>172</ele>
        <time>2017-07-04T16:02:55Z</time>
      </trkpt>
      <trkpt lat="45.9286" lon="4.74076">
        <ele>172</ele>
        <time>2017-07-04T16:02:56Z</time>
      </trkpt>
      <trkpt lat="45.92864" lon="4.74071">
        <ele>172</ele>
        <time>2017-07-04T16:02:57Z</time>
      </trkpt>
      <trkpt lat="45.92868" lon="4.74066">
        <ele>172</ele>
        <time>2017-07-04T16:02:58Z</time>
      </trkpt>
      <trkpt lat="45.92872" lon="4.74061">
        <ele>172</ele>
        <time>2017-07-04T16:02:59Z</time>
      </trkpt>
      <trkpt lat="45.92875" lon="4.74057">
        <ele>172</ele>
        <time>2017-07-04T16:03:00Z</time>
      </trkpt>
      <trkpt lat="45.92883" lon="4.74052">
        <ele>172</ele>
        <time>2017-07-04T16:03:02Z</time>
      </trkpt>
      <trkpt lat="45.92887" lon="4.74052">
        <ele>172</ele>
        <time>2017-07-04T16:03:03Z</time>
      </trkpt>
      <trkpt lat="45.92896" lon="4.74053">
        <ele>172</ele>
        <time>2017-07-04T16:03:05Z</time>
      </trkpt>
      <trkpt lat="45.92901" lon="4.74053">
        <ele>172</ele>
        <time>2017-07-04T16:03:06Z</time>
      </trkpt>
      <trkpt lat="45.92906" lon="4.74052">
        <ele>172</ele>
        <time>2017-07-04T16:03:07Z</time>
      </trkpt>
      <trkpt lat="45.9291" lon="4.74049">
        <ele>172</ele>
        <time>2017-07-04T16:03:08Z</time>
      </trkpt>
      <trkpt lat="45.92914" lon="4.74044">
        <ele>172</ele>
        <time>2017-07-04T16:03:09Z</time>
      </trkpt>
      <trkpt lat="45.92917" lon="4.74038">
        <ele>172</ele>
        <time>2017-07-04T16:03:10Z</time>
      </trkpt>
      <trkpt lat="45.9292" lon="4.74031">
        <ele>172</ele>
        <time>2017-07-04T16:03:11Z</time>
      </trkpt>
      <trkpt lat="45.92922" lon="4.74022">
        <ele>172</ele>
        <time>2017-07-04T16:03:12Z</time>
      </trkpt>
      <trkpt lat="45.92922" lon="4.74014">
        <ele>172</ele>
        <time>2017-07-04T16:03:13Z</time>
      </trkpt>
      <trkpt lat="45.9292" lon="4.74005">
        <ele>172</ele>
        <time>2017-07-04T16:03:14Z</time>
      </trkpt>
      <trkpt lat="45.92918" lon="4.73998">
        <ele>172</ele>
        <time>2017-07-04T16:03:15Z</time>
      </trkpt>
      <trkpt lat="45.92915" lon="4.73991">
        <ele>172</ele>
        <time>2017-07-04T16:03:16Z</time>
      </trkpt>
      <trkpt lat="45.92912" lon="4.73986">
        <ele>172</ele>
        <time>2017-07-04T16:03:17Z</time>
      </trkpt>
      <trkpt lat="45.92907" lon="4.73982">
        <ele>172</ele>
        <time>2017-07-04T16:03:18Z</time>
      </trkpt>
      <trkpt lat="45.92902" lon="4.73979">
        <ele>172</ele>
        <time>2017-07-04T16:03:19Z</time>
      </trkpt>
      <trkpt lat="45.92898" lon="4.73975">
        <ele>172</ele>
        <time>2017-07-04T16:03:20Z</time>
      </trkpt>
      <trkpt lat="45.92895" lon="4.7397">
        <ele>172</ele>
        <time>2017-07-04T16:03:21Z</time>
      </trkpt>
      <trkpt lat="45.92893" lon="4.73963">
        <ele>172</ele>
        <time>2017-07-04T16:03:22Z</time>
      </trkpt>
      <trkpt lat="45.92893" lon="4.73955">
        <ele>172</ele>
        <time>2017-07-04T16:03:23Z</time>
      </trkpt>
      <trkpt lat="45.92893" lon="4.73948">
        <ele>172</ele>
        <time>2017-07-04T16:03:24Z</time>
      </trkpt>
      <trkpt lat="45.92892" lon="4.7394">
        <ele>172</ele>
        <time>2017-07-04T16:03:25Z</time>
      </trkpt>
      <trkpt lat="45.92892" lon="4.73932">
        <ele>172</ele>
        <time>2017-07-04T16:03:26Z</time>
      </trkpt>
      <trkpt lat="45.92891" lon="4.73924">
        <ele>172</ele>
        <time>2017-07-04T16:03:27Z</time>
      </trkpt>
      <trkpt lat="45.9289" lon="4.73916">
        <ele>172</ele>
        <time>2017-07-04T16:03:28Z</time>
      </trkpt>
      <trkpt lat="45.92889" lon="4.73908">
        <ele>173</ele>
        <time>2017-07-04T16:03:29Z</time>
      </trkpt>
      <trkpt lat="45.92887" lon="4.739">
        <ele>173</ele>
        <time>2017-07-04T16:03:30Z</time>
      </trkpt>
      <trkpt lat="45.92886" lon="4.73892">
        <ele>173</ele>
        <time>2017-07-04T16:03:31Z</time>
      </trkpt>
      <trkpt lat="45.92884" lon="4.73885">
        <ele>173</ele>
        <time>2017-07-04T16:03:32Z</time>
      </trkpt>
      <trkpt lat="45.92882" lon="4.73878">
        <ele>173</ele>
        <time>2017-07-04T16:03:33Z</time>
      </trkpt>
      <trkpt lat="45.9288" lon="4.73871">
        <ele>173</ele>
        <time>2017-07-04T16:03:34Z</time>
      </trkpt>
      <trkpt lat="45.92879" lon="4.73863">
        <ele>173</ele>
        <time>2017-07-04T16:03:35Z</time>
      </trkpt>
      <trkpt lat="45.92878" lon="4.73854">
        <ele>173</ele>
        <time>2017-07-04T16:03:36Z</time>
      </trkpt>
      <trkpt lat="45.92875" lon="4.73846">
        <ele>173</ele>
        <time>2017-07-04T16:03:37Z</time>
      </trkpt>
      <trkpt lat="45.92873" lon="4.73837">
        <ele>173</ele>
        <time>2017-07-04T16:03:38Z</time>
      </trkpt>
      <trkpt lat="45.92869" lon="4.7383">
        <ele>173</ele>
        <time>2017-07-04T16:03:39Z</time>
      </trkpt>
      <trkpt lat="45.92866" lon="4.73822">
        <ele>173</ele>
        <time>2017-07-04T16:03:40Z</time>
      </trkpt>
      <trkpt lat="45.92863" lon="4.73814">
        <ele>173</ele>
        <time>2017-07-04T16:03:41Z</time>
      </trkpt>
      <trkpt lat="45.92859" lon="4.73807">
        <ele>173</ele>
        <time>2017-07-04T16:03:42Z</time>
      </trkpt>
      <trkpt lat="45.92853" lon="4.73801">
        <ele>173</ele>
        <time>2017-07-04T16:03:43Z</time>
      </trkpt>
      <trkpt lat="45.92849" lon="4.73795">
        <ele>173</ele>
        <time>2017-07-04T16:03:44Z</time>
      </trkpt>
      <trkpt lat="45.92845" lon="4.73791">
        <ele>173</ele>
        <time>2017-07-04T16:03:45Z</time>
      </trkpt>
      <trkpt lat="45.9284" lon="4.73788">
        <ele>173</ele>
        <time>2017-07-04T16:03:46Z</time>
      </trkpt>
      <trkpt lat="45.92832" lon="4.73782">
        <ele>173</ele>
        <time>2017-07-04T16:03:48Z</time>
      </trkpt>
      <trkpt lat="45.92828" lon="4.73779">
        <ele>173</ele>
        <time>2017-07-04T16:03:49Z</time>
      </trkpt>
      <trkpt lat="45.92824" lon="4.73776">
        <ele>173</ele>
        <time>2017-07-04T16:03:50Z</time>
      </trkpt>
      <trkpt lat="45.9282" lon="4.73773">
        <ele>173</ele>
        <time>2017-07-04T16:03:51Z</time>
      </trkpt>
      <trkpt lat="45.92812" lon="4.7377">
        <ele>173</ele>
        <time>2017-07-04T16:03:53Z</time>
      </trkpt>
      <trkpt lat="45.92808" lon="4.73768">
        <ele>173</ele>
        <time>2017-07-04T16:03:54Z</time>
      </trkpt>
      <trkpt lat="45.92801" lon="4.73763">
        <ele>173</ele>
        <time>2017-07-04T16:03:56Z</time>
      </trkpt>
      <trkpt lat="45.92797" lon="4.7376">
        <ele>173</ele>
        <time>2017-07-04T16:03:57Z</time>
      </trkpt>
      <trkpt lat="45.92789" lon="4.73756">
        <ele>173</ele>
        <time>2017-07-04T16:03:59Z</time>
      </trkpt>
      <trkpt lat="45.92786" lon="4.73753">
        <ele>173</ele>
        <time>2017-07-04T16:04:00Z</time>
      </trkpt>
      <trkpt lat="45.92785" lon="4.73747">
        <ele>172</ele>
        <time>2017-07-04T16:04:01Z</time>
      </trkpt>
      <trkpt lat="45.92781" lon="4.7374">
        <ele>172</ele>
        <time>2017-07-04T16:04:02Z</time>
      </trkpt>
      <trkpt lat="45.92777" lon="4.73735">
        <ele>172</ele>
        <time>2017-07-04T16:04:03Z</time>
      </trkpt>
      <trkpt lat="45.92774" lon="4.73731">
        <ele>172</ele>
        <time>2017-07-04T16:04:04Z</time>
      </trkpt>
      <trkpt lat="45.9277" lon="4.73729">
        <ele>172</ele>
        <time>2017-07-04T16:04:05Z</time>
      </trkpt>
      <trkpt lat="45.92765" lon="4.73727">
        <ele>172</ele>
        <time>2017-07-04T16:04:06Z</time>
      </trkpt>
      <trkpt lat="45.92761" lon="4.73725">
        <ele>172</ele>
        <time>2017-07-04T16:04:07Z</time>
      </trkpt>
      <trkpt lat="45.92756" lon="4.73723">
        <ele>172</ele>
        <time>2017-07-04T16:04:08Z</time>
      </trkpt>
      <trkpt lat="45.92747" lon="4.73722">
        <ele>173</ele>
        <time>2017-07-04T16:04:10Z</time>
      </trkpt>
      <trkpt lat="45.92742" lon="4.73721">
        <ele>173</ele>
        <time>2017-07-04T16:04:11Z</time>
      </trkpt>
      <trkpt lat="45.92738" lon="4.7372">
        <ele>173</ele>
        <time>2017-07-04T16:04:12Z</time>
      </trkpt>
      <trkpt lat="45.92733" lon="4.73718">
        <ele>173</ele>
        <time>2017-07-04T16:04:13Z</time>
      </trkpt>
      <trkpt lat="45.92728" lon="4.73717">
        <ele>173</ele>
        <time>2017-07-04T16:04:14Z</time>
      </trkpt>
      <trkpt lat="45.92723" lon="4.73716">
        <ele>173</ele>
        <time>2017-07-04T16:04:15Z</time>
      </trkpt>
      <trkpt lat="45.92718" lon="4.73716">
        <ele>173</ele>
        <time>2017-07-04T16:04:16Z</time>
      </trkpt>
      <trkpt lat="45.92713" lon="4.73714">
        <ele>173</ele>
        <time>2017-07-04T16:04:17Z</time>
      </trkpt>
      <trkpt lat="45.92709" lon="4.73712">
        <ele>173</ele>
        <time>2017-07-04T16:04:18Z</time>
      </trkpt>
      <trkpt lat="45.92704" lon="4.73711">
        <ele>173</ele>
        <time>2017-07-04T16:04:19Z</time>
      </trkpt>
      <trkpt lat="45.92696" lon="4.73708">
        <ele>173</ele>
        <time>2017-07-04T16:04:21Z</time>
      </trkpt>
      <trkpt lat="45.92691" lon="4.73708">
        <ele>173</ele>
        <time>2017-07-04T16:04:22Z</time>
      </trkpt>
      <trkpt lat="45.92686" lon="4.73707">
        <ele>173</ele>
        <time>2017-07-04T16:04:23Z</time>
      </trkpt>
      <trkpt lat="45.92681" lon="4.73707">
        <ele>173</ele>
        <time>2017-07-04T16:04:24Z</time>
      </trkpt>
      <trkpt lat="45.92677" lon="4.73705">
        <ele>173</ele>
        <time>2017-07-04T16:04:25Z</time>
      </trkpt>
      <trkpt lat="45.92672" lon="4.73703">
        <ele>174</ele>
        <time>2017-07-04T16:04:26Z</time>
      </trkpt>
      <trkpt lat="45.92667" lon="4.73701">
        <ele>174</ele>
        <time>2017-07-04T16:04:27Z</time>
      </trkpt>
      <trkpt lat="45.92663" lon="4.73698">
        <ele>173</ele>
        <time>2017-07-04T16:04:28Z</time>
      </trkpt>
      <trkpt lat="45.92658" lon="4.73694">
        <ele>173</ele>
        <time>2017-07-04T16:04:29Z</time>
      </trkpt>
      <trkpt lat="45.92653" lon="4.7369">
        <ele>173</ele>
        <time>2017-07-04T16:04:30Z</time>
      </trkpt>
      <trkpt lat="45.92649" lon="4.73685">
        <ele>173</ele>
        <time>2017-07-04T16:04:31Z</time>
      </trkpt>
      <trkpt lat="45.92647" lon="4.7368">
        <ele>173</ele>
        <time>2017-07-04T16:04:32Z</time>
      </trkpt>
      <trkpt lat="45.92643" lon="4.73674">
        <ele>173</ele>
        <time>2017-07-04T16:04:33Z</time>
      </trkpt>
      <trkpt lat="45.9264" lon="4.73669">
        <ele>173</ele>
        <time>2017-07-04T16:04:34Z</time>
      </trkpt>
      <trkpt lat="45.92637" lon="4.73658">
        <ele>173</ele>
        <time>2017-07-04T16:04:36Z</time>
      </trkpt>
      <trkpt lat="45.92635" lon="4.73652">
        <ele>173</ele>
        <time>2017-07-04T16:04:37Z</time>
      </trkpt>
      <trkpt lat="45.92633" lon="4.73646">
        <ele>173</ele>
        <time>2017-07-04T16:04:38Z</time>
      </trkpt>
      <trkpt lat="45.92631" lon="4.7364">
        <ele>173</ele>
        <time>2017-07-04T16:04:39Z</time>
      </trkpt>
      <trkpt lat="45.92629" lon="4.73635">
        <ele>173</ele>
        <time>2017-07-04T16:04:40Z</time>
      </trkpt>
      <trkpt lat="45.92625" lon="4.7363">
        <ele>173</ele>
        <time>2017-07-04T16:04:41Z</time>
      </trkpt>
      <trkpt lat="45.92621" lon="4.73626">
        <ele>173</ele>
        <time>2017-07-04T16:04:42Z</time>
      </trkpt>
      <trkpt lat="45.92617" lon="4.73625">
        <ele>173</ele>
        <time>2017-07-04T16:04:43Z</time>
      </trkpt>
      <trkpt lat="45.92612" lon="4.73624">
        <ele>173</ele>
        <time>2017-07-04T16:04:44Z</time>
      </trkpt>
      <trkpt lat="45.92606" lon="4.73624">
        <ele>173</ele>
        <time>2017-07-04T16:04:45Z</time>
      </trkpt>
      <trkpt lat="45.92601" lon="4.73624">
        <ele>173</ele>
        <time>2017-07-04T16:04:46Z</time>
      </trkpt>
      <trkpt lat="45.92595" lon="4.73623">
        <ele>173</ele>
        <time>2017-07-04T16:04:47Z</time>
      </trkpt>
      <trkpt lat="45.9259" lon="4.73624">
        <ele>173</ele>
        <time>2017-07-04T16:04:48Z</time>
      </trkpt>
      <trkpt lat="45.92585" lon="4.73625">
        <ele>172</ele>
        <time>2017-07-04T16:04:49Z</time>
      </trkpt>
      <trkpt lat="45.92581" lon="4.73627">
        <ele>173</ele>
        <time>2017-07-04T16:04:50Z</time>
      </trkpt>
      <trkpt lat="45.92575" lon="4.73628">
        <ele>173</ele>
        <time>2017-07-04T16:04:51Z</time>
      </trkpt>
      <trkpt lat="45.92571" lon="4.73629">
        <ele>173</ele>
        <time>2017-07-04T16:04:52Z</time>
      </trkpt>
      <trkpt lat="45.92566" lon="4.7363">
        <ele>173</ele>
        <time>2017-07-04T16:04:53Z</time>
      </trkpt>
      <trkpt lat="45.92561" lon="4.73631">
        <ele>173</ele>
        <time>2017-07-04T16:04:54Z</time>
      </trkpt>
      <trkpt lat="45.92557" lon="4.73632">
        <ele>173</ele>
        <time>2017-07-04T16:04:55Z</time>
      </trkpt>
      <trkpt lat="45.92548" lon="4.73633">
        <ele>173</ele>
        <time>2017-07-04T16:04:57Z</time>
      </trkpt>
      <trkpt lat="45.92543" lon="4.73633">
        <ele>173</ele>
        <time>2017-07-04T16:04:58Z</time>
      </trkpt>
      <trkpt lat="45.92538" lon="4.73634">
        <ele>173</ele>
        <time>2017-07-04T16:04:59Z</time>
      </trkpt>
      <trkpt lat="45.92532" lon="4.73634">
        <ele>173</ele>
        <time>2017-07-04T16:05:00Z</time>
      </trkpt>
      <trkpt lat="45.92528" lon="4.73635">
        <ele>173</ele>
        <time>2017-07-04T16:05:01Z</time>
      </trkpt>
      <trkpt lat="45.92523" lon="4.73636">
        <ele>173</ele>
        <time>2017-07-04T16:05:02Z</time>
      </trkpt>
      <trkpt lat="45.92515" lon="4.73638">
        <ele>173</ele>
        <time>2017-07-04T16:05:04Z</time>
      </trkpt>
      <trkpt lat="45.9251" lon="4.73639">
        <ele>174</ele>
        <time>2017-07-04T16:05:05Z</time>
      </trkpt>
      <trkpt lat="45.92501" lon="4.73639">
        <ele>174</ele>
        <time>2017-07-04T16:05:07Z</time>
      </trkpt>
      <trkpt lat="45.92497" lon="4.7364">
        <ele>174</ele>
        <time>2017-07-04T16:05:08Z</time>
      </trkpt>
      <trkpt lat="45.92489" lon="4.73639">
        <ele>174</ele>
        <time>2017-07-04T16:05:10Z</time>
      </trkpt>
      <trkpt lat="45.92484" lon="4.73639">
        <ele>174</ele>
        <time>2017-07-04T16:05:11Z</time>
      </trkpt>
      <trkpt lat="45.92479" lon="4.73639">
        <ele>174</ele>
        <time>2017-07-04T16:05:12Z</time>
      </trkpt>
      <trkpt lat="45.92475" lon="4.73641">
        <ele>174</ele>
        <time>2017-07-04T16:05:13Z</time>
      </trkpt>
      <trkpt lat="45.9247" lon="4.73649">
        <ele>174</ele>
        <time>2017-07-04T16:05:15Z</time>
      </trkpt>
      <trkpt lat="45.92468" lon="4.73654">
        <ele>174</ele>
        <time>2017-07-04T16:05:16Z</time>
      </trkpt>
      <trkpt lat="45.92468" lon="4.73664">
        <ele>174</ele>
        <time>2017-07-04T16:05:18Z</time>
      </trkpt>
      <trkpt lat="45.92468" lon="4.73669">
        <ele>174</ele>
        <time>2017-07-04T16:05:19Z</time>
      </trkpt>
      <trkpt lat="45.92466" lon="4.73678">
        <ele>174</ele>
        <time>2017-07-04T16:05:21Z</time>
      </trkpt>
      <trkpt lat="45.92465" lon="4.73682">
        <ele>174</ele>
        <time>2017-07-04T16:05:22Z</time>
      </trkpt>
      <trkpt lat="45.92464" lon="4.73691">
        <ele>174</ele>
        <time>2017-07-04T16:05:24Z</time>
      </trkpt>
      <trkpt lat="45.92463" lon="4.73695">
        <ele>174</ele>
        <time>2017-07-04T16:05:25Z</time>
      </trkpt>
      <trkpt lat="45.92462" lon="4.73698">
        <ele>174</ele>
        <time>2017-07-04T16:05:26Z</time>
      </trkpt>
      <trkpt lat="45.92461" lon="4.737">
        <ele>174</ele>
        <time>2017-07-04T16:05:27Z</time>
      </trkpt>
      <trkpt lat="45.92461" lon="4.73701">
        <ele>174</ele>
        <time>2017-07-04T16:05:50.854Z</time>
      </trkpt>
    </trkseg>
  </trk>
</gpx>